<?xml version="1.0" encoding="UTF-8"?><gpx xmlns="http://www.topografix.com/GPX/1/1" version="1.1" creator="iOrient"><trk><name>Большая прогулка. Вокруг Казанки</name><trkseg><trkpt lat="55.8227470" lon="49.1630420"><time>2021-08-14T06:16:50</time></trkpt><trkpt lat="55.8227350" lon="49.1630450"><time>2021-08-14T06:16:51</time></trkpt><trkpt lat="55.8227330" lon="49.1630520"><time>2021-08-14T06:16:52</time></trkpt><trkpt lat="55.8227300" lon="49.1630580"><time>2021-08-14T06:16:53</time></trkpt><trkpt lat="55.8227280" lon="49.1630650"><time>2021-08-14T06:16:54</time></trkpt><trkpt lat="55.8227260" lon="49.1630720"><time>2021-08-14T06:16:55</time></trkpt><trkpt lat="55.8227240" lon="49.1630790"><time>2021-08-14T06:16:56</time></trkpt><trkpt lat="55.8227220" lon="49.1630850"><time>2021-08-14T06:16:57</time></trkpt><trkpt lat="55.8227190" lon="49.1630920"><time>2021-08-14T06:16:58</time></trkpt><trkpt lat="55.8227170" lon="49.1630990"><time>2021-08-14T06:16:59</time></trkpt><trkpt lat="55.8227150" lon="49.1631060"><time>2021-08-14T06:17:00</time></trkpt><trkpt lat="55.8227130" lon="49.1631120"><time>2021-08-14T06:17:01</time></trkpt><trkpt lat="55.8227110" lon="49.1631190"><time>2021-08-14T06:17:02</time></trkpt><trkpt lat="55.8227080" lon="49.1631260"><time>2021-08-14T06:17:03</time></trkpt><trkpt lat="55.8227060" lon="49.1631330"><time>2021-08-14T06:17:04</time></trkpt><trkpt lat="55.8227040" lon="49.1631390"><time>2021-08-14T06:17:05</time></trkpt><trkpt lat="55.8227020" lon="49.1631460"><time>2021-08-14T06:17:06</time></trkpt><trkpt lat="55.8227000" lon="49.1631530"><time>2021-08-14T06:17:07</time></trkpt><trkpt lat="55.8226970" lon="49.1631600"><time>2021-08-14T06:17:08</time></trkpt><trkpt lat="55.8226950" lon="49.1631660"><time>2021-08-14T06:17:09</time></trkpt><trkpt lat="55.8226930" lon="49.1631730"><time>2021-08-14T06:17:10</time></trkpt><trkpt lat="55.8226920" lon="49.1632100"><time>2021-08-14T06:17:11</time></trkpt><trkpt lat="55.8226900" lon="49.1632280"><time>2021-08-14T06:17:12</time></trkpt><trkpt lat="55.8226890" lon="49.1632450"><time>2021-08-14T06:17:13</time></trkpt><trkpt lat="55.8226870" lon="49.1632670"><time>2021-08-14T06:17:14</time></trkpt><trkpt lat="55.8226830" lon="49.1632920"><time>2021-08-14T06:17:15</time></trkpt><trkpt lat="55.8226800" lon="49.1633140"><time>2021-08-14T06:17:16</time></trkpt><trkpt lat="55.8226740" lon="49.1633450"><time>2021-08-14T06:17:17</time></trkpt><trkpt lat="55.8226650" lon="49.1633830"><time>2021-08-14T06:17:18</time></trkpt><trkpt lat="55.8226600" lon="49.1633960"><time>2021-08-14T06:17:19</time></trkpt><trkpt lat="55.8226550" lon="49.1634080"><time>2021-08-14T06:17:20</time></trkpt><trkpt lat="55.8226470" lon="49.1634400"><time>2021-08-14T06:17:21</time></trkpt><trkpt lat="55.8226410" lon="49.1634620"><time>2021-08-14T06:17:22</time></trkpt><trkpt lat="55.8226350" lon="49.1634880"><time>2021-08-14T06:17:23</time></trkpt><trkpt lat="55.8226290" lon="49.1635160"><time>2021-08-14T06:17:24</time></trkpt><trkpt lat="55.8226240" lon="49.1635380"><time>2021-08-14T06:17:25</time></trkpt><trkpt lat="55.8226110" lon="49.1635590"><time>2021-08-14T06:17:26</time></trkpt><trkpt lat="55.8226030" lon="49.1635800"><time>2021-08-14T06:17:27</time></trkpt><trkpt lat="55.8225970" lon="49.1636080"><time>2021-08-14T06:17:28</time></trkpt><trkpt lat="55.8225810" lon="49.1636400"><time>2021-08-14T06:17:29</time></trkpt><trkpt lat="55.8225760" lon="49.1636560"><time>2021-08-14T06:17:30</time></trkpt><trkpt lat="55.8225700" lon="49.1636720"><time>2021-08-14T06:17:31</time></trkpt><trkpt lat="55.8225630" lon="49.1636940"><time>2021-08-14T06:17:32</time></trkpt><trkpt lat="55.8225530" lon="49.1637130"><time>2021-08-14T06:17:33</time></trkpt><trkpt lat="55.8225440" lon="49.1637270"><time>2021-08-14T06:17:34</time></trkpt><trkpt lat="55.8225350" lon="49.1637430"><time>2021-08-14T06:17:35</time></trkpt><trkpt lat="55.8225300" lon="49.1637620"><time>2021-08-14T06:17:36</time></trkpt><trkpt lat="55.8225230" lon="49.1637860"><time>2021-08-14T06:17:37</time></trkpt><trkpt lat="55.8225150" lon="49.1638030"><time>2021-08-14T06:17:38</time></trkpt><trkpt lat="55.8225090" lon="49.1638210"><time>2021-08-14T06:17:39</time></trkpt><trkpt lat="55.8225050" lon="49.1638370"><time>2021-08-14T06:17:40</time></trkpt><trkpt lat="55.8225080" lon="49.1638500"><time>2021-08-14T06:17:41</time></trkpt><trkpt lat="55.8225060" lon="49.1638630"><time>2021-08-14T06:17:42</time></trkpt><trkpt lat="55.8225070" lon="49.1638690"><time>2021-08-14T06:17:43</time></trkpt><trkpt lat="55.8225060" lon="49.1638790"><time>2021-08-14T06:17:44</time></trkpt><trkpt lat="55.8225010" lon="49.1638940"><time>2021-08-14T06:17:45</time></trkpt><trkpt lat="55.8224950" lon="49.1639070"><time>2021-08-14T06:17:46</time></trkpt><trkpt lat="55.8224710" lon="49.1639390"><time>2021-08-14T06:17:47</time></trkpt><trkpt lat="55.8224640" lon="49.1639450"><time>2021-08-14T06:17:48</time></trkpt><trkpt lat="55.8224440" lon="49.1639630"><time>2021-08-14T06:17:49</time></trkpt><trkpt lat="55.8224350" lon="49.1639750"><time>2021-08-14T06:17:50</time></trkpt><trkpt lat="55.8224270" lon="49.1639870"><time>2021-08-14T06:17:51</time></trkpt><trkpt lat="55.8224170" lon="49.1640060"><time>2021-08-14T06:17:52</time></trkpt><trkpt lat="55.8224000" lon="49.1640270"><time>2021-08-14T06:17:53</time></trkpt><trkpt lat="55.8223800" lon="49.1640440"><time>2021-08-14T06:17:54</time></trkpt><trkpt lat="55.8223740" lon="49.1640520"><time>2021-08-14T06:17:55</time></trkpt><trkpt lat="55.8223670" lon="49.1640600"><time>2021-08-14T06:17:56</time></trkpt><trkpt lat="55.8223560" lon="49.1640830"><time>2021-08-14T06:17:57</time></trkpt><trkpt lat="55.8223450" lon="49.1641080"><time>2021-08-14T06:17:58</time></trkpt><trkpt lat="55.8223210" lon="49.1641220"><time>2021-08-14T06:17:59</time></trkpt><trkpt lat="55.8223110" lon="49.1641310"><time>2021-08-14T06:18:00</time></trkpt><trkpt lat="55.8222880" lon="49.1641740"><time>2021-08-14T06:18:01</time></trkpt><trkpt lat="55.8222810" lon="49.1641830"><time>2021-08-14T06:18:02</time></trkpt><trkpt lat="55.8222590" lon="49.1642180"><time>2021-08-14T06:18:03</time></trkpt><trkpt lat="55.8222530" lon="49.1642310"><time>2021-08-14T06:18:04</time></trkpt><trkpt lat="55.8222280" lon="49.1642560"><time>2021-08-14T06:18:05</time></trkpt><trkpt lat="55.8222200" lon="49.1642620"><time>2021-08-14T06:18:06</time></trkpt><trkpt lat="55.8222080" lon="49.1642850"><time>2021-08-14T06:18:07</time></trkpt><trkpt lat="55.8221950" lon="49.1643060"><time>2021-08-14T06:18:08</time></trkpt><trkpt lat="55.8221790" lon="49.1643220"><time>2021-08-14T06:18:09</time></trkpt><trkpt lat="55.8221670" lon="49.1643430"><time>2021-08-14T06:18:10</time></trkpt><trkpt lat="55.8221540" lon="49.1643620"><time>2021-08-14T06:18:11</time></trkpt><trkpt lat="55.8221420" lon="49.1643820"><time>2021-08-14T06:18:12</time></trkpt><trkpt lat="55.8221300" lon="49.1644010"><time>2021-08-14T06:18:13</time></trkpt><trkpt lat="55.8221180" lon="49.1644220"><time>2021-08-14T06:18:14</time></trkpt><trkpt lat="55.8221030" lon="49.1644350"><time>2021-08-14T06:18:15</time></trkpt><trkpt lat="55.8220870" lon="49.1644430"><time>2021-08-14T06:18:16</time></trkpt><trkpt lat="55.8220750" lon="49.1644560"><time>2021-08-14T06:18:17</time></trkpt><trkpt lat="55.8220660" lon="49.1644750"><time>2021-08-14T06:18:18</time></trkpt><trkpt lat="55.8220550" lon="49.1644960"><time>2021-08-14T06:18:19</time></trkpt><trkpt lat="55.8220520" lon="49.1645240"><time>2021-08-14T06:18:20</time></trkpt><trkpt lat="55.8220490" lon="49.1645520"><time>2021-08-14T06:18:21</time></trkpt><trkpt lat="55.8220450" lon="49.1645790"><time>2021-08-14T06:18:22</time></trkpt><trkpt lat="55.8220330" lon="49.1645940"><time>2021-08-14T06:18:23</time></trkpt><trkpt lat="55.8220200" lon="49.1646120"><time>2021-08-14T06:18:24</time></trkpt><trkpt lat="55.8220170" lon="49.1646400"><time>2021-08-14T06:18:25</time></trkpt><trkpt lat="55.8220160" lon="49.1646730"><time>2021-08-14T06:18:26</time></trkpt><trkpt lat="55.8220200" lon="49.1647050"><time>2021-08-14T06:18:27</time></trkpt><trkpt lat="55.8220150" lon="49.1647360"><time>2021-08-14T06:18:28</time></trkpt><trkpt lat="55.8220060" lon="49.1647580"><time>2021-08-14T06:18:29</time></trkpt><trkpt lat="55.8219910" lon="49.1647780"><time>2021-08-14T06:18:30</time></trkpt><trkpt lat="55.8219750" lon="49.1647920"><time>2021-08-14T06:18:31</time></trkpt><trkpt lat="55.8219600" lon="49.1648080"><time>2021-08-14T06:18:32</time></trkpt><trkpt lat="55.8219430" lon="49.1648220"><time>2021-08-14T06:18:33</time></trkpt><trkpt lat="55.8219280" lon="49.1648350"><time>2021-08-14T06:18:34</time></trkpt><trkpt lat="55.8219140" lon="49.1648530"><time>2021-08-14T06:18:35</time></trkpt><trkpt lat="55.8218930" lon="49.1648490"><time>2021-08-14T06:18:36</time></trkpt><trkpt lat="55.8218670" lon="49.1648730"><time>2021-08-14T06:18:37</time></trkpt><trkpt lat="55.8218570" lon="49.1648820"><time>2021-08-14T06:18:38</time></trkpt><trkpt lat="55.8218410" lon="49.1648960"><time>2021-08-14T06:18:39</time></trkpt><trkpt lat="55.8218300" lon="49.1649240"><time>2021-08-14T06:18:40</time></trkpt><trkpt lat="55.8218190" lon="49.1649480"><time>2021-08-14T06:18:41</time></trkpt><trkpt lat="55.8218100" lon="49.1649700"><time>2021-08-14T06:18:42</time></trkpt><trkpt lat="55.8217850" lon="49.1649920"><time>2021-08-14T06:18:43</time></trkpt><trkpt lat="55.8217770" lon="49.1649990"><time>2021-08-14T06:18:44</time></trkpt><trkpt lat="55.8217590" lon="49.1650000"><time>2021-08-14T06:18:45</time></trkpt><trkpt lat="55.8217440" lon="49.1650070"><time>2021-08-14T06:18:46</time></trkpt><trkpt lat="55.8217290" lon="49.1650010"><time>2021-08-14T06:18:47</time></trkpt><trkpt lat="55.8217120" lon="49.1649980"><time>2021-08-14T06:18:48</time></trkpt><trkpt lat="55.8216940" lon="49.1649990"><time>2021-08-14T06:18:49</time></trkpt><trkpt lat="55.8216760" lon="49.1650000"><time>2021-08-14T06:18:50</time></trkpt><trkpt lat="55.8216600" lon="49.1650110"><time>2021-08-14T06:18:51</time></trkpt><trkpt lat="55.8216450" lon="49.1650080"><time>2021-08-14T06:18:52</time></trkpt><trkpt lat="55.8216170" lon="49.1650040"><time>2021-08-14T06:18:53</time></trkpt><trkpt lat="55.8216080" lon="49.1650040"><time>2021-08-14T06:18:54</time></trkpt><trkpt lat="55.8215910" lon="49.1650110"><time>2021-08-14T06:18:55</time></trkpt><trkpt lat="55.8215750" lon="49.1650280"><time>2021-08-14T06:18:56</time></trkpt><trkpt lat="55.8215600" lon="49.1650330"><time>2021-08-14T06:18:57</time></trkpt><trkpt lat="55.8215410" lon="49.1650410"><time>2021-08-14T06:18:58</time></trkpt><trkpt lat="55.8215250" lon="49.1650520"><time>2021-08-14T06:18:59</time></trkpt><trkpt lat="55.8215090" lon="49.1650650"><time>2021-08-14T06:19:00</time></trkpt><trkpt lat="55.8214920" lon="49.1650740"><time>2021-08-14T06:19:01</time></trkpt><trkpt lat="55.8214730" lon="49.1650760"><time>2021-08-14T06:19:02</time></trkpt><trkpt lat="55.8214560" lon="49.1650810"><time>2021-08-14T06:19:03</time></trkpt><trkpt lat="55.8214390" lon="49.1650840"><time>2021-08-14T06:19:04</time></trkpt><trkpt lat="55.8214230" lon="49.1650920"><time>2021-08-14T06:19:05</time></trkpt><trkpt lat="55.8214060" lon="49.1650930"><time>2021-08-14T06:19:06</time></trkpt><trkpt lat="55.8213910" lon="49.1650970"><time>2021-08-14T06:19:07</time></trkpt><trkpt lat="55.8213740" lon="49.1651010"><time>2021-08-14T06:19:08</time></trkpt><trkpt lat="55.8213560" lon="49.1651000"><time>2021-08-14T06:19:09</time></trkpt><trkpt lat="55.8213420" lon="49.1651080"><time>2021-08-14T06:19:10</time></trkpt><trkpt lat="55.8213150" lon="49.1651150"><time>2021-08-14T06:19:11</time></trkpt><trkpt lat="55.8213060" lon="49.1651210"><time>2021-08-14T06:19:12</time></trkpt><trkpt lat="55.8212890" lon="49.1651210"><time>2021-08-14T06:19:13</time></trkpt><trkpt lat="55.8212720" lon="49.1651260"><time>2021-08-14T06:19:14</time></trkpt><trkpt lat="55.8212550" lon="49.1651340"><time>2021-08-14T06:19:15</time></trkpt><trkpt lat="55.8212370" lon="49.1651320"><time>2021-08-14T06:19:16</time></trkpt><trkpt lat="55.8212100" lon="49.1651430"><time>2021-08-14T06:19:17</time></trkpt><trkpt lat="55.8212000" lon="49.1651490"><time>2021-08-14T06:19:18</time></trkpt><trkpt lat="55.8211820" lon="49.1651550"><time>2021-08-14T06:19:19</time></trkpt><trkpt lat="55.8211660" lon="49.1651500"><time>2021-08-14T06:19:20</time></trkpt><trkpt lat="55.8211480" lon="49.1651520"><time>2021-08-14T06:19:21</time></trkpt><trkpt lat="55.8211310" lon="49.1651530"><time>2021-08-14T06:19:22</time></trkpt><trkpt lat="55.8211150" lon="49.1651570"><time>2021-08-14T06:19:23</time></trkpt><trkpt lat="55.8210960" lon="49.1651660"><time>2021-08-14T06:19:24</time></trkpt><trkpt lat="55.8210780" lon="49.1651690"><time>2021-08-14T06:19:25</time></trkpt><trkpt lat="55.8210600" lon="49.1651730"><time>2021-08-14T06:19:26</time></trkpt><trkpt lat="55.8210430" lon="49.1651810"><time>2021-08-14T06:19:27</time></trkpt><trkpt lat="55.8210240" lon="49.1651790"><time>2021-08-14T06:19:28</time></trkpt><trkpt lat="55.8210120" lon="49.1651810"><time>2021-08-14T06:19:29</time></trkpt><trkpt lat="55.8209950" lon="49.1651830"><time>2021-08-14T06:19:30</time></trkpt><trkpt lat="55.8209780" lon="49.1651860"><time>2021-08-14T06:19:31</time></trkpt><trkpt lat="55.8209630" lon="49.1651930"><time>2021-08-14T06:19:32</time></trkpt><trkpt lat="55.8209360" lon="49.1651860"><time>2021-08-14T06:19:33</time></trkpt><trkpt lat="55.8209260" lon="49.1651840"><time>2021-08-14T06:19:34</time></trkpt><trkpt lat="55.8209120" lon="49.1651840"><time>2021-08-14T06:19:35</time></trkpt><trkpt lat="55.8208950" lon="49.1651820"><time>2021-08-14T06:19:36</time></trkpt><trkpt lat="55.8208790" lon="49.1651680"><time>2021-08-14T06:19:37</time></trkpt><trkpt lat="55.8208650" lon="49.1651590"><time>2021-08-14T06:19:38</time></trkpt><trkpt lat="55.8208390" lon="49.1651640"><time>2021-08-14T06:19:39</time></trkpt><trkpt lat="55.8208290" lon="49.1651620"><time>2021-08-14T06:19:40</time></trkpt><trkpt lat="55.8208000" lon="49.1651460"><time>2021-08-14T06:19:41</time></trkpt><trkpt lat="55.8207880" lon="49.1651420"><time>2021-08-14T06:19:42</time></trkpt><trkpt lat="55.8207730" lon="49.1651340"><time>2021-08-14T06:19:43</time></trkpt><trkpt lat="55.8207550" lon="49.1651430"><time>2021-08-14T06:19:44</time></trkpt><trkpt lat="55.8207280" lon="49.1651440"><time>2021-08-14T06:19:45</time></trkpt><trkpt lat="55.8207180" lon="49.1651490"><time>2021-08-14T06:19:46</time></trkpt><trkpt lat="55.8206980" lon="49.1651560"><time>2021-08-14T06:19:47</time></trkpt><trkpt lat="55.8206810" lon="49.1651500"><time>2021-08-14T06:19:48</time></trkpt><trkpt lat="55.8206660" lon="49.1651470"><time>2021-08-14T06:19:49</time></trkpt><trkpt lat="55.8206470" lon="49.1651400"><time>2021-08-14T06:19:50</time></trkpt><trkpt lat="55.8206290" lon="49.1651350"><time>2021-08-14T06:19:51</time></trkpt><trkpt lat="55.8206130" lon="49.1651270"><time>2021-08-14T06:19:52</time></trkpt><trkpt lat="55.8205980" lon="49.1651170"><time>2021-08-14T06:19:53</time></trkpt><trkpt lat="55.8205820" lon="49.1651160"><time>2021-08-14T06:19:54</time></trkpt><trkpt lat="55.8205680" lon="49.1651180"><time>2021-08-14T06:19:55</time></trkpt><trkpt lat="55.8205500" lon="49.1651070"><time>2021-08-14T06:19:56</time></trkpt><trkpt lat="55.8205330" lon="49.1651020"><time>2021-08-14T06:19:57</time></trkpt><trkpt lat="55.8205150" lon="49.1650940"><time>2021-08-14T06:19:58</time></trkpt><trkpt lat="55.8205000" lon="49.1650870"><time>2021-08-14T06:19:59</time></trkpt><trkpt lat="55.8204870" lon="49.1650790"><time>2021-08-14T06:20:00</time></trkpt><trkpt lat="55.8204700" lon="49.1650760"><time>2021-08-14T06:20:01</time></trkpt><trkpt lat="55.8204540" lon="49.1650720"><time>2021-08-14T06:20:02</time></trkpt><trkpt lat="55.8204380" lon="49.1650640"><time>2021-08-14T06:20:03</time></trkpt><trkpt lat="55.8204200" lon="49.1650570"><time>2021-08-14T06:20:04</time></trkpt><trkpt lat="55.8204030" lon="49.1650540"><time>2021-08-14T06:20:05</time></trkpt><trkpt lat="55.8203880" lon="49.1650470"><time>2021-08-14T06:20:06</time></trkpt><trkpt lat="55.8203740" lon="49.1650340"><time>2021-08-14T06:20:07</time></trkpt><trkpt lat="55.8203580" lon="49.1650240"><time>2021-08-14T06:20:08</time></trkpt><trkpt lat="55.8203440" lon="49.1650220"><time>2021-08-14T06:20:09</time></trkpt><trkpt lat="55.8203260" lon="49.1650240"><time>2021-08-14T06:20:10</time></trkpt><trkpt lat="55.8203060" lon="49.1650180"><time>2021-08-14T06:20:11</time></trkpt><trkpt lat="55.8202920" lon="49.1650120"><time>2021-08-14T06:20:12</time></trkpt><trkpt lat="55.8202780" lon="49.1650080"><time>2021-08-14T06:20:13</time></trkpt><trkpt lat="55.8202650" lon="49.1649980"><time>2021-08-14T06:20:14</time></trkpt><trkpt lat="55.8202500" lon="49.1649870"><time>2021-08-14T06:20:15</time></trkpt><trkpt lat="55.8202360" lon="49.1649840"><time>2021-08-14T06:20:16</time></trkpt><trkpt lat="55.8202210" lon="49.1649760"><time>2021-08-14T06:20:17</time></trkpt><trkpt lat="55.8202040" lon="49.1649700"><time>2021-08-14T06:20:18</time></trkpt><trkpt lat="55.8201890" lon="49.1649650"><time>2021-08-14T06:20:19</time></trkpt><trkpt lat="55.8201740" lon="49.1649710"><time>2021-08-14T06:20:20</time></trkpt><trkpt lat="55.8201640" lon="49.1650210"><time>2021-08-14T06:20:21</time></trkpt><trkpt lat="55.8201620" lon="49.1650410"><time>2021-08-14T06:20:22</time></trkpt><trkpt lat="55.8201590" lon="49.1650660"><time>2021-08-14T06:20:23</time></trkpt><trkpt lat="55.8201560" lon="49.1650880"><time>2021-08-14T06:20:24</time></trkpt><trkpt lat="55.8201530" lon="49.1651140"><time>2021-08-14T06:20:25</time></trkpt><trkpt lat="55.8201470" lon="49.1651380"><time>2021-08-14T06:20:26</time></trkpt><trkpt lat="55.8201410" lon="49.1651640"><time>2021-08-14T06:20:27</time></trkpt><trkpt lat="55.8201340" lon="49.1651920"><time>2021-08-14T06:20:28</time></trkpt><trkpt lat="55.8201260" lon="49.1652230"><time>2021-08-14T06:20:29</time></trkpt><trkpt lat="55.8201170" lon="49.1652770"><time>2021-08-14T06:20:30</time></trkpt><trkpt lat="55.8201110" lon="49.1652970"><time>2021-08-14T06:20:31</time></trkpt><trkpt lat="55.8201070" lon="49.1653040"><time>2021-08-14T06:20:32</time></trkpt><trkpt lat="55.8201030" lon="49.1653250"><time>2021-08-14T06:20:33</time></trkpt><trkpt lat="55.8201000" lon="49.1653380"><time>2021-08-14T06:20:34</time></trkpt><trkpt lat="55.8201000" lon="49.1653350"><time>2021-08-14T06:20:35</time></trkpt><trkpt lat="55.8201030" lon="49.1653290"><time>2021-08-14T06:20:36</time></trkpt><trkpt lat="55.8201030" lon="49.1653290"><time>2021-08-14T06:20:37</time></trkpt><trkpt lat="55.8201030" lon="49.1653290"><time>2021-08-14T06:20:38</time></trkpt><trkpt lat="55.8201030" lon="49.1653290"><time>2021-08-14T06:20:39</time></trkpt><trkpt lat="55.8201030" lon="49.1653290"><time>2021-08-14T06:20:40</time></trkpt><trkpt lat="55.8201030" lon="49.1653290"><time>2021-08-14T06:20:41</time></trkpt><trkpt lat="55.8201030" lon="49.1653290"><time>2021-08-14T06:20:42</time></trkpt><trkpt lat="55.8201030" lon="49.1653290"><time>2021-08-14T06:20:43</time></trkpt><trkpt lat="55.8201030" lon="49.1653290"><time>2021-08-14T06:20:44</time></trkpt><trkpt lat="55.8201060" lon="49.1653320"><time>2021-08-14T06:20:45</time></trkpt><trkpt lat="55.8201060" lon="49.1653590"><time>2021-08-14T06:20:46</time></trkpt><trkpt lat="55.8201010" lon="49.1653840"><time>2021-08-14T06:20:47</time></trkpt><trkpt lat="55.8200950" lon="49.1654130"><time>2021-08-14T06:20:48</time></trkpt><trkpt lat="55.8200900" lon="49.1654450"><time>2021-08-14T06:20:49</time></trkpt><trkpt lat="55.8200860" lon="49.1654670"><time>2021-08-14T06:20:50</time></trkpt><trkpt lat="55.8200810" lon="49.1654880"><time>2021-08-14T06:20:51</time></trkpt><trkpt lat="55.8200760" lon="49.1655160"><time>2021-08-14T06:20:52</time></trkpt><trkpt lat="55.8200730" lon="49.1655480"><time>2021-08-14T06:20:53</time></trkpt><trkpt lat="55.8200670" lon="49.1655700"><time>2021-08-14T06:20:54</time></trkpt><trkpt lat="55.8200620" lon="49.1655910"><time>2021-08-14T06:20:55</time></trkpt><trkpt lat="55.8200600" lon="49.1656100"><time>2021-08-14T06:20:56</time></trkpt><trkpt lat="55.8200570" lon="49.1656310"><time>2021-08-14T06:20:57</time></trkpt><trkpt lat="55.8200510" lon="49.1656640"><time>2021-08-14T06:20:58</time></trkpt><trkpt lat="55.8200500" lon="49.1656870"><time>2021-08-14T06:20:59</time></trkpt><trkpt lat="55.8200470" lon="49.1657120"><time>2021-08-14T06:21:00</time></trkpt><trkpt lat="55.8200440" lon="49.1657370"><time>2021-08-14T06:21:01</time></trkpt><trkpt lat="55.8200390" lon="49.1657590"><time>2021-08-14T06:21:02</time></trkpt><trkpt lat="55.8200360" lon="49.1657870"><time>2021-08-14T06:21:03</time></trkpt><trkpt lat="55.8200360" lon="49.1658240"><time>2021-08-14T06:21:04</time></trkpt><trkpt lat="55.8200360" lon="49.1658410"><time>2021-08-14T06:21:05</time></trkpt><trkpt lat="55.8200350" lon="49.1658570"><time>2021-08-14T06:21:06</time></trkpt><trkpt lat="55.8200330" lon="49.1658820"><time>2021-08-14T06:21:07</time></trkpt><trkpt lat="55.8200340" lon="49.1659050"><time>2021-08-14T06:21:08</time></trkpt><trkpt lat="55.8200360" lon="49.1659290"><time>2021-08-14T06:21:09</time></trkpt><trkpt lat="55.8200360" lon="49.1659530"><time>2021-08-14T06:21:10</time></trkpt><trkpt lat="55.8200370" lon="49.1659730"><time>2021-08-14T06:21:11</time></trkpt><trkpt lat="55.8200360" lon="49.1659880"><time>2021-08-14T06:21:12</time></trkpt><trkpt lat="55.8200340" lon="49.1659940"><time>2021-08-14T06:21:13</time></trkpt><trkpt lat="55.8200330" lon="49.1660110"><time>2021-08-14T06:21:14</time></trkpt><trkpt lat="55.8200330" lon="49.1660300"><time>2021-08-14T06:21:15</time></trkpt><trkpt lat="55.8200310" lon="49.1660310"><time>2021-08-14T06:21:16</time></trkpt><trkpt lat="55.8200280" lon="49.1660310"><time>2021-08-14T06:21:17</time></trkpt><trkpt lat="55.8200260" lon="49.1660310"><time>2021-08-14T06:21:18</time></trkpt><trkpt lat="55.8200230" lon="49.1660310"><time>2021-08-14T06:21:19</time></trkpt><trkpt lat="55.8200210" lon="49.1660320"><time>2021-08-14T06:21:20</time></trkpt><trkpt lat="55.8200180" lon="49.1660320"><time>2021-08-14T06:21:21</time></trkpt><trkpt lat="55.8200160" lon="49.1660320"><time>2021-08-14T06:21:22</time></trkpt><trkpt lat="55.8200130" lon="49.1660320"><time>2021-08-14T06:21:23</time></trkpt><trkpt lat="55.8200110" lon="49.1660330"><time>2021-08-14T06:21:24</time></trkpt><trkpt lat="55.8200080" lon="49.1660330"><time>2021-08-14T06:21:25</time></trkpt><trkpt lat="55.8200060" lon="49.1660330"><time>2021-08-14T06:21:26</time></trkpt><trkpt lat="55.8200030" lon="49.1660330"><time>2021-08-14T06:21:27</time></trkpt><trkpt lat="55.8200010" lon="49.1660340"><time>2021-08-14T06:21:28</time></trkpt><trkpt lat="55.8199980" lon="49.1660340"><time>2021-08-14T06:21:29</time></trkpt><trkpt lat="55.8199940" lon="49.1660310"><time>2021-08-14T06:21:30</time></trkpt><trkpt lat="55.8199880" lon="49.1660220"><time>2021-08-14T06:21:31</time></trkpt><trkpt lat="55.8199850" lon="49.1660110"><time>2021-08-14T06:21:32</time></trkpt><trkpt lat="55.8199730" lon="49.1659900"><time>2021-08-14T06:21:33</time></trkpt><trkpt lat="55.8199630" lon="49.1659540"><time>2021-08-14T06:21:34</time></trkpt><trkpt lat="55.8199600" lon="49.1659410"><time>2021-08-14T06:21:35</time></trkpt><trkpt lat="55.8199570" lon="49.1659280"><time>2021-08-14T06:21:36</time></trkpt><trkpt lat="55.8199500" lon="49.1658820"><time>2021-08-14T06:21:37</time></trkpt><trkpt lat="55.8199470" lon="49.1658670"><time>2021-08-14T06:21:38</time></trkpt><trkpt lat="55.8199450" lon="49.1658510"><time>2021-08-14T06:21:39</time></trkpt><trkpt lat="55.8199460" lon="49.1658340"><time>2021-08-14T06:21:40</time></trkpt><trkpt lat="55.8199440" lon="49.1657950"><time>2021-08-14T06:21:41</time></trkpt><trkpt lat="55.8199470" lon="49.1657530"><time>2021-08-14T06:21:42</time></trkpt><trkpt lat="55.8199480" lon="49.1657280"><time>2021-08-14T06:21:43</time></trkpt><trkpt lat="55.8199500" lon="49.1656890"><time>2021-08-14T06:21:44</time></trkpt><trkpt lat="55.8199510" lon="49.1656650"><time>2021-08-14T06:21:45</time></trkpt><trkpt lat="55.8199530" lon="49.1656400"><time>2021-08-14T06:21:46</time></trkpt><trkpt lat="55.8199550" lon="49.1656110"><time>2021-08-14T06:21:47</time></trkpt><trkpt lat="55.8199610" lon="49.1655820"><time>2021-08-14T06:21:48</time></trkpt><trkpt lat="55.8199660" lon="49.1655550"><time>2021-08-14T06:21:49</time></trkpt><trkpt lat="55.8199710" lon="49.1655270"><time>2021-08-14T06:21:50</time></trkpt><trkpt lat="55.8199770" lon="49.1655010"><time>2021-08-14T06:21:51</time></trkpt><trkpt lat="55.8199840" lon="49.1654740"><time>2021-08-14T06:21:52</time></trkpt><trkpt lat="55.8199950" lon="49.1654320"><time>2021-08-14T06:21:53</time></trkpt><trkpt lat="55.8199990" lon="49.1654130"><time>2021-08-14T06:21:54</time></trkpt><trkpt lat="55.8200030" lon="49.1653880"><time>2021-08-14T06:21:55</time></trkpt><trkpt lat="55.8200090" lon="49.1653630"><time>2021-08-14T06:21:56</time></trkpt><trkpt lat="55.8200170" lon="49.1653260"><time>2021-08-14T06:21:57</time></trkpt><trkpt lat="55.8200220" lon="49.1653050"><time>2021-08-14T06:21:58</time></trkpt><trkpt lat="55.8200320" lon="49.1652600"><time>2021-08-14T06:21:59</time></trkpt><trkpt lat="55.8200360" lon="49.1652410"><time>2021-08-14T06:22:00</time></trkpt><trkpt lat="55.8200410" lon="49.1652230"><time>2021-08-14T06:22:01</time></trkpt><trkpt lat="55.8200520" lon="49.1651900"><time>2021-08-14T06:22:02</time></trkpt><trkpt lat="55.8200590" lon="49.1651720"><time>2021-08-14T06:22:03</time></trkpt><trkpt lat="55.8200660" lon="49.1651480"><time>2021-08-14T06:22:04</time></trkpt><trkpt lat="55.8200740" lon="49.1651140"><time>2021-08-14T06:22:05</time></trkpt><trkpt lat="55.8200770" lon="49.1650930"><time>2021-08-14T06:22:06</time></trkpt><trkpt lat="55.8200800" lon="49.1650590"><time>2021-08-14T06:22:07</time></trkpt><trkpt lat="55.8200840" lon="49.1650410"><time>2021-08-14T06:22:08</time></trkpt><trkpt lat="55.8200940" lon="49.1650120"><time>2021-08-14T06:22:09</time></trkpt><trkpt lat="55.8201000" lon="49.1649850"><time>2021-08-14T06:22:10</time></trkpt><trkpt lat="55.8201050" lon="49.1649600"><time>2021-08-14T06:22:11</time></trkpt><trkpt lat="55.8201100" lon="49.1649350"><time>2021-08-14T06:22:12</time></trkpt><trkpt lat="55.8201070" lon="49.1649040"><time>2021-08-14T06:22:13</time></trkpt><trkpt lat="55.8200980" lon="49.1648780"><time>2021-08-14T06:22:14</time></trkpt><trkpt lat="55.8200700" lon="49.1648640"><time>2021-08-14T06:22:15</time></trkpt><trkpt lat="55.8200610" lon="49.1648640"><time>2021-08-14T06:22:16</time></trkpt><trkpt lat="55.8200470" lon="49.1648520"><time>2021-08-14T06:22:17</time></trkpt><trkpt lat="55.8200340" lon="49.1648360"><time>2021-08-14T06:22:18</time></trkpt><trkpt lat="55.8200190" lon="49.1648270"><time>2021-08-14T06:22:20</time></trkpt><trkpt lat="55.8200040" lon="49.1648140"><time>2021-08-14T06:22:21</time></trkpt><trkpt lat="55.8199890" lon="49.1648010"><time>2021-08-14T06:22:22</time></trkpt><trkpt lat="55.8199740" lon="49.1647890"><time>2021-08-14T06:22:23</time></trkpt><trkpt lat="55.8199450" lon="49.1647610"><time>2021-08-14T06:22:24</time></trkpt><trkpt lat="55.8199330" lon="49.1647410"><time>2021-08-14T06:22:25</time></trkpt><trkpt lat="55.8199180" lon="49.1647270"><time>2021-08-14T06:22:26</time></trkpt><trkpt lat="55.8199020" lon="49.1647140"><time>2021-08-14T06:22:27</time></trkpt><trkpt lat="55.8198870" lon="49.1647000"><time>2021-08-14T06:22:28</time></trkpt><trkpt lat="55.8198710" lon="49.1646880"><time>2021-08-14T06:22:29</time></trkpt><trkpt lat="55.8198560" lon="49.1646740"><time>2021-08-14T06:22:30</time></trkpt><trkpt lat="55.8198410" lon="49.1646620"><time>2021-08-14T06:22:32</time></trkpt><trkpt lat="55.8198270" lon="49.1646470"><time>2021-08-14T06:22:33</time></trkpt><trkpt lat="55.8198120" lon="49.1646310"><time>2021-08-14T06:22:34</time></trkpt><trkpt lat="55.8197970" lon="49.1646150"><time>2021-08-14T06:22:35</time></trkpt><trkpt lat="55.8197820" lon="49.1645990"><time>2021-08-14T06:22:36</time></trkpt><trkpt lat="55.8197690" lon="49.1645790"><time>2021-08-14T06:22:37</time></trkpt><trkpt lat="55.8197530" lon="49.1645670"><time>2021-08-14T06:22:38</time></trkpt><trkpt lat="55.8197410" lon="49.1645470"><time>2021-08-14T06:22:39</time></trkpt><trkpt lat="55.8197270" lon="49.1645270"><time>2021-08-14T06:22:40</time></trkpt><trkpt lat="55.8197130" lon="49.1645110"><time>2021-08-14T06:22:41</time></trkpt><trkpt lat="55.8196970" lon="49.1645050"><time>2021-08-14T06:22:42</time></trkpt><trkpt lat="55.8196830" lon="49.1644840"><time>2021-08-14T06:22:43</time></trkpt><trkpt lat="55.8196700" lon="49.1644650"><time>2021-08-14T06:22:44</time></trkpt><trkpt lat="55.8196550" lon="49.1644490"><time>2021-08-14T06:22:45</time></trkpt><trkpt lat="55.8196410" lon="49.1644330"><time>2021-08-14T06:22:46</time></trkpt><trkpt lat="55.8196270" lon="49.1644200"><time>2021-08-14T06:22:47</time></trkpt><trkpt lat="55.8196140" lon="49.1644010"><time>2021-08-14T06:22:48</time></trkpt><trkpt lat="55.8196020" lon="49.1643840"><time>2021-08-14T06:22:49</time></trkpt><trkpt lat="55.8195910" lon="49.1643630"><time>2021-08-14T06:22:50</time></trkpt><trkpt lat="55.8195780" lon="49.1643400"><time>2021-08-14T06:22:51</time></trkpt><trkpt lat="55.8195650" lon="49.1643240"><time>2021-08-14T06:22:52</time></trkpt><trkpt lat="55.8195510" lon="49.1643060"><time>2021-08-14T06:22:53</time></trkpt><trkpt lat="55.8195370" lon="49.1642900"><time>2021-08-14T06:22:54</time></trkpt><trkpt lat="55.8195250" lon="49.1642700"><time>2021-08-14T06:22:55</time></trkpt><trkpt lat="55.8195130" lon="49.1642480"><time>2021-08-14T06:22:56</time></trkpt><trkpt lat="55.8194990" lon="49.1642300"><time>2021-08-14T06:22:57</time></trkpt><trkpt lat="55.8194850" lon="49.1642150"><time>2021-08-14T06:22:58</time></trkpt><trkpt lat="55.8194740" lon="49.1641900"><time>2021-08-14T06:22:59</time></trkpt><trkpt lat="55.8194610" lon="49.1641700"><time>2021-08-14T06:23:00</time></trkpt><trkpt lat="55.8194490" lon="49.1641470"><time>2021-08-14T06:23:01</time></trkpt><trkpt lat="55.8194360" lon="49.1641240"><time>2021-08-14T06:23:02</time></trkpt><trkpt lat="55.8194240" lon="49.1641010"><time>2021-08-14T06:23:03</time></trkpt><trkpt lat="55.8194080" lon="49.1640860"><time>2021-08-14T06:23:04</time></trkpt><trkpt lat="55.8193950" lon="49.1640660"><time>2021-08-14T06:23:05</time></trkpt><trkpt lat="55.8193820" lon="49.1640460"><time>2021-08-14T06:23:06</time></trkpt><trkpt lat="55.8193690" lon="49.1640280"><time>2021-08-14T06:23:07</time></trkpt><trkpt lat="55.8193550" lon="49.1640100"><time>2021-08-14T06:23:08</time></trkpt><trkpt lat="55.8193450" lon="49.1639860"><time>2021-08-14T06:23:09</time></trkpt><trkpt lat="55.8193320" lon="49.1639660"><time>2021-08-14T06:23:10</time></trkpt><trkpt lat="55.8193210" lon="49.1639470"><time>2021-08-14T06:23:11</time></trkpt><trkpt lat="55.8193100" lon="49.1639250"><time>2021-08-14T06:23:12</time></trkpt><trkpt lat="55.8192970" lon="49.1639060"><time>2021-08-14T06:23:13</time></trkpt><trkpt lat="55.8192850" lon="49.1638850"><time>2021-08-14T06:23:14</time></trkpt><trkpt lat="55.8192770" lon="49.1638610"><time>2021-08-14T06:23:15</time></trkpt><trkpt lat="55.8192660" lon="49.1638410"><time>2021-08-14T06:23:16</time></trkpt><trkpt lat="55.8192530" lon="49.1638220"><time>2021-08-14T06:23:17</time></trkpt><trkpt lat="55.8192430" lon="49.1638000"><time>2021-08-14T06:23:18</time></trkpt><trkpt lat="55.8192340" lon="49.1637760"><time>2021-08-14T06:23:19</time></trkpt><trkpt lat="55.8192210" lon="49.1637560"><time>2021-08-14T06:23:20</time></trkpt><trkpt lat="55.8192090" lon="49.1637330"><time>2021-08-14T06:23:21</time></trkpt><trkpt lat="55.8191980" lon="49.1637110"><time>2021-08-14T06:23:22</time></trkpt><trkpt lat="55.8191870" lon="49.1636890"><time>2021-08-14T06:23:23</time></trkpt><trkpt lat="55.8191710" lon="49.1636520"><time>2021-08-14T06:23:24</time></trkpt><trkpt lat="55.8191650" lon="49.1636360"><time>2021-08-14T06:23:25</time></trkpt><trkpt lat="55.8191560" lon="49.1636200"><time>2021-08-14T06:23:26</time></trkpt><trkpt lat="55.8191450" lon="49.1635950"><time>2021-08-14T06:23:27</time></trkpt><trkpt lat="55.8191370" lon="49.1635730"><time>2021-08-14T06:23:28</time></trkpt><trkpt lat="55.8191260" lon="49.1635530"><time>2021-08-14T06:23:29</time></trkpt><trkpt lat="55.8191150" lon="49.1635310"><time>2021-08-14T06:23:30</time></trkpt><trkpt lat="55.8191040" lon="49.1635050"><time>2021-08-14T06:23:31</time></trkpt><trkpt lat="55.8190940" lon="49.1634830"><time>2021-08-14T06:23:32</time></trkpt><trkpt lat="55.8190850" lon="49.1634580"><time>2021-08-14T06:23:33</time></trkpt><trkpt lat="55.8190730" lon="49.1634120"><time>2021-08-14T06:23:34</time></trkpt><trkpt lat="55.8190660" lon="49.1634000"><time>2021-08-14T06:23:35</time></trkpt><trkpt lat="55.8190540" lon="49.1633570"><time>2021-08-14T06:23:36</time></trkpt><trkpt lat="55.8190490" lon="49.1633420"><time>2021-08-14T06:23:37</time></trkpt><trkpt lat="55.8190340" lon="49.1632970"><time>2021-08-14T06:23:38</time></trkpt><trkpt lat="55.8190310" lon="49.1632770"><time>2021-08-14T06:23:39</time></trkpt><trkpt lat="55.8190200" lon="49.1632320"><time>2021-08-14T06:23:40</time></trkpt><trkpt lat="55.8190030" lon="49.1631810"><time>2021-08-14T06:23:41</time></trkpt><trkpt lat="55.8189940" lon="49.1631610"><time>2021-08-14T06:23:42</time></trkpt><trkpt lat="55.8189810" lon="49.1630870"><time>2021-08-14T06:23:43</time></trkpt><trkpt lat="55.8189700" lon="49.1630530"><time>2021-08-14T06:23:44</time></trkpt><trkpt lat="55.8189480" lon="49.1629850"><time>2021-08-14T06:23:45</time></trkpt><trkpt lat="55.8189230" lon="49.1629170"><time>2021-08-14T06:23:46</time></trkpt><trkpt lat="55.8189010" lon="49.1628700"><time>2021-08-14T06:23:47</time></trkpt><trkpt lat="55.8188860" lon="49.1628150"><time>2021-08-14T06:23:48</time></trkpt><trkpt lat="55.8188730" lon="49.1627670"><time>2021-08-14T06:23:49</time></trkpt><trkpt lat="55.8188610" lon="49.1627180"><time>2021-08-14T06:23:50</time></trkpt><trkpt lat="55.8188550" lon="49.1626560"><time>2021-08-14T06:23:51</time></trkpt><trkpt lat="55.8188380" lon="49.1626070"><time>2021-08-14T06:23:52</time></trkpt><trkpt lat="55.8188240" lon="49.1625520"><time>2021-08-14T06:23:53</time></trkpt><trkpt lat="55.8188110" lon="49.1625000"><time>2021-08-14T06:23:54</time></trkpt><trkpt lat="55.8188040" lon="49.1624430"><time>2021-08-14T06:23:55</time></trkpt><trkpt lat="55.8187850" lon="49.1624060"><time>2021-08-14T06:23:56</time></trkpt><trkpt lat="55.8187770" lon="49.1623580"><time>2021-08-14T06:23:57</time></trkpt><trkpt lat="55.8187680" lon="49.1622870"><time>2021-08-14T06:23:58</time></trkpt><trkpt lat="55.8187610" lon="49.1622630"><time>2021-08-14T06:23:59</time></trkpt><trkpt lat="55.8187460" lon="49.1621960"><time>2021-08-14T06:24:00</time></trkpt><trkpt lat="55.8187400" lon="49.1621720"><time>2021-08-14T06:24:01</time></trkpt><trkpt lat="55.8187310" lon="49.1621170"><time>2021-08-14T06:24:02</time></trkpt><trkpt lat="55.8187320" lon="49.1620650"><time>2021-08-14T06:24:03</time></trkpt><trkpt lat="55.8187170" lon="49.1620140"><time>2021-08-14T06:24:04</time></trkpt><trkpt lat="55.8187120" lon="49.1619630"><time>2021-08-14T06:24:05</time></trkpt><trkpt lat="55.8187020" lon="49.1618920"><time>2021-08-14T06:24:06</time></trkpt><trkpt lat="55.8186960" lon="49.1618640"><time>2021-08-14T06:24:07</time></trkpt><trkpt lat="55.8186870" lon="49.1618030"><time>2021-08-14T06:24:08</time></trkpt><trkpt lat="55.8186860" lon="49.1617810"><time>2021-08-14T06:24:09</time></trkpt><trkpt lat="55.8186800" lon="49.1617110"><time>2021-08-14T06:24:10</time></trkpt><trkpt lat="55.8186730" lon="49.1616830"><time>2021-08-14T06:24:11</time></trkpt><trkpt lat="55.8186610" lon="49.1616120"><time>2021-08-14T06:24:12</time></trkpt><trkpt lat="55.8186520" lon="49.1615850"><time>2021-08-14T06:24:13</time></trkpt><trkpt lat="55.8186460" lon="49.1615190"><time>2021-08-14T06:24:14</time></trkpt><trkpt lat="55.8186440" lon="49.1614960"><time>2021-08-14T06:24:15</time></trkpt><trkpt lat="55.8186340" lon="49.1614350"><time>2021-08-14T06:24:16</time></trkpt><trkpt lat="55.8186310" lon="49.1614120"><time>2021-08-14T06:24:17</time></trkpt><trkpt lat="55.8186200" lon="49.1613470"><time>2021-08-14T06:24:18</time></trkpt><trkpt lat="55.8186170" lon="49.1613270"><time>2021-08-14T06:24:19</time></trkpt><trkpt lat="55.8186150" lon="49.1612740"><time>2021-08-14T06:24:20</time></trkpt><trkpt lat="55.8186120" lon="49.1611800"><time>2021-08-14T06:24:21</time></trkpt><trkpt lat="55.8186150" lon="49.1611260"><time>2021-08-14T06:24:22</time></trkpt><trkpt lat="55.8186080" lon="49.1610550"><time>2021-08-14T06:24:23</time></trkpt><trkpt lat="55.8186070" lon="49.1610260"><time>2021-08-14T06:24:24</time></trkpt><trkpt lat="55.8186020" lon="49.1609770"><time>2021-08-14T06:24:25</time></trkpt><trkpt lat="55.8185900" lon="49.1609290"><time>2021-08-14T06:24:26</time></trkpt><trkpt lat="55.8185940" lon="49.1608870"><time>2021-08-14T06:24:27</time></trkpt><trkpt lat="55.8185940" lon="49.1608720"><time>2021-08-14T06:24:28</time></trkpt><trkpt lat="55.8186020" lon="49.1608100"><time>2021-08-14T06:24:29</time></trkpt><trkpt lat="55.8186030" lon="49.1607570"><time>2021-08-14T06:24:31</time></trkpt><trkpt lat="55.8186010" lon="49.1607000"><time>2021-08-14T06:24:32</time></trkpt><trkpt lat="55.8186060" lon="49.1606250"><time>2021-08-14T06:24:33</time></trkpt><trkpt lat="55.8186070" lon="49.1605970"><time>2021-08-14T06:24:34</time></trkpt><trkpt lat="55.8186060" lon="49.1605460"><time>2021-08-14T06:24:35</time></trkpt><trkpt lat="55.8185920" lon="49.1604910"><time>2021-08-14T06:24:36</time></trkpt><trkpt lat="55.8185900" lon="49.1604710"><time>2021-08-14T06:24:37</time></trkpt><trkpt lat="55.8185990" lon="49.1604260"><time>2021-08-14T06:24:38</time></trkpt><trkpt lat="55.8186050" lon="49.1603660"><time>2021-08-14T06:24:39</time></trkpt><trkpt lat="55.8186070" lon="49.1602930"><time>2021-08-14T06:24:40</time></trkpt><trkpt lat="55.8186030" lon="49.1602670"><time>2021-08-14T06:24:41</time></trkpt><trkpt lat="55.8186060" lon="49.1602050"><time>2021-08-14T06:24:42</time></trkpt><trkpt lat="55.8186070" lon="49.1601830"><time>2021-08-14T06:24:43</time></trkpt><trkpt lat="55.8186070" lon="49.1601320"><time>2021-08-14T06:24:44</time></trkpt><trkpt lat="55.8186110" lon="49.1600840"><time>2021-08-14T06:24:45</time></trkpt><trkpt lat="55.8185980" lon="49.1600240"><time>2021-08-14T06:24:46</time></trkpt><trkpt lat="55.8185970" lon="49.1599740"><time>2021-08-14T06:24:47</time></trkpt><trkpt lat="55.8185970" lon="49.1599590"><time>2021-08-14T06:24:48</time></trkpt><trkpt lat="55.8186120" lon="49.1599070"><time>2021-08-14T06:24:49</time></trkpt><trkpt lat="55.8186140" lon="49.1598910"><time>2021-08-14T06:24:50</time></trkpt><trkpt lat="55.8186150" lon="49.1598650"><time>2021-08-14T06:24:51</time></trkpt><trkpt lat="55.8186130" lon="49.1598360"><time>2021-08-14T06:24:52</time></trkpt><trkpt lat="55.8186130" lon="49.1598060"><time>2021-08-14T06:24:53</time></trkpt><trkpt lat="55.8186050" lon="49.1597750"><time>2021-08-14T06:24:54</time></trkpt><trkpt lat="55.8186060" lon="49.1597530"><time>2021-08-14T06:24:55</time></trkpt><trkpt lat="55.8186090" lon="49.1596880"><time>2021-08-14T06:24:56</time></trkpt><trkpt lat="55.8186050" lon="49.1596580"><time>2021-08-14T06:24:57</time></trkpt><trkpt lat="55.8186100" lon="49.1596330"><time>2021-08-14T06:24:58</time></trkpt><trkpt lat="55.8186060" lon="49.1596050"><time>2021-08-14T06:24:59</time></trkpt><trkpt lat="55.8186040" lon="49.1595810"><time>2021-08-14T06:25:00</time></trkpt><trkpt lat="55.8186060" lon="49.1595550"><time>2021-08-14T06:25:01</time></trkpt><trkpt lat="55.8186060" lon="49.1595250"><time>2021-08-14T06:25:02</time></trkpt><trkpt lat="55.8186090" lon="49.1594960"><time>2021-08-14T06:25:03</time></trkpt><trkpt lat="55.8186140" lon="49.1594710"><time>2021-08-14T06:25:04</time></trkpt><trkpt lat="55.8186140" lon="49.1594380"><time>2021-08-14T06:25:05</time></trkpt><trkpt lat="55.8186170" lon="49.1594090"><time>2021-08-14T06:25:06</time></trkpt><trkpt lat="55.8186200" lon="49.1593750"><time>2021-08-14T06:25:07</time></trkpt><trkpt lat="55.8186170" lon="49.1593480"><time>2021-08-14T06:25:08</time></trkpt><trkpt lat="55.8186140" lon="49.1593160"><time>2021-08-14T06:25:09</time></trkpt><trkpt lat="55.8186150" lon="49.1592670"><time>2021-08-14T06:25:10</time></trkpt><trkpt lat="55.8186170" lon="49.1592490"><time>2021-08-14T06:25:11</time></trkpt><trkpt lat="55.8186240" lon="49.1592260"><time>2021-08-14T06:25:12</time></trkpt><trkpt lat="55.8186260" lon="49.1591960"><time>2021-08-14T06:25:13</time></trkpt><trkpt lat="55.8186290" lon="49.1591680"><time>2021-08-14T06:25:14</time></trkpt><trkpt lat="55.8186290" lon="49.1591350"><time>2021-08-14T06:25:15</time></trkpt><trkpt lat="55.8186290" lon="49.1591110"><time>2021-08-14T06:25:16</time></trkpt><trkpt lat="55.8186280" lon="49.1590780"><time>2021-08-14T06:25:17</time></trkpt><trkpt lat="55.8186250" lon="49.1590530"><time>2021-08-14T06:25:18</time></trkpt><trkpt lat="55.8186240" lon="49.1590230"><time>2021-08-14T06:25:19</time></trkpt><trkpt lat="55.8186270" lon="49.1589870"><time>2021-08-14T06:25:20</time></trkpt><trkpt lat="55.8186290" lon="49.1589600"><time>2021-08-14T06:25:21</time></trkpt><trkpt lat="55.8186280" lon="49.1589320"><time>2021-08-14T06:25:22</time></trkpt><trkpt lat="55.8186250" lon="49.1589040"><time>2021-08-14T06:25:23</time></trkpt><trkpt lat="55.8186300" lon="49.1588730"><time>2021-08-14T06:25:24</time></trkpt><trkpt lat="55.8186310" lon="49.1588480"><time>2021-08-14T06:25:25</time></trkpt><trkpt lat="55.8186280" lon="49.1587960"><time>2021-08-14T06:25:26</time></trkpt><trkpt lat="55.8186280" lon="49.1587810"><time>2021-08-14T06:25:27</time></trkpt><trkpt lat="55.8186210" lon="49.1587530"><time>2021-08-14T06:25:28</time></trkpt><trkpt lat="55.8186300" lon="49.1587220"><time>2021-08-14T06:25:29</time></trkpt><trkpt lat="55.8186340" lon="49.1586950"><time>2021-08-14T06:25:30</time></trkpt><trkpt lat="55.8186270" lon="49.1586670"><time>2021-08-14T06:25:31</time></trkpt><trkpt lat="55.8186360" lon="49.1586370"><time>2021-08-14T06:25:32</time></trkpt><trkpt lat="55.8186330" lon="49.1586060"><time>2021-08-14T06:25:33</time></trkpt><trkpt lat="55.8186360" lon="49.1585780"><time>2021-08-14T06:25:34</time></trkpt><trkpt lat="55.8186360" lon="49.1585480"><time>2021-08-14T06:25:35</time></trkpt><trkpt lat="55.8186420" lon="49.1584990"><time>2021-08-14T06:25:36</time></trkpt><trkpt lat="55.8186430" lon="49.1584820"><time>2021-08-14T06:25:37</time></trkpt><trkpt lat="55.8186420" lon="49.1584570"><time>2021-08-14T06:25:38</time></trkpt><trkpt lat="55.8186350" lon="49.1584270"><time>2021-08-14T06:25:39</time></trkpt><trkpt lat="55.8186360" lon="49.1583980"><time>2021-08-14T06:25:40</time></trkpt><trkpt lat="55.8186350" lon="49.1583690"><time>2021-08-14T06:25:41</time></trkpt><trkpt lat="55.8186380" lon="49.1583400"><time>2021-08-14T06:25:42</time></trkpt><trkpt lat="55.8186370" lon="49.1583100"><time>2021-08-14T06:25:43</time></trkpt><trkpt lat="55.8186290" lon="49.1582870"><time>2021-08-14T06:25:44</time></trkpt><trkpt lat="55.8186320" lon="49.1582580"><time>2021-08-14T06:25:45</time></trkpt><trkpt lat="55.8186320" lon="49.1582280"><time>2021-08-14T06:25:46</time></trkpt><trkpt lat="55.8186300" lon="49.1581960"><time>2021-08-14T06:25:47</time></trkpt><trkpt lat="55.8186320" lon="49.1581700"><time>2021-08-14T06:25:48</time></trkpt><trkpt lat="55.8186310" lon="49.1581370"><time>2021-08-14T06:25:49</time></trkpt><trkpt lat="55.8186280" lon="49.1581070"><time>2021-08-14T06:25:50</time></trkpt><trkpt lat="55.8186290" lon="49.1580750"><time>2021-08-14T06:25:51</time></trkpt><trkpt lat="55.8186310" lon="49.1580240"><time>2021-08-14T06:25:52</time></trkpt><trkpt lat="55.8186300" lon="49.1580070"><time>2021-08-14T06:25:53</time></trkpt><trkpt lat="55.8186270" lon="49.1579810"><time>2021-08-14T06:25:54</time></trkpt><trkpt lat="55.8186280" lon="49.1579540"><time>2021-08-14T06:25:55</time></trkpt><trkpt lat="55.8186290" lon="49.1579240"><time>2021-08-14T06:25:56</time></trkpt><trkpt lat="55.8186330" lon="49.1578920"><time>2021-08-14T06:25:57</time></trkpt><trkpt lat="55.8186350" lon="49.1578590"><time>2021-08-14T06:25:58</time></trkpt><trkpt lat="55.8186360" lon="49.1578330"><time>2021-08-14T06:25:59</time></trkpt><trkpt lat="55.8186310" lon="49.1578050"><time>2021-08-14T06:26:00</time></trkpt><trkpt lat="55.8186300" lon="49.1577750"><time>2021-08-14T06:26:01</time></trkpt><trkpt lat="55.8186300" lon="49.1577500"><time>2021-08-14T06:26:02</time></trkpt><trkpt lat="55.8186290" lon="49.1577180"><time>2021-08-14T06:26:03</time></trkpt><trkpt lat="55.8186310" lon="49.1576950"><time>2021-08-14T06:26:04</time></trkpt><trkpt lat="55.8186330" lon="49.1576650"><time>2021-08-14T06:26:05</time></trkpt><trkpt lat="55.8186290" lon="49.1576310"><time>2021-08-14T06:26:06</time></trkpt><trkpt lat="55.8186280" lon="49.1576020"><time>2021-08-14T06:26:07</time></trkpt><trkpt lat="55.8186260" lon="49.1575740"><time>2021-08-14T06:26:08</time></trkpt><trkpt lat="55.8186230" lon="49.1575430"><time>2021-08-14T06:26:09</time></trkpt><trkpt lat="55.8186250" lon="49.1575130"><time>2021-08-14T06:26:10</time></trkpt><trkpt lat="55.8186200" lon="49.1574840"><time>2021-08-14T06:26:11</time></trkpt><trkpt lat="55.8186180" lon="49.1574570"><time>2021-08-14T06:26:12</time></trkpt><trkpt lat="55.8186180" lon="49.1574270"><time>2021-08-14T06:26:13</time></trkpt><trkpt lat="55.8186160" lon="49.1573780"><time>2021-08-14T06:26:14</time></trkpt><trkpt lat="55.8186150" lon="49.1573610"><time>2021-08-14T06:26:15</time></trkpt><trkpt lat="55.8186120" lon="49.1573400"><time>2021-08-14T06:26:16</time></trkpt><trkpt lat="55.8186140" lon="49.1573130"><time>2021-08-14T06:26:17</time></trkpt><trkpt lat="55.8186150" lon="49.1572840"><time>2021-08-14T06:26:18</time></trkpt><trkpt lat="55.8186140" lon="49.1572560"><time>2021-08-14T06:26:19</time></trkpt><trkpt lat="55.8186160" lon="49.1572260"><time>2021-08-14T06:26:20</time></trkpt><trkpt lat="55.8186160" lon="49.1571950"><time>2021-08-14T06:26:21</time></trkpt><trkpt lat="55.8186140" lon="49.1571670"><time>2021-08-14T06:26:23</time></trkpt><trkpt lat="55.8186150" lon="49.1571370"><time>2021-08-14T06:26:24</time></trkpt><trkpt lat="55.8186150" lon="49.1571060"><time>2021-08-14T06:26:25</time></trkpt><trkpt lat="55.8186140" lon="49.1570760"><time>2021-08-14T06:26:26</time></trkpt><trkpt lat="55.8186120" lon="49.1570500"><time>2021-08-14T06:26:27</time></trkpt><trkpt lat="55.8186120" lon="49.1570200"><time>2021-08-14T06:26:28</time></trkpt><trkpt lat="55.8186140" lon="49.1569910"><time>2021-08-14T06:26:29</time></trkpt><trkpt lat="55.8186180" lon="49.1569610"><time>2021-08-14T06:26:30</time></trkpt><trkpt lat="55.8186210" lon="49.1569330"><time>2021-08-14T06:26:31</time></trkpt><trkpt lat="55.8186240" lon="49.1569030"><time>2021-08-14T06:26:32</time></trkpt><trkpt lat="55.8186230" lon="49.1568740"><time>2021-08-14T06:26:33</time></trkpt><trkpt lat="55.8186220" lon="49.1568480"><time>2021-08-14T06:26:34</time></trkpt><trkpt lat="55.8186200" lon="49.1568180"><time>2021-08-14T06:26:35</time></trkpt><trkpt lat="55.8186220" lon="49.1567920"><time>2021-08-14T06:26:36</time></trkpt><trkpt lat="55.8186230" lon="49.1567630"><time>2021-08-14T06:26:37</time></trkpt><trkpt lat="55.8186240" lon="49.1567330"><time>2021-08-14T06:26:38</time></trkpt><trkpt lat="55.8186230" lon="49.1567050"><time>2021-08-14T06:26:39</time></trkpt><trkpt lat="55.8186240" lon="49.1566770"><time>2021-08-14T06:26:40</time></trkpt><trkpt lat="55.8186250" lon="49.1566500"><time>2021-08-14T06:26:41</time></trkpt><trkpt lat="55.8186260" lon="49.1566200"><time>2021-08-14T06:26:42</time></trkpt><trkpt lat="55.8186210" lon="49.1565920"><time>2021-08-14T06:26:43</time></trkpt><trkpt lat="55.8186220" lon="49.1565630"><time>2021-08-14T06:26:44</time></trkpt><trkpt lat="55.8186230" lon="49.1565360"><time>2021-08-14T06:26:45</time></trkpt><trkpt lat="55.8186220" lon="49.1565110"><time>2021-08-14T06:26:46</time></trkpt><trkpt lat="55.8186220" lon="49.1564820"><time>2021-08-14T06:26:47</time></trkpt><trkpt lat="55.8186260" lon="49.1564530"><time>2021-08-14T06:26:48</time></trkpt><trkpt lat="55.8186270" lon="49.1564240"><time>2021-08-14T06:26:49</time></trkpt><trkpt lat="55.8186320" lon="49.1563670"><time>2021-08-14T06:26:50</time></trkpt><trkpt lat="55.8186340" lon="49.1563460"><time>2021-08-14T06:26:51</time></trkpt><trkpt lat="55.8186340" lon="49.1563160"><time>2021-08-14T06:26:52</time></trkpt><trkpt lat="55.8186350" lon="49.1562910"><time>2021-08-14T06:26:53</time></trkpt><trkpt lat="55.8186350" lon="49.1562600"><time>2021-08-14T06:26:54</time></trkpt><trkpt lat="55.8186420" lon="49.1562320"><time>2021-08-14T06:26:55</time></trkpt><trkpt lat="55.8186410" lon="49.1562030"><time>2021-08-14T06:26:56</time></trkpt><trkpt lat="55.8186350" lon="49.1561750"><time>2021-08-14T06:26:57</time></trkpt><trkpt lat="55.8186420" lon="49.1561460"><time>2021-08-14T06:26:58</time></trkpt><trkpt lat="55.8186440" lon="49.1561180"><time>2021-08-14T06:26:59</time></trkpt><trkpt lat="55.8186450" lon="49.1560900"><time>2021-08-14T06:27:00</time></trkpt><trkpt lat="55.8186470" lon="49.1560590"><time>2021-08-14T06:27:01</time></trkpt><trkpt lat="55.8186450" lon="49.1560290"><time>2021-08-14T06:27:02</time></trkpt><trkpt lat="55.8186470" lon="49.1559960"><time>2021-08-14T06:27:03</time></trkpt><trkpt lat="55.8186500" lon="49.1559480"><time>2021-08-14T06:27:04</time></trkpt><trkpt lat="55.8186510" lon="49.1559320"><time>2021-08-14T06:27:05</time></trkpt><trkpt lat="55.8186510" lon="49.1558990"><time>2021-08-14T06:27:06</time></trkpt><trkpt lat="55.8186520" lon="49.1558680"><time>2021-08-14T06:27:07</time></trkpt><trkpt lat="55.8186500" lon="49.1558370"><time>2021-08-14T06:27:08</time></trkpt><trkpt lat="55.8186500" lon="49.1558090"><time>2021-08-14T06:27:09</time></trkpt><trkpt lat="55.8186540" lon="49.1557790"><time>2021-08-14T06:27:10</time></trkpt><trkpt lat="55.8186520" lon="49.1557480"><time>2021-08-14T06:27:11</time></trkpt><trkpt lat="55.8186540" lon="49.1557170"><time>2021-08-14T06:27:12</time></trkpt><trkpt lat="55.8186590" lon="49.1556910"><time>2021-08-14T06:27:13</time></trkpt><trkpt lat="55.8186600" lon="49.1556390"><time>2021-08-14T06:27:14</time></trkpt><trkpt lat="55.8186600" lon="49.1556220"><time>2021-08-14T06:27:15</time></trkpt><trkpt lat="55.8186660" lon="49.1555720"><time>2021-08-14T06:27:16</time></trkpt><trkpt lat="55.8186670" lon="49.1555530"><time>2021-08-14T06:27:17</time></trkpt><trkpt lat="55.8186690" lon="49.1555240"><time>2021-08-14T06:27:18</time></trkpt><trkpt lat="55.8186690" lon="49.1554890"><time>2021-08-14T06:27:19</time></trkpt><trkpt lat="55.8186720" lon="49.1554580"><time>2021-08-14T06:27:20</time></trkpt><trkpt lat="55.8186750" lon="49.1554280"><time>2021-08-14T06:27:21</time></trkpt><trkpt lat="55.8186770" lon="49.1553980"><time>2021-08-14T06:27:22</time></trkpt><trkpt lat="55.8186840" lon="49.1553710"><time>2021-08-14T06:27:23</time></trkpt><trkpt lat="55.8186850" lon="49.1553400"><time>2021-08-14T06:27:24</time></trkpt><trkpt lat="55.8186880" lon="49.1553090"><time>2021-08-14T06:27:25</time></trkpt><trkpt lat="55.8186900" lon="49.1552780"><time>2021-08-14T06:27:26</time></trkpt><trkpt lat="55.8186910" lon="49.1552460"><time>2021-08-14T06:27:27</time></trkpt><trkpt lat="55.8186950" lon="49.1552160"><time>2021-08-14T06:27:28</time></trkpt><trkpt lat="55.8186990" lon="49.1551860"><time>2021-08-14T06:27:29</time></trkpt><trkpt lat="55.8186870" lon="49.1551340"><time>2021-08-14T06:27:30</time></trkpt><trkpt lat="55.8186890" lon="49.1551180"><time>2021-08-14T06:27:31</time></trkpt><trkpt lat="55.8186980" lon="49.1550880"><time>2021-08-14T06:27:32</time></trkpt><trkpt lat="55.8187010" lon="49.1550600"><time>2021-08-14T06:27:33</time></trkpt><trkpt lat="55.8186990" lon="49.1550310"><time>2021-08-14T06:27:34</time></trkpt><trkpt lat="55.8187040" lon="49.1550020"><time>2021-08-14T06:27:35</time></trkpt><trkpt lat="55.8187080" lon="49.1549730"><time>2021-08-14T06:27:36</time></trkpt><trkpt lat="55.8187110" lon="49.1549430"><time>2021-08-14T06:27:37</time></trkpt><trkpt lat="55.8187140" lon="49.1549130"><time>2021-08-14T06:27:38</time></trkpt><trkpt lat="55.8187180" lon="49.1548830"><time>2021-08-14T06:27:39</time></trkpt><trkpt lat="55.8187170" lon="49.1548480"><time>2021-08-14T06:27:40</time></trkpt><trkpt lat="55.8187230" lon="49.1548190"><time>2021-08-14T06:27:41</time></trkpt><trkpt lat="55.8187290" lon="49.1547720"><time>2021-08-14T06:27:42</time></trkpt><trkpt lat="55.8187310" lon="49.1547540"><time>2021-08-14T06:27:43</time></trkpt><trkpt lat="55.8187370" lon="49.1547270"><time>2021-08-14T06:27:44</time></trkpt><trkpt lat="55.8187390" lon="49.1546940"><time>2021-08-14T06:27:45</time></trkpt><trkpt lat="55.8187420" lon="49.1546670"><time>2021-08-14T06:27:46</time></trkpt><trkpt lat="55.8187460" lon="49.1546400"><time>2021-08-14T06:27:47</time></trkpt><trkpt lat="55.8187540" lon="49.1546110"><time>2021-08-14T06:27:48</time></trkpt><trkpt lat="55.8187590" lon="49.1545840"><time>2021-08-14T06:27:49</time></trkpt><trkpt lat="55.8187640" lon="49.1545560"><time>2021-08-14T06:27:50</time></trkpt><trkpt lat="55.8187680" lon="49.1545260"><time>2021-08-14T06:27:51</time></trkpt><trkpt lat="55.8187720" lon="49.1544980"><time>2021-08-14T06:27:52</time></trkpt><trkpt lat="55.8187720" lon="49.1544630"><time>2021-08-14T06:27:53</time></trkpt><trkpt lat="55.8187780" lon="49.1544160"><time>2021-08-14T06:27:54</time></trkpt><trkpt lat="55.8187790" lon="49.1543990"><time>2021-08-14T06:27:55</time></trkpt><trkpt lat="55.8187850" lon="49.1543700"><time>2021-08-14T06:27:56</time></trkpt><trkpt lat="55.8187880" lon="49.1543370"><time>2021-08-14T06:27:57</time></trkpt><trkpt lat="55.8187920" lon="49.1543080"><time>2021-08-14T06:27:58</time></trkpt><trkpt lat="55.8187990" lon="49.1542810"><time>2021-08-14T06:27:59</time></trkpt><trkpt lat="55.8188030" lon="49.1542520"><time>2021-08-14T06:28:00</time></trkpt><trkpt lat="55.8188050" lon="49.1542240"><time>2021-08-14T06:28:01</time></trkpt><trkpt lat="55.8188050" lon="49.1541980"><time>2021-08-14T06:28:02</time></trkpt><trkpt lat="55.8188100" lon="49.1541730"><time>2021-08-14T06:28:03</time></trkpt><trkpt lat="55.8188170" lon="49.1541500"><time>2021-08-14T06:28:04</time></trkpt><trkpt lat="55.8188190" lon="49.1541270"><time>2021-08-14T06:28:05</time></trkpt><trkpt lat="55.8188250" lon="49.1541030"><time>2021-08-14T06:28:06</time></trkpt><trkpt lat="55.8188280" lon="49.1540770"><time>2021-08-14T06:28:07</time></trkpt><trkpt lat="55.8188330" lon="49.1540510"><time>2021-08-14T06:28:08</time></trkpt><trkpt lat="55.8188330" lon="49.1540210"><time>2021-08-14T06:28:09</time></trkpt><trkpt lat="55.8188380" lon="49.1539940"><time>2021-08-14T06:28:10</time></trkpt><trkpt lat="55.8188400" lon="49.1539680"><time>2021-08-14T06:28:11</time></trkpt><trkpt lat="55.8188450" lon="49.1539420"><time>2021-08-14T06:28:12</time></trkpt><trkpt lat="55.8188480" lon="49.1539120"><time>2021-08-14T06:28:13</time></trkpt><trkpt lat="55.8188490" lon="49.1538850"><time>2021-08-14T06:28:14</time></trkpt><trkpt lat="55.8188560" lon="49.1538600"><time>2021-08-14T06:28:15</time></trkpt><trkpt lat="55.8188570" lon="49.1538300"><time>2021-08-14T06:28:16</time></trkpt><trkpt lat="55.8188610" lon="49.1538030"><time>2021-08-14T06:28:17</time></trkpt><trkpt lat="55.8188680" lon="49.1537620"><time>2021-08-14T06:28:18</time></trkpt><trkpt lat="55.8188710" lon="49.1537430"><time>2021-08-14T06:28:19</time></trkpt><trkpt lat="55.8188750" lon="49.1537240"><time>2021-08-14T06:28:20</time></trkpt><trkpt lat="55.8188850" lon="49.1537100"><time>2021-08-14T06:28:21</time></trkpt><trkpt lat="55.8188880" lon="49.1536760"><time>2021-08-14T06:28:22</time></trkpt><trkpt lat="55.8188860" lon="49.1536500"><time>2021-08-14T06:28:23</time></trkpt><trkpt lat="55.8188840" lon="49.1536150"><time>2021-08-14T06:28:24</time></trkpt><trkpt lat="55.8188840" lon="49.1535820"><time>2021-08-14T06:28:25</time></trkpt><trkpt lat="55.8188880" lon="49.1535620"><time>2021-08-14T06:28:26</time></trkpt><trkpt lat="55.8188880" lon="49.1535200"><time>2021-08-14T06:28:27</time></trkpt><trkpt lat="55.8188900" lon="49.1535050"><time>2021-08-14T06:28:28</time></trkpt><trkpt lat="55.8188950" lon="49.1534700"><time>2021-08-14T06:28:29</time></trkpt><trkpt lat="55.8188980" lon="49.1534470"><time>2021-08-14T06:28:30</time></trkpt><trkpt lat="55.8189010" lon="49.1534190"><time>2021-08-14T06:28:31</time></trkpt><trkpt lat="55.8189050" lon="49.1533850"><time>2021-08-14T06:28:32</time></trkpt><trkpt lat="55.8189120" lon="49.1533410"><time>2021-08-14T06:28:33</time></trkpt><trkpt lat="55.8189140" lon="49.1533220"><time>2021-08-14T06:28:34</time></trkpt><trkpt lat="55.8189160" lon="49.1532990"><time>2021-08-14T06:28:35</time></trkpt><trkpt lat="55.8189220" lon="49.1532610"><time>2021-08-14T06:28:36</time></trkpt><trkpt lat="55.8189260" lon="49.1532440"><time>2021-08-14T06:28:37</time></trkpt><trkpt lat="55.8189340" lon="49.1532140"><time>2021-08-14T06:28:38</time></trkpt><trkpt lat="55.8189390" lon="49.1531680"><time>2021-08-14T06:28:39</time></trkpt><trkpt lat="55.8189420" lon="49.1531460"><time>2021-08-14T06:28:40</time></trkpt><trkpt lat="55.8189420" lon="49.1531240"><time>2021-08-14T06:28:42</time></trkpt><trkpt lat="55.8189460" lon="49.1530890"><time>2021-08-14T06:28:43</time></trkpt><trkpt lat="55.8189500" lon="49.1530660"><time>2021-08-14T06:28:44</time></trkpt><trkpt lat="55.8189560" lon="49.1530310"><time>2021-08-14T06:28:45</time></trkpt><trkpt lat="55.8189580" lon="49.1529960"><time>2021-08-14T06:28:46</time></trkpt><trkpt lat="55.8189610" lon="49.1529810"><time>2021-08-14T06:28:47</time></trkpt><trkpt lat="55.8189630" lon="49.1529650"><time>2021-08-14T06:28:48</time></trkpt><trkpt lat="55.8189750" lon="49.1529240"><time>2021-08-14T06:28:49</time></trkpt><trkpt lat="55.8189790" lon="49.1529050"><time>2021-08-14T06:28:50</time></trkpt><trkpt lat="55.8189800" lon="49.1528400"><time>2021-08-14T06:28:51</time></trkpt><trkpt lat="55.8189800" lon="49.1527930"><time>2021-08-14T06:28:52</time></trkpt><trkpt lat="55.8189830" lon="49.1527550"><time>2021-08-14T06:28:53</time></trkpt><trkpt lat="55.8189850" lon="49.1527040"><time>2021-08-14T06:28:54</time></trkpt><trkpt lat="55.8189830" lon="49.1526870"><time>2021-08-14T06:28:55</time></trkpt><trkpt lat="55.8189860" lon="49.1526470"><time>2021-08-14T06:28:56</time></trkpt><trkpt lat="55.8189900" lon="49.1526240"><time>2021-08-14T06:28:57</time></trkpt><trkpt lat="55.8189930" lon="49.1525930"><time>2021-08-14T06:28:58</time></trkpt><trkpt lat="55.8189950" lon="49.1525600"><time>2021-08-14T06:28:59</time></trkpt><trkpt lat="55.8189990" lon="49.1525380"><time>2021-08-14T06:29:00</time></trkpt><trkpt lat="55.8190010" lon="49.1525040"><time>2021-08-14T06:29:01</time></trkpt><trkpt lat="55.8190000" lon="49.1524560"><time>2021-08-14T06:29:02</time></trkpt><trkpt lat="55.8190030" lon="49.1524370"><time>2021-08-14T06:29:03</time></trkpt><trkpt lat="55.8189990" lon="49.1523870"><time>2021-08-14T06:29:04</time></trkpt><trkpt lat="55.8189990" lon="49.1523660"><time>2021-08-14T06:29:05</time></trkpt><trkpt lat="55.8189960" lon="49.1523320"><time>2021-08-14T06:29:06</time></trkpt><trkpt lat="55.8189930" lon="49.1523150"><time>2021-08-14T06:29:07</time></trkpt><trkpt lat="55.8189910" lon="49.1522630"><time>2021-08-14T06:29:08</time></trkpt><trkpt lat="55.8189880" lon="49.1522480"><time>2021-08-14T06:29:09</time></trkpt><trkpt lat="55.8189820" lon="49.1522030"><time>2021-08-14T06:29:10</time></trkpt><trkpt lat="55.8189800" lon="49.1521850"><time>2021-08-14T06:29:11</time></trkpt><trkpt lat="55.8189810" lon="49.1521530"><time>2021-08-14T06:29:12</time></trkpt><trkpt lat="55.8189790" lon="49.1521240"><time>2021-08-14T06:29:13</time></trkpt><trkpt lat="55.8189730" lon="49.1520660"><time>2021-08-14T06:29:14</time></trkpt><trkpt lat="55.8189700" lon="49.1520490"><time>2021-08-14T06:29:15</time></trkpt><trkpt lat="55.8189720" lon="49.1520190"><time>2021-08-14T06:29:16</time></trkpt><trkpt lat="55.8189690" lon="49.1519890"><time>2021-08-14T06:29:17</time></trkpt><trkpt lat="55.8189680" lon="49.1519600"><time>2021-08-14T06:29:18</time></trkpt><trkpt lat="55.8189660" lon="49.1519300"><time>2021-08-14T06:29:19</time></trkpt><trkpt lat="55.8189660" lon="49.1518790"><time>2021-08-14T06:29:20</time></trkpt><trkpt lat="55.8189640" lon="49.1518630"><time>2021-08-14T06:29:21</time></trkpt><trkpt lat="55.8189560" lon="49.1518120"><time>2021-08-14T06:29:22</time></trkpt><trkpt lat="55.8189570" lon="49.1517930"><time>2021-08-14T06:29:23</time></trkpt><trkpt lat="55.8189520" lon="49.1517680"><time>2021-08-14T06:29:24</time></trkpt><trkpt lat="55.8189490" lon="49.1517350"><time>2021-08-14T06:29:25</time></trkpt><trkpt lat="55.8189440" lon="49.1517020"><time>2021-08-14T06:29:26</time></trkpt><trkpt lat="55.8189400" lon="49.1516740"><time>2021-08-14T06:29:27</time></trkpt><trkpt lat="55.8189380" lon="49.1516470"><time>2021-08-14T06:29:28</time></trkpt><trkpt lat="55.8189340" lon="49.1516180"><time>2021-08-14T06:29:29</time></trkpt><trkpt lat="55.8189270" lon="49.1515890"><time>2021-08-14T06:29:30</time></trkpt><trkpt lat="55.8189240" lon="49.1515650"><time>2021-08-14T06:29:31</time></trkpt><trkpt lat="55.8189030" lon="49.1515280"><time>2021-08-14T06:29:32</time></trkpt><trkpt lat="55.8188970" lon="49.1515180"><time>2021-08-14T06:29:33</time></trkpt><trkpt lat="55.8188770" lon="49.1514820"><time>2021-08-14T06:29:34</time></trkpt><trkpt lat="55.8188690" lon="49.1514720"><time>2021-08-14T06:29:35</time></trkpt><trkpt lat="55.8188590" lon="49.1514500"><time>2021-08-14T06:29:36</time></trkpt><trkpt lat="55.8188420" lon="49.1514350"><time>2021-08-14T06:29:37</time></trkpt><trkpt lat="55.8188290" lon="49.1514140"><time>2021-08-14T06:29:38</time></trkpt><trkpt lat="55.8188160" lon="49.1513910"><time>2021-08-14T06:29:39</time></trkpt><trkpt lat="55.8188090" lon="49.1513690"><time>2021-08-14T06:29:40</time></trkpt><trkpt lat="55.8187970" lon="49.1513500"><time>2021-08-14T06:29:41</time></trkpt><trkpt lat="55.8187830" lon="49.1513300"><time>2021-08-14T06:29:42</time></trkpt><trkpt lat="55.8187690" lon="49.1513140"><time>2021-08-14T06:29:43</time></trkpt><trkpt lat="55.8187540" lon="49.1512930"><time>2021-08-14T06:29:44</time></trkpt><trkpt lat="55.8187420" lon="49.1512740"><time>2021-08-14T06:29:45</time></trkpt><trkpt lat="55.8187240" lon="49.1512390"><time>2021-08-14T06:29:46</time></trkpt><trkpt lat="55.8187180" lon="49.1512240"><time>2021-08-14T06:29:47</time></trkpt><trkpt lat="55.8186920" lon="49.1511980"><time>2021-08-14T06:29:48</time></trkpt><trkpt lat="55.8186840" lon="49.1511890"><time>2021-08-14T06:29:49</time></trkpt><trkpt lat="55.8186630" lon="49.1511500"><time>2021-08-14T06:29:50</time></trkpt><trkpt lat="55.8186560" lon="49.1511390"><time>2021-08-14T06:29:51</time></trkpt><trkpt lat="55.8186440" lon="49.1511140"><time>2021-08-14T06:29:52</time></trkpt><trkpt lat="55.8186350" lon="49.1510920"><time>2021-08-14T06:29:53</time></trkpt><trkpt lat="55.8186250" lon="49.1510660"><time>2021-08-14T06:29:54</time></trkpt><trkpt lat="55.8186140" lon="49.1510440"><time>2021-08-14T06:29:55</time></trkpt><trkpt lat="55.8186030" lon="49.1510260"><time>2021-08-14T06:29:56</time></trkpt><trkpt lat="55.8185850" lon="49.1510110"><time>2021-08-14T06:29:57</time></trkpt><trkpt lat="55.8185750" lon="49.1509880"><time>2021-08-14T06:29:58</time></trkpt><trkpt lat="55.8185670" lon="49.1509650"><time>2021-08-14T06:29:59</time></trkpt><trkpt lat="55.8185510" lon="49.1509520"><time>2021-08-14T06:30:00</time></trkpt><trkpt lat="55.8185370" lon="49.1509380"><time>2021-08-14T06:30:01</time></trkpt><trkpt lat="55.8185240" lon="49.1509230"><time>2021-08-14T06:30:02</time></trkpt><trkpt lat="55.8185110" lon="49.1509130"><time>2021-08-14T06:30:03</time></trkpt><trkpt lat="55.8184960" lon="49.1509140"><time>2021-08-14T06:30:04</time></trkpt><trkpt lat="55.8184840" lon="49.1509210"><time>2021-08-14T06:30:05</time></trkpt><trkpt lat="55.8184740" lon="49.1509230"><time>2021-08-14T06:30:06</time></trkpt><trkpt lat="55.8184670" lon="49.1509290"><time>2021-08-14T06:30:07</time></trkpt><trkpt lat="55.8184730" lon="49.1509290"><time>2021-08-14T06:30:08</time></trkpt><trkpt lat="55.8184730" lon="49.1509290"><time>2021-08-14T06:30:09</time></trkpt><trkpt lat="55.8184810" lon="49.1509350"><time>2021-08-14T06:30:10</time></trkpt><trkpt lat="55.8184850" lon="49.1509190"><time>2021-08-14T06:30:11</time></trkpt><trkpt lat="55.8184850" lon="49.1509090"><time>2021-08-14T06:30:12</time></trkpt><trkpt lat="55.8184880" lon="49.1509000"><time>2021-08-14T06:30:13</time></trkpt><trkpt lat="55.8184880" lon="49.1508930"><time>2021-08-14T06:30:14</time></trkpt><trkpt lat="55.8184990" lon="49.1508950"><time>2021-08-14T06:30:15</time></trkpt><trkpt lat="55.8185040" lon="49.1508980"><time>2021-08-14T06:30:16</time></trkpt><trkpt lat="55.8185050" lon="49.1508950"><time>2021-08-14T06:30:17</time></trkpt><trkpt lat="55.8185060" lon="49.1508940"><time>2021-08-14T06:30:18</time></trkpt><trkpt lat="55.8185070" lon="49.1508940"><time>2021-08-14T06:30:19</time></trkpt><trkpt lat="55.8185080" lon="49.1508920"><time>2021-08-14T06:30:20</time></trkpt><trkpt lat="55.8185080" lon="49.1508910"><time>2021-08-14T06:30:21</time></trkpt><trkpt lat="55.8185070" lon="49.1508900"><time>2021-08-14T06:30:22</time></trkpt><trkpt lat="55.8185080" lon="49.1508890"><time>2021-08-14T06:30:23</time></trkpt><trkpt lat="55.8185080" lon="49.1508880"><time>2021-08-14T06:30:24</time></trkpt><trkpt lat="55.8185090" lon="49.1508880"><time>2021-08-14T06:30:25</time></trkpt><trkpt lat="55.8185100" lon="49.1508890"><time>2021-08-14T06:30:26</time></trkpt><trkpt lat="55.8185090" lon="49.1508870"><time>2021-08-14T06:30:27</time></trkpt><trkpt lat="55.8185080" lon="49.1508880"><time>2021-08-14T06:30:28</time></trkpt><trkpt lat="55.8185090" lon="49.1508880"><time>2021-08-14T06:30:29</time></trkpt><trkpt lat="55.8185080" lon="49.1508870"><time>2021-08-14T06:30:30</time></trkpt><trkpt lat="55.8185090" lon="49.1508890"><time>2021-08-14T06:30:31</time></trkpt><trkpt lat="55.8185090" lon="49.1508880"><time>2021-08-14T06:30:32</time></trkpt><trkpt lat="55.8185090" lon="49.1508870"><time>2021-08-14T06:30:33</time></trkpt><trkpt lat="55.8185100" lon="49.1508890"><time>2021-08-14T06:30:34</time></trkpt><trkpt lat="55.8185100" lon="49.1508880"><time>2021-08-14T06:30:35</time></trkpt><trkpt lat="55.8185110" lon="49.1508880"><time>2021-08-14T06:30:36</time></trkpt><trkpt lat="55.8185130" lon="49.1508950"><time>2021-08-14T06:30:37</time></trkpt><trkpt lat="55.8185140" lon="49.1508910"><time>2021-08-14T06:30:39</time></trkpt><trkpt lat="55.8185140" lon="49.1508910"><time>2021-08-14T06:30:40</time></trkpt><trkpt lat="55.8185140" lon="49.1508910"><time>2021-08-14T06:30:41</time></trkpt><trkpt lat="55.8185140" lon="49.1508910"><time>2021-08-14T06:30:42</time></trkpt><trkpt lat="55.8185140" lon="49.1508910"><time>2021-08-14T06:30:43</time></trkpt><trkpt lat="55.8185150" lon="49.1508920"><time>2021-08-14T06:30:44</time></trkpt><trkpt lat="55.8185140" lon="49.1508920"><time>2021-08-14T06:30:45</time></trkpt><trkpt lat="55.8185130" lon="49.1508920"><time>2021-08-14T06:30:46</time></trkpt><trkpt lat="55.8185150" lon="49.1508970"><time>2021-08-14T06:30:47</time></trkpt><trkpt lat="55.8185060" lon="49.1509070"><time>2021-08-14T06:30:48</time></trkpt><trkpt lat="55.8185150" lon="49.1509040"><time>2021-08-14T06:30:49</time></trkpt><trkpt lat="55.8185100" lon="49.1509010"><time>2021-08-14T06:30:50</time></trkpt><trkpt lat="55.8185130" lon="49.1509020"><time>2021-08-14T06:30:51</time></trkpt><trkpt lat="55.8185100" lon="49.1509040"><time>2021-08-14T06:30:52</time></trkpt><trkpt lat="55.8185080" lon="49.1509040"><time>2021-08-14T06:30:53</time></trkpt><trkpt lat="55.8185090" lon="49.1509020"><time>2021-08-14T06:30:54</time></trkpt><trkpt lat="55.8185060" lon="49.1509000"><time>2021-08-14T06:30:55</time></trkpt><trkpt lat="55.8185010" lon="49.1508860"><time>2021-08-14T06:30:56</time></trkpt><trkpt lat="55.8184890" lon="49.1508590"><time>2021-08-14T06:30:57</time></trkpt><trkpt lat="55.8184770" lon="49.1508400"><time>2021-08-14T06:30:58</time></trkpt><trkpt lat="55.8184650" lon="49.1508170"><time>2021-08-14T06:30:59</time></trkpt><trkpt lat="55.8184450" lon="49.1507840"><time>2021-08-14T06:31:00</time></trkpt><trkpt lat="55.8184380" lon="49.1507710"><time>2021-08-14T06:31:01</time></trkpt><trkpt lat="55.8184270" lon="49.1507510"><time>2021-08-14T06:31:02</time></trkpt><trkpt lat="55.8184180" lon="49.1507330"><time>2021-08-14T06:31:03</time></trkpt><trkpt lat="55.8184070" lon="49.1507100"><time>2021-08-14T06:31:04</time></trkpt><trkpt lat="55.8183970" lon="49.1506940"><time>2021-08-14T06:31:05</time></trkpt><trkpt lat="55.8183850" lon="49.1506730"><time>2021-08-14T06:31:06</time></trkpt><trkpt lat="55.8183770" lon="49.1506520"><time>2021-08-14T06:31:07</time></trkpt><trkpt lat="55.8183690" lon="49.1506300"><time>2021-08-14T06:31:08</time></trkpt><trkpt lat="55.8183530" lon="49.1506140"><time>2021-08-14T06:31:09</time></trkpt><trkpt lat="55.8183400" lon="49.1505850"><time>2021-08-14T06:31:10</time></trkpt><trkpt lat="55.8183300" lon="49.1505690"><time>2021-08-14T06:31:11</time></trkpt><trkpt lat="55.8183190" lon="49.1505530"><time>2021-08-14T06:31:12</time></trkpt><trkpt lat="55.8183080" lon="49.1505320"><time>2021-08-14T06:31:13</time></trkpt><trkpt lat="55.8182960" lon="49.1505110"><time>2021-08-14T06:31:14</time></trkpt><trkpt lat="55.8182820" lon="49.1504860"><time>2021-08-14T06:31:15</time></trkpt><trkpt lat="55.8182700" lon="49.1504630"><time>2021-08-14T06:31:16</time></trkpt><trkpt lat="55.8182570" lon="49.1504460"><time>2021-08-14T06:31:17</time></trkpt><trkpt lat="55.8182470" lon="49.1504230"><time>2021-08-14T06:31:18</time></trkpt><trkpt lat="55.8182330" lon="49.1504030"><time>2021-08-14T06:31:19</time></trkpt><trkpt lat="55.8182200" lon="49.1503860"><time>2021-08-14T06:31:20</time></trkpt><trkpt lat="55.8182150" lon="49.1503570"><time>2021-08-14T06:31:21</time></trkpt><trkpt lat="55.8182040" lon="49.1503390"><time>2021-08-14T06:31:22</time></trkpt><trkpt lat="55.8181940" lon="49.1503160"><time>2021-08-14T06:31:23</time></trkpt><trkpt lat="55.8181840" lon="49.1502920"><time>2021-08-14T06:31:24</time></trkpt><trkpt lat="55.8181740" lon="49.1502710"><time>2021-08-14T06:31:25</time></trkpt><trkpt lat="55.8181620" lon="49.1502510"><time>2021-08-14T06:31:26</time></trkpt><trkpt lat="55.8181500" lon="49.1502300"><time>2021-08-14T06:31:27</time></trkpt><trkpt lat="55.8181380" lon="49.1502100"><time>2021-08-14T06:31:28</time></trkpt><trkpt lat="55.8181280" lon="49.1501830"><time>2021-08-14T06:31:29</time></trkpt><trkpt lat="55.8181170" lon="49.1501610"><time>2021-08-14T06:31:30</time></trkpt><trkpt lat="55.8181050" lon="49.1501400"><time>2021-08-14T06:31:31</time></trkpt><trkpt lat="55.8180910" lon="49.1501190"><time>2021-08-14T06:31:32</time></trkpt><trkpt lat="55.8180810" lon="49.1500990"><time>2021-08-14T06:31:33</time></trkpt><trkpt lat="55.8180670" lon="49.1500790"><time>2021-08-14T06:31:34</time></trkpt><trkpt lat="55.8180590" lon="49.1500550"><time>2021-08-14T06:31:35</time></trkpt><trkpt lat="55.8180520" lon="49.1500250"><time>2021-08-14T06:31:36</time></trkpt><trkpt lat="55.8180390" lon="49.1500050"><time>2021-08-14T06:31:37</time></trkpt><trkpt lat="55.8180280" lon="49.1499830"><time>2021-08-14T06:31:38</time></trkpt><trkpt lat="55.8180160" lon="49.1499610"><time>2021-08-14T06:31:39</time></trkpt><trkpt lat="55.8180040" lon="49.1499390"><time>2021-08-14T06:31:40</time></trkpt><trkpt lat="55.8179890" lon="49.1499200"><time>2021-08-14T06:31:41</time></trkpt><trkpt lat="55.8179800" lon="49.1498980"><time>2021-08-14T06:31:42</time></trkpt><trkpt lat="55.8179670" lon="49.1498770"><time>2021-08-14T06:31:43</time></trkpt><trkpt lat="55.8179480" lon="49.1498650"><time>2021-08-14T06:31:44</time></trkpt><trkpt lat="55.8179370" lon="49.1498410"><time>2021-08-14T06:31:45</time></trkpt><trkpt lat="55.8179260" lon="49.1498210"><time>2021-08-14T06:31:46</time></trkpt><trkpt lat="55.8179080" lon="49.1498090"><time>2021-08-14T06:31:47</time></trkpt><trkpt lat="55.8178950" lon="49.1497890"><time>2021-08-14T06:31:48</time></trkpt><trkpt lat="55.8178840" lon="49.1497690"><time>2021-08-14T06:31:49</time></trkpt><trkpt lat="55.8178720" lon="49.1497520"><time>2021-08-14T06:31:50</time></trkpt><trkpt lat="55.8178610" lon="49.1497320"><time>2021-08-14T06:31:51</time></trkpt><trkpt lat="55.8178530" lon="49.1497080"><time>2021-08-14T06:31:52</time></trkpt><trkpt lat="55.8178410" lon="49.1496870"><time>2021-08-14T06:31:53</time></trkpt><trkpt lat="55.8178300" lon="49.1496660"><time>2021-08-14T06:31:54</time></trkpt><trkpt lat="55.8178160" lon="49.1496490"><time>2021-08-14T06:31:55</time></trkpt><trkpt lat="55.8178080" lon="49.1496240"><time>2021-08-14T06:31:56</time></trkpt><trkpt lat="55.8177950" lon="49.1496120"><time>2021-08-14T06:31:57</time></trkpt><trkpt lat="55.8177820" lon="49.1495930"><time>2021-08-14T06:31:58</time></trkpt><trkpt lat="55.8177710" lon="49.1495740"><time>2021-08-14T06:31:59</time></trkpt><trkpt lat="55.8177550" lon="49.1495600"><time>2021-08-14T06:32:00</time></trkpt><trkpt lat="55.8177450" lon="49.1495420"><time>2021-08-14T06:32:01</time></trkpt><trkpt lat="55.8177340" lon="49.1495210"><time>2021-08-14T06:32:02</time></trkpt><trkpt lat="55.8177230" lon="49.1495030"><time>2021-08-14T06:32:03</time></trkpt><trkpt lat="55.8177160" lon="49.1494780"><time>2021-08-14T06:32:04</time></trkpt><trkpt lat="55.8177030" lon="49.1494640"><time>2021-08-14T06:32:05</time></trkpt><trkpt lat="55.8176910" lon="49.1494490"><time>2021-08-14T06:32:06</time></trkpt><trkpt lat="55.8176840" lon="49.1494260"><time>2021-08-14T06:32:07</time></trkpt><trkpt lat="55.8176700" lon="49.1494090"><time>2021-08-14T06:32:08</time></trkpt><trkpt lat="55.8176570" lon="49.1493910"><time>2021-08-14T06:32:09</time></trkpt><trkpt lat="55.8176440" lon="49.1493720"><time>2021-08-14T06:32:10</time></trkpt><trkpt lat="55.8176300" lon="49.1493560"><time>2021-08-14T06:32:11</time></trkpt><trkpt lat="55.8176160" lon="49.1493400"><time>2021-08-14T06:32:12</time></trkpt><trkpt lat="55.8176040" lon="49.1493170"><time>2021-08-14T06:32:13</time></trkpt><trkpt lat="55.8175950" lon="49.1492940"><time>2021-08-14T06:32:14</time></trkpt><trkpt lat="55.8175840" lon="49.1492770"><time>2021-08-14T06:32:15</time></trkpt><trkpt lat="55.8175710" lon="49.1492590"><time>2021-08-14T06:32:16</time></trkpt><trkpt lat="55.8175600" lon="49.1492400"><time>2021-08-14T06:32:17</time></trkpt><trkpt lat="55.8175500" lon="49.1492200"><time>2021-08-14T06:32:18</time></trkpt><trkpt lat="55.8175370" lon="49.1492050"><time>2021-08-14T06:32:19</time></trkpt><trkpt lat="55.8175240" lon="49.1491890"><time>2021-08-14T06:32:20</time></trkpt><trkpt lat="55.8175120" lon="49.1491710"><time>2021-08-14T06:32:21</time></trkpt><trkpt lat="55.8175030" lon="49.1491500"><time>2021-08-14T06:32:22</time></trkpt><trkpt lat="55.8174910" lon="49.1491300"><time>2021-08-14T06:32:23</time></trkpt><trkpt lat="55.8174790" lon="49.1491170"><time>2021-08-14T06:32:24</time></trkpt><trkpt lat="55.8174690" lon="49.1490990"><time>2021-08-14T06:32:25</time></trkpt><trkpt lat="55.8174580" lon="49.1490840"><time>2021-08-14T06:32:26</time></trkpt><trkpt lat="55.8174470" lon="49.1490680"><time>2021-08-14T06:32:27</time></trkpt><trkpt lat="55.8174380" lon="49.1490470"><time>2021-08-14T06:32:28</time></trkpt><trkpt lat="55.8174290" lon="49.1490260"><time>2021-08-14T06:32:29</time></trkpt><trkpt lat="55.8174170" lon="49.1490110"><time>2021-08-14T06:32:30</time></trkpt><trkpt lat="55.8174050" lon="49.1489930"><time>2021-08-14T06:32:31</time></trkpt><trkpt lat="55.8173940" lon="49.1489760"><time>2021-08-14T06:32:32</time></trkpt><trkpt lat="55.8173810" lon="49.1489590"><time>2021-08-14T06:32:33</time></trkpt><trkpt lat="55.8173700" lon="49.1489380"><time>2021-08-14T06:32:34</time></trkpt><trkpt lat="55.8173590" lon="49.1489180"><time>2021-08-14T06:32:35</time></trkpt><trkpt lat="55.8173480" lon="49.1488930"><time>2021-08-14T06:32:36</time></trkpt><trkpt lat="55.8173360" lon="49.1488740"><time>2021-08-14T06:32:37</time></trkpt><trkpt lat="55.8173240" lon="49.1488570"><time>2021-08-14T06:32:38</time></trkpt><trkpt lat="55.8173130" lon="49.1488350"><time>2021-08-14T06:32:39</time></trkpt><trkpt lat="55.8173010" lon="49.1488130"><time>2021-08-14T06:32:40</time></trkpt><trkpt lat="55.8172900" lon="49.1487920"><time>2021-08-14T06:32:41</time></trkpt><trkpt lat="55.8172760" lon="49.1487710"><time>2021-08-14T06:32:42</time></trkpt><trkpt lat="55.8172640" lon="49.1487480"><time>2021-08-14T06:32:43</time></trkpt><trkpt lat="55.8172510" lon="49.1487300"><time>2021-08-14T06:32:44</time></trkpt><trkpt lat="55.8172390" lon="49.1487080"><time>2021-08-14T06:32:45</time></trkpt><trkpt lat="55.8172300" lon="49.1486800"><time>2021-08-14T06:32:46</time></trkpt><trkpt lat="55.8172170" lon="49.1486620"><time>2021-08-14T06:32:47</time></trkpt><trkpt lat="55.8172060" lon="49.1486400"><time>2021-08-14T06:32:48</time></trkpt><trkpt lat="55.8171930" lon="49.1486220"><time>2021-08-14T06:32:49</time></trkpt><trkpt lat="55.8171820" lon="49.1486040"><time>2021-08-14T06:32:50</time></trkpt><trkpt lat="55.8171700" lon="49.1485840"><time>2021-08-14T06:32:51</time></trkpt><trkpt lat="55.8171590" lon="49.1485650"><time>2021-08-14T06:32:52</time></trkpt><trkpt lat="55.8171490" lon="49.1485430"><time>2021-08-14T06:32:53</time></trkpt><trkpt lat="55.8171350" lon="49.1485270"><time>2021-08-14T06:32:54</time></trkpt><trkpt lat="55.8171220" lon="49.1485100"><time>2021-08-14T06:32:55</time></trkpt><trkpt lat="55.8171110" lon="49.1484920"><time>2021-08-14T06:32:56</time></trkpt><trkpt lat="55.8171030" lon="49.1484690"><time>2021-08-14T06:32:57</time></trkpt><trkpt lat="55.8170900" lon="49.1484540"><time>2021-08-14T06:32:58</time></trkpt><trkpt lat="55.8170790" lon="49.1484340"><time>2021-08-14T06:32:59</time></trkpt><trkpt lat="55.8170670" lon="49.1484170"><time>2021-08-14T06:33:00</time></trkpt><trkpt lat="55.8170550" lon="49.1484000"><time>2021-08-14T06:33:01</time></trkpt><trkpt lat="55.8170410" lon="49.1483850"><time>2021-08-14T06:33:02</time></trkpt><trkpt lat="55.8170300" lon="49.1483700"><time>2021-08-14T06:33:03</time></trkpt><trkpt lat="55.8170180" lon="49.1483480"><time>2021-08-14T06:33:04</time></trkpt><trkpt lat="55.8170070" lon="49.1483270"><time>2021-08-14T06:33:05</time></trkpt><trkpt lat="55.8169950" lon="49.1483120"><time>2021-08-14T06:33:06</time></trkpt><trkpt lat="55.8169830" lon="49.1482890"><time>2021-08-14T06:33:07</time></trkpt><trkpt lat="55.8169770" lon="49.1482580"><time>2021-08-14T06:33:08</time></trkpt><trkpt lat="55.8169650" lon="49.1482410"><time>2021-08-14T06:33:09</time></trkpt><trkpt lat="55.8169540" lon="49.1482210"><time>2021-08-14T06:33:10</time></trkpt><trkpt lat="55.8169370" lon="49.1482150"><time>2021-08-14T06:33:11</time></trkpt><trkpt lat="55.8169260" lon="49.1481920"><time>2021-08-14T06:33:12</time></trkpt><trkpt lat="55.8169150" lon="49.1481710"><time>2021-08-14T06:33:13</time></trkpt><trkpt lat="55.8169020" lon="49.1481530"><time>2021-08-14T06:33:14</time></trkpt><trkpt lat="55.8168950" lon="49.1481250"><time>2021-08-14T06:33:15</time></trkpt><trkpt lat="55.8168820" lon="49.1481040"><time>2021-08-14T06:33:16</time></trkpt><trkpt lat="55.8168740" lon="49.1480800"><time>2021-08-14T06:33:17</time></trkpt><trkpt lat="55.8168520" lon="49.1480390"><time>2021-08-14T06:33:18</time></trkpt><trkpt lat="55.8168450" lon="49.1480290"><time>2021-08-14T06:33:19</time></trkpt><trkpt lat="55.8168310" lon="49.1480100"><time>2021-08-14T06:33:20</time></trkpt><trkpt lat="55.8168160" lon="49.1480050"><time>2021-08-14T06:33:21</time></trkpt><trkpt lat="55.8168000" lon="49.1480060"><time>2021-08-14T06:33:22</time></trkpt><trkpt lat="55.8167850" lon="49.1480010"><time>2021-08-14T06:33:23</time></trkpt><trkpt lat="55.8167720" lon="49.1479850"><time>2021-08-14T06:33:24</time></trkpt><trkpt lat="55.8167610" lon="49.1479590"><time>2021-08-14T06:33:25</time></trkpt><trkpt lat="55.8167460" lon="49.1479500"><time>2021-08-14T06:33:26</time></trkpt><trkpt lat="55.8167330" lon="49.1479370"><time>2021-08-14T06:33:27</time></trkpt><trkpt lat="55.8167190" lon="49.1479210"><time>2021-08-14T06:33:28</time></trkpt><trkpt lat="55.8167030" lon="49.1479060"><time>2021-08-14T06:33:29</time></trkpt><trkpt lat="55.8166900" lon="49.1479010"><time>2021-08-14T06:33:30</time></trkpt><trkpt lat="55.8166780" lon="49.1478830"><time>2021-08-14T06:33:31</time></trkpt><trkpt lat="55.8166690" lon="49.1478590"><time>2021-08-14T06:33:32</time></trkpt><trkpt lat="55.8166570" lon="49.1478350"><time>2021-08-14T06:33:33</time></trkpt><trkpt lat="55.8166480" lon="49.1478090"><time>2021-08-14T06:33:34</time></trkpt><trkpt lat="55.8166340" lon="49.1477900"><time>2021-08-14T06:33:35</time></trkpt><trkpt lat="55.8166230" lon="49.1477670"><time>2021-08-14T06:33:36</time></trkpt><trkpt lat="55.8166120" lon="49.1477460"><time>2021-08-14T06:33:37</time></trkpt><trkpt lat="55.8165980" lon="49.1477260"><time>2021-08-14T06:33:38</time></trkpt><trkpt lat="55.8165850" lon="49.1477060"><time>2021-08-14T06:33:39</time></trkpt><trkpt lat="55.8165730" lon="49.1476840"><time>2021-08-14T06:33:40</time></trkpt><trkpt lat="55.8165580" lon="49.1476640"><time>2021-08-14T06:33:41</time></trkpt><trkpt lat="55.8165480" lon="49.1476440"><time>2021-08-14T06:33:42</time></trkpt><trkpt lat="55.8165330" lon="49.1476320"><time>2021-08-14T06:33:43</time></trkpt><trkpt lat="55.8165210" lon="49.1476130"><time>2021-08-14T06:33:44</time></trkpt><trkpt lat="55.8165100" lon="49.1475980"><time>2021-08-14T06:33:45</time></trkpt><trkpt lat="55.8165030" lon="49.1475780"><time>2021-08-14T06:33:46</time></trkpt><trkpt lat="55.8164940" lon="49.1475560"><time>2021-08-14T06:33:47</time></trkpt><trkpt lat="55.8164820" lon="49.1475410"><time>2021-08-14T06:33:48</time></trkpt><trkpt lat="55.8164690" lon="49.1475310"><time>2021-08-14T06:33:49</time></trkpt><trkpt lat="55.8164580" lon="49.1475120"><time>2021-08-14T06:33:50</time></trkpt><trkpt lat="55.8164460" lon="49.1475000"><time>2021-08-14T06:33:51</time></trkpt><trkpt lat="55.8164350" lon="49.1474790"><time>2021-08-14T06:33:52</time></trkpt><trkpt lat="55.8164250" lon="49.1474520"><time>2021-08-14T06:33:53</time></trkpt><trkpt lat="55.8164170" lon="49.1474350"><time>2021-08-14T06:33:54</time></trkpt><trkpt lat="55.8164070" lon="49.1474040"><time>2021-08-14T06:33:55</time></trkpt><trkpt lat="55.8163820" lon="49.1473780"><time>2021-08-14T06:33:56</time></trkpt><trkpt lat="55.8163730" lon="49.1473670"><time>2021-08-14T06:33:57</time></trkpt><trkpt lat="55.8163490" lon="49.1473360"><time>2021-08-14T06:33:58</time></trkpt><trkpt lat="55.8163410" lon="49.1473270"><time>2021-08-14T06:33:59</time></trkpt><trkpt lat="55.8163320" lon="49.1472990"><time>2021-08-14T06:34:00</time></trkpt><trkpt lat="55.8163170" lon="49.1472820"><time>2021-08-14T06:34:01</time></trkpt><trkpt lat="55.8162920" lon="49.1472600"><time>2021-08-14T06:34:02</time></trkpt><trkpt lat="55.8162820" lon="49.1472560"><time>2021-08-14T06:34:03</time></trkpt><trkpt lat="55.8162660" lon="49.1472420"><time>2021-08-14T06:34:04</time></trkpt><trkpt lat="55.8162510" lon="49.1472240"><time>2021-08-14T06:34:05</time></trkpt><trkpt lat="55.8162280" lon="49.1471970"><time>2021-08-14T06:34:06</time></trkpt><trkpt lat="55.8162190" lon="49.1471900"><time>2021-08-14T06:34:07</time></trkpt><trkpt lat="55.8162040" lon="49.1471750"><time>2021-08-14T06:34:08</time></trkpt><trkpt lat="55.8161900" lon="49.1471540"><time>2021-08-14T06:34:09</time></trkpt><trkpt lat="55.8161740" lon="49.1471370"><time>2021-08-14T06:34:10</time></trkpt><trkpt lat="55.8161600" lon="49.1471180"><time>2021-08-14T06:34:11</time></trkpt><trkpt lat="55.8161370" lon="49.1470900"><time>2021-08-14T06:34:12</time></trkpt><trkpt lat="55.8161290" lon="49.1470810"><time>2021-08-14T06:34:13</time></trkpt><trkpt lat="55.8161140" lon="49.1470620"><time>2021-08-14T06:34:14</time></trkpt><trkpt lat="55.8161000" lon="49.1470440"><time>2021-08-14T06:34:15</time></trkpt><trkpt lat="55.8160850" lon="49.1470260"><time>2021-08-14T06:34:16</time></trkpt><trkpt lat="55.8160710" lon="49.1470070"><time>2021-08-14T06:34:17</time></trkpt><trkpt lat="55.8160590" lon="49.1469900"><time>2021-08-14T06:34:18</time></trkpt><trkpt lat="55.8160440" lon="49.1469710"><time>2021-08-14T06:34:19</time></trkpt><trkpt lat="55.8160300" lon="49.1469500"><time>2021-08-14T06:34:20</time></trkpt><trkpt lat="55.8160180" lon="49.1469320"><time>2021-08-14T06:34:21</time></trkpt><trkpt lat="55.8160060" lon="49.1469140"><time>2021-08-14T06:34:22</time></trkpt><trkpt lat="55.8159920" lon="49.1468970"><time>2021-08-14T06:34:23</time></trkpt><trkpt lat="55.8159780" lon="49.1468770"><time>2021-08-14T06:34:24</time></trkpt><trkpt lat="55.8159640" lon="49.1468590"><time>2021-08-14T06:34:25</time></trkpt><trkpt lat="55.8159520" lon="49.1468380"><time>2021-08-14T06:34:26</time></trkpt><trkpt lat="55.8159400" lon="49.1468180"><time>2021-08-14T06:34:27</time></trkpt><trkpt lat="55.8159250" lon="49.1467980"><time>2021-08-14T06:34:28</time></trkpt><trkpt lat="55.8159130" lon="49.1467770"><time>2021-08-14T06:34:29</time></trkpt><trkpt lat="55.8158970" lon="49.1467620"><time>2021-08-14T06:34:30</time></trkpt><trkpt lat="55.8158810" lon="49.1467500"><time>2021-08-14T06:34:31</time></trkpt><trkpt lat="55.8158640" lon="49.1467410"><time>2021-08-14T06:34:32</time></trkpt><trkpt lat="55.8158510" lon="49.1467280"><time>2021-08-14T06:34:33</time></trkpt><trkpt lat="55.8158390" lon="49.1467090"><time>2021-08-14T06:34:34</time></trkpt><trkpt lat="55.8158290" lon="49.1466800"><time>2021-08-14T06:34:35</time></trkpt><trkpt lat="55.8158260" lon="49.1466310"><time>2021-08-14T06:34:36</time></trkpt><trkpt lat="55.8158250" lon="49.1466150"><time>2021-08-14T06:34:37</time></trkpt><trkpt lat="55.8158240" lon="49.1465860"><time>2021-08-14T06:34:38</time></trkpt><trkpt lat="55.8158170" lon="49.1465570"><time>2021-08-14T06:34:39</time></trkpt><trkpt lat="55.8158060" lon="49.1465330"><time>2021-08-14T06:34:40</time></trkpt><trkpt lat="55.8157910" lon="49.1465120"><time>2021-08-14T06:34:41</time></trkpt><trkpt lat="55.8157800" lon="49.1464930"><time>2021-08-14T06:34:42</time></trkpt><trkpt lat="55.8157680" lon="49.1464760"><time>2021-08-14T06:34:43</time></trkpt><trkpt lat="55.8157520" lon="49.1464630"><time>2021-08-14T06:34:44</time></trkpt><trkpt lat="55.8157380" lon="49.1464490"><time>2021-08-14T06:34:45</time></trkpt><trkpt lat="55.8157250" lon="49.1464320"><time>2021-08-14T06:34:46</time></trkpt><trkpt lat="55.8157090" lon="49.1464200"><time>2021-08-14T06:34:47</time></trkpt><trkpt lat="55.8156930" lon="49.1464200"><time>2021-08-14T06:34:48</time></trkpt><trkpt lat="55.8156750" lon="49.1464270"><time>2021-08-14T06:34:49</time></trkpt><trkpt lat="55.8156600" lon="49.1464370"><time>2021-08-14T06:34:50</time></trkpt><trkpt lat="55.8156470" lon="49.1464570"><time>2021-08-14T06:34:51</time></trkpt><trkpt lat="55.8156330" lon="49.1464790"><time>2021-08-14T06:34:52</time></trkpt><trkpt lat="55.8156240" lon="49.1465050"><time>2021-08-14T06:34:53</time></trkpt><trkpt lat="55.8156120" lon="49.1465240"><time>2021-08-14T06:34:54</time></trkpt><trkpt lat="55.8156030" lon="49.1465500"><time>2021-08-14T06:34:55</time></trkpt><trkpt lat="55.8155910" lon="49.1465690"><time>2021-08-14T06:34:56</time></trkpt><trkpt lat="55.8155810" lon="49.1465880"><time>2021-08-14T06:34:57</time></trkpt><trkpt lat="55.8155690" lon="49.1466090"><time>2021-08-14T06:34:58</time></trkpt><trkpt lat="55.8155580" lon="49.1466310"><time>2021-08-14T06:34:59</time></trkpt><trkpt lat="55.8155470" lon="49.1466590"><time>2021-08-14T06:35:00</time></trkpt><trkpt lat="55.8155370" lon="49.1466830"><time>2021-08-14T06:35:01</time></trkpt><trkpt lat="55.8155250" lon="49.1467030"><time>2021-08-14T06:35:02</time></trkpt><trkpt lat="55.8155120" lon="49.1467190"><time>2021-08-14T06:35:03</time></trkpt><trkpt lat="55.8155010" lon="49.1467360"><time>2021-08-14T06:35:04</time></trkpt><trkpt lat="55.8154930" lon="49.1467650"><time>2021-08-14T06:35:05</time></trkpt><trkpt lat="55.8154810" lon="49.1467860"><time>2021-08-14T06:35:06</time></trkpt><trkpt lat="55.8154650" lon="49.1468010"><time>2021-08-14T06:35:07</time></trkpt><trkpt lat="55.8154530" lon="49.1468180"><time>2021-08-14T06:35:08</time></trkpt><trkpt lat="55.8154430" lon="49.1468420"><time>2021-08-14T06:35:09</time></trkpt><trkpt lat="55.8154300" lon="49.1468620"><time>2021-08-14T06:35:10</time></trkpt><trkpt lat="55.8154160" lon="49.1468770"><time>2021-08-14T06:35:11</time></trkpt><trkpt lat="55.8153990" lon="49.1468890"><time>2021-08-14T06:35:12</time></trkpt><trkpt lat="55.8153830" lon="49.1469010"><time>2021-08-14T06:35:13</time></trkpt><trkpt lat="55.8153670" lon="49.1469120"><time>2021-08-14T06:35:14</time></trkpt><trkpt lat="55.8153520" lon="49.1469130"><time>2021-08-14T06:35:15</time></trkpt><trkpt lat="55.8153280" lon="49.1468860"><time>2021-08-14T06:35:16</time></trkpt><trkpt lat="55.8153220" lon="49.1468720"><time>2021-08-14T06:35:17</time></trkpt><trkpt lat="55.8153100" lon="49.1468530"><time>2021-08-14T06:35:18</time></trkpt><trkpt lat="55.8152980" lon="49.1468310"><time>2021-08-14T06:35:19</time></trkpt><trkpt lat="55.8152890" lon="49.1468110"><time>2021-08-14T06:35:20</time></trkpt><trkpt lat="55.8152770" lon="49.1467920"><time>2021-08-14T06:35:21</time></trkpt><trkpt lat="55.8152660" lon="49.1467750"><time>2021-08-14T06:35:22</time></trkpt><trkpt lat="55.8152560" lon="49.1467600"><time>2021-08-14T06:35:23</time></trkpt><trkpt lat="55.8152440" lon="49.1467420"><time>2021-08-14T06:35:24</time></trkpt><trkpt lat="55.8152350" lon="49.1467230"><time>2021-08-14T06:35:25</time></trkpt><trkpt lat="55.8152210" lon="49.1467060"><time>2021-08-14T06:35:26</time></trkpt><trkpt lat="55.8152060" lon="49.1466880"><time>2021-08-14T06:35:27</time></trkpt><trkpt lat="55.8151940" lon="49.1466710"><time>2021-08-14T06:35:28</time></trkpt><trkpt lat="55.8151780" lon="49.1466550"><time>2021-08-14T06:35:29</time></trkpt><trkpt lat="55.8151650" lon="49.1466370"><time>2021-08-14T06:35:30</time></trkpt><trkpt lat="55.8151530" lon="49.1466160"><time>2021-08-14T06:35:31</time></trkpt><trkpt lat="55.8151290" lon="49.1465860"><time>2021-08-14T06:35:32</time></trkpt><trkpt lat="55.8151210" lon="49.1465780"><time>2021-08-14T06:35:33</time></trkpt><trkpt lat="55.8150990" lon="49.1465460"><time>2021-08-14T06:35:34</time></trkpt><trkpt lat="55.8150900" lon="49.1465370"><time>2021-08-14T06:35:35</time></trkpt><trkpt lat="55.8150760" lon="49.1465200"><time>2021-08-14T06:35:36</time></trkpt><trkpt lat="55.8150620" lon="49.1465000"><time>2021-08-14T06:35:37</time></trkpt><trkpt lat="55.8150500" lon="49.1464790"><time>2021-08-14T06:35:38</time></trkpt><trkpt lat="55.8150380" lon="49.1464600"><time>2021-08-14T06:35:39</time></trkpt><trkpt lat="55.8150260" lon="49.1464380"><time>2021-08-14T06:35:40</time></trkpt><trkpt lat="55.8150130" lon="49.1464250"><time>2021-08-14T06:35:41</time></trkpt><trkpt lat="55.8149990" lon="49.1464110"><time>2021-08-14T06:35:42</time></trkpt><trkpt lat="55.8149890" lon="49.1463940"><time>2021-08-14T06:35:43</time></trkpt><trkpt lat="55.8149770" lon="49.1463750"><time>2021-08-14T06:35:44</time></trkpt><trkpt lat="55.8149640" lon="49.1463590"><time>2021-08-14T06:35:45</time></trkpt><trkpt lat="55.8149530" lon="49.1463370"><time>2021-08-14T06:35:46</time></trkpt><trkpt lat="55.8149410" lon="49.1463120"><time>2021-08-14T06:35:47</time></trkpt><trkpt lat="55.8149300" lon="49.1462900"><time>2021-08-14T06:35:48</time></trkpt><trkpt lat="55.8149170" lon="49.1462710"><time>2021-08-14T06:35:49</time></trkpt><trkpt lat="55.8148940" lon="49.1462450"><time>2021-08-14T06:35:50</time></trkpt><trkpt lat="55.8148850" lon="49.1462350"><time>2021-08-14T06:35:51</time></trkpt><trkpt lat="55.8148600" lon="49.1462100"><time>2021-08-14T06:35:52</time></trkpt><trkpt lat="55.8148510" lon="49.1462040"><time>2021-08-14T06:35:53</time></trkpt><trkpt lat="55.8148250" lon="49.1461800"><time>2021-08-14T06:35:54</time></trkpt><trkpt lat="55.8148150" lon="49.1461740"><time>2021-08-14T06:35:55</time></trkpt><trkpt lat="55.8147990" lon="49.1461620"><time>2021-08-14T06:35:56</time></trkpt><trkpt lat="55.8147830" lon="49.1461490"><time>2021-08-14T06:35:57</time></trkpt><trkpt lat="55.8147680" lon="49.1461340"><time>2021-08-14T06:35:58</time></trkpt><trkpt lat="55.8147530" lon="49.1461200"><time>2021-08-14T06:35:59</time></trkpt><trkpt lat="55.8147350" lon="49.1461110"><time>2021-08-14T06:36:00</time></trkpt><trkpt lat="55.8147200" lon="49.1461020"><time>2021-08-14T06:36:01</time></trkpt><trkpt lat="55.8147050" lon="49.1460880"><time>2021-08-14T06:36:02</time></trkpt><trkpt lat="55.8146970" lon="49.1460610"><time>2021-08-14T06:36:03</time></trkpt><trkpt lat="55.8146890" lon="49.1460360"><time>2021-08-14T06:36:04</time></trkpt><trkpt lat="55.8146730" lon="49.1460190"><time>2021-08-14T06:36:05</time></trkpt><trkpt lat="55.8146510" lon="49.1459900"><time>2021-08-14T06:36:06</time></trkpt><trkpt lat="55.8146440" lon="49.1459780"><time>2021-08-14T06:36:07</time></trkpt><trkpt lat="55.8146310" lon="49.1459540"><time>2021-08-14T06:36:08</time></trkpt><trkpt lat="55.8146220" lon="49.1459310"><time>2021-08-14T06:36:09</time></trkpt><trkpt lat="55.8146090" lon="49.1459080"><time>2021-08-14T06:36:10</time></trkpt><trkpt lat="55.8145980" lon="49.1458850"><time>2021-08-14T06:36:11</time></trkpt><trkpt lat="55.8145850" lon="49.1458650"><time>2021-08-14T06:36:12</time></trkpt><trkpt lat="55.8145740" lon="49.1458430"><time>2021-08-14T06:36:13</time></trkpt><trkpt lat="55.8145610" lon="49.1458220"><time>2021-08-14T06:36:14</time></trkpt><trkpt lat="55.8145480" lon="49.1458060"><time>2021-08-14T06:36:15</time></trkpt><trkpt lat="55.8145340" lon="49.1457890"><time>2021-08-14T06:36:16</time></trkpt><trkpt lat="55.8145210" lon="49.1457690"><time>2021-08-14T06:36:17</time></trkpt><trkpt lat="55.8145000" lon="49.1457380"><time>2021-08-14T06:36:18</time></trkpt><trkpt lat="55.8144920" lon="49.1457290"><time>2021-08-14T06:36:19</time></trkpt><trkpt lat="55.8144810" lon="49.1457080"><time>2021-08-14T06:36:20</time></trkpt><trkpt lat="55.8144660" lon="49.1456920"><time>2021-08-14T06:36:21</time></trkpt><trkpt lat="55.8144480" lon="49.1456550"><time>2021-08-14T06:36:22</time></trkpt><trkpt lat="55.8144390" lon="49.1456460"><time>2021-08-14T06:36:23</time></trkpt><trkpt lat="55.8144230" lon="49.1456310"><time>2021-08-14T06:36:24</time></trkpt><trkpt lat="55.8144110" lon="49.1456030"><time>2021-08-14T06:36:25</time></trkpt><trkpt lat="55.8143960" lon="49.1455890"><time>2021-08-14T06:36:26</time></trkpt><trkpt lat="55.8143860" lon="49.1455650"><time>2021-08-14T06:36:27</time></trkpt><trkpt lat="55.8143760" lon="49.1455410"><time>2021-08-14T06:36:28</time></trkpt><trkpt lat="55.8143580" lon="49.1455300"><time>2021-08-14T06:36:29</time></trkpt><trkpt lat="55.8143440" lon="49.1455120"><time>2021-08-14T06:36:30</time></trkpt><trkpt lat="55.8143320" lon="49.1454890"><time>2021-08-14T06:36:31</time></trkpt><trkpt lat="55.8143120" lon="49.1454580"><time>2021-08-14T06:36:32</time></trkpt><trkpt lat="55.8143040" lon="49.1454480"><time>2021-08-14T06:36:33</time></trkpt><trkpt lat="55.8142880" lon="49.1454300"><time>2021-08-14T06:36:34</time></trkpt><trkpt lat="55.8142770" lon="49.1454070"><time>2021-08-14T06:36:35</time></trkpt><trkpt lat="55.8142610" lon="49.1453650"><time>2021-08-14T06:36:36</time></trkpt><trkpt lat="55.8142520" lon="49.1453570"><time>2021-08-14T06:36:37</time></trkpt><trkpt lat="55.8142370" lon="49.1453420"><time>2021-08-14T06:36:38</time></trkpt><trkpt lat="55.8142210" lon="49.1453230"><time>2021-08-14T06:36:39</time></trkpt><trkpt lat="55.8141950" lon="49.1453040"><time>2021-08-14T06:36:40</time></trkpt><trkpt lat="55.8141860" lon="49.1452980"><time>2021-08-14T06:36:41</time></trkpt><trkpt lat="55.8141700" lon="49.1452830"><time>2021-08-14T06:36:42</time></trkpt><trkpt lat="55.8141600" lon="49.1452610"><time>2021-08-14T06:36:43</time></trkpt><trkpt lat="55.8141490" lon="49.1452390"><time>2021-08-14T06:36:44</time></trkpt><trkpt lat="55.8141360" lon="49.1452260"><time>2021-08-14T06:36:45</time></trkpt><trkpt lat="55.8141190" lon="49.1452230"><time>2021-08-14T06:36:46</time></trkpt><trkpt lat="55.8141010" lon="49.1452310"><time>2021-08-14T06:36:47</time></trkpt><trkpt lat="55.8140850" lon="49.1452370"><time>2021-08-14T06:36:48</time></trkpt><trkpt lat="55.8140680" lon="49.1452500"><time>2021-08-14T06:36:49</time></trkpt><trkpt lat="55.8140520" lon="49.1452460"><time>2021-08-14T06:36:50</time></trkpt><trkpt lat="55.8140370" lon="49.1452500"><time>2021-08-14T06:36:51</time></trkpt><trkpt lat="55.8140220" lon="49.1452570"><time>2021-08-14T06:36:52</time></trkpt><trkpt lat="55.8140070" lon="49.1452640"><time>2021-08-14T06:36:53</time></trkpt><trkpt lat="55.8139910" lon="49.1452710"><time>2021-08-14T06:36:54</time></trkpt><trkpt lat="55.8139750" lon="49.1452770"><time>2021-08-14T06:36:55</time></trkpt><trkpt lat="55.8139610" lon="49.1452810"><time>2021-08-14T06:36:56</time></trkpt><trkpt lat="55.8139440" lon="49.1452720"><time>2021-08-14T06:36:57</time></trkpt><trkpt lat="55.8139280" lon="49.1452680"><time>2021-08-14T06:36:58</time></trkpt><trkpt lat="55.8139110" lon="49.1452700"><time>2021-08-14T06:36:59</time></trkpt><trkpt lat="55.8138960" lon="49.1452680"><time>2021-08-14T06:37:00</time></trkpt><trkpt lat="55.8138760" lon="49.1452650"><time>2021-08-14T06:37:01</time></trkpt><trkpt lat="55.8138600" lon="49.1452660"><time>2021-08-14T06:37:02</time></trkpt><trkpt lat="55.8138410" lon="49.1452630"><time>2021-08-14T06:37:03</time></trkpt><trkpt lat="55.8138230" lon="49.1452660"><time>2021-08-14T06:37:04</time></trkpt><trkpt lat="55.8138070" lon="49.1452710"><time>2021-08-14T06:37:05</time></trkpt><trkpt lat="55.8137890" lon="49.1452750"><time>2021-08-14T06:37:06</time></trkpt><trkpt lat="55.8137740" lon="49.1452830"><time>2021-08-14T06:37:07</time></trkpt><trkpt lat="55.8137600" lon="49.1452910"><time>2021-08-14T06:37:08</time></trkpt><trkpt lat="55.8137430" lon="49.1452920"><time>2021-08-14T06:37:09</time></trkpt><trkpt lat="55.8137290" lon="49.1453050"><time>2021-08-14T06:37:10</time></trkpt><trkpt lat="55.8137150" lon="49.1453170"><time>2021-08-14T06:37:11</time></trkpt><trkpt lat="55.8137000" lon="49.1453290"><time>2021-08-14T06:37:12</time></trkpt><trkpt lat="55.8136880" lon="49.1453490"><time>2021-08-14T06:37:13</time></trkpt><trkpt lat="55.8136760" lon="49.1453620"><time>2021-08-14T06:37:14</time></trkpt><trkpt lat="55.8136640" lon="49.1453800"><time>2021-08-14T06:37:15</time></trkpt><trkpt lat="55.8136530" lon="49.1454010"><time>2021-08-14T06:37:16</time></trkpt><trkpt lat="55.8136410" lon="49.1454200"><time>2021-08-14T06:37:17</time></trkpt><trkpt lat="55.8136310" lon="49.1454400"><time>2021-08-14T06:37:18</time></trkpt><trkpt lat="55.8136160" lon="49.1454520"><time>2021-08-14T06:37:19</time></trkpt><trkpt lat="55.8136060" lon="49.1454720"><time>2021-08-14T06:37:20</time></trkpt><trkpt lat="55.8135960" lon="49.1454910"><time>2021-08-14T06:37:21</time></trkpt><trkpt lat="55.8135840" lon="49.1455080"><time>2021-08-14T06:37:22</time></trkpt><trkpt lat="55.8135740" lon="49.1455260"><time>2021-08-14T06:37:23</time></trkpt><trkpt lat="55.8135630" lon="49.1455490"><time>2021-08-14T06:37:24</time></trkpt><trkpt lat="55.8135510" lon="49.1455660"><time>2021-08-14T06:37:25</time></trkpt><trkpt lat="55.8135390" lon="49.1455890"><time>2021-08-14T06:37:26</time></trkpt><trkpt lat="55.8135270" lon="49.1456090"><time>2021-08-14T06:37:27</time></trkpt><trkpt lat="55.8135140" lon="49.1456250"><time>2021-08-14T06:37:28</time></trkpt><trkpt lat="55.8135010" lon="49.1456430"><time>2021-08-14T06:37:29</time></trkpt><trkpt lat="55.8134870" lon="49.1456600"><time>2021-08-14T06:37:30</time></trkpt><trkpt lat="55.8134760" lon="49.1456770"><time>2021-08-14T06:37:31</time></trkpt><trkpt lat="55.8134640" lon="49.1456980"><time>2021-08-14T06:37:32</time></trkpt><trkpt lat="55.8134510" lon="49.1457180"><time>2021-08-14T06:37:33</time></trkpt><trkpt lat="55.8134400" lon="49.1457380"><time>2021-08-14T06:37:34</time></trkpt><trkpt lat="55.8134300" lon="49.1457570"><time>2021-08-14T06:37:35</time></trkpt><trkpt lat="55.8134170" lon="49.1457720"><time>2021-08-14T06:37:36</time></trkpt><trkpt lat="55.8134040" lon="49.1457890"><time>2021-08-14T06:37:37</time></trkpt><trkpt lat="55.8133920" lon="49.1458080"><time>2021-08-14T06:37:38</time></trkpt><trkpt lat="55.8133820" lon="49.1458320"><time>2021-08-14T06:37:39</time></trkpt><trkpt lat="55.8133720" lon="49.1458500"><time>2021-08-14T06:37:40</time></trkpt><trkpt lat="55.8133530" lon="49.1458620"><time>2021-08-14T06:37:41</time></trkpt><trkpt lat="55.8133360" lon="49.1458670"><time>2021-08-14T06:37:42</time></trkpt><trkpt lat="55.8133200" lon="49.1458820"><time>2021-08-14T06:37:43</time></trkpt><trkpt lat="55.8133020" lon="49.1458790"><time>2021-08-14T06:37:44</time></trkpt><trkpt lat="55.8132890" lon="49.1458990"><time>2021-08-14T06:37:45</time></trkpt><trkpt lat="55.8132760" lon="49.1459100"><time>2021-08-14T06:37:46</time></trkpt><trkpt lat="55.8132620" lon="49.1459130"><time>2021-08-14T06:37:47</time></trkpt><trkpt lat="55.8132530" lon="49.1459160"><time>2021-08-14T06:37:48</time></trkpt><trkpt lat="55.8132410" lon="49.1459110"><time>2021-08-14T06:37:49</time></trkpt><trkpt lat="55.8132270" lon="49.1459150"><time>2021-08-14T06:37:50</time></trkpt><trkpt lat="55.8132070" lon="49.1458980"><time>2021-08-14T06:37:51</time></trkpt><trkpt lat="55.8132010" lon="49.1458860"><time>2021-08-14T06:37:52</time></trkpt><trkpt lat="55.8131940" lon="49.1458730"><time>2021-08-14T06:37:53</time></trkpt><trkpt lat="55.8131860" lon="49.1458540"><time>2021-08-14T06:37:54</time></trkpt><trkpt lat="55.8131760" lon="49.1458360"><time>2021-08-14T06:37:55</time></trkpt><trkpt lat="55.8131650" lon="49.1458200"><time>2021-08-14T06:37:56</time></trkpt><trkpt lat="55.8131560" lon="49.1458010"><time>2021-08-14T06:37:57</time></trkpt><trkpt lat="55.8131450" lon="49.1457860"><time>2021-08-14T06:37:58</time></trkpt><trkpt lat="55.8131340" lon="49.1457720"><time>2021-08-14T06:37:59</time></trkpt><trkpt lat="55.8131240" lon="49.1457530"><time>2021-08-14T06:38:00</time></trkpt><trkpt lat="55.8131140" lon="49.1457330"><time>2021-08-14T06:38:01</time></trkpt><trkpt lat="55.8131050" lon="49.1457120"><time>2021-08-14T06:38:02</time></trkpt><trkpt lat="55.8130950" lon="49.1456940"><time>2021-08-14T06:38:03</time></trkpt><trkpt lat="55.8130830" lon="49.1456770"><time>2021-08-14T06:38:04</time></trkpt><trkpt lat="55.8130720" lon="49.1456570"><time>2021-08-14T06:38:05</time></trkpt><trkpt lat="55.8130620" lon="49.1456390"><time>2021-08-14T06:38:06</time></trkpt><trkpt lat="55.8130510" lon="49.1456240"><time>2021-08-14T06:38:07</time></trkpt><trkpt lat="55.8130400" lon="49.1456040"><time>2021-08-14T06:38:08</time></trkpt><trkpt lat="55.8130310" lon="49.1455830"><time>2021-08-14T06:38:09</time></trkpt><trkpt lat="55.8130190" lon="49.1455650"><time>2021-08-14T06:38:10</time></trkpt><trkpt lat="55.8130080" lon="49.1455470"><time>2021-08-14T06:38:11</time></trkpt><trkpt lat="55.8129970" lon="49.1455300"><time>2021-08-14T06:38:12</time></trkpt><trkpt lat="55.8129860" lon="49.1455100"><time>2021-08-14T06:38:13</time></trkpt><trkpt lat="55.8129750" lon="49.1454900"><time>2021-08-14T06:38:14</time></trkpt><trkpt lat="55.8129640" lon="49.1454690"><time>2021-08-14T06:38:15</time></trkpt><trkpt lat="55.8129530" lon="49.1454480"><time>2021-08-14T06:38:16</time></trkpt><trkpt lat="55.8129420" lon="49.1454290"><time>2021-08-14T06:38:17</time></trkpt><trkpt lat="55.8129300" lon="49.1454100"><time>2021-08-14T06:38:18</time></trkpt><trkpt lat="55.8129180" lon="49.1453940"><time>2021-08-14T06:38:19</time></trkpt><trkpt lat="55.8129030" lon="49.1453790"><time>2021-08-14T06:38:20</time></trkpt><trkpt lat="55.8128920" lon="49.1453640"><time>2021-08-14T06:38:21</time></trkpt><trkpt lat="55.8128800" lon="49.1453460"><time>2021-08-14T06:38:22</time></trkpt><trkpt lat="55.8128670" lon="49.1453300"><time>2021-08-14T06:38:23</time></trkpt><trkpt lat="55.8128550" lon="49.1453100"><time>2021-08-14T06:38:24</time></trkpt><trkpt lat="55.8128430" lon="49.1452960"><time>2021-08-14T06:38:25</time></trkpt><trkpt lat="55.8128300" lon="49.1452800"><time>2021-08-14T06:38:26</time></trkpt><trkpt lat="55.8128150" lon="49.1452650"><time>2021-08-14T06:38:27</time></trkpt><trkpt lat="55.8128020" lon="49.1452500"><time>2021-08-14T06:38:28</time></trkpt><trkpt lat="55.8127890" lon="49.1452330"><time>2021-08-14T06:38:29</time></trkpt><trkpt lat="55.8127770" lon="49.1452170"><time>2021-08-14T06:38:30</time></trkpt><trkpt lat="55.8127660" lon="49.1452010"><time>2021-08-14T06:38:31</time></trkpt><trkpt lat="55.8127530" lon="49.1451870"><time>2021-08-14T06:38:32</time></trkpt><trkpt lat="55.8127400" lon="49.1451750"><time>2021-08-14T06:38:33</time></trkpt><trkpt lat="55.8127270" lon="49.1451600"><time>2021-08-14T06:38:34</time></trkpt><trkpt lat="55.8127150" lon="49.1451410"><time>2021-08-14T06:38:35</time></trkpt><trkpt lat="55.8127030" lon="49.1451240"><time>2021-08-14T06:38:36</time></trkpt><trkpt lat="55.8126900" lon="49.1451080"><time>2021-08-14T06:38:37</time></trkpt><trkpt lat="55.8126770" lon="49.1450950"><time>2021-08-14T06:38:38</time></trkpt><trkpt lat="55.8126630" lon="49.1450810"><time>2021-08-14T06:38:39</time></trkpt><trkpt lat="55.8126490" lon="49.1450700"><time>2021-08-14T06:38:40</time></trkpt><trkpt lat="55.8126380" lon="49.1450530"><time>2021-08-14T06:38:41</time></trkpt><trkpt lat="55.8126260" lon="49.1450350"><time>2021-08-14T06:38:42</time></trkpt><trkpt lat="55.8126140" lon="49.1450180"><time>2021-08-14T06:38:43</time></trkpt><trkpt lat="55.8126020" lon="49.1450020"><time>2021-08-14T06:38:44</time></trkpt><trkpt lat="55.8125880" lon="49.1449860"><time>2021-08-14T06:38:45</time></trkpt><trkpt lat="55.8125770" lon="49.1449670"><time>2021-08-14T06:38:46</time></trkpt><trkpt lat="55.8125650" lon="49.1449500"><time>2021-08-14T06:38:47</time></trkpt><trkpt lat="55.8125520" lon="49.1449340"><time>2021-08-14T06:38:48</time></trkpt><trkpt lat="55.8125380" lon="49.1449210"><time>2021-08-14T06:38:49</time></trkpt><trkpt lat="55.8125260" lon="49.1449060"><time>2021-08-14T06:38:50</time></trkpt><trkpt lat="55.8125140" lon="49.1448880"><time>2021-08-14T06:38:51</time></trkpt><trkpt lat="55.8125020" lon="49.1448700"><time>2021-08-14T06:38:52</time></trkpt><trkpt lat="55.8124910" lon="49.1448520"><time>2021-08-14T06:38:53</time></trkpt><trkpt lat="55.8124790" lon="49.1448330"><time>2021-08-14T06:38:54</time></trkpt><trkpt lat="55.8124660" lon="49.1448180"><time>2021-08-14T06:38:55</time></trkpt><trkpt lat="55.8124510" lon="49.1448060"><time>2021-08-14T06:38:56</time></trkpt><trkpt lat="55.8124360" lon="49.1447980"><time>2021-08-14T06:38:57</time></trkpt><trkpt lat="55.8124200" lon="49.1447990"><time>2021-08-14T06:38:58</time></trkpt><trkpt lat="55.8124050" lon="49.1448110"><time>2021-08-14T06:38:59</time></trkpt><trkpt lat="55.8123920" lon="49.1448250"><time>2021-08-14T06:39:00</time></trkpt><trkpt lat="55.8123770" lon="49.1448360"><time>2021-08-14T06:39:01</time></trkpt><trkpt lat="55.8123630" lon="49.1448480"><time>2021-08-14T06:39:02</time></trkpt><trkpt lat="55.8123460" lon="49.1448530"><time>2021-08-14T06:39:03</time></trkpt><trkpt lat="55.8123310" lon="49.1448560"><time>2021-08-14T06:39:04</time></trkpt><trkpt lat="55.8123140" lon="49.1448500"><time>2021-08-14T06:39:05</time></trkpt><trkpt lat="55.8123000" lon="49.1448370"><time>2021-08-14T06:39:06</time></trkpt><trkpt lat="55.8122880" lon="49.1448190"><time>2021-08-14T06:39:07</time></trkpt><trkpt lat="55.8122780" lon="49.1447970"><time>2021-08-14T06:39:08</time></trkpt><trkpt lat="55.8122680" lon="49.1447770"><time>2021-08-14T06:39:09</time></trkpt><trkpt lat="55.8122570" lon="49.1447580"><time>2021-08-14T06:39:10</time></trkpt><trkpt lat="55.8122460" lon="49.1447390"><time>2021-08-14T06:39:11</time></trkpt><trkpt lat="55.8122360" lon="49.1447210"><time>2021-08-14T06:39:12</time></trkpt><trkpt lat="55.8122270" lon="49.1447010"><time>2021-08-14T06:39:13</time></trkpt><trkpt lat="55.8122170" lon="49.1446820"><time>2021-08-14T06:39:14</time></trkpt><trkpt lat="55.8122060" lon="49.1446640"><time>2021-08-14T06:39:15</time></trkpt><trkpt lat="55.8121900" lon="49.1446360"><time>2021-08-14T06:39:16</time></trkpt><trkpt lat="55.8121830" lon="49.1446270"><time>2021-08-14T06:39:17</time></trkpt><trkpt lat="55.8121760" lon="49.1446180"><time>2021-08-14T06:39:18</time></trkpt><trkpt lat="55.8121640" lon="49.1446170"><time>2021-08-14T06:39:19</time></trkpt><trkpt lat="55.8121540" lon="49.1446320"><time>2021-08-14T06:39:20</time></trkpt><trkpt lat="55.8121480" lon="49.1446380"><time>2021-08-14T06:39:21</time></trkpt><trkpt lat="55.8121470" lon="49.1446480"><time>2021-08-14T06:39:22</time></trkpt><trkpt lat="55.8121540" lon="49.1446480"><time>2021-08-14T06:39:23</time></trkpt><trkpt lat="55.8121580" lon="49.1446450"><time>2021-08-14T06:39:24</time></trkpt><trkpt lat="55.8121650" lon="49.1446390"><time>2021-08-14T06:39:25</time></trkpt><trkpt lat="55.8121660" lon="49.1446390"><time>2021-08-14T06:39:26</time></trkpt><trkpt lat="55.8121680" lon="49.1446390"><time>2021-08-14T06:39:27</time></trkpt><trkpt lat="55.8121660" lon="49.1446430"><time>2021-08-14T06:39:28</time></trkpt><trkpt lat="55.8121640" lon="49.1446480"><time>2021-08-14T06:39:29</time></trkpt><trkpt lat="55.8121600" lon="49.1446660"><time>2021-08-14T06:39:30</time></trkpt><trkpt lat="55.8121600" lon="49.1446860"><time>2021-08-14T06:39:31</time></trkpt><trkpt lat="55.8121620" lon="49.1447040"><time>2021-08-14T06:39:32</time></trkpt><trkpt lat="55.8121600" lon="49.1447210"><time>2021-08-14T06:39:33</time></trkpt><trkpt lat="55.8121560" lon="49.1447220"><time>2021-08-14T06:39:34</time></trkpt><trkpt lat="55.8121490" lon="49.1447260"><time>2021-08-14T06:39:35</time></trkpt><trkpt lat="55.8121400" lon="49.1447320"><time>2021-08-14T06:39:36</time></trkpt><trkpt lat="55.8121330" lon="49.1447360"><time>2021-08-14T06:39:37</time></trkpt><trkpt lat="55.8121260" lon="49.1447440"><time>2021-08-14T06:39:38</time></trkpt><trkpt lat="55.8121220" lon="49.1447460"><time>2021-08-14T06:39:39</time></trkpt><trkpt lat="55.8121210" lon="49.1447460"><time>2021-08-14T06:39:40</time></trkpt><trkpt lat="55.8121210" lon="49.1447460"><time>2021-08-14T06:39:41</time></trkpt><trkpt lat="55.8121220" lon="49.1447450"><time>2021-08-14T06:39:42</time></trkpt><trkpt lat="55.8121220" lon="49.1447420"><time>2021-08-14T06:39:43</time></trkpt><trkpt lat="55.8121230" lon="49.1447440"><time>2021-08-14T06:39:44</time></trkpt><trkpt lat="55.8121230" lon="49.1447440"><time>2021-08-14T06:39:45</time></trkpt><trkpt lat="55.8121240" lon="49.1447410"><time>2021-08-14T06:39:46</time></trkpt><trkpt lat="55.8121290" lon="49.1447370"><time>2021-08-14T06:39:47</time></trkpt><trkpt lat="55.8121310" lon="49.1447320"><time>2021-08-14T06:39:48</time></trkpt><trkpt lat="55.8121310" lon="49.1447310"><time>2021-08-14T06:39:49</time></trkpt><trkpt lat="55.8121310" lon="49.1447290"><time>2021-08-14T06:39:50</time></trkpt><trkpt lat="55.8121430" lon="49.1447180"><time>2021-08-14T06:39:51</time></trkpt><trkpt lat="55.8121510" lon="49.1447200"><time>2021-08-14T06:39:52</time></trkpt><trkpt lat="55.8121620" lon="49.1447200"><time>2021-08-14T06:39:53</time></trkpt><trkpt lat="55.8121730" lon="49.1447160"><time>2021-08-14T06:39:54</time></trkpt><trkpt lat="55.8121750" lon="49.1446800"><time>2021-08-14T06:39:55</time></trkpt><trkpt lat="55.8121740" lon="49.1446630"><time>2021-08-14T06:39:56</time></trkpt><trkpt lat="55.8121720" lon="49.1446460"><time>2021-08-14T06:39:57</time></trkpt><trkpt lat="55.8121780" lon="49.1446350"><time>2021-08-14T06:39:58</time></trkpt><trkpt lat="55.8121860" lon="49.1446300"><time>2021-08-14T06:39:59</time></trkpt><trkpt lat="55.8121930" lon="49.1446090"><time>2021-08-14T06:40:00</time></trkpt><trkpt lat="55.8121840" lon="49.1445730"><time>2021-08-14T06:40:01</time></trkpt><trkpt lat="55.8121770" lon="49.1445570"><time>2021-08-14T06:40:02</time></trkpt><trkpt lat="55.8121700" lon="49.1445410"><time>2021-08-14T06:40:03</time></trkpt><trkpt lat="55.8121590" lon="49.1445200"><time>2021-08-14T06:40:04</time></trkpt><trkpt lat="55.8121470" lon="49.1445080"><time>2021-08-14T06:40:05</time></trkpt><trkpt lat="55.8121370" lon="49.1444950"><time>2021-08-14T06:40:06</time></trkpt><trkpt lat="55.8121210" lon="49.1444680"><time>2021-08-14T06:40:07</time></trkpt><trkpt lat="55.8121120" lon="49.1444500"><time>2021-08-14T06:40:08</time></trkpt><trkpt lat="55.8121010" lon="49.1444340"><time>2021-08-14T06:40:09</time></trkpt><trkpt lat="55.8120910" lon="49.1444140"><time>2021-08-14T06:40:10</time></trkpt><trkpt lat="55.8120820" lon="49.1443960"><time>2021-08-14T06:40:11</time></trkpt><trkpt lat="55.8120680" lon="49.1443760"><time>2021-08-14T06:40:12</time></trkpt><trkpt lat="55.8120580" lon="49.1443580"><time>2021-08-14T06:40:13</time></trkpt><trkpt lat="55.8120470" lon="49.1443390"><time>2021-08-14T06:40:14</time></trkpt><trkpt lat="55.8120370" lon="49.1443200"><time>2021-08-14T06:40:15</time></trkpt><trkpt lat="55.8120280" lon="49.1443010"><time>2021-08-14T06:40:16</time></trkpt><trkpt lat="55.8120140" lon="49.1442760"><time>2021-08-14T06:40:17</time></trkpt><trkpt lat="55.8120070" lon="49.1442560"><time>2021-08-14T06:40:18</time></trkpt><trkpt lat="55.8119940" lon="49.1442440"><time>2021-08-14T06:40:19</time></trkpt><trkpt lat="55.8119810" lon="49.1442290"><time>2021-08-14T06:40:20</time></trkpt><trkpt lat="55.8119680" lon="49.1442090"><time>2021-08-14T06:40:21</time></trkpt><trkpt lat="55.8119570" lon="49.1441900"><time>2021-08-14T06:40:22</time></trkpt><trkpt lat="55.8119440" lon="49.1441700"><time>2021-08-14T06:40:23</time></trkpt><trkpt lat="55.8119290" lon="49.1441590"><time>2021-08-14T06:40:24</time></trkpt><trkpt lat="55.8119190" lon="49.1441400"><time>2021-08-14T06:40:25</time></trkpt><trkpt lat="55.8119080" lon="49.1441250"><time>2021-08-14T06:40:26</time></trkpt><trkpt lat="55.8118910" lon="49.1441210"><time>2021-08-14T06:40:27</time></trkpt><trkpt lat="55.8118780" lon="49.1441100"><time>2021-08-14T06:40:28</time></trkpt><trkpt lat="55.8118620" lon="49.1441010"><time>2021-08-14T06:40:29</time></trkpt><trkpt lat="55.8118480" lon="49.1440870"><time>2021-08-14T06:40:30</time></trkpt><trkpt lat="55.8118320" lon="49.1440860"><time>2021-08-14T06:40:31</time></trkpt><trkpt lat="55.8118160" lon="49.1440780"><time>2021-08-14T06:40:32</time></trkpt><trkpt lat="55.8118020" lon="49.1440690"><time>2021-08-14T06:40:33</time></trkpt><trkpt lat="55.8117890" lon="49.1440560"><time>2021-08-14T06:40:34</time></trkpt><trkpt lat="55.8117750" lon="49.1440470"><time>2021-08-14T06:40:35</time></trkpt><trkpt lat="55.8117610" lon="49.1440360"><time>2021-08-14T06:40:36</time></trkpt><trkpt lat="55.8117460" lon="49.1440230"><time>2021-08-14T06:40:37</time></trkpt><trkpt lat="55.8117300" lon="49.1440100"><time>2021-08-14T06:40:38</time></trkpt><trkpt lat="55.8117130" lon="49.1439980"><time>2021-08-14T06:40:39</time></trkpt><trkpt lat="55.8117020" lon="49.1439790"><time>2021-08-14T06:40:40</time></trkpt><trkpt lat="55.8116850" lon="49.1439750"><time>2021-08-14T06:40:41</time></trkpt><trkpt lat="55.8116740" lon="49.1439630"><time>2021-08-14T06:40:42</time></trkpt><trkpt lat="55.8116600" lon="49.1439550"><time>2021-08-14T06:40:43</time></trkpt><trkpt lat="55.8116480" lon="49.1439360"><time>2021-08-14T06:40:44</time></trkpt><trkpt lat="55.8116330" lon="49.1439230"><time>2021-08-14T06:40:45</time></trkpt><trkpt lat="55.8116190" lon="49.1439100"><time>2021-08-14T06:40:46</time></trkpt><trkpt lat="55.8116060" lon="49.1439000"><time>2021-08-14T06:40:47</time></trkpt><trkpt lat="55.8115910" lon="49.1438940"><time>2021-08-14T06:40:48</time></trkpt><trkpt lat="55.8115750" lon="49.1438830"><time>2021-08-14T06:40:49</time></trkpt><trkpt lat="55.8115600" lon="49.1438730"><time>2021-08-14T06:40:50</time></trkpt><trkpt lat="55.8115470" lon="49.1438570"><time>2021-08-14T06:40:51</time></trkpt><trkpt lat="55.8115310" lon="49.1438440"><time>2021-08-14T06:40:52</time></trkpt><trkpt lat="55.8115160" lon="49.1438400"><time>2021-08-14T06:40:53</time></trkpt><trkpt lat="55.8115040" lon="49.1438280"><time>2021-08-14T06:40:54</time></trkpt><trkpt lat="55.8114910" lon="49.1438130"><time>2021-08-14T06:40:55</time></trkpt><trkpt lat="55.8114740" lon="49.1438070"><time>2021-08-14T06:40:56</time></trkpt><trkpt lat="55.8114580" lon="49.1438040"><time>2021-08-14T06:40:57</time></trkpt><trkpt lat="55.8114430" lon="49.1438000"><time>2021-08-14T06:40:58</time></trkpt><trkpt lat="55.8114290" lon="49.1437850"><time>2021-08-14T06:40:59</time></trkpt><trkpt lat="55.8114150" lon="49.1437730"><time>2021-08-14T06:41:00</time></trkpt><trkpt lat="55.8114040" lon="49.1437500"><time>2021-08-14T06:41:01</time></trkpt><trkpt lat="55.8113870" lon="49.1437400"><time>2021-08-14T06:41:02</time></trkpt><trkpt lat="55.8113720" lon="49.1437270"><time>2021-08-14T06:41:03</time></trkpt><trkpt lat="55.8113560" lon="49.1437200"><time>2021-08-14T06:41:04</time></trkpt><trkpt lat="55.8113420" lon="49.1437050"><time>2021-08-14T06:41:05</time></trkpt><trkpt lat="55.8113280" lon="49.1436880"><time>2021-08-14T06:41:06</time></trkpt><trkpt lat="55.8113130" lon="49.1436770"><time>2021-08-14T06:41:07</time></trkpt><trkpt lat="55.8112880" lon="49.1436560"><time>2021-08-14T06:41:08</time></trkpt><trkpt lat="55.8112800" lon="49.1436470"><time>2021-08-14T06:41:09</time></trkpt><trkpt lat="55.8112660" lon="49.1436370"><time>2021-08-14T06:41:10</time></trkpt><trkpt lat="55.8112530" lon="49.1436240"><time>2021-08-14T06:41:11</time></trkpt><trkpt lat="55.8112360" lon="49.1436240"><time>2021-08-14T06:41:12</time></trkpt><trkpt lat="55.8112210" lon="49.1436100"><time>2021-08-14T06:41:13</time></trkpt><trkpt lat="55.8112070" lon="49.1435980"><time>2021-08-14T06:41:14</time></trkpt><trkpt lat="55.8111930" lon="49.1435820"><time>2021-08-14T06:41:15</time></trkpt><trkpt lat="55.8111760" lon="49.1435830"><time>2021-08-14T06:41:16</time></trkpt><trkpt lat="55.8111630" lon="49.1435680"><time>2021-08-14T06:41:18</time></trkpt><trkpt lat="55.8111490" lon="49.1435540"><time>2021-08-14T06:41:19</time></trkpt><trkpt lat="55.8111360" lon="49.1435410"><time>2021-08-14T06:41:20</time></trkpt><trkpt lat="55.8111250" lon="49.1435200"><time>2021-08-14T06:41:21</time></trkpt><trkpt lat="55.8111100" lon="49.1435060"><time>2021-08-14T06:41:22</time></trkpt><trkpt lat="55.8110990" lon="49.1434880"><time>2021-08-14T06:41:23</time></trkpt><trkpt lat="55.8110860" lon="49.1434730"><time>2021-08-14T06:41:24</time></trkpt><trkpt lat="55.8110680" lon="49.1434620"><time>2021-08-14T06:41:25</time></trkpt><trkpt lat="55.8110580" lon="49.1434370"><time>2021-08-14T06:41:26</time></trkpt><trkpt lat="55.8110440" lon="49.1434170"><time>2021-08-14T06:41:27</time></trkpt><trkpt lat="55.8110270" lon="49.1434070"><time>2021-08-14T06:41:28</time></trkpt><trkpt lat="55.8110140" lon="49.1433930"><time>2021-08-14T06:41:29</time></trkpt><trkpt lat="55.8109890" lon="49.1433510"><time>2021-08-14T06:41:30</time></trkpt><trkpt lat="55.8109710" lon="49.1433450"><time>2021-08-14T06:41:31</time></trkpt><trkpt lat="55.8109590" lon="49.1433270"><time>2021-08-14T06:41:32</time></trkpt><trkpt lat="55.8109410" lon="49.1433160"><time>2021-08-14T06:41:33</time></trkpt><trkpt lat="55.8109300" lon="49.1432910"><time>2021-08-14T06:41:34</time></trkpt><trkpt lat="55.8109130" lon="49.1432900"><time>2021-08-14T06:41:35</time></trkpt><trkpt lat="55.8108970" lon="49.1432790"><time>2021-08-14T06:41:36</time></trkpt><trkpt lat="55.8108850" lon="49.1432550"><time>2021-08-14T06:41:37</time></trkpt><trkpt lat="55.8108710" lon="49.1432420"><time>2021-08-14T06:41:38</time></trkpt><trkpt lat="55.8108600" lon="49.1432200"><time>2021-08-14T06:41:39</time></trkpt><trkpt lat="55.8108510" lon="49.1431920"><time>2021-08-14T06:41:40</time></trkpt><trkpt lat="55.8108400" lon="49.1431730"><time>2021-08-14T06:41:41</time></trkpt><trkpt lat="55.8108230" lon="49.1431660"><time>2021-08-14T06:41:42</time></trkpt><trkpt lat="55.8108130" lon="49.1431450"><time>2021-08-14T06:41:43</time></trkpt><trkpt lat="55.8108040" lon="49.1431240"><time>2021-08-14T06:41:44</time></trkpt><trkpt lat="55.8107940" lon="49.1431040"><time>2021-08-14T06:41:45</time></trkpt><trkpt lat="55.8107870" lon="49.1430820"><time>2021-08-14T06:41:46</time></trkpt><trkpt lat="55.8107720" lon="49.1430630"><time>2021-08-14T06:41:47</time></trkpt><trkpt lat="55.8107560" lon="49.1430500"><time>2021-08-14T06:41:48</time></trkpt><trkpt lat="55.8107440" lon="49.1430330"><time>2021-08-14T06:41:49</time></trkpt><trkpt lat="55.8107320" lon="49.1430170"><time>2021-08-14T06:41:50</time></trkpt><trkpt lat="55.8107210" lon="49.1429960"><time>2021-08-14T06:41:51</time></trkpt><trkpt lat="55.8107080" lon="49.1429810"><time>2021-08-14T06:41:52</time></trkpt><trkpt lat="55.8106970" lon="49.1429650"><time>2021-08-14T06:41:53</time></trkpt><trkpt lat="55.8106880" lon="49.1429430"><time>2021-08-14T06:41:54</time></trkpt><trkpt lat="55.8106760" lon="49.1429210"><time>2021-08-14T06:41:55</time></trkpt><trkpt lat="55.8106650" lon="49.1429030"><time>2021-08-14T06:41:56</time></trkpt><trkpt lat="55.8106500" lon="49.1428850"><time>2021-08-14T06:41:57</time></trkpt><trkpt lat="55.8106420" lon="49.1428620"><time>2021-08-14T06:41:58</time></trkpt><trkpt lat="55.8106310" lon="49.1428400"><time>2021-08-14T06:41:59</time></trkpt><trkpt lat="55.8106170" lon="49.1428200"><time>2021-08-14T06:42:00</time></trkpt><trkpt lat="55.8106050" lon="49.1428030"><time>2021-08-14T06:42:01</time></trkpt><trkpt lat="55.8105920" lon="49.1427860"><time>2021-08-14T06:42:02</time></trkpt><trkpt lat="55.8105810" lon="49.1427670"><time>2021-08-14T06:42:03</time></trkpt><trkpt lat="55.8105710" lon="49.1427430"><time>2021-08-14T06:42:04</time></trkpt><trkpt lat="55.8105580" lon="49.1427260"><time>2021-08-14T06:42:05</time></trkpt><trkpt lat="55.8105440" lon="49.1427100"><time>2021-08-14T06:42:06</time></trkpt><trkpt lat="55.8105340" lon="49.1426850"><time>2021-08-14T06:42:07</time></trkpt><trkpt lat="55.8105250" lon="49.1426610"><time>2021-08-14T06:42:08</time></trkpt><trkpt lat="55.8105180" lon="49.1426320"><time>2021-08-14T06:42:09</time></trkpt><trkpt lat="55.8105110" lon="49.1426080"><time>2021-08-14T06:42:10</time></trkpt><trkpt lat="55.8104960" lon="49.1425910"><time>2021-08-14T06:42:11</time></trkpt><trkpt lat="55.8104820" lon="49.1425730"><time>2021-08-14T06:42:12</time></trkpt><trkpt lat="55.8104680" lon="49.1425520"><time>2021-08-14T06:42:13</time></trkpt><trkpt lat="55.8104430" lon="49.1425340"><time>2021-08-14T06:42:14</time></trkpt><trkpt lat="55.8104330" lon="49.1425310"><time>2021-08-14T06:42:15</time></trkpt><trkpt lat="55.8104170" lon="49.1424920"><time>2021-08-14T06:42:16</time></trkpt><trkpt lat="55.8104140" lon="49.1424740"><time>2021-08-14T06:42:17</time></trkpt><trkpt lat="55.8104060" lon="49.1424490"><time>2021-08-14T06:42:18</time></trkpt><trkpt lat="55.8103980" lon="49.1424220"><time>2021-08-14T06:42:19</time></trkpt><trkpt lat="55.8103880" lon="49.1424030"><time>2021-08-14T06:42:20</time></trkpt><trkpt lat="55.8103740" lon="49.1423860"><time>2021-08-14T06:42:21</time></trkpt><trkpt lat="55.8103620" lon="49.1423680"><time>2021-08-14T06:42:22</time></trkpt><trkpt lat="55.8103520" lon="49.1423470"><time>2021-08-14T06:42:23</time></trkpt><trkpt lat="55.8103390" lon="49.1423290"><time>2021-08-14T06:42:24</time></trkpt><trkpt lat="55.8103310" lon="49.1423080"><time>2021-08-14T06:42:25</time></trkpt><trkpt lat="55.8103190" lon="49.1422860"><time>2021-08-14T06:42:26</time></trkpt><trkpt lat="55.8103080" lon="49.1422640"><time>2021-08-14T06:42:27</time></trkpt><trkpt lat="55.8102970" lon="49.1422460"><time>2021-08-14T06:42:28</time></trkpt><trkpt lat="55.8102850" lon="49.1422310"><time>2021-08-14T06:42:29</time></trkpt><trkpt lat="55.8102800" lon="49.1422050"><time>2021-08-14T06:42:30</time></trkpt><trkpt lat="55.8102690" lon="49.1421820"><time>2021-08-14T06:42:31</time></trkpt><trkpt lat="55.8102530" lon="49.1421670"><time>2021-08-14T06:42:32</time></trkpt><trkpt lat="55.8102430" lon="49.1421410"><time>2021-08-14T06:42:33</time></trkpt><trkpt lat="55.8102290" lon="49.1421250"><time>2021-08-14T06:42:34</time></trkpt><trkpt lat="55.8102150" lon="49.1421100"><time>2021-08-14T06:42:35</time></trkpt><trkpt lat="55.8102030" lon="49.1420980"><time>2021-08-14T06:42:36</time></trkpt><trkpt lat="55.8101910" lon="49.1420780"><time>2021-08-14T06:42:37</time></trkpt><trkpt lat="55.8101790" lon="49.1420590"><time>2021-08-14T06:42:38</time></trkpt><trkpt lat="55.8101680" lon="49.1420420"><time>2021-08-14T06:42:39</time></trkpt><trkpt lat="55.8101540" lon="49.1420230"><time>2021-08-14T06:42:40</time></trkpt><trkpt lat="55.8101420" lon="49.1420020"><time>2021-08-14T06:42:41</time></trkpt><trkpt lat="55.8101280" lon="49.1419870"><time>2021-08-14T06:42:42</time></trkpt><trkpt lat="55.8101190" lon="49.1419630"><time>2021-08-14T06:42:43</time></trkpt><trkpt lat="55.8100910" lon="49.1419500"><time>2021-08-14T06:42:44</time></trkpt><trkpt lat="55.8100830" lon="49.1419420"><time>2021-08-14T06:42:45</time></trkpt><trkpt lat="55.8100730" lon="49.1419190"><time>2021-08-14T06:42:46</time></trkpt><trkpt lat="55.8100600" lon="49.1418990"><time>2021-08-14T06:42:47</time></trkpt><trkpt lat="55.8100490" lon="49.1418780"><time>2021-08-14T06:42:48</time></trkpt><trkpt lat="55.8100360" lon="49.1418610"><time>2021-08-14T06:42:49</time></trkpt><trkpt lat="55.8100210" lon="49.1418490"><time>2021-08-14T06:42:50</time></trkpt><trkpt lat="55.8100100" lon="49.1418300"><time>2021-08-14T06:42:51</time></trkpt><trkpt lat="55.8100020" lon="49.1418040"><time>2021-08-14T06:42:52</time></trkpt><trkpt lat="55.8099940" lon="49.1417770"><time>2021-08-14T06:42:53</time></trkpt><trkpt lat="55.8099810" lon="49.1417600"><time>2021-08-14T06:42:54</time></trkpt><trkpt lat="55.8099670" lon="49.1417440"><time>2021-08-14T06:42:55</time></trkpt><trkpt lat="55.8099540" lon="49.1417260"><time>2021-08-14T06:42:56</time></trkpt><trkpt lat="55.8099410" lon="49.1417100"><time>2021-08-14T06:42:57</time></trkpt><trkpt lat="55.8099300" lon="49.1416850"><time>2021-08-14T06:42:58</time></trkpt><trkpt lat="55.8099140" lon="49.1416700"><time>2021-08-14T06:42:59</time></trkpt><trkpt lat="55.8098920" lon="49.1416460"><time>2021-08-14T06:43:00</time></trkpt><trkpt lat="55.8098840" lon="49.1416360"><time>2021-08-14T06:43:01</time></trkpt><trkpt lat="55.8098710" lon="49.1416150"><time>2021-08-14T06:43:02</time></trkpt><trkpt lat="55.8098530" lon="49.1416070"><time>2021-08-14T06:43:03</time></trkpt><trkpt lat="55.8098400" lon="49.1415870"><time>2021-08-14T06:43:04</time></trkpt><trkpt lat="55.8098270" lon="49.1415660"><time>2021-08-14T06:43:05</time></trkpt><trkpt lat="55.8098150" lon="49.1415480"><time>2021-08-14T06:43:06</time></trkpt><trkpt lat="55.8098040" lon="49.1415310"><time>2021-08-14T06:43:07</time></trkpt><trkpt lat="55.8097820" lon="49.1415010"><time>2021-08-14T06:43:08</time></trkpt><trkpt lat="55.8097740" lon="49.1414900"><time>2021-08-14T06:43:09</time></trkpt><trkpt lat="55.8097640" lon="49.1414650"><time>2021-08-14T06:43:10</time></trkpt><trkpt lat="55.8097530" lon="49.1414460"><time>2021-08-14T06:43:11</time></trkpt><trkpt lat="55.8097410" lon="49.1414220"><time>2021-08-14T06:43:12</time></trkpt><trkpt lat="55.8097240" lon="49.1414140"><time>2021-08-14T06:43:13</time></trkpt><trkpt lat="55.8097100" lon="49.1414000"><time>2021-08-14T06:43:14</time></trkpt><trkpt lat="55.8096970" lon="49.1413820"><time>2021-08-14T06:43:15</time></trkpt><trkpt lat="55.8096830" lon="49.1413700"><time>2021-08-14T06:43:16</time></trkpt><trkpt lat="55.8096670" lon="49.1413570"><time>2021-08-14T06:43:17</time></trkpt><trkpt lat="55.8096530" lon="49.1413370"><time>2021-08-14T06:43:18</time></trkpt><trkpt lat="55.8096370" lon="49.1413210"><time>2021-08-14T06:43:19</time></trkpt><trkpt lat="55.8096230" lon="49.1413100"><time>2021-08-14T06:43:20</time></trkpt><trkpt lat="55.8096060" lon="49.1413010"><time>2021-08-14T06:43:21</time></trkpt><trkpt lat="55.8095920" lon="49.1412860"><time>2021-08-14T06:43:22</time></trkpt><trkpt lat="55.8095740" lon="49.1412820"><time>2021-08-14T06:43:23</time></trkpt><trkpt lat="55.8095610" lon="49.1412610"><time>2021-08-14T06:43:24</time></trkpt><trkpt lat="55.8095450" lon="49.1412560"><time>2021-08-14T06:43:25</time></trkpt><trkpt lat="55.8095310" lon="49.1412430"><time>2021-08-14T06:43:26</time></trkpt><trkpt lat="55.8095160" lon="49.1412310"><time>2021-08-14T06:43:27</time></trkpt><trkpt lat="55.8095010" lon="49.1412160"><time>2021-08-14T06:43:28</time></trkpt><trkpt lat="55.8094900" lon="49.1411960"><time>2021-08-14T06:43:29</time></trkpt><trkpt lat="55.8094720" lon="49.1411850"><time>2021-08-14T06:43:30</time></trkpt><trkpt lat="55.8094580" lon="49.1411700"><time>2021-08-14T06:43:31</time></trkpt><trkpt lat="55.8094290" lon="49.1411720"><time>2021-08-14T06:43:32</time></trkpt><trkpt lat="55.8094210" lon="49.1411670"><time>2021-08-14T06:43:33</time></trkpt><trkpt lat="55.8094060" lon="49.1411640"><time>2021-08-14T06:43:34</time></trkpt><trkpt lat="55.8093900" lon="49.1411490"><time>2021-08-14T06:43:35</time></trkpt><trkpt lat="55.8093710" lon="49.1411460"><time>2021-08-14T06:43:36</time></trkpt><trkpt lat="55.8093570" lon="49.1411250"><time>2021-08-14T06:43:37</time></trkpt><trkpt lat="55.8093390" lon="49.1411190"><time>2021-08-14T06:43:38</time></trkpt><trkpt lat="55.8093220" lon="49.1411160"><time>2021-08-14T06:43:39</time></trkpt><trkpt lat="55.8093050" lon="49.1411060"><time>2021-08-14T06:43:40</time></trkpt><trkpt lat="55.8092870" lon="49.1410970"><time>2021-08-14T06:43:41</time></trkpt><trkpt lat="55.8092720" lon="49.1410850"><time>2021-08-14T06:43:42</time></trkpt><trkpt lat="55.8092530" lon="49.1410860"><time>2021-08-14T06:43:43</time></trkpt><trkpt lat="55.8092350" lon="49.1410830"><time>2021-08-14T06:43:44</time></trkpt><trkpt lat="55.8092190" lon="49.1410720"><time>2021-08-14T06:43:45</time></trkpt><trkpt lat="55.8091910" lon="49.1410840"><time>2021-08-14T06:43:46</time></trkpt><trkpt lat="55.8091820" lon="49.1410890"><time>2021-08-14T06:43:47</time></trkpt><trkpt lat="55.8091550" lon="49.1411010"><time>2021-08-14T06:43:48</time></trkpt><trkpt lat="55.8091460" lon="49.1411040"><time>2021-08-14T06:43:49</time></trkpt><trkpt lat="55.8091300" lon="49.1411070"><time>2021-08-14T06:43:50</time></trkpt><trkpt lat="55.8091140" lon="49.1411200"><time>2021-08-14T06:43:51</time></trkpt><trkpt lat="55.8091010" lon="49.1411340"><time>2021-08-14T06:43:52</time></trkpt><trkpt lat="55.8090820" lon="49.1411290"><time>2021-08-14T06:43:53</time></trkpt><trkpt lat="55.8090650" lon="49.1411400"><time>2021-08-14T06:43:54</time></trkpt><trkpt lat="55.8090490" lon="49.1411430"><time>2021-08-14T06:43:55</time></trkpt><trkpt lat="55.8090310" lon="49.1411500"><time>2021-08-14T06:43:56</time></trkpt><trkpt lat="55.8090130" lon="49.1411540"><time>2021-08-14T06:43:57</time></trkpt><trkpt lat="55.8089960" lon="49.1411530"><time>2021-08-14T06:43:58</time></trkpt><trkpt lat="55.8089800" lon="49.1411750"><time>2021-08-14T06:43:59</time></trkpt><trkpt lat="55.8089630" lon="49.1411800"><time>2021-08-14T06:44:00</time></trkpt><trkpt lat="55.8089440" lon="49.1411800"><time>2021-08-14T06:44:01</time></trkpt><trkpt lat="55.8089160" lon="49.1411880"><time>2021-08-14T06:44:02</time></trkpt><trkpt lat="55.8089080" lon="49.1411890"><time>2021-08-14T06:44:03</time></trkpt><trkpt lat="55.8088910" lon="49.1411970"><time>2021-08-14T06:44:04</time></trkpt><trkpt lat="55.8088730" lon="49.1412000"><time>2021-08-14T06:44:05</time></trkpt><trkpt lat="55.8088570" lon="49.1411980"><time>2021-08-14T06:44:06</time></trkpt><trkpt lat="55.8088410" lon="49.1412140"><time>2021-08-14T06:44:07</time></trkpt><trkpt lat="55.8088250" lon="49.1412310"><time>2021-08-14T06:44:08</time></trkpt><trkpt lat="55.8088110" lon="49.1412470"><time>2021-08-14T06:44:09</time></trkpt><trkpt lat="55.8087960" lon="49.1412590"><time>2021-08-14T06:44:10</time></trkpt><trkpt lat="55.8087800" lon="49.1412650"><time>2021-08-14T06:44:11</time></trkpt><trkpt lat="55.8087630" lon="49.1412680"><time>2021-08-14T06:44:12</time></trkpt><trkpt lat="55.8087470" lon="49.1412750"><time>2021-08-14T06:44:13</time></trkpt><trkpt lat="55.8087300" lon="49.1412710"><time>2021-08-14T06:44:14</time></trkpt><trkpt lat="55.8087140" lon="49.1412750"><time>2021-08-14T06:44:15</time></trkpt><trkpt lat="55.8086990" lon="49.1412850"><time>2021-08-14T06:44:16</time></trkpt><trkpt lat="55.8086820" lon="49.1412960"><time>2021-08-14T06:44:17</time></trkpt><trkpt lat="55.8086660" lon="49.1413040"><time>2021-08-14T06:44:18</time></trkpt><trkpt lat="55.8086500" lon="49.1413200"><time>2021-08-14T06:44:19</time></trkpt><trkpt lat="55.8086330" lon="49.1413330"><time>2021-08-14T06:44:20</time></trkpt><trkpt lat="55.8086170" lon="49.1413420"><time>2021-08-14T06:44:21</time></trkpt><trkpt lat="55.8086010" lon="49.1413530"><time>2021-08-14T06:44:22</time></trkpt><trkpt lat="55.8085830" lon="49.1413600"><time>2021-08-14T06:44:23</time></trkpt><trkpt lat="55.8085690" lon="49.1413720"><time>2021-08-14T06:44:24</time></trkpt><trkpt lat="55.8085520" lon="49.1413870"><time>2021-08-14T06:44:25</time></trkpt><trkpt lat="55.8085380" lon="49.1414090"><time>2021-08-14T06:44:26</time></trkpt><trkpt lat="55.8085280" lon="49.1414330"><time>2021-08-14T06:44:27</time></trkpt><trkpt lat="55.8085110" lon="49.1414440"><time>2021-08-14T06:44:28</time></trkpt><trkpt lat="55.8084930" lon="49.1414470"><time>2021-08-14T06:44:29</time></trkpt><trkpt lat="55.8084740" lon="49.1414460"><time>2021-08-14T06:44:30</time></trkpt><trkpt lat="55.8084580" lon="49.1414530"><time>2021-08-14T06:44:31</time></trkpt><trkpt lat="55.8084420" lon="49.1414710"><time>2021-08-14T06:44:32</time></trkpt><trkpt lat="55.8084280" lon="49.1414840"><time>2021-08-14T06:44:33</time></trkpt><trkpt lat="55.8084110" lon="49.1414940"><time>2021-08-14T06:44:34</time></trkpt><trkpt lat="55.8083980" lon="49.1415130"><time>2021-08-14T06:44:35</time></trkpt><trkpt lat="55.8083840" lon="49.1415350"><time>2021-08-14T06:44:36</time></trkpt><trkpt lat="55.8083690" lon="49.1415450"><time>2021-08-14T06:44:37</time></trkpt><trkpt lat="55.8083440" lon="49.1415670"><time>2021-08-14T06:44:38</time></trkpt><trkpt lat="55.8083360" lon="49.1415750"><time>2021-08-14T06:44:39</time></trkpt><trkpt lat="55.8083170" lon="49.1415890"><time>2021-08-14T06:44:40</time></trkpt><trkpt lat="55.8083060" lon="49.1416020"><time>2021-08-14T06:44:41</time></trkpt><trkpt lat="55.8082900" lon="49.1416110"><time>2021-08-14T06:44:42</time></trkpt><trkpt lat="55.8082750" lon="49.1416270"><time>2021-08-14T06:44:43</time></trkpt><trkpt lat="55.8082590" lon="49.1416490"><time>2021-08-14T06:44:44</time></trkpt><trkpt lat="55.8082460" lon="49.1416620"><time>2021-08-14T06:44:45</time></trkpt><trkpt lat="55.8082330" lon="49.1416820"><time>2021-08-14T06:44:46</time></trkpt><trkpt lat="55.8082210" lon="49.1416970"><time>2021-08-14T06:44:47</time></trkpt><trkpt lat="55.8082070" lon="49.1417080"><time>2021-08-14T06:44:48</time></trkpt><trkpt lat="55.8081910" lon="49.1417130"><time>2021-08-14T06:44:49</time></trkpt><trkpt lat="55.8081740" lon="49.1417290"><time>2021-08-14T06:44:50</time></trkpt><trkpt lat="55.8081600" lon="49.1417360"><time>2021-08-14T06:44:51</time></trkpt><trkpt lat="55.8081440" lon="49.1417380"><time>2021-08-14T06:44:52</time></trkpt><trkpt lat="55.8081290" lon="49.1417290"><time>2021-08-14T06:44:53</time></trkpt><trkpt lat="55.8081160" lon="49.1417100"><time>2021-08-14T06:44:54</time></trkpt><trkpt lat="55.8081080" lon="49.1416910"><time>2021-08-14T06:44:55</time></trkpt><trkpt lat="55.8080990" lon="49.1416610"><time>2021-08-14T06:44:56</time></trkpt><trkpt lat="55.8080940" lon="49.1416470"><time>2021-08-14T06:44:57</time></trkpt><trkpt lat="55.8080880" lon="49.1416340"><time>2021-08-14T06:44:58</time></trkpt><trkpt lat="55.8080700" lon="49.1416070"><time>2021-08-14T06:44:59</time></trkpt><trkpt lat="55.8080630" lon="49.1415970"><time>2021-08-14T06:45:00</time></trkpt><trkpt lat="55.8080570" lon="49.1415860"><time>2021-08-14T06:45:01</time></trkpt><trkpt lat="55.8080430" lon="49.1415550"><time>2021-08-14T06:45:02</time></trkpt><trkpt lat="55.8080400" lon="49.1415430"><time>2021-08-14T06:45:03</time></trkpt><trkpt lat="55.8080360" lon="49.1415310"><time>2021-08-14T06:45:04</time></trkpt><trkpt lat="55.8080390" lon="49.1415010"><time>2021-08-14T06:45:05</time></trkpt><trkpt lat="55.8080450" lon="49.1414830"><time>2021-08-14T06:45:06</time></trkpt><trkpt lat="55.8080520" lon="49.1414660"><time>2021-08-14T06:45:07</time></trkpt><trkpt lat="55.8080620" lon="49.1414510"><time>2021-08-14T06:45:08</time></trkpt><trkpt lat="55.8080820" lon="49.1414380"><time>2021-08-14T06:45:09</time></trkpt><trkpt lat="55.8080920" lon="49.1413950"><time>2021-08-14T06:45:10</time></trkpt><trkpt lat="55.8080920" lon="49.1413750"><time>2021-08-14T06:45:11</time></trkpt><trkpt lat="55.8081000" lon="49.1413540"><time>2021-08-14T06:45:12</time></trkpt><trkpt lat="55.8081030" lon="49.1413250"><time>2021-08-14T06:45:13</time></trkpt><trkpt lat="55.8080970" lon="49.1412770"><time>2021-08-14T06:45:14</time></trkpt><trkpt lat="55.8080940" lon="49.1412610"><time>2021-08-14T06:45:15</time></trkpt><trkpt lat="55.8080830" lon="49.1412360"><time>2021-08-14T06:45:16</time></trkpt><trkpt lat="55.8080820" lon="49.1412090"><time>2021-08-14T06:45:18</time></trkpt><trkpt lat="55.8080710" lon="49.1411900"><time>2021-08-14T06:45:19</time></trkpt><trkpt lat="55.8080560" lon="49.1411700"><time>2021-08-14T06:45:20</time></trkpt><trkpt lat="55.8080310" lon="49.1411420"><time>2021-08-14T06:45:21</time></trkpt><trkpt lat="55.8080220" lon="49.1411350"><time>2021-08-14T06:45:22</time></trkpt><trkpt lat="55.8080150" lon="49.1411060"><time>2021-08-14T06:45:23</time></trkpt><trkpt lat="55.8080050" lon="49.1410890"><time>2021-08-14T06:45:24</time></trkpt><trkpt lat="55.8079970" lon="49.1410550"><time>2021-08-14T06:45:25</time></trkpt><trkpt lat="55.8080000" lon="49.1410380"><time>2021-08-14T06:45:26</time></trkpt><trkpt lat="55.8080030" lon="49.1410220"><time>2021-08-14T06:45:27</time></trkpt><trkpt lat="55.8080140" lon="49.1410000"><time>2021-08-14T06:45:28</time></trkpt><trkpt lat="55.8080260" lon="49.1409810"><time>2021-08-14T06:45:29</time></trkpt><trkpt lat="55.8080380" lon="49.1409580"><time>2021-08-14T06:45:30</time></trkpt><trkpt lat="55.8080460" lon="49.1409330"><time>2021-08-14T06:45:31</time></trkpt><trkpt lat="55.8080490" lon="49.1409050"><time>2021-08-14T06:45:32</time></trkpt><trkpt lat="55.8080570" lon="49.1408820"><time>2021-08-14T06:45:33</time></trkpt><trkpt lat="55.8080600" lon="49.1408540"><time>2021-08-14T06:45:34</time></trkpt><trkpt lat="55.8080690" lon="49.1408340"><time>2021-08-14T06:45:35</time></trkpt><trkpt lat="55.8080790" lon="49.1408130"><time>2021-08-14T06:45:36</time></trkpt><trkpt lat="55.8080890" lon="49.1407930"><time>2021-08-14T06:45:37</time></trkpt><trkpt lat="55.8080960" lon="49.1407730"><time>2021-08-14T06:45:38</time></trkpt><trkpt lat="55.8081040" lon="49.1407460"><time>2021-08-14T06:45:39</time></trkpt><trkpt lat="55.8081110" lon="49.1407230"><time>2021-08-14T06:45:40</time></trkpt><trkpt lat="55.8081180" lon="49.1406970"><time>2021-08-14T06:45:41</time></trkpt><trkpt lat="55.8081250" lon="49.1406720"><time>2021-08-14T06:45:42</time></trkpt><trkpt lat="55.8081310" lon="49.1406490"><time>2021-08-14T06:45:43</time></trkpt><trkpt lat="55.8081340" lon="49.1406180"><time>2021-08-14T06:45:44</time></trkpt><trkpt lat="55.8081430" lon="49.1405950"><time>2021-08-14T06:45:45</time></trkpt><trkpt lat="55.8081480" lon="49.1405670"><time>2021-08-14T06:45:46</time></trkpt><trkpt lat="55.8081530" lon="49.1405390"><time>2021-08-14T06:45:47</time></trkpt><trkpt lat="55.8081570" lon="49.1405110"><time>2021-08-14T06:45:48</time></trkpt><trkpt lat="55.8081630" lon="49.1404850"><time>2021-08-14T06:45:49</time></trkpt><trkpt lat="55.8081720" lon="49.1404640"><time>2021-08-14T06:45:50</time></trkpt><trkpt lat="55.8081750" lon="49.1404360"><time>2021-08-14T06:45:51</time></trkpt><trkpt lat="55.8081840" lon="49.1404050"><time>2021-08-14T06:45:52</time></trkpt><trkpt lat="55.8081870" lon="49.1403790"><time>2021-08-14T06:45:53</time></trkpt><trkpt lat="55.8082070" lon="49.1403390"><time>2021-08-14T06:45:54</time></trkpt><trkpt lat="55.8082110" lon="49.1403260"><time>2021-08-14T06:45:55</time></trkpt><trkpt lat="55.8082160" lon="49.1402980"><time>2021-08-14T06:45:56</time></trkpt><trkpt lat="55.8082200" lon="49.1402740"><time>2021-08-14T06:45:57</time></trkpt><trkpt lat="55.8082310" lon="49.1402550"><time>2021-08-14T06:45:58</time></trkpt><trkpt lat="55.8082410" lon="49.1402320"><time>2021-08-14T06:45:59</time></trkpt><trkpt lat="55.8082530" lon="49.1402130"><time>2021-08-14T06:46:00</time></trkpt><trkpt lat="55.8082660" lon="49.1401920"><time>2021-08-14T06:46:01</time></trkpt><trkpt lat="55.8082700" lon="49.1401690"><time>2021-08-14T06:46:02</time></trkpt><trkpt lat="55.8082760" lon="49.1401420"><time>2021-08-14T06:46:03</time></trkpt><trkpt lat="55.8082840" lon="49.1401160"><time>2021-08-14T06:46:04</time></trkpt><trkpt lat="55.8082900" lon="49.1400930"><time>2021-08-14T06:46:05</time></trkpt><trkpt lat="55.8082940" lon="49.1400650"><time>2021-08-14T06:46:06</time></trkpt><trkpt lat="55.8082970" lon="49.1400420"><time>2021-08-14T06:46:07</time></trkpt><trkpt lat="55.8083050" lon="49.1400150"><time>2021-08-14T06:46:08</time></trkpt><trkpt lat="55.8083090" lon="49.1399890"><time>2021-08-14T06:46:09</time></trkpt><trkpt lat="55.8083160" lon="49.1399600"><time>2021-08-14T06:46:10</time></trkpt><trkpt lat="55.8083300" lon="49.1399390"><time>2021-08-14T06:46:11</time></trkpt><trkpt lat="55.8083340" lon="49.1399070"><time>2021-08-14T06:46:12</time></trkpt><trkpt lat="55.8083480" lon="49.1398880"><time>2021-08-14T06:46:13</time></trkpt><trkpt lat="55.8083640" lon="49.1398480"><time>2021-08-14T06:46:14</time></trkpt><trkpt lat="55.8083660" lon="49.1398330"><time>2021-08-14T06:46:15</time></trkpt><trkpt lat="55.8083730" lon="49.1398040"><time>2021-08-14T06:46:16</time></trkpt><trkpt lat="55.8083750" lon="49.1397760"><time>2021-08-14T06:46:17</time></trkpt><trkpt lat="55.8083870" lon="49.1397530"><time>2021-08-14T06:46:18</time></trkpt><trkpt lat="55.8083970" lon="49.1397280"><time>2021-08-14T06:46:19</time></trkpt><trkpt lat="55.8084050" lon="49.1397060"><time>2021-08-14T06:46:20</time></trkpt><trkpt lat="55.8084070" lon="49.1396770"><time>2021-08-14T06:46:21</time></trkpt><trkpt lat="55.8084120" lon="49.1396490"><time>2021-08-14T06:46:22</time></trkpt><trkpt lat="55.8084170" lon="49.1396230"><time>2021-08-14T06:46:23</time></trkpt><trkpt lat="55.8084240" lon="49.1395970"><time>2021-08-14T06:46:24</time></trkpt><trkpt lat="55.8084330" lon="49.1395710"><time>2021-08-14T06:46:25</time></trkpt><trkpt lat="55.8084430" lon="49.1395490"><time>2021-08-14T06:46:26</time></trkpt><trkpt lat="55.8084450" lon="49.1395210"><time>2021-08-14T06:46:27</time></trkpt><trkpt lat="55.8084520" lon="49.1394970"><time>2021-08-14T06:46:28</time></trkpt><trkpt lat="55.8084560" lon="49.1394700"><time>2021-08-14T06:46:29</time></trkpt><trkpt lat="55.8084600" lon="49.1394460"><time>2021-08-14T06:46:30</time></trkpt><trkpt lat="55.8084720" lon="49.1394220"><time>2021-08-14T06:46:31</time></trkpt><trkpt lat="55.8084880" lon="49.1394040"><time>2021-08-14T06:46:32</time></trkpt><trkpt lat="55.8084960" lon="49.1393780"><time>2021-08-14T06:46:33</time></trkpt><trkpt lat="55.8084990" lon="49.1393490"><time>2021-08-14T06:46:34</time></trkpt><trkpt lat="55.8085050" lon="49.1393200"><time>2021-08-14T06:46:35</time></trkpt><trkpt lat="55.8085130" lon="49.1392940"><time>2021-08-14T06:46:36</time></trkpt><trkpt lat="55.8085200" lon="49.1392620"><time>2021-08-14T06:46:37</time></trkpt><trkpt lat="55.8085280" lon="49.1392370"><time>2021-08-14T06:46:38</time></trkpt><trkpt lat="55.8085410" lon="49.1392170"><time>2021-08-14T06:46:39</time></trkpt><trkpt lat="55.8085520" lon="49.1391920"><time>2021-08-14T06:46:40</time></trkpt><trkpt lat="55.8085610" lon="49.1391650"><time>2021-08-14T06:46:41</time></trkpt><trkpt lat="55.8085690" lon="49.1391450"><time>2021-08-14T06:46:42</time></trkpt><trkpt lat="55.8085740" lon="49.1391190"><time>2021-08-14T06:46:43</time></trkpt><trkpt lat="55.8085810" lon="49.1390970"><time>2021-08-14T06:46:44</time></trkpt><trkpt lat="55.8085920" lon="49.1390700"><time>2021-08-14T06:46:45</time></trkpt><trkpt lat="55.8086020" lon="49.1390500"><time>2021-08-14T06:46:46</time></trkpt><trkpt lat="55.8086090" lon="49.1390240"><time>2021-08-14T06:46:47</time></trkpt><trkpt lat="55.8086130" lon="49.1389960"><time>2021-08-14T06:46:48</time></trkpt><trkpt lat="55.8086330" lon="49.1389530"><time>2021-08-14T06:46:49</time></trkpt><trkpt lat="55.8086390" lon="49.1389270"><time>2021-08-14T06:46:50</time></trkpt><trkpt lat="55.8086470" lon="49.1389020"><time>2021-08-14T06:46:51</time></trkpt><trkpt lat="55.8086430" lon="49.1388710"><time>2021-08-14T06:46:52</time></trkpt><trkpt lat="55.8086480" lon="49.1388470"><time>2021-08-14T06:46:53</time></trkpt><trkpt lat="55.8086550" lon="49.1388230"><time>2021-08-14T06:46:54</time></trkpt><trkpt lat="55.8086740" lon="49.1388050"><time>2021-08-14T06:46:55</time></trkpt><trkpt lat="55.8086850" lon="49.1387840"><time>2021-08-14T06:46:56</time></trkpt><trkpt lat="55.8086980" lon="49.1387720"><time>2021-08-14T06:46:57</time></trkpt><trkpt lat="55.8087070" lon="49.1387480"><time>2021-08-14T06:46:58</time></trkpt><trkpt lat="55.8087140" lon="49.1387190"><time>2021-08-14T06:46:59</time></trkpt><trkpt lat="55.8087170" lon="49.1386910"><time>2021-08-14T06:47:00</time></trkpt><trkpt lat="55.8087290" lon="49.1386730"><time>2021-08-14T06:47:01</time></trkpt><trkpt lat="55.8087350" lon="49.1386510"><time>2021-08-14T06:47:02</time></trkpt><trkpt lat="55.8087440" lon="49.1386300"><time>2021-08-14T06:47:03</time></trkpt><trkpt lat="55.8087530" lon="49.1386040"><time>2021-08-14T06:47:04</time></trkpt><trkpt lat="55.8087580" lon="49.1385790"><time>2021-08-14T06:47:05</time></trkpt><trkpt lat="55.8087690" lon="49.1385550"><time>2021-08-14T06:47:06</time></trkpt><trkpt lat="55.8087760" lon="49.1385300"><time>2021-08-14T06:47:07</time></trkpt><trkpt lat="55.8087820" lon="49.1385030"><time>2021-08-14T06:47:08</time></trkpt><trkpt lat="55.8087930" lon="49.1384820"><time>2021-08-14T06:47:09</time></trkpt><trkpt lat="55.8088060" lon="49.1384600"><time>2021-08-14T06:47:10</time></trkpt><trkpt lat="55.8088200" lon="49.1384280"><time>2021-08-14T06:47:11</time></trkpt><trkpt lat="55.8088260" lon="49.1384140"><time>2021-08-14T06:47:12</time></trkpt><trkpt lat="55.8088310" lon="49.1384000"><time>2021-08-14T06:47:13</time></trkpt><trkpt lat="55.8088350" lon="49.1383680"><time>2021-08-14T06:47:14</time></trkpt><trkpt lat="55.8088410" lon="49.1383460"><time>2021-08-14T06:47:15</time></trkpt><trkpt lat="55.8088530" lon="49.1383250"><time>2021-08-14T06:47:16</time></trkpt><trkpt lat="55.8088630" lon="49.1383070"><time>2021-08-14T06:47:17</time></trkpt><trkpt lat="55.8088720" lon="49.1382860"><time>2021-08-14T06:47:18</time></trkpt><trkpt lat="55.8088830" lon="49.1382670"><time>2021-08-14T06:47:19</time></trkpt><trkpt lat="55.8088880" lon="49.1382350"><time>2021-08-14T06:47:20</time></trkpt><trkpt lat="55.8088990" lon="49.1382150"><time>2021-08-14T06:47:21</time></trkpt><trkpt lat="55.8089010" lon="49.1381870"><time>2021-08-14T06:47:23</time></trkpt><trkpt lat="55.8088920" lon="49.1381640"><time>2021-08-14T06:47:24</time></trkpt><trkpt lat="55.8088610" lon="49.1381570"><time>2021-08-14T06:47:25</time></trkpt><trkpt lat="55.8088500" lon="49.1381580"><time>2021-08-14T06:47:26</time></trkpt><trkpt lat="55.8088380" lon="49.1381560"><time>2021-08-14T06:47:27</time></trkpt><trkpt lat="55.8088270" lon="49.1381480"><time>2021-08-14T06:47:28</time></trkpt><trkpt lat="55.8088190" lon="49.1381390"><time>2021-08-14T06:47:29</time></trkpt><trkpt lat="55.8088070" lon="49.1381340"><time>2021-08-14T06:47:30</time></trkpt><trkpt lat="55.8087990" lon="49.1381220"><time>2021-08-14T06:47:31</time></trkpt><trkpt lat="55.8087980" lon="49.1380910"><time>2021-08-14T06:47:32</time></trkpt><trkpt lat="55.8087840" lon="49.1381210"><time>2021-08-14T06:47:33</time></trkpt><trkpt lat="55.8087830" lon="49.1381260"><time>2021-08-14T06:47:34</time></trkpt><trkpt lat="55.8087820" lon="49.1381310"><time>2021-08-14T06:47:35</time></trkpt><trkpt lat="55.8087810" lon="49.1381360"><time>2021-08-14T06:47:36</time></trkpt><trkpt lat="55.8087790" lon="49.1381400"><time>2021-08-14T06:47:37</time></trkpt><trkpt lat="55.8087780" lon="49.1381450"><time>2021-08-14T06:47:38</time></trkpt><trkpt lat="55.8087770" lon="49.1381500"><time>2021-08-14T06:47:39</time></trkpt><trkpt lat="55.8087760" lon="49.1381550"><time>2021-08-14T06:47:40</time></trkpt><trkpt lat="55.8087750" lon="49.1381600"><time>2021-08-14T06:47:41</time></trkpt><trkpt lat="55.8087610" lon="49.1381690"><time>2021-08-14T06:47:42</time></trkpt><trkpt lat="55.8087530" lon="49.1381870"><time>2021-08-14T06:47:43</time></trkpt><trkpt lat="55.8087420" lon="49.1382150"><time>2021-08-14T06:47:44</time></trkpt><trkpt lat="55.8087390" lon="49.1382250"><time>2021-08-14T06:47:45</time></trkpt><trkpt lat="55.8087360" lon="49.1382350"><time>2021-08-14T06:47:46</time></trkpt><trkpt lat="55.8087330" lon="49.1382450"><time>2021-08-14T06:47:47</time></trkpt><trkpt lat="55.8087210" lon="49.1382760"><time>2021-08-14T06:47:48</time></trkpt><trkpt lat="55.8087160" lon="49.1382900"><time>2021-08-14T06:47:49</time></trkpt><trkpt lat="55.8087100" lon="49.1383030"><time>2021-08-14T06:47:50</time></trkpt><trkpt lat="55.8086990" lon="49.1383290"><time>2021-08-14T06:47:51</time></trkpt><trkpt lat="55.8086970" lon="49.1383550"><time>2021-08-14T06:47:52</time></trkpt><trkpt lat="55.8086940" lon="49.1383800"><time>2021-08-14T06:47:53</time></trkpt><trkpt lat="55.8086850" lon="49.1384010"><time>2021-08-14T06:47:54</time></trkpt><trkpt lat="55.8086770" lon="49.1384200"><time>2021-08-14T06:47:55</time></trkpt><trkpt lat="55.8086770" lon="49.1384220"><time>2021-08-14T06:47:56</time></trkpt><trkpt lat="55.8086760" lon="49.1384250"><time>2021-08-14T06:47:57</time></trkpt><trkpt lat="55.8086760" lon="49.1384270"><time>2021-08-14T06:47:58</time></trkpt><trkpt lat="55.8086750" lon="49.1384300"><time>2021-08-14T06:47:59</time></trkpt><trkpt lat="55.8086740" lon="49.1384330"><time>2021-08-14T06:48:00</time></trkpt><trkpt lat="55.8086740" lon="49.1384350"><time>2021-08-14T06:48:01</time></trkpt><trkpt lat="55.8086730" lon="49.1384380"><time>2021-08-14T06:48:02</time></trkpt><trkpt lat="55.8086720" lon="49.1384410"><time>2021-08-14T06:48:03</time></trkpt><trkpt lat="55.8086720" lon="49.1384430"><time>2021-08-14T06:48:04</time></trkpt><trkpt lat="55.8086710" lon="49.1384460"><time>2021-08-14T06:48:05</time></trkpt><trkpt lat="55.8086710" lon="49.1384480"><time>2021-08-14T06:48:06</time></trkpt><trkpt lat="55.8086700" lon="49.1384510"><time>2021-08-14T06:48:07</time></trkpt><trkpt lat="55.8086690" lon="49.1384540"><time>2021-08-14T06:48:08</time></trkpt><trkpt lat="55.8086690" lon="49.1384560"><time>2021-08-14T06:48:09</time></trkpt><trkpt lat="55.8086680" lon="49.1384590"><time>2021-08-14T06:48:10</time></trkpt><trkpt lat="55.8086670" lon="49.1384620"><time>2021-08-14T06:48:11</time></trkpt><trkpt lat="55.8086670" lon="49.1384640"><time>2021-08-14T06:48:12</time></trkpt><trkpt lat="55.8086660" lon="49.1384670"><time>2021-08-14T06:48:13</time></trkpt><trkpt lat="55.8086660" lon="49.1384690"><time>2021-08-14T06:48:14</time></trkpt><trkpt lat="55.8086650" lon="49.1384720"><time>2021-08-14T06:48:15</time></trkpt><trkpt lat="55.8086560" lon="49.1384960"><time>2021-08-14T06:48:16</time></trkpt><trkpt lat="55.8086480" lon="49.1385220"><time>2021-08-14T06:48:17</time></trkpt><trkpt lat="55.8086380" lon="49.1385520"><time>2021-08-14T06:48:18</time></trkpt><trkpt lat="55.8086310" lon="49.1385770"><time>2021-08-14T06:48:19</time></trkpt><trkpt lat="55.8086210" lon="49.1386020"><time>2021-08-14T06:48:20</time></trkpt><trkpt lat="55.8086130" lon="49.1386260"><time>2021-08-14T06:48:21</time></trkpt><trkpt lat="55.8086010" lon="49.1386530"><time>2021-08-14T06:48:22</time></trkpt><trkpt lat="55.8085920" lon="49.1386720"><time>2021-08-14T06:48:23</time></trkpt><trkpt lat="55.8085670" lon="49.1387180"><time>2021-08-14T06:48:24</time></trkpt><trkpt lat="55.8085660" lon="49.1387450"><time>2021-08-14T06:48:25</time></trkpt><trkpt lat="55.8085590" lon="49.1387630"><time>2021-08-14T06:48:26</time></trkpt><trkpt lat="55.8085520" lon="49.1387800"><time>2021-08-14T06:48:27</time></trkpt><trkpt lat="55.8085440" lon="49.1388050"><time>2021-08-14T06:48:28</time></trkpt><trkpt lat="55.8085460" lon="49.1388360"><time>2021-08-14T06:48:29</time></trkpt><trkpt lat="55.8085270" lon="49.1388760"><time>2021-08-14T06:48:30</time></trkpt><trkpt lat="55.8085200" lon="49.1388860"><time>2021-08-14T06:48:31</time></trkpt><trkpt lat="55.8085090" lon="49.1389080"><time>2021-08-14T06:48:32</time></trkpt><trkpt lat="55.8084990" lon="49.1389320"><time>2021-08-14T06:48:33</time></trkpt><trkpt lat="55.8084900" lon="49.1389530"><time>2021-08-14T06:48:34</time></trkpt><trkpt lat="55.8084840" lon="49.1389850"><time>2021-08-14T06:48:35</time></trkpt><trkpt lat="55.8084730" lon="49.1390090"><time>2021-08-14T06:48:36</time></trkpt><trkpt lat="55.8084640" lon="49.1390350"><time>2021-08-14T06:48:37</time></trkpt><trkpt lat="55.8084510" lon="49.1390560"><time>2021-08-14T06:48:38</time></trkpt><trkpt lat="55.8084430" lon="49.1390790"><time>2021-08-14T06:48:39</time></trkpt><trkpt lat="55.8084320" lon="49.1390990"><time>2021-08-14T06:48:40</time></trkpt><trkpt lat="55.8084270" lon="49.1391320"><time>2021-08-14T06:48:41</time></trkpt><trkpt lat="55.8084190" lon="49.1391560"><time>2021-08-14T06:48:42</time></trkpt><trkpt lat="55.8084100" lon="49.1391860"><time>2021-08-14T06:48:43</time></trkpt><trkpt lat="55.8084030" lon="49.1392100"><time>2021-08-14T06:48:44</time></trkpt><trkpt lat="55.8083940" lon="49.1392390"><time>2021-08-14T06:48:45</time></trkpt><trkpt lat="55.8083850" lon="49.1392660"><time>2021-08-14T06:48:46</time></trkpt><trkpt lat="55.8083720" lon="49.1392840"><time>2021-08-14T06:48:47</time></trkpt><trkpt lat="55.8083630" lon="49.1393120"><time>2021-08-14T06:48:48</time></trkpt><trkpt lat="55.8083560" lon="49.1393390"><time>2021-08-14T06:48:49</time></trkpt><trkpt lat="55.8083480" lon="49.1393610"><time>2021-08-14T06:48:50</time></trkpt><trkpt lat="55.8083370" lon="49.1393870"><time>2021-08-14T06:48:51</time></trkpt><trkpt lat="55.8083270" lon="49.1394070"><time>2021-08-14T06:48:52</time></trkpt><trkpt lat="55.8083210" lon="49.1394340"><time>2021-08-14T06:48:53</time></trkpt><trkpt lat="55.8083120" lon="49.1394580"><time>2021-08-14T06:48:54</time></trkpt><trkpt lat="55.8083040" lon="49.1394820"><time>2021-08-14T06:48:55</time></trkpt><trkpt lat="55.8082970" lon="49.1395080"><time>2021-08-14T06:48:56</time></trkpt><trkpt lat="55.8082870" lon="49.1395340"><time>2021-08-14T06:48:57</time></trkpt><trkpt lat="55.8082810" lon="49.1395640"><time>2021-08-14T06:48:58</time></trkpt><trkpt lat="55.8082750" lon="49.1395940"><time>2021-08-14T06:48:59</time></trkpt><trkpt lat="55.8082700" lon="49.1396240"><time>2021-08-14T06:49:00</time></trkpt><trkpt lat="55.8082630" lon="49.1396530"><time>2021-08-14T06:49:01</time></trkpt><trkpt lat="55.8082570" lon="49.1396790"><time>2021-08-14T06:49:02</time></trkpt><trkpt lat="55.8082490" lon="49.1397080"><time>2021-08-14T06:49:03</time></trkpt><trkpt lat="55.8082430" lon="49.1397390"><time>2021-08-14T06:49:04</time></trkpt><trkpt lat="55.8082310" lon="49.1397600"><time>2021-08-14T06:49:05</time></trkpt><trkpt lat="55.8082230" lon="49.1397880"><time>2021-08-14T06:49:06</time></trkpt><trkpt lat="55.8082250" lon="49.1398110"><time>2021-08-14T06:49:07</time></trkpt><trkpt lat="55.8082170" lon="49.1398380"><time>2021-08-14T06:49:08</time></trkpt><trkpt lat="55.8082170" lon="49.1398590"><time>2021-08-14T06:49:09</time></trkpt><trkpt lat="55.8082080" lon="49.1398800"><time>2021-08-14T06:49:10</time></trkpt><trkpt lat="55.8081930" lon="49.1399030"><time>2021-08-14T06:49:11</time></trkpt><trkpt lat="55.8081910" lon="49.1399380"><time>2021-08-14T06:49:12</time></trkpt><trkpt lat="55.8081820" lon="49.1399590"><time>2021-08-14T06:49:13</time></trkpt><trkpt lat="55.8081750" lon="49.1399840"><time>2021-08-14T06:49:14</time></trkpt><trkpt lat="55.8081690" lon="49.1400120"><time>2021-08-14T06:49:15</time></trkpt><trkpt lat="55.8081560" lon="49.1400550"><time>2021-08-14T06:49:16</time></trkpt><trkpt lat="55.8081510" lon="49.1400690"><time>2021-08-14T06:49:17</time></trkpt><trkpt lat="55.8081430" lon="49.1400960"><time>2021-08-14T06:49:18</time></trkpt><trkpt lat="55.8081400" lon="49.1401290"><time>2021-08-14T06:49:19</time></trkpt><trkpt lat="55.8081300" lon="49.1401750"><time>2021-08-14T06:49:20</time></trkpt><trkpt lat="55.8081250" lon="49.1401900"><time>2021-08-14T06:49:21</time></trkpt><trkpt lat="55.8081170" lon="49.1402150"><time>2021-08-14T06:49:22</time></trkpt><trkpt lat="55.8081110" lon="49.1402430"><time>2021-08-14T06:49:23</time></trkpt><trkpt lat="55.8080970" lon="49.1402830"><time>2021-08-14T06:49:24</time></trkpt><trkpt lat="55.8080900" lon="49.1402990"><time>2021-08-14T06:49:25</time></trkpt><trkpt lat="55.8080780" lon="49.1403410"><time>2021-08-14T06:49:26</time></trkpt><trkpt lat="55.8080730" lon="49.1403560"><time>2021-08-14T06:49:27</time></trkpt><trkpt lat="55.8080680" lon="49.1403840"><time>2021-08-14T06:49:28</time></trkpt><trkpt lat="55.8080590" lon="49.1404080"><time>2021-08-14T06:49:29</time></trkpt><trkpt lat="55.8080530" lon="49.1404510"><time>2021-08-14T06:49:30</time></trkpt><trkpt lat="55.8080500" lon="49.1404710"><time>2021-08-14T06:49:31</time></trkpt><trkpt lat="55.8080410" lon="49.1404930"><time>2021-08-14T06:49:32</time></trkpt><trkpt lat="55.8080210" lon="49.1405410"><time>2021-08-14T06:49:33</time></trkpt><trkpt lat="55.8080130" lon="49.1405720"><time>2021-08-14T06:49:34</time></trkpt><trkpt lat="55.8080050" lon="49.1406210"><time>2021-08-14T06:49:35</time></trkpt><trkpt lat="55.8080020" lon="49.1406360"><time>2021-08-14T06:49:36</time></trkpt><trkpt lat="55.8079950" lon="49.1406670"><time>2021-08-14T06:49:37</time></trkpt><trkpt lat="55.8079880" lon="49.1406950"><time>2021-08-14T06:49:38</time></trkpt><trkpt lat="55.8079770" lon="49.1407210"><time>2021-08-14T06:49:39</time></trkpt><trkpt lat="55.8079710" lon="49.1407500"><time>2021-08-14T06:49:40</time></trkpt><trkpt lat="55.8079690" lon="49.1407790"><time>2021-08-14T06:49:41</time></trkpt><trkpt lat="55.8079600" lon="49.1408020"><time>2021-08-14T06:49:42</time></trkpt><trkpt lat="55.8079520" lon="49.1408280"><time>2021-08-14T06:49:43</time></trkpt><trkpt lat="55.8079420" lon="49.1408520"><time>2021-08-14T06:49:44</time></trkpt><trkpt lat="55.8079340" lon="49.1408780"><time>2021-08-14T06:49:45</time></trkpt><trkpt lat="55.8079280" lon="49.1409060"><time>2021-08-14T06:49:46</time></trkpt><trkpt lat="55.8079200" lon="49.1409320"><time>2021-08-14T06:49:47</time></trkpt><trkpt lat="55.8079090" lon="49.1409570"><time>2021-08-14T06:49:48</time></trkpt><trkpt lat="55.8078980" lon="49.1409830"><time>2021-08-14T06:49:49</time></trkpt><trkpt lat="55.8078910" lon="49.1410130"><time>2021-08-14T06:49:50</time></trkpt><trkpt lat="55.8078780" lon="49.1410550"><time>2021-08-14T06:49:51</time></trkpt><trkpt lat="55.8078740" lon="49.1410690"><time>2021-08-14T06:49:52</time></trkpt><trkpt lat="55.8078660" lon="49.1410980"><time>2021-08-14T06:49:53</time></trkpt><trkpt lat="55.8078570" lon="49.1411260"><time>2021-08-14T06:49:54</time></trkpt><trkpt lat="55.8078500" lon="49.1411530"><time>2021-08-14T06:49:55</time></trkpt><trkpt lat="55.8078460" lon="49.1411870"><time>2021-08-14T06:49:56</time></trkpt><trkpt lat="55.8078390" lon="49.1412120"><time>2021-08-14T06:49:57</time></trkpt><trkpt lat="55.8078280" lon="49.1412340"><time>2021-08-14T06:49:58</time></trkpt><trkpt lat="55.8078180" lon="49.1412570"><time>2021-08-14T06:49:59</time></trkpt><trkpt lat="55.8078110" lon="49.1412830"><time>2021-08-14T06:50:01</time></trkpt><trkpt lat="55.8078050" lon="49.1413090"><time>2021-08-14T06:50:02</time></trkpt><trkpt lat="55.8078010" lon="49.1413390"><time>2021-08-14T06:50:03</time></trkpt><trkpt lat="55.8077930" lon="49.1413630"><time>2021-08-14T06:50:04</time></trkpt><trkpt lat="55.8077860" lon="49.1413890"><time>2021-08-14T06:50:05</time></trkpt><trkpt lat="55.8077800" lon="49.1414190"><time>2021-08-14T06:50:06</time></trkpt><trkpt lat="55.8077690" lon="49.1414450"><time>2021-08-14T06:50:07</time></trkpt><trkpt lat="55.8077610" lon="49.1414750"><time>2021-08-14T06:50:08</time></trkpt><trkpt lat="55.8077540" lon="49.1415030"><time>2021-08-14T06:50:09</time></trkpt><trkpt lat="55.8077460" lon="49.1415330"><time>2021-08-14T06:50:10</time></trkpt><trkpt lat="55.8077340" lon="49.1415560"><time>2021-08-14T06:50:11</time></trkpt><trkpt lat="55.8077190" lon="49.1415750"><time>2021-08-14T06:50:12</time></trkpt><trkpt lat="55.8077040" lon="49.1415860"><time>2021-08-14T06:50:13</time></trkpt><trkpt lat="55.8076870" lon="49.1415960"><time>2021-08-14T06:50:14</time></trkpt><trkpt lat="55.8076730" lon="49.1416080"><time>2021-08-14T06:50:15</time></trkpt><trkpt lat="55.8076440" lon="49.1416080"><time>2021-08-14T06:50:16</time></trkpt><trkpt lat="55.8076350" lon="49.1416100"><time>2021-08-14T06:50:17</time></trkpt><trkpt lat="55.8076200" lon="49.1416160"><time>2021-08-14T06:50:18</time></trkpt><trkpt lat="55.8076040" lon="49.1416100"><time>2021-08-14T06:50:19</time></trkpt><trkpt lat="55.8075910" lon="49.1416100"><time>2021-08-14T06:50:20</time></trkpt><trkpt lat="55.8075740" lon="49.1416030"><time>2021-08-14T06:50:21</time></trkpt><trkpt lat="55.8075570" lon="49.1415900"><time>2021-08-14T06:50:22</time></trkpt><trkpt lat="55.8075420" lon="49.1415820"><time>2021-08-14T06:50:23</time></trkpt><trkpt lat="55.8075300" lon="49.1415620"><time>2021-08-14T06:50:24</time></trkpt><trkpt lat="55.8075140" lon="49.1415530"><time>2021-08-14T06:50:25</time></trkpt><trkpt lat="55.8074980" lon="49.1415430"><time>2021-08-14T06:50:26</time></trkpt><trkpt lat="55.8074830" lon="49.1415340"><time>2021-08-14T06:50:27</time></trkpt><trkpt lat="55.8074570" lon="49.1415180"><time>2021-08-14T06:50:28</time></trkpt><trkpt lat="55.8074480" lon="49.1415140"><time>2021-08-14T06:50:29</time></trkpt><trkpt lat="55.8074220" lon="49.1414940"><time>2021-08-14T06:50:30</time></trkpt><trkpt lat="55.8074130" lon="49.1414870"><time>2021-08-14T06:50:31</time></trkpt><trkpt lat="55.8073880" lon="49.1414670"><time>2021-08-14T06:50:32</time></trkpt><trkpt lat="55.8073790" lon="49.1414620"><time>2021-08-14T06:50:33</time></trkpt><trkpt lat="55.8073640" lon="49.1414440"><time>2021-08-14T06:50:34</time></trkpt><trkpt lat="55.8073500" lon="49.1414290"><time>2021-08-14T06:50:35</time></trkpt><trkpt lat="55.8073360" lon="49.1414140"><time>2021-08-14T06:50:36</time></trkpt><trkpt lat="55.8073210" lon="49.1414040"><time>2021-08-14T06:50:37</time></trkpt><trkpt lat="55.8073000" lon="49.1413810"><time>2021-08-14T06:50:38</time></trkpt><trkpt lat="55.8072920" lon="49.1413740"><time>2021-08-14T06:50:39</time></trkpt><trkpt lat="55.8072840" lon="49.1413670"><time>2021-08-14T06:50:40</time></trkpt><trkpt lat="55.8072680" lon="49.1413240"><time>2021-08-14T06:50:41</time></trkpt><trkpt lat="55.8072630" lon="49.1413120"><time>2021-08-14T06:50:42</time></trkpt><trkpt lat="55.8072440" lon="49.1413040"><time>2021-08-14T06:50:43</time></trkpt><trkpt lat="55.8072310" lon="49.1412910"><time>2021-08-14T06:50:44</time></trkpt><trkpt lat="55.8072210" lon="49.1412650"><time>2021-08-14T06:50:45</time></trkpt><trkpt lat="55.8072050" lon="49.1412480"><time>2021-08-14T06:50:46</time></trkpt><trkpt lat="55.8071800" lon="49.1412300"><time>2021-08-14T06:50:47</time></trkpt><trkpt lat="55.8071710" lon="49.1412200"><time>2021-08-14T06:50:48</time></trkpt><trkpt lat="55.8071550" lon="49.1412170"><time>2021-08-14T06:50:49</time></trkpt><trkpt lat="55.8071440" lon="49.1412010"><time>2021-08-14T06:50:50</time></trkpt><trkpt lat="55.8071350" lon="49.1411780"><time>2021-08-14T06:50:51</time></trkpt><trkpt lat="55.8071290" lon="49.1411450"><time>2021-08-14T06:50:52</time></trkpt><trkpt lat="55.8071020" lon="49.1411280"><time>2021-08-14T06:50:53</time></trkpt><trkpt lat="55.8070930" lon="49.1411240"><time>2021-08-14T06:50:54</time></trkpt><trkpt lat="55.8070770" lon="49.1411060"><time>2021-08-14T06:50:55</time></trkpt><trkpt lat="55.8070650" lon="49.1410880"><time>2021-08-14T06:50:56</time></trkpt><trkpt lat="55.8070230" lon="49.1410710"><time>2021-08-14T06:50:57</time></trkpt><trkpt lat="55.8069950" lon="49.1410540"><time>2021-08-14T06:50:59</time></trkpt><trkpt lat="55.8069800" lon="49.1410500"><time>2021-08-14T06:51:01</time></trkpt><trkpt lat="55.8069610" lon="49.1410260"><time>2021-08-14T06:51:02</time></trkpt><trkpt lat="55.8069580" lon="49.1409900"><time>2021-08-14T06:51:03</time></trkpt><trkpt lat="55.8069590" lon="49.1409760"><time>2021-08-14T06:51:04</time></trkpt><trkpt lat="55.8069630" lon="49.1409510"><time>2021-08-14T06:51:05</time></trkpt><trkpt lat="55.8069640" lon="49.1409250"><time>2021-08-14T06:51:06</time></trkpt><trkpt lat="55.8069660" lon="49.1408990"><time>2021-08-14T06:51:07</time></trkpt><trkpt lat="55.8069680" lon="49.1408740"><time>2021-08-14T06:51:08</time></trkpt><trkpt lat="55.8069660" lon="49.1408470"><time>2021-08-14T06:51:09</time></trkpt><trkpt lat="55.8069690" lon="49.1408180"><time>2021-08-14T06:51:10</time></trkpt><trkpt lat="55.8069720" lon="49.1407890"><time>2021-08-14T06:51:11</time></trkpt><trkpt lat="55.8069760" lon="49.1407630"><time>2021-08-14T06:51:12</time></trkpt><trkpt lat="55.8069830" lon="49.1407350"><time>2021-08-14T06:51:13</time></trkpt><trkpt lat="55.8069890" lon="49.1407080"><time>2021-08-14T06:51:14</time></trkpt><trkpt lat="55.8069940" lon="49.1406790"><time>2021-08-14T06:51:15</time></trkpt><trkpt lat="55.8069980" lon="49.1406520"><time>2021-08-14T06:51:16</time></trkpt><trkpt lat="55.8070080" lon="49.1406270"><time>2021-08-14T06:51:17</time></trkpt><trkpt lat="55.8070120" lon="49.1405970"><time>2021-08-14T06:51:18</time></trkpt><trkpt lat="55.8070200" lon="49.1405700"><time>2021-08-14T06:51:19</time></trkpt><trkpt lat="55.8070220" lon="49.1405400"><time>2021-08-14T06:51:20</time></trkpt><trkpt lat="55.8070280" lon="49.1405130"><time>2021-08-14T06:51:21</time></trkpt><trkpt lat="55.8070350" lon="49.1404860"><time>2021-08-14T06:51:22</time></trkpt><trkpt lat="55.8070430" lon="49.1404610"><time>2021-08-14T06:51:23</time></trkpt><trkpt lat="55.8070480" lon="49.1404330"><time>2021-08-14T06:51:24</time></trkpt><trkpt lat="55.8070540" lon="49.1404060"><time>2021-08-14T06:51:25</time></trkpt><trkpt lat="55.8070640" lon="49.1403820"><time>2021-08-14T06:51:26</time></trkpt><trkpt lat="55.8070690" lon="49.1403530"><time>2021-08-14T06:51:27</time></trkpt><trkpt lat="55.8070800" lon="49.1403330"><time>2021-08-14T06:51:28</time></trkpt><trkpt lat="55.8070810" lon="49.1403020"><time>2021-08-14T06:51:29</time></trkpt><trkpt lat="55.8070870" lon="49.1402760"><time>2021-08-14T06:51:30</time></trkpt><trkpt lat="55.8070920" lon="49.1402500"><time>2021-08-14T06:51:31</time></trkpt><trkpt lat="55.8070970" lon="49.1402230"><time>2021-08-14T06:51:32</time></trkpt><trkpt lat="55.8071060" lon="49.1401990"><time>2021-08-14T06:51:33</time></trkpt><trkpt lat="55.8071110" lon="49.1401690"><time>2021-08-14T06:51:35</time></trkpt><trkpt lat="55.8071170" lon="49.1401380"><time>2021-08-14T06:51:36</time></trkpt><trkpt lat="55.8071250" lon="49.1401130"><time>2021-08-14T06:51:37</time></trkpt><trkpt lat="55.8071320" lon="49.1400840"><time>2021-08-14T06:51:38</time></trkpt><trkpt lat="55.8071370" lon="49.1400570"><time>2021-08-14T06:51:39</time></trkpt><trkpt lat="55.8071460" lon="49.1400300"><time>2021-08-14T06:51:40</time></trkpt><trkpt lat="55.8071540" lon="49.1400020"><time>2021-08-14T06:51:41</time></trkpt><trkpt lat="55.8071640" lon="49.1399440"><time>2021-08-14T06:51:42</time></trkpt><trkpt lat="55.8071730" lon="49.1399200"><time>2021-08-14T06:51:43</time></trkpt><trkpt lat="55.8071840" lon="49.1398930"><time>2021-08-14T06:51:44</time></trkpt><trkpt lat="55.8071860" lon="49.1398630"><time>2021-08-14T06:51:45</time></trkpt><trkpt lat="55.8071920" lon="49.1398380"><time>2021-08-14T06:51:46</time></trkpt><trkpt lat="55.8072010" lon="49.1398140"><time>2021-08-14T06:51:47</time></trkpt><trkpt lat="55.8072120" lon="49.1397880"><time>2021-08-14T06:51:48</time></trkpt><trkpt lat="55.8072160" lon="49.1397600"><time>2021-08-14T06:51:49</time></trkpt><trkpt lat="55.8072260" lon="49.1397390"><time>2021-08-14T06:51:50</time></trkpt><trkpt lat="55.8072390" lon="49.1396950"><time>2021-08-14T06:51:51</time></trkpt><trkpt lat="55.8072420" lon="49.1396780"><time>2021-08-14T06:51:52</time></trkpt><trkpt lat="55.8072490" lon="49.1396520"><time>2021-08-14T06:51:53</time></trkpt><trkpt lat="55.8072580" lon="49.1396220"><time>2021-08-14T06:51:54</time></trkpt><trkpt lat="55.8072690" lon="49.1395780"><time>2021-08-14T06:51:55</time></trkpt><trkpt lat="55.8072710" lon="49.1395630"><time>2021-08-14T06:51:56</time></trkpt><trkpt lat="55.8072750" lon="49.1395320"><time>2021-08-14T06:51:58</time></trkpt><trkpt lat="55.8072860" lon="49.1395030"><time>2021-08-14T06:51:59</time></trkpt><trkpt lat="55.8072990" lon="49.1394840"><time>2021-08-14T06:52:00</time></trkpt><trkpt lat="55.8073040" lon="49.1394590"><time>2021-08-14T06:52:01</time></trkpt><trkpt lat="55.8073190" lon="49.1394160"><time>2021-08-14T06:52:02</time></trkpt><trkpt lat="55.8073250" lon="49.1394010"><time>2021-08-14T06:52:03</time></trkpt><trkpt lat="55.8073300" lon="49.1393750"><time>2021-08-14T06:52:04</time></trkpt><trkpt lat="55.8073340" lon="49.1393460"><time>2021-08-14T06:52:05</time></trkpt><trkpt lat="55.8073430" lon="49.1393230"><time>2021-08-14T06:52:06</time></trkpt><trkpt lat="55.8073500" lon="49.1393020"><time>2021-08-14T06:52:07</time></trkpt><trkpt lat="55.8073560" lon="49.1392740"><time>2021-08-14T06:52:08</time></trkpt><trkpt lat="55.8073610" lon="49.1392560"><time>2021-08-14T06:52:09</time></trkpt><trkpt lat="55.8073670" lon="49.1392350"><time>2021-08-14T06:52:10</time></trkpt><trkpt lat="55.8073720" lon="49.1392070"><time>2021-08-14T06:52:11</time></trkpt><trkpt lat="55.8073840" lon="49.1391820"><time>2021-08-14T06:52:12</time></trkpt><trkpt lat="55.8073920" lon="49.1391540"><time>2021-08-14T06:52:13</time></trkpt><trkpt lat="55.8074020" lon="49.1391260"><time>2021-08-14T06:52:14</time></trkpt><trkpt lat="55.8074100" lon="49.1391060"><time>2021-08-14T06:52:15</time></trkpt><trkpt lat="55.8074200" lon="49.1390750"><time>2021-08-14T06:52:16</time></trkpt><trkpt lat="55.8074260" lon="49.1390540"><time>2021-08-14T06:52:17</time></trkpt><trkpt lat="55.8074380" lon="49.1390270"><time>2021-08-14T06:52:18</time></trkpt><trkpt lat="55.8074450" lon="49.1390040"><time>2021-08-14T06:52:19</time></trkpt><trkpt lat="55.8074520" lon="49.1389750"><time>2021-08-14T06:52:20</time></trkpt><trkpt lat="55.8074540" lon="49.1389430"><time>2021-08-14T06:52:21</time></trkpt><trkpt lat="55.8074620" lon="49.1389200"><time>2021-08-14T06:52:22</time></trkpt><trkpt lat="55.8074700" lon="49.1388870"><time>2021-08-14T06:52:23</time></trkpt><trkpt lat="55.8074800" lon="49.1388660"><time>2021-08-14T06:52:24</time></trkpt><trkpt lat="55.8074880" lon="49.1388430"><time>2021-08-14T06:52:25</time></trkpt><trkpt lat="55.8074980" lon="49.1388210"><time>2021-08-14T06:52:26</time></trkpt><trkpt lat="55.8075020" lon="49.1387960"><time>2021-08-14T06:52:27</time></trkpt><trkpt lat="55.8075060" lon="49.1387690"><time>2021-08-14T06:52:28</time></trkpt><trkpt lat="55.8075160" lon="49.1387420"><time>2021-08-14T06:52:29</time></trkpt><trkpt lat="55.8075250" lon="49.1387200"><time>2021-08-14T06:52:30</time></trkpt><trkpt lat="55.8075340" lon="49.1387010"><time>2021-08-14T06:52:31</time></trkpt><trkpt lat="55.8075420" lon="49.1386760"><time>2021-08-14T06:52:32</time></trkpt><trkpt lat="55.8075480" lon="49.1386500"><time>2021-08-14T06:52:33</time></trkpt><trkpt lat="55.8075550" lon="49.1386250"><time>2021-08-14T06:52:34</time></trkpt><trkpt lat="55.8075640" lon="49.1386030"><time>2021-08-14T06:52:35</time></trkpt><trkpt lat="55.8075720" lon="49.1385820"><time>2021-08-14T06:52:36</time></trkpt><trkpt lat="55.8075780" lon="49.1385530"><time>2021-08-14T06:52:37</time></trkpt><trkpt lat="55.8075840" lon="49.1385230"><time>2021-08-14T06:52:38</time></trkpt><trkpt lat="55.8075940" lon="49.1385050"><time>2021-08-14T06:52:39</time></trkpt><trkpt lat="55.8076010" lon="49.1384790"><time>2021-08-14T06:52:40</time></trkpt><trkpt lat="55.8076070" lon="49.1384520"><time>2021-08-14T06:52:41</time></trkpt><trkpt lat="55.8076170" lon="49.1384240"><time>2021-08-14T06:52:42</time></trkpt><trkpt lat="55.8076270" lon="49.1384020"><time>2021-08-14T06:52:43</time></trkpt><trkpt lat="55.8076360" lon="49.1383810"><time>2021-08-14T06:52:44</time></trkpt><trkpt lat="55.8076440" lon="49.1383550"><time>2021-08-14T06:52:45</time></trkpt><trkpt lat="55.8076560" lon="49.1383360"><time>2021-08-14T06:52:46</time></trkpt><trkpt lat="55.8076640" lon="49.1383110"><time>2021-08-14T06:52:47</time></trkpt><trkpt lat="55.8076710" lon="49.1382820"><time>2021-08-14T06:52:48</time></trkpt><trkpt lat="55.8076810" lon="49.1382580"><time>2021-08-14T06:52:49</time></trkpt><trkpt lat="55.8076890" lon="49.1382350"><time>2021-08-14T06:52:50</time></trkpt><trkpt lat="55.8076930" lon="49.1382070"><time>2021-08-14T06:52:51</time></trkpt><trkpt lat="55.8077000" lon="49.1381870"><time>2021-08-14T06:52:52</time></trkpt><trkpt lat="55.8077070" lon="49.1381620"><time>2021-08-14T06:52:53</time></trkpt><trkpt lat="55.8077170" lon="49.1381350"><time>2021-08-14T06:52:54</time></trkpt><trkpt lat="55.8077270" lon="49.1381120"><time>2021-08-14T06:52:55</time></trkpt><trkpt lat="55.8077340" lon="49.1380850"><time>2021-08-14T06:52:56</time></trkpt><trkpt lat="55.8077410" lon="49.1380640"><time>2021-08-14T06:52:57</time></trkpt><trkpt lat="55.8077510" lon="49.1380440"><time>2021-08-14T06:52:58</time></trkpt><trkpt lat="55.8077600" lon="49.1380200"><time>2021-08-14T06:52:59</time></trkpt><trkpt lat="55.8077660" lon="49.1379900"><time>2021-08-14T06:53:00</time></trkpt><trkpt lat="55.8077760" lon="49.1379670"><time>2021-08-14T06:53:01</time></trkpt><trkpt lat="55.8077860" lon="49.1379440"><time>2021-08-14T06:53:02</time></trkpt><trkpt lat="55.8077960" lon="49.1379250"><time>2021-08-14T06:53:03</time></trkpt><trkpt lat="55.8078060" lon="49.1379010"><time>2021-08-14T06:53:04</time></trkpt><trkpt lat="55.8078150" lon="49.1378740"><time>2021-08-14T06:53:05</time></trkpt><trkpt lat="55.8078200" lon="49.1378450"><time>2021-08-14T06:53:06</time></trkpt><trkpt lat="55.8078270" lon="49.1378160"><time>2021-08-14T06:53:07</time></trkpt><trkpt lat="55.8078390" lon="49.1377940"><time>2021-08-14T06:53:08</time></trkpt><trkpt lat="55.8078440" lon="49.1377680"><time>2021-08-14T06:53:09</time></trkpt><trkpt lat="55.8078520" lon="49.1377410"><time>2021-08-14T06:53:10</time></trkpt><trkpt lat="55.8078640" lon="49.1377210"><time>2021-08-14T06:53:11</time></trkpt><trkpt lat="55.8078700" lon="49.1376960"><time>2021-08-14T06:53:12</time></trkpt><trkpt lat="55.8078790" lon="49.1376720"><time>2021-08-14T06:53:13</time></trkpt><trkpt lat="55.8078890" lon="49.1376510"><time>2021-08-14T06:53:14</time></trkpt><trkpt lat="55.8079000" lon="49.1376330"><time>2021-08-14T06:53:15</time></trkpt><trkpt lat="55.8079080" lon="49.1376100"><time>2021-08-14T06:53:16</time></trkpt><trkpt lat="55.8079200" lon="49.1375860"><time>2021-08-14T06:53:17</time></trkpt><trkpt lat="55.8079300" lon="49.1375640"><time>2021-08-14T06:53:18</time></trkpt><trkpt lat="55.8079430" lon="49.1375390"><time>2021-08-14T06:53:19</time></trkpt><trkpt lat="55.8079510" lon="49.1375190"><time>2021-08-14T06:53:20</time></trkpt><trkpt lat="55.8079590" lon="49.1374980"><time>2021-08-14T06:53:21</time></trkpt><trkpt lat="55.8079720" lon="49.1374780"><time>2021-08-14T06:53:22</time></trkpt><trkpt lat="55.8079810" lon="49.1374570"><time>2021-08-14T06:53:23</time></trkpt><trkpt lat="55.8079870" lon="49.1374320"><time>2021-08-14T06:53:24</time></trkpt><trkpt lat="55.8079970" lon="49.1374010"><time>2021-08-14T06:53:25</time></trkpt><trkpt lat="55.8080040" lon="49.1373770"><time>2021-08-14T06:53:26</time></trkpt><trkpt lat="55.8080140" lon="49.1373500"><time>2021-08-14T06:53:27</time></trkpt><trkpt lat="55.8080250" lon="49.1373290"><time>2021-08-14T06:53:28</time></trkpt><trkpt lat="55.8080360" lon="49.1373040"><time>2021-08-14T06:53:29</time></trkpt><trkpt lat="55.8080470" lon="49.1372760"><time>2021-08-14T06:53:30</time></trkpt><trkpt lat="55.8080600" lon="49.1372600"><time>2021-08-14T06:53:31</time></trkpt><trkpt lat="55.8080690" lon="49.1372330"><time>2021-08-14T06:53:32</time></trkpt><trkpt lat="55.8080760" lon="49.1372130"><time>2021-08-14T06:53:33</time></trkpt><trkpt lat="55.8080880" lon="49.1371970"><time>2021-08-14T06:53:34</time></trkpt><trkpt lat="55.8081000" lon="49.1371690"><time>2021-08-14T06:53:35</time></trkpt><trkpt lat="55.8081080" lon="49.1371440"><time>2021-08-14T06:53:36</time></trkpt><trkpt lat="55.8081190" lon="49.1371240"><time>2021-08-14T06:53:37</time></trkpt><trkpt lat="55.8081330" lon="49.1371060"><time>2021-08-14T06:53:38</time></trkpt><trkpt lat="55.8081450" lon="49.1370910"><time>2021-08-14T06:53:39</time></trkpt><trkpt lat="55.8081550" lon="49.1370730"><time>2021-08-14T06:53:40</time></trkpt><trkpt lat="55.8081670" lon="49.1370590"><time>2021-08-14T06:53:41</time></trkpt><trkpt lat="55.8081750" lon="49.1370340"><time>2021-08-14T06:53:42</time></trkpt><trkpt lat="55.8081860" lon="49.1370100"><time>2021-08-14T06:53:43</time></trkpt><trkpt lat="55.8081960" lon="49.1369850"><time>2021-08-14T06:53:44</time></trkpt><trkpt lat="55.8082080" lon="49.1369630"><time>2021-08-14T06:53:45</time></trkpt><trkpt lat="55.8082150" lon="49.1369430"><time>2021-08-14T06:53:46</time></trkpt><trkpt lat="55.8082270" lon="49.1369250"><time>2021-08-14T06:53:47</time></trkpt><trkpt lat="55.8082430" lon="49.1369090"><time>2021-08-14T06:53:48</time></trkpt><trkpt lat="55.8082480" lon="49.1368840"><time>2021-08-14T06:53:49</time></trkpt><trkpt lat="55.8082540" lon="49.1368480"><time>2021-08-14T06:53:50</time></trkpt><trkpt lat="55.8082620" lon="49.1368290"><time>2021-08-14T06:53:51</time></trkpt><trkpt lat="55.8082740" lon="49.1368060"><time>2021-08-14T06:53:52</time></trkpt><trkpt lat="55.8082920" lon="49.1367950"><time>2021-08-14T06:53:53</time></trkpt><trkpt lat="55.8083000" lon="49.1367680"><time>2021-08-14T06:53:54</time></trkpt><trkpt lat="55.8083080" lon="49.1367440"><time>2021-08-14T06:53:55</time></trkpt><trkpt lat="55.8083270" lon="49.1367060"><time>2021-08-14T06:53:56</time></trkpt><trkpt lat="55.8083320" lon="49.1366920"><time>2021-08-14T06:53:57</time></trkpt><trkpt lat="55.8083470" lon="49.1366690"><time>2021-08-14T06:53:58</time></trkpt><trkpt lat="55.8083590" lon="49.1366540"><time>2021-08-14T06:53:59</time></trkpt><trkpt lat="55.8083680" lon="49.1366280"><time>2021-08-14T06:54:00</time></trkpt><trkpt lat="55.8083840" lon="49.1366200"><time>2021-08-14T06:54:01</time></trkpt><trkpt lat="55.8083960" lon="49.1365980"><time>2021-08-14T06:54:02</time></trkpt><trkpt lat="55.8084050" lon="49.1365810"><time>2021-08-14T06:54:03</time></trkpt><trkpt lat="55.8084160" lon="49.1365640"><time>2021-08-14T06:54:04</time></trkpt><trkpt lat="55.8084240" lon="49.1365400"><time>2021-08-14T06:54:05</time></trkpt><trkpt lat="55.8084370" lon="49.1365210"><time>2021-08-14T06:54:06</time></trkpt><trkpt lat="55.8084480" lon="49.1365000"><time>2021-08-14T06:54:07</time></trkpt><trkpt lat="55.8084580" lon="49.1364800"><time>2021-08-14T06:54:08</time></trkpt><trkpt lat="55.8084700" lon="49.1364580"><time>2021-08-14T06:54:09</time></trkpt><trkpt lat="55.8084910" lon="49.1364220"><time>2021-08-14T06:54:10</time></trkpt><trkpt lat="55.8085010" lon="49.1363980"><time>2021-08-14T06:54:11</time></trkpt><trkpt lat="55.8085120" lon="49.1363730"><time>2021-08-14T06:54:12</time></trkpt><trkpt lat="55.8085240" lon="49.1363530"><time>2021-08-14T06:54:13</time></trkpt><trkpt lat="55.8085380" lon="49.1363320"><time>2021-08-14T06:54:14</time></trkpt><trkpt lat="55.8085490" lon="49.1363130"><time>2021-08-14T06:54:15</time></trkpt><trkpt lat="55.8085580" lon="49.1362910"><time>2021-08-14T06:54:16</time></trkpt><trkpt lat="55.8085670" lon="49.1362730"><time>2021-08-14T06:54:17</time></trkpt><trkpt lat="55.8085780" lon="49.1362530"><time>2021-08-14T06:54:18</time></trkpt><trkpt lat="55.8085910" lon="49.1362360"><time>2021-08-14T06:54:19</time></trkpt><trkpt lat="55.8086040" lon="49.1362220"><time>2021-08-14T06:54:20</time></trkpt><trkpt lat="55.8086150" lon="49.1361990"><time>2021-08-14T06:54:21</time></trkpt><trkpt lat="55.8086240" lon="49.1361780"><time>2021-08-14T06:54:22</time></trkpt><trkpt lat="55.8086380" lon="49.1361590"><time>2021-08-14T06:54:23</time></trkpt><trkpt lat="55.8086520" lon="49.1361470"><time>2021-08-14T06:54:24</time></trkpt><trkpt lat="55.8086650" lon="49.1361250"><time>2021-08-14T06:54:25</time></trkpt><trkpt lat="55.8086750" lon="49.1361020"><time>2021-08-14T06:54:26</time></trkpt><trkpt lat="55.8086890" lon="49.1360770"><time>2021-08-14T06:54:27</time></trkpt><trkpt lat="55.8087010" lon="49.1360670"><time>2021-08-14T06:54:28</time></trkpt><trkpt lat="55.8087100" lon="49.1360440"><time>2021-08-14T06:54:29</time></trkpt><trkpt lat="55.8087220" lon="49.1360240"><time>2021-08-14T06:54:30</time></trkpt><trkpt lat="55.8087340" lon="49.1360050"><time>2021-08-14T06:54:31</time></trkpt><trkpt lat="55.8087460" lon="49.1359860"><time>2021-08-14T06:54:32</time></trkpt><trkpt lat="55.8087560" lon="49.1359650"><time>2021-08-14T06:54:33</time></trkpt><trkpt lat="55.8087680" lon="49.1359440"><time>2021-08-14T06:54:34</time></trkpt><trkpt lat="55.8087810" lon="49.1359180"><time>2021-08-14T06:54:35</time></trkpt><trkpt lat="55.8087950" lon="49.1359020"><time>2021-08-14T06:54:36</time></trkpt><trkpt lat="55.8088090" lon="49.1358880"><time>2021-08-14T06:54:37</time></trkpt><trkpt lat="55.8088220" lon="49.1358710"><time>2021-08-14T06:54:38</time></trkpt><trkpt lat="55.8088350" lon="49.1358520"><time>2021-08-14T06:54:39</time></trkpt><trkpt lat="55.8088470" lon="49.1358310"><time>2021-08-14T06:54:40</time></trkpt><trkpt lat="55.8088570" lon="49.1358150"><time>2021-08-14T06:54:41</time></trkpt><trkpt lat="55.8088700" lon="49.1357950"><time>2021-08-14T06:54:42</time></trkpt><trkpt lat="55.8088810" lon="49.1357740"><time>2021-08-14T06:54:43</time></trkpt><trkpt lat="55.8088940" lon="49.1357550"><time>2021-08-14T06:54:44</time></trkpt><trkpt lat="55.8089100" lon="49.1357420"><time>2021-08-14T06:54:45</time></trkpt><trkpt lat="55.8089220" lon="49.1357190"><time>2021-08-14T06:54:46</time></trkpt><trkpt lat="55.8089340" lon="49.1357010"><time>2021-08-14T06:54:47</time></trkpt><trkpt lat="55.8089460" lon="49.1356800"><time>2021-08-14T06:54:48</time></trkpt><trkpt lat="55.8089570" lon="49.1356650"><time>2021-08-14T06:54:49</time></trkpt><trkpt lat="55.8089710" lon="49.1356510"><time>2021-08-14T06:54:50</time></trkpt><trkpt lat="55.8089810" lon="49.1356260"><time>2021-08-14T06:54:51</time></trkpt><trkpt lat="55.8089970" lon="49.1356130"><time>2021-08-14T06:54:52</time></trkpt><trkpt lat="55.8090100" lon="49.1355990"><time>2021-08-14T06:54:53</time></trkpt><trkpt lat="55.8090250" lon="49.1355850"><time>2021-08-14T06:54:54</time></trkpt><trkpt lat="55.8090380" lon="49.1355680"><time>2021-08-14T06:54:55</time></trkpt><trkpt lat="55.8090520" lon="49.1355580"><time>2021-08-14T06:54:56</time></trkpt><trkpt lat="55.8090630" lon="49.1355400"><time>2021-08-14T06:54:57</time></trkpt><trkpt lat="55.8090740" lon="49.1355190"><time>2021-08-14T06:54:58</time></trkpt><trkpt lat="55.8090850" lon="49.1354950"><time>2021-08-14T06:54:59</time></trkpt><trkpt lat="55.8090950" lon="49.1354740"><time>2021-08-14T06:55:00</time></trkpt><trkpt lat="55.8091080" lon="49.1354620"><time>2021-08-14T06:55:01</time></trkpt><trkpt lat="55.8091200" lon="49.1354500"><time>2021-08-14T06:55:02</time></trkpt><trkpt lat="55.8091320" lon="49.1354210"><time>2021-08-14T06:55:03</time></trkpt><trkpt lat="55.8091440" lon="49.1354030"><time>2021-08-14T06:55:04</time></trkpt><trkpt lat="55.8091590" lon="49.1353830"><time>2021-08-14T06:55:05</time></trkpt><trkpt lat="55.8091720" lon="49.1353700"><time>2021-08-14T06:55:06</time></trkpt><trkpt lat="55.8091850" lon="49.1353560"><time>2021-08-14T06:55:07</time></trkpt><trkpt lat="55.8092000" lon="49.1353370"><time>2021-08-14T06:55:08</time></trkpt><trkpt lat="55.8092140" lon="49.1353180"><time>2021-08-14T06:55:09</time></trkpt><trkpt lat="55.8092320" lon="49.1353120"><time>2021-08-14T06:55:10</time></trkpt><trkpt lat="55.8092420" lon="49.1352880"><time>2021-08-14T06:55:11</time></trkpt><trkpt lat="55.8092500" lon="49.1352630"><time>2021-08-14T06:55:12</time></trkpt><trkpt lat="55.8092640" lon="49.1352550"><time>2021-08-14T06:55:13</time></trkpt><trkpt lat="55.8092830" lon="49.1352430"><time>2021-08-14T06:55:14</time></trkpt><trkpt lat="55.8092930" lon="49.1352220"><time>2021-08-14T06:55:15</time></trkpt><trkpt lat="55.8093090" lon="49.1352100"><time>2021-08-14T06:55:16</time></trkpt><trkpt lat="55.8093260" lon="49.1351970"><time>2021-08-14T06:55:17</time></trkpt><trkpt lat="55.8093390" lon="49.1351830"><time>2021-08-14T06:55:18</time></trkpt><trkpt lat="55.8093540" lon="49.1351700"><time>2021-08-14T06:55:19</time></trkpt><trkpt lat="55.8093680" lon="49.1351510"><time>2021-08-14T06:55:20</time></trkpt><trkpt lat="55.8093850" lon="49.1351390"><time>2021-08-14T06:55:21</time></trkpt><trkpt lat="55.8093940" lon="49.1351130"><time>2021-08-14T06:55:22</time></trkpt><trkpt lat="55.8094070" lon="49.1350900"><time>2021-08-14T06:55:23</time></trkpt><trkpt lat="55.8094210" lon="49.1350780"><time>2021-08-14T06:55:24</time></trkpt><trkpt lat="55.8094360" lon="49.1350660"><time>2021-08-14T06:55:25</time></trkpt><trkpt lat="55.8094430" lon="49.1350500"><time>2021-08-14T06:55:26</time></trkpt><trkpt lat="55.8094600" lon="49.1350390"><time>2021-08-14T06:55:27</time></trkpt><trkpt lat="55.8094730" lon="49.1350230"><time>2021-08-14T06:55:28</time></trkpt><trkpt lat="55.8094890" lon="49.1350070"><time>2021-08-14T06:55:29</time></trkpt><trkpt lat="55.8095010" lon="49.1349950"><time>2021-08-14T06:55:30</time></trkpt><trkpt lat="55.8095160" lon="49.1349790"><time>2021-08-14T06:55:31</time></trkpt><trkpt lat="55.8095260" lon="49.1349590"><time>2021-08-14T06:55:32</time></trkpt><trkpt lat="55.8095390" lon="49.1349450"><time>2021-08-14T06:55:33</time></trkpt><trkpt lat="55.8095540" lon="49.1349300"><time>2021-08-14T06:55:34</time></trkpt><trkpt lat="55.8095690" lon="49.1349100"><time>2021-08-14T06:55:35</time></trkpt><trkpt lat="55.8095830" lon="49.1348930"><time>2021-08-14T06:55:36</time></trkpt><trkpt lat="55.8095950" lon="49.1348770"><time>2021-08-14T06:55:37</time></trkpt><trkpt lat="55.8096100" lon="49.1348630"><time>2021-08-14T06:55:38</time></trkpt><trkpt lat="55.8096250" lon="49.1348440"><time>2021-08-14T06:55:39</time></trkpt><trkpt lat="55.8096410" lon="49.1348280"><time>2021-08-14T06:55:40</time></trkpt><trkpt lat="55.8096570" lon="49.1348110"><time>2021-08-14T06:55:41</time></trkpt><trkpt lat="55.8096690" lon="49.1348020"><time>2021-08-14T06:55:42</time></trkpt><trkpt lat="55.8096850" lon="49.1347890"><time>2021-08-14T06:55:43</time></trkpt><trkpt lat="55.8096950" lon="49.1347710"><time>2021-08-14T06:55:44</time></trkpt><trkpt lat="55.8097080" lon="49.1347550"><time>2021-08-14T06:55:45</time></trkpt><trkpt lat="55.8097210" lon="49.1347380"><time>2021-08-14T06:55:46</time></trkpt><trkpt lat="55.8097360" lon="49.1347260"><time>2021-08-14T06:55:47</time></trkpt><trkpt lat="55.8097530" lon="49.1347140"><time>2021-08-14T06:55:48</time></trkpt><trkpt lat="55.8097690" lon="49.1347020"><time>2021-08-14T06:55:49</time></trkpt><trkpt lat="55.8097840" lon="49.1346920"><time>2021-08-14T06:55:51</time></trkpt><trkpt lat="55.8098000" lon="49.1346780"><time>2021-08-14T06:55:52</time></trkpt><trkpt lat="55.8098150" lon="49.1346670"><time>2021-08-14T06:55:53</time></trkpt><trkpt lat="55.8098290" lon="49.1346500"><time>2021-08-14T06:55:54</time></trkpt><trkpt lat="55.8098430" lon="49.1346350"><time>2021-08-14T06:55:55</time></trkpt><trkpt lat="55.8098550" lon="49.1346180"><time>2021-08-14T06:55:56</time></trkpt><trkpt lat="55.8098700" lon="49.1346080"><time>2021-08-14T06:55:57</time></trkpt><trkpt lat="55.8098850" lon="49.1345940"><time>2021-08-14T06:55:58</time></trkpt><trkpt lat="55.8099020" lon="49.1345860"><time>2021-08-14T06:55:59</time></trkpt><trkpt lat="55.8099280" lon="49.1345680"><time>2021-08-14T06:56:00</time></trkpt><trkpt lat="55.8099350" lon="49.1345580"><time>2021-08-14T06:56:01</time></trkpt><trkpt lat="55.8099480" lon="49.1345460"><time>2021-08-14T06:56:02</time></trkpt><trkpt lat="55.8099620" lon="49.1345270"><time>2021-08-14T06:56:03</time></trkpt><trkpt lat="55.8099760" lon="49.1345190"><time>2021-08-14T06:56:04</time></trkpt><trkpt lat="55.8099920" lon="49.1345090"><time>2021-08-14T06:56:05</time></trkpt><trkpt lat="55.8100050" lon="49.1344940"><time>2021-08-14T06:56:06</time></trkpt><trkpt lat="55.8100180" lon="49.1344730"><time>2021-08-14T06:56:07</time></trkpt><trkpt lat="55.8100330" lon="49.1344540"><time>2021-08-14T06:56:08</time></trkpt><trkpt lat="55.8100460" lon="49.1344360"><time>2021-08-14T06:56:09</time></trkpt><trkpt lat="55.8100610" lon="49.1344200"><time>2021-08-14T06:56:10</time></trkpt><trkpt lat="55.8100780" lon="49.1344180"><time>2021-08-14T06:56:11</time></trkpt><trkpt lat="55.8100940" lon="49.1344080"><time>2021-08-14T06:56:12</time></trkpt><trkpt lat="55.8101080" lon="49.1343900"><time>2021-08-14T06:56:13</time></trkpt><trkpt lat="55.8101210" lon="49.1343740"><time>2021-08-14T06:56:14</time></trkpt><trkpt lat="55.8101330" lon="49.1343630"><time>2021-08-14T06:56:15</time></trkpt><trkpt lat="55.8101520" lon="49.1343560"><time>2021-08-14T06:56:16</time></trkpt><trkpt lat="55.8101660" lon="49.1343500"><time>2021-08-14T06:56:17</time></trkpt><trkpt lat="55.8101830" lon="49.1343370"><time>2021-08-14T06:56:18</time></trkpt><trkpt lat="55.8101970" lon="49.1343190"><time>2021-08-14T06:56:19</time></trkpt><trkpt lat="55.8102130" lon="49.1343070"><time>2021-08-14T06:56:20</time></trkpt><trkpt lat="55.8102290" lon="49.1342950"><time>2021-08-14T06:56:21</time></trkpt><trkpt lat="55.8102430" lon="49.1342850"><time>2021-08-14T06:56:22</time></trkpt><trkpt lat="55.8102580" lon="49.1342710"><time>2021-08-14T06:56:23</time></trkpt><trkpt lat="55.8102710" lon="49.1342560"><time>2021-08-14T06:56:24</time></trkpt><trkpt lat="55.8102890" lon="49.1342450"><time>2021-08-14T06:56:25</time></trkpt><trkpt lat="55.8103060" lon="49.1342360"><time>2021-08-14T06:56:26</time></trkpt><trkpt lat="55.8103230" lon="49.1342290"><time>2021-08-14T06:56:27</time></trkpt><trkpt lat="55.8103360" lon="49.1342160"><time>2021-08-14T06:56:28</time></trkpt><trkpt lat="55.8103510" lon="49.1342020"><time>2021-08-14T06:56:29</time></trkpt><trkpt lat="55.8103660" lon="49.1341970"><time>2021-08-14T06:56:30</time></trkpt><trkpt lat="55.8103790" lon="49.1341810"><time>2021-08-14T06:56:31</time></trkpt><trkpt lat="55.8103950" lon="49.1341680"><time>2021-08-14T06:56:32</time></trkpt><trkpt lat="55.8104120" lon="49.1341640"><time>2021-08-14T06:56:33</time></trkpt><trkpt lat="55.8104270" lon="49.1341480"><time>2021-08-14T06:56:34</time></trkpt><trkpt lat="55.8104410" lon="49.1341330"><time>2021-08-14T06:56:35</time></trkpt><trkpt lat="55.8104540" lon="49.1341230"><time>2021-08-14T06:56:36</time></trkpt><trkpt lat="55.8104710" lon="49.1341130"><time>2021-08-14T06:56:37</time></trkpt><trkpt lat="55.8104960" lon="49.1340940"><time>2021-08-14T06:56:38</time></trkpt><trkpt lat="55.8105050" lon="49.1340880"><time>2021-08-14T06:56:39</time></trkpt><trkpt lat="55.8105210" lon="49.1340780"><time>2021-08-14T06:56:40</time></trkpt><trkpt lat="55.8105360" lon="49.1340700"><time>2021-08-14T06:56:41</time></trkpt><trkpt lat="55.8105490" lon="49.1340600"><time>2021-08-14T06:56:42</time></trkpt><trkpt lat="55.8105670" lon="49.1340560"><time>2021-08-14T06:56:43</time></trkpt><trkpt lat="55.8105800" lon="49.1340490"><time>2021-08-14T06:56:44</time></trkpt><trkpt lat="55.8105950" lon="49.1340340"><time>2021-08-14T06:56:45</time></trkpt><trkpt lat="55.8106200" lon="49.1340150"><time>2021-08-14T06:56:46</time></trkpt><trkpt lat="55.8106300" lon="49.1340050"><time>2021-08-14T06:56:47</time></trkpt><trkpt lat="55.8106460" lon="49.1339900"><time>2021-08-14T06:56:48</time></trkpt><trkpt lat="55.8106640" lon="49.1339880"><time>2021-08-14T06:56:49</time></trkpt><trkpt lat="55.8106870" lon="49.1339810"><time>2021-08-14T06:56:50</time></trkpt><trkpt lat="55.8106960" lon="49.1339760"><time>2021-08-14T06:56:51</time></trkpt><trkpt lat="55.8107060" lon="49.1339700"><time>2021-08-14T06:56:52</time></trkpt><trkpt lat="55.8107210" lon="49.1339620"><time>2021-08-14T06:56:53</time></trkpt><trkpt lat="55.8107350" lon="49.1339510"><time>2021-08-14T06:56:54</time></trkpt><trkpt lat="55.8107510" lon="49.1339450"><time>2021-08-14T06:56:55</time></trkpt><trkpt lat="55.8107640" lon="49.1339320"><time>2021-08-14T06:56:56</time></trkpt><trkpt lat="55.8107810" lon="49.1339240"><time>2021-08-14T06:56:57</time></trkpt><trkpt lat="55.8107960" lon="49.1339170"><time>2021-08-14T06:56:58</time></trkpt><trkpt lat="55.8108100" lon="49.1339070"><time>2021-08-14T06:56:59</time></trkpt><trkpt lat="55.8108240" lon="49.1338940"><time>2021-08-14T06:57:00</time></trkpt><trkpt lat="55.8108390" lon="49.1338870"><time>2021-08-14T06:57:01</time></trkpt><trkpt lat="55.8108550" lon="49.1338810"><time>2021-08-14T06:57:02</time></trkpt><trkpt lat="55.8108730" lon="49.1338710"><time>2021-08-14T06:57:03</time></trkpt><trkpt lat="55.8109020" lon="49.1338630"><time>2021-08-14T06:57:04</time></trkpt><trkpt lat="55.8109190" lon="49.1338520"><time>2021-08-14T06:57:05</time></trkpt><trkpt lat="55.8109330" lon="49.1338420"><time>2021-08-14T06:57:06</time></trkpt><trkpt lat="55.8109500" lon="49.1338390"><time>2021-08-14T06:57:07</time></trkpt><trkpt lat="55.8109660" lon="49.1338260"><time>2021-08-14T06:57:08</time></trkpt><trkpt lat="55.8109810" lon="49.1338160"><time>2021-08-14T06:57:09</time></trkpt><trkpt lat="55.8110080" lon="49.1337960"><time>2021-08-14T06:57:10</time></trkpt><trkpt lat="55.8110160" lon="49.1337950"><time>2021-08-14T06:57:11</time></trkpt><trkpt lat="55.8110330" lon="49.1337930"><time>2021-08-14T06:57:12</time></trkpt><trkpt lat="55.8110500" lon="49.1337850"><time>2021-08-14T06:57:13</time></trkpt><trkpt lat="55.8110680" lon="49.1337810"><time>2021-08-14T06:57:14</time></trkpt><trkpt lat="55.8110820" lon="49.1337780"><time>2021-08-14T06:57:15</time></trkpt><trkpt lat="55.8110990" lon="49.1337750"><time>2021-08-14T06:57:16</time></trkpt><trkpt lat="55.8111130" lon="49.1337640"><time>2021-08-14T06:57:17</time></trkpt><trkpt lat="55.8111270" lon="49.1337540"><time>2021-08-14T06:57:18</time></trkpt><trkpt lat="55.8111440" lon="49.1337460"><time>2021-08-14T06:57:19</time></trkpt><trkpt lat="55.8111580" lon="49.1337400"><time>2021-08-14T06:57:20</time></trkpt><trkpt lat="55.8111740" lon="49.1337400"><time>2021-08-14T06:57:21</time></trkpt><trkpt lat="55.8111880" lon="49.1337400"><time>2021-08-14T06:57:22</time></trkpt><trkpt lat="55.8112020" lon="49.1337260"><time>2021-08-14T06:57:23</time></trkpt><trkpt lat="55.8112180" lon="49.1337180"><time>2021-08-14T06:57:24</time></trkpt><trkpt lat="55.8112350" lon="49.1337060"><time>2021-08-14T06:57:25</time></trkpt><trkpt lat="55.8112480" lon="49.1337040"><time>2021-08-14T06:57:26</time></trkpt><trkpt lat="55.8112630" lon="49.1337030"><time>2021-08-14T06:57:27</time></trkpt><trkpt lat="55.8112770" lon="49.1336970"><time>2021-08-14T06:57:28</time></trkpt><trkpt lat="55.8112920" lon="49.1336960"><time>2021-08-14T06:57:29</time></trkpt><trkpt lat="55.8113070" lon="49.1336830"><time>2021-08-14T06:57:30</time></trkpt><trkpt lat="55.8113220" lon="49.1336740"><time>2021-08-14T06:57:31</time></trkpt><trkpt lat="55.8113390" lon="49.1336720"><time>2021-08-14T06:57:32</time></trkpt><trkpt lat="55.8113570" lon="49.1336720"><time>2021-08-14T06:57:33</time></trkpt><trkpt lat="55.8113730" lon="49.1336730"><time>2021-08-14T06:57:34</time></trkpt><trkpt lat="55.8113850" lon="49.1336720"><time>2021-08-14T06:57:35</time></trkpt><trkpt lat="55.8114000" lon="49.1336640"><time>2021-08-14T06:57:36</time></trkpt><trkpt lat="55.8114150" lon="49.1336590"><time>2021-08-14T06:57:37</time></trkpt><trkpt lat="55.8114300" lon="49.1336520"><time>2021-08-14T06:57:38</time></trkpt><trkpt lat="55.8114470" lon="49.1336410"><time>2021-08-14T06:57:39</time></trkpt><trkpt lat="55.8114640" lon="49.1336430"><time>2021-08-14T06:57:40</time></trkpt><trkpt lat="55.8114760" lon="49.1336350"><time>2021-08-14T06:57:41</time></trkpt><trkpt lat="55.8114920" lon="49.1336220"><time>2021-08-14T06:57:42</time></trkpt><trkpt lat="55.8115080" lon="49.1336270"><time>2021-08-14T06:57:43</time></trkpt><trkpt lat="55.8115230" lon="49.1336190"><time>2021-08-14T06:57:44</time></trkpt><trkpt lat="55.8115370" lon="49.1336040"><time>2021-08-14T06:57:45</time></trkpt><trkpt lat="55.8115640" lon="49.1335900"><time>2021-08-14T06:57:46</time></trkpt><trkpt lat="55.8115740" lon="49.1335870"><time>2021-08-14T06:57:47</time></trkpt><trkpt lat="55.8115890" lon="49.1335860"><time>2021-08-14T06:57:48</time></trkpt><trkpt lat="55.8116090" lon="49.1335780"><time>2021-08-14T06:57:49</time></trkpt><trkpt lat="55.8116240" lon="49.1335800"><time>2021-08-14T06:57:50</time></trkpt><trkpt lat="55.8116390" lon="49.1335760"><time>2021-08-14T06:57:51</time></trkpt><trkpt lat="55.8116520" lon="49.1335620"><time>2021-08-14T06:57:53</time></trkpt><trkpt lat="55.8116670" lon="49.1335540"><time>2021-08-14T06:57:54</time></trkpt><trkpt lat="55.8116860" lon="49.1335560"><time>2021-08-14T06:57:55</time></trkpt><trkpt lat="55.8117020" lon="49.1335550"><time>2021-08-14T06:57:56</time></trkpt><trkpt lat="55.8117200" lon="49.1335620"><time>2021-08-14T06:57:57</time></trkpt><trkpt lat="55.8117350" lon="49.1335510"><time>2021-08-14T06:57:58</time></trkpt><trkpt lat="55.8117530" lon="49.1335430"><time>2021-08-14T06:57:59</time></trkpt><trkpt lat="55.8117670" lon="49.1335330"><time>2021-08-14T06:58:00</time></trkpt><trkpt lat="55.8117810" lon="49.1335250"><time>2021-08-14T06:58:01</time></trkpt><trkpt lat="55.8117980" lon="49.1335280"><time>2021-08-14T06:58:02</time></trkpt><trkpt lat="55.8118170" lon="49.1335310"><time>2021-08-14T06:58:03</time></trkpt><trkpt lat="55.8118320" lon="49.1335220"><time>2021-08-14T06:58:04</time></trkpt><trkpt lat="55.8118480" lon="49.1335140"><time>2021-08-14T06:58:05</time></trkpt><trkpt lat="55.8118640" lon="49.1335090"><time>2021-08-14T06:58:06</time></trkpt><trkpt lat="55.8118820" lon="49.1335120"><time>2021-08-14T06:58:07</time></trkpt><trkpt lat="55.8118970" lon="49.1335020"><time>2021-08-14T06:58:08</time></trkpt><trkpt lat="55.8119140" lon="49.1335010"><time>2021-08-14T06:58:09</time></trkpt><trkpt lat="55.8119320" lon="49.1334890"><time>2021-08-14T06:58:10</time></trkpt><trkpt lat="55.8119460" lon="49.1334840"><time>2021-08-14T06:58:11</time></trkpt><trkpt lat="55.8119610" lon="49.1334840"><time>2021-08-14T06:58:12</time></trkpt><trkpt lat="55.8119770" lon="49.1334770"><time>2021-08-14T06:58:13</time></trkpt><trkpt lat="55.8119930" lon="49.1334680"><time>2021-08-14T06:58:14</time></trkpt><trkpt lat="55.8120090" lon="49.1334690"><time>2021-08-14T06:58:15</time></trkpt><trkpt lat="55.8120230" lon="49.1334670"><time>2021-08-14T06:58:16</time></trkpt><trkpt lat="55.8120410" lon="49.1334610"><time>2021-08-14T06:58:17</time></trkpt><trkpt lat="55.8120590" lon="49.1334590"><time>2021-08-14T06:58:18</time></trkpt><trkpt lat="55.8120740" lon="49.1334540"><time>2021-08-14T06:58:19</time></trkpt><trkpt lat="55.8120900" lon="49.1334470"><time>2021-08-14T06:58:20</time></trkpt><trkpt lat="55.8121060" lon="49.1334520"><time>2021-08-14T06:58:21</time></trkpt><trkpt lat="55.8121220" lon="49.1334490"><time>2021-08-14T06:58:22</time></trkpt><trkpt lat="55.8121390" lon="49.1334490"><time>2021-08-14T06:58:23</time></trkpt><trkpt lat="55.8121530" lon="49.1334450"><time>2021-08-14T06:58:24</time></trkpt><trkpt lat="55.8121680" lon="49.1334370"><time>2021-08-14T06:58:25</time></trkpt><trkpt lat="55.8121860" lon="49.1334360"><time>2021-08-14T06:58:26</time></trkpt><trkpt lat="55.8122020" lon="49.1334360"><time>2021-08-14T06:58:27</time></trkpt><trkpt lat="55.8122190" lon="49.1334310"><time>2021-08-14T06:58:28</time></trkpt><trkpt lat="55.8122360" lon="49.1334330"><time>2021-08-14T06:58:29</time></trkpt><trkpt lat="55.8122520" lon="49.1334190"><time>2021-08-14T06:58:30</time></trkpt><trkpt lat="55.8122650" lon="49.1334150"><time>2021-08-14T06:58:31</time></trkpt><trkpt lat="55.8122790" lon="49.1334210"><time>2021-08-14T06:58:32</time></trkpt><trkpt lat="55.8122960" lon="49.1334300"><time>2021-08-14T06:58:33</time></trkpt><trkpt lat="55.8123100" lon="49.1334330"><time>2021-08-14T06:58:34</time></trkpt><trkpt lat="55.8123270" lon="49.1334330"><time>2021-08-14T06:58:35</time></trkpt><trkpt lat="55.8123400" lon="49.1334270"><time>2021-08-14T06:58:36</time></trkpt><trkpt lat="55.8123520" lon="49.1334180"><time>2021-08-14T06:58:37</time></trkpt><trkpt lat="55.8123680" lon="49.1334240"><time>2021-08-14T06:58:38</time></trkpt><trkpt lat="55.8123860" lon="49.1334230"><time>2021-08-14T06:58:39</time></trkpt><trkpt lat="55.8124020" lon="49.1334300"><time>2021-08-14T06:58:40</time></trkpt><trkpt lat="55.8124280" lon="49.1334230"><time>2021-08-14T06:58:41</time></trkpt><trkpt lat="55.8124370" lon="49.1334200"><time>2021-08-14T06:58:42</time></trkpt><trkpt lat="55.8124540" lon="49.1334210"><time>2021-08-14T06:58:43</time></trkpt><trkpt lat="55.8124690" lon="49.1334250"><time>2021-08-14T06:58:44</time></trkpt><trkpt lat="55.8124870" lon="49.1334200"><time>2021-08-14T06:58:45</time></trkpt><trkpt lat="55.8125040" lon="49.1334270"><time>2021-08-14T06:58:46</time></trkpt><trkpt lat="55.8125230" lon="49.1334260"><time>2021-08-14T06:58:47</time></trkpt><trkpt lat="55.8125410" lon="49.1334240"><time>2021-08-14T06:58:48</time></trkpt><trkpt lat="55.8125580" lon="49.1334280"><time>2021-08-14T06:58:49</time></trkpt><trkpt lat="55.8125760" lon="49.1334240"><time>2021-08-14T06:58:50</time></trkpt><trkpt lat="55.8125950" lon="49.1334210"><time>2021-08-14T06:58:51</time></trkpt><trkpt lat="55.8126090" lon="49.1334210"><time>2021-08-14T06:58:52</time></trkpt><trkpt lat="55.8126220" lon="49.1334230"><time>2021-08-14T06:58:53</time></trkpt><trkpt lat="55.8126390" lon="49.1334290"><time>2021-08-14T06:58:54</time></trkpt><trkpt lat="55.8126540" lon="49.1334270"><time>2021-08-14T06:58:55</time></trkpt><trkpt lat="55.8126690" lon="49.1334230"><time>2021-08-14T06:58:56</time></trkpt><trkpt lat="55.8126840" lon="49.1334210"><time>2021-08-14T06:58:57</time></trkpt><trkpt lat="55.8127020" lon="49.1334260"><time>2021-08-14T06:58:58</time></trkpt><trkpt lat="55.8127180" lon="49.1334230"><time>2021-08-14T06:58:59</time></trkpt><trkpt lat="55.8127360" lon="49.1334210"><time>2021-08-14T06:59:00</time></trkpt><trkpt lat="55.8127520" lon="49.1334210"><time>2021-08-14T06:59:01</time></trkpt><trkpt lat="55.8127660" lon="49.1334190"><time>2021-08-14T06:59:02</time></trkpt><trkpt lat="55.8127820" lon="49.1334280"><time>2021-08-14T06:59:03</time></trkpt><trkpt lat="55.8127960" lon="49.1334270"><time>2021-08-14T06:59:04</time></trkpt><trkpt lat="55.8128110" lon="49.1334220"><time>2021-08-14T06:59:05</time></trkpt><trkpt lat="55.8128240" lon="49.1334170"><time>2021-08-14T06:59:06</time></trkpt><trkpt lat="55.8128420" lon="49.1334210"><time>2021-08-14T06:59:07</time></trkpt><trkpt lat="55.8128580" lon="49.1334250"><time>2021-08-14T06:59:08</time></trkpt><trkpt lat="55.8128730" lon="49.1334320"><time>2021-08-14T06:59:09</time></trkpt><trkpt lat="55.8128920" lon="49.1334300"><time>2021-08-14T06:59:10</time></trkpt><trkpt lat="55.8129070" lon="49.1334240"><time>2021-08-14T06:59:11</time></trkpt><trkpt lat="55.8129260" lon="49.1334210"><time>2021-08-14T06:59:12</time></trkpt><trkpt lat="55.8129400" lon="49.1334200"><time>2021-08-14T06:59:13</time></trkpt><trkpt lat="55.8129570" lon="49.1334240"><time>2021-08-14T06:59:14</time></trkpt><trkpt lat="55.8129750" lon="49.1334290"><time>2021-08-14T06:59:15</time></trkpt><trkpt lat="55.8129880" lon="49.1334300"><time>2021-08-14T06:59:16</time></trkpt><trkpt lat="55.8130150" lon="49.1334120"><time>2021-08-14T06:59:17</time></trkpt><trkpt lat="55.8130230" lon="49.1334070"><time>2021-08-14T06:59:18</time></trkpt><trkpt lat="55.8130400" lon="49.1334110"><time>2021-08-14T06:59:19</time></trkpt><trkpt lat="55.8130570" lon="49.1334190"><time>2021-08-14T06:59:20</time></trkpt><trkpt lat="55.8130750" lon="49.1334160"><time>2021-08-14T06:59:21</time></trkpt><trkpt lat="55.8130900" lon="49.1334130"><time>2021-08-14T06:59:22</time></trkpt><trkpt lat="55.8131090" lon="49.1334110"><time>2021-08-14T06:59:23</time></trkpt><trkpt lat="55.8131230" lon="49.1334070"><time>2021-08-14T06:59:24</time></trkpt><trkpt lat="55.8131410" lon="49.1333950"><time>2021-08-14T06:59:25</time></trkpt><trkpt lat="55.8131570" lon="49.1333910"><time>2021-08-14T06:59:26</time></trkpt><trkpt lat="55.8131720" lon="49.1333890"><time>2021-08-14T06:59:27</time></trkpt><trkpt lat="55.8131890" lon="49.1333810"><time>2021-08-14T06:59:28</time></trkpt><trkpt lat="55.8132040" lon="49.1333760"><time>2021-08-14T06:59:29</time></trkpt><trkpt lat="55.8132200" lon="49.1333720"><time>2021-08-14T06:59:30</time></trkpt><trkpt lat="55.8132360" lon="49.1333710"><time>2021-08-14T06:59:31</time></trkpt><trkpt lat="55.8132540" lon="49.1333770"><time>2021-08-14T06:59:32</time></trkpt><trkpt lat="55.8132690" lon="49.1333740"><time>2021-08-14T06:59:33</time></trkpt><trkpt lat="55.8132840" lon="49.1333680"><time>2021-08-14T06:59:34</time></trkpt><trkpt lat="55.8133000" lon="49.1333620"><time>2021-08-14T06:59:35</time></trkpt><trkpt lat="55.8133170" lon="49.1333600"><time>2021-08-14T06:59:36</time></trkpt><trkpt lat="55.8133350" lon="49.1333510"><time>2021-08-14T06:59:37</time></trkpt><trkpt lat="55.8133510" lon="49.1333480"><time>2021-08-14T06:59:38</time></trkpt><trkpt lat="55.8133650" lon="49.1333370"><time>2021-08-14T06:59:39</time></trkpt><trkpt lat="55.8133790" lon="49.1333290"><time>2021-08-14T06:59:40</time></trkpt><trkpt lat="55.8133940" lon="49.1333240"><time>2021-08-14T06:59:41</time></trkpt><trkpt lat="55.8134120" lon="49.1333180"><time>2021-08-14T06:59:42</time></trkpt><trkpt lat="55.8134240" lon="49.1333110"><time>2021-08-14T06:59:43</time></trkpt><trkpt lat="55.8134390" lon="49.1333030"><time>2021-08-14T06:59:44</time></trkpt><trkpt lat="55.8134660" lon="49.1332890"><time>2021-08-14T06:59:45</time></trkpt><trkpt lat="55.8134750" lon="49.1332840"><time>2021-08-14T06:59:46</time></trkpt><trkpt lat="55.8134850" lon="49.1332770"><time>2021-08-14T06:59:47</time></trkpt><trkpt lat="55.8135020" lon="49.1332670"><time>2021-08-14T06:59:48</time></trkpt><trkpt lat="55.8135180" lon="49.1332590"><time>2021-08-14T06:59:49</time></trkpt><trkpt lat="55.8135330" lon="49.1332520"><time>2021-08-14T06:59:50</time></trkpt><trkpt lat="55.8135460" lon="49.1332370"><time>2021-08-14T06:59:51</time></trkpt><trkpt lat="55.8135610" lon="49.1332280"><time>2021-08-14T06:59:52</time></trkpt><trkpt lat="55.8135890" lon="49.1332190"><time>2021-08-14T06:59:53</time></trkpt><trkpt lat="55.8135980" lon="49.1332140"><time>2021-08-14T06:59:54</time></trkpt><trkpt lat="55.8136120" lon="49.1332050"><time>2021-08-14T06:59:55</time></trkpt><trkpt lat="55.8136280" lon="49.1331910"><time>2021-08-14T06:59:56</time></trkpt><trkpt lat="55.8136480" lon="49.1331840"><time>2021-08-14T06:59:57</time></trkpt><trkpt lat="55.8136590" lon="49.1331680"><time>2021-08-14T06:59:58</time></trkpt><trkpt lat="55.8136780" lon="49.1331620"><time>2021-08-14T06:59:59</time></trkpt><trkpt lat="55.8136920" lon="49.1331500"><time>2021-08-14T07:00:00</time></trkpt><trkpt lat="55.8137200" lon="49.1331510"><time>2021-08-14T07:00:01</time></trkpt><trkpt lat="55.8137300" lon="49.1331540"><time>2021-08-14T07:00:02</time></trkpt><trkpt lat="55.8137440" lon="49.1331650"><time>2021-08-14T07:00:03</time></trkpt><trkpt lat="55.8137610" lon="49.1331660"><time>2021-08-14T07:00:04</time></trkpt><trkpt lat="55.8137760" lon="49.1331640"><time>2021-08-14T07:00:05</time></trkpt><trkpt lat="55.8137930" lon="49.1331640"><time>2021-08-14T07:00:06</time></trkpt><trkpt lat="55.8138130" lon="49.1331600"><time>2021-08-14T07:00:07</time></trkpt><trkpt lat="55.8138280" lon="49.1331660"><time>2021-08-14T07:00:08</time></trkpt><trkpt lat="55.8138410" lon="49.1331610"><time>2021-08-14T07:00:09</time></trkpt><trkpt lat="55.8138580" lon="49.1331640"><time>2021-08-14T07:00:10</time></trkpt><trkpt lat="55.8138770" lon="49.1331630"><time>2021-08-14T07:00:11</time></trkpt><trkpt lat="55.8138920" lon="49.1331630"><time>2021-08-14T07:00:12</time></trkpt><trkpt lat="55.8139080" lon="49.1331610"><time>2021-08-14T07:00:13</time></trkpt><trkpt lat="55.8139220" lon="49.1331610"><time>2021-08-14T07:00:14</time></trkpt><trkpt lat="55.8139390" lon="49.1331610"><time>2021-08-14T07:00:15</time></trkpt><trkpt lat="55.8139530" lon="49.1331650"><time>2021-08-14T07:00:16</time></trkpt><trkpt lat="55.8139690" lon="49.1331640"><time>2021-08-14T07:00:17</time></trkpt><trkpt lat="55.8139830" lon="49.1331600"><time>2021-08-14T07:00:18</time></trkpt><trkpt lat="55.8139970" lon="49.1331580"><time>2021-08-14T07:00:19</time></trkpt><trkpt lat="55.8140120" lon="49.1331580"><time>2021-08-14T07:00:20</time></trkpt><trkpt lat="55.8140260" lon="49.1331620"><time>2021-08-14T07:00:21</time></trkpt><trkpt lat="55.8140410" lon="49.1331710"><time>2021-08-14T07:00:22</time></trkpt><trkpt lat="55.8140690" lon="49.1331770"><time>2021-08-14T07:00:23</time></trkpt><trkpt lat="55.8140770" lon="49.1331810"><time>2021-08-14T07:00:24</time></trkpt><trkpt lat="55.8140930" lon="49.1331880"><time>2021-08-14T07:00:25</time></trkpt><trkpt lat="55.8141060" lon="49.1331930"><time>2021-08-14T07:00:26</time></trkpt><trkpt lat="55.8141240" lon="49.1332010"><time>2021-08-14T07:00:27</time></trkpt><trkpt lat="55.8141360" lon="49.1332110"><time>2021-08-14T07:00:28</time></trkpt><trkpt lat="55.8141530" lon="49.1332220"><time>2021-08-14T07:00:29</time></trkpt><trkpt lat="55.8141710" lon="49.1332250"><time>2021-08-14T07:00:30</time></trkpt><trkpt lat="55.8141880" lon="49.1332350"><time>2021-08-14T07:00:31</time></trkpt><trkpt lat="55.8142020" lon="49.1332430"><time>2021-08-14T07:00:32</time></trkpt><trkpt lat="55.8142170" lon="49.1332520"><time>2021-08-14T07:00:33</time></trkpt><trkpt lat="55.8142310" lon="49.1332590"><time>2021-08-14T07:00:34</time></trkpt><trkpt lat="55.8142520" lon="49.1332610"><time>2021-08-14T07:00:35</time></trkpt><trkpt lat="55.8142610" lon="49.1332600"><time>2021-08-14T07:00:36</time></trkpt><trkpt lat="55.8142710" lon="49.1332600"><time>2021-08-14T07:00:37</time></trkpt><trkpt lat="55.8142960" lon="49.1332240"><time>2021-08-14T07:00:38</time></trkpt><trkpt lat="55.8143020" lon="49.1332170"><time>2021-08-14T07:00:39</time></trkpt><trkpt lat="55.8143300" lon="49.1332070"><time>2021-08-14T07:00:40</time></trkpt><trkpt lat="55.8143370" lon="49.1332030"><time>2021-08-14T07:00:41</time></trkpt><trkpt lat="55.8143450" lon="49.1331990"><time>2021-08-14T07:00:42</time></trkpt><trkpt lat="55.8143540" lon="49.1331910"><time>2021-08-14T07:00:43</time></trkpt><trkpt lat="55.8143720" lon="49.1331780"><time>2021-08-14T07:00:44</time></trkpt><trkpt lat="55.8143850" lon="49.1331710"><time>2021-08-14T07:00:45</time></trkpt><trkpt lat="55.8144030" lon="49.1331600"><time>2021-08-14T07:00:46</time></trkpt><trkpt lat="55.8144160" lon="49.1331590"><time>2021-08-14T07:00:47</time></trkpt><trkpt lat="55.8144200" lon="49.1331380"><time>2021-08-14T07:00:48</time></trkpt><trkpt lat="55.8144270" lon="49.1331220"><time>2021-08-14T07:00:49</time></trkpt><trkpt lat="55.8144220" lon="49.1331020"><time>2021-08-14T07:00:50</time></trkpt><trkpt lat="55.8144180" lon="49.1330760"><time>2021-08-14T07:00:51</time></trkpt><trkpt lat="55.8144190" lon="49.1330450"><time>2021-08-14T07:00:52</time></trkpt><trkpt lat="55.8144220" lon="49.1330190"><time>2021-08-14T07:00:53</time></trkpt><trkpt lat="55.8144270" lon="49.1329850"><time>2021-08-14T07:00:54</time></trkpt><trkpt lat="55.8144260" lon="49.1329660"><time>2021-08-14T07:00:55</time></trkpt><trkpt lat="55.8144240" lon="49.1329480"><time>2021-08-14T07:00:56</time></trkpt><trkpt lat="55.8144230" lon="49.1329300"><time>2021-08-14T07:00:57</time></trkpt><trkpt lat="55.8144230" lon="49.1328930"><time>2021-08-14T07:00:58</time></trkpt><trkpt lat="55.8144230" lon="49.1328780"><time>2021-08-14T07:00:59</time></trkpt><trkpt lat="55.8144230" lon="49.1328630"><time>2021-08-14T07:01:00</time></trkpt><trkpt lat="55.8144300" lon="49.1328370"><time>2021-08-14T07:01:01</time></trkpt><trkpt lat="55.8144350" lon="49.1328090"><time>2021-08-14T07:01:02</time></trkpt><trkpt lat="55.8144380" lon="49.1327840"><time>2021-08-14T07:01:03</time></trkpt><trkpt lat="55.8144360" lon="49.1327520"><time>2021-08-14T07:01:04</time></trkpt><trkpt lat="55.8144290" lon="49.1327330"><time>2021-08-14T07:01:05</time></trkpt><trkpt lat="55.8144270" lon="49.1327240"><time>2021-08-14T07:01:06</time></trkpt><trkpt lat="55.8144220" lon="49.1326930"><time>2021-08-14T07:01:07</time></trkpt><trkpt lat="55.8144200" lon="49.1326600"><time>2021-08-14T07:01:08</time></trkpt><trkpt lat="55.8144160" lon="49.1326440"><time>2021-08-14T07:01:09</time></trkpt><trkpt lat="55.8144130" lon="49.1326270"><time>2021-08-14T07:01:10</time></trkpt><trkpt lat="55.8143990" lon="49.1325900"><time>2021-08-14T07:01:11</time></trkpt><trkpt lat="55.8143960" lon="49.1325750"><time>2021-08-14T07:01:12</time></trkpt><trkpt lat="55.8143920" lon="49.1325590"><time>2021-08-14T07:01:13</time></trkpt><trkpt lat="55.8143850" lon="49.1325360"><time>2021-08-14T07:01:14</time></trkpt><trkpt lat="55.8143770" lon="49.1325130"><time>2021-08-14T07:01:15</time></trkpt><trkpt lat="55.8143740" lon="49.1324880"><time>2021-08-14T07:01:16</time></trkpt><trkpt lat="55.8143670" lon="49.1324680"><time>2021-08-14T07:01:17</time></trkpt><trkpt lat="55.8143520" lon="49.1324400"><time>2021-08-14T07:01:18</time></trkpt><trkpt lat="55.8143460" lon="49.1324320"><time>2021-08-14T07:01:19</time></trkpt><trkpt lat="55.8143400" lon="49.1324240"><time>2021-08-14T07:01:20</time></trkpt><trkpt lat="55.8143350" lon="49.1324220"><time>2021-08-14T07:01:21</time></trkpt><trkpt lat="55.8143600" lon="49.1324560"><time>2021-08-14T07:01:22</time></trkpt><trkpt lat="55.8143730" lon="49.1324830"><time>2021-08-14T07:01:23</time></trkpt><trkpt lat="55.8143780" lon="49.1325090"><time>2021-08-14T07:01:24</time></trkpt><trkpt lat="55.8143840" lon="49.1325330"><time>2021-08-14T07:01:25</time></trkpt><trkpt lat="55.8143860" lon="49.1325560"><time>2021-08-14T07:01:26</time></trkpt><trkpt lat="55.8143920" lon="49.1325810"><time>2021-08-14T07:01:27</time></trkpt><trkpt lat="55.8143960" lon="49.1326080"><time>2021-08-14T07:01:28</time></trkpt><trkpt lat="55.8144030" lon="49.1326360"><time>2021-08-14T07:01:29</time></trkpt><trkpt lat="55.8144110" lon="49.1326620"><time>2021-08-14T07:01:30</time></trkpt><trkpt lat="55.8144140" lon="49.1326910"><time>2021-08-14T07:01:31</time></trkpt><trkpt lat="55.8144120" lon="49.1327180"><time>2021-08-14T07:01:32</time></trkpt><trkpt lat="55.8144040" lon="49.1327440"><time>2021-08-14T07:01:33</time></trkpt><trkpt lat="55.8143930" lon="49.1327640"><time>2021-08-14T07:01:34</time></trkpt><trkpt lat="55.8143800" lon="49.1327840"><time>2021-08-14T07:01:35</time></trkpt><trkpt lat="55.8143710" lon="49.1328020"><time>2021-08-14T07:01:36</time></trkpt><trkpt lat="55.8143610" lon="49.1328220"><time>2021-08-14T07:01:37</time></trkpt><trkpt lat="55.8143430" lon="49.1328300"><time>2021-08-14T07:01:38</time></trkpt><trkpt lat="55.8143320" lon="49.1328650"><time>2021-08-14T07:01:39</time></trkpt><trkpt lat="55.8143280" lon="49.1328810"><time>2021-08-14T07:01:40</time></trkpt><trkpt lat="55.8143250" lon="49.1328970"><time>2021-08-14T07:01:41</time></trkpt><trkpt lat="55.8143290" lon="49.1329300"><time>2021-08-14T07:01:42</time></trkpt><trkpt lat="55.8143300" lon="49.1329570"><time>2021-08-14T07:01:43</time></trkpt><trkpt lat="55.8143380" lon="49.1329790"><time>2021-08-14T07:01:44</time></trkpt><trkpt lat="55.8143310" lon="49.1330090"><time>2021-08-14T07:01:45</time></trkpt><trkpt lat="55.8143070" lon="49.1330360"><time>2021-08-14T07:01:46</time></trkpt><trkpt lat="55.8142960" lon="49.1330400"><time>2021-08-14T07:01:47</time></trkpt><trkpt lat="55.8142820" lon="49.1330450"><time>2021-08-14T07:01:48</time></trkpt><trkpt lat="55.8142670" lon="49.1330530"><time>2021-08-14T07:01:49</time></trkpt><trkpt lat="55.8142510" lon="49.1330370"><time>2021-08-14T07:01:50</time></trkpt><trkpt lat="55.8142380" lon="49.1330260"><time>2021-08-14T07:01:51</time></trkpt><trkpt lat="55.8142230" lon="49.1330180"><time>2021-08-14T07:01:52</time></trkpt><trkpt lat="55.8142090" lon="49.1330040"><time>2021-08-14T07:01:53</time></trkpt><trkpt lat="55.8141960" lon="49.1329960"><time>2021-08-14T07:01:54</time></trkpt><trkpt lat="55.8141810" lon="49.1329880"><time>2021-08-14T07:01:55</time></trkpt><trkpt lat="55.8141670" lon="49.1329860"><time>2021-08-14T07:01:56</time></trkpt><trkpt lat="55.8141500" lon="49.1329790"><time>2021-08-14T07:01:57</time></trkpt><trkpt lat="55.8141320" lon="49.1329620"><time>2021-08-14T07:01:58</time></trkpt><trkpt lat="55.8141260" lon="49.1329510"><time>2021-08-14T07:01:59</time></trkpt><trkpt lat="55.8141200" lon="49.1329400"><time>2021-08-14T07:02:00</time></trkpt><trkpt lat="55.8141200" lon="49.1329130"><time>2021-08-14T07:02:01</time></trkpt><trkpt lat="55.8141190" lon="49.1328830"><time>2021-08-14T07:02:02</time></trkpt><trkpt lat="55.8141130" lon="49.1328600"><time>2021-08-14T07:02:03</time></trkpt><trkpt lat="55.8141020" lon="49.1328410"><time>2021-08-14T07:02:04</time></trkpt><trkpt lat="55.8140930" lon="49.1328170"><time>2021-08-14T07:02:05</time></trkpt><trkpt lat="55.8140800" lon="49.1327980"><time>2021-08-14T07:02:06</time></trkpt><trkpt lat="55.8140780" lon="49.1327670"><time>2021-08-14T07:02:07</time></trkpt><trkpt lat="55.8140720" lon="49.1327410"><time>2021-08-14T07:02:08</time></trkpt><trkpt lat="55.8140640" lon="49.1327170"><time>2021-08-14T07:02:09</time></trkpt><trkpt lat="55.8140630" lon="49.1326910"><time>2021-08-14T07:02:10</time></trkpt><trkpt lat="55.8140540" lon="49.1326680"><time>2021-08-14T07:02:11</time></trkpt><trkpt lat="55.8140500" lon="49.1326410"><time>2021-08-14T07:02:12</time></trkpt><trkpt lat="55.8140510" lon="49.1326120"><time>2021-08-14T07:02:13</time></trkpt><trkpt lat="55.8140510" lon="49.1325860"><time>2021-08-14T07:02:14</time></trkpt><trkpt lat="55.8140480" lon="49.1325590"><time>2021-08-14T07:02:15</time></trkpt><trkpt lat="55.8140470" lon="49.1325320"><time>2021-08-14T07:02:16</time></trkpt><trkpt lat="55.8140400" lon="49.1325070"><time>2021-08-14T07:02:17</time></trkpt><trkpt lat="55.8140390" lon="49.1324770"><time>2021-08-14T07:02:18</time></trkpt><trkpt lat="55.8140320" lon="49.1324500"><time>2021-08-14T07:02:19</time></trkpt><trkpt lat="55.8140190" lon="49.1324250"><time>2021-08-14T07:02:20</time></trkpt><trkpt lat="55.8140100" lon="49.1323990"><time>2021-08-14T07:02:21</time></trkpt><trkpt lat="55.8139990" lon="49.1323740"><time>2021-08-14T07:02:22</time></trkpt><trkpt lat="55.8139980" lon="49.1323490"><time>2021-08-14T07:02:23</time></trkpt><trkpt lat="55.8140000" lon="49.1323220"><time>2021-08-14T07:02:24</time></trkpt><trkpt lat="55.8140040" lon="49.1322950"><time>2021-08-14T07:02:25</time></trkpt><trkpt lat="55.8140050" lon="49.1322660"><time>2021-08-14T07:02:26</time></trkpt><trkpt lat="55.8140050" lon="49.1322360"><time>2021-08-14T07:02:27</time></trkpt><trkpt lat="55.8140010" lon="49.1322060"><time>2021-08-14T07:02:28</time></trkpt><trkpt lat="55.8139980" lon="49.1321780"><time>2021-08-14T07:02:29</time></trkpt><trkpt lat="55.8139930" lon="49.1321480"><time>2021-08-14T07:02:30</time></trkpt><trkpt lat="55.8139910" lon="49.1321200"><time>2021-08-14T07:02:31</time></trkpt><trkpt lat="55.8139880" lon="49.1320930"><time>2021-08-14T07:02:32</time></trkpt><trkpt lat="55.8139800" lon="49.1320670"><time>2021-08-14T07:02:33</time></trkpt><trkpt lat="55.8139750" lon="49.1320370"><time>2021-08-14T07:02:34</time></trkpt><trkpt lat="55.8139690" lon="49.1320130"><time>2021-08-14T07:02:35</time></trkpt><trkpt lat="55.8139620" lon="49.1319880"><time>2021-08-14T07:02:36</time></trkpt><trkpt lat="55.8139590" lon="49.1319610"><time>2021-08-14T07:02:37</time></trkpt><trkpt lat="55.8139530" lon="49.1319340"><time>2021-08-14T07:02:38</time></trkpt><trkpt lat="55.8139490" lon="49.1319080"><time>2021-08-14T07:02:39</time></trkpt><trkpt lat="55.8139420" lon="49.1318840"><time>2021-08-14T07:02:40</time></trkpt><trkpt lat="55.8139370" lon="49.1318570"><time>2021-08-14T07:02:41</time></trkpt><trkpt lat="55.8139300" lon="49.1318340"><time>2021-08-14T07:02:42</time></trkpt><trkpt lat="55.8139280" lon="49.1318080"><time>2021-08-14T07:02:43</time></trkpt><trkpt lat="55.8139230" lon="49.1317830"><time>2021-08-14T07:02:44</time></trkpt><trkpt lat="55.8139180" lon="49.1317590"><time>2021-08-14T07:02:45</time></trkpt><trkpt lat="55.8139190" lon="49.1317310"><time>2021-08-14T07:02:46</time></trkpt><trkpt lat="55.8139140" lon="49.1317080"><time>2021-08-14T07:02:47</time></trkpt><trkpt lat="55.8139080" lon="49.1316820"><time>2021-08-14T07:02:48</time></trkpt><trkpt lat="55.8139070" lon="49.1316560"><time>2021-08-14T07:02:49</time></trkpt><trkpt lat="55.8138970" lon="49.1316320"><time>2021-08-14T07:02:50</time></trkpt><trkpt lat="55.8138880" lon="49.1316040"><time>2021-08-14T07:02:51</time></trkpt><trkpt lat="55.8138760" lon="49.1315800"><time>2021-08-14T07:02:52</time></trkpt><trkpt lat="55.8138630" lon="49.1315570"><time>2021-08-14T07:02:53</time></trkpt><trkpt lat="55.8138490" lon="49.1315400"><time>2021-08-14T07:02:54</time></trkpt><trkpt lat="55.8138340" lon="49.1315260"><time>2021-08-14T07:02:55</time></trkpt><trkpt lat="55.8138150" lon="49.1315200"><time>2021-08-14T07:02:56</time></trkpt><trkpt lat="55.8138000" lon="49.1315080"><time>2021-08-14T07:02:57</time></trkpt><trkpt lat="55.8137850" lon="49.1314940"><time>2021-08-14T07:02:58</time></trkpt><trkpt lat="55.8137720" lon="49.1314750"><time>2021-08-14T07:02:59</time></trkpt><trkpt lat="55.8137620" lon="49.1314520"><time>2021-08-14T07:03:00</time></trkpt><trkpt lat="55.8137530" lon="49.1314280"><time>2021-08-14T07:03:01</time></trkpt><trkpt lat="55.8137430" lon="49.1314060"><time>2021-08-14T07:03:02</time></trkpt><trkpt lat="55.8137350" lon="49.1313820"><time>2021-08-14T07:03:03</time></trkpt><trkpt lat="55.8137240" lon="49.1313610"><time>2021-08-14T07:03:04</time></trkpt><trkpt lat="55.8137100" lon="49.1313430"><time>2021-08-14T07:03:05</time></trkpt><trkpt lat="55.8137010" lon="49.1313240"><time>2021-08-14T07:03:06</time></trkpt><trkpt lat="55.8136910" lon="49.1313030"><time>2021-08-14T07:03:07</time></trkpt><trkpt lat="55.8136830" lon="49.1312820"><time>2021-08-14T07:03:08</time></trkpt><trkpt lat="55.8136720" lon="49.1312630"><time>2021-08-14T07:03:09</time></trkpt><trkpt lat="55.8136620" lon="49.1312460"><time>2021-08-14T07:03:10</time></trkpt><trkpt lat="55.8136540" lon="49.1312200"><time>2021-08-14T07:03:11</time></trkpt><trkpt lat="55.8136500" lon="49.1311980"><time>2021-08-14T07:03:12</time></trkpt><trkpt lat="55.8136420" lon="49.1311780"><time>2021-08-14T07:03:13</time></trkpt><trkpt lat="55.8136270" lon="49.1311670"><time>2021-08-14T07:03:14</time></trkpt><trkpt lat="55.8136150" lon="49.1311380"><time>2021-08-14T07:03:15</time></trkpt><trkpt lat="55.8136110" lon="49.1311220"><time>2021-08-14T07:03:16</time></trkpt><trkpt lat="55.8136070" lon="49.1311070"><time>2021-08-14T07:03:17</time></trkpt><trkpt lat="55.8136010" lon="49.1310860"><time>2021-08-14T07:03:18</time></trkpt><trkpt lat="55.8135960" lon="49.1310620"><time>2021-08-14T07:03:19</time></trkpt><trkpt lat="55.8135940" lon="49.1310370"><time>2021-08-14T07:03:20</time></trkpt><trkpt lat="55.8135900" lon="49.1310120"><time>2021-08-14T07:03:21</time></trkpt><trkpt lat="55.8135830" lon="49.1309870"><time>2021-08-14T07:03:22</time></trkpt><trkpt lat="55.8135720" lon="49.1309680"><time>2021-08-14T07:03:23</time></trkpt><trkpt lat="55.8135680" lon="49.1309390"><time>2021-08-14T07:03:24</time></trkpt><trkpt lat="55.8135690" lon="49.1309110"><time>2021-08-14T07:03:25</time></trkpt><trkpt lat="55.8135710" lon="49.1308770"><time>2021-08-14T07:03:26</time></trkpt><trkpt lat="55.8135740" lon="49.1308620"><time>2021-08-14T07:03:27</time></trkpt><trkpt lat="55.8135770" lon="49.1308470"><time>2021-08-14T07:03:28</time></trkpt><trkpt lat="55.8135930" lon="49.1308180"><time>2021-08-14T07:03:29</time></trkpt><trkpt lat="55.8135990" lon="49.1308080"><time>2021-08-14T07:03:30</time></trkpt><trkpt lat="55.8136060" lon="49.1307970"><time>2021-08-14T07:03:31</time></trkpt><trkpt lat="55.8136170" lon="49.1307890"><time>2021-08-14T07:03:32</time></trkpt><trkpt lat="55.8136280" lon="49.1307760"><time>2021-08-14T07:03:33</time></trkpt><trkpt lat="55.8136370" lon="49.1307650"><time>2021-08-14T07:03:34</time></trkpt><trkpt lat="55.8136470" lon="49.1307330"><time>2021-08-14T07:03:35</time></trkpt><trkpt lat="55.8136500" lon="49.1307180"><time>2021-08-14T07:03:36</time></trkpt><trkpt lat="55.8136520" lon="49.1307030"><time>2021-08-14T07:03:37</time></trkpt><trkpt lat="55.8136560" lon="49.1306740"><time>2021-08-14T07:03:38</time></trkpt><trkpt lat="55.8136580" lon="49.1306660"><time>2021-08-14T07:03:39</time></trkpt><trkpt lat="55.8136590" lon="49.1306580"><time>2021-08-14T07:03:40</time></trkpt><trkpt lat="55.8136600" lon="49.1306490"><time>2021-08-14T07:03:41</time></trkpt><trkpt lat="55.8136610" lon="49.1306410"><time>2021-08-14T07:03:42</time></trkpt><trkpt lat="55.8136630" lon="49.1306330"><time>2021-08-14T07:03:43</time></trkpt><trkpt lat="55.8136640" lon="49.1306250"><time>2021-08-14T07:03:44</time></trkpt><trkpt lat="55.8136650" lon="49.1306170"><time>2021-08-14T07:03:45</time></trkpt><trkpt lat="55.8136670" lon="49.1306090"><time>2021-08-14T07:03:46</time></trkpt><trkpt lat="55.8136680" lon="49.1306000"><time>2021-08-14T07:03:47</time></trkpt><trkpt lat="55.8136690" lon="49.1305920"><time>2021-08-14T07:03:48</time></trkpt><trkpt lat="55.8136700" lon="49.1305840"><time>2021-08-14T07:03:49</time></trkpt><trkpt lat="55.8136720" lon="49.1305760"><time>2021-08-14T07:03:50</time></trkpt><trkpt lat="55.8136730" lon="49.1305680"><time>2021-08-14T07:03:51</time></trkpt><trkpt lat="55.8136740" lon="49.1305600"><time>2021-08-14T07:03:52</time></trkpt><trkpt lat="55.8136750" lon="49.1305510"><time>2021-08-14T07:03:53</time></trkpt><trkpt lat="55.8136770" lon="49.1305430"><time>2021-08-14T07:03:54</time></trkpt><trkpt lat="55.8136780" lon="49.1305350"><time>2021-08-14T07:03:55</time></trkpt><trkpt lat="55.8136840" lon="49.1305170"><time>2021-08-14T07:03:56</time></trkpt><trkpt lat="55.8136890" lon="49.1305040"><time>2021-08-14T07:03:57</time></trkpt><trkpt lat="55.8136940" lon="49.1304860"><time>2021-08-14T07:03:58</time></trkpt><trkpt lat="55.8136970" lon="49.1304510"><time>2021-08-14T07:03:59</time></trkpt><trkpt lat="55.8136990" lon="49.1304370"><time>2021-08-14T07:04:00</time></trkpt><trkpt lat="55.8137000" lon="49.1304220"><time>2021-08-14T07:04:01</time></trkpt><trkpt lat="55.8137030" lon="49.1304040"><time>2021-08-14T07:04:02</time></trkpt><trkpt lat="55.8137070" lon="49.1303840"><time>2021-08-14T07:04:03</time></trkpt><trkpt lat="55.8137130" lon="49.1303620"><time>2021-08-14T07:04:04</time></trkpt><trkpt lat="55.8137170" lon="49.1303420"><time>2021-08-14T07:04:05</time></trkpt><trkpt lat="55.8137190" lon="49.1303210"><time>2021-08-14T07:04:06</time></trkpt><trkpt lat="55.8137190" lon="49.1303070"><time>2021-08-14T07:04:07</time></trkpt><trkpt lat="55.8137250" lon="49.1302900"><time>2021-08-14T07:04:08</time></trkpt><trkpt lat="55.8137300" lon="49.1302690"><time>2021-08-14T07:04:09</time></trkpt><trkpt lat="55.8137350" lon="49.1302510"><time>2021-08-14T07:04:10</time></trkpt><trkpt lat="55.8137410" lon="49.1302350"><time>2021-08-14T07:04:11</time></trkpt><trkpt lat="55.8137460" lon="49.1302150"><time>2021-08-14T07:04:12</time></trkpt><trkpt lat="55.8137490" lon="49.1301950"><time>2021-08-14T07:04:13</time></trkpt><trkpt lat="55.8137570" lon="49.1301630"><time>2021-08-14T07:04:14</time></trkpt><trkpt lat="55.8137600" lon="49.1301480"><time>2021-08-14T07:04:15</time></trkpt><trkpt lat="55.8137640" lon="49.1301320"><time>2021-08-14T07:04:16</time></trkpt><trkpt lat="55.8137680" lon="49.1301120"><time>2021-08-14T07:04:17</time></trkpt><trkpt lat="55.8137740" lon="49.1300940"><time>2021-08-14T07:04:18</time></trkpt><trkpt lat="55.8137810" lon="49.1300760"><time>2021-08-14T07:04:19</time></trkpt><trkpt lat="55.8137870" lon="49.1300590"><time>2021-08-14T07:04:20</time></trkpt><trkpt lat="55.8137890" lon="49.1300340"><time>2021-08-14T07:04:21</time></trkpt><trkpt lat="55.8137850" lon="49.1300160"><time>2021-08-14T07:04:22</time></trkpt><trkpt lat="55.8137780" lon="49.1299940"><time>2021-08-14T07:04:23</time></trkpt><trkpt lat="55.8137750" lon="49.1299820"><time>2021-08-14T07:04:24</time></trkpt><trkpt lat="55.8137700" lon="49.1299600"><time>2021-08-14T07:04:25</time></trkpt><trkpt lat="55.8137620" lon="49.1299360"><time>2021-08-14T07:04:26</time></trkpt><trkpt lat="55.8137570" lon="49.1299120"><time>2021-08-14T07:04:27</time></trkpt><trkpt lat="55.8137580" lon="49.1298860"><time>2021-08-14T07:04:28</time></trkpt><trkpt lat="55.8137690" lon="49.1298650"><time>2021-08-14T07:04:29</time></trkpt><trkpt lat="55.8137830" lon="49.1298450"><time>2021-08-14T07:04:30</time></trkpt><trkpt lat="55.8137940" lon="49.1298260"><time>2021-08-14T07:04:31</time></trkpt><trkpt lat="55.8138050" lon="49.1298050"><time>2021-08-14T07:04:32</time></trkpt><trkpt lat="55.8138160" lon="49.1297870"><time>2021-08-14T07:04:33</time></trkpt><trkpt lat="55.8138230" lon="49.1297610"><time>2021-08-14T07:04:34</time></trkpt><trkpt lat="55.8138310" lon="49.1297370"><time>2021-08-14T07:04:35</time></trkpt><trkpt lat="55.8138370" lon="49.1297140"><time>2021-08-14T07:04:36</time></trkpt><trkpt lat="55.8138440" lon="49.1296900"><time>2021-08-14T07:04:37</time></trkpt><trkpt lat="55.8138490" lon="49.1296650"><time>2021-08-14T07:04:38</time></trkpt><trkpt lat="55.8138550" lon="49.1296400"><time>2021-08-14T07:04:39</time></trkpt><trkpt lat="55.8138610" lon="49.1296140"><time>2021-08-14T07:04:40</time></trkpt><trkpt lat="55.8138660" lon="49.1295890"><time>2021-08-14T07:04:41</time></trkpt><trkpt lat="55.8138710" lon="49.1295650"><time>2021-08-14T07:04:42</time></trkpt><trkpt lat="55.8138770" lon="49.1295390"><time>2021-08-14T07:04:43</time></trkpt><trkpt lat="55.8138830" lon="49.1295160"><time>2021-08-14T07:04:44</time></trkpt><trkpt lat="55.8138890" lon="49.1294930"><time>2021-08-14T07:04:45</time></trkpt><trkpt lat="55.8138980" lon="49.1294740"><time>2021-08-14T07:04:46</time></trkpt><trkpt lat="55.8139030" lon="49.1294490"><time>2021-08-14T07:04:47</time></trkpt><trkpt lat="55.8139090" lon="49.1294240"><time>2021-08-14T07:04:48</time></trkpt><trkpt lat="55.8139140" lon="49.1293990"><time>2021-08-14T07:04:49</time></trkpt><trkpt lat="55.8139190" lon="49.1293750"><time>2021-08-14T07:04:50</time></trkpt><trkpt lat="55.8139250" lon="49.1293500"><time>2021-08-14T07:04:51</time></trkpt><trkpt lat="55.8139310" lon="49.1293230"><time>2021-08-14T07:04:52</time></trkpt><trkpt lat="55.8139350" lon="49.1292960"><time>2021-08-14T07:04:53</time></trkpt><trkpt lat="55.8139390" lon="49.1292710"><time>2021-08-14T07:04:54</time></trkpt><trkpt lat="55.8139450" lon="49.1292460"><time>2021-08-14T07:04:55</time></trkpt><trkpt lat="55.8139520" lon="49.1292210"><time>2021-08-14T07:04:56</time></trkpt><trkpt lat="55.8139580" lon="49.1291980"><time>2021-08-14T07:04:57</time></trkpt><trkpt lat="55.8139670" lon="49.1291730"><time>2021-08-14T07:04:58</time></trkpt><trkpt lat="55.8139740" lon="49.1291500"><time>2021-08-14T07:04:59</time></trkpt><trkpt lat="55.8139820" lon="49.1291260"><time>2021-08-14T07:05:00</time></trkpt><trkpt lat="55.8139910" lon="49.1291020"><time>2021-08-14T07:05:01</time></trkpt><trkpt lat="55.8139970" lon="49.1290800"><time>2021-08-14T07:05:02</time></trkpt><trkpt lat="55.8140040" lon="49.1290560"><time>2021-08-14T07:05:03</time></trkpt><trkpt lat="55.8140120" lon="49.1290340"><time>2021-08-14T07:05:04</time></trkpt><trkpt lat="55.8140230" lon="49.1290140"><time>2021-08-14T07:05:05</time></trkpt><trkpt lat="55.8140340" lon="49.1289930"><time>2021-08-14T07:05:06</time></trkpt><trkpt lat="55.8140400" lon="49.1289680"><time>2021-08-14T07:05:07</time></trkpt><trkpt lat="55.8140480" lon="49.1289440"><time>2021-08-14T07:05:08</time></trkpt><trkpt lat="55.8140560" lon="49.1289210"><time>2021-08-14T07:05:09</time></trkpt><trkpt lat="55.8140650" lon="49.1288990"><time>2021-08-14T07:05:10</time></trkpt><trkpt lat="55.8140720" lon="49.1288760"><time>2021-08-14T07:05:11</time></trkpt><trkpt lat="55.8140790" lon="49.1288550"><time>2021-08-14T07:05:12</time></trkpt><trkpt lat="55.8140890" lon="49.1288350"><time>2021-08-14T07:05:13</time></trkpt><trkpt lat="55.8140940" lon="49.1288130"><time>2021-08-14T07:05:14</time></trkpt><trkpt lat="55.8141020" lon="49.1287910"><time>2021-08-14T07:05:15</time></trkpt><trkpt lat="55.8141090" lon="49.1287700"><time>2021-08-14T07:05:16</time></trkpt><trkpt lat="55.8141200" lon="49.1287530"><time>2021-08-14T07:05:17</time></trkpt><trkpt lat="55.8141360" lon="49.1287240"><time>2021-08-14T07:05:18</time></trkpt><trkpt lat="55.8141420" lon="49.1287110"><time>2021-08-14T07:05:19</time></trkpt><trkpt lat="55.8141480" lon="49.1286980"><time>2021-08-14T07:05:20</time></trkpt><trkpt lat="55.8141560" lon="49.1286780"><time>2021-08-14T07:05:21</time></trkpt><trkpt lat="55.8141620" lon="49.1286560"><time>2021-08-14T07:05:22</time></trkpt><trkpt lat="55.8141720" lon="49.1286370"><time>2021-08-14T07:05:23</time></trkpt><trkpt lat="55.8141840" lon="49.1286230"><time>2021-08-14T07:05:24</time></trkpt><trkpt lat="55.8141960" lon="49.1286080"><time>2021-08-14T07:05:25</time></trkpt><trkpt lat="55.8142100" lon="49.1285950"><time>2021-08-14T07:05:26</time></trkpt><trkpt lat="55.8142240" lon="49.1285880"><time>2021-08-14T07:05:27</time></trkpt><trkpt lat="55.8142350" lon="49.1285710"><time>2021-08-14T07:05:28</time></trkpt><trkpt lat="55.8142430" lon="49.1285490"><time>2021-08-14T07:05:29</time></trkpt><trkpt lat="55.8142510" lon="49.1285290"><time>2021-08-14T07:05:30</time></trkpt><trkpt lat="55.8142600" lon="49.1285100"><time>2021-08-14T07:05:31</time></trkpt><trkpt lat="55.8142680" lon="49.1284910"><time>2021-08-14T07:05:32</time></trkpt><trkpt lat="55.8142740" lon="49.1284690"><time>2021-08-14T07:05:33</time></trkpt><trkpt lat="55.8142820" lon="49.1284490"><time>2021-08-14T07:05:34</time></trkpt><trkpt lat="55.8142930" lon="49.1284320"><time>2021-08-14T07:05:35</time></trkpt><trkpt lat="55.8143010" lon="49.1284130"><time>2021-08-14T07:05:36</time></trkpt><trkpt lat="55.8143160" lon="49.1283870"><time>2021-08-14T07:05:37</time></trkpt><trkpt lat="55.8143230" lon="49.1283770"><time>2021-08-14T07:05:38</time></trkpt><trkpt lat="55.8143290" lon="49.1283660"><time>2021-08-14T07:05:39</time></trkpt><trkpt lat="55.8143390" lon="49.1283550"><time>2021-08-14T07:05:40</time></trkpt><trkpt lat="55.8143480" lon="49.1283440"><time>2021-08-14T07:05:41</time></trkpt><trkpt lat="55.8143570" lon="49.1283320"><time>2021-08-14T07:05:42</time></trkpt><trkpt lat="55.8143610" lon="49.1283240"><time>2021-08-14T07:05:43</time></trkpt><trkpt lat="55.8143650" lon="49.1283190"><time>2021-08-14T07:05:44</time></trkpt><trkpt lat="55.8143670" lon="49.1283250"><time>2021-08-14T07:05:45</time></trkpt><trkpt lat="55.8143680" lon="49.1283250"><time>2021-08-14T07:05:46</time></trkpt><trkpt lat="55.8143650" lon="49.1283260"><time>2021-08-14T07:05:47</time></trkpt><trkpt lat="55.8143630" lon="49.1283240"><time>2021-08-14T07:05:48</time></trkpt><trkpt lat="55.8143630" lon="49.1283250"><time>2021-08-14T07:05:49</time></trkpt><trkpt lat="55.8143630" lon="49.1283250"><time>2021-08-14T07:05:50</time></trkpt><trkpt lat="55.8143630" lon="49.1283250"><time>2021-08-14T07:05:51</time></trkpt><trkpt lat="55.8143660" lon="49.1283230"><time>2021-08-14T07:05:52</time></trkpt><trkpt lat="55.8143750" lon="49.1283140"><time>2021-08-14T07:05:53</time></trkpt><trkpt lat="55.8143850" lon="49.1283070"><time>2021-08-14T07:05:54</time></trkpt><trkpt lat="55.8143960" lon="49.1282960"><time>2021-08-14T07:05:55</time></trkpt><trkpt lat="55.8144040" lon="49.1282870"><time>2021-08-14T07:05:56</time></trkpt><trkpt lat="55.8144120" lon="49.1282890"><time>2021-08-14T07:05:57</time></trkpt><trkpt lat="55.8144210" lon="49.1282910"><time>2021-08-14T07:05:58</time></trkpt><trkpt lat="55.8144320" lon="49.1282910"><time>2021-08-14T07:05:59</time></trkpt><trkpt lat="55.8144410" lon="49.1282960"><time>2021-08-14T07:06:00</time></trkpt><trkpt lat="55.8144540" lon="49.1282960"><time>2021-08-14T07:06:01</time></trkpt><trkpt lat="55.8144660" lon="49.1282990"><time>2021-08-14T07:06:02</time></trkpt><trkpt lat="55.8144730" lon="49.1282970"><time>2021-08-14T07:06:03</time></trkpt><trkpt lat="55.8144910" lon="49.1282940"><time>2021-08-14T07:06:04</time></trkpt><trkpt lat="55.8144970" lon="49.1282920"><time>2021-08-14T07:06:05</time></trkpt><trkpt lat="55.8145040" lon="49.1282900"><time>2021-08-14T07:06:06</time></trkpt><trkpt lat="55.8145100" lon="49.1282880"><time>2021-08-14T07:06:07</time></trkpt><trkpt lat="55.8145210" lon="49.1282950"><time>2021-08-14T07:06:08</time></trkpt><trkpt lat="55.8145300" lon="49.1283010"><time>2021-08-14T07:06:09</time></trkpt><trkpt lat="55.8145380" lon="49.1283060"><time>2021-08-14T07:06:10</time></trkpt><trkpt lat="55.8145470" lon="49.1283120"><time>2021-08-14T07:06:11</time></trkpt><trkpt lat="55.8145620" lon="49.1282980"><time>2021-08-14T07:06:12</time></trkpt><trkpt lat="55.8145700" lon="49.1282750"><time>2021-08-14T07:06:13</time></trkpt><trkpt lat="55.8145750" lon="49.1282530"><time>2021-08-14T07:06:14</time></trkpt><trkpt lat="55.8145850" lon="49.1282310"><time>2021-08-14T07:06:15</time></trkpt><trkpt lat="55.8145940" lon="49.1282180"><time>2021-08-14T07:06:16</time></trkpt><trkpt lat="55.8146080" lon="49.1282020"><time>2021-08-14T07:06:17</time></trkpt><trkpt lat="55.8146160" lon="49.1281870"><time>2021-08-14T07:06:18</time></trkpt><trkpt lat="55.8146280" lon="49.1281710"><time>2021-08-14T07:06:19</time></trkpt><trkpt lat="55.8146460" lon="49.1281490"><time>2021-08-14T07:06:20</time></trkpt><trkpt lat="55.8146540" lon="49.1281380"><time>2021-08-14T07:06:21</time></trkpt><trkpt lat="55.8146620" lon="49.1281280"><time>2021-08-14T07:06:22</time></trkpt><trkpt lat="55.8146760" lon="49.1281140"><time>2021-08-14T07:06:23</time></trkpt><trkpt lat="55.8146900" lon="49.1281000"><time>2021-08-14T07:06:24</time></trkpt><trkpt lat="55.8147040" lon="49.1280890"><time>2021-08-14T07:06:25</time></trkpt><trkpt lat="55.8147170" lon="49.1280790"><time>2021-08-14T07:06:26</time></trkpt><trkpt lat="55.8147300" lon="49.1280730"><time>2021-08-14T07:06:27</time></trkpt><trkpt lat="55.8147440" lon="49.1280600"><time>2021-08-14T07:06:28</time></trkpt><trkpt lat="55.8147640" lon="49.1280450"><time>2021-08-14T07:06:29</time></trkpt><trkpt lat="55.8147730" lon="49.1280390"><time>2021-08-14T07:06:30</time></trkpt><trkpt lat="55.8147810" lon="49.1280330"><time>2021-08-14T07:06:31</time></trkpt><trkpt lat="55.8147930" lon="49.1280120"><time>2021-08-14T07:06:32</time></trkpt><trkpt lat="55.8148090" lon="49.1279960"><time>2021-08-14T07:06:33</time></trkpt><trkpt lat="55.8148310" lon="49.1279830"><time>2021-08-14T07:06:34</time></trkpt><trkpt lat="55.8148410" lon="49.1279760"><time>2021-08-14T07:06:35</time></trkpt><trkpt lat="55.8148500" lon="49.1279680"><time>2021-08-14T07:06:36</time></trkpt><trkpt lat="55.8148580" lon="49.1279560"><time>2021-08-14T07:06:37</time></trkpt><trkpt lat="55.8148750" lon="49.1279420"><time>2021-08-14T07:06:38</time></trkpt><trkpt lat="55.8148910" lon="49.1279240"><time>2021-08-14T07:06:39</time></trkpt><trkpt lat="55.8149050" lon="49.1279070"><time>2021-08-14T07:06:40</time></trkpt><trkpt lat="55.8149190" lon="49.1278880"><time>2021-08-14T07:06:41</time></trkpt><trkpt lat="55.8149330" lon="49.1278700"><time>2021-08-14T07:06:42</time></trkpt><trkpt lat="55.8149470" lon="49.1278210"><time>2021-08-14T07:06:43</time></trkpt><trkpt lat="55.8149520" lon="49.1278050"><time>2021-08-14T07:06:44</time></trkpt><trkpt lat="55.8149550" lon="49.1277740"><time>2021-08-14T07:06:45</time></trkpt><trkpt lat="55.8149590" lon="49.1277440"><time>2021-08-14T07:06:46</time></trkpt><trkpt lat="55.8149610" lon="49.1277180"><time>2021-08-14T07:06:47</time></trkpt><trkpt lat="55.8149670" lon="49.1276930"><time>2021-08-14T07:06:48</time></trkpt><trkpt lat="55.8149730" lon="49.1276670"><time>2021-08-14T07:06:49</time></trkpt><trkpt lat="55.8149810" lon="49.1276350"><time>2021-08-14T07:06:50</time></trkpt><trkpt lat="55.8149890" lon="49.1275970"><time>2021-08-14T07:06:51</time></trkpt><trkpt lat="55.8149970" lon="49.1275820"><time>2021-08-14T07:06:52</time></trkpt><trkpt lat="55.8150050" lon="49.1275660"><time>2021-08-14T07:06:53</time></trkpt><trkpt lat="55.8150160" lon="49.1275430"><time>2021-08-14T07:06:54</time></trkpt><trkpt lat="55.8150250" lon="49.1275190"><time>2021-08-14T07:06:55</time></trkpt><trkpt lat="55.8150470" lon="49.1274800"><time>2021-08-14T07:06:56</time></trkpt><trkpt lat="55.8150540" lon="49.1274650"><time>2021-08-14T07:06:57</time></trkpt><trkpt lat="55.8150830" lon="49.1274290"><time>2021-08-14T07:06:58</time></trkpt><trkpt lat="55.8150900" lon="49.1274130"><time>2021-08-14T07:06:59</time></trkpt><trkpt lat="55.8150940" lon="49.1273850"><time>2021-08-14T07:07:00</time></trkpt><trkpt lat="55.8150900" lon="49.1273560"><time>2021-08-14T07:07:01</time></trkpt><trkpt lat="55.8150880" lon="49.1273300"><time>2021-08-14T07:07:02</time></trkpt><trkpt lat="55.8150880" lon="49.1273070"><time>2021-08-14T07:07:03</time></trkpt><trkpt lat="55.8150740" lon="49.1272670"><time>2021-08-14T07:07:04</time></trkpt><trkpt lat="55.8150660" lon="49.1272540"><time>2021-08-14T07:07:05</time></trkpt><trkpt lat="55.8150630" lon="49.1272340"><time>2021-08-14T07:07:06</time></trkpt><trkpt lat="55.8150660" lon="49.1272060"><time>2021-08-14T07:07:07</time></trkpt><trkpt lat="55.8150650" lon="49.1271760"><time>2021-08-14T07:07:08</time></trkpt><trkpt lat="55.8150680" lon="49.1271480"><time>2021-08-14T07:07:09</time></trkpt><trkpt lat="55.8150750" lon="49.1271230"><time>2021-08-14T07:07:10</time></trkpt><trkpt lat="55.8150790" lon="49.1270930"><time>2021-08-14T07:07:11</time></trkpt><trkpt lat="55.8150940" lon="49.1270740"><time>2021-08-14T07:07:12</time></trkpt><trkpt lat="55.8151030" lon="49.1270500"><time>2021-08-14T07:07:13</time></trkpt><trkpt lat="55.8151120" lon="49.1270250"><time>2021-08-14T07:07:14</time></trkpt><trkpt lat="55.8151230" lon="49.1269980"><time>2021-08-14T07:07:15</time></trkpt><trkpt lat="55.8151360" lon="49.1269790"><time>2021-08-14T07:07:16</time></trkpt><trkpt lat="55.8151470" lon="49.1269570"><time>2021-08-14T07:07:17</time></trkpt><trkpt lat="55.8151620" lon="49.1269300"><time>2021-08-14T07:07:18</time></trkpt><trkpt lat="55.8151660" lon="49.1269160"><time>2021-08-14T07:07:19</time></trkpt><trkpt lat="55.8151700" lon="49.1269030"><time>2021-08-14T07:07:20</time></trkpt><trkpt lat="55.8151780" lon="49.1268800"><time>2021-08-14T07:07:21</time></trkpt><trkpt lat="55.8151860" lon="49.1268560"><time>2021-08-14T07:07:22</time></trkpt><trkpt lat="55.8152040" lon="49.1268410"><time>2021-08-14T07:07:23</time></trkpt><trkpt lat="55.8152160" lon="49.1268270"><time>2021-08-14T07:07:24</time></trkpt><trkpt lat="55.8151990" lon="49.1267780"><time>2021-08-14T07:07:25</time></trkpt><trkpt lat="55.8151910" lon="49.1267630"><time>2021-08-14T07:07:26</time></trkpt><trkpt lat="55.8151940" lon="49.1267280"><time>2021-08-14T07:07:27</time></trkpt><trkpt lat="55.8151970" lon="49.1267110"><time>2021-08-14T07:07:28</time></trkpt><trkpt lat="55.8152000" lon="49.1266940"><time>2021-08-14T07:07:29</time></trkpt><trkpt lat="55.8152330" lon="49.1266700"><time>2021-08-14T07:07:30</time></trkpt><trkpt lat="55.8152430" lon="49.1266670"><time>2021-08-14T07:07:31</time></trkpt><trkpt lat="55.8152740" lon="49.1266760"><time>2021-08-14T07:07:32</time></trkpt><trkpt lat="55.8152840" lon="49.1266910"><time>2021-08-14T07:07:33</time></trkpt><trkpt lat="55.8153020" lon="49.1267490"><time>2021-08-14T07:07:34</time></trkpt><trkpt lat="55.8153060" lon="49.1267690"><time>2021-08-14T07:07:35</time></trkpt><trkpt lat="55.8153330" lon="49.1267660"><time>2021-08-14T07:07:36</time></trkpt><trkpt lat="55.8153540" lon="49.1267890"><time>2021-08-14T07:07:37</time></trkpt><trkpt lat="55.8153690" lon="49.1267900"><time>2021-08-14T07:07:38</time></trkpt><trkpt lat="55.8153830" lon="49.1267900"><time>2021-08-14T07:07:39</time></trkpt><trkpt lat="55.8154040" lon="49.1267890"><time>2021-08-14T07:07:40</time></trkpt><trkpt lat="55.8154180" lon="49.1267850"><time>2021-08-14T07:07:41</time></trkpt><trkpt lat="55.8154370" lon="49.1268090"><time>2021-08-14T07:07:42</time></trkpt><trkpt lat="55.8154510" lon="49.1267980"><time>2021-08-14T07:07:43</time></trkpt><trkpt lat="55.8154700" lon="49.1268040"><time>2021-08-14T07:07:44</time></trkpt><trkpt lat="55.8154850" lon="49.1268180"><time>2021-08-14T07:07:45</time></trkpt><trkpt lat="55.8155000" lon="49.1268190"><time>2021-08-14T07:07:46</time></trkpt><trkpt lat="55.8155190" lon="49.1268260"><time>2021-08-14T07:07:47</time></trkpt><trkpt lat="55.8155300" lon="49.1268430"><time>2021-08-14T07:07:48</time></trkpt><trkpt lat="55.8155470" lon="49.1268560"><time>2021-08-14T07:07:49</time></trkpt><trkpt lat="55.8155610" lon="49.1268640"><time>2021-08-14T07:07:50</time></trkpt><trkpt lat="55.8155790" lon="49.1268720"><time>2021-08-14T07:07:51</time></trkpt><trkpt lat="55.8155960" lon="49.1268830"><time>2021-08-14T07:07:52</time></trkpt><trkpt lat="55.8156070" lon="49.1268860"><time>2021-08-14T07:07:53</time></trkpt><trkpt lat="55.8156220" lon="49.1268830"><time>2021-08-14T07:07:54</time></trkpt><trkpt lat="55.8156370" lon="49.1268770"><time>2021-08-14T07:07:55</time></trkpt><trkpt lat="55.8156540" lon="49.1268610"><time>2021-08-14T07:07:56</time></trkpt><trkpt lat="55.8156620" lon="49.1268520"><time>2021-08-14T07:07:57</time></trkpt><trkpt lat="55.8156710" lon="49.1268420"><time>2021-08-14T07:07:58</time></trkpt><trkpt lat="55.8156910" lon="49.1268470"><time>2021-08-14T07:07:59</time></trkpt><trkpt lat="55.8157030" lon="49.1268480"><time>2021-08-14T07:08:00</time></trkpt><trkpt lat="55.8157220" lon="49.1268510"><time>2021-08-14T07:08:01</time></trkpt><trkpt lat="55.8157350" lon="49.1268630"><time>2021-08-14T07:08:02</time></trkpt><trkpt lat="55.8157480" lon="49.1268570"><time>2021-08-14T07:08:03</time></trkpt><trkpt lat="55.8157660" lon="49.1268490"><time>2021-08-14T07:08:04</time></trkpt><trkpt lat="55.8157990" lon="49.1268600"><time>2021-08-14T07:08:05</time></trkpt><trkpt lat="55.8158110" lon="49.1268570"><time>2021-08-14T07:08:06</time></trkpt><trkpt lat="55.8158470" lon="49.1268590"><time>2021-08-14T07:08:07</time></trkpt><trkpt lat="55.8158570" lon="49.1268620"><time>2021-08-14T07:08:08</time></trkpt><trkpt lat="55.8158750" lon="49.1268660"><time>2021-08-14T07:08:09</time></trkpt><trkpt lat="55.8158840" lon="49.1268560"><time>2021-08-14T07:08:10</time></trkpt><trkpt lat="55.8158950" lon="49.1268580"><time>2021-08-14T07:08:11</time></trkpt><trkpt lat="55.8159120" lon="49.1268520"><time>2021-08-14T07:08:12</time></trkpt><trkpt lat="55.8159290" lon="49.1268640"><time>2021-08-14T07:08:13</time></trkpt><trkpt lat="55.8159390" lon="49.1268720"><time>2021-08-14T07:08:14</time></trkpt><trkpt lat="55.8159550" lon="49.1268950"><time>2021-08-14T07:08:15</time></trkpt><trkpt lat="55.8159700" lon="49.1268990"><time>2021-08-14T07:08:16</time></trkpt><trkpt lat="55.8159900" lon="49.1269050"><time>2021-08-14T07:08:17</time></trkpt><trkpt lat="55.8159980" lon="49.1269110"><time>2021-08-14T07:08:18</time></trkpt><trkpt lat="55.8160130" lon="49.1269120"><time>2021-08-14T07:08:19</time></trkpt><trkpt lat="55.8160220" lon="49.1269280"><time>2021-08-14T07:08:20</time></trkpt><trkpt lat="55.8160320" lon="49.1269290"><time>2021-08-14T07:08:21</time></trkpt><trkpt lat="55.8160450" lon="49.1269430"><time>2021-08-14T07:08:22</time></trkpt><trkpt lat="55.8160590" lon="49.1269490"><time>2021-08-14T07:08:23</time></trkpt><trkpt lat="55.8160580" lon="49.1269280"><time>2021-08-14T07:08:24</time></trkpt><trkpt lat="55.8160620" lon="49.1269140"><time>2021-08-14T07:08:25</time></trkpt><trkpt lat="55.8160650" lon="49.1268990"><time>2021-08-14T07:08:26</time></trkpt><trkpt lat="55.8160690" lon="49.1268840"><time>2021-08-14T07:08:27</time></trkpt><trkpt lat="55.8160880" lon="49.1268400"><time>2021-08-14T07:08:28</time></trkpt><trkpt lat="55.8161100" lon="49.1267850"><time>2021-08-14T07:08:29</time></trkpt><trkpt lat="55.8161380" lon="49.1267500"><time>2021-08-14T07:08:30</time></trkpt><trkpt lat="55.8161640" lon="49.1267180"><time>2021-08-14T07:08:31</time></trkpt><trkpt lat="55.8161870" lon="49.1266840"><time>2021-08-14T07:08:32</time></trkpt><trkpt lat="55.8162180" lon="49.1266480"><time>2021-08-14T07:08:33</time></trkpt><trkpt lat="55.8162280" lon="49.1266370"><time>2021-08-14T07:08:34</time></trkpt><trkpt lat="55.8162520" lon="49.1266160"><time>2021-08-14T07:08:35</time></trkpt><trkpt lat="55.8162820" lon="49.1265930"><time>2021-08-14T07:08:36</time></trkpt><trkpt lat="55.8162920" lon="49.1265850"><time>2021-08-14T07:08:37</time></trkpt><trkpt lat="55.8163230" lon="49.1265800"><time>2021-08-14T07:08:38</time></trkpt><trkpt lat="55.8163300" lon="49.1265750"><time>2021-08-14T07:08:39</time></trkpt><trkpt lat="55.8163460" lon="49.1265590"><time>2021-08-14T07:08:40</time></trkpt><trkpt lat="55.8163610" lon="49.1265460"><time>2021-08-14T07:08:41</time></trkpt><trkpt lat="55.8163770" lon="49.1265480"><time>2021-08-14T07:08:42</time></trkpt><trkpt lat="55.8163940" lon="49.1265500"><time>2021-08-14T07:08:43</time></trkpt><trkpt lat="55.8164110" lon="49.1265460"><time>2021-08-14T07:08:44</time></trkpt><trkpt lat="55.8164260" lon="49.1265400"><time>2021-08-14T07:08:45</time></trkpt><trkpt lat="55.8164390" lon="49.1265320"><time>2021-08-14T07:08:46</time></trkpt><trkpt lat="55.8164540" lon="49.1265360"><time>2021-08-14T07:08:47</time></trkpt><trkpt lat="55.8164810" lon="49.1265520"><time>2021-08-14T07:08:48</time></trkpt><trkpt lat="55.8164910" lon="49.1265590"><time>2021-08-14T07:08:49</time></trkpt><trkpt lat="55.8165070" lon="49.1265630"><time>2021-08-14T07:08:50</time></trkpt><trkpt lat="55.8165210" lon="49.1265550"><time>2021-08-14T07:08:51</time></trkpt><trkpt lat="55.8165300" lon="49.1265290"><time>2021-08-14T07:08:52</time></trkpt><trkpt lat="55.8165420" lon="49.1265200"><time>2021-08-14T07:08:53</time></trkpt><trkpt lat="55.8165550" lon="49.1264770"><time>2021-08-14T07:08:54</time></trkpt><trkpt lat="55.8165570" lon="49.1264600"><time>2021-08-14T07:08:55</time></trkpt><trkpt lat="55.8165580" lon="49.1264250"><time>2021-08-14T07:08:56</time></trkpt><trkpt lat="55.8165540" lon="49.1263970"><time>2021-08-14T07:08:57</time></trkpt><trkpt lat="55.8165430" lon="49.1263510"><time>2021-08-14T07:08:58</time></trkpt><trkpt lat="55.8165400" lon="49.1263370"><time>2021-08-14T07:08:59</time></trkpt><trkpt lat="55.8165320" lon="49.1263130"><time>2021-08-14T07:09:00</time></trkpt><trkpt lat="55.8165270" lon="49.1262790"><time>2021-08-14T07:09:01</time></trkpt><trkpt lat="55.8165240" lon="49.1262500"><time>2021-08-14T07:09:02</time></trkpt><trkpt lat="55.8165160" lon="49.1262240"><time>2021-08-14T07:09:03</time></trkpt><trkpt lat="55.8165130" lon="49.1261950"><time>2021-08-14T07:09:04</time></trkpt><trkpt lat="55.8165080" lon="49.1261720"><time>2021-08-14T07:09:05</time></trkpt><trkpt lat="55.8164990" lon="49.1261440"><time>2021-08-14T07:09:06</time></trkpt><trkpt lat="55.8164920" lon="49.1261190"><time>2021-08-14T07:09:07</time></trkpt><trkpt lat="55.8164870" lon="49.1260960"><time>2021-08-14T07:09:08</time></trkpt><trkpt lat="55.8164840" lon="49.1260620"><time>2021-08-14T07:09:09</time></trkpt><trkpt lat="55.8164840" lon="49.1260350"><time>2021-08-14T07:09:10</time></trkpt><trkpt lat="55.8164820" lon="49.1260080"><time>2021-08-14T07:09:11</time></trkpt><trkpt lat="55.8164820" lon="49.1259830"><time>2021-08-14T07:09:12</time></trkpt><trkpt lat="55.8164800" lon="49.1259540"><time>2021-08-14T07:09:13</time></trkpt><trkpt lat="55.8164780" lon="49.1259050"><time>2021-08-14T07:09:14</time></trkpt><trkpt lat="55.8164760" lon="49.1258880"><time>2021-08-14T07:09:15</time></trkpt><trkpt lat="55.8164770" lon="49.1258630"><time>2021-08-14T07:09:16</time></trkpt><trkpt lat="55.8164770" lon="49.1258310"><time>2021-08-14T07:09:17</time></trkpt><trkpt lat="55.8164730" lon="49.1258050"><time>2021-08-14T07:09:18</time></trkpt><trkpt lat="55.8164700" lon="49.1257770"><time>2021-08-14T07:09:19</time></trkpt><trkpt lat="55.8164690" lon="49.1257300"><time>2021-08-14T07:09:20</time></trkpt><trkpt lat="55.8164700" lon="49.1257120"><time>2021-08-14T07:09:21</time></trkpt><trkpt lat="55.8164720" lon="49.1256810"><time>2021-08-14T07:09:22</time></trkpt><trkpt lat="55.8164730" lon="49.1256580"><time>2021-08-14T07:09:23</time></trkpt><trkpt lat="55.8164770" lon="49.1256330"><time>2021-08-14T07:09:24</time></trkpt><trkpt lat="55.8164790" lon="49.1256050"><time>2021-08-14T07:09:25</time></trkpt><trkpt lat="55.8164800" lon="49.1255760"><time>2021-08-14T07:09:26</time></trkpt><trkpt lat="55.8164770" lon="49.1255450"><time>2021-08-14T07:09:27</time></trkpt><trkpt lat="55.8164760" lon="49.1255170"><time>2021-08-14T07:09:28</time></trkpt><trkpt lat="55.8164790" lon="49.1254880"><time>2021-08-14T07:09:29</time></trkpt><trkpt lat="55.8164790" lon="49.1254600"><time>2021-08-14T07:09:30</time></trkpt><trkpt lat="55.8164850" lon="49.1254280"><time>2021-08-14T07:09:31</time></trkpt><trkpt lat="55.8164790" lon="49.1253990"><time>2021-08-14T07:09:32</time></trkpt><trkpt lat="55.8164770" lon="49.1253710"><time>2021-08-14T07:09:33</time></trkpt><trkpt lat="55.8164700" lon="49.1253400"><time>2021-08-14T07:09:34</time></trkpt><trkpt lat="55.8164750" lon="49.1253090"><time>2021-08-14T07:09:35</time></trkpt><trkpt lat="55.8164740" lon="49.1252820"><time>2021-08-14T07:09:36</time></trkpt><trkpt lat="55.8164740" lon="49.1252530"><time>2021-08-14T07:09:37</time></trkpt><trkpt lat="55.8164800" lon="49.1252220"><time>2021-08-14T07:09:38</time></trkpt><trkpt lat="55.8164800" lon="49.1251980"><time>2021-08-14T07:09:39</time></trkpt><trkpt lat="55.8164860" lon="49.1251700"><time>2021-08-14T07:09:40</time></trkpt><trkpt lat="55.8164820" lon="49.1251420"><time>2021-08-14T07:09:41</time></trkpt><trkpt lat="55.8164820" lon="49.1251100"><time>2021-08-14T07:09:42</time></trkpt><trkpt lat="55.8164800" lon="49.1250830"><time>2021-08-14T07:09:43</time></trkpt><trkpt lat="55.8164800" lon="49.1250530"><time>2021-08-14T07:09:44</time></trkpt><trkpt lat="55.8164810" lon="49.1250290"><time>2021-08-14T07:09:45</time></trkpt><trkpt lat="55.8164790" lon="49.1250010"><time>2021-08-14T07:09:46</time></trkpt><trkpt lat="55.8164760" lon="49.1249730"><time>2021-08-14T07:09:47</time></trkpt><trkpt lat="55.8164750" lon="49.1249400"><time>2021-08-14T07:09:48</time></trkpt><trkpt lat="55.8164770" lon="49.1249090"><time>2021-08-14T07:09:49</time></trkpt><trkpt lat="55.8164780" lon="49.1248780"><time>2021-08-14T07:09:50</time></trkpt><trkpt lat="55.8164750" lon="49.1248450"><time>2021-08-14T07:09:51</time></trkpt><trkpt lat="55.8164740" lon="49.1248180"><time>2021-08-14T07:09:52</time></trkpt><trkpt lat="55.8164710" lon="49.1247900"><time>2021-08-14T07:09:53</time></trkpt><trkpt lat="55.8164730" lon="49.1247540"><time>2021-08-14T07:09:54</time></trkpt><trkpt lat="55.8164740" lon="49.1247310"><time>2021-08-14T07:09:55</time></trkpt><trkpt lat="55.8164780" lon="49.1246850"><time>2021-08-14T07:09:56</time></trkpt><trkpt lat="55.8164790" lon="49.1246660"><time>2021-08-14T07:09:57</time></trkpt><trkpt lat="55.8164810" lon="49.1246420"><time>2021-08-14T07:09:58</time></trkpt><trkpt lat="55.8164840" lon="49.1246080"><time>2021-08-14T07:09:59</time></trkpt><trkpt lat="55.8164940" lon="49.1245750"><time>2021-08-14T07:10:00</time></trkpt><trkpt lat="55.8164870" lon="49.1245450"><time>2021-08-14T07:10:01</time></trkpt><trkpt lat="55.8164850" lon="49.1245150"><time>2021-08-14T07:10:02</time></trkpt><trkpt lat="55.8164830" lon="49.1244880"><time>2021-08-14T07:10:03</time></trkpt><trkpt lat="55.8164850" lon="49.1244420"><time>2021-08-14T07:10:04</time></trkpt><trkpt lat="55.8164850" lon="49.1244260"><time>2021-08-14T07:10:05</time></trkpt><trkpt lat="55.8164850" lon="49.1244090"><time>2021-08-14T07:10:06</time></trkpt><trkpt lat="55.8164870" lon="49.1243510"><time>2021-08-14T07:10:07</time></trkpt><trkpt lat="55.8164880" lon="49.1243370"><time>2021-08-14T07:10:08</time></trkpt><trkpt lat="55.8164910" lon="49.1243110"><time>2021-08-14T07:10:09</time></trkpt><trkpt lat="55.8164930" lon="49.1242820"><time>2021-08-14T07:10:10</time></trkpt><trkpt lat="55.8164910" lon="49.1242560"><time>2021-08-14T07:10:11</time></trkpt><trkpt lat="55.8164840" lon="49.1242240"><time>2021-08-14T07:10:12</time></trkpt><trkpt lat="55.8164830" lon="49.1241990"><time>2021-08-14T07:10:13</time></trkpt><trkpt lat="55.8164890" lon="49.1241710"><time>2021-08-14T07:10:14</time></trkpt><trkpt lat="55.8164910" lon="49.1241440"><time>2021-08-14T07:10:15</time></trkpt><trkpt lat="55.8164900" lon="49.1241110"><time>2021-08-14T07:10:16</time></trkpt><trkpt lat="55.8164950" lon="49.1240870"><time>2021-08-14T07:10:17</time></trkpt><trkpt lat="55.8164860" lon="49.1240520"><time>2021-08-14T07:10:18</time></trkpt><trkpt lat="55.8164850" lon="49.1240230"><time>2021-08-14T07:10:19</time></trkpt><trkpt lat="55.8164830" lon="49.1239970"><time>2021-08-14T07:10:20</time></trkpt><trkpt lat="55.8164850" lon="49.1239440"><time>2021-08-14T07:10:21</time></trkpt><trkpt lat="55.8164850" lon="49.1239180"><time>2021-08-14T07:10:22</time></trkpt><trkpt lat="55.8164860" lon="49.1238860"><time>2021-08-14T07:10:23</time></trkpt><trkpt lat="55.8164900" lon="49.1238620"><time>2021-08-14T07:10:24</time></trkpt><trkpt lat="55.8164910" lon="49.1238350"><time>2021-08-14T07:10:25</time></trkpt><trkpt lat="55.8164940" lon="49.1238060"><time>2021-08-14T07:10:26</time></trkpt><trkpt lat="55.8164950" lon="49.1237730"><time>2021-08-14T07:10:27</time></trkpt><trkpt lat="55.8164930" lon="49.1237440"><time>2021-08-14T07:10:28</time></trkpt><trkpt lat="55.8164870" lon="49.1237110"><time>2021-08-14T07:10:29</time></trkpt><trkpt lat="55.8164850" lon="49.1236850"><time>2021-08-14T07:10:30</time></trkpt><trkpt lat="55.8164890" lon="49.1236570"><time>2021-08-14T07:10:31</time></trkpt><trkpt lat="55.8164910" lon="49.1236300"><time>2021-08-14T07:10:32</time></trkpt><trkpt lat="55.8164900" lon="49.1236010"><time>2021-08-14T07:10:33</time></trkpt><trkpt lat="55.8164880" lon="49.1235720"><time>2021-08-14T07:10:34</time></trkpt><trkpt lat="55.8164840" lon="49.1235450"><time>2021-08-14T07:10:35</time></trkpt><trkpt lat="55.8164840" lon="49.1235120"><time>2021-08-14T07:10:36</time></trkpt><trkpt lat="55.8164830" lon="49.1234830"><time>2021-08-14T07:10:37</time></trkpt><trkpt lat="55.8164790" lon="49.1234570"><time>2021-08-14T07:10:38</time></trkpt><trkpt lat="55.8164770" lon="49.1234260"><time>2021-08-14T07:10:39</time></trkpt><trkpt lat="55.8164750" lon="49.1233940"><time>2021-08-14T07:10:40</time></trkpt><trkpt lat="55.8164740" lon="49.1233660"><time>2021-08-14T07:10:41</time></trkpt><trkpt lat="55.8164740" lon="49.1233390"><time>2021-08-14T07:10:42</time></trkpt><trkpt lat="55.8164730" lon="49.1233090"><time>2021-08-14T07:10:43</time></trkpt><trkpt lat="55.8164700" lon="49.1232790"><time>2021-08-14T07:10:44</time></trkpt><trkpt lat="55.8164700" lon="49.1232510"><time>2021-08-14T07:10:45</time></trkpt><trkpt lat="55.8164700" lon="49.1232200"><time>2021-08-14T07:10:46</time></trkpt><trkpt lat="55.8164690" lon="49.1231930"><time>2021-08-14T07:10:47</time></trkpt><trkpt lat="55.8164690" lon="49.1231680"><time>2021-08-14T07:10:48</time></trkpt><trkpt lat="55.8164700" lon="49.1231410"><time>2021-08-14T07:10:49</time></trkpt><trkpt lat="55.8164700" lon="49.1231140"><time>2021-08-14T07:10:50</time></trkpt><trkpt lat="55.8164690" lon="49.1230870"><time>2021-08-14T07:10:51</time></trkpt><trkpt lat="55.8164680" lon="49.1230610"><time>2021-08-14T07:10:52</time></trkpt><trkpt lat="55.8164720" lon="49.1230340"><time>2021-08-14T07:10:53</time></trkpt><trkpt lat="55.8164710" lon="49.1230050"><time>2021-08-14T07:10:54</time></trkpt><trkpt lat="55.8164700" lon="49.1229790"><time>2021-08-14T07:10:55</time></trkpt><trkpt lat="55.8164690" lon="49.1229530"><time>2021-08-14T07:10:56</time></trkpt><trkpt lat="55.8164700" lon="49.1229260"><time>2021-08-14T07:10:57</time></trkpt><trkpt lat="55.8164690" lon="49.1228990"><time>2021-08-14T07:10:58</time></trkpt><trkpt lat="55.8164720" lon="49.1228690"><time>2021-08-14T07:10:59</time></trkpt><trkpt lat="55.8164750" lon="49.1228420"><time>2021-08-14T07:11:00</time></trkpt><trkpt lat="55.8164700" lon="49.1228150"><time>2021-08-14T07:11:01</time></trkpt><trkpt lat="55.8164680" lon="49.1227810"><time>2021-08-14T07:11:02</time></trkpt><trkpt lat="55.8164670" lon="49.1227560"><time>2021-08-14T07:11:03</time></trkpt><trkpt lat="55.8164700" lon="49.1227280"><time>2021-08-14T07:11:04</time></trkpt><trkpt lat="55.8164710" lon="49.1226950"><time>2021-08-14T07:11:05</time></trkpt><trkpt lat="55.8164730" lon="49.1226710"><time>2021-08-14T07:11:06</time></trkpt><trkpt lat="55.8164740" lon="49.1226420"><time>2021-08-14T07:11:07</time></trkpt><trkpt lat="55.8164720" lon="49.1226170"><time>2021-08-14T07:11:08</time></trkpt><trkpt lat="55.8164710" lon="49.1225840"><time>2021-08-14T07:11:09</time></trkpt><trkpt lat="55.8164690" lon="49.1225540"><time>2021-08-14T07:11:10</time></trkpt><trkpt lat="55.8164670" lon="49.1225260"><time>2021-08-14T07:11:11</time></trkpt><trkpt lat="55.8164680" lon="49.1224980"><time>2021-08-14T07:11:12</time></trkpt><trkpt lat="55.8164690" lon="49.1224660"><time>2021-08-14T07:11:13</time></trkpt><trkpt lat="55.8164660" lon="49.1224370"><time>2021-08-14T07:11:14</time></trkpt><trkpt lat="55.8164660" lon="49.1224080"><time>2021-08-14T07:11:15</time></trkpt><trkpt lat="55.8164670" lon="49.1223790"><time>2021-08-14T07:11:16</time></trkpt><trkpt lat="55.8164680" lon="49.1223530"><time>2021-08-14T07:11:17</time></trkpt><trkpt lat="55.8164690" lon="49.1223250"><time>2021-08-14T07:11:18</time></trkpt><trkpt lat="55.8164710" lon="49.1222960"><time>2021-08-14T07:11:19</time></trkpt><trkpt lat="55.8164710" lon="49.1222700"><time>2021-08-14T07:11:20</time></trkpt><trkpt lat="55.8164720" lon="49.1222420"><time>2021-08-14T07:11:21</time></trkpt><trkpt lat="55.8164680" lon="49.1222110"><time>2021-08-14T07:11:22</time></trkpt><trkpt lat="55.8164700" lon="49.1221830"><time>2021-08-14T07:11:23</time></trkpt><trkpt lat="55.8164700" lon="49.1221540"><time>2021-08-14T07:11:24</time></trkpt><trkpt lat="55.8164740" lon="49.1221280"><time>2021-08-14T07:11:25</time></trkpt><trkpt lat="55.8164740" lon="49.1221060"><time>2021-08-14T07:11:26</time></trkpt><trkpt lat="55.8164760" lon="49.1220580"><time>2021-08-14T07:11:27</time></trkpt><trkpt lat="55.8164730" lon="49.1220240"><time>2021-08-14T07:11:28</time></trkpt><trkpt lat="55.8164730" lon="49.1220040"><time>2021-08-14T07:11:29</time></trkpt><trkpt lat="55.8164720" lon="49.1219840"><time>2021-08-14T07:11:30</time></trkpt><trkpt lat="55.8164710" lon="49.1219530"><time>2021-08-14T07:11:31</time></trkpt><trkpt lat="55.8164700" lon="49.1219240"><time>2021-08-14T07:11:32</time></trkpt><trkpt lat="55.8164670" lon="49.1218980"><time>2021-08-14T07:11:33</time></trkpt><trkpt lat="55.8164720" lon="49.1218640"><time>2021-08-14T07:11:34</time></trkpt><trkpt lat="55.8164680" lon="49.1218400"><time>2021-08-14T07:11:35</time></trkpt><trkpt lat="55.8164660" lon="49.1218080"><time>2021-08-14T07:11:36</time></trkpt><trkpt lat="55.8164650" lon="49.1217790"><time>2021-08-14T07:11:37</time></trkpt><trkpt lat="55.8164660" lon="49.1217500"><time>2021-08-14T07:11:38</time></trkpt><trkpt lat="55.8164650" lon="49.1217240"><time>2021-08-14T07:11:39</time></trkpt><trkpt lat="55.8164630" lon="49.1216970"><time>2021-08-14T07:11:40</time></trkpt><trkpt lat="55.8164610" lon="49.1216690"><time>2021-08-14T07:11:41</time></trkpt><trkpt lat="55.8164610" lon="49.1216420"><time>2021-08-14T07:11:42</time></trkpt><trkpt lat="55.8164610" lon="49.1216140"><time>2021-08-14T07:11:43</time></trkpt><trkpt lat="55.8164650" lon="49.1215850"><time>2021-08-14T07:11:44</time></trkpt><trkpt lat="55.8164630" lon="49.1215560"><time>2021-08-14T07:11:45</time></trkpt><trkpt lat="55.8164630" lon="49.1215290"><time>2021-08-14T07:11:46</time></trkpt><trkpt lat="55.8164660" lon="49.1215020"><time>2021-08-14T07:11:47</time></trkpt><trkpt lat="55.8164660" lon="49.1214720"><time>2021-08-14T07:11:48</time></trkpt><trkpt lat="55.8164650" lon="49.1214420"><time>2021-08-14T07:11:49</time></trkpt><trkpt lat="55.8164660" lon="49.1214150"><time>2021-08-14T07:11:50</time></trkpt><trkpt lat="55.8164640" lon="49.1213850"><time>2021-08-14T07:11:51</time></trkpt><trkpt lat="55.8164620" lon="49.1213560"><time>2021-08-14T07:11:52</time></trkpt><trkpt lat="55.8164660" lon="49.1213280"><time>2021-08-14T07:11:53</time></trkpt><trkpt lat="55.8164670" lon="49.1212990"><time>2021-08-14T07:11:54</time></trkpt><trkpt lat="55.8164650" lon="49.1212670"><time>2021-08-14T07:11:55</time></trkpt><trkpt lat="55.8164630" lon="49.1212380"><time>2021-08-14T07:11:56</time></trkpt><trkpt lat="55.8164620" lon="49.1212110"><time>2021-08-14T07:11:57</time></trkpt><trkpt lat="55.8164620" lon="49.1211810"><time>2021-08-14T07:11:58</time></trkpt><trkpt lat="55.8164640" lon="49.1211550"><time>2021-08-14T07:11:59</time></trkpt><trkpt lat="55.8164650" lon="49.1211260"><time>2021-08-14T07:12:00</time></trkpt><trkpt lat="55.8164680" lon="49.1211010"><time>2021-08-14T07:12:01</time></trkpt><trkpt lat="55.8164670" lon="49.1210730"><time>2021-08-14T07:12:02</time></trkpt><trkpt lat="55.8164670" lon="49.1210470"><time>2021-08-14T07:12:03</time></trkpt><trkpt lat="55.8164640" lon="49.1210180"><time>2021-08-14T07:12:04</time></trkpt><trkpt lat="55.8164640" lon="49.1209910"><time>2021-08-14T07:12:05</time></trkpt><trkpt lat="55.8164680" lon="49.1209600"><time>2021-08-14T07:12:06</time></trkpt><trkpt lat="55.8164690" lon="49.1209300"><time>2021-08-14T07:12:07</time></trkpt><trkpt lat="55.8164670" lon="49.1209020"><time>2021-08-14T07:12:08</time></trkpt><trkpt lat="55.8164680" lon="49.1208740"><time>2021-08-14T07:12:09</time></trkpt><trkpt lat="55.8164710" lon="49.1208470"><time>2021-08-14T07:12:10</time></trkpt><trkpt lat="55.8164720" lon="49.1208190"><time>2021-08-14T07:12:11</time></trkpt><trkpt lat="55.8164700" lon="49.1207890"><time>2021-08-14T07:12:12</time></trkpt><trkpt lat="55.8164710" lon="49.1207600"><time>2021-08-14T07:12:13</time></trkpt><trkpt lat="55.8164700" lon="49.1207310"><time>2021-08-14T07:12:14</time></trkpt><trkpt lat="55.8164710" lon="49.1207010"><time>2021-08-14T07:12:15</time></trkpt><trkpt lat="55.8164730" lon="49.1206720"><time>2021-08-14T07:12:16</time></trkpt><trkpt lat="55.8164710" lon="49.1206420"><time>2021-08-14T07:12:17</time></trkpt><trkpt lat="55.8164700" lon="49.1206120"><time>2021-08-14T07:12:18</time></trkpt><trkpt lat="55.8164690" lon="49.1205830"><time>2021-08-14T07:12:19</time></trkpt><trkpt lat="55.8164690" lon="49.1205550"><time>2021-08-14T07:12:20</time></trkpt><trkpt lat="55.8164690" lon="49.1205280"><time>2021-08-14T07:12:21</time></trkpt><trkpt lat="55.8164690" lon="49.1204990"><time>2021-08-14T07:12:22</time></trkpt><trkpt lat="55.8164720" lon="49.1204700"><time>2021-08-14T07:12:23</time></trkpt><trkpt lat="55.8164740" lon="49.1204410"><time>2021-08-14T07:12:24</time></trkpt><trkpt lat="55.8164750" lon="49.1204120"><time>2021-08-14T07:12:25</time></trkpt><trkpt lat="55.8164740" lon="49.1203830"><time>2021-08-14T07:12:26</time></trkpt><trkpt lat="55.8164740" lon="49.1203550"><time>2021-08-14T07:12:27</time></trkpt><trkpt lat="55.8164730" lon="49.1203260"><time>2021-08-14T07:12:28</time></trkpt><trkpt lat="55.8164710" lon="49.1203000"><time>2021-08-14T07:12:29</time></trkpt><trkpt lat="55.8164710" lon="49.1202720"><time>2021-08-14T07:12:30</time></trkpt><trkpt lat="55.8164750" lon="49.1202450"><time>2021-08-14T07:12:31</time></trkpt><trkpt lat="55.8164750" lon="49.1202180"><time>2021-08-14T07:12:32</time></trkpt><trkpt lat="55.8164720" lon="49.1201900"><time>2021-08-14T07:12:33</time></trkpt><trkpt lat="55.8164740" lon="49.1201590"><time>2021-08-14T07:12:34</time></trkpt><trkpt lat="55.8164720" lon="49.1201300"><time>2021-08-14T07:12:35</time></trkpt><trkpt lat="55.8164740" lon="49.1201010"><time>2021-08-14T07:12:36</time></trkpt><trkpt lat="55.8164710" lon="49.1200720"><time>2021-08-14T07:12:37</time></trkpt><trkpt lat="55.8164710" lon="49.1200440"><time>2021-08-14T07:12:38</time></trkpt><trkpt lat="55.8164690" lon="49.1200150"><time>2021-08-14T07:12:39</time></trkpt><trkpt lat="55.8164690" lon="49.1199880"><time>2021-08-14T07:12:40</time></trkpt><trkpt lat="55.8164700" lon="49.1199600"><time>2021-08-14T07:12:41</time></trkpt><trkpt lat="55.8164700" lon="49.1199320"><time>2021-08-14T07:12:42</time></trkpt><trkpt lat="55.8164700" lon="49.1199050"><time>2021-08-14T07:12:43</time></trkpt><trkpt lat="55.8164690" lon="49.1198780"><time>2021-08-14T07:12:44</time></trkpt><trkpt lat="55.8164690" lon="49.1198510"><time>2021-08-14T07:12:45</time></trkpt><trkpt lat="55.8164710" lon="49.1198220"><time>2021-08-14T07:12:46</time></trkpt><trkpt lat="55.8164690" lon="49.1197940"><time>2021-08-14T07:12:47</time></trkpt><trkpt lat="55.8164670" lon="49.1197680"><time>2021-08-14T07:12:48</time></trkpt><trkpt lat="55.8164670" lon="49.1197410"><time>2021-08-14T07:12:49</time></trkpt><trkpt lat="55.8164690" lon="49.1197130"><time>2021-08-14T07:12:50</time></trkpt><trkpt lat="55.8164700" lon="49.1196860"><time>2021-08-14T07:12:51</time></trkpt><trkpt lat="55.8164700" lon="49.1196570"><time>2021-08-14T07:12:52</time></trkpt><trkpt lat="55.8164710" lon="49.1196300"><time>2021-08-14T07:12:53</time></trkpt><trkpt lat="55.8164680" lon="49.1196020"><time>2021-08-14T07:12:54</time></trkpt><trkpt lat="55.8164700" lon="49.1195750"><time>2021-08-14T07:12:55</time></trkpt><trkpt lat="55.8164690" lon="49.1195480"><time>2021-08-14T07:12:56</time></trkpt><trkpt lat="55.8164680" lon="49.1195040"><time>2021-08-14T07:12:57</time></trkpt><trkpt lat="55.8164680" lon="49.1194870"><time>2021-08-14T07:12:58</time></trkpt><trkpt lat="55.8164680" lon="49.1194710"><time>2021-08-14T07:12:59</time></trkpt><trkpt lat="55.8164680" lon="49.1194400"><time>2021-08-14T07:13:00</time></trkpt><trkpt lat="55.8164690" lon="49.1194140"><time>2021-08-14T07:13:01</time></trkpt><trkpt lat="55.8164680" lon="49.1193790"><time>2021-08-14T07:13:02</time></trkpt><trkpt lat="55.8164680" lon="49.1193520"><time>2021-08-14T07:13:03</time></trkpt><trkpt lat="55.8164660" lon="49.1193190"><time>2021-08-14T07:13:04</time></trkpt><trkpt lat="55.8164680" lon="49.1192950"><time>2021-08-14T07:13:05</time></trkpt><trkpt lat="55.8164660" lon="49.1192650"><time>2021-08-14T07:13:06</time></trkpt><trkpt lat="55.8164670" lon="49.1192090"><time>2021-08-14T07:13:07</time></trkpt><trkpt lat="55.8164650" lon="49.1191820"><time>2021-08-14T07:13:08</time></trkpt><trkpt lat="55.8164680" lon="49.1191540"><time>2021-08-14T07:13:09</time></trkpt><trkpt lat="55.8164660" lon="49.1191250"><time>2021-08-14T07:13:10</time></trkpt><trkpt lat="55.8164660" lon="49.1190950"><time>2021-08-14T07:13:11</time></trkpt><trkpt lat="55.8164670" lon="49.1190670"><time>2021-08-14T07:13:12</time></trkpt><trkpt lat="55.8164680" lon="49.1190390"><time>2021-08-14T07:13:13</time></trkpt><trkpt lat="55.8164670" lon="49.1190090"><time>2021-08-14T07:13:14</time></trkpt><trkpt lat="55.8164670" lon="49.1189810"><time>2021-08-14T07:13:15</time></trkpt><trkpt lat="55.8164680" lon="49.1189520"><time>2021-08-14T07:13:16</time></trkpt><trkpt lat="55.8164680" lon="49.1189240"><time>2021-08-14T07:13:17</time></trkpt><trkpt lat="55.8164690" lon="49.1188960"><time>2021-08-14T07:13:18</time></trkpt><trkpt lat="55.8164680" lon="49.1188670"><time>2021-08-14T07:13:19</time></trkpt><trkpt lat="55.8164690" lon="49.1188380"><time>2021-08-14T07:13:20</time></trkpt><trkpt lat="55.8164700" lon="49.1188100"><time>2021-08-14T07:13:21</time></trkpt><trkpt lat="55.8164680" lon="49.1187810"><time>2021-08-14T07:13:22</time></trkpt><trkpt lat="55.8164680" lon="49.1187530"><time>2021-08-14T07:13:23</time></trkpt><trkpt lat="55.8164670" lon="49.1187240"><time>2021-08-14T07:13:24</time></trkpt><trkpt lat="55.8164690" lon="49.1187040"><time>2021-08-14T07:13:25</time></trkpt><trkpt lat="55.8164670" lon="49.1186630"><time>2021-08-14T07:13:26</time></trkpt><trkpt lat="55.8164690" lon="49.1186270"><time>2021-08-14T07:13:27</time></trkpt><trkpt lat="55.8164690" lon="49.1186070"><time>2021-08-14T07:13:28</time></trkpt><trkpt lat="55.8164680" lon="49.1185860"><time>2021-08-14T07:13:29</time></trkpt><trkpt lat="55.8164670" lon="49.1185650"><time>2021-08-14T07:13:30</time></trkpt><trkpt lat="55.8164670" lon="49.1185240"><time>2021-08-14T07:13:31</time></trkpt><trkpt lat="55.8164690" lon="49.1185070"><time>2021-08-14T07:13:32</time></trkpt><trkpt lat="55.8164700" lon="49.1184750"><time>2021-08-14T07:13:33</time></trkpt><trkpt lat="55.8164700" lon="49.1184460"><time>2021-08-14T07:13:34</time></trkpt><trkpt lat="55.8164710" lon="49.1184130"><time>2021-08-14T07:13:35</time></trkpt><trkpt lat="55.8164690" lon="49.1183840"><time>2021-08-14T07:13:36</time></trkpt><trkpt lat="55.8164680" lon="49.1183530"><time>2021-08-14T07:13:37</time></trkpt><trkpt lat="55.8164680" lon="49.1183240"><time>2021-08-14T07:13:38</time></trkpt><trkpt lat="55.8164690" lon="49.1182940"><time>2021-08-14T07:13:39</time></trkpt><trkpt lat="55.8164710" lon="49.1182650"><time>2021-08-14T07:13:40</time></trkpt><trkpt lat="55.8164700" lon="49.1182380"><time>2021-08-14T07:13:41</time></trkpt><trkpt lat="55.8164680" lon="49.1182080"><time>2021-08-14T07:13:42</time></trkpt><trkpt lat="55.8164670" lon="49.1181830"><time>2021-08-14T07:13:43</time></trkpt><trkpt lat="55.8164690" lon="49.1181530"><time>2021-08-14T07:13:44</time></trkpt><trkpt lat="55.8164690" lon="49.1181240"><time>2021-08-14T07:13:45</time></trkpt><trkpt lat="55.8164690" lon="49.1180750"><time>2021-08-14T07:13:46</time></trkpt><trkpt lat="55.8164690" lon="49.1180580"><time>2021-08-14T07:13:47</time></trkpt><trkpt lat="55.8164690" lon="49.1180310"><time>2021-08-14T07:13:48</time></trkpt><trkpt lat="55.8164710" lon="49.1180020"><time>2021-08-14T07:13:49</time></trkpt><trkpt lat="55.8164710" lon="49.1179740"><time>2021-08-14T07:13:50</time></trkpt><trkpt lat="55.8164700" lon="49.1179460"><time>2021-08-14T07:13:51</time></trkpt><trkpt lat="55.8164690" lon="49.1179180"><time>2021-08-14T07:13:52</time></trkpt><trkpt lat="55.8164690" lon="49.1178860"><time>2021-08-14T07:13:53</time></trkpt><trkpt lat="55.8164680" lon="49.1178580"><time>2021-08-14T07:13:54</time></trkpt><trkpt lat="55.8164680" lon="49.1178290"><time>2021-08-14T07:13:55</time></trkpt><trkpt lat="55.8164670" lon="49.1177990"><time>2021-08-14T07:13:56</time></trkpt><trkpt lat="55.8164650" lon="49.1177700"><time>2021-08-14T07:13:57</time></trkpt><trkpt lat="55.8164640" lon="49.1177420"><time>2021-08-14T07:13:58</time></trkpt><trkpt lat="55.8164660" lon="49.1177150"><time>2021-08-14T07:13:59</time></trkpt><trkpt lat="55.8164670" lon="49.1176840"><time>2021-08-14T07:14:00</time></trkpt><trkpt lat="55.8164670" lon="49.1176550"><time>2021-08-14T07:14:01</time></trkpt><trkpt lat="55.8164660" lon="49.1176280"><time>2021-08-14T07:14:02</time></trkpt><trkpt lat="55.8164650" lon="49.1176010"><time>2021-08-14T07:14:03</time></trkpt><trkpt lat="55.8164650" lon="49.1175720"><time>2021-08-14T07:14:04</time></trkpt><trkpt lat="55.8164670" lon="49.1175440"><time>2021-08-14T07:14:05</time></trkpt><trkpt lat="55.8164680" lon="49.1175210"><time>2021-08-14T07:14:06</time></trkpt><trkpt lat="55.8164660" lon="49.1174880"><time>2021-08-14T07:14:07</time></trkpt><trkpt lat="55.8164660" lon="49.1174580"><time>2021-08-14T07:14:08</time></trkpt><trkpt lat="55.8164650" lon="49.1174320"><time>2021-08-14T07:14:09</time></trkpt><trkpt lat="55.8164650" lon="49.1173960"><time>2021-08-14T07:14:10</time></trkpt><trkpt lat="55.8164620" lon="49.1173720"><time>2021-08-14T07:14:11</time></trkpt><trkpt lat="55.8164620" lon="49.1173380"><time>2021-08-14T07:14:12</time></trkpt><trkpt lat="55.8164640" lon="49.1173100"><time>2021-08-14T07:14:13</time></trkpt><trkpt lat="55.8164640" lon="49.1172800"><time>2021-08-14T07:14:14</time></trkpt><trkpt lat="55.8164660" lon="49.1172500"><time>2021-08-14T07:14:15</time></trkpt><trkpt lat="55.8164640" lon="49.1172210"><time>2021-08-14T07:14:16</time></trkpt><trkpt lat="55.8164640" lon="49.1171930"><time>2021-08-14T07:14:17</time></trkpt><trkpt lat="55.8164640" lon="49.1171650"><time>2021-08-14T07:14:18</time></trkpt><trkpt lat="55.8164620" lon="49.1171380"><time>2021-08-14T07:14:19</time></trkpt><trkpt lat="55.8164640" lon="49.1171090"><time>2021-08-14T07:14:20</time></trkpt><trkpt lat="55.8164640" lon="49.1170770"><time>2021-08-14T07:14:21</time></trkpt><trkpt lat="55.8164620" lon="49.1170480"><time>2021-08-14T07:14:22</time></trkpt><trkpt lat="55.8164610" lon="49.1170200"><time>2021-08-14T07:14:23</time></trkpt><trkpt lat="55.8164510" lon="49.1169970"><time>2021-08-14T07:14:24</time></trkpt><trkpt lat="55.8164370" lon="49.1169840"><time>2021-08-14T07:14:25</time></trkpt><trkpt lat="55.8164200" lon="49.1169820"><time>2021-08-14T07:14:26</time></trkpt><trkpt lat="55.8164060" lon="49.1169820"><time>2021-08-14T07:14:27</time></trkpt><trkpt lat="55.8163920" lon="49.1169750"><time>2021-08-14T07:14:28</time></trkpt><trkpt lat="55.8163760" lon="49.1169700"><time>2021-08-14T07:14:29</time></trkpt><trkpt lat="55.8163620" lon="49.1169690"><time>2021-08-14T07:14:30</time></trkpt><trkpt lat="55.8163470" lon="49.1169710"><time>2021-08-14T07:14:31</time></trkpt><trkpt lat="55.8163320" lon="49.1169760"><time>2021-08-14T07:14:32</time></trkpt><trkpt lat="55.8163190" lon="49.1169840"><time>2021-08-14T07:14:33</time></trkpt><trkpt lat="55.8163050" lon="49.1169850"><time>2021-08-14T07:14:34</time></trkpt><trkpt lat="55.8162900" lon="49.1169820"><time>2021-08-14T07:14:35</time></trkpt><trkpt lat="55.8162740" lon="49.1169670"><time>2021-08-14T07:14:36</time></trkpt><trkpt lat="55.8162600" lon="49.1169550"><time>2021-08-14T07:14:37</time></trkpt><trkpt lat="55.8162440" lon="49.1169520"><time>2021-08-14T07:14:38</time></trkpt><trkpt lat="55.8162300" lon="49.1169440"><time>2021-08-14T07:14:39</time></trkpt><trkpt lat="55.8162140" lon="49.1169400"><time>2021-08-14T07:14:40</time></trkpt><trkpt lat="55.8161970" lon="49.1169340"><time>2021-08-14T07:14:41</time></trkpt><trkpt lat="55.8161820" lon="49.1169230"><time>2021-08-14T07:14:42</time></trkpt><trkpt lat="55.8161660" lon="49.1169140"><time>2021-08-14T07:14:43</time></trkpt><trkpt lat="55.8161500" lon="49.1169040"><time>2021-08-14T07:14:44</time></trkpt><trkpt lat="55.8161350" lon="49.1168960"><time>2021-08-14T07:14:45</time></trkpt><trkpt lat="55.8161190" lon="49.1168870"><time>2021-08-14T07:14:46</time></trkpt><trkpt lat="55.8161020" lon="49.1168790"><time>2021-08-14T07:14:47</time></trkpt><trkpt lat="55.8160860" lon="49.1168700"><time>2021-08-14T07:14:48</time></trkpt><trkpt lat="55.8160690" lon="49.1168710"><time>2021-08-14T07:14:49</time></trkpt><trkpt lat="55.8160520" lon="49.1168670"><time>2021-08-14T07:14:50</time></trkpt><trkpt lat="55.8160350" lon="49.1168680"><time>2021-08-14T07:14:51</time></trkpt><trkpt lat="55.8160190" lon="49.1168680"><time>2021-08-14T07:14:53</time></trkpt><trkpt lat="55.8160020" lon="49.1168730"><time>2021-08-14T07:14:54</time></trkpt><trkpt lat="55.8159850" lon="49.1168660"><time>2021-08-14T07:14:55</time></trkpt><trkpt lat="55.8159680" lon="49.1168600"><time>2021-08-14T07:14:56</time></trkpt><trkpt lat="55.8159500" lon="49.1168610"><time>2021-08-14T07:14:57</time></trkpt><trkpt lat="55.8159330" lon="49.1168600"><time>2021-08-14T07:14:58</time></trkpt><trkpt lat="55.8159170" lon="49.1168620"><time>2021-08-14T07:14:59</time></trkpt><trkpt lat="55.8158860" lon="49.1168520"><time>2021-08-14T07:15:00</time></trkpt><trkpt lat="55.8158710" lon="49.1168290"><time>2021-08-14T07:15:01</time></trkpt><trkpt lat="55.8158560" lon="49.1168210"><time>2021-08-14T07:15:02</time></trkpt><trkpt lat="55.8158390" lon="49.1168170"><time>2021-08-14T07:15:03</time></trkpt><trkpt lat="55.8158220" lon="49.1168180"><time>2021-08-14T07:15:04</time></trkpt><trkpt lat="55.8158060" lon="49.1168140"><time>2021-08-14T07:15:05</time></trkpt><trkpt lat="55.8157880" lon="49.1168090"><time>2021-08-14T07:15:06</time></trkpt><trkpt lat="55.8157700" lon="49.1168060"><time>2021-08-14T07:15:07</time></trkpt><trkpt lat="55.8157530" lon="49.1168060"><time>2021-08-14T07:15:08</time></trkpt><trkpt lat="55.8157350" lon="49.1168080"><time>2021-08-14T07:15:09</time></trkpt><trkpt lat="55.8157200" lon="49.1168110"><time>2021-08-14T07:15:10</time></trkpt><trkpt lat="55.8157050" lon="49.1168140"><time>2021-08-14T07:15:11</time></trkpt><trkpt lat="55.8156890" lon="49.1168180"><time>2021-08-14T07:15:12</time></trkpt><trkpt lat="55.8156730" lon="49.1168160"><time>2021-08-14T07:15:13</time></trkpt><trkpt lat="55.8156580" lon="49.1168130"><time>2021-08-14T07:15:14</time></trkpt><trkpt lat="55.8156410" lon="49.1168150"><time>2021-08-14T07:15:15</time></trkpt><trkpt lat="55.8156250" lon="49.1168210"><time>2021-08-14T07:15:16</time></trkpt><trkpt lat="55.8156100" lon="49.1168290"><time>2021-08-14T07:15:17</time></trkpt><trkpt lat="55.8155950" lon="49.1168320"><time>2021-08-14T07:15:18</time></trkpt><trkpt lat="55.8155800" lon="49.1168370"><time>2021-08-14T07:15:19</time></trkpt><trkpt lat="55.8155630" lon="49.1168370"><time>2021-08-14T07:15:20</time></trkpt><trkpt lat="55.8155470" lon="49.1168410"><time>2021-08-14T07:15:21</time></trkpt><trkpt lat="55.8155310" lon="49.1168400"><time>2021-08-14T07:15:22</time></trkpt><trkpt lat="55.8155150" lon="49.1168470"><time>2021-08-14T07:15:23</time></trkpt><trkpt lat="55.8154990" lon="49.1168540"><time>2021-08-14T07:15:24</time></trkpt><trkpt lat="55.8154830" lon="49.1168560"><time>2021-08-14T07:15:25</time></trkpt><trkpt lat="55.8154690" lon="49.1168490"><time>2021-08-14T07:15:26</time></trkpt><trkpt lat="55.8154540" lon="49.1168450"><time>2021-08-14T07:15:27</time></trkpt><trkpt lat="55.8154330" lon="49.1168520"><time>2021-08-14T07:15:28</time></trkpt><trkpt lat="55.8154240" lon="49.1168600"><time>2021-08-14T07:15:29</time></trkpt><trkpt lat="55.8154150" lon="49.1168670"><time>2021-08-14T07:15:30</time></trkpt><trkpt lat="55.8154040" lon="49.1168770"><time>2021-08-14T07:15:31</time></trkpt><trkpt lat="55.8153880" lon="49.1168770"><time>2021-08-14T07:15:32</time></trkpt><trkpt lat="55.8153760" lon="49.1168750"><time>2021-08-14T07:15:33</time></trkpt><trkpt lat="55.8153640" lon="49.1168800"><time>2021-08-14T07:15:34</time></trkpt><trkpt lat="55.8153530" lon="49.1168840"><time>2021-08-14T07:15:35</time></trkpt><trkpt lat="55.8153320" lon="49.1168800"><time>2021-08-14T07:15:36</time></trkpt><trkpt lat="55.8153240" lon="49.1168790"><time>2021-08-14T07:15:37</time></trkpt><trkpt lat="55.8153150" lon="49.1168790"><time>2021-08-14T07:15:38</time></trkpt><trkpt lat="55.8152950" lon="49.1168860"><time>2021-08-14T07:15:39</time></trkpt><trkpt lat="55.8152860" lon="49.1168860"><time>2021-08-14T07:15:40</time></trkpt><trkpt lat="55.8152770" lon="49.1168870"><time>2021-08-14T07:15:41</time></trkpt><trkpt lat="55.8152630" lon="49.1168960"><time>2021-08-14T07:15:42</time></trkpt><trkpt lat="55.8152500" lon="49.1169020"><time>2021-08-14T07:15:43</time></trkpt><trkpt lat="55.8152350" lon="49.1169060"><time>2021-08-14T07:15:44</time></trkpt><trkpt lat="55.8152210" lon="49.1169070"><time>2021-08-14T07:15:45</time></trkpt><trkpt lat="55.8152070" lon="49.1169010"><time>2021-08-14T07:15:46</time></trkpt><trkpt lat="55.8151940" lon="49.1169000"><time>2021-08-14T07:15:47</time></trkpt><trkpt lat="55.8151800" lon="49.1169050"><time>2021-08-14T07:15:48</time></trkpt><trkpt lat="55.8151660" lon="49.1169100"><time>2021-08-14T07:15:49</time></trkpt><trkpt lat="55.8151540" lon="49.1169180"><time>2021-08-14T07:15:50</time></trkpt><trkpt lat="55.8151400" lon="49.1169280"><time>2021-08-14T07:15:51</time></trkpt><trkpt lat="55.8151260" lon="49.1169410"><time>2021-08-14T07:15:52</time></trkpt><trkpt lat="55.8151120" lon="49.1169470"><time>2021-08-14T07:15:53</time></trkpt><trkpt lat="55.8151000" lon="49.1169560"><time>2021-08-14T07:15:54</time></trkpt><trkpt lat="55.8150870" lon="49.1169680"><time>2021-08-14T07:15:55</time></trkpt><trkpt lat="55.8150660" lon="49.1169880"><time>2021-08-14T07:15:56</time></trkpt><trkpt lat="55.8150570" lon="49.1169980"><time>2021-08-14T07:15:57</time></trkpt><trkpt lat="55.8150490" lon="49.1170080"><time>2021-08-14T07:15:58</time></trkpt><trkpt lat="55.8150300" lon="49.1170310"><time>2021-08-14T07:15:59</time></trkpt><trkpt lat="55.8150230" lon="49.1170390"><time>2021-08-14T07:16:00</time></trkpt><trkpt lat="55.8150150" lon="49.1170480"><time>2021-08-14T07:16:01</time></trkpt><trkpt lat="55.8150030" lon="49.1170580"><time>2021-08-14T07:16:02</time></trkpt><trkpt lat="55.8149880" lon="49.1170590"><time>2021-08-14T07:16:03</time></trkpt><trkpt lat="55.8149730" lon="49.1170650"><time>2021-08-14T07:16:04</time></trkpt><trkpt lat="55.8149610" lon="49.1170680"><time>2021-08-14T07:16:05</time></trkpt><trkpt lat="55.8149400" lon="49.1170710"><time>2021-08-14T07:16:06</time></trkpt><trkpt lat="55.8149310" lon="49.1170720"><time>2021-08-14T07:16:07</time></trkpt><trkpt lat="55.8149220" lon="49.1170720"><time>2021-08-14T07:16:08</time></trkpt><trkpt lat="55.8149090" lon="49.1170630"><time>2021-08-14T07:16:09</time></trkpt><trkpt lat="55.8148950" lon="49.1170490"><time>2021-08-14T07:16:10</time></trkpt><trkpt lat="55.8148840" lon="49.1170260"><time>2021-08-14T07:16:11</time></trkpt><trkpt lat="55.8148720" lon="49.1170200"><time>2021-08-14T07:16:12</time></trkpt><trkpt lat="55.8148590" lon="49.1170100"><time>2021-08-14T07:16:13</time></trkpt><trkpt lat="55.8148460" lon="49.1169990"><time>2021-08-14T07:16:14</time></trkpt><trkpt lat="55.8148310" lon="49.1169840"><time>2021-08-14T07:16:15</time></trkpt><trkpt lat="55.8148170" lon="49.1169710"><time>2021-08-14T07:16:16</time></trkpt><trkpt lat="55.8148050" lon="49.1169590"><time>2021-08-14T07:16:17</time></trkpt><trkpt lat="55.8147920" lon="49.1169500"><time>2021-08-14T07:16:18</time></trkpt><trkpt lat="55.8147730" lon="49.1169330"><time>2021-08-14T07:16:19</time></trkpt><trkpt lat="55.8147660" lon="49.1169250"><time>2021-08-14T07:16:20</time></trkpt><trkpt lat="55.8147590" lon="49.1169170"><time>2021-08-14T07:16:21</time></trkpt><trkpt lat="55.8147530" lon="49.1169040"><time>2021-08-14T07:16:22</time></trkpt><trkpt lat="55.8147470" lon="49.1168910"><time>2021-08-14T07:16:23</time></trkpt><trkpt lat="55.8147480" lon="49.1168810"><time>2021-08-14T07:16:24</time></trkpt><trkpt lat="55.8147460" lon="49.1168960"><time>2021-08-14T07:16:25</time></trkpt><trkpt lat="55.8147490" lon="49.1169100"><time>2021-08-14T07:16:26</time></trkpt><trkpt lat="55.8147490" lon="49.1169150"><time>2021-08-14T07:16:27</time></trkpt><trkpt lat="55.8147510" lon="49.1169180"><time>2021-08-14T07:16:28</time></trkpt><trkpt lat="55.8147520" lon="49.1169190"><time>2021-08-14T07:16:29</time></trkpt><trkpt lat="55.8147520" lon="49.1169190"><time>2021-08-14T07:16:30</time></trkpt><trkpt lat="55.8147520" lon="49.1169190"><time>2021-08-14T07:16:31</time></trkpt><trkpt lat="55.8147520" lon="49.1169190"><time>2021-08-14T07:16:32</time></trkpt><trkpt lat="55.8147520" lon="49.1169190"><time>2021-08-14T07:16:33</time></trkpt><trkpt lat="55.8147520" lon="49.1169190"><time>2021-08-14T07:16:34</time></trkpt><trkpt lat="55.8147520" lon="49.1169190"><time>2021-08-14T07:16:35</time></trkpt><trkpt lat="55.8147520" lon="49.1169190"><time>2021-08-14T07:16:36</time></trkpt><trkpt lat="55.8147520" lon="49.1169190"><time>2021-08-14T07:16:37</time></trkpt><trkpt lat="55.8147520" lon="49.1169190"><time>2021-08-14T07:16:38</time></trkpt><trkpt lat="55.8147520" lon="49.1169190"><time>2021-08-14T07:16:39</time></trkpt><trkpt lat="55.8147610" lon="49.1169280"><time>2021-08-14T07:16:40</time></trkpt><trkpt lat="55.8147580" lon="49.1169240"><time>2021-08-14T07:16:41</time></trkpt><trkpt lat="55.8147450" lon="49.1169100"><time>2021-08-14T07:16:42</time></trkpt><trkpt lat="55.8147350" lon="49.1168950"><time>2021-08-14T07:16:43</time></trkpt><trkpt lat="55.8147320" lon="49.1168800"><time>2021-08-14T07:16:44</time></trkpt><trkpt lat="55.8147260" lon="49.1168730"><time>2021-08-14T07:16:45</time></trkpt><trkpt lat="55.8147210" lon="49.1168600"><time>2021-08-14T07:16:46</time></trkpt><trkpt lat="55.8147150" lon="49.1168430"><time>2021-08-14T07:16:47</time></trkpt><trkpt lat="55.8147090" lon="49.1168350"><time>2021-08-14T07:16:48</time></trkpt><trkpt lat="55.8146970" lon="49.1168290"><time>2021-08-14T07:16:49</time></trkpt><trkpt lat="55.8146890" lon="49.1168080"><time>2021-08-14T07:16:50</time></trkpt><trkpt lat="55.8146800" lon="49.1167850"><time>2021-08-14T07:16:51</time></trkpt><trkpt lat="55.8146780" lon="49.1167670"><time>2021-08-14T07:16:52</time></trkpt><trkpt lat="55.8146820" lon="49.1167490"><time>2021-08-14T07:16:53</time></trkpt><trkpt lat="55.8146820" lon="49.1167160"><time>2021-08-14T07:16:55</time></trkpt><trkpt lat="55.8146840" lon="49.1167060"><time>2021-08-14T07:16:56</time></trkpt><trkpt lat="55.8146850" lon="49.1166950"><time>2021-08-14T07:16:57</time></trkpt><trkpt lat="55.8146860" lon="49.1166840"><time>2021-08-14T07:16:58</time></trkpt><trkpt lat="55.8146850" lon="49.1166540"><time>2021-08-14T07:16:59</time></trkpt><trkpt lat="55.8146840" lon="49.1166330"><time>2021-08-14T07:17:00</time></trkpt><trkpt lat="55.8146840" lon="49.1166180"><time>2021-08-14T07:17:01</time></trkpt><trkpt lat="55.8146830" lon="49.1165950"><time>2021-08-14T07:17:02</time></trkpt><trkpt lat="55.8146770" lon="49.1165880"><time>2021-08-14T07:17:03</time></trkpt><trkpt lat="55.8146750" lon="49.1165720"><time>2021-08-14T07:17:04</time></trkpt><trkpt lat="55.8146750" lon="49.1165430"><time>2021-08-14T07:17:05</time></trkpt><trkpt lat="55.8146690" lon="49.1165240"><time>2021-08-14T07:17:06</time></trkpt><trkpt lat="55.8146660" lon="49.1164920"><time>2021-08-14T07:17:07</time></trkpt><trkpt lat="55.8146630" lon="49.1164750"><time>2021-08-14T07:17:08</time></trkpt><trkpt lat="55.8146610" lon="49.1164580"><time>2021-08-14T07:17:09</time></trkpt><trkpt lat="55.8146610" lon="49.1164440"><time>2021-08-14T07:17:10</time></trkpt><trkpt lat="55.8146560" lon="49.1164120"><time>2021-08-14T07:17:11</time></trkpt><trkpt lat="55.8146540" lon="49.1163970"><time>2021-08-14T07:17:12</time></trkpt><trkpt lat="55.8146510" lon="49.1163740"><time>2021-08-14T07:17:13</time></trkpt><trkpt lat="55.8146550" lon="49.1163610"><time>2021-08-14T07:17:14</time></trkpt><trkpt lat="55.8146580" lon="49.1163470"><time>2021-08-14T07:17:15</time></trkpt><trkpt lat="55.8146610" lon="49.1163330"><time>2021-08-14T07:17:16</time></trkpt><trkpt lat="55.8146640" lon="49.1163270"><time>2021-08-14T07:17:17</time></trkpt><trkpt lat="55.8146630" lon="49.1163180"><time>2021-08-14T07:17:18</time></trkpt><trkpt lat="55.8146560" lon="49.1162950"><time>2021-08-14T07:17:19</time></trkpt><trkpt lat="55.8146490" lon="49.1162780"><time>2021-08-14T07:17:20</time></trkpt><trkpt lat="55.8146460" lon="49.1162570"><time>2021-08-14T07:17:21</time></trkpt><trkpt lat="55.8146500" lon="49.1162450"><time>2021-08-14T07:17:22</time></trkpt><trkpt lat="55.8146440" lon="49.1162220"><time>2021-08-14T07:17:23</time></trkpt><trkpt lat="55.8146370" lon="49.1162050"><time>2021-08-14T07:17:24</time></trkpt><trkpt lat="55.8146330" lon="49.1161970"><time>2021-08-14T07:17:25</time></trkpt><trkpt lat="55.8146280" lon="49.1161790"><time>2021-08-14T07:17:26</time></trkpt><trkpt lat="55.8146240" lon="49.1161580"><time>2021-08-14T07:17:27</time></trkpt><trkpt lat="55.8146270" lon="49.1161450"><time>2021-08-14T07:17:28</time></trkpt><trkpt lat="55.8146230" lon="49.1161170"><time>2021-08-14T07:17:29</time></trkpt><trkpt lat="55.8146190" lon="49.1161040"><time>2021-08-14T07:17:30</time></trkpt><trkpt lat="55.8146160" lon="49.1160940"><time>2021-08-14T07:17:31</time></trkpt><trkpt lat="55.8146120" lon="49.1160850"><time>2021-08-14T07:17:32</time></trkpt><trkpt lat="55.8146070" lon="49.1160750"><time>2021-08-14T07:17:33</time></trkpt><trkpt lat="55.8146010" lon="49.1160710"><time>2021-08-14T07:17:34</time></trkpt><trkpt lat="55.8146010" lon="49.1160750"><time>2021-08-14T07:17:35</time></trkpt><trkpt lat="55.8146010" lon="49.1160780"><time>2021-08-14T07:17:36</time></trkpt><trkpt lat="55.8146010" lon="49.1160810"><time>2021-08-14T07:17:37</time></trkpt><trkpt lat="55.8146010" lon="49.1160850"><time>2021-08-14T07:17:38</time></trkpt><trkpt lat="55.8146000" lon="49.1160880"><time>2021-08-14T07:17:39</time></trkpt><trkpt lat="55.8146000" lon="49.1160910"><time>2021-08-14T07:17:40</time></trkpt><trkpt lat="55.8146000" lon="49.1160940"><time>2021-08-14T07:17:41</time></trkpt><trkpt lat="55.8146000" lon="49.1160980"><time>2021-08-14T07:17:42</time></trkpt><trkpt lat="55.8146000" lon="49.1161010"><time>2021-08-14T07:17:43</time></trkpt><trkpt lat="55.8146000" lon="49.1161040"><time>2021-08-14T07:17:44</time></trkpt><trkpt lat="55.8146000" lon="49.1161080"><time>2021-08-14T07:17:45</time></trkpt><trkpt lat="55.8146000" lon="49.1161110"><time>2021-08-14T07:17:46</time></trkpt><trkpt lat="55.8146000" lon="49.1161140"><time>2021-08-14T07:17:47</time></trkpt><trkpt lat="55.8146000" lon="49.1161180"><time>2021-08-14T07:17:48</time></trkpt><trkpt lat="55.8146000" lon="49.1161210"><time>2021-08-14T07:17:49</time></trkpt><trkpt lat="55.8146000" lon="49.1161240"><time>2021-08-14T07:17:50</time></trkpt><trkpt lat="55.8145990" lon="49.1161270"><time>2021-08-14T07:17:51</time></trkpt><trkpt lat="55.8145990" lon="49.1161310"><time>2021-08-14T07:17:52</time></trkpt><trkpt lat="55.8145990" lon="49.1161340"><time>2021-08-14T07:17:53</time></trkpt><trkpt lat="55.8145990" lon="49.1161370"><time>2021-08-14T07:17:54</time></trkpt><trkpt lat="55.8145990" lon="49.1161410"><time>2021-08-14T07:17:55</time></trkpt><trkpt lat="55.8145990" lon="49.1161440"><time>2021-08-14T07:17:56</time></trkpt><trkpt lat="55.8145950" lon="49.1161640"><time>2021-08-14T07:17:57</time></trkpt><trkpt lat="55.8145940" lon="49.1161820"><time>2021-08-14T07:17:58</time></trkpt><trkpt lat="55.8145900" lon="49.1162400"><time>2021-08-14T07:17:59</time></trkpt><trkpt lat="55.8145840" lon="49.1162950"><time>2021-08-14T07:18:01</time></trkpt><trkpt lat="55.8145880" lon="49.1163090"><time>2021-08-14T07:18:02</time></trkpt><trkpt lat="55.8145920" lon="49.1163320"><time>2021-08-14T07:18:03</time></trkpt><trkpt lat="55.8145930" lon="49.1163500"><time>2021-08-14T07:18:04</time></trkpt><trkpt lat="55.8145930" lon="49.1163720"><time>2021-08-14T07:18:05</time></trkpt><trkpt lat="55.8145920" lon="49.1164000"><time>2021-08-14T07:18:06</time></trkpt><trkpt lat="55.8145900" lon="49.1164160"><time>2021-08-14T07:18:07</time></trkpt><trkpt lat="55.8145880" lon="49.1164350"><time>2021-08-14T07:18:08</time></trkpt><trkpt lat="55.8145870" lon="49.1164630"><time>2021-08-14T07:18:09</time></trkpt><trkpt lat="55.8145860" lon="49.1164820"><time>2021-08-14T07:18:10</time></trkpt><trkpt lat="55.8145840" lon="49.1164950"><time>2021-08-14T07:18:11</time></trkpt><trkpt lat="55.8145840" lon="49.1165060"><time>2021-08-14T07:18:12</time></trkpt><trkpt lat="55.8145810" lon="49.1165240"><time>2021-08-14T07:18:13</time></trkpt><trkpt lat="55.8145780" lon="49.1165520"><time>2021-08-14T07:18:14</time></trkpt><trkpt lat="55.8145790" lon="49.1165860"><time>2021-08-14T07:18:15</time></trkpt><trkpt lat="55.8145810" lon="49.1166010"><time>2021-08-14T07:18:16</time></trkpt><trkpt lat="55.8145820" lon="49.1166170"><time>2021-08-14T07:18:17</time></trkpt><trkpt lat="55.8145810" lon="49.1166400"><time>2021-08-14T07:18:18</time></trkpt><trkpt lat="55.8145830" lon="49.1166620"><time>2021-08-14T07:18:19</time></trkpt><trkpt lat="55.8145860" lon="49.1166800"><time>2021-08-14T07:18:20</time></trkpt><trkpt lat="55.8145850" lon="49.1167150"><time>2021-08-14T07:18:21</time></trkpt><trkpt lat="55.8145830" lon="49.1167290"><time>2021-08-14T07:18:22</time></trkpt><trkpt lat="55.8145820" lon="49.1167440"><time>2021-08-14T07:18:23</time></trkpt><trkpt lat="55.8145800" lon="49.1167810"><time>2021-08-14T07:18:24</time></trkpt><trkpt lat="55.8145780" lon="49.1167960"><time>2021-08-14T07:18:25</time></trkpt><trkpt lat="55.8145760" lon="49.1168100"><time>2021-08-14T07:18:26</time></trkpt><trkpt lat="55.8145850" lon="49.1168430"><time>2021-08-14T07:18:27</time></trkpt><trkpt lat="55.8145860" lon="49.1168580"><time>2021-08-14T07:18:28</time></trkpt><trkpt lat="55.8145870" lon="49.1168730"><time>2021-08-14T07:18:29</time></trkpt><trkpt lat="55.8145890" lon="49.1169170"><time>2021-08-14T07:18:30</time></trkpt><trkpt lat="55.8145910" lon="49.1169340"><time>2021-08-14T07:18:31</time></trkpt><trkpt lat="55.8145920" lon="49.1169500"><time>2021-08-14T07:18:32</time></trkpt><trkpt lat="55.8145940" lon="49.1169660"><time>2021-08-14T07:18:33</time></trkpt><trkpt lat="55.8145910" lon="49.1169900"><time>2021-08-14T07:18:34</time></trkpt><trkpt lat="55.8145940" lon="49.1170070"><time>2021-08-14T07:18:35</time></trkpt><trkpt lat="55.8146020" lon="49.1170510"><time>2021-08-14T07:18:36</time></trkpt><trkpt lat="55.8146020" lon="49.1170650"><time>2021-08-14T07:18:37</time></trkpt><trkpt lat="55.8146030" lon="49.1170790"><time>2021-08-14T07:18:38</time></trkpt><trkpt lat="55.8146100" lon="49.1171050"><time>2021-08-14T07:18:39</time></trkpt><trkpt lat="55.8146150" lon="49.1171240"><time>2021-08-14T07:18:40</time></trkpt><trkpt lat="55.8146140" lon="49.1171500"><time>2021-08-14T07:18:41</time></trkpt><trkpt lat="55.8146090" lon="49.1171750"><time>2021-08-14T07:18:42</time></trkpt><trkpt lat="55.8146030" lon="49.1171950"><time>2021-08-14T07:18:43</time></trkpt><trkpt lat="55.8145970" lon="49.1172080"><time>2021-08-14T07:18:44</time></trkpt><trkpt lat="55.8145920" lon="49.1172160"><time>2021-08-14T07:18:45</time></trkpt><trkpt lat="55.8145850" lon="49.1172300"><time>2021-08-14T07:18:46</time></trkpt><trkpt lat="55.8145810" lon="49.1172390"><time>2021-08-14T07:18:47</time></trkpt><trkpt lat="55.8145840" lon="49.1172340"><time>2021-08-14T07:18:48</time></trkpt><trkpt lat="55.8145830" lon="49.1172420"><time>2021-08-14T07:18:49</time></trkpt><trkpt lat="55.8145840" lon="49.1172380"><time>2021-08-14T07:18:50</time></trkpt><trkpt lat="55.8145830" lon="49.1172430"><time>2021-08-14T07:18:51</time></trkpt><trkpt lat="55.8145830" lon="49.1172430"><time>2021-08-14T07:18:53</time></trkpt><trkpt lat="55.8145820" lon="49.1172430"><time>2021-08-14T07:18:54</time></trkpt><trkpt lat="55.8145830" lon="49.1172490"><time>2021-08-14T07:18:55</time></trkpt><trkpt lat="55.8145890" lon="49.1172540"><time>2021-08-14T07:18:56</time></trkpt><trkpt lat="55.8145960" lon="49.1172510"><time>2021-08-14T07:18:57</time></trkpt><trkpt lat="55.8146020" lon="49.1172440"><time>2021-08-14T07:18:58</time></trkpt><trkpt lat="55.8146090" lon="49.1172370"><time>2021-08-14T07:18:59</time></trkpt><trkpt lat="55.8146190" lon="49.1172310"><time>2021-08-14T07:19:00</time></trkpt><trkpt lat="55.8146270" lon="49.1172230"><time>2021-08-14T07:19:01</time></trkpt><trkpt lat="55.8146370" lon="49.1172160"><time>2021-08-14T07:19:02</time></trkpt><trkpt lat="55.8146450" lon="49.1172140"><time>2021-08-14T07:19:03</time></trkpt><trkpt lat="55.8146650" lon="49.1172070"><time>2021-08-14T07:19:04</time></trkpt><trkpt lat="55.8146730" lon="49.1172020"><time>2021-08-14T07:19:05</time></trkpt><trkpt lat="55.8146810" lon="49.1171980"><time>2021-08-14T07:19:06</time></trkpt><trkpt lat="55.8146900" lon="49.1171900"><time>2021-08-14T07:19:07</time></trkpt><trkpt lat="55.8147100" lon="49.1171790"><time>2021-08-14T07:19:08</time></trkpt><trkpt lat="55.8147190" lon="49.1171670"><time>2021-08-14T07:19:09</time></trkpt><trkpt lat="55.8147310" lon="49.1171690"><time>2021-08-14T07:19:10</time></trkpt><trkpt lat="55.8147400" lon="49.1171670"><time>2021-08-14T07:19:11</time></trkpt><trkpt lat="55.8147580" lon="49.1171690"><time>2021-08-14T07:19:12</time></trkpt><trkpt lat="55.8147690" lon="49.1171740"><time>2021-08-14T07:19:13</time></trkpt><trkpt lat="55.8148020" lon="49.1171550"><time>2021-08-14T07:19:14</time></trkpt><trkpt lat="55.8148110" lon="49.1171490"><time>2021-08-14T07:19:15</time></trkpt><trkpt lat="55.8148350" lon="49.1171370"><time>2021-08-14T07:19:16</time></trkpt><trkpt lat="55.8148460" lon="49.1171350"><time>2021-08-14T07:19:17</time></trkpt><trkpt lat="55.8148440" lon="49.1171280"><time>2021-08-14T07:19:18</time></trkpt><trkpt lat="55.8148540" lon="49.1171210"><time>2021-08-14T07:19:19</time></trkpt><trkpt lat="55.8148620" lon="49.1171140"><time>2021-08-14T07:19:20</time></trkpt><trkpt lat="55.8148700" lon="49.1171030"><time>2021-08-14T07:19:21</time></trkpt><trkpt lat="55.8148940" lon="49.1170930"><time>2021-08-14T07:19:22</time></trkpt><trkpt lat="55.8149060" lon="49.1170900"><time>2021-08-14T07:19:23</time></trkpt><trkpt lat="55.8149170" lon="49.1170910"><time>2021-08-14T07:19:24</time></trkpt><trkpt lat="55.8149330" lon="49.1170940"><time>2021-08-14T07:19:25</time></trkpt><trkpt lat="55.8149480" lon="49.1170980"><time>2021-08-14T07:19:26</time></trkpt><trkpt lat="55.8149640" lon="49.1170940"><time>2021-08-14T07:19:27</time></trkpt><trkpt lat="55.8149800" lon="49.1170900"><time>2021-08-14T07:19:28</time></trkpt><trkpt lat="55.8149920" lon="49.1170890"><time>2021-08-14T07:19:29</time></trkpt><trkpt lat="55.8150140" lon="49.1170760"><time>2021-08-14T07:19:30</time></trkpt><trkpt lat="55.8150220" lon="49.1170700"><time>2021-08-14T07:19:31</time></trkpt><trkpt lat="55.8150310" lon="49.1170640"><time>2021-08-14T07:19:32</time></trkpt><trkpt lat="55.8150450" lon="49.1170540"><time>2021-08-14T07:19:33</time></trkpt><trkpt lat="55.8150600" lon="49.1170450"><time>2021-08-14T07:19:34</time></trkpt><trkpt lat="55.8150750" lon="49.1170390"><time>2021-08-14T07:19:35</time></trkpt><trkpt lat="55.8150880" lon="49.1170270"><time>2021-08-14T07:19:36</time></trkpt><trkpt lat="55.8151030" lon="49.1170270"><time>2021-08-14T07:19:37</time></trkpt><trkpt lat="55.8151180" lon="49.1170230"><time>2021-08-14T07:19:38</time></trkpt><trkpt lat="55.8151320" lon="49.1170140"><time>2021-08-14T07:19:39</time></trkpt><trkpt lat="55.8151480" lon="49.1170100"><time>2021-08-14T07:19:40</time></trkpt><trkpt lat="55.8151610" lon="49.1170040"><time>2021-08-14T07:19:41</time></trkpt><trkpt lat="55.8151740" lon="49.1169930"><time>2021-08-14T07:19:42</time></trkpt><trkpt lat="55.8151890" lon="49.1169870"><time>2021-08-14T07:19:43</time></trkpt><trkpt lat="55.8152020" lon="49.1169740"><time>2021-08-14T07:19:44</time></trkpt><trkpt lat="55.8152160" lon="49.1169640"><time>2021-08-14T07:19:45</time></trkpt><trkpt lat="55.8152290" lon="49.1169570"><time>2021-08-14T07:19:46</time></trkpt><trkpt lat="55.8152450" lon="49.1169530"><time>2021-08-14T07:19:47</time></trkpt><trkpt lat="55.8152610" lon="49.1169450"><time>2021-08-14T07:19:48</time></trkpt><trkpt lat="55.8152740" lon="49.1169320"><time>2021-08-14T07:19:49</time></trkpt><trkpt lat="55.8152830" lon="49.1169060"><time>2021-08-14T07:19:50</time></trkpt><trkpt lat="55.8152960" lon="49.1168920"><time>2021-08-14T07:19:51</time></trkpt><trkpt lat="55.8153140" lon="49.1168850"><time>2021-08-14T07:19:52</time></trkpt><trkpt lat="55.8153310" lon="49.1168830"><time>2021-08-14T07:19:53</time></trkpt><trkpt lat="55.8153450" lon="49.1168810"><time>2021-08-14T07:19:54</time></trkpt><trkpt lat="55.8153610" lon="49.1168840"><time>2021-08-14T07:19:55</time></trkpt><trkpt lat="55.8153760" lon="49.1168900"><time>2021-08-14T07:19:56</time></trkpt><trkpt lat="55.8153900" lon="49.1168890"><time>2021-08-14T07:19:57</time></trkpt><trkpt lat="55.8154050" lon="49.1168840"><time>2021-08-14T07:19:58</time></trkpt><trkpt lat="55.8154190" lon="49.1168820"><time>2021-08-14T07:19:59</time></trkpt><trkpt lat="55.8154330" lon="49.1168790"><time>2021-08-14T07:20:00</time></trkpt><trkpt lat="55.8154460" lon="49.1168720"><time>2021-08-14T07:20:01</time></trkpt><trkpt lat="55.8154620" lon="49.1168690"><time>2021-08-14T07:20:02</time></trkpt><trkpt lat="55.8154770" lon="49.1168700"><time>2021-08-14T07:20:03</time></trkpt><trkpt lat="55.8154910" lon="49.1168620"><time>2021-08-14T07:20:04</time></trkpt><trkpt lat="55.8155050" lon="49.1168490"><time>2021-08-14T07:20:05</time></trkpt><trkpt lat="55.8155180" lon="49.1168340"><time>2021-08-14T07:20:06</time></trkpt><trkpt lat="55.8155310" lon="49.1168270"><time>2021-08-14T07:20:07</time></trkpt><trkpt lat="55.8155490" lon="49.1168310"><time>2021-08-14T07:20:08</time></trkpt><trkpt lat="55.8155650" lon="49.1168410"><time>2021-08-14T07:20:09</time></trkpt><trkpt lat="55.8155790" lon="49.1168320"><time>2021-08-14T07:20:10</time></trkpt><trkpt lat="55.8155910" lon="49.1168340"><time>2021-08-14T07:20:11</time></trkpt><trkpt lat="55.8156070" lon="49.1168310"><time>2021-08-14T07:20:12</time></trkpt><trkpt lat="55.8156210" lon="49.1168410"><time>2021-08-14T07:20:13</time></trkpt><trkpt lat="55.8156380" lon="49.1168450"><time>2021-08-14T07:20:14</time></trkpt><trkpt lat="55.8156520" lon="49.1168370"><time>2021-08-14T07:20:15</time></trkpt><trkpt lat="55.8156640" lon="49.1168340"><time>2021-08-14T07:20:16</time></trkpt><trkpt lat="55.8156740" lon="49.1168390"><time>2021-08-14T07:20:17</time></trkpt><trkpt lat="55.8156890" lon="49.1168320"><time>2021-08-14T07:20:18</time></trkpt><trkpt lat="55.8156990" lon="49.1168320"><time>2021-08-14T07:20:19</time></trkpt><trkpt lat="55.8157200" lon="49.1168370"><time>2021-08-14T07:20:20</time></trkpt><trkpt lat="55.8157270" lon="49.1168490"><time>2021-08-14T07:20:21</time></trkpt><trkpt lat="55.8157440" lon="49.1168550"><time>2021-08-14T07:20:22</time></trkpt><trkpt lat="55.8157590" lon="49.1168510"><time>2021-08-14T07:20:23</time></trkpt><trkpt lat="55.8157750" lon="49.1168380"><time>2021-08-14T07:20:24</time></trkpt><trkpt lat="55.8157870" lon="49.1168360"><time>2021-08-14T07:20:25</time></trkpt><trkpt lat="55.8158000" lon="49.1168350"><time>2021-08-14T07:20:26</time></trkpt><trkpt lat="55.8158300" lon="49.1168330"><time>2021-08-14T07:20:27</time></trkpt><trkpt lat="55.8158380" lon="49.1168380"><time>2021-08-14T07:20:28</time></trkpt><trkpt lat="55.8158550" lon="49.1168500"><time>2021-08-14T07:20:29</time></trkpt><trkpt lat="55.8158740" lon="49.1168470"><time>2021-08-14T07:20:30</time></trkpt><trkpt lat="55.8158880" lon="49.1168490"><time>2021-08-14T07:20:31</time></trkpt><trkpt lat="55.8159010" lon="49.1168530"><time>2021-08-14T07:20:32</time></trkpt><trkpt lat="55.8159190" lon="49.1168560"><time>2021-08-14T07:20:33</time></trkpt><trkpt lat="55.8159350" lon="49.1168540"><time>2021-08-14T07:20:34</time></trkpt><trkpt lat="55.8159510" lon="49.1168630"><time>2021-08-14T07:20:35</time></trkpt><trkpt lat="55.8159660" lon="49.1168600"><time>2021-08-14T07:20:36</time></trkpt><trkpt lat="55.8159930" lon="49.1168720"><time>2021-08-14T07:20:37</time></trkpt><trkpt lat="55.8160030" lon="49.1168700"><time>2021-08-14T07:20:38</time></trkpt><trkpt lat="55.8160160" lon="49.1168640"><time>2021-08-14T07:20:39</time></trkpt><trkpt lat="55.8160320" lon="49.1168660"><time>2021-08-14T07:20:40</time></trkpt><trkpt lat="55.8160450" lon="49.1168670"><time>2021-08-14T07:20:41</time></trkpt><trkpt lat="55.8160610" lon="49.1168530"><time>2021-08-14T07:20:42</time></trkpt><trkpt lat="55.8160780" lon="49.1168440"><time>2021-08-14T07:20:43</time></trkpt><trkpt lat="55.8160910" lon="49.1168290"><time>2021-08-14T07:20:44</time></trkpt><trkpt lat="55.8161050" lon="49.1168090"><time>2021-08-14T07:20:45</time></trkpt><trkpt lat="55.8161140" lon="49.1167850"><time>2021-08-14T07:20:46</time></trkpt><trkpt lat="55.8161250" lon="49.1167620"><time>2021-08-14T07:20:47</time></trkpt><trkpt lat="55.8161350" lon="49.1167430"><time>2021-08-14T07:20:48</time></trkpt><trkpt lat="55.8161460" lon="49.1167260"><time>2021-08-14T07:20:49</time></trkpt><trkpt lat="55.8161560" lon="49.1167100"><time>2021-08-14T07:20:50</time></trkpt><trkpt lat="55.8161670" lon="49.1166840"><time>2021-08-14T07:20:51</time></trkpt><trkpt lat="55.8161780" lon="49.1166660"><time>2021-08-14T07:20:52</time></trkpt><trkpt lat="55.8162050" lon="49.1166460"><time>2021-08-14T07:20:53</time></trkpt><trkpt lat="55.8162130" lon="49.1166420"><time>2021-08-14T07:20:54</time></trkpt><trkpt lat="55.8162400" lon="49.1166290"><time>2021-08-14T07:20:55</time></trkpt><trkpt lat="55.8162480" lon="49.1166230"><time>2021-08-14T07:20:56</time></trkpt><trkpt lat="55.8162580" lon="49.1166140"><time>2021-08-14T07:20:57</time></trkpt><trkpt lat="55.8162710" lon="49.1165960"><time>2021-08-14T07:20:58</time></trkpt><trkpt lat="55.8162850" lon="49.1165840"><time>2021-08-14T07:20:59</time></trkpt><trkpt lat="55.8162920" lon="49.1165610"><time>2021-08-14T07:21:00</time></trkpt><trkpt lat="55.8163020" lon="49.1165430"><time>2021-08-14T07:21:01</time></trkpt><trkpt lat="55.8163120" lon="49.1165280"><time>2021-08-14T07:21:02</time></trkpt><trkpt lat="55.8163240" lon="49.1165120"><time>2021-08-14T07:21:03</time></trkpt><trkpt lat="55.8163330" lon="49.1164940"><time>2021-08-14T07:21:04</time></trkpt><trkpt lat="55.8163340" lon="49.1164730"><time>2021-08-14T07:21:05</time></trkpt><trkpt lat="55.8163420" lon="49.1164550"><time>2021-08-14T07:21:06</time></trkpt><trkpt lat="55.8163490" lon="49.1164380"><time>2021-08-14T07:21:07</time></trkpt><trkpt lat="55.8163450" lon="49.1164040"><time>2021-08-14T07:21:08</time></trkpt><trkpt lat="55.8163520" lon="49.1163860"><time>2021-08-14T07:21:09</time></trkpt><trkpt lat="55.8163540" lon="49.1163620"><time>2021-08-14T07:21:10</time></trkpt><trkpt lat="55.8163570" lon="49.1163380"><time>2021-08-14T07:21:11</time></trkpt><trkpt lat="55.8163620" lon="49.1163120"><time>2021-08-14T07:21:12</time></trkpt><trkpt lat="55.8163600" lon="49.1162770"><time>2021-08-14T07:21:13</time></trkpt><trkpt lat="55.8163650" lon="49.1162490"><time>2021-08-14T07:21:14</time></trkpt><trkpt lat="55.8163670" lon="49.1162210"><time>2021-08-14T07:21:15</time></trkpt><trkpt lat="55.8163660" lon="49.1161910"><time>2021-08-14T07:21:16</time></trkpt><trkpt lat="55.8163680" lon="49.1161650"><time>2021-08-14T07:21:17</time></trkpt><trkpt lat="55.8163700" lon="49.1161340"><time>2021-08-14T07:21:18</time></trkpt><trkpt lat="55.8163720" lon="49.1161080"><time>2021-08-14T07:21:19</time></trkpt><trkpt lat="55.8163740" lon="49.1160750"><time>2021-08-14T07:21:20</time></trkpt><trkpt lat="55.8163800" lon="49.1160460"><time>2021-08-14T07:21:21</time></trkpt><trkpt lat="55.8163780" lon="49.1160170"><time>2021-08-14T07:21:22</time></trkpt><trkpt lat="55.8163850" lon="49.1159890"><time>2021-08-14T07:21:23</time></trkpt><trkpt lat="55.8163930" lon="49.1159640"><time>2021-08-14T07:21:24</time></trkpt><trkpt lat="55.8163980" lon="49.1159330"><time>2021-08-14T07:21:25</time></trkpt><trkpt lat="55.8164010" lon="49.1159010"><time>2021-08-14T07:21:26</time></trkpt><trkpt lat="55.8164030" lon="49.1158780"><time>2021-08-14T07:21:27</time></trkpt><trkpt lat="55.8164280" lon="49.1158580"><time>2021-08-14T07:21:28</time></trkpt><trkpt lat="55.8164400" lon="49.1158520"><time>2021-08-14T07:21:29</time></trkpt><trkpt lat="55.8164670" lon="49.1158500"><time>2021-08-14T07:21:30</time></trkpt><trkpt lat="55.8164760" lon="49.1158470"><time>2021-08-14T07:21:31</time></trkpt><trkpt lat="55.8164920" lon="49.1158380"><time>2021-08-14T07:21:32</time></trkpt><trkpt lat="55.8165150" lon="49.1158090"><time>2021-08-14T07:21:33</time></trkpt><trkpt lat="55.8165140" lon="49.1157590"><time>2021-08-14T07:21:34</time></trkpt><trkpt lat="55.8165110" lon="49.1157100"><time>2021-08-14T07:21:35</time></trkpt><trkpt lat="55.8165120" lon="49.1156930"><time>2021-08-14T07:21:36</time></trkpt><trkpt lat="55.8165170" lon="49.1156650"><time>2021-08-14T07:21:37</time></trkpt><trkpt lat="55.8165180" lon="49.1156370"><time>2021-08-14T07:21:38</time></trkpt><trkpt lat="55.8165230" lon="49.1156100"><time>2021-08-14T07:21:39</time></trkpt><trkpt lat="55.8165240" lon="49.1155830"><time>2021-08-14T07:21:40</time></trkpt><trkpt lat="55.8165270" lon="49.1155550"><time>2021-08-14T07:21:41</time></trkpt><trkpt lat="55.8165270" lon="49.1155240"><time>2021-08-14T07:21:42</time></trkpt><trkpt lat="55.8165270" lon="49.1154930"><time>2021-08-14T07:21:43</time></trkpt><trkpt lat="55.8165300" lon="49.1154620"><time>2021-08-14T07:21:44</time></trkpt><trkpt lat="55.8165330" lon="49.1154360"><time>2021-08-14T07:21:45</time></trkpt><trkpt lat="55.8165350" lon="49.1154010"><time>2021-08-14T07:21:46</time></trkpt><trkpt lat="55.8165400" lon="49.1153730"><time>2021-08-14T07:21:47</time></trkpt><trkpt lat="55.8165380" lon="49.1153390"><time>2021-08-14T07:21:48</time></trkpt><trkpt lat="55.8165350" lon="49.1153140"><time>2021-08-14T07:21:49</time></trkpt><trkpt lat="55.8165320" lon="49.1152840"><time>2021-08-14T07:21:50</time></trkpt><trkpt lat="55.8165330" lon="49.1152340"><time>2021-08-14T07:21:51</time></trkpt><trkpt lat="55.8165330" lon="49.1152170"><time>2021-08-14T07:21:52</time></trkpt><trkpt lat="55.8165330" lon="49.1151860"><time>2021-08-14T07:21:53</time></trkpt><trkpt lat="55.8165360" lon="49.1151580"><time>2021-08-14T07:21:54</time></trkpt><trkpt lat="55.8165350" lon="49.1151280"><time>2021-08-14T07:21:55</time></trkpt><trkpt lat="55.8165330" lon="49.1151000"><time>2021-08-14T07:21:56</time></trkpt><trkpt lat="55.8165320" lon="49.1150700"><time>2021-08-14T07:21:57</time></trkpt><trkpt lat="55.8165340" lon="49.1150410"><time>2021-08-14T07:21:58</time></trkpt><trkpt lat="55.8165310" lon="49.1150100"><time>2021-08-14T07:21:59</time></trkpt><trkpt lat="55.8165280" lon="49.1149800"><time>2021-08-14T07:22:00</time></trkpt><trkpt lat="55.8165270" lon="49.1149320"><time>2021-08-14T07:22:01</time></trkpt><trkpt lat="55.8165250" lon="49.1149160"><time>2021-08-14T07:22:02</time></trkpt><trkpt lat="55.8165260" lon="49.1148850"><time>2021-08-14T07:22:03</time></trkpt><trkpt lat="55.8165250" lon="49.1148560"><time>2021-08-14T07:22:04</time></trkpt><trkpt lat="55.8165260" lon="49.1148280"><time>2021-08-14T07:22:05</time></trkpt><trkpt lat="55.8165290" lon="49.1148010"><time>2021-08-14T07:22:06</time></trkpt><trkpt lat="55.8165310" lon="49.1147710"><time>2021-08-14T07:22:07</time></trkpt><trkpt lat="55.8165260" lon="49.1147410"><time>2021-08-14T07:22:08</time></trkpt><trkpt lat="55.8165280" lon="49.1147110"><time>2021-08-14T07:22:09</time></trkpt><trkpt lat="55.8165270" lon="49.1146790"><time>2021-08-14T07:22:10</time></trkpt><trkpt lat="55.8165280" lon="49.1146550"><time>2021-08-14T07:22:11</time></trkpt><trkpt lat="55.8165320" lon="49.1146230"><time>2021-08-14T07:22:12</time></trkpt><trkpt lat="55.8165310" lon="49.1145910"><time>2021-08-14T07:22:13</time></trkpt><trkpt lat="55.8165280" lon="49.1145650"><time>2021-08-14T07:22:14</time></trkpt><trkpt lat="55.8165270" lon="49.1145370"><time>2021-08-14T07:22:15</time></trkpt><trkpt lat="55.8165310" lon="49.1145110"><time>2021-08-14T07:22:16</time></trkpt><trkpt lat="55.8165290" lon="49.1144820"><time>2021-08-14T07:22:17</time></trkpt><trkpt lat="55.8165290" lon="49.1144520"><time>2021-08-14T07:22:18</time></trkpt><trkpt lat="55.8165270" lon="49.1144230"><time>2021-08-14T07:22:19</time></trkpt><trkpt lat="55.8165250" lon="49.1143960"><time>2021-08-14T07:22:20</time></trkpt><trkpt lat="55.8165230" lon="49.1143710"><time>2021-08-14T07:22:21</time></trkpt><trkpt lat="55.8165240" lon="49.1143460"><time>2021-08-14T07:22:22</time></trkpt><trkpt lat="55.8165230" lon="49.1143110"><time>2021-08-14T07:22:23</time></trkpt><trkpt lat="55.8165260" lon="49.1142850"><time>2021-08-14T07:22:24</time></trkpt><trkpt lat="55.8165300" lon="49.1142600"><time>2021-08-14T07:22:25</time></trkpt><trkpt lat="55.8165230" lon="49.1142320"><time>2021-08-14T07:22:26</time></trkpt><trkpt lat="55.8165260" lon="49.1142020"><time>2021-08-14T07:22:27</time></trkpt><trkpt lat="55.8165340" lon="49.1141740"><time>2021-08-14T07:22:28</time></trkpt><trkpt lat="55.8165300" lon="49.1141490"><time>2021-08-14T07:22:29</time></trkpt><trkpt lat="55.8165290" lon="49.1141190"><time>2021-08-14T07:22:30</time></trkpt><trkpt lat="55.8165360" lon="49.1140920"><time>2021-08-14T07:22:31</time></trkpt><trkpt lat="55.8165350" lon="49.1140570"><time>2021-08-14T07:22:32</time></trkpt><trkpt lat="55.8165350" lon="49.1140230"><time>2021-08-14T07:22:33</time></trkpt><trkpt lat="55.8165290" lon="49.1139950"><time>2021-08-14T07:22:34</time></trkpt><trkpt lat="55.8165270" lon="49.1139660"><time>2021-08-14T07:22:35</time></trkpt><trkpt lat="55.8165270" lon="49.1139350"><time>2021-08-14T07:22:36</time></trkpt><trkpt lat="55.8165280" lon="49.1138860"><time>2021-08-14T07:22:37</time></trkpt><trkpt lat="55.8165280" lon="49.1138670"><time>2021-08-14T07:22:38</time></trkpt><trkpt lat="55.8165300" lon="49.1138420"><time>2021-08-14T07:22:39</time></trkpt><trkpt lat="55.8165340" lon="49.1138090"><time>2021-08-14T07:22:40</time></trkpt><trkpt lat="55.8165340" lon="49.1137860"><time>2021-08-14T07:22:41</time></trkpt><trkpt lat="55.8165320" lon="49.1137550"><time>2021-08-14T07:22:42</time></trkpt><trkpt lat="55.8165310" lon="49.1137290"><time>2021-08-14T07:22:43</time></trkpt><trkpt lat="55.8165270" lon="49.1136990"><time>2021-08-14T07:22:44</time></trkpt><trkpt lat="55.8165260" lon="49.1136680"><time>2021-08-14T07:22:45</time></trkpt><trkpt lat="55.8165230" lon="49.1136520"><time>2021-08-14T07:22:46</time></trkpt><trkpt lat="55.8165160" lon="49.1136270"><time>2021-08-14T07:22:47</time></trkpt><trkpt lat="55.8165150" lon="49.1135940"><time>2021-08-14T07:22:48</time></trkpt><trkpt lat="55.8165240" lon="49.1135620"><time>2021-08-14T07:22:49</time></trkpt><trkpt lat="55.8165180" lon="49.1135290"><time>2021-08-14T07:22:50</time></trkpt><trkpt lat="55.8165150" lon="49.1134760"><time>2021-08-14T07:22:51</time></trkpt><trkpt lat="55.8165180" lon="49.1134610"><time>2021-08-14T07:22:52</time></trkpt><trkpt lat="55.8165220" lon="49.1134090"><time>2021-08-14T07:22:53</time></trkpt><trkpt lat="55.8165220" lon="49.1133900"><time>2021-08-14T07:22:54</time></trkpt><trkpt lat="55.8165230" lon="49.1133410"><time>2021-08-14T07:22:55</time></trkpt><trkpt lat="55.8165230" lon="49.1133230"><time>2021-08-14T07:22:56</time></trkpt><trkpt lat="55.8165170" lon="49.1133020"><time>2021-08-14T07:22:57</time></trkpt><trkpt lat="55.8165150" lon="49.1132710"><time>2021-08-14T07:22:58</time></trkpt><trkpt lat="55.8165110" lon="49.1132170"><time>2021-08-14T07:22:59</time></trkpt><trkpt lat="55.8165110" lon="49.1132010"><time>2021-08-14T07:23:00</time></trkpt><trkpt lat="55.8165110" lon="49.1131690"><time>2021-08-14T07:23:01</time></trkpt><trkpt lat="55.8165090" lon="49.1131380"><time>2021-08-14T07:23:02</time></trkpt><trkpt lat="55.8165120" lon="49.1131150"><time>2021-08-14T07:23:03</time></trkpt><trkpt lat="55.8165150" lon="49.1130830"><time>2021-08-14T07:23:04</time></trkpt><trkpt lat="55.8165160" lon="49.1130520"><time>2021-08-14T07:23:05</time></trkpt><trkpt lat="55.8165190" lon="49.1130210"><time>2021-08-14T07:23:06</time></trkpt><trkpt lat="55.8165170" lon="49.1129930"><time>2021-08-14T07:23:08</time></trkpt><trkpt lat="55.8165160" lon="49.1129720"><time>2021-08-14T07:23:09</time></trkpt><trkpt lat="55.8165240" lon="49.1129400"><time>2021-08-14T07:23:10</time></trkpt><trkpt lat="55.8165270" lon="49.1129210"><time>2021-08-14T07:23:11</time></trkpt><trkpt lat="55.8165290" lon="49.1128910"><time>2021-08-14T07:23:12</time></trkpt><trkpt lat="55.8165290" lon="49.1128630"><time>2021-08-14T07:23:13</time></trkpt><trkpt lat="55.8165370" lon="49.1128390"><time>2021-08-14T07:23:14</time></trkpt><trkpt lat="55.8165320" lon="49.1128060"><time>2021-08-14T07:23:15</time></trkpt><trkpt lat="55.8165310" lon="49.1127810"><time>2021-08-14T07:23:16</time></trkpt><trkpt lat="55.8165300" lon="49.1127500"><time>2021-08-14T07:23:17</time></trkpt><trkpt lat="55.8165300" lon="49.1127240"><time>2021-08-14T07:23:18</time></trkpt><trkpt lat="55.8165300" lon="49.1126910"><time>2021-08-14T07:23:19</time></trkpt><trkpt lat="55.8165310" lon="49.1126430"><time>2021-08-14T07:23:20</time></trkpt><trkpt lat="55.8165320" lon="49.1126270"><time>2021-08-14T07:23:21</time></trkpt><trkpt lat="55.8165330" lon="49.1125990"><time>2021-08-14T07:23:22</time></trkpt><trkpt lat="55.8165380" lon="49.1125660"><time>2021-08-14T07:23:23</time></trkpt><trkpt lat="55.8165350" lon="49.1125350"><time>2021-08-14T07:23:24</time></trkpt><trkpt lat="55.8165310" lon="49.1125030"><time>2021-08-14T07:23:25</time></trkpt><trkpt lat="55.8165340" lon="49.1124750"><time>2021-08-14T07:23:26</time></trkpt><trkpt lat="55.8165360" lon="49.1124460"><time>2021-08-14T07:23:27</time></trkpt><trkpt lat="55.8165320" lon="49.1124190"><time>2021-08-14T07:23:28</time></trkpt><trkpt lat="55.8165320" lon="49.1123850"><time>2021-08-14T07:23:29</time></trkpt><trkpt lat="55.8165370" lon="49.1123520"><time>2021-08-14T07:23:30</time></trkpt><trkpt lat="55.8165380" lon="49.1123240"><time>2021-08-14T07:23:31</time></trkpt><trkpt lat="55.8165390" lon="49.1122970"><time>2021-08-14T07:23:32</time></trkpt><trkpt lat="55.8165370" lon="49.1122680"><time>2021-08-14T07:23:33</time></trkpt><trkpt lat="55.8165340" lon="49.1122170"><time>2021-08-14T07:23:34</time></trkpt><trkpt lat="55.8165320" lon="49.1122000"><time>2021-08-14T07:23:35</time></trkpt><trkpt lat="55.8165310" lon="49.1121770"><time>2021-08-14T07:23:36</time></trkpt><trkpt lat="55.8165340" lon="49.1121480"><time>2021-08-14T07:23:37</time></trkpt><trkpt lat="55.8165380" lon="49.1121170"><time>2021-08-14T07:23:38</time></trkpt><trkpt lat="55.8165460" lon="49.1120930"><time>2021-08-14T07:23:39</time></trkpt><trkpt lat="55.8165380" lon="49.1120710"><time>2021-08-14T07:23:40</time></trkpt><trkpt lat="55.8165380" lon="49.1120400"><time>2021-08-14T07:23:41</time></trkpt><trkpt lat="55.8165370" lon="49.1120070"><time>2021-08-14T07:23:42</time></trkpt><trkpt lat="55.8165320" lon="49.1119810"><time>2021-08-14T07:23:43</time></trkpt><trkpt lat="55.8165330" lon="49.1119300"><time>2021-08-14T07:23:44</time></trkpt><trkpt lat="55.8165320" lon="49.1119140"><time>2021-08-14T07:23:45</time></trkpt><trkpt lat="55.8165300" lon="49.1118860"><time>2021-08-14T07:23:46</time></trkpt><trkpt lat="55.8165340" lon="49.1118570"><time>2021-08-14T07:23:47</time></trkpt><trkpt lat="55.8165340" lon="49.1118280"><time>2021-08-14T07:23:48</time></trkpt><trkpt lat="55.8165340" lon="49.1118030"><time>2021-08-14T07:23:49</time></trkpt><trkpt lat="55.8165340" lon="49.1117430"><time>2021-08-14T07:23:50</time></trkpt><trkpt lat="55.8165310" lon="49.1117270"><time>2021-08-14T07:23:51</time></trkpt><trkpt lat="55.8165240" lon="49.1116960"><time>2021-08-14T07:23:52</time></trkpt><trkpt lat="55.8165270" lon="49.1116640"><time>2021-08-14T07:23:53</time></trkpt><trkpt lat="55.8165310" lon="49.1116340"><time>2021-08-14T07:23:54</time></trkpt><trkpt lat="55.8165230" lon="49.1116030"><time>2021-08-14T07:23:55</time></trkpt><trkpt lat="55.8165220" lon="49.1115670"><time>2021-08-14T07:23:56</time></trkpt><trkpt lat="55.8165130" lon="49.1115440"><time>2021-08-14T07:23:57</time></trkpt><trkpt lat="55.8165070" lon="49.1115130"><time>2021-08-14T07:23:58</time></trkpt><trkpt lat="55.8165050" lon="49.1114840"><time>2021-08-14T07:23:59</time></trkpt><trkpt lat="55.8164990" lon="49.1114560"><time>2021-08-14T07:24:00</time></trkpt><trkpt lat="55.8164940" lon="49.1114310"><time>2021-08-14T07:24:01</time></trkpt><trkpt lat="55.8164850" lon="49.1114110"><time>2021-08-14T07:24:02</time></trkpt><trkpt lat="55.8164820" lon="49.1113810"><time>2021-08-14T07:24:03</time></trkpt><trkpt lat="55.8164810" lon="49.1113510"><time>2021-08-14T07:24:04</time></trkpt><trkpt lat="55.8164790" lon="49.1113260"><time>2021-08-14T07:24:05</time></trkpt><trkpt lat="55.8164750" lon="49.1112770"><time>2021-08-14T07:24:06</time></trkpt><trkpt lat="55.8164740" lon="49.1112600"><time>2021-08-14T07:24:07</time></trkpt><trkpt lat="55.8164630" lon="49.1112130"><time>2021-08-14T07:24:08</time></trkpt><trkpt lat="55.8164600" lon="49.1111970"><time>2021-08-14T07:24:09</time></trkpt><trkpt lat="55.8164520" lon="49.1111510"><time>2021-08-14T07:24:10</time></trkpt><trkpt lat="55.8164490" lon="49.1111340"><time>2021-08-14T07:24:11</time></trkpt><trkpt lat="55.8164430" lon="49.1111130"><time>2021-08-14T07:24:12</time></trkpt><trkpt lat="55.8164360" lon="49.1110870"><time>2021-08-14T07:24:13</time></trkpt><trkpt lat="55.8164260" lon="49.1110300"><time>2021-08-14T07:24:14</time></trkpt><trkpt lat="55.8164230" lon="49.1110170"><time>2021-08-14T07:24:15</time></trkpt><trkpt lat="55.8164200" lon="49.1109930"><time>2021-08-14T07:24:16</time></trkpt><trkpt lat="55.8164170" lon="49.1109660"><time>2021-08-14T07:24:17</time></trkpt><trkpt lat="55.8164150" lon="49.1109360"><time>2021-08-14T07:24:18</time></trkpt><trkpt lat="55.8164110" lon="49.1109050"><time>2021-08-14T07:24:19</time></trkpt><trkpt lat="55.8164030" lon="49.1108780"><time>2021-08-14T07:24:20</time></trkpt><trkpt lat="55.8163980" lon="49.1108520"><time>2021-08-14T07:24:21</time></trkpt><trkpt lat="55.8163920" lon="49.1108200"><time>2021-08-14T07:24:22</time></trkpt><trkpt lat="55.8163880" lon="49.1107970"><time>2021-08-14T07:24:23</time></trkpt><trkpt lat="55.8163850" lon="49.1107660"><time>2021-08-14T07:24:24</time></trkpt><trkpt lat="55.8163770" lon="49.1107380"><time>2021-08-14T07:24:25</time></trkpt><trkpt lat="55.8163680" lon="49.1107080"><time>2021-08-14T07:24:26</time></trkpt><trkpt lat="55.8163640" lon="49.1106890"><time>2021-08-14T07:24:27</time></trkpt><trkpt lat="55.8163560" lon="49.1106650"><time>2021-08-14T07:24:28</time></trkpt><trkpt lat="55.8163510" lon="49.1106340"><time>2021-08-14T07:24:29</time></trkpt><trkpt lat="55.8163350" lon="49.1105900"><time>2021-08-14T07:24:30</time></trkpt><trkpt lat="55.8163300" lon="49.1105740"><time>2021-08-14T07:24:31</time></trkpt><trkpt lat="55.8163130" lon="49.1105310"><time>2021-08-14T07:24:32</time></trkpt><trkpt lat="55.8163060" lon="49.1105200"><time>2021-08-14T07:24:33</time></trkpt><trkpt lat="55.8162990" lon="49.1104690"><time>2021-08-14T07:24:34</time></trkpt><trkpt lat="55.8162960" lon="49.1104560"><time>2021-08-14T07:24:35</time></trkpt><trkpt lat="55.8162850" lon="49.1104100"><time>2021-08-14T07:24:36</time></trkpt><trkpt lat="55.8162810" lon="49.1103970"><time>2021-08-14T07:24:37</time></trkpt><trkpt lat="55.8162650" lon="49.1103610"><time>2021-08-14T07:24:38</time></trkpt><trkpt lat="55.8162580" lon="49.1103440"><time>2021-08-14T07:24:39</time></trkpt><trkpt lat="55.8162500" lon="49.1103170"><time>2021-08-14T07:24:40</time></trkpt><trkpt lat="55.8162420" lon="49.1102930"><time>2021-08-14T07:24:41</time></trkpt><trkpt lat="55.8162300" lon="49.1102630"><time>2021-08-14T07:24:42</time></trkpt><trkpt lat="55.8162230" lon="49.1102400"><time>2021-08-14T07:24:43</time></trkpt><trkpt lat="55.8162140" lon="49.1102110"><time>2021-08-14T07:24:44</time></trkpt><trkpt lat="55.8162090" lon="49.1101810"><time>2021-08-14T07:24:45</time></trkpt><trkpt lat="55.8161870" lon="49.1101700"><time>2021-08-14T07:24:46</time></trkpt><trkpt lat="55.8161810" lon="49.1101430"><time>2021-08-14T07:24:47</time></trkpt><trkpt lat="55.8161780" lon="49.1101220"><time>2021-08-14T07:24:48</time></trkpt><trkpt lat="55.8161710" lon="49.1100900"><time>2021-08-14T07:24:49</time></trkpt><trkpt lat="55.8161570" lon="49.1100740"><time>2021-08-14T07:24:50</time></trkpt><trkpt lat="55.8161490" lon="49.1100430"><time>2021-08-14T07:24:51</time></trkpt><trkpt lat="55.8161430" lon="49.1100190"><time>2021-08-14T07:24:52</time></trkpt><trkpt lat="55.8161310" lon="49.1099920"><time>2021-08-14T07:24:53</time></trkpt><trkpt lat="55.8161210" lon="49.1099700"><time>2021-08-14T07:24:54</time></trkpt><trkpt lat="55.8161060" lon="49.1099540"><time>2021-08-14T07:24:55</time></trkpt><trkpt lat="55.8160890" lon="49.1099170"><time>2021-08-14T07:24:56</time></trkpt><trkpt lat="55.8160850" lon="49.1098970"><time>2021-08-14T07:24:57</time></trkpt><trkpt lat="55.8160780" lon="49.1098660"><time>2021-08-14T07:24:58</time></trkpt><trkpt lat="55.8160680" lon="49.1098430"><time>2021-08-14T07:24:59</time></trkpt><trkpt lat="55.8160540" lon="49.1098260"><time>2021-08-14T07:25:00</time></trkpt><trkpt lat="55.8160490" lon="49.1097930"><time>2021-08-14T07:25:01</time></trkpt><trkpt lat="55.8160370" lon="49.1097760"><time>2021-08-14T07:25:02</time></trkpt><trkpt lat="55.8160240" lon="49.1097530"><time>2021-08-14T07:25:03</time></trkpt><trkpt lat="55.8160090" lon="49.1097190"><time>2021-08-14T07:25:04</time></trkpt><trkpt lat="55.8160030" lon="49.1097060"><time>2021-08-14T07:25:05</time></trkpt><trkpt lat="55.8159960" lon="49.1096920"><time>2021-08-14T07:25:06</time></trkpt><trkpt lat="55.8159790" lon="49.1096470"><time>2021-08-14T07:25:07</time></trkpt><trkpt lat="55.8159740" lon="49.1096320"><time>2021-08-14T07:25:08</time></trkpt><trkpt lat="55.8159640" lon="49.1096030"><time>2021-08-14T07:25:09</time></trkpt><trkpt lat="55.8159540" lon="49.1095780"><time>2021-08-14T07:25:10</time></trkpt><trkpt lat="55.8159410" lon="49.1095630"><time>2021-08-14T07:25:11</time></trkpt><trkpt lat="55.8159320" lon="49.1095380"><time>2021-08-14T07:25:12</time></trkpt><trkpt lat="55.8159220" lon="49.1095120"><time>2021-08-14T07:25:13</time></trkpt><trkpt lat="55.8159110" lon="49.1094890"><time>2021-08-14T07:25:14</time></trkpt><trkpt lat="55.8158990" lon="49.1094630"><time>2021-08-14T07:25:15</time></trkpt><trkpt lat="55.8158900" lon="49.1094470"><time>2021-08-14T07:25:16</time></trkpt><trkpt lat="55.8158800" lon="49.1094240"><time>2021-08-14T07:25:17</time></trkpt><trkpt lat="55.8158680" lon="49.1093980"><time>2021-08-14T07:25:18</time></trkpt><trkpt lat="55.8158550" lon="49.1093750"><time>2021-08-14T07:25:19</time></trkpt><trkpt lat="55.8158440" lon="49.1093490"><time>2021-08-14T07:25:20</time></trkpt><trkpt lat="55.8158370" lon="49.1093360"><time>2021-08-14T07:25:21</time></trkpt><trkpt lat="55.8158240" lon="49.1093150"><time>2021-08-14T07:25:22</time></trkpt><trkpt lat="55.8158080" lon="49.1092720"><time>2021-08-14T07:25:23</time></trkpt><trkpt lat="55.8158030" lon="49.1092580"><time>2021-08-14T07:25:24</time></trkpt><trkpt lat="55.8157860" lon="49.1092170"><time>2021-08-14T07:25:25</time></trkpt><trkpt lat="55.8157810" lon="49.1092040"><time>2021-08-14T07:25:26</time></trkpt><trkpt lat="55.8157690" lon="49.1091790"><time>2021-08-14T07:25:27</time></trkpt><trkpt lat="55.8157620" lon="49.1091640"><time>2021-08-14T07:25:28</time></trkpt><trkpt lat="55.8157540" lon="49.1091390"><time>2021-08-14T07:25:29</time></trkpt><trkpt lat="55.8157400" lon="49.1091220"><time>2021-08-14T07:25:30</time></trkpt><trkpt lat="55.8157290" lon="49.1090990"><time>2021-08-14T07:25:31</time></trkpt><trkpt lat="55.8157170" lon="49.1090770"><time>2021-08-14T07:25:32</time></trkpt><trkpt lat="55.8157050" lon="49.1090510"><time>2021-08-14T07:25:33</time></trkpt><trkpt lat="55.8156950" lon="49.1090270"><time>2021-08-14T07:25:34</time></trkpt><trkpt lat="55.8156840" lon="49.1090090"><time>2021-08-14T07:25:35</time></trkpt><trkpt lat="55.8156750" lon="49.1089790"><time>2021-08-14T07:25:36</time></trkpt><trkpt lat="55.8156610" lon="49.1089620"><time>2021-08-14T07:25:37</time></trkpt><trkpt lat="55.8156540" lon="49.1089310"><time>2021-08-14T07:25:38</time></trkpt><trkpt lat="55.8156440" lon="49.1089080"><time>2021-08-14T07:25:39</time></trkpt><trkpt lat="55.8156320" lon="49.1088920"><time>2021-08-14T07:25:40</time></trkpt><trkpt lat="55.8156220" lon="49.1088700"><time>2021-08-14T07:25:41</time></trkpt><trkpt lat="55.8156070" lon="49.1088500"><time>2021-08-14T07:25:42</time></trkpt><trkpt lat="55.8155870" lon="49.1088110"><time>2021-08-14T07:25:43</time></trkpt><trkpt lat="55.8155770" lon="49.1088010"><time>2021-08-14T07:25:44</time></trkpt><trkpt lat="55.8155570" lon="49.1087670"><time>2021-08-14T07:25:45</time></trkpt><trkpt lat="55.8155510" lon="49.1087550"><time>2021-08-14T07:25:46</time></trkpt><trkpt lat="55.8155430" lon="49.1087310"><time>2021-08-14T07:25:47</time></trkpt><trkpt lat="55.8155360" lon="49.1087100"><time>2021-08-14T07:25:48</time></trkpt><trkpt lat="55.8155210" lon="49.1086650"><time>2021-08-14T07:25:49</time></trkpt><trkpt lat="55.8155210" lon="49.1086510"><time>2021-08-14T07:25:50</time></trkpt><trkpt lat="55.8155200" lon="49.1086360"><time>2021-08-14T07:25:51</time></trkpt><trkpt lat="55.8155060" lon="49.1086180"><time>2021-08-14T07:25:52</time></trkpt><trkpt lat="55.8154930" lon="49.1085980"><time>2021-08-14T07:25:53</time></trkpt><trkpt lat="55.8154690" lon="49.1085660"><time>2021-08-14T07:25:54</time></trkpt><trkpt lat="55.8154630" lon="49.1085520"><time>2021-08-14T07:25:55</time></trkpt><trkpt lat="55.8154620" lon="49.1085290"><time>2021-08-14T07:25:56</time></trkpt><trkpt lat="55.8154580" lon="49.1085050"><time>2021-08-14T07:25:57</time></trkpt><trkpt lat="55.8154490" lon="49.1084840"><time>2021-08-14T07:25:58</time></trkpt><trkpt lat="55.8154400" lon="49.1084620"><time>2021-08-14T07:25:59</time></trkpt><trkpt lat="55.8154380" lon="49.1084340"><time>2021-08-14T07:26:00</time></trkpt><trkpt lat="55.8154240" lon="49.1084070"><time>2021-08-14T07:26:01</time></trkpt><trkpt lat="55.8154110" lon="49.1083890"><time>2021-08-14T07:26:02</time></trkpt><trkpt lat="55.8153980" lon="49.1083640"><time>2021-08-14T07:26:03</time></trkpt><trkpt lat="55.8153860" lon="49.1083480"><time>2021-08-14T07:26:04</time></trkpt><trkpt lat="55.8153750" lon="49.1083260"><time>2021-08-14T07:26:05</time></trkpt><trkpt lat="55.8153600" lon="49.1082920"><time>2021-08-14T07:26:06</time></trkpt><trkpt lat="55.8153560" lon="49.1082760"><time>2021-08-14T07:26:07</time></trkpt><trkpt lat="55.8153510" lon="49.1082600"><time>2021-08-14T07:26:08</time></trkpt><trkpt lat="55.8153300" lon="49.1082250"><time>2021-08-14T07:26:09</time></trkpt><trkpt lat="55.8153230" lon="49.1082100"><time>2021-08-14T07:26:10</time></trkpt><trkpt lat="55.8152980" lon="49.1081830"><time>2021-08-14T07:26:11</time></trkpt><trkpt lat="55.8152930" lon="49.1081700"><time>2021-08-14T07:26:12</time></trkpt><trkpt lat="55.8152870" lon="49.1081560"><time>2021-08-14T07:26:13</time></trkpt><trkpt lat="55.8152740" lon="49.1081350"><time>2021-08-14T07:26:14</time></trkpt><trkpt lat="55.8152570" lon="49.1080930"><time>2021-08-14T07:26:15</time></trkpt><trkpt lat="55.8152510" lon="49.1080820"><time>2021-08-14T07:26:16</time></trkpt><trkpt lat="55.8152360" lon="49.1080560"><time>2021-08-14T07:26:17</time></trkpt><trkpt lat="55.8152250" lon="49.1080420"><time>2021-08-14T07:26:18</time></trkpt><trkpt lat="55.8152060" lon="49.1080030"><time>2021-08-14T07:26:19</time></trkpt><trkpt lat="55.8152010" lon="49.1079880"><time>2021-08-14T07:26:20</time></trkpt><trkpt lat="55.8151890" lon="49.1079680"><time>2021-08-14T07:26:21</time></trkpt><trkpt lat="55.8151780" lon="49.1079480"><time>2021-08-14T07:26:22</time></trkpt><trkpt lat="55.8151600" lon="49.1079120"><time>2021-08-14T07:26:23</time></trkpt><trkpt lat="55.8151520" lon="49.1078980"><time>2021-08-14T07:26:24</time></trkpt><trkpt lat="55.8151450" lon="49.1078810"><time>2021-08-14T07:26:25</time></trkpt><trkpt lat="55.8151340" lon="49.1078610"><time>2021-08-14T07:26:26</time></trkpt><trkpt lat="55.8151240" lon="49.1078390"><time>2021-08-14T07:26:27</time></trkpt><trkpt lat="55.8151120" lon="49.1078280"><time>2021-08-14T07:26:28</time></trkpt><trkpt lat="55.8151000" lon="49.1078030"><time>2021-08-14T07:26:29</time></trkpt><trkpt lat="55.8150910" lon="49.1077800"><time>2021-08-14T07:26:30</time></trkpt><trkpt lat="55.8150730" lon="49.1077370"><time>2021-08-14T07:26:31</time></trkpt><trkpt lat="55.8150680" lon="49.1077240"><time>2021-08-14T07:26:32</time></trkpt><trkpt lat="55.8150560" lon="49.1077130"><time>2021-08-14T07:26:33</time></trkpt><trkpt lat="55.8150410" lon="49.1076880"><time>2021-08-14T07:26:34</time></trkpt><trkpt lat="55.8150310" lon="49.1076680"><time>2021-08-14T07:26:35</time></trkpt><trkpt lat="55.8150190" lon="49.1076490"><time>2021-08-14T07:26:36</time></trkpt><trkpt lat="55.8150060" lon="49.1076380"><time>2021-08-14T07:26:37</time></trkpt><trkpt lat="55.8149930" lon="49.1076220"><time>2021-08-14T07:26:38</time></trkpt><trkpt lat="55.8149840" lon="49.1076000"><time>2021-08-14T07:26:39</time></trkpt><trkpt lat="55.8149730" lon="49.1075880"><time>2021-08-14T07:26:40</time></trkpt><trkpt lat="55.8149590" lon="49.1075770"><time>2021-08-14T07:26:41</time></trkpt><trkpt lat="55.8149480" lon="49.1075660"><time>2021-08-14T07:26:42</time></trkpt><trkpt lat="55.8149390" lon="49.1075460"><time>2021-08-14T07:26:43</time></trkpt><trkpt lat="55.8149240" lon="49.1075210"><time>2021-08-14T07:26:44</time></trkpt><trkpt lat="55.8149090" lon="49.1074800"><time>2021-08-14T07:26:45</time></trkpt><trkpt lat="55.8149010" lon="49.1074700"><time>2021-08-14T07:26:46</time></trkpt><trkpt lat="55.8148920" lon="49.1074450"><time>2021-08-14T07:26:47</time></trkpt><trkpt lat="55.8148800" lon="49.1074320"><time>2021-08-14T07:26:48</time></trkpt><trkpt lat="55.8148690" lon="49.1074080"><time>2021-08-14T07:26:49</time></trkpt><trkpt lat="55.8148610" lon="49.1073850"><time>2021-08-14T07:26:50</time></trkpt><trkpt lat="55.8148420" lon="49.1073620"><time>2021-08-14T07:26:51</time></trkpt><trkpt lat="55.8148320" lon="49.1073590"><time>2021-08-14T07:26:52</time></trkpt><trkpt lat="55.8148210" lon="49.1073560"><time>2021-08-14T07:26:53</time></trkpt><trkpt lat="55.8148080" lon="49.1073380"><time>2021-08-14T07:26:54</time></trkpt><trkpt lat="55.8147930" lon="49.1073190"><time>2021-08-14T07:26:55</time></trkpt><trkpt lat="55.8147780" lon="49.1073190"><time>2021-08-14T07:26:56</time></trkpt><trkpt lat="55.8147640" lon="49.1072910"><time>2021-08-14T07:26:57</time></trkpt><trkpt lat="55.8147390" lon="49.1072590"><time>2021-08-14T07:26:58</time></trkpt><trkpt lat="55.8147320" lon="49.1072460"><time>2021-08-14T07:26:59</time></trkpt><trkpt lat="55.8147100" lon="49.1072160"><time>2021-08-14T07:27:00</time></trkpt><trkpt lat="55.8147010" lon="49.1072050"><time>2021-08-14T07:27:01</time></trkpt><trkpt lat="55.8146800" lon="49.1071730"><time>2021-08-14T07:27:02</time></trkpt><trkpt lat="55.8146700" lon="49.1071610"><time>2021-08-14T07:27:03</time></trkpt><trkpt lat="55.8146600" lon="49.1071440"><time>2021-08-14T07:27:04</time></trkpt><trkpt lat="55.8146490" lon="49.1071300"><time>2021-08-14T07:27:05</time></trkpt><trkpt lat="55.8146330" lon="49.1071050"><time>2021-08-14T07:27:06</time></trkpt><trkpt lat="55.8146260" lon="49.1070860"><time>2021-08-14T07:27:07</time></trkpt><trkpt lat="55.8146130" lon="49.1070670"><time>2021-08-14T07:27:08</time></trkpt><trkpt lat="55.8146030" lon="49.1070400"><time>2021-08-14T07:27:09</time></trkpt><trkpt lat="55.8145920" lon="49.1070110"><time>2021-08-14T07:27:10</time></trkpt><trkpt lat="55.8145800" lon="49.1069900"><time>2021-08-14T07:27:11</time></trkpt><trkpt lat="55.8145620" lon="49.1069680"><time>2021-08-14T07:27:12</time></trkpt><trkpt lat="55.8145580" lon="49.1069470"><time>2021-08-14T07:27:13</time></trkpt><trkpt lat="55.8145450" lon="49.1069130"><time>2021-08-14T07:27:14</time></trkpt><trkpt lat="55.8145380" lon="49.1069010"><time>2021-08-14T07:27:15</time></trkpt><trkpt lat="55.8145310" lon="49.1068900"><time>2021-08-14T07:27:16</time></trkpt><trkpt lat="55.8145070" lon="49.1068540"><time>2021-08-14T07:27:17</time></trkpt><trkpt lat="55.8145010" lon="49.1068440"><time>2021-08-14T07:27:18</time></trkpt><trkpt lat="55.8144720" lon="49.1068410"><time>2021-08-14T07:27:19</time></trkpt><trkpt lat="55.8144600" lon="49.1068440"><time>2021-08-14T07:27:20</time></trkpt><trkpt lat="55.8144420" lon="49.1068900"><time>2021-08-14T07:27:21</time></trkpt><trkpt lat="55.8144340" lon="49.1069020"><time>2021-08-14T07:27:22</time></trkpt><trkpt lat="55.8144150" lon="49.1069400"><time>2021-08-14T07:27:23</time></trkpt><trkpt lat="55.8144070" lon="49.1069500"><time>2021-08-14T07:27:24</time></trkpt><trkpt lat="55.8143840" lon="49.1069800"><time>2021-08-14T07:27:25</time></trkpt><trkpt lat="55.8143770" lon="49.1069920"><time>2021-08-14T07:27:26</time></trkpt><trkpt lat="55.8143650" lon="49.1070090"><time>2021-08-14T07:27:27</time></trkpt><trkpt lat="55.8143500" lon="49.1070310"><time>2021-08-14T07:27:28</time></trkpt><trkpt lat="55.8143350" lon="49.1070520"><time>2021-08-14T07:27:29</time></trkpt><trkpt lat="55.8143260" lon="49.1070760"><time>2021-08-14T07:27:30</time></trkpt><trkpt lat="55.8143050" lon="49.1070910"><time>2021-08-14T07:27:31</time></trkpt><trkpt lat="55.8142960" lon="49.1071100"><time>2021-08-14T07:27:32</time></trkpt><trkpt lat="55.8142820" lon="49.1071210"><time>2021-08-14T07:27:33</time></trkpt><trkpt lat="55.8142710" lon="49.1071410"><time>2021-08-14T07:27:34</time></trkpt><trkpt lat="55.8142600" lon="49.1071630"><time>2021-08-14T07:27:35</time></trkpt><trkpt lat="55.8142460" lon="49.1071840"><time>2021-08-14T07:27:36</time></trkpt><trkpt lat="55.8142320" lon="49.1072010"><time>2021-08-14T07:27:37</time></trkpt><trkpt lat="55.8142200" lon="49.1072170"><time>2021-08-14T07:27:38</time></trkpt><trkpt lat="55.8142050" lon="49.1072300"><time>2021-08-14T07:27:39</time></trkpt><trkpt lat="55.8141910" lon="49.1072480"><time>2021-08-14T07:27:40</time></trkpt><trkpt lat="55.8141690" lon="49.1072820"><time>2021-08-14T07:27:41</time></trkpt><trkpt lat="55.8141610" lon="49.1072900"><time>2021-08-14T07:27:42</time></trkpt><trkpt lat="55.8141540" lon="49.1073140"><time>2021-08-14T07:27:43</time></trkpt><trkpt lat="55.8141400" lon="49.1073270"><time>2021-08-14T07:27:44</time></trkpt><trkpt lat="55.8141180" lon="49.1073650"><time>2021-08-14T07:27:45</time></trkpt><trkpt lat="55.8141090" lon="49.1073840"><time>2021-08-14T07:27:46</time></trkpt><trkpt lat="55.8140870" lon="49.1074080"><time>2021-08-14T07:27:47</time></trkpt><trkpt lat="55.8140770" lon="49.1074190"><time>2021-08-14T07:27:48</time></trkpt><trkpt lat="55.8140630" lon="49.1074340"><time>2021-08-14T07:27:49</time></trkpt><trkpt lat="55.8140500" lon="49.1074550"><time>2021-08-14T07:27:50</time></trkpt><trkpt lat="55.8140410" lon="49.1074810"><time>2021-08-14T07:27:51</time></trkpt><trkpt lat="55.8140290" lon="49.1075040"><time>2021-08-14T07:27:52</time></trkpt><trkpt lat="55.8140200" lon="49.1075210"><time>2021-08-14T07:27:53</time></trkpt><trkpt lat="55.8140050" lon="49.1075410"><time>2021-08-14T07:27:54</time></trkpt><trkpt lat="55.8139970" lon="49.1075620"><time>2021-08-14T07:27:55</time></trkpt><trkpt lat="55.8139790" lon="49.1075690"><time>2021-08-14T07:27:56</time></trkpt><trkpt lat="55.8139660" lon="49.1075900"><time>2021-08-14T07:27:57</time></trkpt><trkpt lat="55.8139520" lon="49.1076090"><time>2021-08-14T07:27:58</time></trkpt><trkpt lat="55.8139410" lon="49.1076300"><time>2021-08-14T07:27:59</time></trkpt><trkpt lat="55.8139270" lon="49.1076540"><time>2021-08-14T07:28:00</time></trkpt><trkpt lat="55.8139160" lon="49.1076740"><time>2021-08-14T07:28:01</time></trkpt><trkpt lat="55.8139040" lon="49.1076980"><time>2021-08-14T07:28:02</time></trkpt><trkpt lat="55.8138900" lon="49.1077190"><time>2021-08-14T07:28:03</time></trkpt><trkpt lat="55.8138780" lon="49.1077420"><time>2021-08-14T07:28:04</time></trkpt><trkpt lat="55.8138650" lon="49.1077590"><time>2021-08-14T07:28:05</time></trkpt><trkpt lat="55.8138500" lon="49.1077770"><time>2021-08-14T07:28:06</time></trkpt><trkpt lat="55.8138360" lon="49.1077870"><time>2021-08-14T07:28:07</time></trkpt><trkpt lat="55.8138220" lon="49.1078110"><time>2021-08-14T07:28:08</time></trkpt><trkpt lat="55.8138090" lon="49.1078310"><time>2021-08-14T07:28:09</time></trkpt><trkpt lat="55.8137970" lon="49.1078450"><time>2021-08-14T07:28:10</time></trkpt><trkpt lat="55.8137880" lon="49.1078670"><time>2021-08-14T07:28:11</time></trkpt><trkpt lat="55.8137780" lon="49.1078880"><time>2021-08-14T07:28:12</time></trkpt><trkpt lat="55.8137690" lon="49.1079070"><time>2021-08-14T07:28:13</time></trkpt><trkpt lat="55.8137560" lon="49.1079220"><time>2021-08-14T07:28:14</time></trkpt><trkpt lat="55.8137330" lon="49.1079500"><time>2021-08-14T07:28:15</time></trkpt><trkpt lat="55.8137250" lon="49.1079590"><time>2021-08-14T07:28:16</time></trkpt><trkpt lat="55.8137130" lon="49.1079780"><time>2021-08-14T07:28:17</time></trkpt><trkpt lat="55.8137020" lon="49.1079950"><time>2021-08-14T07:28:18</time></trkpt><trkpt lat="55.8136830" lon="49.1080300"><time>2021-08-14T07:28:19</time></trkpt><trkpt lat="55.8136750" lon="49.1080440"><time>2021-08-14T07:28:20</time></trkpt><trkpt lat="55.8136620" lon="49.1080550"><time>2021-08-14T07:28:21</time></trkpt><trkpt lat="55.8136510" lon="49.1080710"><time>2021-08-14T07:28:22</time></trkpt><trkpt lat="55.8136400" lon="49.1080940"><time>2021-08-14T07:28:23</time></trkpt><trkpt lat="55.8136280" lon="49.1081090"><time>2021-08-14T07:28:24</time></trkpt><trkpt lat="55.8136080" lon="49.1081440"><time>2021-08-14T07:28:25</time></trkpt><trkpt lat="55.8136000" lon="49.1081520"><time>2021-08-14T07:28:26</time></trkpt><trkpt lat="55.8135870" lon="49.1081640"><time>2021-08-14T07:28:27</time></trkpt><trkpt lat="55.8135720" lon="49.1081820"><time>2021-08-14T07:28:28</time></trkpt><trkpt lat="55.8135630" lon="49.1081950"><time>2021-08-14T07:28:29</time></trkpt><trkpt lat="55.8135500" lon="49.1082110"><time>2021-08-14T07:28:30</time></trkpt><trkpt lat="55.8135390" lon="49.1082370"><time>2021-08-14T07:28:31</time></trkpt><trkpt lat="55.8135260" lon="49.1082540"><time>2021-08-14T07:28:32</time></trkpt><trkpt lat="55.8135100" lon="49.1082740"><time>2021-08-14T07:28:33</time></trkpt><trkpt lat="55.8134990" lon="49.1082890"><time>2021-08-14T07:28:34</time></trkpt><trkpt lat="55.8134880" lon="49.1083070"><time>2021-08-14T07:28:35</time></trkpt><trkpt lat="55.8134730" lon="49.1083220"><time>2021-08-14T07:28:36</time></trkpt><trkpt lat="55.8134600" lon="49.1083400"><time>2021-08-14T07:28:37</time></trkpt><trkpt lat="55.8134490" lon="49.1083620"><time>2021-08-14T07:28:38</time></trkpt><trkpt lat="55.8134360" lon="49.1083780"><time>2021-08-14T07:28:39</time></trkpt><trkpt lat="55.8134240" lon="49.1083940"><time>2021-08-14T07:28:40</time></trkpt><trkpt lat="55.8134140" lon="49.1084140"><time>2021-08-14T07:28:41</time></trkpt><trkpt lat="55.8134020" lon="49.1084310"><time>2021-08-14T07:28:42</time></trkpt><trkpt lat="55.8133860" lon="49.1084430"><time>2021-08-14T07:28:43</time></trkpt><trkpt lat="55.8133770" lon="49.1084580"><time>2021-08-14T07:28:44</time></trkpt><trkpt lat="55.8133630" lon="49.1084680"><time>2021-08-14T07:28:45</time></trkpt><trkpt lat="55.8133570" lon="49.1085020"><time>2021-08-14T07:28:46</time></trkpt><trkpt lat="55.8133420" lon="49.1085280"><time>2021-08-14T07:28:47</time></trkpt><trkpt lat="55.8133380" lon="49.1085470"><time>2021-08-14T07:28:48</time></trkpt><trkpt lat="55.8133340" lon="49.1085670"><time>2021-08-14T07:28:49</time></trkpt><trkpt lat="55.8133280" lon="49.1085970"><time>2021-08-14T07:28:50</time></trkpt><trkpt lat="55.8133170" lon="49.1086210"><time>2021-08-14T07:28:51</time></trkpt><trkpt lat="55.8133100" lon="49.1086470"><time>2021-08-14T07:28:52</time></trkpt><trkpt lat="55.8133010" lon="49.1086690"><time>2021-08-14T07:28:53</time></trkpt><trkpt lat="55.8132900" lon="49.1087160"><time>2021-08-14T07:28:54</time></trkpt><trkpt lat="55.8132840" lon="49.1087280"><time>2021-08-14T07:28:55</time></trkpt><trkpt lat="55.8132690" lon="49.1087380"><time>2021-08-14T07:28:56</time></trkpt><trkpt lat="55.8132530" lon="49.1087410"><time>2021-08-14T07:28:57</time></trkpt><trkpt lat="55.8132350" lon="49.1087430"><time>2021-08-14T07:28:58</time></trkpt><trkpt lat="55.8132220" lon="49.1087440"><time>2021-08-14T07:28:59</time></trkpt><trkpt lat="55.8132030" lon="49.1087480"><time>2021-08-14T07:29:00</time></trkpt><trkpt lat="55.8131860" lon="49.1087390"><time>2021-08-14T07:29:01</time></trkpt><trkpt lat="55.8131740" lon="49.1087460"><time>2021-08-14T07:29:02</time></trkpt><trkpt lat="55.8131540" lon="49.1087310"><time>2021-08-14T07:29:03</time></trkpt><trkpt lat="55.8131390" lon="49.1087290"><time>2021-08-14T07:29:04</time></trkpt><trkpt lat="55.8131240" lon="49.1087190"><time>2021-08-14T07:29:05</time></trkpt><trkpt lat="55.8131120" lon="49.1086990"><time>2021-08-14T07:29:06</time></trkpt><trkpt lat="55.8131030" lon="49.1086780"><time>2021-08-14T07:29:07</time></trkpt><trkpt lat="55.8130930" lon="49.1086660"><time>2021-08-14T07:29:08</time></trkpt><trkpt lat="55.8130750" lon="49.1086690"><time>2021-08-14T07:29:09</time></trkpt><trkpt lat="55.8130610" lon="49.1086700"><time>2021-08-14T07:29:10</time></trkpt><trkpt lat="55.8130440" lon="49.1086700"><time>2021-08-14T07:29:11</time></trkpt><trkpt lat="55.8130270" lon="49.1086690"><time>2021-08-14T07:29:12</time></trkpt><trkpt lat="55.8130120" lon="49.1086680"><time>2021-08-14T07:29:13</time></trkpt><trkpt lat="55.8129970" lon="49.1086690"><time>2021-08-14T07:29:14</time></trkpt><trkpt lat="55.8129810" lon="49.1086680"><time>2021-08-14T07:29:15</time></trkpt><trkpt lat="55.8129670" lon="49.1086640"><time>2021-08-14T07:29:16</time></trkpt><trkpt lat="55.8129500" lon="49.1086580"><time>2021-08-14T07:29:17</time></trkpt><trkpt lat="55.8129230" lon="49.1086470"><time>2021-08-14T07:29:18</time></trkpt><trkpt lat="55.8129140" lon="49.1086430"><time>2021-08-14T07:29:19</time></trkpt><trkpt lat="55.8128980" lon="49.1086410"><time>2021-08-14T07:29:20</time></trkpt><trkpt lat="55.8128810" lon="49.1086380"><time>2021-08-14T07:29:21</time></trkpt><trkpt lat="55.8128660" lon="49.1086360"><time>2021-08-14T07:29:22</time></trkpt><trkpt lat="55.8128510" lon="49.1086310"><time>2021-08-14T07:29:23</time></trkpt><trkpt lat="55.8128350" lon="49.1086330"><time>2021-08-14T07:29:24</time></trkpt><trkpt lat="55.8128200" lon="49.1086360"><time>2021-08-14T07:29:25</time></trkpt><trkpt lat="55.8128030" lon="49.1086370"><time>2021-08-14T07:29:26</time></trkpt><trkpt lat="55.8127880" lon="49.1086350"><time>2021-08-14T07:29:27</time></trkpt><trkpt lat="55.8127730" lon="49.1086310"><time>2021-08-14T07:29:28</time></trkpt><trkpt lat="55.8127580" lon="49.1086270"><time>2021-08-14T07:29:29</time></trkpt><trkpt lat="55.8127410" lon="49.1086240"><time>2021-08-14T07:29:31</time></trkpt><trkpt lat="55.8127250" lon="49.1086170"><time>2021-08-14T07:29:32</time></trkpt><trkpt lat="55.8127090" lon="49.1086120"><time>2021-08-14T07:29:33</time></trkpt><trkpt lat="55.8126960" lon="49.1086010"><time>2021-08-14T07:29:34</time></trkpt><trkpt lat="55.8126820" lon="49.1085940"><time>2021-08-14T07:29:35</time></trkpt><trkpt lat="55.8126660" lon="49.1085870"><time>2021-08-14T07:29:36</time></trkpt><trkpt lat="55.8126440" lon="49.1085830"><time>2021-08-14T07:29:37</time></trkpt><trkpt lat="55.8126350" lon="49.1085840"><time>2021-08-14T07:29:38</time></trkpt><trkpt lat="55.8126270" lon="49.1085840"><time>2021-08-14T07:29:39</time></trkpt><trkpt lat="55.8126170" lon="49.1085680"><time>2021-08-14T07:29:40</time></trkpt><trkpt lat="55.8126080" lon="49.1085440"><time>2021-08-14T07:29:41</time></trkpt><trkpt lat="55.8125910" lon="49.1085250"><time>2021-08-14T07:29:42</time></trkpt><trkpt lat="55.8125820" lon="49.1085300"><time>2021-08-14T07:29:43</time></trkpt><trkpt lat="55.8125720" lon="49.1085340"><time>2021-08-14T07:29:44</time></trkpt><trkpt lat="55.8125600" lon="49.1085440"><time>2021-08-14T07:29:45</time></trkpt><trkpt lat="55.8125530" lon="49.1085480"><time>2021-08-14T07:29:46</time></trkpt><trkpt lat="55.8125560" lon="49.1085470"><time>2021-08-14T07:29:47</time></trkpt><trkpt lat="55.8125660" lon="49.1085450"><time>2021-08-14T07:29:48</time></trkpt><trkpt lat="55.8125710" lon="49.1085460"><time>2021-08-14T07:29:49</time></trkpt><trkpt lat="55.8125700" lon="49.1085400"><time>2021-08-14T07:29:50</time></trkpt><trkpt lat="55.8125720" lon="49.1085330"><time>2021-08-14T07:29:51</time></trkpt><trkpt lat="55.8125740" lon="49.1085310"><time>2021-08-14T07:29:52</time></trkpt><trkpt lat="55.8125780" lon="49.1085370"><time>2021-08-14T07:29:53</time></trkpt><trkpt lat="55.8125840" lon="49.1085310"><time>2021-08-14T07:29:54</time></trkpt><trkpt lat="55.8125870" lon="49.1085250"><time>2021-08-14T07:29:55</time></trkpt><trkpt lat="55.8125890" lon="49.1085180"><time>2021-08-14T07:29:56</time></trkpt><trkpt lat="55.8125870" lon="49.1085220"><time>2021-08-14T07:29:57</time></trkpt><trkpt lat="55.8125930" lon="49.1085280"><time>2021-08-14T07:29:58</time></trkpt><trkpt lat="55.8125930" lon="49.1085270"><time>2021-08-14T07:29:59</time></trkpt><trkpt lat="55.8125940" lon="49.1085260"><time>2021-08-14T07:30:00</time></trkpt><trkpt lat="55.8125950" lon="49.1085260"><time>2021-08-14T07:30:01</time></trkpt><trkpt lat="55.8125910" lon="49.1085290"><time>2021-08-14T07:30:02</time></trkpt><trkpt lat="55.8125910" lon="49.1085160"><time>2021-08-14T07:30:03</time></trkpt><trkpt lat="55.8125900" lon="49.1085060"><time>2021-08-14T07:30:04</time></trkpt><trkpt lat="55.8125810" lon="49.1084870"><time>2021-08-14T07:30:05</time></trkpt><trkpt lat="55.8125780" lon="49.1084550"><time>2021-08-14T07:30:06</time></trkpt><trkpt lat="55.8125800" lon="49.1084240"><time>2021-08-14T07:30:07</time></trkpt><trkpt lat="55.8125710" lon="49.1083940"><time>2021-08-14T07:30:08</time></trkpt><trkpt lat="55.8125710" lon="49.1083610"><time>2021-08-14T07:30:09</time></trkpt><trkpt lat="55.8125730" lon="49.1083250"><time>2021-08-14T07:30:10</time></trkpt><trkpt lat="55.8125720" lon="49.1083050"><time>2021-08-14T07:30:11</time></trkpt><trkpt lat="55.8125760" lon="49.1082830"><time>2021-08-14T07:30:12</time></trkpt><trkpt lat="55.8125800" lon="49.1082580"><time>2021-08-14T07:30:13</time></trkpt><trkpt lat="55.8125930" lon="49.1082360"><time>2021-08-14T07:30:14</time></trkpt><trkpt lat="55.8126060" lon="49.1082130"><time>2021-08-14T07:30:15</time></trkpt><trkpt lat="55.8126020" lon="49.1081830"><time>2021-08-14T07:30:16</time></trkpt><trkpt lat="55.8126090" lon="49.1081590"><time>2021-08-14T07:30:17</time></trkpt><trkpt lat="55.8126140" lon="49.1081350"><time>2021-08-14T07:30:18</time></trkpt><trkpt lat="55.8126200" lon="49.1081120"><time>2021-08-14T07:30:19</time></trkpt><trkpt lat="55.8126300" lon="49.1080900"><time>2021-08-14T07:30:20</time></trkpt><trkpt lat="55.8126390" lon="49.1080670"><time>2021-08-14T07:30:21</time></trkpt><trkpt lat="55.8126500" lon="49.1080410"><time>2021-08-14T07:30:22</time></trkpt><trkpt lat="55.8126640" lon="49.1080230"><time>2021-08-14T07:30:23</time></trkpt><trkpt lat="55.8126660" lon="49.1079810"><time>2021-08-14T07:30:24</time></trkpt><trkpt lat="55.8126780" lon="49.1079650"><time>2021-08-14T07:30:25</time></trkpt><trkpt lat="55.8127040" lon="49.1079490"><time>2021-08-14T07:30:26</time></trkpt><trkpt lat="55.8127180" lon="49.1079540"><time>2021-08-14T07:30:27</time></trkpt><trkpt lat="55.8127150" lon="49.1079090"><time>2021-08-14T07:30:28</time></trkpt><trkpt lat="55.8127270" lon="49.1078940"><time>2021-08-14T07:30:29</time></trkpt><trkpt lat="55.8127380" lon="49.1078740"><time>2021-08-14T07:30:30</time></trkpt><trkpt lat="55.8127500" lon="49.1078490"><time>2021-08-14T07:30:31</time></trkpt><trkpt lat="55.8127560" lon="49.1078210"><time>2021-08-14T07:30:32</time></trkpt><trkpt lat="55.8127610" lon="49.1077920"><time>2021-08-14T07:30:33</time></trkpt><trkpt lat="55.8127740" lon="49.1077440"><time>2021-08-14T07:30:34</time></trkpt><trkpt lat="55.8127780" lon="49.1077290"><time>2021-08-14T07:30:35</time></trkpt><trkpt lat="55.8127840" lon="49.1076980"><time>2021-08-14T07:30:36</time></trkpt><trkpt lat="55.8127890" lon="49.1076700"><time>2021-08-14T07:30:37</time></trkpt><trkpt lat="55.8127930" lon="49.1076330"><time>2021-08-14T07:30:38</time></trkpt><trkpt lat="55.8127920" lon="49.1076120"><time>2021-08-14T07:30:39</time></trkpt><trkpt lat="55.8127950" lon="49.1075800"><time>2021-08-14T07:30:40</time></trkpt><trkpt lat="55.8127990" lon="49.1075540"><time>2021-08-14T07:30:41</time></trkpt><trkpt lat="55.8128000" lon="49.1075220"><time>2021-08-14T07:30:42</time></trkpt><trkpt lat="55.8128030" lon="49.1074920"><time>2021-08-14T07:30:43</time></trkpt><trkpt lat="55.8128020" lon="49.1074610"><time>2021-08-14T07:30:44</time></trkpt><trkpt lat="55.8128020" lon="49.1074390"><time>2021-08-14T07:30:45</time></trkpt><trkpt lat="55.8127980" lon="49.1074110"><time>2021-08-14T07:30:46</time></trkpt><trkpt lat="55.8128020" lon="49.1073750"><time>2021-08-14T07:30:47</time></trkpt><trkpt lat="55.8128110" lon="49.1073440"><time>2021-08-14T07:30:48</time></trkpt><trkpt lat="55.8128100" lon="49.1073210"><time>2021-08-14T07:30:49</time></trkpt><trkpt lat="55.8128080" lon="49.1072870"><time>2021-08-14T07:30:50</time></trkpt><trkpt lat="55.8128120" lon="49.1072570"><time>2021-08-14T07:30:51</time></trkpt><trkpt lat="55.8128140" lon="49.1072270"><time>2021-08-14T07:30:52</time></trkpt><trkpt lat="55.8128130" lon="49.1071970"><time>2021-08-14T07:30:53</time></trkpt><trkpt lat="55.8128130" lon="49.1071560"><time>2021-08-14T07:30:54</time></trkpt><trkpt lat="55.8128110" lon="49.1071370"><time>2021-08-14T07:30:55</time></trkpt><trkpt lat="55.8128090" lon="49.1071180"><time>2021-08-14T07:30:56</time></trkpt><trkpt lat="55.8128110" lon="49.1070820"><time>2021-08-14T07:30:57</time></trkpt><trkpt lat="55.8128100" lon="49.1070610"><time>2021-08-14T07:30:58</time></trkpt><trkpt lat="55.8128090" lon="49.1070410"><time>2021-08-14T07:30:59</time></trkpt><trkpt lat="55.8128080" lon="49.1070160"><time>2021-08-14T07:31:00</time></trkpt><trkpt lat="55.8128070" lon="49.1069880"><time>2021-08-14T07:31:01</time></trkpt><trkpt lat="55.8128080" lon="49.1069580"><time>2021-08-14T07:31:02</time></trkpt><trkpt lat="55.8128100" lon="49.1069310"><time>2021-08-14T07:31:03</time></trkpt><trkpt lat="55.8128130" lon="49.1069020"><time>2021-08-14T07:31:04</time></trkpt><trkpt lat="55.8128080" lon="49.1068750"><time>2021-08-14T07:31:05</time></trkpt><trkpt lat="55.8128040" lon="49.1068460"><time>2021-08-14T07:31:06</time></trkpt><trkpt lat="55.8128080" lon="49.1068130"><time>2021-08-14T07:31:07</time></trkpt><trkpt lat="55.8128100" lon="49.1067830"><time>2021-08-14T07:31:08</time></trkpt><trkpt lat="55.8128140" lon="49.1067510"><time>2021-08-14T07:31:09</time></trkpt><trkpt lat="55.8128160" lon="49.1067010"><time>2021-08-14T07:31:10</time></trkpt><trkpt lat="55.8128150" lon="49.1066860"><time>2021-08-14T07:31:11</time></trkpt><trkpt lat="55.8128120" lon="49.1066580"><time>2021-08-14T07:31:12</time></trkpt><trkpt lat="55.8128170" lon="49.1066290"><time>2021-08-14T07:31:13</time></trkpt><trkpt lat="55.8128190" lon="49.1065950"><time>2021-08-14T07:31:14</time></trkpt><trkpt lat="55.8128190" lon="49.1065660"><time>2021-08-14T07:31:15</time></trkpt><trkpt lat="55.8128190" lon="49.1065380"><time>2021-08-14T07:31:16</time></trkpt><trkpt lat="55.8128160" lon="49.1065090"><time>2021-08-14T07:31:17</time></trkpt><trkpt lat="55.8128170" lon="49.1064780"><time>2021-08-14T07:31:18</time></trkpt><trkpt lat="55.8128190" lon="49.1064470"><time>2021-08-14T07:31:19</time></trkpt><trkpt lat="55.8128240" lon="49.1064170"><time>2021-08-14T07:31:20</time></trkpt><trkpt lat="55.8128290" lon="49.1063920"><time>2021-08-14T07:31:21</time></trkpt><trkpt lat="55.8128300" lon="49.1063610"><time>2021-08-14T07:31:22</time></trkpt><trkpt lat="55.8128280" lon="49.1063350"><time>2021-08-14T07:31:23</time></trkpt><trkpt lat="55.8128280" lon="49.1063020"><time>2021-08-14T07:31:24</time></trkpt><trkpt lat="55.8128320" lon="49.1062740"><time>2021-08-14T07:31:25</time></trkpt><trkpt lat="55.8128340" lon="49.1062440"><time>2021-08-14T07:31:26</time></trkpt><trkpt lat="55.8128440" lon="49.1062130"><time>2021-08-14T07:31:27</time></trkpt><trkpt lat="55.8128420" lon="49.1061820"><time>2021-08-14T07:31:28</time></trkpt><trkpt lat="55.8128430" lon="49.1061530"><time>2021-08-14T07:31:29</time></trkpt><trkpt lat="55.8128440" lon="49.1061250"><time>2021-08-14T07:31:30</time></trkpt><trkpt lat="55.8128450" lon="49.1060970"><time>2021-08-14T07:31:31</time></trkpt><trkpt lat="55.8128470" lon="49.1060760"><time>2021-08-14T07:31:32</time></trkpt><trkpt lat="55.8128540" lon="49.1060460"><time>2021-08-14T07:31:33</time></trkpt><trkpt lat="55.8128680" lon="49.1060240"><time>2021-08-14T07:31:34</time></trkpt><trkpt lat="55.8128570" lon="49.1059970"><time>2021-08-14T07:31:35</time></trkpt><trkpt lat="55.8128590" lon="49.1059680"><time>2021-08-14T07:31:36</time></trkpt><trkpt lat="55.8128750" lon="49.1059440"><time>2021-08-14T07:31:37</time></trkpt><trkpt lat="55.8128850" lon="49.1059240"><time>2021-08-14T07:31:38</time></trkpt><trkpt lat="55.8129010" lon="49.1059040"><time>2021-08-14T07:31:39</time></trkpt><trkpt lat="55.8129120" lon="49.1058850"><time>2021-08-14T07:31:40</time></trkpt><trkpt lat="55.8129220" lon="49.1058640"><time>2021-08-14T07:31:41</time></trkpt><trkpt lat="55.8129290" lon="49.1058410"><time>2021-08-14T07:31:42</time></trkpt><trkpt lat="55.8129400" lon="49.1058180"><time>2021-08-14T07:31:43</time></trkpt><trkpt lat="55.8129450" lon="49.1057880"><time>2021-08-14T07:31:44</time></trkpt><trkpt lat="55.8129400" lon="49.1057590"><time>2021-08-14T07:31:45</time></trkpt><trkpt lat="55.8129350" lon="49.1057260"><time>2021-08-14T07:31:46</time></trkpt><trkpt lat="55.8129340" lon="49.1056960"><time>2021-08-14T07:31:47</time></trkpt><trkpt lat="55.8129360" lon="49.1056660"><time>2021-08-14T07:31:48</time></trkpt><trkpt lat="55.8129380" lon="49.1056330"><time>2021-08-14T07:31:49</time></trkpt><trkpt lat="55.8129350" lon="49.1056030"><time>2021-08-14T07:31:50</time></trkpt><trkpt lat="55.8129320" lon="49.1055760"><time>2021-08-14T07:31:51</time></trkpt><trkpt lat="55.8129320" lon="49.1055460"><time>2021-08-14T07:31:52</time></trkpt><trkpt lat="55.8129340" lon="49.1055150"><time>2021-08-14T07:31:53</time></trkpt><trkpt lat="55.8129350" lon="49.1054860"><time>2021-08-14T07:31:54</time></trkpt><trkpt lat="55.8129360" lon="49.1054590"><time>2021-08-14T07:31:55</time></trkpt><trkpt lat="55.8129380" lon="49.1054270"><time>2021-08-14T07:31:56</time></trkpt><trkpt lat="55.8129410" lon="49.1053970"><time>2021-08-14T07:31:57</time></trkpt><trkpt lat="55.8129390" lon="49.1053680"><time>2021-08-14T07:31:58</time></trkpt><trkpt lat="55.8129400" lon="49.1053400"><time>2021-08-14T07:31:59</time></trkpt><trkpt lat="55.8129410" lon="49.1053140"><time>2021-08-14T07:32:00</time></trkpt><trkpt lat="55.8129420" lon="49.1052850"><time>2021-08-14T07:32:01</time></trkpt><trkpt lat="55.8129440" lon="49.1052540"><time>2021-08-14T07:32:02</time></trkpt><trkpt lat="55.8129450" lon="49.1052300"><time>2021-08-14T07:32:03</time></trkpt><trkpt lat="55.8129440" lon="49.1051980"><time>2021-08-14T07:32:04</time></trkpt><trkpt lat="55.8129410" lon="49.1051720"><time>2021-08-14T07:32:05</time></trkpt><trkpt lat="55.8129490" lon="49.1051420"><time>2021-08-14T07:32:06</time></trkpt><trkpt lat="55.8129520" lon="49.1051140"><time>2021-08-14T07:32:07</time></trkpt><trkpt lat="55.8129480" lon="49.1050810"><time>2021-08-14T07:32:08</time></trkpt><trkpt lat="55.8129510" lon="49.1050560"><time>2021-08-14T07:32:09</time></trkpt><trkpt lat="55.8129550" lon="49.1050300"><time>2021-08-14T07:32:10</time></trkpt><trkpt lat="55.8129560" lon="49.1050000"><time>2021-08-14T07:32:11</time></trkpt><trkpt lat="55.8129520" lon="49.1049690"><time>2021-08-14T07:32:12</time></trkpt><trkpt lat="55.8129560" lon="49.1049370"><time>2021-08-14T07:32:13</time></trkpt><trkpt lat="55.8129560" lon="49.1049110"><time>2021-08-14T07:32:14</time></trkpt><trkpt lat="55.8129580" lon="49.1048810"><time>2021-08-14T07:32:15</time></trkpt><trkpt lat="55.8129550" lon="49.1048510"><time>2021-08-14T07:32:16</time></trkpt><trkpt lat="55.8129540" lon="49.1048220"><time>2021-08-14T07:32:17</time></trkpt><trkpt lat="55.8129600" lon="49.1047940"><time>2021-08-14T07:32:18</time></trkpt><trkpt lat="55.8129520" lon="49.1047670"><time>2021-08-14T07:32:19</time></trkpt><trkpt lat="55.8129490" lon="49.1047210"><time>2021-08-14T07:32:20</time></trkpt><trkpt lat="55.8129460" lon="49.1047040"><time>2021-08-14T07:32:21</time></trkpt><trkpt lat="55.8129490" lon="49.1046720"><time>2021-08-14T07:32:22</time></trkpt><trkpt lat="55.8129500" lon="49.1046480"><time>2021-08-14T07:32:23</time></trkpt><trkpt lat="55.8129510" lon="49.1046220"><time>2021-08-14T07:32:24</time></trkpt><trkpt lat="55.8129520" lon="49.1045930"><time>2021-08-14T07:32:25</time></trkpt><trkpt lat="55.8129500" lon="49.1045670"><time>2021-08-14T07:32:26</time></trkpt><trkpt lat="55.8129570" lon="49.1045300"><time>2021-08-14T07:32:27</time></trkpt><trkpt lat="55.8129640" lon="49.1045040"><time>2021-08-14T07:32:28</time></trkpt><trkpt lat="55.8129650" lon="49.1044700"><time>2021-08-14T07:32:29</time></trkpt><trkpt lat="55.8129620" lon="49.1044400"><time>2021-08-14T07:32:30</time></trkpt><trkpt lat="55.8129650" lon="49.1044130"><time>2021-08-14T07:32:31</time></trkpt><trkpt lat="55.8129640" lon="49.1043860"><time>2021-08-14T07:32:32</time></trkpt><trkpt lat="55.8129650" lon="49.1043570"><time>2021-08-14T07:32:33</time></trkpt><trkpt lat="55.8129680" lon="49.1043260"><time>2021-08-14T07:32:34</time></trkpt><trkpt lat="55.8129740" lon="49.1042960"><time>2021-08-14T07:32:35</time></trkpt><trkpt lat="55.8129760" lon="49.1042730"><time>2021-08-14T07:32:36</time></trkpt><trkpt lat="55.8129740" lon="49.1042410"><time>2021-08-14T07:32:37</time></trkpt><trkpt lat="55.8129710" lon="49.1042130"><time>2021-08-14T07:32:38</time></trkpt><trkpt lat="55.8129680" lon="49.1041850"><time>2021-08-14T07:32:39</time></trkpt><trkpt lat="55.8129620" lon="49.1041560"><time>2021-08-14T07:32:40</time></trkpt><trkpt lat="55.8129560" lon="49.1041280"><time>2021-08-14T07:32:41</time></trkpt><trkpt lat="55.8129550" lon="49.1040980"><time>2021-08-14T07:32:42</time></trkpt><trkpt lat="55.8129470" lon="49.1040700"><time>2021-08-14T07:32:43</time></trkpt><trkpt lat="55.8129470" lon="49.1040200"><time>2021-08-14T07:32:44</time></trkpt><trkpt lat="55.8129470" lon="49.1040020"><time>2021-08-14T07:32:45</time></trkpt><trkpt lat="55.8129440" lon="49.1039760"><time>2021-08-14T07:32:46</time></trkpt><trkpt lat="55.8129450" lon="49.1039460"><time>2021-08-14T07:32:47</time></trkpt><trkpt lat="55.8129530" lon="49.1039180"><time>2021-08-14T07:32:48</time></trkpt><trkpt lat="55.8129620" lon="49.1038960"><time>2021-08-14T07:32:49</time></trkpt><trkpt lat="55.8129580" lon="49.1038660"><time>2021-08-14T07:32:50</time></trkpt><trkpt lat="55.8129510" lon="49.1038350"><time>2021-08-14T07:32:51</time></trkpt><trkpt lat="55.8129440" lon="49.1038090"><time>2021-08-14T07:32:52</time></trkpt><trkpt lat="55.8129400" lon="49.1037850"><time>2021-08-14T07:32:53</time></trkpt><trkpt lat="55.8129330" lon="49.1037640"><time>2021-08-14T07:32:54</time></trkpt><trkpt lat="55.8129290" lon="49.1037370"><time>2021-08-14T07:32:55</time></trkpt><trkpt lat="55.8129230" lon="49.1036980"><time>2021-08-14T07:32:56</time></trkpt><trkpt lat="55.8129210" lon="49.1036830"><time>2021-08-14T07:32:57</time></trkpt><trkpt lat="55.8129190" lon="49.1036670"><time>2021-08-14T07:32:58</time></trkpt><trkpt lat="55.8129200" lon="49.1036420"><time>2021-08-14T07:32:59</time></trkpt><trkpt lat="55.8129150" lon="49.1036140"><time>2021-08-14T07:33:00</time></trkpt><trkpt lat="55.8129070" lon="49.1035900"><time>2021-08-14T07:33:01</time></trkpt><trkpt lat="55.8128940" lon="49.1035660"><time>2021-08-14T07:33:02</time></trkpt><trkpt lat="55.8128880" lon="49.1035490"><time>2021-08-14T07:33:03</time></trkpt><trkpt lat="55.8128790" lon="49.1035230"><time>2021-08-14T07:33:04</time></trkpt><trkpt lat="55.8128680" lon="49.1035030"><time>2021-08-14T07:33:05</time></trkpt><trkpt lat="55.8128530" lon="49.1034830"><time>2021-08-14T07:33:06</time></trkpt><trkpt lat="55.8128410" lon="49.1034620"><time>2021-08-14T07:33:07</time></trkpt><trkpt lat="55.8128290" lon="49.1034420"><time>2021-08-14T07:33:08</time></trkpt><trkpt lat="55.8128180" lon="49.1034190"><time>2021-08-14T07:33:09</time></trkpt><trkpt lat="55.8128090" lon="49.1034010"><time>2021-08-14T07:33:10</time></trkpt><trkpt lat="55.8127990" lon="49.1033760"><time>2021-08-14T07:33:11</time></trkpt><trkpt lat="55.8127850" lon="49.1033650"><time>2021-08-14T07:33:12</time></trkpt><trkpt lat="55.8127730" lon="49.1033510"><time>2021-08-14T07:33:13</time></trkpt><trkpt lat="55.8127650" lon="49.1033210"><time>2021-08-14T07:33:14</time></trkpt><trkpt lat="55.8127660" lon="49.1033010"><time>2021-08-14T07:33:15</time></trkpt><trkpt lat="55.8127720" lon="49.1032690"><time>2021-08-14T07:33:16</time></trkpt><trkpt lat="55.8127700" lon="49.1032470"><time>2021-08-14T07:33:17</time></trkpt><trkpt lat="55.8127760" lon="49.1032200"><time>2021-08-14T07:33:18</time></trkpt><trkpt lat="55.8127920" lon="49.1031720"><time>2021-08-14T07:33:19</time></trkpt><trkpt lat="55.8127930" lon="49.1031580"><time>2021-08-14T07:33:20</time></trkpt><trkpt lat="55.8128000" lon="49.1031280"><time>2021-08-14T07:33:21</time></trkpt><trkpt lat="55.8128060" lon="49.1031030"><time>2021-08-14T07:33:22</time></trkpt><trkpt lat="55.8128070" lon="49.1030710"><time>2021-08-14T07:33:23</time></trkpt><trkpt lat="55.8128120" lon="49.1030480"><time>2021-08-14T07:33:24</time></trkpt><trkpt lat="55.8128190" lon="49.1030200"><time>2021-08-14T07:33:25</time></trkpt><trkpt lat="55.8128180" lon="49.1029910"><time>2021-08-14T07:33:26</time></trkpt><trkpt lat="55.8128300" lon="49.1029650"><time>2021-08-14T07:33:27</time></trkpt><trkpt lat="55.8128270" lon="49.1029310"><time>2021-08-14T07:33:28</time></trkpt><trkpt lat="55.8128300" lon="49.1029030"><time>2021-08-14T07:33:29</time></trkpt><trkpt lat="55.8128420" lon="49.1028770"><time>2021-08-14T07:33:30</time></trkpt><trkpt lat="55.8128400" lon="49.1028450"><time>2021-08-14T07:33:31</time></trkpt><trkpt lat="55.8128390" lon="49.1028190"><time>2021-08-14T07:33:32</time></trkpt><trkpt lat="55.8128130" lon="49.1027810"><time>2021-08-14T07:33:33</time></trkpt><trkpt lat="55.8128040" lon="49.1027700"><time>2021-08-14T07:33:34</time></trkpt><trkpt lat="55.8127920" lon="49.1027490"><time>2021-08-14T07:33:35</time></trkpt><trkpt lat="55.8127840" lon="49.1027190"><time>2021-08-14T07:33:36</time></trkpt><trkpt lat="55.8127710" lon="49.1026950"><time>2021-08-14T07:33:37</time></trkpt><trkpt lat="55.8127580" lon="49.1026720"><time>2021-08-14T07:33:38</time></trkpt><trkpt lat="55.8127470" lon="49.1026480"><time>2021-08-14T07:33:39</time></trkpt><trkpt lat="55.8127380" lon="49.1026230"><time>2021-08-14T07:33:40</time></trkpt><trkpt lat="55.8127290" lon="49.1026030"><time>2021-08-14T07:33:41</time></trkpt><trkpt lat="55.8127190" lon="49.1025750"><time>2021-08-14T07:33:42</time></trkpt><trkpt lat="55.8127110" lon="49.1025520"><time>2021-08-14T07:33:43</time></trkpt><trkpt lat="55.8126990" lon="49.1025390"><time>2021-08-14T07:33:44</time></trkpt><trkpt lat="55.8126910" lon="49.1025250"><time>2021-08-14T07:33:45</time></trkpt><trkpt lat="55.8126780" lon="49.1025050"><time>2021-08-14T07:33:46</time></trkpt><trkpt lat="55.8126630" lon="49.1024820"><time>2021-08-14T07:33:47</time></trkpt><trkpt lat="55.8126510" lon="49.1024660"><time>2021-08-14T07:33:48</time></trkpt><trkpt lat="55.8126360" lon="49.1024530"><time>2021-08-14T07:33:49</time></trkpt><trkpt lat="55.8126240" lon="49.1024360"><time>2021-08-14T07:33:50</time></trkpt><trkpt lat="55.8126100" lon="49.1024210"><time>2021-08-14T07:33:51</time></trkpt><trkpt lat="55.8125990" lon="49.1024070"><time>2021-08-14T07:33:52</time></trkpt><trkpt lat="55.8125910" lon="49.1023940"><time>2021-08-14T07:33:53</time></trkpt><trkpt lat="55.8125930" lon="49.1023930"><time>2021-08-14T07:33:54</time></trkpt><trkpt lat="55.8125960" lon="49.1023910"><time>2021-08-14T07:33:55</time></trkpt><trkpt lat="55.8125990" lon="49.1023900"><time>2021-08-14T07:33:56</time></trkpt><trkpt lat="55.8126010" lon="49.1023890"><time>2021-08-14T07:33:57</time></trkpt><trkpt lat="55.8126040" lon="49.1023880"><time>2021-08-14T07:33:58</time></trkpt><trkpt lat="55.8126070" lon="49.1023870"><time>2021-08-14T07:33:59</time></trkpt><trkpt lat="55.8126090" lon="49.1023850"><time>2021-08-14T07:34:00</time></trkpt><trkpt lat="55.8126120" lon="49.1023840"><time>2021-08-14T07:34:01</time></trkpt><trkpt lat="55.8126150" lon="49.1023830"><time>2021-08-14T07:34:02</time></trkpt><trkpt lat="55.8126170" lon="49.1023820"><time>2021-08-14T07:34:03</time></trkpt><trkpt lat="55.8126200" lon="49.1023810"><time>2021-08-14T07:34:04</time></trkpt><trkpt lat="55.8126230" lon="49.1023790"><time>2021-08-14T07:34:05</time></trkpt><trkpt lat="55.8126260" lon="49.1023780"><time>2021-08-14T07:34:06</time></trkpt><trkpt lat="55.8126280" lon="49.1023770"><time>2021-08-14T07:34:07</time></trkpt><trkpt lat="55.8126310" lon="49.1023760"><time>2021-08-14T07:34:08</time></trkpt><trkpt lat="55.8126340" lon="49.1023750"><time>2021-08-14T07:34:09</time></trkpt><trkpt lat="55.8126360" lon="49.1023730"><time>2021-08-14T07:34:10</time></trkpt><trkpt lat="55.8126390" lon="49.1023720"><time>2021-08-14T07:34:11</time></trkpt><trkpt lat="55.8126420" lon="49.1023710"><time>2021-08-14T07:34:12</time></trkpt><trkpt lat="55.8126440" lon="49.1023700"><time>2021-08-14T07:34:13</time></trkpt><trkpt lat="55.8126470" lon="49.1023690"><time>2021-08-14T07:34:14</time></trkpt><trkpt lat="55.8126500" lon="49.1023670"><time>2021-08-14T07:34:15</time></trkpt><trkpt lat="55.8126520" lon="49.1023660"><time>2021-08-14T07:34:16</time></trkpt><trkpt lat="55.8126550" lon="49.1023650"><time>2021-08-14T07:34:17</time></trkpt><trkpt lat="55.8126700" lon="49.1023260"><time>2021-08-14T07:34:18</time></trkpt><trkpt lat="55.8126800" lon="49.1023150"><time>2021-08-14T07:34:19</time></trkpt><trkpt lat="55.8126890" lon="49.1023050"><time>2021-08-14T07:34:20</time></trkpt><trkpt lat="55.8126990" lon="49.1022970"><time>2021-08-14T07:34:21</time></trkpt><trkpt lat="55.8127120" lon="49.1022880"><time>2021-08-14T07:34:22</time></trkpt><trkpt lat="55.8127200" lon="49.1022760"><time>2021-08-14T07:34:23</time></trkpt><trkpt lat="55.8127320" lon="49.1022570"><time>2021-08-14T07:34:24</time></trkpt><trkpt lat="55.8127430" lon="49.1022410"><time>2021-08-14T07:34:25</time></trkpt><trkpt lat="55.8127540" lon="49.1022230"><time>2021-08-14T07:34:26</time></trkpt><trkpt lat="55.8127680" lon="49.1022130"><time>2021-08-14T07:34:27</time></trkpt><trkpt lat="55.8127830" lon="49.1022050"><time>2021-08-14T07:34:28</time></trkpt><trkpt lat="55.8128000" lon="49.1021910"><time>2021-08-14T07:34:29</time></trkpt><trkpt lat="55.8128180" lon="49.1021720"><time>2021-08-14T07:34:30</time></trkpt><trkpt lat="55.8128260" lon="49.1021620"><time>2021-08-14T07:34:31</time></trkpt><trkpt lat="55.8128330" lon="49.1021520"><time>2021-08-14T07:34:32</time></trkpt><trkpt lat="55.8128430" lon="49.1021420"><time>2021-08-14T07:34:33</time></trkpt><trkpt lat="55.8128550" lon="49.1021350"><time>2021-08-14T07:34:34</time></trkpt><trkpt lat="55.8128610" lon="49.1021140"><time>2021-08-14T07:34:35</time></trkpt><trkpt lat="55.8128660" lon="49.1020960"><time>2021-08-14T07:34:36</time></trkpt><trkpt lat="55.8128720" lon="49.1020820"><time>2021-08-14T07:34:37</time></trkpt><trkpt lat="55.8128750" lon="49.1020880"><time>2021-08-14T07:34:38</time></trkpt><trkpt lat="55.8128620" lon="49.1020960"><time>2021-08-14T07:34:39</time></trkpt><trkpt lat="55.8128610" lon="49.1020920"><time>2021-08-14T07:34:40</time></trkpt><trkpt lat="55.8128610" lon="49.1020650"><time>2021-08-14T07:34:41</time></trkpt><trkpt lat="55.8128310" lon="49.1020310"><time>2021-08-14T07:34:42</time></trkpt><trkpt lat="55.8128220" lon="49.1020220"><time>2021-08-14T07:34:43</time></trkpt><trkpt lat="55.8128030" lon="49.1019660"><time>2021-08-14T07:34:44</time></trkpt><trkpt lat="55.8127990" lon="49.1019470"><time>2021-08-14T07:34:45</time></trkpt><trkpt lat="55.8127790" lon="49.1019160"><time>2021-08-14T07:34:46</time></trkpt><trkpt lat="55.8127680" lon="49.1019090"><time>2021-08-14T07:34:47</time></trkpt><trkpt lat="55.8127590" lon="49.1018810"><time>2021-08-14T07:34:48</time></trkpt><trkpt lat="55.8127500" lon="49.1018550"><time>2021-08-14T07:34:49</time></trkpt><trkpt lat="55.8127430" lon="49.1018300"><time>2021-08-14T07:34:50</time></trkpt><trkpt lat="55.8127360" lon="49.1018030"><time>2021-08-14T07:34:51</time></trkpt><trkpt lat="55.8127280" lon="49.1017760"><time>2021-08-14T07:34:52</time></trkpt><trkpt lat="55.8127220" lon="49.1017500"><time>2021-08-14T07:34:53</time></trkpt><trkpt lat="55.8127170" lon="49.1017230"><time>2021-08-14T07:34:54</time></trkpt><trkpt lat="55.8127090" lon="49.1016950"><time>2021-08-14T07:34:55</time></trkpt><trkpt lat="55.8127050" lon="49.1016680"><time>2021-08-14T07:34:56</time></trkpt><trkpt lat="55.8126990" lon="49.1016440"><time>2021-08-14T07:34:57</time></trkpt><trkpt lat="55.8126920" lon="49.1016140"><time>2021-08-14T07:34:58</time></trkpt><trkpt lat="55.8126880" lon="49.1015870"><time>2021-08-14T07:34:59</time></trkpt><trkpt lat="55.8126860" lon="49.1015600"><time>2021-08-14T07:35:00</time></trkpt><trkpt lat="55.8126790" lon="49.1015330"><time>2021-08-14T07:35:01</time></trkpt><trkpt lat="55.8126710" lon="49.1015090"><time>2021-08-14T07:35:02</time></trkpt><trkpt lat="55.8126550" lon="49.1014930"><time>2021-08-14T07:35:03</time></trkpt><trkpt lat="55.8126230" lon="49.1015130"><time>2021-08-14T07:35:04</time></trkpt><trkpt lat="55.8126140" lon="49.1015270"><time>2021-08-14T07:35:05</time></trkpt><trkpt lat="55.8125920" lon="49.1015580"><time>2021-08-14T07:35:06</time></trkpt><trkpt lat="55.8125850" lon="49.1015670"><time>2021-08-14T07:35:07</time></trkpt><trkpt lat="55.8125700" lon="49.1015770"><time>2021-08-14T07:35:08</time></trkpt><trkpt lat="55.8125540" lon="49.1015860"><time>2021-08-14T07:35:09</time></trkpt><trkpt lat="55.8125350" lon="49.1015880"><time>2021-08-14T07:35:10</time></trkpt><trkpt lat="55.8125200" lon="49.1016000"><time>2021-08-14T07:35:11</time></trkpt><trkpt lat="55.8125060" lon="49.1016180"><time>2021-08-14T07:35:12</time></trkpt><trkpt lat="55.8124930" lon="49.1016420"><time>2021-08-14T07:35:13</time></trkpt><trkpt lat="55.8124820" lon="49.1016630"><time>2021-08-14T07:35:14</time></trkpt><trkpt lat="55.8124670" lon="49.1016740"><time>2021-08-14T07:35:15</time></trkpt><trkpt lat="55.8124520" lon="49.1016920"><time>2021-08-14T07:35:16</time></trkpt><trkpt lat="55.8124360" lon="49.1016910"><time>2021-08-14T07:35:17</time></trkpt><trkpt lat="55.8124190" lon="49.1016870"><time>2021-08-14T07:35:18</time></trkpt><trkpt lat="55.8124030" lon="49.1016940"><time>2021-08-14T07:35:19</time></trkpt><trkpt lat="55.8123880" lon="49.1016970"><time>2021-08-14T07:35:20</time></trkpt><trkpt lat="55.8123750" lon="49.1017030"><time>2021-08-14T07:35:21</time></trkpt><trkpt lat="55.8123610" lon="49.1016920"><time>2021-08-14T07:35:22</time></trkpt><trkpt lat="55.8123460" lon="49.1016920"><time>2021-08-14T07:35:23</time></trkpt><trkpt lat="55.8123300" lon="49.1017000"><time>2021-08-14T07:35:24</time></trkpt><trkpt lat="55.8123190" lon="49.1016880"><time>2021-08-14T07:35:25</time></trkpt><trkpt lat="55.8123060" lon="49.1016680"><time>2021-08-14T07:35:26</time></trkpt><trkpt lat="55.8122960" lon="49.1016500"><time>2021-08-14T07:35:27</time></trkpt><trkpt lat="55.8122830" lon="49.1016390"><time>2021-08-14T07:35:28</time></trkpt><trkpt lat="55.8122680" lon="49.1016400"><time>2021-08-14T07:35:29</time></trkpt><trkpt lat="55.8122530" lon="49.1016420"><time>2021-08-14T07:35:30</time></trkpt><trkpt lat="55.8122390" lon="49.1016360"><time>2021-08-14T07:35:31</time></trkpt><trkpt lat="55.8122230" lon="49.1016370"><time>2021-08-14T07:35:32</time></trkpt><trkpt lat="55.8122080" lon="49.1016330"><time>2021-08-14T07:35:33</time></trkpt><trkpt lat="55.8121890" lon="49.1016300"><time>2021-08-14T07:35:34</time></trkpt><trkpt lat="55.8121720" lon="49.1016360"><time>2021-08-14T07:35:35</time></trkpt><trkpt lat="55.8121550" lon="49.1016390"><time>2021-08-14T07:35:36</time></trkpt><trkpt lat="55.8121420" lon="49.1016380"><time>2021-08-14T07:35:37</time></trkpt><trkpt lat="55.8121260" lon="49.1016460"><time>2021-08-14T07:35:38</time></trkpt><trkpt lat="55.8121120" lon="49.1016460"><time>2021-08-14T07:35:39</time></trkpt><trkpt lat="55.8121000" lon="49.1016310"><time>2021-08-14T07:35:40</time></trkpt><trkpt lat="55.8120830" lon="49.1016330"><time>2021-08-14T07:35:41</time></trkpt><trkpt lat="55.8120650" lon="49.1016390"><time>2021-08-14T07:35:42</time></trkpt><trkpt lat="55.8120500" lon="49.1016310"><time>2021-08-14T07:35:43</time></trkpt><trkpt lat="55.8120360" lon="49.1016300"><time>2021-08-14T07:35:44</time></trkpt><trkpt lat="55.8120180" lon="49.1016250"><time>2021-08-14T07:35:45</time></trkpt><trkpt lat="55.8120020" lon="49.1016270"><time>2021-08-14T07:35:46</time></trkpt><trkpt lat="55.8119880" lon="49.1016210"><time>2021-08-14T07:35:47</time></trkpt><trkpt lat="55.8119720" lon="49.1016250"><time>2021-08-14T07:35:48</time></trkpt><trkpt lat="55.8119590" lon="49.1016340"><time>2021-08-14T07:35:49</time></trkpt><trkpt lat="55.8119420" lon="49.1016270"><time>2021-08-14T07:35:50</time></trkpt><trkpt lat="55.8119310" lon="49.1016180"><time>2021-08-14T07:35:51</time></trkpt><trkpt lat="55.8119180" lon="49.1016090"><time>2021-08-14T07:35:52</time></trkpt><trkpt lat="55.8119030" lon="49.1015970"><time>2021-08-14T07:35:53</time></trkpt><trkpt lat="55.8118980" lon="49.1015700"><time>2021-08-14T07:35:54</time></trkpt><trkpt lat="55.8118930" lon="49.1015570"><time>2021-08-14T07:35:55</time></trkpt><trkpt lat="55.8118880" lon="49.1015560"><time>2021-08-14T07:35:56</time></trkpt><trkpt lat="55.8118740" lon="49.1015750"><time>2021-08-14T07:35:57</time></trkpt><trkpt lat="55.8118710" lon="49.1015790"><time>2021-08-14T07:35:58</time></trkpt><trkpt lat="55.8118680" lon="49.1015820"><time>2021-08-14T07:35:59</time></trkpt><trkpt lat="55.8118660" lon="49.1015860"><time>2021-08-14T07:36:00</time></trkpt><trkpt lat="55.8118630" lon="49.1015900"><time>2021-08-14T07:36:01</time></trkpt><trkpt lat="55.8118600" lon="49.1015940"><time>2021-08-14T07:36:02</time></trkpt><trkpt lat="55.8118570" lon="49.1015970"><time>2021-08-14T07:36:03</time></trkpt><trkpt lat="55.8118540" lon="49.1016010"><time>2021-08-14T07:36:04</time></trkpt><trkpt lat="55.8118400" lon="49.1016030"><time>2021-08-14T07:36:05</time></trkpt><trkpt lat="55.8118280" lon="49.1016100"><time>2021-08-14T07:36:06</time></trkpt><trkpt lat="55.8118210" lon="49.1016060"><time>2021-08-14T07:36:07</time></trkpt><trkpt lat="55.8117930" lon="49.1016130"><time>2021-08-14T07:36:08</time></trkpt><trkpt lat="55.8117820" lon="49.1016130"><time>2021-08-14T07:36:09</time></trkpt><trkpt lat="55.8117630" lon="49.1016030"><time>2021-08-14T07:36:10</time></trkpt><trkpt lat="55.8117470" lon="49.1015980"><time>2021-08-14T07:36:11</time></trkpt><trkpt lat="55.8117200" lon="49.1015910"><time>2021-08-14T07:36:12</time></trkpt><trkpt lat="55.8117100" lon="49.1015840"><time>2021-08-14T07:36:13</time></trkpt><trkpt lat="55.8116940" lon="49.1015890"><time>2021-08-14T07:36:14</time></trkpt><trkpt lat="55.8116780" lon="49.1015970"><time>2021-08-14T07:36:15</time></trkpt><trkpt lat="55.8116620" lon="49.1015890"><time>2021-08-14T07:36:16</time></trkpt><trkpt lat="55.8116440" lon="49.1015850"><time>2021-08-14T07:36:17</time></trkpt><trkpt lat="55.8116280" lon="49.1015790"><time>2021-08-14T07:36:18</time></trkpt><trkpt lat="55.8116110" lon="49.1015760"><time>2021-08-14T07:36:19</time></trkpt><trkpt lat="55.8115980" lon="49.1015790"><time>2021-08-14T07:36:20</time></trkpt><trkpt lat="55.8115810" lon="49.1015750"><time>2021-08-14T07:36:21</time></trkpt><trkpt lat="55.8115630" lon="49.1015730"><time>2021-08-14T07:36:22</time></trkpt><trkpt lat="55.8115450" lon="49.1015770"><time>2021-08-14T07:36:23</time></trkpt><trkpt lat="55.8115170" lon="49.1015820"><time>2021-08-14T07:36:24</time></trkpt><trkpt lat="55.8115070" lon="49.1015810"><time>2021-08-14T07:36:25</time></trkpt><trkpt lat="55.8114890" lon="49.1015730"><time>2021-08-14T07:36:26</time></trkpt><trkpt lat="55.8114720" lon="49.1015800"><time>2021-08-14T07:36:27</time></trkpt><trkpt lat="55.8114440" lon="49.1015600"><time>2021-08-14T07:36:28</time></trkpt><trkpt lat="55.8114320" lon="49.1015470"><time>2021-08-14T07:36:29</time></trkpt><trkpt lat="55.8114040" lon="49.1015550"><time>2021-08-14T07:36:30</time></trkpt><trkpt lat="55.8113950" lon="49.1015580"><time>2021-08-14T07:36:31</time></trkpt><trkpt lat="55.8113800" lon="49.1015550"><time>2021-08-14T07:36:32</time></trkpt><trkpt lat="55.8113640" lon="49.1015530"><time>2021-08-14T07:36:33</time></trkpt><trkpt lat="55.8113470" lon="49.1015520"><time>2021-08-14T07:36:34</time></trkpt><trkpt lat="55.8113300" lon="49.1015540"><time>2021-08-14T07:36:35</time></trkpt><trkpt lat="55.8113150" lon="49.1015540"><time>2021-08-14T07:36:36</time></trkpt><trkpt lat="55.8112980" lon="49.1015530"><time>2021-08-14T07:36:37</time></trkpt><trkpt lat="55.8112790" lon="49.1015500"><time>2021-08-14T07:36:38</time></trkpt><trkpt lat="55.8112650" lon="49.1015510"><time>2021-08-14T07:36:39</time></trkpt><trkpt lat="55.8112460" lon="49.1015460"><time>2021-08-14T07:36:40</time></trkpt><trkpt lat="55.8112300" lon="49.1015420"><time>2021-08-14T07:36:41</time></trkpt><trkpt lat="55.8112130" lon="49.1015350"><time>2021-08-14T07:36:42</time></trkpt><trkpt lat="55.8111990" lon="49.1015380"><time>2021-08-14T07:36:43</time></trkpt><trkpt lat="55.8111780" lon="49.1015500"><time>2021-08-14T07:36:44</time></trkpt><trkpt lat="55.8111640" lon="49.1015400"><time>2021-08-14T07:36:45</time></trkpt><trkpt lat="55.8111540" lon="49.1015170"><time>2021-08-14T07:36:46</time></trkpt><trkpt lat="55.8111430" lon="49.1014900"><time>2021-08-14T07:36:47</time></trkpt><trkpt lat="55.8111340" lon="49.1014680"><time>2021-08-14T07:36:48</time></trkpt><trkpt lat="55.8111260" lon="49.1014410"><time>2021-08-14T07:36:49</time></trkpt><trkpt lat="55.8111080" lon="49.1014290"><time>2021-08-14T07:36:50</time></trkpt><trkpt lat="55.8111010" lon="49.1014070"><time>2021-08-14T07:36:51</time></trkpt><trkpt lat="55.8110930" lon="49.1013820"><time>2021-08-14T07:36:52</time></trkpt><trkpt lat="55.8110780" lon="49.1013570"><time>2021-08-14T07:36:53</time></trkpt><trkpt lat="55.8110710" lon="49.1013380"><time>2021-08-14T07:36:54</time></trkpt><trkpt lat="55.8110550" lon="49.1013230"><time>2021-08-14T07:36:55</time></trkpt><trkpt lat="55.8110440" lon="49.1013000"><time>2021-08-14T07:36:56</time></trkpt><trkpt lat="55.8110340" lon="49.1012760"><time>2021-08-14T07:36:57</time></trkpt><trkpt lat="55.8110230" lon="49.1012530"><time>2021-08-14T07:36:58</time></trkpt><trkpt lat="55.8110130" lon="49.1012330"><time>2021-08-14T07:36:59</time></trkpt><trkpt lat="55.8110000" lon="49.1012120"><time>2021-08-14T07:37:00</time></trkpt><trkpt lat="55.8109910" lon="49.1011830"><time>2021-08-14T07:37:01</time></trkpt><trkpt lat="55.8109750" lon="49.1011680"><time>2021-08-14T07:37:02</time></trkpt><trkpt lat="55.8109650" lon="49.1011410"><time>2021-08-14T07:37:03</time></trkpt><trkpt lat="55.8109380" lon="49.1011170"><time>2021-08-14T07:37:04</time></trkpt><trkpt lat="55.8109300" lon="49.1011070"><time>2021-08-14T07:37:05</time></trkpt><trkpt lat="55.8109160" lon="49.1010960"><time>2021-08-14T07:37:06</time></trkpt><trkpt lat="55.8108990" lon="49.1010800"><time>2021-08-14T07:37:07</time></trkpt><trkpt lat="55.8108760" lon="49.1010540"><time>2021-08-14T07:37:08</time></trkpt><trkpt lat="55.8108680" lon="49.1010440"><time>2021-08-14T07:37:09</time></trkpt><trkpt lat="55.8108440" lon="49.1010140"><time>2021-08-14T07:37:10</time></trkpt><trkpt lat="55.8108370" lon="49.1010020"><time>2021-08-14T07:37:11</time></trkpt><trkpt lat="55.8108240" lon="49.1009930"><time>2021-08-14T07:37:12</time></trkpt><trkpt lat="55.8108110" lon="49.1009760"><time>2021-08-14T07:37:13</time></trkpt><trkpt lat="55.8107890" lon="49.1009410"><time>2021-08-14T07:37:14</time></trkpt><trkpt lat="55.8107800" lon="49.1009310"><time>2021-08-14T07:37:15</time></trkpt><trkpt lat="55.8107660" lon="49.1008920"><time>2021-08-14T07:37:16</time></trkpt><trkpt lat="55.8107610" lon="49.1008770"><time>2021-08-14T07:37:17</time></trkpt><trkpt lat="55.8107390" lon="49.1008480"><time>2021-08-14T07:37:18</time></trkpt><trkpt lat="55.8107320" lon="49.1008350"><time>2021-08-14T07:37:19</time></trkpt><trkpt lat="55.8107050" lon="49.1008130"><time>2021-08-14T07:37:20</time></trkpt><trkpt lat="55.8106990" lon="49.1008010"><time>2021-08-14T07:37:21</time></trkpt><trkpt lat="55.8106850" lon="49.1007860"><time>2021-08-14T07:37:22</time></trkpt><trkpt lat="55.8106700" lon="49.1007640"><time>2021-08-14T07:37:23</time></trkpt><trkpt lat="55.8106370" lon="49.1007540"><time>2021-08-14T07:37:24</time></trkpt><trkpt lat="55.8106290" lon="49.1007450"><time>2021-08-14T07:37:25</time></trkpt><trkpt lat="55.8106060" lon="49.1007370"><time>2021-08-14T07:37:26</time></trkpt><trkpt lat="55.8106020" lon="49.1007140"><time>2021-08-14T07:37:27</time></trkpt><trkpt lat="55.8105920" lon="49.1006880"><time>2021-08-14T07:37:28</time></trkpt><trkpt lat="55.8105810" lon="49.1006750"><time>2021-08-14T07:37:29</time></trkpt><trkpt lat="55.8105640" lon="49.1006610"><time>2021-08-14T07:37:30</time></trkpt><trkpt lat="55.8105500" lon="49.1006440"><time>2021-08-14T07:37:31</time></trkpt><trkpt lat="55.8105350" lon="49.1006170"><time>2021-08-14T07:37:32</time></trkpt><trkpt lat="55.8105300" lon="49.1006030"><time>2021-08-14T07:37:33</time></trkpt><trkpt lat="55.8105240" lon="49.1005900"><time>2021-08-14T07:37:34</time></trkpt><trkpt lat="55.8105130" lon="49.1005710"><time>2021-08-14T07:37:35</time></trkpt><trkpt lat="55.8105050" lon="49.1005510"><time>2021-08-14T07:37:36</time></trkpt><trkpt lat="55.8104990" lon="49.1005270"><time>2021-08-14T07:37:37</time></trkpt><trkpt lat="55.8104910" lon="49.1005100"><time>2021-08-14T07:37:38</time></trkpt><trkpt lat="55.8104780" lon="49.1004940"><time>2021-08-14T07:37:39</time></trkpt><trkpt lat="55.8104680" lon="49.1004670"><time>2021-08-14T07:37:40</time></trkpt><trkpt lat="55.8104580" lon="49.1004500"><time>2021-08-14T07:37:41</time></trkpt><trkpt lat="55.8104430" lon="49.1004280"><time>2021-08-14T07:37:42</time></trkpt><trkpt lat="55.8104220" lon="49.1003880"><time>2021-08-14T07:37:43</time></trkpt><trkpt lat="55.8104150" lon="49.1003770"><time>2021-08-14T07:37:44</time></trkpt><trkpt lat="55.8103920" lon="49.1003520"><time>2021-08-14T07:37:45</time></trkpt><trkpt lat="55.8103860" lon="49.1003370"><time>2021-08-14T07:37:46</time></trkpt><trkpt lat="55.8103820" lon="49.1003040"><time>2021-08-14T07:37:47</time></trkpt><trkpt lat="55.8103700" lon="49.1002870"><time>2021-08-14T07:37:48</time></trkpt><trkpt lat="55.8103610" lon="49.1002730"><time>2021-08-14T07:37:49</time></trkpt><trkpt lat="55.8103420" lon="49.1002550"><time>2021-08-14T07:37:50</time></trkpt><trkpt lat="55.8103260" lon="49.1002390"><time>2021-08-14T07:37:51</time></trkpt><trkpt lat="55.8103140" lon="49.1002190"><time>2021-08-14T07:37:52</time></trkpt><trkpt lat="55.8103040" lon="49.1001990"><time>2021-08-14T07:37:53</time></trkpt><trkpt lat="55.8102980" lon="49.1001670"><time>2021-08-14T07:37:54</time></trkpt><trkpt lat="55.8102850" lon="49.1001400"><time>2021-08-14T07:37:55</time></trkpt><trkpt lat="55.8102750" lon="49.1001360"><time>2021-08-14T07:37:56</time></trkpt><trkpt lat="55.8102650" lon="49.1001160"><time>2021-08-14T07:37:57</time></trkpt><trkpt lat="55.8102510" lon="49.1000920"><time>2021-08-14T07:37:58</time></trkpt><trkpt lat="55.8102320" lon="49.1000570"><time>2021-08-14T07:37:59</time></trkpt><trkpt lat="55.8102270" lon="49.1000430"><time>2021-08-14T07:38:00</time></trkpt><trkpt lat="55.8102160" lon="49.1000300"><time>2021-08-14T07:38:01</time></trkpt><trkpt lat="55.8102050" lon="49.1000060"><time>2021-08-14T07:38:02</time></trkpt><trkpt lat="55.8101830" lon="49.0999690"><time>2021-08-14T07:38:03</time></trkpt><trkpt lat="55.8101760" lon="49.0999530"><time>2021-08-14T07:38:04</time></trkpt><trkpt lat="55.8101710" lon="49.0999200"><time>2021-08-14T07:38:05</time></trkpt><trkpt lat="55.8101560" lon="49.0999060"><time>2021-08-14T07:38:06</time></trkpt><trkpt lat="55.8101320" lon="49.0998740"><time>2021-08-14T07:38:07</time></trkpt><trkpt lat="55.8101270" lon="49.0998640"><time>2021-08-14T07:38:08</time></trkpt><trkpt lat="55.8100980" lon="49.0998440"><time>2021-08-14T07:38:09</time></trkpt><trkpt lat="55.8100930" lon="49.0998330"><time>2021-08-14T07:38:10</time></trkpt><trkpt lat="55.8100800" lon="49.0998180"><time>2021-08-14T07:38:11</time></trkpt><trkpt lat="55.8100680" lon="49.0997920"><time>2021-08-14T07:38:12</time></trkpt><trkpt lat="55.8100660" lon="49.0997630"><time>2021-08-14T07:38:13</time></trkpt><trkpt lat="55.8100570" lon="49.0997410"><time>2021-08-14T07:38:14</time></trkpt><trkpt lat="55.8100550" lon="49.0997270"><time>2021-08-14T07:38:15</time></trkpt><trkpt lat="55.8100490" lon="49.0997060"><time>2021-08-14T07:38:16</time></trkpt><trkpt lat="55.8100420" lon="49.0996860"><time>2021-08-14T07:38:17</time></trkpt><trkpt lat="55.8100380" lon="49.0996610"><time>2021-08-14T07:38:18</time></trkpt><trkpt lat="55.8100290" lon="49.0996340"><time>2021-08-14T07:38:19</time></trkpt><trkpt lat="55.8100250" lon="49.0996080"><time>2021-08-14T07:38:20</time></trkpt><trkpt lat="55.8100210" lon="49.0995790"><time>2021-08-14T07:38:21</time></trkpt><trkpt lat="55.8100050" lon="49.0995390"><time>2021-08-14T07:38:22</time></trkpt><trkpt lat="55.8099990" lon="49.0995250"><time>2021-08-14T07:38:23</time></trkpt><trkpt lat="55.8099910" lon="49.0994960"><time>2021-08-14T07:38:24</time></trkpt><trkpt lat="55.8099810" lon="49.0994710"><time>2021-08-14T07:38:25</time></trkpt><trkpt lat="55.8099740" lon="49.0994400"><time>2021-08-14T07:38:26</time></trkpt><trkpt lat="55.8099680" lon="49.0994220"><time>2021-08-14T07:38:27</time></trkpt><trkpt lat="55.8099600" lon="49.0994080"><time>2021-08-14T07:38:28</time></trkpt><trkpt lat="55.8099520" lon="49.0993820"><time>2021-08-14T07:38:29</time></trkpt><trkpt lat="55.8099370" lon="49.0993410"><time>2021-08-14T07:38:30</time></trkpt><trkpt lat="55.8099300" lon="49.0993290"><time>2021-08-14T07:38:31</time></trkpt><trkpt lat="55.8099220" lon="49.0993110"><time>2021-08-14T07:38:32</time></trkpt><trkpt lat="55.8099090" lon="49.0992800"><time>2021-08-14T07:38:33</time></trkpt><trkpt lat="55.8099010" lon="49.0992540"><time>2021-08-14T07:38:34</time></trkpt><trkpt lat="55.8098880" lon="49.0992330"><time>2021-08-14T07:38:35</time></trkpt><trkpt lat="55.8098750" lon="49.0991900"><time>2021-08-14T07:38:36</time></trkpt><trkpt lat="55.8098720" lon="49.0991720"><time>2021-08-14T07:38:37</time></trkpt><trkpt lat="55.8098690" lon="49.0991400"><time>2021-08-14T07:38:38</time></trkpt><trkpt lat="55.8098540" lon="49.0991200"><time>2021-08-14T07:38:39</time></trkpt><trkpt lat="55.8098450" lon="49.0991060"><time>2021-08-14T07:38:40</time></trkpt><trkpt lat="55.8098340" lon="49.0990860"><time>2021-08-14T07:38:41</time></trkpt><trkpt lat="55.8098230" lon="49.0990610"><time>2021-08-14T07:38:42</time></trkpt><trkpt lat="55.8098180" lon="49.0990350"><time>2021-08-14T07:38:43</time></trkpt><trkpt lat="55.8098210" lon="49.0989990"><time>2021-08-14T07:38:44</time></trkpt><trkpt lat="55.8098120" lon="49.0989730"><time>2021-08-14T07:38:45</time></trkpt><trkpt lat="55.8097990" lon="49.0989540"><time>2021-08-14T07:38:46</time></trkpt><trkpt lat="55.8097930" lon="49.0989340"><time>2021-08-14T07:38:47</time></trkpt><trkpt lat="55.8097880" lon="49.0989120"><time>2021-08-14T07:38:48</time></trkpt><trkpt lat="55.8097790" lon="49.0988890"><time>2021-08-14T07:38:49</time></trkpt><trkpt lat="55.8097740" lon="49.0988590"><time>2021-08-14T07:38:50</time></trkpt><trkpt lat="55.8097700" lon="49.0988280"><time>2021-08-14T07:38:51</time></trkpt><trkpt lat="55.8097550" lon="49.0987960"><time>2021-08-14T07:38:52</time></trkpt><trkpt lat="55.8097500" lon="49.0987810"><time>2021-08-14T07:38:53</time></trkpt><trkpt lat="55.8097440" lon="49.0987670"><time>2021-08-14T07:38:54</time></trkpt><trkpt lat="55.8097370" lon="49.0987400"><time>2021-08-14T07:38:55</time></trkpt><trkpt lat="55.8097330" lon="49.0987200"><time>2021-08-14T07:38:56</time></trkpt><trkpt lat="55.8097220" lon="49.0986950"><time>2021-08-14T07:38:57</time></trkpt><trkpt lat="55.8097140" lon="49.0986680"><time>2021-08-14T07:38:58</time></trkpt><trkpt lat="55.8097110" lon="49.0986390"><time>2021-08-14T07:38:59</time></trkpt><trkpt lat="55.8097020" lon="49.0986150"><time>2021-08-14T07:39:00</time></trkpt><trkpt lat="55.8096960" lon="49.0985850"><time>2021-08-14T07:39:01</time></trkpt><trkpt lat="55.8096830" lon="49.0985600"><time>2021-08-14T07:39:02</time></trkpt><trkpt lat="55.8096730" lon="49.0985400"><time>2021-08-14T07:39:03</time></trkpt><trkpt lat="55.8096710" lon="49.0985080"><time>2021-08-14T07:39:04</time></trkpt><trkpt lat="55.8096630" lon="49.0984840"><time>2021-08-14T07:39:05</time></trkpt><trkpt lat="55.8096600" lon="49.0984610"><time>2021-08-14T07:39:06</time></trkpt><trkpt lat="55.8096580" lon="49.0984090"><time>2021-08-14T07:39:07</time></trkpt><trkpt lat="55.8096490" lon="49.0983890"><time>2021-08-14T07:39:08</time></trkpt><trkpt lat="55.8096200" lon="49.0983460"><time>2021-08-14T07:39:09</time></trkpt><trkpt lat="55.8096150" lon="49.0983310"><time>2021-08-14T07:39:10</time></trkpt><trkpt lat="55.8096150" lon="49.0983200"><time>2021-08-14T07:39:11</time></trkpt><trkpt lat="55.8096170" lon="49.0982950"><time>2021-08-14T07:39:12</time></trkpt><trkpt lat="55.8096110" lon="49.0982410"><time>2021-08-14T07:39:13</time></trkpt><trkpt lat="55.8096130" lon="49.0982270"><time>2021-08-14T07:39:14</time></trkpt><trkpt lat="55.8096160" lon="49.0981650"><time>2021-08-14T07:39:15</time></trkpt><trkpt lat="55.8096160" lon="49.0981440"><time>2021-08-14T07:39:16</time></trkpt><trkpt lat="55.8096210" lon="49.0980910"><time>2021-08-14T07:39:17</time></trkpt><trkpt lat="55.8096220" lon="49.0980770"><time>2021-08-14T07:39:18</time></trkpt><trkpt lat="55.8096220" lon="49.0980500"><time>2021-08-14T07:39:19</time></trkpt><trkpt lat="55.8096260" lon="49.0980230"><time>2021-08-14T07:39:20</time></trkpt><trkpt lat="55.8096370" lon="49.0979960"><time>2021-08-14T07:39:21</time></trkpt><trkpt lat="55.8096420" lon="49.0979700"><time>2021-08-14T07:39:22</time></trkpt><trkpt lat="55.8096440" lon="49.0979470"><time>2021-08-14T07:39:23</time></trkpt><trkpt lat="55.8096450" lon="49.0979190"><time>2021-08-14T07:39:24</time></trkpt><trkpt lat="55.8096550" lon="49.0979000"><time>2021-08-14T07:39:25</time></trkpt><trkpt lat="55.8096640" lon="49.0978740"><time>2021-08-14T07:39:26</time></trkpt><trkpt lat="55.8096720" lon="49.0978370"><time>2021-08-14T07:39:27</time></trkpt><trkpt lat="55.8096730" lon="49.0978210"><time>2021-08-14T07:39:28</time></trkpt><trkpt lat="55.8096750" lon="49.0978040"><time>2021-08-14T07:39:29</time></trkpt><trkpt lat="55.8096850" lon="49.0977840"><time>2021-08-14T07:39:30</time></trkpt><trkpt lat="55.8096870" lon="49.0977590"><time>2021-08-14T07:39:31</time></trkpt><trkpt lat="55.8096890" lon="49.0977300"><time>2021-08-14T07:39:32</time></trkpt><trkpt lat="55.8096880" lon="49.0977110"><time>2021-08-14T07:39:33</time></trkpt><trkpt lat="55.8096880" lon="49.0977140"><time>2021-08-14T07:39:34</time></trkpt><trkpt lat="55.8096870" lon="49.0977240"><time>2021-08-14T07:39:35</time></trkpt><trkpt lat="55.8096860" lon="49.0977200"><time>2021-08-14T07:39:36</time></trkpt><trkpt lat="55.8096810" lon="49.0977130"><time>2021-08-14T07:39:37</time></trkpt><trkpt lat="55.8096830" lon="49.0977100"><time>2021-08-14T07:39:38</time></trkpt><trkpt lat="55.8096800" lon="49.0977070"><time>2021-08-14T07:39:39</time></trkpt><trkpt lat="55.8096800" lon="49.0977070"><time>2021-08-14T07:39:40</time></trkpt><trkpt lat="55.8096770" lon="49.0976950"><time>2021-08-14T07:39:41</time></trkpt><trkpt lat="55.8096740" lon="49.0976940"><time>2021-08-14T07:39:42</time></trkpt><trkpt lat="55.8096720" lon="49.0976870"><time>2021-08-14T07:39:43</time></trkpt><trkpt lat="55.8096680" lon="49.0976850"><time>2021-08-14T07:39:44</time></trkpt><trkpt lat="55.8096680" lon="49.0976820"><time>2021-08-14T07:39:45</time></trkpt><trkpt lat="55.8096660" lon="49.0976820"><time>2021-08-14T07:39:46</time></trkpt><trkpt lat="55.8096680" lon="49.0976790"><time>2021-08-14T07:39:47</time></trkpt><trkpt lat="55.8096670" lon="49.0976790"><time>2021-08-14T07:39:48</time></trkpt><trkpt lat="55.8096680" lon="49.0976800"><time>2021-08-14T07:39:49</time></trkpt><trkpt lat="55.8096690" lon="49.0976850"><time>2021-08-14T07:39:50</time></trkpt><trkpt lat="55.8096670" lon="49.0976830"><time>2021-08-14T07:39:51</time></trkpt><trkpt lat="55.8096650" lon="49.0976870"><time>2021-08-14T07:39:52</time></trkpt><trkpt lat="55.8096700" lon="49.0976910"><time>2021-08-14T07:39:53</time></trkpt><trkpt lat="55.8096740" lon="49.0976750"><time>2021-08-14T07:39:54</time></trkpt><trkpt lat="55.8096880" lon="49.0976610"><time>2021-08-14T07:39:55</time></trkpt><trkpt lat="55.8096940" lon="49.0976530"><time>2021-08-14T07:39:56</time></trkpt><trkpt lat="55.8096880" lon="49.0976670"><time>2021-08-14T07:39:57</time></trkpt><trkpt lat="55.8096940" lon="49.0976710"><time>2021-08-14T07:39:58</time></trkpt><trkpt lat="55.8096920" lon="49.0976680"><time>2021-08-14T07:39:59</time></trkpt><trkpt lat="55.8097040" lon="49.0976700"><time>2021-08-14T07:40:00</time></trkpt><trkpt lat="55.8097170" lon="49.0976550"><time>2021-08-14T07:40:01</time></trkpt><trkpt lat="55.8097410" lon="49.0976140"><time>2021-08-14T07:40:02</time></trkpt><trkpt lat="55.8097530" lon="49.0976030"><time>2021-08-14T07:40:03</time></trkpt><trkpt lat="55.8097590" lon="49.0976010"><time>2021-08-14T07:40:04</time></trkpt><trkpt lat="55.8097770" lon="49.0975640"><time>2021-08-14T07:40:05</time></trkpt><trkpt lat="55.8097930" lon="49.0975360"><time>2021-08-14T07:40:06</time></trkpt><trkpt lat="55.8097940" lon="49.0975200"><time>2021-08-14T07:40:07</time></trkpt><trkpt lat="55.8098160" lon="49.0974870"><time>2021-08-14T07:40:08</time></trkpt><trkpt lat="55.8098250" lon="49.0974750"><time>2021-08-14T07:40:09</time></trkpt><trkpt lat="55.8098440" lon="49.0974510"><time>2021-08-14T07:40:10</time></trkpt><trkpt lat="55.8098530" lon="49.0974420"><time>2021-08-14T07:40:11</time></trkpt><trkpt lat="55.8098630" lon="49.0974330"><time>2021-08-14T07:40:12</time></trkpt><trkpt lat="55.8098850" lon="49.0974030"><time>2021-08-14T07:40:13</time></trkpt><trkpt lat="55.8098930" lon="49.0973930"><time>2021-08-14T07:40:14</time></trkpt><trkpt lat="55.8099020" lon="49.0973820"><time>2021-08-14T07:40:15</time></trkpt><trkpt lat="55.8099130" lon="49.0973320"><time>2021-08-14T07:40:16</time></trkpt><trkpt lat="55.8099140" lon="49.0973110"><time>2021-08-14T07:40:17</time></trkpt><trkpt lat="55.8098890" lon="49.0972710"><time>2021-08-14T07:40:18</time></trkpt><trkpt lat="55.8098770" lon="49.0972650"><time>2021-08-14T07:40:19</time></trkpt><trkpt lat="55.8098570" lon="49.0972330"><time>2021-08-14T07:40:20</time></trkpt><trkpt lat="55.8098480" lon="49.0972060"><time>2021-08-14T07:40:21</time></trkpt><trkpt lat="55.8098340" lon="49.0971860"><time>2021-08-14T07:40:22</time></trkpt><trkpt lat="55.8098230" lon="49.0971610"><time>2021-08-14T07:40:23</time></trkpt><trkpt lat="55.8098120" lon="49.0971360"><time>2021-08-14T07:40:24</time></trkpt><trkpt lat="55.8098010" lon="49.0970890"><time>2021-08-14T07:40:25</time></trkpt><trkpt lat="55.8097970" lon="49.0970720"><time>2021-08-14T07:40:26</time></trkpt><trkpt lat="55.8097820" lon="49.0970550"><time>2021-08-14T07:40:27</time></trkpt><trkpt lat="55.8097780" lon="49.0970370"><time>2021-08-14T07:40:28</time></trkpt><trkpt lat="55.8097650" lon="49.0970240"><time>2021-08-14T07:40:29</time></trkpt><trkpt lat="55.8097550" lon="49.0969990"><time>2021-08-14T07:40:30</time></trkpt><trkpt lat="55.8097460" lon="49.0969740"><time>2021-08-14T07:40:31</time></trkpt><trkpt lat="55.8097410" lon="49.0969450"><time>2021-08-14T07:40:32</time></trkpt><trkpt lat="55.8097280" lon="49.0969260"><time>2021-08-14T07:40:33</time></trkpt><trkpt lat="55.8097150" lon="49.0969100"><time>2021-08-14T07:40:34</time></trkpt><trkpt lat="55.8097040" lon="49.0968640"><time>2021-08-14T07:40:35</time></trkpt><trkpt lat="55.8096940" lon="49.0968540"><time>2021-08-14T07:40:36</time></trkpt><trkpt lat="55.8096830" lon="49.0968360"><time>2021-08-14T07:40:37</time></trkpt><trkpt lat="55.8096660" lon="49.0968220"><time>2021-08-14T07:40:38</time></trkpt><trkpt lat="55.8096580" lon="49.0968000"><time>2021-08-14T07:40:39</time></trkpt><trkpt lat="55.8096440" lon="49.0967790"><time>2021-08-14T07:40:40</time></trkpt><trkpt lat="55.8096310" lon="49.0967620"><time>2021-08-14T07:40:41</time></trkpt><trkpt lat="55.8096210" lon="49.0967390"><time>2021-08-14T07:40:42</time></trkpt><trkpt lat="55.8096070" lon="49.0967230"><time>2021-08-14T07:40:43</time></trkpt><trkpt lat="55.8095890" lon="49.0967170"><time>2021-08-14T07:40:44</time></trkpt><trkpt lat="55.8095730" lon="49.0967030"><time>2021-08-14T07:40:45</time></trkpt><trkpt lat="55.8095680" lon="49.0966800"><time>2021-08-14T07:40:46</time></trkpt><trkpt lat="55.8095450" lon="49.0966520"><time>2021-08-14T07:40:47</time></trkpt><trkpt lat="55.8095280" lon="49.0966420"><time>2021-08-14T07:40:48</time></trkpt><trkpt lat="55.8095190" lon="49.0966220"><time>2021-08-14T07:40:49</time></trkpt><trkpt lat="55.8095060" lon="49.0966060"><time>2021-08-14T07:40:50</time></trkpt><trkpt lat="55.8094910" lon="49.0965940"><time>2021-08-14T07:40:51</time></trkpt><trkpt lat="55.8094650" lon="49.0965700"><time>2021-08-14T07:40:52</time></trkpt><trkpt lat="55.8094540" lon="49.0965620"><time>2021-08-14T07:40:53</time></trkpt><trkpt lat="55.8094380" lon="49.0965510"><time>2021-08-14T07:40:54</time></trkpt><trkpt lat="55.8094240" lon="49.0965370"><time>2021-08-14T07:40:55</time></trkpt><trkpt lat="55.8094070" lon="49.0965170"><time>2021-08-14T07:40:56</time></trkpt><trkpt lat="55.8093960" lon="49.0964980"><time>2021-08-14T07:40:57</time></trkpt><trkpt lat="55.8093750" lon="49.0964870"><time>2021-08-14T07:40:58</time></trkpt><trkpt lat="55.8093670" lon="49.0964610"><time>2021-08-14T07:40:59</time></trkpt><trkpt lat="55.8093430" lon="49.0964350"><time>2021-08-14T07:41:00</time></trkpt><trkpt lat="55.8093340" lon="49.0964300"><time>2021-08-14T07:41:01</time></trkpt><trkpt lat="55.8093210" lon="49.0964080"><time>2021-08-14T07:41:02</time></trkpt><trkpt lat="55.8093110" lon="49.0963890"><time>2021-08-14T07:41:03</time></trkpt><trkpt lat="55.8092960" lon="49.0963790"><time>2021-08-14T07:41:04</time></trkpt><trkpt lat="55.8092820" lon="49.0963630"><time>2021-08-14T07:41:05</time></trkpt><trkpt lat="55.8092720" lon="49.0963430"><time>2021-08-14T07:41:06</time></trkpt><trkpt lat="55.8092590" lon="49.0963280"><time>2021-08-14T07:41:07</time></trkpt><trkpt lat="55.8092480" lon="49.0963070"><time>2021-08-14T07:41:08</time></trkpt><trkpt lat="55.8092340" lon="49.0962900"><time>2021-08-14T07:41:09</time></trkpt><trkpt lat="55.8092210" lon="49.0962740"><time>2021-08-14T07:41:10</time></trkpt><trkpt lat="55.8092090" lon="49.0962610"><time>2021-08-14T07:41:11</time></trkpt><trkpt lat="55.8091950" lon="49.0962470"><time>2021-08-14T07:41:12</time></trkpt><trkpt lat="55.8091820" lon="49.0962210"><time>2021-08-14T07:41:13</time></trkpt><trkpt lat="55.8091760" lon="49.0961960"><time>2021-08-14T07:41:14</time></trkpt><trkpt lat="55.8091720" lon="49.0961700"><time>2021-08-14T07:41:15</time></trkpt><trkpt lat="55.8091680" lon="49.0961410"><time>2021-08-14T07:41:16</time></trkpt><trkpt lat="55.8091660" lon="49.0961170"><time>2021-08-14T07:41:17</time></trkpt><trkpt lat="55.8091550" lon="49.0960710"><time>2021-08-14T07:41:18</time></trkpt><trkpt lat="55.8091520" lon="49.0960560"><time>2021-08-14T07:41:19</time></trkpt><trkpt lat="55.8091490" lon="49.0960260"><time>2021-08-14T07:41:20</time></trkpt><trkpt lat="55.8091550" lon="49.0959970"><time>2021-08-14T07:41:21</time></trkpt><trkpt lat="55.8091670" lon="49.0959730"><time>2021-08-14T07:41:22</time></trkpt><trkpt lat="55.8091780" lon="49.0959570"><time>2021-08-14T07:41:23</time></trkpt><trkpt lat="55.8091920" lon="49.0959390"><time>2021-08-14T07:41:24</time></trkpt><trkpt lat="55.8091990" lon="49.0959180"><time>2021-08-14T07:41:25</time></trkpt><trkpt lat="55.8092100" lon="49.0958930"><time>2021-08-14T07:41:26</time></trkpt><trkpt lat="55.8092180" lon="49.0958690"><time>2021-08-14T07:41:27</time></trkpt><trkpt lat="55.8092280" lon="49.0958470"><time>2021-08-14T07:41:28</time></trkpt><trkpt lat="55.8092350" lon="49.0958220"><time>2021-08-14T07:41:29</time></trkpt><trkpt lat="55.8092390" lon="49.0957930"><time>2021-08-14T07:41:30</time></trkpt><trkpt lat="55.8092540" lon="49.0957720"><time>2021-08-14T07:41:31</time></trkpt><trkpt lat="55.8092630" lon="49.0957490"><time>2021-08-14T07:41:32</time></trkpt><trkpt lat="55.8092760" lon="49.0957250"><time>2021-08-14T07:41:33</time></trkpt><trkpt lat="55.8092810" lon="49.0957010"><time>2021-08-14T07:41:34</time></trkpt><trkpt lat="55.8092910" lon="49.0956760"><time>2021-08-14T07:41:35</time></trkpt><trkpt lat="55.8093000" lon="49.0956560"><time>2021-08-14T07:41:36</time></trkpt><trkpt lat="55.8093080" lon="49.0956340"><time>2021-08-14T07:41:37</time></trkpt><trkpt lat="55.8093210" lon="49.0956130"><time>2021-08-14T07:41:38</time></trkpt><trkpt lat="55.8093320" lon="49.0955930"><time>2021-08-14T07:41:39</time></trkpt><trkpt lat="55.8093370" lon="49.0955740"><time>2021-08-14T07:41:40</time></trkpt><trkpt lat="55.8093440" lon="49.0955500"><time>2021-08-14T07:41:41</time></trkpt><trkpt lat="55.8093510" lon="49.0955200"><time>2021-08-14T07:41:42</time></trkpt><trkpt lat="55.8093570" lon="49.0955010"><time>2021-08-14T07:41:43</time></trkpt><trkpt lat="55.8093640" lon="49.0954800"><time>2021-08-14T07:41:44</time></trkpt><trkpt lat="55.8093810" lon="49.0954720"><time>2021-08-14T07:41:45</time></trkpt><trkpt lat="55.8093890" lon="49.0954430"><time>2021-08-14T07:41:46</time></trkpt><trkpt lat="55.8093980" lon="49.0954230"><time>2021-08-14T07:41:47</time></trkpt><trkpt lat="55.8094050" lon="49.0953970"><time>2021-08-14T07:41:48</time></trkpt><trkpt lat="55.8094110" lon="49.0953690"><time>2021-08-14T07:41:49</time></trkpt><trkpt lat="55.8094200" lon="49.0953430"><time>2021-08-14T07:41:50</time></trkpt><trkpt lat="55.8094300" lon="49.0953140"><time>2021-08-14T07:41:51</time></trkpt><trkpt lat="55.8094390" lon="49.0952940"><time>2021-08-14T07:41:52</time></trkpt><trkpt lat="55.8094480" lon="49.0952700"><time>2021-08-14T07:41:53</time></trkpt><trkpt lat="55.8094590" lon="49.0952480"><time>2021-08-14T07:41:54</time></trkpt><trkpt lat="55.8094670" lon="49.0952230"><time>2021-08-14T07:41:55</time></trkpt><trkpt lat="55.8094720" lon="49.0951970"><time>2021-08-14T07:41:56</time></trkpt><trkpt lat="55.8094750" lon="49.0951710"><time>2021-08-14T07:41:57</time></trkpt><trkpt lat="55.8094760" lon="49.0951450"><time>2021-08-14T07:41:58</time></trkpt><trkpt lat="55.8094830" lon="49.0951230"><time>2021-08-14T07:41:59</time></trkpt><trkpt lat="55.8094830" lon="49.0950910"><time>2021-08-14T07:42:00</time></trkpt><trkpt lat="55.8094860" lon="49.0950750"><time>2021-08-14T07:42:01</time></trkpt><trkpt lat="55.8094890" lon="49.0950580"><time>2021-08-14T07:42:02</time></trkpt><trkpt lat="55.8094970" lon="49.0950360"><time>2021-08-14T07:42:03</time></trkpt><trkpt lat="55.8095070" lon="49.0950130"><time>2021-08-14T07:42:04</time></trkpt><trkpt lat="55.8095180" lon="49.0949950"><time>2021-08-14T07:42:05</time></trkpt><trkpt lat="55.8095220" lon="49.0949680"><time>2021-08-14T07:42:06</time></trkpt><trkpt lat="55.8095260" lon="49.0949360"><time>2021-08-14T07:42:07</time></trkpt><trkpt lat="55.8095280" lon="49.0949060"><time>2021-08-14T07:42:08</time></trkpt><trkpt lat="55.8095370" lon="49.0948810"><time>2021-08-14T07:42:09</time></trkpt><trkpt lat="55.8095450" lon="49.0948530"><time>2021-08-14T07:42:10</time></trkpt><trkpt lat="55.8095500" lon="49.0948300"><time>2021-08-14T07:42:11</time></trkpt><trkpt lat="55.8095560" lon="49.0948090"><time>2021-08-14T07:42:12</time></trkpt><trkpt lat="55.8095570" lon="49.0947770"><time>2021-08-14T07:42:13</time></trkpt><trkpt lat="55.8095660" lon="49.0947520"><time>2021-08-14T07:42:14</time></trkpt><trkpt lat="55.8095690" lon="49.0947240"><time>2021-08-14T07:42:15</time></trkpt><trkpt lat="55.8095700" lon="49.0946880"><time>2021-08-14T07:42:16</time></trkpt><trkpt lat="55.8095740" lon="49.0946590"><time>2021-08-14T07:42:18</time></trkpt><trkpt lat="55.8095770" lon="49.0946340"><time>2021-08-14T07:42:19</time></trkpt><trkpt lat="55.8095830" lon="49.0946040"><time>2021-08-14T07:42:20</time></trkpt><trkpt lat="55.8095880" lon="49.0945810"><time>2021-08-14T07:42:21</time></trkpt><trkpt lat="55.8095940" lon="49.0945570"><time>2021-08-14T07:42:22</time></trkpt><trkpt lat="55.8096060" lon="49.0945410"><time>2021-08-14T07:42:23</time></trkpt><trkpt lat="55.8096080" lon="49.0945150"><time>2021-08-14T07:42:24</time></trkpt><trkpt lat="55.8096080" lon="49.0944870"><time>2021-08-14T07:42:25</time></trkpt><trkpt lat="55.8095990" lon="49.0944610"><time>2021-08-14T07:42:26</time></trkpt><trkpt lat="55.8095860" lon="49.0944380"><time>2021-08-14T07:42:27</time></trkpt><trkpt lat="55.8095700" lon="49.0944190"><time>2021-08-14T07:42:28</time></trkpt><trkpt lat="55.8095560" lon="49.0944060"><time>2021-08-14T07:42:29</time></trkpt><trkpt lat="55.8095260" lon="49.0943880"><time>2021-08-14T07:42:30</time></trkpt><trkpt lat="55.8095180" lon="49.0943800"><time>2021-08-14T07:42:31</time></trkpt><trkpt lat="55.8095040" lon="49.0943600"><time>2021-08-14T07:42:32</time></trkpt><trkpt lat="55.8094870" lon="49.0943460"><time>2021-08-14T07:42:33</time></trkpt><trkpt lat="55.8094730" lon="49.0943280"><time>2021-08-14T07:42:34</time></trkpt><trkpt lat="55.8094600" lon="49.0943060"><time>2021-08-14T07:42:35</time></trkpt><trkpt lat="55.8094290" lon="49.0943050"><time>2021-08-14T07:42:36</time></trkpt><trkpt lat="55.8094180" lon="49.0943050"><time>2021-08-14T07:42:37</time></trkpt><trkpt lat="55.8094030" lon="49.0942880"><time>2021-08-14T07:42:38</time></trkpt><trkpt lat="55.8093850" lon="49.0942810"><time>2021-08-14T07:42:39</time></trkpt><trkpt lat="55.8093590" lon="49.0942650"><time>2021-08-14T07:42:40</time></trkpt><trkpt lat="55.8093490" lon="49.0942580"><time>2021-08-14T07:42:41</time></trkpt><trkpt lat="55.8093240" lon="49.0942410"><time>2021-08-14T07:42:42</time></trkpt><trkpt lat="55.8093150" lon="49.0942360"><time>2021-08-14T07:42:43</time></trkpt><trkpt lat="55.8093000" lon="49.0942240"><time>2021-08-14T07:42:44</time></trkpt><trkpt lat="55.8092850" lon="49.0942110"><time>2021-08-14T07:42:45</time></trkpt><trkpt lat="55.8092740" lon="49.0941940"><time>2021-08-14T07:42:46</time></trkpt><trkpt lat="55.8092600" lon="49.0941800"><time>2021-08-14T07:42:47</time></trkpt><trkpt lat="55.8092460" lon="49.0941660"><time>2021-08-14T07:42:48</time></trkpt><trkpt lat="55.8092320" lon="49.0941510"><time>2021-08-14T07:42:49</time></trkpt><trkpt lat="55.8092230" lon="49.0941330"><time>2021-08-14T07:42:50</time></trkpt><trkpt lat="55.8092130" lon="49.0941110"><time>2021-08-14T07:42:51</time></trkpt><trkpt lat="55.8092070" lon="49.0940930"><time>2021-08-14T07:42:52</time></trkpt><trkpt lat="55.8092010" lon="49.0940650"><time>2021-08-14T07:42:53</time></trkpt><trkpt lat="55.8091880" lon="49.0940470"><time>2021-08-14T07:42:54</time></trkpt><trkpt lat="55.8091730" lon="49.0940300"><time>2021-08-14T07:42:55</time></trkpt><trkpt lat="55.8091630" lon="49.0940080"><time>2021-08-14T07:42:56</time></trkpt><trkpt lat="55.8091450" lon="49.0939960"><time>2021-08-14T07:42:57</time></trkpt><trkpt lat="55.8091360" lon="49.0939790"><time>2021-08-14T07:42:58</time></trkpt><trkpt lat="55.8091270" lon="49.0939600"><time>2021-08-14T07:42:59</time></trkpt><trkpt lat="55.8091170" lon="49.0939400"><time>2021-08-14T07:43:00</time></trkpt><trkpt lat="55.8091050" lon="49.0939240"><time>2021-08-14T07:43:01</time></trkpt><trkpt lat="55.8090940" lon="49.0938980"><time>2021-08-14T07:43:02</time></trkpt><trkpt lat="55.8090760" lon="49.0938870"><time>2021-08-14T07:43:03</time></trkpt><trkpt lat="55.8090620" lon="49.0938740"><time>2021-08-14T07:43:04</time></trkpt><trkpt lat="55.8090450" lon="49.0938670"><time>2021-08-14T07:43:05</time></trkpt><trkpt lat="55.8090270" lon="49.0938580"><time>2021-08-14T07:43:06</time></trkpt><trkpt lat="55.8090130" lon="49.0938470"><time>2021-08-14T07:43:07</time></trkpt><trkpt lat="55.8089970" lon="49.0938350"><time>2021-08-14T07:43:08</time></trkpt><trkpt lat="55.8089820" lon="49.0938200"><time>2021-08-14T07:43:09</time></trkpt><trkpt lat="55.8089670" lon="49.0938050"><time>2021-08-14T07:43:10</time></trkpt><trkpt lat="55.8089500" lon="49.0937900"><time>2021-08-14T07:43:11</time></trkpt><trkpt lat="55.8089370" lon="49.0937760"><time>2021-08-14T07:43:12</time></trkpt><trkpt lat="55.8089210" lon="49.0937630"><time>2021-08-14T07:43:13</time></trkpt><trkpt lat="55.8089070" lon="49.0937470"><time>2021-08-14T07:43:14</time></trkpt><trkpt lat="55.8088940" lon="49.0937220"><time>2021-08-14T07:43:15</time></trkpt><trkpt lat="55.8088670" lon="49.0937090"><time>2021-08-14T07:43:16</time></trkpt><trkpt lat="55.8088590" lon="49.0937020"><time>2021-08-14T07:43:17</time></trkpt><trkpt lat="55.8088460" lon="49.0936880"><time>2021-08-14T07:43:18</time></trkpt><trkpt lat="55.8088280" lon="49.0936800"><time>2021-08-14T07:43:19</time></trkpt><trkpt lat="55.8088150" lon="49.0936620"><time>2021-08-14T07:43:20</time></trkpt><trkpt lat="55.8088020" lon="49.0936450"><time>2021-08-14T07:43:21</time></trkpt><trkpt lat="55.8087880" lon="49.0936310"><time>2021-08-14T07:43:22</time></trkpt><trkpt lat="55.8087750" lon="49.0936210"><time>2021-08-14T07:43:23</time></trkpt><trkpt lat="55.8087670" lon="49.0935950"><time>2021-08-14T07:43:24</time></trkpt><trkpt lat="55.8087550" lon="49.0935810"><time>2021-08-14T07:43:25</time></trkpt><trkpt lat="55.8087430" lon="49.0935630"><time>2021-08-14T07:43:26</time></trkpt><trkpt lat="55.8087320" lon="49.0935400"><time>2021-08-14T07:43:27</time></trkpt><trkpt lat="55.8087180" lon="49.0935240"><time>2021-08-14T07:43:28</time></trkpt><trkpt lat="55.8087030" lon="49.0935100"><time>2021-08-14T07:43:29</time></trkpt><trkpt lat="55.8086900" lon="49.0934920"><time>2021-08-14T07:43:30</time></trkpt><trkpt lat="55.8086810" lon="49.0934750"><time>2021-08-14T07:43:31</time></trkpt><trkpt lat="55.8086720" lon="49.0934450"><time>2021-08-14T07:43:32</time></trkpt><trkpt lat="55.8086570" lon="49.0934290"><time>2021-08-14T07:43:33</time></trkpt><trkpt lat="55.8086430" lon="49.0934150"><time>2021-08-14T07:43:34</time></trkpt><trkpt lat="55.8086290" lon="49.0933990"><time>2021-08-14T07:43:35</time></trkpt><trkpt lat="55.8086150" lon="49.0933840"><time>2021-08-14T07:43:36</time></trkpt><trkpt lat="55.8086030" lon="49.0933640"><time>2021-08-14T07:43:37</time></trkpt><trkpt lat="55.8085870" lon="49.0933550"><time>2021-08-14T07:43:38</time></trkpt><trkpt lat="55.8085730" lon="49.0933430"><time>2021-08-14T07:43:39</time></trkpt><trkpt lat="55.8085590" lon="49.0933300"><time>2021-08-14T07:43:40</time></trkpt><trkpt lat="55.8085470" lon="49.0933100"><time>2021-08-14T07:43:41</time></trkpt><trkpt lat="55.8085350" lon="49.0932920"><time>2021-08-14T07:43:42</time></trkpt><trkpt lat="55.8085150" lon="49.0932910"><time>2021-08-14T07:43:43</time></trkpt><trkpt lat="55.8085050" lon="49.0932720"><time>2021-08-14T07:43:44</time></trkpt><trkpt lat="55.8084900" lon="49.0932570"><time>2021-08-14T07:43:45</time></trkpt><trkpt lat="55.8084760" lon="49.0932440"><time>2021-08-14T07:43:46</time></trkpt><trkpt lat="55.8084640" lon="49.0932230"><time>2021-08-14T07:43:47</time></trkpt><trkpt lat="55.8084490" lon="49.0932050"><time>2021-08-14T07:43:48</time></trkpt><trkpt lat="55.8084370" lon="49.0931880"><time>2021-08-14T07:43:49</time></trkpt><trkpt lat="55.8084230" lon="49.0931720"><time>2021-08-14T07:43:50</time></trkpt><trkpt lat="55.8084100" lon="49.0931530"><time>2021-08-14T07:43:51</time></trkpt><trkpt lat="55.8083940" lon="49.0931340"><time>2021-08-14T07:43:52</time></trkpt><trkpt lat="55.8083790" lon="49.0931190"><time>2021-08-14T07:43:53</time></trkpt><trkpt lat="55.8083630" lon="49.0931000"><time>2021-08-14T07:43:54</time></trkpt><trkpt lat="55.8083500" lon="49.0930830"><time>2021-08-14T07:43:55</time></trkpt><trkpt lat="55.8083350" lon="49.0930620"><time>2021-08-14T07:43:56</time></trkpt><trkpt lat="55.8083220" lon="49.0930420"><time>2021-08-14T07:43:57</time></trkpt><trkpt lat="55.8083050" lon="49.0930270"><time>2021-08-14T07:43:58</time></trkpt><trkpt lat="55.8082910" lon="49.0930140"><time>2021-08-14T07:43:59</time></trkpt><trkpt lat="55.8082800" lon="49.0929930"><time>2021-08-14T07:44:00</time></trkpt><trkpt lat="55.8082640" lon="49.0929760"><time>2021-08-14T07:44:01</time></trkpt><trkpt lat="55.8082510" lon="49.0929610"><time>2021-08-14T07:44:02</time></trkpt><trkpt lat="55.8082350" lon="49.0929470"><time>2021-08-14T07:44:03</time></trkpt><trkpt lat="55.8082200" lon="49.0929370"><time>2021-08-14T07:44:04</time></trkpt><trkpt lat="55.8082040" lon="49.0929220"><time>2021-08-14T07:44:05</time></trkpt><trkpt lat="55.8081910" lon="49.0929030"><time>2021-08-14T07:44:06</time></trkpt><trkpt lat="55.8081780" lon="49.0928850"><time>2021-08-14T07:44:07</time></trkpt><trkpt lat="55.8081580" lon="49.0928780"><time>2021-08-14T07:44:08</time></trkpt><trkpt lat="55.8081460" lon="49.0928610"><time>2021-08-14T07:44:09</time></trkpt><trkpt lat="55.8081300" lon="49.0928520"><time>2021-08-14T07:44:10</time></trkpt><trkpt lat="55.8081150" lon="49.0928320"><time>2021-08-14T07:44:11</time></trkpt><trkpt lat="55.8081050" lon="49.0928070"><time>2021-08-14T07:44:12</time></trkpt><trkpt lat="55.8080930" lon="49.0927860"><time>2021-08-14T07:44:13</time></trkpt><trkpt lat="55.8080740" lon="49.0927510"><time>2021-08-14T07:44:14</time></trkpt><trkpt lat="55.8080650" lon="49.0927410"><time>2021-08-14T07:44:15</time></trkpt><trkpt lat="55.8080410" lon="49.0927150"><time>2021-08-14T07:44:16</time></trkpt><trkpt lat="55.8080330" lon="49.0927070"><time>2021-08-14T07:44:17</time></trkpt><trkpt lat="55.8080190" lon="49.0926920"><time>2021-08-14T07:44:18</time></trkpt><trkpt lat="55.8080040" lon="49.0926770"><time>2021-08-14T07:44:19</time></trkpt><trkpt lat="55.8079880" lon="49.0926600"><time>2021-08-14T07:44:20</time></trkpt><trkpt lat="55.8079740" lon="49.0926420"><time>2021-08-14T07:44:21</time></trkpt><trkpt lat="55.8079570" lon="49.0926280"><time>2021-08-14T07:44:22</time></trkpt><trkpt lat="55.8079430" lon="49.0926130"><time>2021-08-14T07:44:23</time></trkpt><trkpt lat="55.8079310" lon="49.0925930"><time>2021-08-14T07:44:24</time></trkpt><trkpt lat="55.8079190" lon="49.0925750"><time>2021-08-14T07:44:25</time></trkpt><trkpt lat="55.8079040" lon="49.0925540"><time>2021-08-14T07:44:26</time></trkpt><trkpt lat="55.8078910" lon="49.0925350"><time>2021-08-14T07:44:27</time></trkpt><trkpt lat="55.8078790" lon="49.0925110"><time>2021-08-14T07:44:28</time></trkpt><trkpt lat="55.8078670" lon="49.0924900"><time>2021-08-14T07:44:29</time></trkpt><trkpt lat="55.8078520" lon="49.0924720"><time>2021-08-14T07:44:30</time></trkpt><trkpt lat="55.8078400" lon="49.0924530"><time>2021-08-14T07:44:31</time></trkpt><trkpt lat="55.8078300" lon="49.0924280"><time>2021-08-14T07:44:32</time></trkpt><trkpt lat="55.8078210" lon="49.0924030"><time>2021-08-14T07:44:33</time></trkpt><trkpt lat="55.8078130" lon="49.0923760"><time>2021-08-14T07:44:34</time></trkpt><trkpt lat="55.8078070" lon="49.0923550"><time>2021-08-14T07:44:35</time></trkpt><trkpt lat="55.8077990" lon="49.0923330"><time>2021-08-14T07:44:36</time></trkpt><trkpt lat="55.8077930" lon="49.0923070"><time>2021-08-14T07:44:37</time></trkpt><trkpt lat="55.8077850" lon="49.0922870"><time>2021-08-14T07:44:38</time></trkpt><trkpt lat="55.8077760" lon="49.0922590"><time>2021-08-14T07:44:39</time></trkpt><trkpt lat="55.8077740" lon="49.0922300"><time>2021-08-14T07:44:40</time></trkpt><trkpt lat="55.8077700" lon="49.0922000"><time>2021-08-14T07:44:41</time></trkpt><trkpt lat="55.8077710" lon="49.0921690"><time>2021-08-14T07:44:42</time></trkpt><trkpt lat="55.8077730" lon="49.0921370"><time>2021-08-14T07:44:43</time></trkpt><trkpt lat="55.8077700" lon="49.0921060"><time>2021-08-14T07:44:44</time></trkpt><trkpt lat="55.8077730" lon="49.0920780"><time>2021-08-14T07:44:45</time></trkpt><trkpt lat="55.8077770" lon="49.0920480"><time>2021-08-14T07:44:46</time></trkpt><trkpt lat="55.8077790" lon="49.0920180"><time>2021-08-14T07:44:47</time></trkpt><trkpt lat="55.8077750" lon="49.0919860"><time>2021-08-14T07:44:48</time></trkpt><trkpt lat="55.8077840" lon="49.0919580"><time>2021-08-14T07:44:49</time></trkpt><trkpt lat="55.8077840" lon="49.0919250"><time>2021-08-14T07:44:50</time></trkpt><trkpt lat="55.8077900" lon="49.0918960"><time>2021-08-14T07:44:51</time></trkpt><trkpt lat="55.8077900" lon="49.0918630"><time>2021-08-14T07:44:52</time></trkpt><trkpt lat="55.8077920" lon="49.0918330"><time>2021-08-14T07:44:53</time></trkpt><trkpt lat="55.8077950" lon="49.0918040"><time>2021-08-14T07:44:54</time></trkpt><trkpt lat="55.8077980" lon="49.0917750"><time>2021-08-14T07:44:55</time></trkpt><trkpt lat="55.8078020" lon="49.0917440"><time>2021-08-14T07:44:56</time></trkpt><trkpt lat="55.8078040" lon="49.0917160"><time>2021-08-14T07:44:57</time></trkpt><trkpt lat="55.8078060" lon="49.0916880"><time>2021-08-14T07:44:58</time></trkpt><trkpt lat="55.8078100" lon="49.0916610"><time>2021-08-14T07:44:59</time></trkpt><trkpt lat="55.8078050" lon="49.0916290"><time>2021-08-14T07:45:00</time></trkpt><trkpt lat="55.8078030" lon="49.0916020"><time>2021-08-14T07:45:01</time></trkpt><trkpt lat="55.8078010" lon="49.0915710"><time>2021-08-14T07:45:02</time></trkpt><trkpt lat="55.8078050" lon="49.0915450"><time>2021-08-14T07:45:03</time></trkpt><trkpt lat="55.8078080" lon="49.0915170"><time>2021-08-14T07:45:04</time></trkpt><trkpt lat="55.8078190" lon="49.0914920"><time>2021-08-14T07:45:05</time></trkpt><trkpt lat="55.8078230" lon="49.0914660"><time>2021-08-14T07:45:06</time></trkpt><trkpt lat="55.8078280" lon="49.0914430"><time>2021-08-14T07:45:07</time></trkpt><trkpt lat="55.8078310" lon="49.0914110"><time>2021-08-14T07:45:08</time></trkpt><trkpt lat="55.8078380" lon="49.0913880"><time>2021-08-14T07:45:09</time></trkpt><trkpt lat="55.8078480" lon="49.0913630"><time>2021-08-14T07:45:10</time></trkpt><trkpt lat="55.8078530" lon="49.0913350"><time>2021-08-14T07:45:11</time></trkpt><trkpt lat="55.8078560" lon="49.0913030"><time>2021-08-14T07:45:12</time></trkpt><trkpt lat="55.8078450" lon="49.0912730"><time>2021-08-14T07:45:13</time></trkpt><trkpt lat="55.8078510" lon="49.0912470"><time>2021-08-14T07:45:14</time></trkpt><trkpt lat="55.8078640" lon="49.0912260"><time>2021-08-14T07:45:15</time></trkpt><trkpt lat="55.8078680" lon="49.0912000"><time>2021-08-14T07:45:16</time></trkpt><trkpt lat="55.8078720" lon="49.0911720"><time>2021-08-14T07:45:17</time></trkpt><trkpt lat="55.8078710" lon="49.0911440"><time>2021-08-14T07:45:18</time></trkpt><trkpt lat="55.8078780" lon="49.0911190"><time>2021-08-14T07:45:19</time></trkpt><trkpt lat="55.8078830" lon="49.0910930"><time>2021-08-14T07:45:20</time></trkpt><trkpt lat="55.8078870" lon="49.0910670"><time>2021-08-14T07:45:21</time></trkpt><trkpt lat="55.8078900" lon="49.0910360"><time>2021-08-14T07:45:22</time></trkpt><trkpt lat="55.8078950" lon="49.0910130"><time>2021-08-14T07:45:23</time></trkpt><trkpt lat="55.8078980" lon="49.0909920"><time>2021-08-14T07:45:24</time></trkpt><trkpt lat="55.8078930" lon="49.0909620"><time>2021-08-14T07:45:25</time></trkpt><trkpt lat="55.8078960" lon="49.0909380"><time>2021-08-14T07:45:26</time></trkpt><trkpt lat="55.8079010" lon="49.0909100"><time>2021-08-14T07:45:27</time></trkpt><trkpt lat="55.8079100" lon="49.0908870"><time>2021-08-14T07:45:28</time></trkpt><trkpt lat="55.8079110" lon="49.0908620"><time>2021-08-14T07:45:29</time></trkpt><trkpt lat="55.8079130" lon="49.0908360"><time>2021-08-14T07:45:30</time></trkpt><trkpt lat="55.8079160" lon="49.0908150"><time>2021-08-14T07:45:31</time></trkpt><trkpt lat="55.8079130" lon="49.0907960"><time>2021-08-14T07:45:32</time></trkpt><trkpt lat="55.8079080" lon="49.0907690"><time>2021-08-14T07:45:33</time></trkpt><trkpt lat="55.8079090" lon="49.0907440"><time>2021-08-14T07:45:34</time></trkpt><trkpt lat="55.8078910" lon="49.0907220"><time>2021-08-14T07:45:35</time></trkpt><trkpt lat="55.8078940" lon="49.0906910"><time>2021-08-14T07:45:36</time></trkpt><trkpt lat="55.8078870" lon="49.0906650"><time>2021-08-14T07:45:37</time></trkpt><trkpt lat="55.8078800" lon="49.0906350"><time>2021-08-14T07:45:38</time></trkpt><trkpt lat="55.8078750" lon="49.0906090"><time>2021-08-14T07:45:39</time></trkpt><trkpt lat="55.8078730" lon="49.0905820"><time>2021-08-14T07:45:40</time></trkpt><trkpt lat="55.8078670" lon="49.0905540"><time>2021-08-14T07:45:41</time></trkpt><trkpt lat="55.8078650" lon="49.0904970"><time>2021-08-14T07:45:42</time></trkpt><trkpt lat="55.8078630" lon="49.0904840"><time>2021-08-14T07:45:43</time></trkpt><trkpt lat="55.8078630" lon="49.0904610"><time>2021-08-14T07:45:44</time></trkpt><trkpt lat="55.8078650" lon="49.0904320"><time>2021-08-14T07:45:45</time></trkpt><trkpt lat="55.8078810" lon="49.0903900"><time>2021-08-14T07:45:46</time></trkpt><trkpt lat="55.8078860" lon="49.0903770"><time>2021-08-14T07:45:47</time></trkpt><trkpt lat="55.8078980" lon="49.0903540"><time>2021-08-14T07:45:48</time></trkpt><trkpt lat="55.8079030" lon="49.0903250"><time>2021-08-14T07:45:49</time></trkpt><trkpt lat="55.8079100" lon="49.0902960"><time>2021-08-14T07:45:50</time></trkpt><trkpt lat="55.8079070" lon="49.0902680"><time>2021-08-14T07:45:51</time></trkpt><trkpt lat="55.8079120" lon="49.0902390"><time>2021-08-14T07:45:52</time></trkpt><trkpt lat="55.8079130" lon="49.0902090"><time>2021-08-14T07:45:53</time></trkpt><trkpt lat="55.8079170" lon="49.0901800"><time>2021-08-14T07:45:54</time></trkpt><trkpt lat="55.8079270" lon="49.0901520"><time>2021-08-14T07:45:55</time></trkpt><trkpt lat="55.8079440" lon="49.0901090"><time>2021-08-14T07:45:56</time></trkpt><trkpt lat="55.8079500" lon="49.0900940"><time>2021-08-14T07:45:57</time></trkpt><trkpt lat="55.8079650" lon="49.0900800"><time>2021-08-14T07:45:58</time></trkpt><trkpt lat="55.8079690" lon="49.0900480"><time>2021-08-14T07:45:59</time></trkpt><trkpt lat="55.8079760" lon="49.0900200"><time>2021-08-14T07:46:00</time></trkpt><trkpt lat="55.8079750" lon="49.0899890"><time>2021-08-14T07:46:01</time></trkpt><trkpt lat="55.8079790" lon="49.0899590"><time>2021-08-14T07:46:02</time></trkpt><trkpt lat="55.8079810" lon="49.0899310"><time>2021-08-14T07:46:03</time></trkpt><trkpt lat="55.8079860" lon="49.0899010"><time>2021-08-14T07:46:04</time></trkpt><trkpt lat="55.8079880" lon="49.0898670"><time>2021-08-14T07:46:05</time></trkpt><trkpt lat="55.8079900" lon="49.0898370"><time>2021-08-14T07:46:06</time></trkpt><trkpt lat="55.8079930" lon="49.0898050"><time>2021-08-14T07:46:07</time></trkpt><trkpt lat="55.8079920" lon="49.0897770"><time>2021-08-14T07:46:08</time></trkpt><trkpt lat="55.8079980" lon="49.0897460"><time>2021-08-14T07:46:09</time></trkpt><trkpt lat="55.8080050" lon="49.0896990"><time>2021-08-14T07:46:10</time></trkpt><trkpt lat="55.8080050" lon="49.0896820"><time>2021-08-14T07:46:11</time></trkpt><trkpt lat="55.8080060" lon="49.0896310"><time>2021-08-14T07:46:12</time></trkpt><trkpt lat="55.8080070" lon="49.0896130"><time>2021-08-14T07:46:13</time></trkpt><trkpt lat="55.8080080" lon="49.0895640"><time>2021-08-14T07:46:14</time></trkpt><trkpt lat="55.8080080" lon="49.0895470"><time>2021-08-14T07:46:15</time></trkpt><trkpt lat="55.8080120" lon="49.0895220"><time>2021-08-14T07:46:16</time></trkpt><trkpt lat="55.8080140" lon="49.0894940"><time>2021-08-14T07:46:17</time></trkpt><trkpt lat="55.8080190" lon="49.0894660"><time>2021-08-14T07:46:18</time></trkpt><trkpt lat="55.8080210" lon="49.0894370"><time>2021-08-14T07:46:19</time></trkpt><trkpt lat="55.8080190" lon="49.0894080"><time>2021-08-14T07:46:20</time></trkpt><trkpt lat="55.8080200" lon="49.0893750"><time>2021-08-14T07:46:21</time></trkpt><trkpt lat="55.8080240" lon="49.0893460"><time>2021-08-14T07:46:22</time></trkpt><trkpt lat="55.8080300" lon="49.0893170"><time>2021-08-14T07:46:23</time></trkpt><trkpt lat="55.8080390" lon="49.0892900"><time>2021-08-14T07:46:24</time></trkpt><trkpt lat="55.8080480" lon="49.0892650"><time>2021-08-14T07:46:25</time></trkpt><trkpt lat="55.8080530" lon="49.0892390"><time>2021-08-14T07:46:26</time></trkpt><trkpt lat="55.8080600" lon="49.0892120"><time>2021-08-14T07:46:27</time></trkpt><trkpt lat="55.8080650" lon="49.0891880"><time>2021-08-14T07:46:28</time></trkpt><trkpt lat="55.8080710" lon="49.0891600"><time>2021-08-14T07:46:29</time></trkpt><trkpt lat="55.8080760" lon="49.0891320"><time>2021-08-14T07:46:30</time></trkpt><trkpt lat="55.8080820" lon="49.0891060"><time>2021-08-14T07:46:31</time></trkpt><trkpt lat="55.8080850" lon="49.0890780"><time>2021-08-14T07:46:32</time></trkpt><trkpt lat="55.8080880" lon="49.0890510"><time>2021-08-14T07:46:33</time></trkpt><trkpt lat="55.8080930" lon="49.0890260"><time>2021-08-14T07:46:34</time></trkpt><trkpt lat="55.8080970" lon="49.0889990"><time>2021-08-14T07:46:35</time></trkpt><trkpt lat="55.8081000" lon="49.0889730"><time>2021-08-14T07:46:36</time></trkpt><trkpt lat="55.8081030" lon="49.0889470"><time>2021-08-14T07:46:37</time></trkpt><trkpt lat="55.8081020" lon="49.0889230"><time>2021-08-14T07:46:38</time></trkpt><trkpt lat="55.8081000" lon="49.0888970"><time>2021-08-14T07:46:39</time></trkpt><trkpt lat="55.8081010" lon="49.0888650"><time>2021-08-14T07:46:40</time></trkpt><trkpt lat="55.8081050" lon="49.0888390"><time>2021-08-14T07:46:41</time></trkpt><trkpt lat="55.8081090" lon="49.0888130"><time>2021-08-14T07:46:42</time></trkpt><trkpt lat="55.8081070" lon="49.0887840"><time>2021-08-14T07:46:43</time></trkpt><trkpt lat="55.8081100" lon="49.0887580"><time>2021-08-14T07:46:44</time></trkpt><trkpt lat="55.8081100" lon="49.0887300"><time>2021-08-14T07:46:45</time></trkpt><trkpt lat="55.8081050" lon="49.0887060"><time>2021-08-14T07:46:46</time></trkpt><trkpt lat="55.8081010" lon="49.0886760"><time>2021-08-14T07:46:47</time></trkpt><trkpt lat="55.8080920" lon="49.0886490"><time>2021-08-14T07:46:48</time></trkpt><trkpt lat="55.8080850" lon="49.0886250"><time>2021-08-14T07:46:49</time></trkpt><trkpt lat="55.8080810" lon="49.0886000"><time>2021-08-14T07:46:50</time></trkpt><trkpt lat="55.8080790" lon="49.0885750"><time>2021-08-14T07:46:51</time></trkpt><trkpt lat="55.8080780" lon="49.0885470"><time>2021-08-14T07:46:52</time></trkpt><trkpt lat="55.8080800" lon="49.0885230"><time>2021-08-14T07:46:53</time></trkpt><trkpt lat="55.8080820" lon="49.0884960"><time>2021-08-14T07:46:54</time></trkpt><trkpt lat="55.8080900" lon="49.0884680"><time>2021-08-14T07:46:55</time></trkpt><trkpt lat="55.8080970" lon="49.0884440"><time>2021-08-14T07:46:56</time></trkpt><trkpt lat="55.8081010" lon="49.0884170"><time>2021-08-14T07:46:57</time></trkpt><trkpt lat="55.8081050" lon="49.0883900"><time>2021-08-14T07:46:58</time></trkpt><trkpt lat="55.8081080" lon="49.0883630"><time>2021-08-14T07:46:59</time></trkpt><trkpt lat="55.8081100" lon="49.0883360"><time>2021-08-14T07:47:00</time></trkpt><trkpt lat="55.8081140" lon="49.0883110"><time>2021-08-14T07:47:01</time></trkpt><trkpt lat="55.8081110" lon="49.0882840"><time>2021-08-14T07:47:02</time></trkpt><trkpt lat="55.8081100" lon="49.0882600"><time>2021-08-14T07:47:03</time></trkpt><trkpt lat="55.8081080" lon="49.0882330"><time>2021-08-14T07:47:04</time></trkpt><trkpt lat="55.8081070" lon="49.0882050"><time>2021-08-14T07:47:05</time></trkpt><trkpt lat="55.8081080" lon="49.0881770"><time>2021-08-14T07:47:06</time></trkpt><trkpt lat="55.8081140" lon="49.0881500"><time>2021-08-14T07:47:07</time></trkpt><trkpt lat="55.8081160" lon="49.0881240"><time>2021-08-14T07:47:08</time></trkpt><trkpt lat="55.8081140" lon="49.0880990"><time>2021-08-14T07:47:09</time></trkpt><trkpt lat="55.8081150" lon="49.0880750"><time>2021-08-14T07:47:10</time></trkpt><trkpt lat="55.8081240" lon="49.0880540"><time>2021-08-14T07:47:11</time></trkpt><trkpt lat="55.8081340" lon="49.0880310"><time>2021-08-14T07:47:12</time></trkpt><trkpt lat="55.8081370" lon="49.0880090"><time>2021-08-14T07:47:13</time></trkpt><trkpt lat="55.8081410" lon="49.0879820"><time>2021-08-14T07:47:14</time></trkpt><trkpt lat="55.8081390" lon="49.0879520"><time>2021-08-14T07:47:15</time></trkpt><trkpt lat="55.8081440" lon="49.0879140"><time>2021-08-14T07:47:16</time></trkpt><trkpt lat="55.8081460" lon="49.0878990"><time>2021-08-14T07:47:17</time></trkpt><trkpt lat="55.8081470" lon="49.0878840"><time>2021-08-14T07:47:18</time></trkpt><trkpt lat="55.8081470" lon="49.0878610"><time>2021-08-14T07:47:19</time></trkpt><trkpt lat="55.8081490" lon="49.0878390"><time>2021-08-14T07:47:20</time></trkpt><trkpt lat="55.8081440" lon="49.0878200"><time>2021-08-14T07:47:21</time></trkpt><trkpt lat="55.8081380" lon="49.0878080"><time>2021-08-14T07:47:22</time></trkpt><trkpt lat="55.8081330" lon="49.0878010"><time>2021-08-14T07:47:23</time></trkpt><trkpt lat="55.8081320" lon="49.0878190"><time>2021-08-14T07:47:24</time></trkpt><trkpt lat="55.8081400" lon="49.0878320"><time>2021-08-14T07:47:25</time></trkpt><trkpt lat="55.8081390" lon="49.0878500"><time>2021-08-14T07:47:26</time></trkpt><trkpt lat="55.8081310" lon="49.0878520"><time>2021-08-14T07:47:27</time></trkpt><trkpt lat="55.8081370" lon="49.0878530"><time>2021-08-14T07:47:28</time></trkpt><trkpt lat="55.8081320" lon="49.0878540"><time>2021-08-14T07:47:29</time></trkpt><trkpt lat="55.8081310" lon="49.0878580"><time>2021-08-14T07:47:30</time></trkpt><trkpt lat="55.8081310" lon="49.0878530"><time>2021-08-14T07:47:31</time></trkpt><trkpt lat="55.8081320" lon="49.0878530"><time>2021-08-14T07:47:32</time></trkpt><trkpt lat="55.8081340" lon="49.0878540"><time>2021-08-14T07:47:33</time></trkpt><trkpt lat="55.8081340" lon="49.0878520"><time>2021-08-14T07:47:34</time></trkpt><trkpt lat="55.8081330" lon="49.0878510"><time>2021-08-14T07:47:35</time></trkpt><trkpt lat="55.8081360" lon="49.0878420"><time>2021-08-14T07:47:36</time></trkpt><trkpt lat="55.8081370" lon="49.0878400"><time>2021-08-14T07:47:37</time></trkpt><trkpt lat="55.8081390" lon="49.0878390"><time>2021-08-14T07:47:38</time></trkpt><trkpt lat="55.8081410" lon="49.0878380"><time>2021-08-14T07:47:39</time></trkpt><trkpt lat="55.8081430" lon="49.0878350"><time>2021-08-14T07:47:40</time></trkpt><trkpt lat="55.8081420" lon="49.0878230"><time>2021-08-14T07:47:41</time></trkpt><trkpt lat="55.8081420" lon="49.0878000"><time>2021-08-14T07:47:42</time></trkpt><trkpt lat="55.8081480" lon="49.0877820"><time>2021-08-14T07:47:43</time></trkpt><trkpt lat="55.8081470" lon="49.0877580"><time>2021-08-14T07:47:44</time></trkpt><trkpt lat="55.8081490" lon="49.0877190"><time>2021-08-14T07:47:45</time></trkpt><trkpt lat="55.8081540" lon="49.0877030"><time>2021-08-14T07:47:46</time></trkpt><trkpt lat="55.8081590" lon="49.0876870"><time>2021-08-14T07:47:47</time></trkpt><trkpt lat="55.8081610" lon="49.0876440"><time>2021-08-14T07:47:48</time></trkpt><trkpt lat="55.8081620" lon="49.0876320"><time>2021-08-14T07:47:49</time></trkpt><trkpt lat="55.8081670" lon="49.0875760"><time>2021-08-14T07:47:50</time></trkpt><trkpt lat="55.8081690" lon="49.0875570"><time>2021-08-14T07:47:51</time></trkpt><trkpt lat="55.8081770" lon="49.0875250"><time>2021-08-14T07:47:52</time></trkpt><trkpt lat="55.8081790" lon="49.0875070"><time>2021-08-14T07:47:53</time></trkpt><trkpt lat="55.8081820" lon="49.0874900"><time>2021-08-14T07:47:54</time></trkpt><trkpt lat="55.8081850" lon="49.0874630"><time>2021-08-14T07:47:55</time></trkpt><trkpt lat="55.8081820" lon="49.0874400"><time>2021-08-14T07:47:56</time></trkpt><trkpt lat="55.8081880" lon="49.0874090"><time>2021-08-14T07:47:57</time></trkpt><trkpt lat="55.8081950" lon="49.0873810"><time>2021-08-14T07:47:58</time></trkpt><trkpt lat="55.8081950" lon="49.0873660"><time>2021-08-14T07:47:59</time></trkpt><trkpt lat="55.8081990" lon="49.0873290"><time>2021-08-14T07:48:00</time></trkpt><trkpt lat="55.8082020" lon="49.0873020"><time>2021-08-14T07:48:01</time></trkpt><trkpt lat="55.8082070" lon="49.0872720"><time>2021-08-14T07:48:02</time></trkpt><trkpt lat="55.8082090" lon="49.0872470"><time>2021-08-14T07:48:03</time></trkpt><trkpt lat="55.8082240" lon="49.0872200"><time>2021-08-14T07:48:04</time></trkpt><trkpt lat="55.8082240" lon="49.0871750"><time>2021-08-14T07:48:05</time></trkpt><trkpt lat="55.8082240" lon="49.0871590"><time>2021-08-14T07:48:06</time></trkpt><trkpt lat="55.8082240" lon="49.0871420"><time>2021-08-14T07:48:07</time></trkpt><trkpt lat="55.8082340" lon="49.0870990"><time>2021-08-14T07:48:08</time></trkpt><trkpt lat="55.8082350" lon="49.0870810"><time>2021-08-14T07:48:09</time></trkpt><trkpt lat="55.8082340" lon="49.0870460"><time>2021-08-14T07:48:10</time></trkpt><trkpt lat="55.8082400" lon="49.0870190"><time>2021-08-14T07:48:11</time></trkpt><trkpt lat="55.8082450" lon="49.0869880"><time>2021-08-14T07:48:12</time></trkpt><trkpt lat="55.8082470" lon="49.0869600"><time>2021-08-14T07:48:13</time></trkpt><trkpt lat="55.8082540" lon="49.0869320"><time>2021-08-14T07:48:14</time></trkpt><trkpt lat="55.8082540" lon="49.0869010"><time>2021-08-14T07:48:15</time></trkpt><trkpt lat="55.8082530" lon="49.0868690"><time>2021-08-14T07:48:16</time></trkpt><trkpt lat="55.8082530" lon="49.0868380"><time>2021-08-14T07:48:17</time></trkpt><trkpt lat="55.8082530" lon="49.0867860"><time>2021-08-14T07:48:18</time></trkpt><trkpt lat="55.8082530" lon="49.0867700"><time>2021-08-14T07:48:19</time></trkpt><trkpt lat="55.8082540" lon="49.0867360"><time>2021-08-14T07:48:20</time></trkpt><trkpt lat="55.8082530" lon="49.0867090"><time>2021-08-14T07:48:21</time></trkpt><trkpt lat="55.8082550" lon="49.0866790"><time>2021-08-14T07:48:22</time></trkpt><trkpt lat="55.8082570" lon="49.0866470"><time>2021-08-14T07:48:23</time></trkpt><trkpt lat="55.8082600" lon="49.0866220"><time>2021-08-14T07:48:24</time></trkpt><trkpt lat="55.8082580" lon="49.0865930"><time>2021-08-14T07:48:25</time></trkpt><trkpt lat="55.8082640" lon="49.0865420"><time>2021-08-14T07:48:26</time></trkpt><trkpt lat="55.8082640" lon="49.0865250"><time>2021-08-14T07:48:27</time></trkpt><trkpt lat="55.8082670" lon="49.0864720"><time>2021-08-14T07:48:28</time></trkpt><trkpt lat="55.8082680" lon="49.0864560"><time>2021-08-14T07:48:29</time></trkpt><trkpt lat="55.8082700" lon="49.0864280"><time>2021-08-14T07:48:30</time></trkpt><trkpt lat="55.8082740" lon="49.0864040"><time>2021-08-14T07:48:31</time></trkpt><trkpt lat="55.8082760" lon="49.0863750"><time>2021-08-14T07:48:32</time></trkpt><trkpt lat="55.8082760" lon="49.0863470"><time>2021-08-14T07:48:33</time></trkpt><trkpt lat="55.8082750" lon="49.0863470"><time>2021-08-14T07:48:34</time></trkpt><trkpt lat="55.8082750" lon="49.0863540"><time>2021-08-14T07:48:35</time></trkpt><trkpt lat="55.8082740" lon="49.0863600"><time>2021-08-14T07:48:36</time></trkpt><trkpt lat="55.8082730" lon="49.0863660"><time>2021-08-14T07:48:37</time></trkpt><trkpt lat="55.8082730" lon="49.0863730"><time>2021-08-14T07:48:38</time></trkpt><trkpt lat="55.8082720" lon="49.0863790"><time>2021-08-14T07:48:39</time></trkpt><trkpt lat="55.8082710" lon="49.0863850"><time>2021-08-14T07:48:40</time></trkpt><trkpt lat="55.8082710" lon="49.0863920"><time>2021-08-14T07:48:41</time></trkpt><trkpt lat="55.8082700" lon="49.0863980"><time>2021-08-14T07:48:42</time></trkpt><trkpt lat="55.8082690" lon="49.0864040"><time>2021-08-14T07:48:43</time></trkpt><trkpt lat="55.8082690" lon="49.0864110"><time>2021-08-14T07:48:44</time></trkpt><trkpt lat="55.8082680" lon="49.0864170"><time>2021-08-14T07:48:45</time></trkpt><trkpt lat="55.8082670" lon="49.0864440"><time>2021-08-14T07:48:46</time></trkpt><trkpt lat="55.8082650" lon="49.0864690"><time>2021-08-14T07:48:47</time></trkpt><trkpt lat="55.8082620" lon="49.0865200"><time>2021-08-14T07:48:48</time></trkpt><trkpt lat="55.8082610" lon="49.0865370"><time>2021-08-14T07:48:49</time></trkpt><trkpt lat="55.8082600" lon="49.0865670"><time>2021-08-14T07:48:50</time></trkpt><trkpt lat="55.8082580" lon="49.0865980"><time>2021-08-14T07:48:51</time></trkpt><trkpt lat="55.8082590" lon="49.0866310"><time>2021-08-14T07:48:52</time></trkpt><trkpt lat="55.8082550" lon="49.0866490"><time>2021-08-14T07:48:53</time></trkpt><trkpt lat="55.8082520" lon="49.0866800"><time>2021-08-14T07:48:54</time></trkpt><trkpt lat="55.8082510" lon="49.0867040"><time>2021-08-14T07:48:55</time></trkpt><trkpt lat="55.8082490" lon="49.0867540"><time>2021-08-14T07:48:56</time></trkpt><trkpt lat="55.8082490" lon="49.0867700"><time>2021-08-14T07:48:57</time></trkpt><trkpt lat="55.8082480" lon="49.0867910"><time>2021-08-14T07:48:58</time></trkpt><trkpt lat="55.8082430" lon="49.0868110"><time>2021-08-14T07:48:59</time></trkpt><trkpt lat="55.8082410" lon="49.0868310"><time>2021-08-14T07:49:00</time></trkpt><trkpt lat="55.8082400" lon="49.0868690"><time>2021-08-14T07:49:01</time></trkpt><trkpt lat="55.8082390" lon="49.0868830"><time>2021-08-14T07:49:02</time></trkpt><trkpt lat="55.8082370" lon="49.0868980"><time>2021-08-14T07:49:03</time></trkpt><trkpt lat="55.8082360" lon="49.0869330"><time>2021-08-14T07:49:04</time></trkpt><trkpt lat="55.8082320" lon="49.0869590"><time>2021-08-14T07:49:05</time></trkpt><trkpt lat="55.8082270" lon="49.0869830"><time>2021-08-14T07:49:06</time></trkpt><trkpt lat="55.8082250" lon="49.0870070"><time>2021-08-14T07:49:07</time></trkpt><trkpt lat="55.8082260" lon="49.0870470"><time>2021-08-14T07:49:08</time></trkpt><trkpt lat="55.8082270" lon="49.0870640"><time>2021-08-14T07:49:09</time></trkpt><trkpt lat="55.8082270" lon="49.0870800"><time>2021-08-14T07:49:10</time></trkpt><trkpt lat="55.8082220" lon="49.0871270"><time>2021-08-14T07:49:11</time></trkpt><trkpt lat="55.8082210" lon="49.0871430"><time>2021-08-14T07:49:12</time></trkpt><trkpt lat="55.8082190" lon="49.0871950"><time>2021-08-14T07:49:13</time></trkpt><trkpt lat="55.8082170" lon="49.0872170"><time>2021-08-14T07:49:14</time></trkpt><trkpt lat="55.8082120" lon="49.0872420"><time>2021-08-14T07:49:15</time></trkpt><trkpt lat="55.8082120" lon="49.0872660"><time>2021-08-14T07:49:16</time></trkpt><trkpt lat="55.8082080" lon="49.0873270"><time>2021-08-14T07:49:17</time></trkpt><trkpt lat="55.8082040" lon="49.0873410"><time>2021-08-14T07:49:18</time></trkpt><trkpt lat="55.8081970" lon="49.0873650"><time>2021-08-14T07:49:19</time></trkpt><trkpt lat="55.8081950" lon="49.0873920"><time>2021-08-14T07:49:20</time></trkpt><trkpt lat="55.8081910" lon="49.0874170"><time>2021-08-14T07:49:21</time></trkpt><trkpt lat="55.8081970" lon="49.0874200"><time>2021-08-14T07:49:22</time></trkpt><trkpt lat="55.8081970" lon="49.0874510"><time>2021-08-14T07:49:23</time></trkpt><trkpt lat="55.8081880" lon="49.0874890"><time>2021-08-14T07:49:24</time></trkpt><trkpt lat="55.8081850" lon="49.0875060"><time>2021-08-14T07:49:25</time></trkpt><trkpt lat="55.8081810" lon="49.0875230"><time>2021-08-14T07:49:26</time></trkpt><trkpt lat="55.8081760" lon="49.0875520"><time>2021-08-14T07:49:27</time></trkpt><trkpt lat="55.8081690" lon="49.0875790"><time>2021-08-14T07:49:28</time></trkpt><trkpt lat="55.8081690" lon="49.0876060"><time>2021-08-14T07:49:29</time></trkpt><trkpt lat="55.8081650" lon="49.0876380"><time>2021-08-14T07:49:30</time></trkpt><trkpt lat="55.8081640" lon="49.0876750"><time>2021-08-14T07:49:31</time></trkpt><trkpt lat="55.8081650" lon="49.0876890"><time>2021-08-14T07:49:32</time></trkpt><trkpt lat="55.8081590" lon="49.0877440"><time>2021-08-14T07:49:33</time></trkpt><trkpt lat="55.8081580" lon="49.0877550"><time>2021-08-14T07:49:34</time></trkpt><trkpt lat="55.8081660" lon="49.0877840"><time>2021-08-14T07:49:35</time></trkpt><trkpt lat="55.8081640" lon="49.0878120"><time>2021-08-14T07:49:36</time></trkpt><trkpt lat="55.8081630" lon="49.0878390"><time>2021-08-14T07:49:37</time></trkpt><trkpt lat="55.8081600" lon="49.0878540"><time>2021-08-14T07:49:38</time></trkpt><trkpt lat="55.8081550" lon="49.0878700"><time>2021-08-14T07:49:39</time></trkpt><trkpt lat="55.8081480" lon="49.0879060"><time>2021-08-14T07:49:40</time></trkpt><trkpt lat="55.8081470" lon="49.0879230"><time>2021-08-14T07:49:41</time></trkpt><trkpt lat="55.8081460" lon="49.0879410"><time>2021-08-14T07:49:42</time></trkpt><trkpt lat="55.8081440" lon="49.0879990"><time>2021-08-14T07:49:43</time></trkpt><trkpt lat="55.8081410" lon="49.0880140"><time>2021-08-14T07:49:44</time></trkpt><trkpt lat="55.8081390" lon="49.0880650"><time>2021-08-14T07:49:45</time></trkpt><trkpt lat="55.8081380" lon="49.0880790"><time>2021-08-14T07:49:46</time></trkpt><trkpt lat="55.8081310" lon="49.0881090"><time>2021-08-14T07:49:47</time></trkpt><trkpt lat="55.8081320" lon="49.0881420"><time>2021-08-14T07:49:48</time></trkpt><trkpt lat="55.8081240" lon="49.0881710"><time>2021-08-14T07:49:49</time></trkpt><trkpt lat="55.8081230" lon="49.0881740"><time>2021-08-14T07:49:50</time></trkpt><trkpt lat="55.8081210" lon="49.0881780"><time>2021-08-14T07:49:51</time></trkpt><trkpt lat="55.8081190" lon="49.0881810"><time>2021-08-14T07:49:52</time></trkpt><trkpt lat="55.8081180" lon="49.0881840"><time>2021-08-14T07:49:53</time></trkpt><trkpt lat="55.8081160" lon="49.0881870"><time>2021-08-14T07:49:54</time></trkpt><trkpt lat="55.8081150" lon="49.0881900"><time>2021-08-14T07:49:55</time></trkpt><trkpt lat="55.8081130" lon="49.0881930"><time>2021-08-14T07:49:56</time></trkpt><trkpt lat="55.8081110" lon="49.0881970"><time>2021-08-14T07:49:57</time></trkpt><trkpt lat="55.8081100" lon="49.0882000"><time>2021-08-14T07:49:58</time></trkpt><trkpt lat="55.8081080" lon="49.0882030"><time>2021-08-14T07:49:59</time></trkpt><trkpt lat="55.8081080" lon="49.0882260"><time>2021-08-14T07:50:00</time></trkpt><trkpt lat="55.8080990" lon="49.0882520"><time>2021-08-14T07:50:01</time></trkpt><trkpt lat="55.8080960" lon="49.0882820"><time>2021-08-14T07:50:02</time></trkpt><trkpt lat="55.8080930" lon="49.0883070"><time>2021-08-14T07:50:03</time></trkpt><trkpt lat="55.8080980" lon="49.0883370"><time>2021-08-14T07:50:04</time></trkpt><trkpt lat="55.8080960" lon="49.0883600"><time>2021-08-14T07:50:05</time></trkpt><trkpt lat="55.8080960" lon="49.0883860"><time>2021-08-14T07:50:06</time></trkpt><trkpt lat="55.8080870" lon="49.0884090"><time>2021-08-14T07:50:07</time></trkpt><trkpt lat="55.8080870" lon="49.0884400"><time>2021-08-14T07:50:08</time></trkpt><trkpt lat="55.8080830" lon="49.0884660"><time>2021-08-14T07:50:09</time></trkpt><trkpt lat="55.8080820" lon="49.0884940"><time>2021-08-14T07:50:10</time></trkpt><trkpt lat="55.8080770" lon="49.0885230"><time>2021-08-14T07:50:11</time></trkpt><trkpt lat="55.8080740" lon="49.0885510"><time>2021-08-14T07:50:12</time></trkpt><trkpt lat="55.8080680" lon="49.0885770"><time>2021-08-14T07:50:13</time></trkpt><trkpt lat="55.8080650" lon="49.0886030"><time>2021-08-14T07:50:14</time></trkpt><trkpt lat="55.8080660" lon="49.0886330"><time>2021-08-14T07:50:15</time></trkpt><trkpt lat="55.8080650" lon="49.0886590"><time>2021-08-14T07:50:16</time></trkpt><trkpt lat="55.8080590" lon="49.0886840"><time>2021-08-14T07:50:17</time></trkpt><trkpt lat="55.8080550" lon="49.0887060"><time>2021-08-14T07:50:18</time></trkpt><trkpt lat="55.8080470" lon="49.0887320"><time>2021-08-14T07:50:19</time></trkpt><trkpt lat="55.8080510" lon="49.0887660"><time>2021-08-14T07:50:20</time></trkpt><trkpt lat="55.8080480" lon="49.0887960"><time>2021-08-14T07:50:21</time></trkpt><trkpt lat="55.8080440" lon="49.0888230"><time>2021-08-14T07:50:22</time></trkpt><trkpt lat="55.8080430" lon="49.0888510"><time>2021-08-14T07:50:23</time></trkpt><trkpt lat="55.8080400" lon="49.0888780"><time>2021-08-14T07:50:24</time></trkpt><trkpt lat="55.8080310" lon="49.0889050"><time>2021-08-14T07:50:25</time></trkpt><trkpt lat="55.8080290" lon="49.0889330"><time>2021-08-14T07:50:26</time></trkpt><trkpt lat="55.8080290" lon="49.0889600"><time>2021-08-14T07:50:27</time></trkpt><trkpt lat="55.8080260" lon="49.0889870"><time>2021-08-14T07:50:28</time></trkpt><trkpt lat="55.8080250" lon="49.0890110"><time>2021-08-14T07:50:29</time></trkpt><trkpt lat="55.8080210" lon="49.0890400"><time>2021-08-14T07:50:30</time></trkpt><trkpt lat="55.8080220" lon="49.0890710"><time>2021-08-14T07:50:31</time></trkpt><trkpt lat="55.8080160" lon="49.0890950"><time>2021-08-14T07:50:32</time></trkpt><trkpt lat="55.8080140" lon="49.0891220"><time>2021-08-14T07:50:33</time></trkpt><trkpt lat="55.8080110" lon="49.0891490"><time>2021-08-14T07:50:34</time></trkpt><trkpt lat="55.8080130" lon="49.0891730"><time>2021-08-14T07:50:35</time></trkpt><trkpt lat="55.8080150" lon="49.0892030"><time>2021-08-14T07:50:36</time></trkpt><trkpt lat="55.8080120" lon="49.0892240"><time>2021-08-14T07:50:37</time></trkpt><trkpt lat="55.8080120" lon="49.0892570"><time>2021-08-14T07:50:38</time></trkpt><trkpt lat="55.8080060" lon="49.0892740"><time>2021-08-14T07:50:39</time></trkpt><trkpt lat="55.8080080" lon="49.0892990"><time>2021-08-14T07:50:40</time></trkpt><trkpt lat="55.8080050" lon="49.0893360"><time>2021-08-14T07:50:41</time></trkpt><trkpt lat="55.8080030" lon="49.0893600"><time>2021-08-14T07:50:42</time></trkpt><trkpt lat="55.8080000" lon="49.0893860"><time>2021-08-14T07:50:43</time></trkpt><trkpt lat="55.8079900" lon="49.0894230"><time>2021-08-14T07:50:44</time></trkpt><trkpt lat="55.8079890" lon="49.0894360"><time>2021-08-14T07:50:45</time></trkpt><trkpt lat="55.8079880" lon="49.0894490"><time>2021-08-14T07:50:46</time></trkpt><trkpt lat="55.8079830" lon="49.0894720"><time>2021-08-14T07:50:47</time></trkpt><trkpt lat="55.8079840" lon="49.0895030"><time>2021-08-14T07:50:48</time></trkpt><trkpt lat="55.8079840" lon="49.0895330"><time>2021-08-14T07:50:49</time></trkpt><trkpt lat="55.8079840" lon="49.0895630"><time>2021-08-14T07:50:50</time></trkpt><trkpt lat="55.8079780" lon="49.0895930"><time>2021-08-14T07:50:51</time></trkpt><trkpt lat="55.8079720" lon="49.0896210"><time>2021-08-14T07:50:52</time></trkpt><trkpt lat="55.8079670" lon="49.0896500"><time>2021-08-14T07:50:53</time></trkpt><trkpt lat="55.8079570" lon="49.0896800"><time>2021-08-14T07:50:54</time></trkpt><trkpt lat="55.8079210" lon="49.0897100"><time>2021-08-14T07:50:55</time></trkpt><trkpt lat="55.8079100" lon="49.0897230"><time>2021-08-14T07:50:56</time></trkpt><trkpt lat="55.8078890" lon="49.0897650"><time>2021-08-14T07:50:57</time></trkpt><trkpt lat="55.8078830" lon="49.0897740"><time>2021-08-14T07:50:58</time></trkpt><trkpt lat="55.8078790" lon="49.0898040"><time>2021-08-14T07:50:59</time></trkpt><trkpt lat="55.8078730" lon="49.0898300"><time>2021-08-14T07:51:00</time></trkpt><trkpt lat="55.8078710" lon="49.0898930"><time>2021-08-14T07:51:01</time></trkpt><trkpt lat="55.8078690" lon="49.0899080"><time>2021-08-14T07:51:02</time></trkpt><trkpt lat="55.8078680" lon="49.0899380"><time>2021-08-14T07:51:03</time></trkpt><trkpt lat="55.8078650" lon="49.0899690"><time>2021-08-14T07:51:04</time></trkpt><trkpt lat="55.8078700" lon="49.0899970"><time>2021-08-14T07:51:05</time></trkpt><trkpt lat="55.8078690" lon="49.0900240"><time>2021-08-14T07:51:06</time></trkpt><trkpt lat="55.8078730" lon="49.0900550"><time>2021-08-14T07:51:07</time></trkpt><trkpt lat="55.8078810" lon="49.0900790"><time>2021-08-14T07:51:08</time></trkpt><trkpt lat="55.8078810" lon="49.0901090"><time>2021-08-14T07:51:09</time></trkpt><trkpt lat="55.8078830" lon="49.0901340"><time>2021-08-14T07:51:10</time></trkpt><trkpt lat="55.8078780" lon="49.0901550"><time>2021-08-14T07:51:11</time></trkpt><trkpt lat="55.8078790" lon="49.0901830"><time>2021-08-14T07:51:12</time></trkpt><trkpt lat="55.8078790" lon="49.0902110"><time>2021-08-14T07:51:13</time></trkpt><trkpt lat="55.8078780" lon="49.0902370"><time>2021-08-14T07:51:14</time></trkpt><trkpt lat="55.8078850" lon="49.0902670"><time>2021-08-14T07:51:15</time></trkpt><trkpt lat="55.8078750" lon="49.0902960"><time>2021-08-14T07:51:16</time></trkpt><trkpt lat="55.8078720" lon="49.0903220"><time>2021-08-14T07:51:17</time></trkpt><trkpt lat="55.8078640" lon="49.0903470"><time>2021-08-14T07:51:18</time></trkpt><trkpt lat="55.8078520" lon="49.0903930"><time>2021-08-14T07:51:19</time></trkpt><trkpt lat="55.8078480" lon="49.0904110"><time>2021-08-14T07:51:20</time></trkpt><trkpt lat="55.8078440" lon="49.0904380"><time>2021-08-14T07:51:21</time></trkpt><trkpt lat="55.8078370" lon="49.0904680"><time>2021-08-14T07:51:22</time></trkpt><trkpt lat="55.8078060" lon="49.0904890"><time>2021-08-14T07:51:23</time></trkpt><trkpt lat="55.8077890" lon="49.0904900"><time>2021-08-14T07:51:24</time></trkpt><trkpt lat="55.8077590" lon="49.0905170"><time>2021-08-14T07:51:25</time></trkpt><trkpt lat="55.8077520" lon="49.0905280"><time>2021-08-14T07:51:26</time></trkpt><trkpt lat="55.8077570" lon="49.0905890"><time>2021-08-14T07:51:27</time></trkpt><trkpt lat="55.8077630" lon="49.0906100"><time>2021-08-14T07:51:28</time></trkpt><trkpt lat="55.8077730" lon="49.0906680"><time>2021-08-14T07:51:29</time></trkpt><trkpt lat="55.8077760" lon="49.0906900"><time>2021-08-14T07:51:30</time></trkpt><trkpt lat="55.8077790" lon="49.0907430"><time>2021-08-14T07:51:31</time></trkpt><trkpt lat="55.8077800" lon="49.0907630"><time>2021-08-14T07:51:32</time></trkpt><trkpt lat="55.8077730" lon="49.0907840"><time>2021-08-14T07:51:33</time></trkpt><trkpt lat="55.8077670" lon="49.0908080"><time>2021-08-14T07:51:34</time></trkpt><trkpt lat="55.8077720" lon="49.0908620"><time>2021-08-14T07:51:35</time></trkpt><trkpt lat="55.8077740" lon="49.0908780"><time>2021-08-14T07:51:36</time></trkpt><trkpt lat="55.8077860" lon="49.0909050"><time>2021-08-14T07:51:37</time></trkpt><trkpt lat="55.8077800" lon="49.0909310"><time>2021-08-14T07:51:38</time></trkpt><trkpt lat="55.8077770" lon="49.0909820"><time>2021-08-14T07:51:39</time></trkpt><trkpt lat="55.8077800" lon="49.0909990"><time>2021-08-14T07:51:40</time></trkpt><trkpt lat="55.8077830" lon="49.0910280"><time>2021-08-14T07:51:41</time></trkpt><trkpt lat="55.8077780" lon="49.0910580"><time>2021-08-14T07:51:42</time></trkpt><trkpt lat="55.8077730" lon="49.0910910"><time>2021-08-14T07:51:43</time></trkpt><trkpt lat="55.8077770" lon="49.0911130"><time>2021-08-14T07:51:44</time></trkpt><trkpt lat="55.8077700" lon="49.0911630"><time>2021-08-14T07:51:45</time></trkpt><trkpt lat="55.8077680" lon="49.0911780"><time>2021-08-14T07:51:46</time></trkpt><trkpt lat="55.8077690" lon="49.0912070"><time>2021-08-14T07:51:47</time></trkpt><trkpt lat="55.8077710" lon="49.0912340"><time>2021-08-14T07:51:48</time></trkpt><trkpt lat="55.8077770" lon="49.0912770"><time>2021-08-14T07:51:49</time></trkpt><trkpt lat="55.8077790" lon="49.0912940"><time>2021-08-14T07:51:50</time></trkpt><trkpt lat="55.8077810" lon="49.0913100"><time>2021-08-14T07:51:51</time></trkpt><trkpt lat="55.8077910" lon="49.0913620"><time>2021-08-14T07:51:52</time></trkpt><trkpt lat="55.8077880" lon="49.0913760"><time>2021-08-14T07:51:53</time></trkpt><trkpt lat="55.8077910" lon="49.0914270"><time>2021-08-14T07:51:54</time></trkpt><trkpt lat="55.8077950" lon="49.0914440"><time>2021-08-14T07:51:55</time></trkpt><trkpt lat="55.8077720" lon="49.0914730"><time>2021-08-14T07:51:56</time></trkpt><trkpt lat="55.8077630" lon="49.0914830"><time>2021-08-14T07:51:57</time></trkpt><trkpt lat="55.8077630" lon="49.0915310"><time>2021-08-14T07:51:58</time></trkpt><trkpt lat="55.8077640" lon="49.0915480"><time>2021-08-14T07:51:59</time></trkpt><trkpt lat="55.8077710" lon="49.0915960"><time>2021-08-14T07:52:00</time></trkpt><trkpt lat="55.8077750" lon="49.0916160"><time>2021-08-14T07:52:01</time></trkpt><trkpt lat="55.8077790" lon="49.0916670"><time>2021-08-14T07:52:02</time></trkpt><trkpt lat="55.8077780" lon="49.0916850"><time>2021-08-14T07:52:03</time></trkpt><trkpt lat="55.8077810" lon="49.0917170"><time>2021-08-14T07:52:04</time></trkpt><trkpt lat="55.8077890" lon="49.0917430"><time>2021-08-14T07:52:05</time></trkpt><trkpt lat="55.8077940" lon="49.0917710"><time>2021-08-14T07:52:06</time></trkpt><trkpt lat="55.8077950" lon="49.0918050"><time>2021-08-14T07:52:07</time></trkpt><trkpt lat="55.8077920" lon="49.0918400"><time>2021-08-14T07:52:08</time></trkpt><trkpt lat="55.8077890" lon="49.0918660"><time>2021-08-14T07:52:09</time></trkpt><trkpt lat="55.8077870" lon="49.0919000"><time>2021-08-14T07:52:10</time></trkpt><trkpt lat="55.8077870" lon="49.0919290"><time>2021-08-14T07:52:11</time></trkpt><trkpt lat="55.8077930" lon="49.0919680"><time>2021-08-14T07:52:12</time></trkpt><trkpt lat="55.8077900" lon="49.0919810"><time>2021-08-14T07:52:13</time></trkpt><trkpt lat="55.8077880" lon="49.0919940"><time>2021-08-14T07:52:14</time></trkpt><trkpt lat="55.8077890" lon="49.0920250"><time>2021-08-14T07:52:15</time></trkpt><trkpt lat="55.8077920" lon="49.0920560"><time>2021-08-14T07:52:16</time></trkpt><trkpt lat="55.8077940" lon="49.0921160"><time>2021-08-14T07:52:17</time></trkpt><trkpt lat="55.8077940" lon="49.0921310"><time>2021-08-14T07:52:18</time></trkpt><trkpt lat="55.8077970" lon="49.0921830"><time>2021-08-14T07:52:19</time></trkpt><trkpt lat="55.8077990" lon="49.0922000"><time>2021-08-14T07:52:20</time></trkpt><trkpt lat="55.8078020" lon="49.0922300"><time>2021-08-14T07:52:21</time></trkpt><trkpt lat="55.8077980" lon="49.0922580"><time>2021-08-14T07:52:22</time></trkpt><trkpt lat="55.8078050" lon="49.0923100"><time>2021-08-14T07:52:23</time></trkpt><trkpt lat="55.8078070" lon="49.0923270"><time>2021-08-14T07:52:24</time></trkpt><trkpt lat="55.8078110" lon="49.0923540"><time>2021-08-14T07:52:25</time></trkpt><trkpt lat="55.8078230" lon="49.0923830"><time>2021-08-14T07:52:26</time></trkpt><trkpt lat="55.8078230" lon="49.0924160"><time>2021-08-14T07:52:27</time></trkpt><trkpt lat="55.8078310" lon="49.0924430"><time>2021-08-14T07:52:28</time></trkpt><trkpt lat="55.8078350" lon="49.0924730"><time>2021-08-14T07:52:29</time></trkpt><trkpt lat="55.8078420" lon="49.0924990"><time>2021-08-14T07:52:30</time></trkpt><trkpt lat="55.8078480" lon="49.0925280"><time>2021-08-14T07:52:31</time></trkpt><trkpt lat="55.8078570" lon="49.0925580"><time>2021-08-14T07:52:32</time></trkpt><trkpt lat="55.8078640" lon="49.0925730"><time>2021-08-14T07:52:33</time></trkpt><trkpt lat="55.8078810" lon="49.0925950"><time>2021-08-14T07:52:34</time></trkpt><trkpt lat="55.8078960" lon="49.0926170"><time>2021-08-14T07:52:35</time></trkpt><trkpt lat="55.8079090" lon="49.0926330"><time>2021-08-14T07:52:36</time></trkpt><trkpt lat="55.8079300" lon="49.0926640"><time>2021-08-14T07:52:37</time></trkpt><trkpt lat="55.8079360" lon="49.0926780"><time>2021-08-14T07:52:38</time></trkpt><trkpt lat="55.8079430" lon="49.0927090"><time>2021-08-14T07:52:39</time></trkpt><trkpt lat="55.8079580" lon="49.0927290"><time>2021-08-14T07:52:40</time></trkpt><trkpt lat="55.8079720" lon="49.0927550"><time>2021-08-14T07:52:41</time></trkpt><trkpt lat="55.8079820" lon="49.0927750"><time>2021-08-14T07:52:42</time></trkpt><trkpt lat="55.8079990" lon="49.0927940"><time>2021-08-14T07:52:43</time></trkpt><trkpt lat="55.8080110" lon="49.0928130"><time>2021-08-14T07:52:44</time></trkpt><trkpt lat="55.8080200" lon="49.0928300"><time>2021-08-14T07:52:45</time></trkpt><trkpt lat="55.8080350" lon="49.0928480"><time>2021-08-14T07:52:46</time></trkpt><trkpt lat="55.8080610" lon="49.0928620"><time>2021-08-14T07:52:47</time></trkpt><trkpt lat="55.8080710" lon="49.0928630"><time>2021-08-14T07:52:48</time></trkpt><trkpt lat="55.8080980" lon="49.0928820"><time>2021-08-14T07:52:49</time></trkpt><trkpt lat="55.8081070" lon="49.0928870"><time>2021-08-14T07:52:50</time></trkpt><trkpt lat="55.8081330" lon="49.0929120"><time>2021-08-14T07:52:51</time></trkpt><trkpt lat="55.8081380" lon="49.0929230"><time>2021-08-14T07:52:52</time></trkpt><trkpt lat="55.8081520" lon="49.0929310"><time>2021-08-14T07:52:53</time></trkpt><trkpt lat="55.8081660" lon="49.0929470"><time>2021-08-14T07:52:54</time></trkpt><trkpt lat="55.8081790" lon="49.0929650"><time>2021-08-14T07:52:55</time></trkpt><trkpt lat="55.8081930" lon="49.0929830"><time>2021-08-14T07:52:56</time></trkpt><trkpt lat="55.8082200" lon="49.0930060"><time>2021-08-14T07:52:57</time></trkpt><trkpt lat="55.8082300" lon="49.0930130"><time>2021-08-14T07:52:58</time></trkpt><trkpt lat="55.8082400" lon="49.0930330"><time>2021-08-14T07:52:59</time></trkpt><trkpt lat="55.8082540" lon="49.0930500"><time>2021-08-14T07:53:00</time></trkpt><trkpt lat="55.8082720" lon="49.0930890"><time>2021-08-14T07:53:01</time></trkpt><trkpt lat="55.8082770" lon="49.0931010"><time>2021-08-14T07:53:02</time></trkpt><trkpt lat="55.8082890" lon="49.0931210"><time>2021-08-14T07:53:03</time></trkpt><trkpt lat="55.8083020" lon="49.0931380"><time>2021-08-14T07:53:04</time></trkpt><trkpt lat="55.8083140" lon="49.0931630"><time>2021-08-14T07:53:05</time></trkpt><trkpt lat="55.8083250" lon="49.0931770"><time>2021-08-14T07:53:06</time></trkpt><trkpt lat="55.8083390" lon="49.0931940"><time>2021-08-14T07:53:07</time></trkpt><trkpt lat="55.8083530" lon="49.0932080"><time>2021-08-14T07:53:08</time></trkpt><trkpt lat="55.8083650" lon="49.0932290"><time>2021-08-14T07:53:09</time></trkpt><trkpt lat="55.8083780" lon="49.0932490"><time>2021-08-14T07:53:10</time></trkpt><trkpt lat="55.8083930" lon="49.0932560"><time>2021-08-14T07:53:11</time></trkpt><trkpt lat="55.8084060" lon="49.0932740"><time>2021-08-14T07:53:12</time></trkpt><trkpt lat="55.8084190" lon="49.0932870"><time>2021-08-14T07:53:13</time></trkpt><trkpt lat="55.8084340" lon="49.0932990"><time>2021-08-14T07:53:14</time></trkpt><trkpt lat="55.8084450" lon="49.0933130"><time>2021-08-14T07:53:15</time></trkpt><trkpt lat="55.8084660" lon="49.0933090"><time>2021-08-14T07:53:16</time></trkpt><trkpt lat="55.8084930" lon="49.0933410"><time>2021-08-14T07:53:17</time></trkpt><trkpt lat="55.8084990" lon="49.0933530"><time>2021-08-14T07:53:18</time></trkpt><trkpt lat="55.8085170" lon="49.0933610"><time>2021-08-14T07:53:19</time></trkpt><trkpt lat="55.8085330" lon="49.0933700"><time>2021-08-14T07:53:20</time></trkpt><trkpt lat="55.8085450" lon="49.0933840"><time>2021-08-14T07:53:21</time></trkpt><trkpt lat="55.8085630" lon="49.0933900"><time>2021-08-14T07:53:22</time></trkpt><trkpt lat="55.8085730" lon="49.0934150"><time>2021-08-14T07:53:23</time></trkpt><trkpt lat="55.8085880" lon="49.0934320"><time>2021-08-14T07:53:24</time></trkpt><trkpt lat="55.8086020" lon="49.0934490"><time>2021-08-14T07:53:25</time></trkpt><trkpt lat="55.8086170" lon="49.0934670"><time>2021-08-14T07:53:26</time></trkpt><trkpt lat="55.8086330" lon="49.0934790"><time>2021-08-14T07:53:27</time></trkpt><trkpt lat="55.8086490" lon="49.0934840"><time>2021-08-14T07:53:28</time></trkpt><trkpt lat="55.8086640" lon="49.0935010"><time>2021-08-14T07:53:29</time></trkpt><trkpt lat="55.8086780" lon="49.0935220"><time>2021-08-14T07:53:30</time></trkpt><trkpt lat="55.8087030" lon="49.0935430"><time>2021-08-14T07:53:31</time></trkpt><trkpt lat="55.8087110" lon="49.0935510"><time>2021-08-14T07:53:32</time></trkpt><trkpt lat="55.8087240" lon="49.0935650"><time>2021-08-14T07:53:33</time></trkpt><trkpt lat="55.8087420" lon="49.0935680"><time>2021-08-14T07:53:34</time></trkpt><trkpt lat="55.8087580" lon="49.0935740"><time>2021-08-14T07:53:35</time></trkpt><trkpt lat="55.8087670" lon="49.0935880"><time>2021-08-14T07:53:36</time></trkpt><trkpt lat="55.8087820" lon="49.0936060"><time>2021-08-14T07:53:37</time></trkpt><trkpt lat="55.8087950" lon="49.0936300"><time>2021-08-14T07:53:38</time></trkpt><trkpt lat="55.8088050" lon="49.0936590"><time>2021-08-14T07:53:39</time></trkpt><trkpt lat="55.8088150" lon="49.0936810"><time>2021-08-14T07:53:40</time></trkpt><trkpt lat="55.8088250" lon="49.0936980"><time>2021-08-14T07:53:41</time></trkpt><trkpt lat="55.8088390" lon="49.0937120"><time>2021-08-14T07:53:42</time></trkpt><trkpt lat="55.8088550" lon="49.0937230"><time>2021-08-14T07:53:43</time></trkpt><trkpt lat="55.8088660" lon="49.0937390"><time>2021-08-14T07:53:44</time></trkpt><trkpt lat="55.8088780" lon="49.0937570"><time>2021-08-14T07:53:45</time></trkpt><trkpt lat="55.8088950" lon="49.0937650"><time>2021-08-14T07:53:46</time></trkpt><trkpt lat="55.8089100" lon="49.0937750"><time>2021-08-14T07:53:47</time></trkpt><trkpt lat="55.8089300" lon="49.0937850"><time>2021-08-14T07:53:48</time></trkpt><trkpt lat="55.8089420" lon="49.0937990"><time>2021-08-14T07:53:49</time></trkpt><trkpt lat="55.8089530" lon="49.0938160"><time>2021-08-14T07:53:50</time></trkpt><trkpt lat="55.8089690" lon="49.0938300"><time>2021-08-14T07:53:51</time></trkpt><trkpt lat="55.8089850" lon="49.0938460"><time>2021-08-14T07:53:52</time></trkpt><trkpt lat="55.8089990" lon="49.0938660"><time>2021-08-14T07:53:53</time></trkpt><trkpt lat="55.8090110" lon="49.0938880"><time>2021-08-14T07:53:54</time></trkpt><trkpt lat="55.8090200" lon="49.0939120"><time>2021-08-14T07:53:55</time></trkpt><trkpt lat="55.8090380" lon="49.0939130"><time>2021-08-14T07:53:56</time></trkpt><trkpt lat="55.8090510" lon="49.0939260"><time>2021-08-14T07:53:57</time></trkpt><trkpt lat="55.8090670" lon="49.0939460"><time>2021-08-14T07:53:58</time></trkpt><trkpt lat="55.8090800" lon="49.0939580"><time>2021-08-14T07:53:59</time></trkpt><trkpt lat="55.8091010" lon="49.0939560"><time>2021-08-14T07:54:00</time></trkpt><trkpt lat="55.8091160" lon="49.0939720"><time>2021-08-14T07:54:01</time></trkpt><trkpt lat="55.8091320" lon="49.0939780"><time>2021-08-14T07:54:02</time></trkpt><trkpt lat="55.8091420" lon="49.0940050"><time>2021-08-14T07:54:03</time></trkpt><trkpt lat="55.8091550" lon="49.0940270"><time>2021-08-14T07:54:04</time></trkpt><trkpt lat="55.8091650" lon="49.0940500"><time>2021-08-14T07:54:05</time></trkpt><trkpt lat="55.8091800" lon="49.0940620"><time>2021-08-14T07:54:06</time></trkpt><trkpt lat="55.8091890" lon="49.0940800"><time>2021-08-14T07:54:07</time></trkpt><trkpt lat="55.8092000" lon="49.0940970"><time>2021-08-14T07:54:08</time></trkpt><trkpt lat="55.8092130" lon="49.0941180"><time>2021-08-14T07:54:09</time></trkpt><trkpt lat="55.8092290" lon="49.0941300"><time>2021-08-14T07:54:10</time></trkpt><trkpt lat="55.8092340" lon="49.0941510"><time>2021-08-14T07:54:11</time></trkpt><trkpt lat="55.8092520" lon="49.0941660"><time>2021-08-14T07:54:12</time></trkpt><trkpt lat="55.8092590" lon="49.0941910"><time>2021-08-14T07:54:13</time></trkpt><trkpt lat="55.8092730" lon="49.0942060"><time>2021-08-14T07:54:14</time></trkpt><trkpt lat="55.8092900" lon="49.0942100"><time>2021-08-14T07:54:15</time></trkpt><trkpt lat="55.8093060" lon="49.0942210"><time>2021-08-14T07:54:16</time></trkpt><trkpt lat="55.8093170" lon="49.0942400"><time>2021-08-14T07:54:17</time></trkpt><trkpt lat="55.8093300" lon="49.0942550"><time>2021-08-14T07:54:18</time></trkpt><trkpt lat="55.8093450" lon="49.0942660"><time>2021-08-14T07:54:19</time></trkpt><trkpt lat="55.8093530" lon="49.0942900"><time>2021-08-14T07:54:20</time></trkpt><trkpt lat="55.8093680" lon="49.0942960"><time>2021-08-14T07:54:21</time></trkpt><trkpt lat="55.8093820" lon="49.0943130"><time>2021-08-14T07:54:22</time></trkpt><trkpt lat="55.8093920" lon="49.0943350"><time>2021-08-14T07:54:23</time></trkpt><trkpt lat="55.8093980" lon="49.0943580"><time>2021-08-14T07:54:24</time></trkpt><trkpt lat="55.8094140" lon="49.0943650"><time>2021-08-14T07:54:25</time></trkpt><trkpt lat="55.8094280" lon="49.0943730"><time>2021-08-14T07:54:26</time></trkpt><trkpt lat="55.8094510" lon="49.0943840"><time>2021-08-14T07:54:27</time></trkpt><trkpt lat="55.8094590" lon="49.0943880"><time>2021-08-14T07:54:28</time></trkpt><trkpt lat="55.8094680" lon="49.0943920"><time>2021-08-14T07:54:29</time></trkpt><trkpt lat="55.8094870" lon="49.0944010"><time>2021-08-14T07:54:30</time></trkpt><trkpt lat="55.8094990" lon="49.0944140"><time>2021-08-14T07:54:31</time></trkpt><trkpt lat="55.8095080" lon="49.0944360"><time>2021-08-14T07:54:32</time></trkpt><trkpt lat="55.8095120" lon="49.0944630"><time>2021-08-14T07:54:33</time></trkpt><trkpt lat="55.8095220" lon="49.0944860"><time>2021-08-14T07:54:34</time></trkpt><trkpt lat="55.8095300" lon="49.0945100"><time>2021-08-14T07:54:35</time></trkpt><trkpt lat="55.8095390" lon="49.0945260"><time>2021-08-14T07:54:36</time></trkpt><trkpt lat="55.8095540" lon="49.0945430"><time>2021-08-14T07:54:37</time></trkpt><trkpt lat="55.8095670" lon="49.0945620"><time>2021-08-14T07:54:38</time></trkpt><trkpt lat="55.8095820" lon="49.0945770"><time>2021-08-14T07:54:39</time></trkpt><trkpt lat="55.8095820" lon="49.0946080"><time>2021-08-14T07:54:40</time></trkpt><trkpt lat="55.8095740" lon="49.0946310"><time>2021-08-14T07:54:41</time></trkpt><trkpt lat="55.8095640" lon="49.0946460"><time>2021-08-14T07:54:42</time></trkpt><trkpt lat="55.8095560" lon="49.0946710"><time>2021-08-14T07:54:43</time></trkpt><trkpt lat="55.8095430" lon="49.0946900"><time>2021-08-14T07:54:44</time></trkpt><trkpt lat="55.8095290" lon="49.0947110"><time>2021-08-14T07:54:45</time></trkpt><trkpt lat="55.8095270" lon="49.0947330"><time>2021-08-14T07:54:46</time></trkpt><trkpt lat="55.8095230" lon="49.0947610"><time>2021-08-14T07:54:47</time></trkpt><trkpt lat="55.8095190" lon="49.0947920"><time>2021-08-14T07:54:48</time></trkpt><trkpt lat="55.8095160" lon="49.0948200"><time>2021-08-14T07:54:49</time></trkpt><trkpt lat="55.8095110" lon="49.0948560"><time>2021-08-14T07:54:50</time></trkpt><trkpt lat="55.8095080" lon="49.0948700"><time>2021-08-14T07:54:51</time></trkpt><trkpt lat="55.8095060" lon="49.0948850"><time>2021-08-14T07:54:52</time></trkpt><trkpt lat="55.8094960" lon="49.0949190"><time>2021-08-14T07:54:53</time></trkpt><trkpt lat="55.8094960" lon="49.0949380"><time>2021-08-14T07:54:54</time></trkpt><trkpt lat="55.8094960" lon="49.0949560"><time>2021-08-14T07:54:55</time></trkpt><trkpt lat="55.8094870" lon="49.0949820"><time>2021-08-14T07:54:56</time></trkpt><trkpt lat="55.8094860" lon="49.0950110"><time>2021-08-14T07:54:57</time></trkpt><trkpt lat="55.8094820" lon="49.0950340"><time>2021-08-14T07:54:58</time></trkpt><trkpt lat="55.8094820" lon="49.0950670"><time>2021-08-14T07:54:59</time></trkpt><trkpt lat="55.8094740" lon="49.0950980"><time>2021-08-14T07:55:00</time></trkpt><trkpt lat="55.8094620" lon="49.0951160"><time>2021-08-14T07:55:01</time></trkpt><trkpt lat="55.8094500" lon="49.0951350"><time>2021-08-14T07:55:02</time></trkpt><trkpt lat="55.8094390" lon="49.0951570"><time>2021-08-14T07:55:03</time></trkpt><trkpt lat="55.8094350" lon="49.0951860"><time>2021-08-14T07:55:04</time></trkpt><trkpt lat="55.8094240" lon="49.0952080"><time>2021-08-14T07:55:05</time></trkpt><trkpt lat="55.8094170" lon="49.0952330"><time>2021-08-14T07:55:06</time></trkpt><trkpt lat="55.8094070" lon="49.0952540"><time>2021-08-14T07:55:07</time></trkpt><trkpt lat="55.8093960" lon="49.0952780"><time>2021-08-14T07:55:08</time></trkpt><trkpt lat="55.8093850" lon="49.0952990"><time>2021-08-14T07:55:09</time></trkpt><trkpt lat="55.8093770" lon="49.0953240"><time>2021-08-14T07:55:10</time></trkpt><trkpt lat="55.8093680" lon="49.0953470"><time>2021-08-14T07:55:11</time></trkpt><trkpt lat="55.8093600" lon="49.0953720"><time>2021-08-14T07:55:12</time></trkpt><trkpt lat="55.8093580" lon="49.0953990"><time>2021-08-14T07:55:13</time></trkpt><trkpt lat="55.8093400" lon="49.0954380"><time>2021-08-14T07:55:14</time></trkpt><trkpt lat="55.8093330" lon="49.0954510"><time>2021-08-14T07:55:15</time></trkpt><trkpt lat="55.8093240" lon="49.0954710"><time>2021-08-14T07:55:16</time></trkpt><trkpt lat="55.8093130" lon="49.0954940"><time>2021-08-14T07:55:17</time></trkpt><trkpt lat="55.8093070" lon="49.0955150"><time>2021-08-14T07:55:18</time></trkpt><trkpt lat="55.8093000" lon="49.0955370"><time>2021-08-14T07:55:19</time></trkpt><trkpt lat="55.8092930" lon="49.0955610"><time>2021-08-14T07:55:20</time></trkpt><trkpt lat="55.8092840" lon="49.0955850"><time>2021-08-14T07:55:21</time></trkpt><trkpt lat="55.8092730" lon="49.0956020"><time>2021-08-14T07:55:22</time></trkpt><trkpt lat="55.8092680" lon="49.0956360"><time>2021-08-14T07:55:23</time></trkpt><trkpt lat="55.8092550" lon="49.0956620"><time>2021-08-14T07:55:24</time></trkpt><trkpt lat="55.8092500" lon="49.0956860"><time>2021-08-14T07:55:25</time></trkpt><trkpt lat="55.8092380" lon="49.0957020"><time>2021-08-14T07:55:26</time></trkpt><trkpt lat="55.8092320" lon="49.0957330"><time>2021-08-14T07:55:27</time></trkpt><trkpt lat="55.8092240" lon="49.0957600"><time>2021-08-14T07:55:28</time></trkpt><trkpt lat="55.8092140" lon="49.0957800"><time>2021-08-14T07:55:29</time></trkpt><trkpt lat="55.8092010" lon="49.0957970"><time>2021-08-14T07:55:30</time></trkpt><trkpt lat="55.8091870" lon="49.0958170"><time>2021-08-14T07:55:31</time></trkpt><trkpt lat="55.8091770" lon="49.0958430"><time>2021-08-14T07:55:32</time></trkpt><trkpt lat="55.8091720" lon="49.0958650"><time>2021-08-14T07:55:33</time></trkpt><trkpt lat="55.8091640" lon="49.0958880"><time>2021-08-14T07:55:34</time></trkpt><trkpt lat="55.8091530" lon="49.0959130"><time>2021-08-14T07:55:35</time></trkpt><trkpt lat="55.8091470" lon="49.0959410"><time>2021-08-14T07:55:36</time></trkpt><trkpt lat="55.8091400" lon="49.0959690"><time>2021-08-14T07:55:37</time></trkpt><trkpt lat="55.8091400" lon="49.0959970"><time>2021-08-14T07:55:38</time></trkpt><trkpt lat="55.8091360" lon="49.0960250"><time>2021-08-14T07:55:39</time></trkpt><trkpt lat="55.8091290" lon="49.0960530"><time>2021-08-14T07:55:40</time></trkpt><trkpt lat="55.8091230" lon="49.0960830"><time>2021-08-14T07:55:41</time></trkpt><trkpt lat="55.8091330" lon="49.0961290"><time>2021-08-14T07:55:42</time></trkpt><trkpt lat="55.8091360" lon="49.0961450"><time>2021-08-14T07:55:43</time></trkpt><trkpt lat="55.8091450" lon="49.0961750"><time>2021-08-14T07:55:44</time></trkpt><trkpt lat="55.8091460" lon="49.0962040"><time>2021-08-14T07:55:45</time></trkpt><trkpt lat="55.8091480" lon="49.0962320"><time>2021-08-14T07:55:46</time></trkpt><trkpt lat="55.8091580" lon="49.0962640"><time>2021-08-14T07:55:47</time></trkpt><trkpt lat="55.8091640" lon="49.0962900"><time>2021-08-14T07:55:48</time></trkpt><trkpt lat="55.8091780" lon="49.0963100"><time>2021-08-14T07:55:49</time></trkpt><trkpt lat="55.8091920" lon="49.0963250"><time>2021-08-14T07:55:50</time></trkpt><trkpt lat="55.8092030" lon="49.0963430"><time>2021-08-14T07:55:51</time></trkpt><trkpt lat="55.8092180" lon="49.0963520"><time>2021-08-14T07:55:52</time></trkpt><trkpt lat="55.8092290" lon="49.0963670"><time>2021-08-14T07:55:53</time></trkpt><trkpt lat="55.8092410" lon="49.0963870"><time>2021-08-14T07:55:54</time></trkpt><trkpt lat="55.8092540" lon="49.0964040"><time>2021-08-14T07:55:55</time></trkpt><trkpt lat="55.8092670" lon="49.0964250"><time>2021-08-14T07:55:56</time></trkpt><trkpt lat="55.8092770" lon="49.0964450"><time>2021-08-14T07:55:57</time></trkpt><trkpt lat="55.8092940" lon="49.0964750"><time>2021-08-14T07:55:58</time></trkpt><trkpt lat="55.8093000" lon="49.0964880"><time>2021-08-14T07:55:59</time></trkpt><trkpt lat="55.8093070" lon="49.0965010"><time>2021-08-14T07:56:00</time></trkpt><trkpt lat="55.8093120" lon="49.0965330"><time>2021-08-14T07:56:01</time></trkpt><trkpt lat="55.8093270" lon="49.0965450"><time>2021-08-14T07:56:02</time></trkpt><trkpt lat="55.8093380" lon="49.0965630"><time>2021-08-14T07:56:03</time></trkpt><trkpt lat="55.8093490" lon="49.0965840"><time>2021-08-14T07:56:04</time></trkpt><trkpt lat="55.8093580" lon="49.0966060"><time>2021-08-14T07:56:05</time></trkpt><trkpt lat="55.8093650" lon="49.0966260"><time>2021-08-14T07:56:06</time></trkpt><trkpt lat="55.8093760" lon="49.0966450"><time>2021-08-14T07:56:07</time></trkpt><trkpt lat="55.8093880" lon="49.0966640"><time>2021-08-14T07:56:08</time></trkpt><trkpt lat="55.8094010" lon="49.0966800"><time>2021-08-14T07:56:09</time></trkpt><trkpt lat="55.8094100" lon="49.0967020"><time>2021-08-14T07:56:10</time></trkpt><trkpt lat="55.8094260" lon="49.0967200"><time>2021-08-14T07:56:11</time></trkpt><trkpt lat="55.8094320" lon="49.0967420"><time>2021-08-14T07:56:12</time></trkpt><trkpt lat="55.8094450" lon="49.0967580"><time>2021-08-14T07:56:13</time></trkpt><trkpt lat="55.8094620" lon="49.0967670"><time>2021-08-14T07:56:14</time></trkpt><trkpt lat="55.8094660" lon="49.0967910"><time>2021-08-14T07:56:15</time></trkpt><trkpt lat="55.8094780" lon="49.0968080"><time>2021-08-14T07:56:16</time></trkpt><trkpt lat="55.8094910" lon="49.0968200"><time>2021-08-14T07:56:17</time></trkpt><trkpt lat="55.8095060" lon="49.0968370"><time>2021-08-14T07:56:18</time></trkpt><trkpt lat="55.8095170" lon="49.0968560"><time>2021-08-14T07:56:19</time></trkpt><trkpt lat="55.8095350" lon="49.0968670"><time>2021-08-14T07:56:20</time></trkpt><trkpt lat="55.8095500" lon="49.0968820"><time>2021-08-14T07:56:21</time></trkpt><trkpt lat="55.8095640" lon="49.0968910"><time>2021-08-14T07:56:22</time></trkpt><trkpt lat="55.8095780" lon="49.0969140"><time>2021-08-14T07:56:23</time></trkpt><trkpt lat="55.8095890" lon="49.0969370"><time>2021-08-14T07:56:24</time></trkpt><trkpt lat="55.8096000" lon="49.0969550"><time>2021-08-14T07:56:25</time></trkpt><trkpt lat="55.8096070" lon="49.0969790"><time>2021-08-14T07:56:26</time></trkpt><trkpt lat="55.8096230" lon="49.0969850"><time>2021-08-14T07:56:27</time></trkpt><trkpt lat="55.8096380" lon="49.0969930"><time>2021-08-14T07:56:28</time></trkpt><trkpt lat="55.8096510" lon="49.0970060"><time>2021-08-14T07:56:29</time></trkpt><trkpt lat="55.8096670" lon="49.0970180"><time>2021-08-14T07:56:30</time></trkpt><trkpt lat="55.8096760" lon="49.0970420"><time>2021-08-14T07:56:31</time></trkpt><trkpt lat="55.8096900" lon="49.0970600"><time>2021-08-14T07:56:32</time></trkpt><trkpt lat="55.8097050" lon="49.0970630"><time>2021-08-14T07:56:33</time></trkpt><trkpt lat="55.8097160" lon="49.0970880"><time>2021-08-14T07:56:34</time></trkpt><trkpt lat="55.8097240" lon="49.0971160"><time>2021-08-14T07:56:35</time></trkpt><trkpt lat="55.8097400" lon="49.0971330"><time>2021-08-14T07:56:36</time></trkpt><trkpt lat="55.8097540" lon="49.0971460"><time>2021-08-14T07:56:37</time></trkpt><trkpt lat="55.8097700" lon="49.0971650"><time>2021-08-14T07:56:38</time></trkpt><trkpt lat="55.8097830" lon="49.0971780"><time>2021-08-14T07:56:39</time></trkpt><trkpt lat="55.8097900" lon="49.0972070"><time>2021-08-14T07:56:40</time></trkpt><trkpt lat="55.8098040" lon="49.0972200"><time>2021-08-14T07:56:41</time></trkpt><trkpt lat="55.8098150" lon="49.0972420"><time>2021-08-14T07:56:42</time></trkpt><trkpt lat="55.8098270" lon="49.0972640"><time>2021-08-14T07:56:43</time></trkpt><trkpt lat="55.8098420" lon="49.0972720"><time>2021-08-14T07:56:44</time></trkpt><trkpt lat="55.8098670" lon="49.0972960"><time>2021-08-14T07:56:45</time></trkpt><trkpt lat="55.8098750" lon="49.0973040"><time>2021-08-14T07:56:46</time></trkpt><trkpt lat="55.8098910" lon="49.0973110"><time>2021-08-14T07:56:47</time></trkpt><trkpt lat="55.8099090" lon="49.0973270"><time>2021-08-14T07:56:48</time></trkpt><trkpt lat="55.8099220" lon="49.0973450"><time>2021-08-14T07:56:49</time></trkpt><trkpt lat="55.8099310" lon="49.0973540"><time>2021-08-14T07:56:50</time></trkpt><trkpt lat="55.8099360" lon="49.0973630"><time>2021-08-14T07:56:51</time></trkpt><trkpt lat="55.8099080" lon="49.0973600"><time>2021-08-14T07:56:52</time></trkpt><trkpt lat="55.8098950" lon="49.0973610"><time>2021-08-14T07:56:53</time></trkpt><trkpt lat="55.8098680" lon="49.0973770"><time>2021-08-14T07:56:54</time></trkpt><trkpt lat="55.8098580" lon="49.0973870"><time>2021-08-14T07:56:55</time></trkpt><trkpt lat="55.8098340" lon="49.0974120"><time>2021-08-14T07:56:56</time></trkpt><trkpt lat="55.8098090" lon="49.0974550"><time>2021-08-14T07:56:57</time></trkpt><trkpt lat="55.8098020" lon="49.0974730"><time>2021-08-14T07:56:58</time></trkpt><trkpt lat="55.8097800" lon="49.0975090"><time>2021-08-14T07:56:59</time></trkpt><trkpt lat="55.8097740" lon="49.0975230"><time>2021-08-14T07:57:00</time></trkpt><trkpt lat="55.8097580" lon="49.0975650"><time>2021-08-14T07:57:01</time></trkpt><trkpt lat="55.8097510" lon="49.0975780"><time>2021-08-14T07:57:02</time></trkpt><trkpt lat="55.8097260" lon="49.0976010"><time>2021-08-14T07:57:03</time></trkpt><trkpt lat="55.8097180" lon="49.0976100"><time>2021-08-14T07:57:04</time></trkpt><trkpt lat="55.8097050" lon="49.0976290"><time>2021-08-14T07:57:05</time></trkpt><trkpt lat="55.8096940" lon="49.0976480"><time>2021-08-14T07:57:06</time></trkpt><trkpt lat="55.8096820" lon="49.0976800"><time>2021-08-14T07:57:07</time></trkpt><trkpt lat="55.8096770" lon="49.0976920"><time>2021-08-14T07:57:08</time></trkpt><trkpt lat="55.8096720" lon="49.0977040"><time>2021-08-14T07:57:09</time></trkpt><trkpt lat="55.8096650" lon="49.0977290"><time>2021-08-14T07:57:10</time></trkpt><trkpt lat="55.8096600" lon="49.0977530"><time>2021-08-14T07:57:11</time></trkpt><trkpt lat="55.8096490" lon="49.0977880"><time>2021-08-14T07:57:12</time></trkpt><trkpt lat="55.8096450" lon="49.0978020"><time>2021-08-14T07:57:13</time></trkpt><trkpt lat="55.8096420" lon="49.0978160"><time>2021-08-14T07:57:14</time></trkpt><trkpt lat="55.8096350" lon="49.0978490"><time>2021-08-14T07:57:15</time></trkpt><trkpt lat="55.8096320" lon="49.0978720"><time>2021-08-14T07:57:16</time></trkpt><trkpt lat="55.8096380" lon="49.0979250"><time>2021-08-14T07:57:17</time></trkpt><trkpt lat="55.8096360" lon="49.0979390"><time>2021-08-14T07:57:18</time></trkpt><trkpt lat="55.8096380" lon="49.0979870"><time>2021-08-14T07:57:19</time></trkpt><trkpt lat="55.8096420" lon="49.0980050"><time>2021-08-14T07:57:20</time></trkpt><trkpt lat="55.8096490" lon="49.0980600"><time>2021-08-14T07:57:21</time></trkpt><trkpt lat="55.8096510" lon="49.0980780"><time>2021-08-14T07:57:22</time></trkpt><trkpt lat="55.8096340" lon="49.0981290"><time>2021-08-14T07:57:23</time></trkpt><trkpt lat="55.8096330" lon="49.0981430"><time>2021-08-14T07:57:24</time></trkpt><trkpt lat="55.8096250" lon="49.0981710"><time>2021-08-14T07:57:25</time></trkpt><trkpt lat="55.8096150" lon="49.0981930"><time>2021-08-14T07:57:26</time></trkpt><trkpt lat="55.8095950" lon="49.0982090"><time>2021-08-14T07:57:27</time></trkpt><trkpt lat="55.8095860" lon="49.0982180"><time>2021-08-14T07:57:28</time></trkpt><trkpt lat="55.8095600" lon="49.0982450"><time>2021-08-14T07:57:29</time></trkpt><trkpt lat="55.8095510" lon="49.0982530"><time>2021-08-14T07:57:30</time></trkpt><trkpt lat="55.8095360" lon="49.0982470"><time>2021-08-14T07:57:31</time></trkpt><trkpt lat="55.8095170" lon="49.0982530"><time>2021-08-14T07:57:32</time></trkpt><trkpt lat="55.8094820" lon="49.0982590"><time>2021-08-14T07:57:33</time></trkpt><trkpt lat="55.8094710" lon="49.0982700"><time>2021-08-14T07:57:34</time></trkpt><trkpt lat="55.8094520" lon="49.0982750"><time>2021-08-14T07:57:35</time></trkpt><trkpt lat="55.8094440" lon="49.0982800"><time>2021-08-14T07:57:36</time></trkpt><trkpt lat="55.8094280" lon="49.0982950"><time>2021-08-14T07:57:37</time></trkpt><trkpt lat="55.8094170" lon="49.0983090"><time>2021-08-14T07:57:38</time></trkpt><trkpt lat="55.8093890" lon="49.0983270"><time>2021-08-14T07:57:39</time></trkpt><trkpt lat="55.8093810" lon="49.0983380"><time>2021-08-14T07:57:40</time></trkpt><trkpt lat="55.8093650" lon="49.0983410"><time>2021-08-14T07:57:41</time></trkpt><trkpt lat="55.8093480" lon="49.0983450"><time>2021-08-14T07:57:42</time></trkpt><trkpt lat="55.8093160" lon="49.0983450"><time>2021-08-14T07:57:43</time></trkpt><trkpt lat="55.8093060" lon="49.0983380"><time>2021-08-14T07:57:44</time></trkpt><trkpt lat="55.8092800" lon="49.0983560"><time>2021-08-14T07:57:45</time></trkpt><trkpt lat="55.8092700" lon="49.0983640"><time>2021-08-14T07:57:46</time></trkpt><trkpt lat="55.8092460" lon="49.0983850"><time>2021-08-14T07:57:47</time></trkpt><trkpt lat="55.8092360" lon="49.0983960"><time>2021-08-14T07:57:48</time></trkpt><trkpt lat="55.8092170" lon="49.0984450"><time>2021-08-14T07:57:49</time></trkpt><trkpt lat="55.8092090" lon="49.0984570"><time>2021-08-14T07:57:50</time></trkpt><trkpt lat="55.8091860" lon="49.0984910"><time>2021-08-14T07:57:51</time></trkpt><trkpt lat="55.8091790" lon="49.0985010"><time>2021-08-14T07:57:52</time></trkpt><trkpt lat="55.8091670" lon="49.0985250"><time>2021-08-14T07:57:53</time></trkpt><trkpt lat="55.8091580" lon="49.0985400"><time>2021-08-14T07:57:54</time></trkpt><trkpt lat="55.8091410" lon="49.0985200"><time>2021-08-14T07:57:55</time></trkpt><trkpt lat="55.8091270" lon="49.0985350"><time>2021-08-14T07:57:56</time></trkpt><trkpt lat="55.8091120" lon="49.0985580"><time>2021-08-14T07:57:57</time></trkpt><trkpt lat="55.8091010" lon="49.0985670"><time>2021-08-14T07:57:58</time></trkpt><trkpt lat="55.8090910" lon="49.0985760"><time>2021-08-14T07:57:59</time></trkpt><trkpt lat="55.8090680" lon="49.0986010"><time>2021-08-14T07:58:00</time></trkpt><trkpt lat="55.8090610" lon="49.0986140"><time>2021-08-14T07:58:01</time></trkpt><trkpt lat="55.8090450" lon="49.0986140"><time>2021-08-14T07:58:02</time></trkpt><trkpt lat="55.8090250" lon="49.0986170"><time>2021-08-14T07:58:03</time></trkpt><trkpt lat="55.8090140" lon="49.0986400"><time>2021-08-14T07:58:04</time></trkpt><trkpt lat="55.8090010" lon="49.0986580"><time>2021-08-14T07:58:05</time></trkpt><trkpt lat="55.8089830" lon="49.0986710"><time>2021-08-14T07:58:06</time></trkpt><trkpt lat="55.8089690" lon="49.0986840"><time>2021-08-14T07:58:07</time></trkpt><trkpt lat="55.8089450" lon="49.0987050"><time>2021-08-14T07:58:08</time></trkpt><trkpt lat="55.8089360" lon="49.0987150"><time>2021-08-14T07:58:09</time></trkpt><trkpt lat="55.8089190" lon="49.0987180"><time>2021-08-14T07:58:10</time></trkpt><trkpt lat="55.8089020" lon="49.0987200"><time>2021-08-14T07:58:11</time></trkpt><trkpt lat="55.8088860" lon="49.0987170"><time>2021-08-14T07:58:12</time></trkpt><trkpt lat="55.8088700" lon="49.0987240"><time>2021-08-14T07:58:13</time></trkpt><trkpt lat="55.8088530" lon="49.0987420"><time>2021-08-14T07:58:14</time></trkpt><trkpt lat="55.8088380" lon="49.0987370"><time>2021-08-14T07:58:15</time></trkpt><trkpt lat="55.8088140" lon="49.0987670"><time>2021-08-14T07:58:16</time></trkpt><trkpt lat="55.8088060" lon="49.0987770"><time>2021-08-14T07:58:17</time></trkpt><trkpt lat="55.8087830" lon="49.0988000"><time>2021-08-14T07:58:18</time></trkpt><trkpt lat="55.8087730" lon="49.0988040"><time>2021-08-14T07:58:19</time></trkpt><trkpt lat="55.8087620" lon="49.0988250"><time>2021-08-14T07:58:20</time></trkpt><trkpt lat="55.8087470" lon="49.0988420"><time>2021-08-14T07:58:21</time></trkpt><trkpt lat="55.8087320" lon="49.0988440"><time>2021-08-14T07:58:22</time></trkpt><trkpt lat="55.8087160" lon="49.0988550"><time>2021-08-14T07:58:23</time></trkpt><trkpt lat="55.8086970" lon="49.0988870"><time>2021-08-14T07:58:24</time></trkpt><trkpt lat="55.8086880" lon="49.0988960"><time>2021-08-14T07:58:25</time></trkpt><trkpt lat="55.8086700" lon="49.0989300"><time>2021-08-14T07:58:26</time></trkpt><trkpt lat="55.8086620" lon="49.0989420"><time>2021-08-14T07:58:27</time></trkpt><trkpt lat="55.8086450" lon="49.0989530"><time>2021-08-14T07:58:28</time></trkpt><trkpt lat="55.8086300" lon="49.0989620"><time>2021-08-14T07:58:29</time></trkpt><trkpt lat="55.8086160" lon="49.0989730"><time>2021-08-14T07:58:30</time></trkpt><trkpt lat="55.8086040" lon="49.0989760"><time>2021-08-14T07:58:31</time></trkpt><trkpt lat="55.8085760" lon="49.0989860"><time>2021-08-14T07:58:32</time></trkpt><trkpt lat="55.8085660" lon="49.0989810"><time>2021-08-14T07:58:33</time></trkpt><trkpt lat="55.8085540" lon="49.0989880"><time>2021-08-14T07:58:34</time></trkpt><trkpt lat="55.8085380" lon="49.0990040"><time>2021-08-14T07:58:35</time></trkpt><trkpt lat="55.8085210" lon="49.0990130"><time>2021-08-14T07:58:36</time></trkpt><trkpt lat="55.8085110" lon="49.0990210"><time>2021-08-14T07:58:37</time></trkpt><trkpt lat="55.8084940" lon="49.0990300"><time>2021-08-14T07:58:38</time></trkpt><trkpt lat="55.8084820" lon="49.0990390"><time>2021-08-14T07:58:39</time></trkpt><trkpt lat="55.8084690" lon="49.0990320"><time>2021-08-14T07:58:40</time></trkpt><trkpt lat="55.8084550" lon="49.0990190"><time>2021-08-14T07:58:41</time></trkpt><trkpt lat="55.8084340" lon="49.0989830"><time>2021-08-14T07:58:42</time></trkpt><trkpt lat="55.8084280" lon="49.0989720"><time>2021-08-14T07:58:43</time></trkpt><trkpt lat="55.8084200" lon="49.0989440"><time>2021-08-14T07:58:44</time></trkpt><trkpt lat="55.8084120" lon="49.0989280"><time>2021-08-14T07:58:45</time></trkpt><trkpt lat="55.8084010" lon="49.0989080"><time>2021-08-14T07:58:46</time></trkpt><trkpt lat="55.8083950" lon="49.0989020"><time>2021-08-14T07:58:47</time></trkpt><trkpt lat="55.8083940" lon="49.0988770"><time>2021-08-14T07:58:48</time></trkpt><trkpt lat="55.8083860" lon="49.0988550"><time>2021-08-14T07:58:49</time></trkpt><trkpt lat="55.8083840" lon="49.0988320"><time>2021-08-14T07:58:50</time></trkpt><trkpt lat="55.8083720" lon="49.0988070"><time>2021-08-14T07:58:51</time></trkpt><trkpt lat="55.8083590" lon="49.0987950"><time>2021-08-14T07:58:52</time></trkpt><trkpt lat="55.8083310" lon="49.0987760"><time>2021-08-14T07:58:53</time></trkpt><trkpt lat="55.8083220" lon="49.0987730"><time>2021-08-14T07:58:54</time></trkpt><trkpt lat="55.8083090" lon="49.0987670"><time>2021-08-14T07:58:55</time></trkpt><trkpt lat="55.8082980" lon="49.0987410"><time>2021-08-14T07:58:56</time></trkpt><trkpt lat="55.8082850" lon="49.0987230"><time>2021-08-14T07:58:57</time></trkpt><trkpt lat="55.8082730" lon="49.0987080"><time>2021-08-14T07:58:58</time></trkpt><trkpt lat="55.8082650" lon="49.0986850"><time>2021-08-14T07:58:59</time></trkpt><trkpt lat="55.8082530" lon="49.0986690"><time>2021-08-14T07:59:00</time></trkpt><trkpt lat="55.8082400" lon="49.0986640"><time>2021-08-14T07:59:01</time></trkpt><trkpt lat="55.8082250" lon="49.0986560"><time>2021-08-14T07:59:02</time></trkpt><trkpt lat="55.8082190" lon="49.0986390"><time>2021-08-14T07:59:03</time></trkpt><trkpt lat="55.8082040" lon="49.0986310"><time>2021-08-14T07:59:04</time></trkpt><trkpt lat="55.8081950" lon="49.0986280"><time>2021-08-14T07:59:05</time></trkpt><trkpt lat="55.8081840" lon="49.0986170"><time>2021-08-14T07:59:06</time></trkpt><trkpt lat="55.8081770" lon="49.0986080"><time>2021-08-14T07:59:07</time></trkpt><trkpt lat="55.8081760" lon="49.0985960"><time>2021-08-14T07:59:08</time></trkpt><trkpt lat="55.8081730" lon="49.0985820"><time>2021-08-14T07:59:09</time></trkpt><trkpt lat="55.8081720" lon="49.0985630"><time>2021-08-14T07:59:10</time></trkpt><trkpt lat="55.8081660" lon="49.0985390"><time>2021-08-14T07:59:11</time></trkpt><trkpt lat="55.8081550" lon="49.0985260"><time>2021-08-14T07:59:12</time></trkpt><trkpt lat="55.8081470" lon="49.0985130"><time>2021-08-14T07:59:13</time></trkpt><trkpt lat="55.8081390" lon="49.0984960"><time>2021-08-14T07:59:14</time></trkpt><trkpt lat="55.8081360" lon="49.0984740"><time>2021-08-14T07:59:15</time></trkpt><trkpt lat="55.8081290" lon="49.0984520"><time>2021-08-14T07:59:16</time></trkpt><trkpt lat="55.8081190" lon="49.0984330"><time>2021-08-14T07:59:17</time></trkpt><trkpt lat="55.8081070" lon="49.0984140"><time>2021-08-14T07:59:18</time></trkpt><trkpt lat="55.8080970" lon="49.0983910"><time>2021-08-14T07:59:19</time></trkpt><trkpt lat="55.8080900" lon="49.0983700"><time>2021-08-14T07:59:20</time></trkpt><trkpt lat="55.8080820" lon="49.0983480"><time>2021-08-14T07:59:21</time></trkpt><trkpt lat="55.8080710" lon="49.0983230"><time>2021-08-14T07:59:22</time></trkpt><trkpt lat="55.8080670" lon="49.0982990"><time>2021-08-14T07:59:23</time></trkpt><trkpt lat="55.8080610" lon="49.0982620"><time>2021-08-14T07:59:24</time></trkpt><trkpt lat="55.8080580" lon="49.0982460"><time>2021-08-14T07:59:25</time></trkpt><trkpt lat="55.8080560" lon="49.0982310"><time>2021-08-14T07:59:26</time></trkpt><trkpt lat="55.8080480" lon="49.0982070"><time>2021-08-14T07:59:27</time></trkpt><trkpt lat="55.8080440" lon="49.0981840"><time>2021-08-14T07:59:28</time></trkpt><trkpt lat="55.8080400" lon="49.0981580"><time>2021-08-14T07:59:29</time></trkpt><trkpt lat="55.8080320" lon="49.0981370"><time>2021-08-14T07:59:30</time></trkpt><trkpt lat="55.8080250" lon="49.0980970"><time>2021-08-14T07:59:31</time></trkpt><trkpt lat="55.8080220" lon="49.0980820"><time>2021-08-14T07:59:32</time></trkpt><trkpt lat="55.8080190" lon="49.0980660"><time>2021-08-14T07:59:33</time></trkpt><trkpt lat="55.8080130" lon="49.0980360"><time>2021-08-14T07:59:34</time></trkpt><trkpt lat="55.8080080" lon="49.0980140"><time>2021-08-14T07:59:35</time></trkpt><trkpt lat="55.8079990" lon="49.0979910"><time>2021-08-14T07:59:36</time></trkpt><trkpt lat="55.8079920" lon="49.0979710"><time>2021-08-14T07:59:37</time></trkpt><trkpt lat="55.8079860" lon="49.0979480"><time>2021-08-14T07:59:38</time></trkpt><trkpt lat="55.8079800" lon="49.0979230"><time>2021-08-14T07:59:39</time></trkpt><trkpt lat="55.8079840" lon="49.0978970"><time>2021-08-14T07:59:40</time></trkpt><trkpt lat="55.8079720" lon="49.0978750"><time>2021-08-14T07:59:41</time></trkpt><trkpt lat="55.8079640" lon="49.0978500"><time>2021-08-14T07:59:42</time></trkpt><trkpt lat="55.8079600" lon="49.0978230"><time>2021-08-14T07:59:43</time></trkpt><trkpt lat="55.8079530" lon="49.0978010"><time>2021-08-14T07:59:44</time></trkpt><trkpt lat="55.8079430" lon="49.0977750"><time>2021-08-14T07:59:45</time></trkpt><trkpt lat="55.8079350" lon="49.0977480"><time>2021-08-14T07:59:46</time></trkpt><trkpt lat="55.8079290" lon="49.0977220"><time>2021-08-14T07:59:47</time></trkpt><trkpt lat="55.8079250" lon="49.0976950"><time>2021-08-14T07:59:48</time></trkpt><trkpt lat="55.8079220" lon="49.0976670"><time>2021-08-14T07:59:49</time></trkpt><trkpt lat="55.8079120" lon="49.0976390"><time>2021-08-14T07:59:50</time></trkpt><trkpt lat="55.8079070" lon="49.0976090"><time>2021-08-14T07:59:51</time></trkpt><trkpt lat="55.8079050" lon="49.0975840"><time>2021-08-14T07:59:52</time></trkpt><trkpt lat="55.8079010" lon="49.0975560"><time>2021-08-14T07:59:53</time></trkpt><trkpt lat="55.8078920" lon="49.0975300"><time>2021-08-14T07:59:54</time></trkpt><trkpt lat="55.8078850" lon="49.0975000"><time>2021-08-14T07:59:55</time></trkpt><trkpt lat="55.8078760" lon="49.0974730"><time>2021-08-14T07:59:56</time></trkpt><trkpt lat="55.8078690" lon="49.0974480"><time>2021-08-14T07:59:57</time></trkpt><trkpt lat="55.8078580" lon="49.0974240"><time>2021-08-14T07:59:58</time></trkpt><trkpt lat="55.8078470" lon="49.0973980"><time>2021-08-14T07:59:59</time></trkpt><trkpt lat="55.8078440" lon="49.0973700"><time>2021-08-14T08:00:00</time></trkpt><trkpt lat="55.8078390" lon="49.0973430"><time>2021-08-14T08:00:01</time></trkpt><trkpt lat="55.8078330" lon="49.0973140"><time>2021-08-14T08:00:02</time></trkpt><trkpt lat="55.8078210" lon="49.0972900"><time>2021-08-14T08:00:03</time></trkpt><trkpt lat="55.8078160" lon="49.0972640"><time>2021-08-14T08:00:04</time></trkpt><trkpt lat="55.8078110" lon="49.0972350"><time>2021-08-14T08:00:05</time></trkpt><trkpt lat="55.8078050" lon="49.0972070"><time>2021-08-14T08:00:06</time></trkpt><trkpt lat="55.8077970" lon="49.0971830"><time>2021-08-14T08:00:07</time></trkpt><trkpt lat="55.8077920" lon="49.0971580"><time>2021-08-14T08:00:08</time></trkpt><trkpt lat="55.8077850" lon="49.0971330"><time>2021-08-14T08:00:09</time></trkpt><trkpt lat="55.8077800" lon="49.0971050"><time>2021-08-14T08:00:10</time></trkpt><trkpt lat="55.8077760" lon="49.0970790"><time>2021-08-14T08:00:11</time></trkpt><trkpt lat="55.8077630" lon="49.0970530"><time>2021-08-14T08:00:12</time></trkpt><trkpt lat="55.8077600" lon="49.0970270"><time>2021-08-14T08:00:13</time></trkpt><trkpt lat="55.8077480" lon="49.0969990"><time>2021-08-14T08:00:14</time></trkpt><trkpt lat="55.8077430" lon="49.0969710"><time>2021-08-14T08:00:15</time></trkpt><trkpt lat="55.8077420" lon="49.0969440"><time>2021-08-14T08:00:16</time></trkpt><trkpt lat="55.8077360" lon="49.0969160"><time>2021-08-14T08:00:17</time></trkpt><trkpt lat="55.8077220" lon="49.0968740"><time>2021-08-14T08:00:18</time></trkpt><trkpt lat="55.8077160" lon="49.0968600"><time>2021-08-14T08:00:19</time></trkpt><trkpt lat="55.8077070" lon="49.0968390"><time>2021-08-14T08:00:20</time></trkpt><trkpt lat="55.8077000" lon="49.0968160"><time>2021-08-14T08:00:21</time></trkpt><trkpt lat="55.8076910" lon="49.0967870"><time>2021-08-14T08:00:22</time></trkpt><trkpt lat="55.8076860" lon="49.0967590"><time>2021-08-14T08:00:23</time></trkpt><trkpt lat="55.8076750" lon="49.0967290"><time>2021-08-14T08:00:24</time></trkpt><trkpt lat="55.8076700" lon="49.0967030"><time>2021-08-14T08:00:25</time></trkpt><trkpt lat="55.8076610" lon="49.0966760"><time>2021-08-14T08:00:26</time></trkpt><trkpt lat="55.8076520" lon="49.0966500"><time>2021-08-14T08:00:27</time></trkpt><trkpt lat="55.8076470" lon="49.0966220"><time>2021-08-14T08:00:28</time></trkpt><trkpt lat="55.8076430" lon="49.0965950"><time>2021-08-14T08:00:29</time></trkpt><trkpt lat="55.8076340" lon="49.0965680"><time>2021-08-14T08:00:30</time></trkpt><trkpt lat="55.8076310" lon="49.0965400"><time>2021-08-14T08:00:31</time></trkpt><trkpt lat="55.8076240" lon="49.0965140"><time>2021-08-14T08:00:32</time></trkpt><trkpt lat="55.8076110" lon="49.0964940"><time>2021-08-14T08:00:33</time></trkpt><trkpt lat="55.8075980" lon="49.0964720"><time>2021-08-14T08:00:34</time></trkpt><trkpt lat="55.8075900" lon="49.0964410"><time>2021-08-14T08:00:35</time></trkpt><trkpt lat="55.8075890" lon="49.0964100"><time>2021-08-14T08:00:36</time></trkpt><trkpt lat="55.8075850" lon="49.0963860"><time>2021-08-14T08:00:37</time></trkpt><trkpt lat="55.8075810" lon="49.0963580"><time>2021-08-14T08:00:38</time></trkpt><trkpt lat="55.8075750" lon="49.0963290"><time>2021-08-14T08:00:39</time></trkpt><trkpt lat="55.8075620" lon="49.0963020"><time>2021-08-14T08:00:40</time></trkpt><trkpt lat="55.8075560" lon="49.0962790"><time>2021-08-14T08:00:41</time></trkpt><trkpt lat="55.8075500" lon="49.0962610"><time>2021-08-14T08:00:42</time></trkpt><trkpt lat="55.8075460" lon="49.0962250"><time>2021-08-14T08:00:43</time></trkpt><trkpt lat="55.8075450" lon="49.0962030"><time>2021-08-14T08:00:44</time></trkpt><trkpt lat="55.8075330" lon="49.0961780"><time>2021-08-14T08:00:45</time></trkpt><trkpt lat="55.8075240" lon="49.0961500"><time>2021-08-14T08:00:46</time></trkpt><trkpt lat="55.8075130" lon="49.0961260"><time>2021-08-14T08:00:47</time></trkpt><trkpt lat="55.8075080" lon="49.0960980"><time>2021-08-14T08:00:48</time></trkpt><trkpt lat="55.8074980" lon="49.0960740"><time>2021-08-14T08:00:49</time></trkpt><trkpt lat="55.8074840" lon="49.0960290"><time>2021-08-14T08:00:50</time></trkpt><trkpt lat="55.8074830" lon="49.0960130"><time>2021-08-14T08:00:51</time></trkpt><trkpt lat="55.8074740" lon="49.0959880"><time>2021-08-14T08:00:52</time></trkpt><trkpt lat="55.8074680" lon="49.0959610"><time>2021-08-14T08:00:53</time></trkpt><trkpt lat="55.8074660" lon="49.0959320"><time>2021-08-14T08:00:54</time></trkpt><trkpt lat="55.8074550" lon="49.0959080"><time>2021-08-14T08:00:55</time></trkpt><trkpt lat="55.8074460" lon="49.0958820"><time>2021-08-14T08:00:56</time></trkpt><trkpt lat="55.8074390" lon="49.0958590"><time>2021-08-14T08:00:57</time></trkpt><trkpt lat="55.8074360" lon="49.0958350"><time>2021-08-14T08:00:58</time></trkpt><trkpt lat="55.8074270" lon="49.0958110"><time>2021-08-14T08:00:59</time></trkpt><trkpt lat="55.8074180" lon="49.0957840"><time>2021-08-14T08:01:00</time></trkpt><trkpt lat="55.8074060" lon="49.0957660"><time>2021-08-14T08:01:01</time></trkpt><trkpt lat="55.8074010" lon="49.0957340"><time>2021-08-14T08:01:02</time></trkpt><trkpt lat="55.8073990" lon="49.0957080"><time>2021-08-14T08:01:03</time></trkpt><trkpt lat="55.8073940" lon="49.0956790"><time>2021-08-14T08:01:04</time></trkpt><trkpt lat="55.8073840" lon="49.0956510"><time>2021-08-14T08:01:05</time></trkpt><trkpt lat="55.8073740" lon="49.0956230"><time>2021-08-14T08:01:06</time></trkpt><trkpt lat="55.8073640" lon="49.0956020"><time>2021-08-14T08:01:07</time></trkpt><trkpt lat="55.8073600" lon="49.0955730"><time>2021-08-14T08:01:08</time></trkpt><trkpt lat="55.8073580" lon="49.0955390"><time>2021-08-14T08:01:09</time></trkpt><trkpt lat="55.8073530" lon="49.0955110"><time>2021-08-14T08:01:10</time></trkpt><trkpt lat="55.8073430" lon="49.0954840"><time>2021-08-14T08:01:11</time></trkpt><trkpt lat="55.8073360" lon="49.0954590"><time>2021-08-14T08:01:12</time></trkpt><trkpt lat="55.8073290" lon="49.0954350"><time>2021-08-14T08:01:13</time></trkpt><trkpt lat="55.8073230" lon="49.0954030"><time>2021-08-14T08:01:14</time></trkpt><trkpt lat="55.8073130" lon="49.0953770"><time>2021-08-14T08:01:15</time></trkpt><trkpt lat="55.8073070" lon="49.0953500"><time>2021-08-14T08:01:16</time></trkpt><trkpt lat="55.8072910" lon="49.0953000"><time>2021-08-14T08:01:17</time></trkpt><trkpt lat="55.8072840" lon="49.0952760"><time>2021-08-14T08:01:18</time></trkpt><trkpt lat="55.8072800" lon="49.0952570"><time>2021-08-14T08:01:19</time></trkpt><trkpt lat="55.8072750" lon="49.0952280"><time>2021-08-14T08:01:20</time></trkpt><trkpt lat="55.8072710" lon="49.0952010"><time>2021-08-14T08:01:21</time></trkpt><trkpt lat="55.8072640" lon="49.0951770"><time>2021-08-14T08:01:22</time></trkpt><trkpt lat="55.8072600" lon="49.0951520"><time>2021-08-14T08:01:23</time></trkpt><trkpt lat="55.8072480" lon="49.0951270"><time>2021-08-14T08:01:24</time></trkpt><trkpt lat="55.8072380" lon="49.0950980"><time>2021-08-14T08:01:25</time></trkpt><trkpt lat="55.8072310" lon="49.0950750"><time>2021-08-14T08:01:26</time></trkpt><trkpt lat="55.8072280" lon="49.0950500"><time>2021-08-14T08:01:27</time></trkpt><trkpt lat="55.8072280" lon="49.0950250"><time>2021-08-14T08:01:28</time></trkpt><trkpt lat="55.8072110" lon="49.0949860"><time>2021-08-14T08:01:29</time></trkpt><trkpt lat="55.8072050" lon="49.0949720"><time>2021-08-14T08:01:30</time></trkpt><trkpt lat="55.8071990" lon="49.0949470"><time>2021-08-14T08:01:31</time></trkpt><trkpt lat="55.8071910" lon="49.0949230"><time>2021-08-14T08:01:32</time></trkpt><trkpt lat="55.8071860" lon="49.0948950"><time>2021-08-14T08:01:33</time></trkpt><trkpt lat="55.8071760" lon="49.0948700"><time>2021-08-14T08:01:34</time></trkpt><trkpt lat="55.8071630" lon="49.0948460"><time>2021-08-14T08:01:35</time></trkpt><trkpt lat="55.8071600" lon="49.0948180"><time>2021-08-14T08:01:36</time></trkpt><trkpt lat="55.8071550" lon="49.0947950"><time>2021-08-14T08:01:37</time></trkpt><trkpt lat="55.8071490" lon="49.0947660"><time>2021-08-14T08:01:38</time></trkpt><trkpt lat="55.8071430" lon="49.0947380"><time>2021-08-14T08:01:39</time></trkpt><trkpt lat="55.8071400" lon="49.0947070"><time>2021-08-14T08:01:40</time></trkpt><trkpt lat="55.8071270" lon="49.0946830"><time>2021-08-14T08:01:41</time></trkpt><trkpt lat="55.8071240" lon="49.0946550"><time>2021-08-14T08:01:42</time></trkpt><trkpt lat="55.8071160" lon="49.0946240"><time>2021-08-14T08:01:43</time></trkpt><trkpt lat="55.8071090" lon="49.0946020"><time>2021-08-14T08:01:44</time></trkpt><trkpt lat="55.8070990" lon="49.0945780"><time>2021-08-14T08:01:45</time></trkpt><trkpt lat="55.8070940" lon="49.0945510"><time>2021-08-14T08:01:46</time></trkpt><trkpt lat="55.8070870" lon="49.0945270"><time>2021-08-14T08:01:47</time></trkpt><trkpt lat="55.8070750" lon="49.0945020"><time>2021-08-14T08:01:48</time></trkpt><trkpt lat="55.8070710" lon="49.0944720"><time>2021-08-14T08:01:49</time></trkpt><trkpt lat="55.8070630" lon="49.0944450"><time>2021-08-14T08:01:50</time></trkpt><trkpt lat="55.8070610" lon="49.0944140"><time>2021-08-14T08:01:51</time></trkpt><trkpt lat="55.8070470" lon="49.0943880"><time>2021-08-14T08:01:52</time></trkpt><trkpt lat="55.8070400" lon="49.0943690"><time>2021-08-14T08:01:53</time></trkpt><trkpt lat="55.8070330" lon="49.0943410"><time>2021-08-14T08:01:54</time></trkpt><trkpt lat="55.8070270" lon="49.0943120"><time>2021-08-14T08:01:55</time></trkpt><trkpt lat="55.8070240" lon="49.0942860"><time>2021-08-14T08:01:56</time></trkpt><trkpt lat="55.8070120" lon="49.0942620"><time>2021-08-14T08:01:57</time></trkpt><trkpt lat="55.8070050" lon="49.0942350"><time>2021-08-14T08:01:58</time></trkpt><trkpt lat="55.8069950" lon="49.0942130"><time>2021-08-14T08:01:59</time></trkpt><trkpt lat="55.8069950" lon="49.0941810"><time>2021-08-14T08:02:00</time></trkpt><trkpt lat="55.8069750" lon="49.0941460"><time>2021-08-14T08:02:01</time></trkpt><trkpt lat="55.8069710" lon="49.0941310"><time>2021-08-14T08:02:02</time></trkpt><trkpt lat="55.8069600" lon="49.0941020"><time>2021-08-14T08:02:03</time></trkpt><trkpt lat="55.8069530" lon="49.0940770"><time>2021-08-14T08:02:04</time></trkpt><trkpt lat="55.8069520" lon="49.0940470"><time>2021-08-14T08:02:05</time></trkpt><trkpt lat="55.8069450" lon="49.0940170"><time>2021-08-14T08:02:06</time></trkpt><trkpt lat="55.8069380" lon="49.0939870"><time>2021-08-14T08:02:07</time></trkpt><trkpt lat="55.8069250" lon="49.0939620"><time>2021-08-14T08:02:08</time></trkpt><trkpt lat="55.8069160" lon="49.0939370"><time>2021-08-14T08:02:09</time></trkpt><trkpt lat="55.8069120" lon="49.0939110"><time>2021-08-14T08:02:10</time></trkpt><trkpt lat="55.8069130" lon="49.0938860"><time>2021-08-14T08:02:11</time></trkpt><trkpt lat="55.8069040" lon="49.0938570"><time>2021-08-14T08:02:12</time></trkpt><trkpt lat="55.8068930" lon="49.0938340"><time>2021-08-14T08:02:13</time></trkpt><trkpt lat="55.8068830" lon="49.0938160"><time>2021-08-14T08:02:14</time></trkpt><trkpt lat="55.8068740" lon="49.0937910"><time>2021-08-14T08:02:15</time></trkpt><trkpt lat="55.8068670" lon="49.0937640"><time>2021-08-14T08:02:16</time></trkpt><trkpt lat="55.8068570" lon="49.0937420"><time>2021-08-14T08:02:17</time></trkpt><trkpt lat="55.8068540" lon="49.0937210"><time>2021-08-14T08:02:18</time></trkpt><trkpt lat="55.8068510" lon="49.0936980"><time>2021-08-14T08:02:19</time></trkpt><trkpt lat="55.8068470" lon="49.0936700"><time>2021-08-14T08:02:20</time></trkpt><trkpt lat="55.8068330" lon="49.0936250"><time>2021-08-14T08:02:21</time></trkpt><trkpt lat="55.8068270" lon="49.0936100"><time>2021-08-14T08:02:22</time></trkpt><trkpt lat="55.8068200" lon="49.0935840"><time>2021-08-14T08:02:23</time></trkpt><trkpt lat="55.8068100" lon="49.0935630"><time>2021-08-14T08:02:24</time></trkpt><trkpt lat="55.8068020" lon="49.0935360"><time>2021-08-14T08:02:25</time></trkpt><trkpt lat="55.8067960" lon="49.0935170"><time>2021-08-14T08:02:26</time></trkpt><trkpt lat="55.8067910" lon="49.0934920"><time>2021-08-14T08:02:27</time></trkpt><trkpt lat="55.8067840" lon="49.0934680"><time>2021-08-14T08:02:28</time></trkpt><trkpt lat="55.8067800" lon="49.0934420"><time>2021-08-14T08:02:29</time></trkpt><trkpt lat="55.8067760" lon="49.0934210"><time>2021-08-14T08:02:30</time></trkpt><trkpt lat="55.8067670" lon="49.0933980"><time>2021-08-14T08:02:31</time></trkpt><trkpt lat="55.8067570" lon="49.0933760"><time>2021-08-14T08:02:32</time></trkpt><trkpt lat="55.8067490" lon="49.0933540"><time>2021-08-14T08:02:33</time></trkpt><trkpt lat="55.8067410" lon="49.0933290"><time>2021-08-14T08:02:34</time></trkpt><trkpt lat="55.8067330" lon="49.0933060"><time>2021-08-14T08:02:35</time></trkpt><trkpt lat="55.8067240" lon="49.0932820"><time>2021-08-14T08:02:36</time></trkpt><trkpt lat="55.8067130" lon="49.0932620"><time>2021-08-14T08:02:37</time></trkpt><trkpt lat="55.8067040" lon="49.0932410"><time>2021-08-14T08:02:38</time></trkpt><trkpt lat="55.8066930" lon="49.0932200"><time>2021-08-14T08:02:39</time></trkpt><trkpt lat="55.8066810" lon="49.0932060"><time>2021-08-14T08:02:40</time></trkpt><trkpt lat="55.8066700" lon="49.0931720"><time>2021-08-14T08:02:41</time></trkpt><trkpt lat="55.8066660" lon="49.0931580"><time>2021-08-14T08:02:42</time></trkpt><trkpt lat="55.8066630" lon="49.0931430"><time>2021-08-14T08:02:43</time></trkpt><trkpt lat="55.8066520" lon="49.0931360"><time>2021-08-14T08:02:44</time></trkpt><trkpt lat="55.8066480" lon="49.0931330"><time>2021-08-14T08:02:45</time></trkpt><trkpt lat="55.8066540" lon="49.0931520"><time>2021-08-14T08:02:46</time></trkpt><trkpt lat="55.8066610" lon="49.0931680"><time>2021-08-14T08:02:47</time></trkpt><trkpt lat="55.8066600" lon="49.0931680"><time>2021-08-14T08:02:48</time></trkpt><trkpt lat="55.8066590" lon="49.0931700"><time>2021-08-14T08:02:49</time></trkpt><trkpt lat="55.8066620" lon="49.0931730"><time>2021-08-14T08:02:50</time></trkpt><trkpt lat="55.8066770" lon="49.0931650"><time>2021-08-14T08:02:51</time></trkpt><trkpt lat="55.8066860" lon="49.0931720"><time>2021-08-14T08:02:52</time></trkpt><trkpt lat="55.8066970" lon="49.0931870"><time>2021-08-14T08:02:53</time></trkpt><trkpt lat="55.8067100" lon="49.0932090"><time>2021-08-14T08:02:54</time></trkpt><trkpt lat="55.8067190" lon="49.0932280"><time>2021-08-14T08:02:55</time></trkpt><trkpt lat="55.8067300" lon="49.0932530"><time>2021-08-14T08:02:56</time></trkpt><trkpt lat="55.8067380" lon="49.0932770"><time>2021-08-14T08:02:57</time></trkpt><trkpt lat="55.8067460" lon="49.0933040"><time>2021-08-14T08:02:58</time></trkpt><trkpt lat="55.8067560" lon="49.0933450"><time>2021-08-14T08:02:59</time></trkpt><trkpt lat="55.8067580" lon="49.0933560"><time>2021-08-14T08:03:00</time></trkpt><trkpt lat="55.8067600" lon="49.0933670"><time>2021-08-14T08:03:01</time></trkpt><trkpt lat="55.8067700" lon="49.0934160"><time>2021-08-14T08:03:02</time></trkpt><trkpt lat="55.8067800" lon="49.0934480"><time>2021-08-14T08:03:03</time></trkpt><trkpt lat="55.8067790" lon="49.0934670"><time>2021-08-14T08:03:04</time></trkpt><trkpt lat="55.8067850" lon="49.0934950"><time>2021-08-14T08:03:05</time></trkpt><trkpt lat="55.8067930" lon="49.0935210"><time>2021-08-14T08:03:06</time></trkpt><trkpt lat="55.8067980" lon="49.0935480"><time>2021-08-14T08:03:07</time></trkpt><trkpt lat="55.8068090" lon="49.0935780"><time>2021-08-14T08:03:08</time></trkpt><trkpt lat="55.8068290" lon="49.0936230"><time>2021-08-14T08:03:09</time></trkpt><trkpt lat="55.8068350" lon="49.0936390"><time>2021-08-14T08:03:10</time></trkpt><trkpt lat="55.8068450" lon="49.0936630"><time>2021-08-14T08:03:11</time></trkpt><trkpt lat="55.8068500" lon="49.0936880"><time>2021-08-14T08:03:12</time></trkpt><trkpt lat="55.8068520" lon="49.0937190"><time>2021-08-14T08:03:13</time></trkpt><trkpt lat="55.8068570" lon="49.0937430"><time>2021-08-14T08:03:14</time></trkpt><trkpt lat="55.8068570" lon="49.0937490"><time>2021-08-14T08:03:15</time></trkpt><trkpt lat="55.8068590" lon="49.0937220"><time>2021-08-14T08:03:16</time></trkpt><trkpt lat="55.8068620" lon="49.0937120"><time>2021-08-14T08:03:17</time></trkpt><trkpt lat="55.8068620" lon="49.0937090"><time>2021-08-14T08:03:18</time></trkpt><trkpt lat="55.8068620" lon="49.0937090"><time>2021-08-14T08:03:19</time></trkpt><trkpt lat="55.8068680" lon="49.0937240"><time>2021-08-14T08:03:20</time></trkpt><trkpt lat="55.8068750" lon="49.0937400"><time>2021-08-14T08:03:22</time></trkpt><trkpt lat="55.8068780" lon="49.0937650"><time>2021-08-14T08:03:23</time></trkpt><trkpt lat="55.8068760" lon="49.0937950"><time>2021-08-14T08:03:24</time></trkpt><trkpt lat="55.8068840" lon="49.0938250"><time>2021-08-14T08:03:25</time></trkpt><trkpt lat="55.8068860" lon="49.0938420"><time>2021-08-14T08:03:26</time></trkpt><trkpt lat="55.8068890" lon="49.0938600"><time>2021-08-14T08:03:27</time></trkpt><trkpt lat="55.8068980" lon="49.0938900"><time>2021-08-14T08:03:28</time></trkpt><trkpt lat="55.8069060" lon="49.0939110"><time>2021-08-14T08:03:29</time></trkpt><trkpt lat="55.8069140" lon="49.0939520"><time>2021-08-14T08:03:30</time></trkpt><trkpt lat="55.8069160" lon="49.0939690"><time>2021-08-14T08:03:31</time></trkpt><trkpt lat="55.8069180" lon="49.0939850"><time>2021-08-14T08:03:32</time></trkpt><trkpt lat="55.8069260" lon="49.0940020"><time>2021-08-14T08:03:33</time></trkpt><trkpt lat="55.8069300" lon="49.0940310"><time>2021-08-14T08:03:34</time></trkpt><trkpt lat="55.8069320" lon="49.0940640"><time>2021-08-14T08:03:35</time></trkpt><trkpt lat="55.8069390" lon="49.0940880"><time>2021-08-14T08:03:36</time></trkpt><trkpt lat="55.8069450" lon="49.0941160"><time>2021-08-14T08:03:37</time></trkpt><trkpt lat="55.8069540" lon="49.0941410"><time>2021-08-14T08:03:38</time></trkpt><trkpt lat="55.8069680" lon="49.0941840"><time>2021-08-14T08:03:39</time></trkpt><trkpt lat="55.8069740" lon="49.0941980"><time>2021-08-14T08:03:40</time></trkpt><trkpt lat="55.8069770" lon="49.0942260"><time>2021-08-14T08:03:41</time></trkpt><trkpt lat="55.8069840" lon="49.0942560"><time>2021-08-14T08:03:42</time></trkpt><trkpt lat="55.8069900" lon="49.0942910"><time>2021-08-14T08:03:43</time></trkpt><trkpt lat="55.8069940" lon="49.0943140"><time>2021-08-14T08:03:44</time></trkpt><trkpt lat="55.8070050" lon="49.0943340"><time>2021-08-14T08:03:45</time></trkpt><trkpt lat="55.8070100" lon="49.0943660"><time>2021-08-14T08:03:46</time></trkpt><trkpt lat="55.8070280" lon="49.0944040"><time>2021-08-14T08:03:47</time></trkpt><trkpt lat="55.8070330" lon="49.0944190"><time>2021-08-14T08:03:48</time></trkpt><trkpt lat="55.8070350" lon="49.0944460"><time>2021-08-14T08:03:49</time></trkpt><trkpt lat="55.8070400" lon="49.0944690"><time>2021-08-14T08:03:50</time></trkpt><trkpt lat="55.8070470" lon="49.0944980"><time>2021-08-14T08:03:51</time></trkpt><trkpt lat="55.8070560" lon="49.0945240"><time>2021-08-14T08:03:52</time></trkpt><trkpt lat="55.8070620" lon="49.0945530"><time>2021-08-14T08:03:53</time></trkpt><trkpt lat="55.8070700" lon="49.0945770"><time>2021-08-14T08:03:54</time></trkpt><trkpt lat="55.8070750" lon="49.0946030"><time>2021-08-14T08:03:55</time></trkpt><trkpt lat="55.8070860" lon="49.0946270"><time>2021-08-14T08:03:56</time></trkpt><trkpt lat="55.8070920" lon="49.0946510"><time>2021-08-14T08:03:57</time></trkpt><trkpt lat="55.8071000" lon="49.0946790"><time>2021-08-14T08:03:58</time></trkpt><trkpt lat="55.8071080" lon="49.0947100"><time>2021-08-14T08:03:59</time></trkpt><trkpt lat="55.8071200" lon="49.0947310"><time>2021-08-14T08:04:00</time></trkpt><trkpt lat="55.8071220" lon="49.0947610"><time>2021-08-14T08:04:01</time></trkpt><trkpt lat="55.8071290" lon="49.0947860"><time>2021-08-14T08:04:02</time></trkpt><trkpt lat="55.8071360" lon="49.0948190"><time>2021-08-14T08:04:03</time></trkpt><trkpt lat="55.8071410" lon="49.0948440"><time>2021-08-14T08:04:04</time></trkpt><trkpt lat="55.8071430" lon="49.0948700"><time>2021-08-14T08:04:05</time></trkpt><trkpt lat="55.8071590" lon="49.0948940"><time>2021-08-14T08:04:06</time></trkpt><trkpt lat="55.8071610" lon="49.0949320"><time>2021-08-14T08:04:07</time></trkpt><trkpt lat="55.8071720" lon="49.0949420"><time>2021-08-14T08:04:08</time></trkpt><trkpt lat="55.8071810" lon="49.0949890"><time>2021-08-14T08:04:09</time></trkpt><trkpt lat="55.8071860" lon="49.0950040"><time>2021-08-14T08:04:10</time></trkpt><trkpt lat="55.8071930" lon="49.0950240"><time>2021-08-14T08:04:11</time></trkpt><trkpt lat="55.8072020" lon="49.0950450"><time>2021-08-14T08:04:12</time></trkpt><trkpt lat="55.8072090" lon="49.0950730"><time>2021-08-14T08:04:13</time></trkpt><trkpt lat="55.8072190" lon="49.0951010"><time>2021-08-14T08:04:14</time></trkpt><trkpt lat="55.8072230" lon="49.0951250"><time>2021-08-14T08:04:15</time></trkpt><trkpt lat="55.8072250" lon="49.0951610"><time>2021-08-14T08:04:16</time></trkpt><trkpt lat="55.8072390" lon="49.0951830"><time>2021-08-14T08:04:17</time></trkpt><trkpt lat="55.8072470" lon="49.0952100"><time>2021-08-14T08:04:18</time></trkpt><trkpt lat="55.8072580" lon="49.0952600"><time>2021-08-14T08:04:19</time></trkpt><trkpt lat="55.8072590" lon="49.0952800"><time>2021-08-14T08:04:20</time></trkpt><trkpt lat="55.8072670" lon="49.0953070"><time>2021-08-14T08:04:21</time></trkpt><trkpt lat="55.8072710" lon="49.0953390"><time>2021-08-14T08:04:22</time></trkpt><trkpt lat="55.8072770" lon="49.0953640"><time>2021-08-14T08:04:23</time></trkpt><trkpt lat="55.8072850" lon="49.0953880"><time>2021-08-14T08:04:24</time></trkpt><trkpt lat="55.8072960" lon="49.0954150"><time>2021-08-14T08:04:25</time></trkpt><trkpt lat="55.8073040" lon="49.0954400"><time>2021-08-14T08:04:26</time></trkpt><trkpt lat="55.8073100" lon="49.0954660"><time>2021-08-14T08:04:27</time></trkpt><trkpt lat="55.8073180" lon="49.0954810"><time>2021-08-14T08:04:28</time></trkpt><trkpt lat="55.8073270" lon="49.0955060"><time>2021-08-14T08:04:29</time></trkpt><trkpt lat="55.8073320" lon="49.0955350"><time>2021-08-14T08:04:30</time></trkpt><trkpt lat="55.8073450" lon="49.0955710"><time>2021-08-14T08:04:31</time></trkpt><trkpt lat="55.8073480" lon="49.0955860"><time>2021-08-14T08:04:32</time></trkpt><trkpt lat="55.8073510" lon="49.0956000"><time>2021-08-14T08:04:33</time></trkpt><trkpt lat="55.8073560" lon="49.0956190"><time>2021-08-14T08:04:34</time></trkpt><trkpt lat="55.8073590" lon="49.0956540"><time>2021-08-14T08:04:35</time></trkpt><trkpt lat="55.8073700" lon="49.0956810"><time>2021-08-14T08:04:36</time></trkpt><trkpt lat="55.8073740" lon="49.0957110"><time>2021-08-14T08:04:37</time></trkpt><trkpt lat="55.8073780" lon="49.0957330"><time>2021-08-14T08:04:38</time></trkpt><trkpt lat="55.8073820" lon="49.0957620"><time>2021-08-14T08:04:39</time></trkpt><trkpt lat="55.8073960" lon="49.0957840"><time>2021-08-14T08:04:40</time></trkpt><trkpt lat="55.8074060" lon="49.0958080"><time>2021-08-14T08:04:41</time></trkpt><trkpt lat="55.8074180" lon="49.0958540"><time>2021-08-14T08:04:42</time></trkpt><trkpt lat="55.8074210" lon="49.0958700"><time>2021-08-14T08:04:43</time></trkpt><trkpt lat="55.8074260" lon="49.0958950"><time>2021-08-14T08:04:44</time></trkpt><trkpt lat="55.8074350" lon="49.0959240"><time>2021-08-14T08:04:45</time></trkpt><trkpt lat="55.8074470" lon="49.0959650"><time>2021-08-14T08:04:46</time></trkpt><trkpt lat="55.8074510" lon="49.0959820"><time>2021-08-14T08:04:47</time></trkpt><trkpt lat="55.8074600" lon="49.0960100"><time>2021-08-14T08:04:48</time></trkpt><trkpt lat="55.8074690" lon="49.0960290"><time>2021-08-14T08:04:49</time></trkpt><trkpt lat="55.8074740" lon="49.0960600"><time>2021-08-14T08:04:50</time></trkpt><trkpt lat="55.8074830" lon="49.0960790"><time>2021-08-14T08:04:51</time></trkpt><trkpt lat="55.8074890" lon="49.0961090"><time>2021-08-14T08:04:52</time></trkpt><trkpt lat="55.8074950" lon="49.0961340"><time>2021-08-14T08:04:53</time></trkpt><trkpt lat="55.8075030" lon="49.0961610"><time>2021-08-14T08:04:54</time></trkpt><trkpt lat="55.8075150" lon="49.0961800"><time>2021-08-14T08:04:55</time></trkpt><trkpt lat="55.8075230" lon="49.0962040"><time>2021-08-14T08:04:56</time></trkpt><trkpt lat="55.8075280" lon="49.0962370"><time>2021-08-14T08:04:57</time></trkpt><trkpt lat="55.8075350" lon="49.0962530"><time>2021-08-14T08:04:58</time></trkpt><trkpt lat="55.8075450" lon="49.0962800"><time>2021-08-14T08:04:59</time></trkpt><trkpt lat="55.8075480" lon="49.0963070"><time>2021-08-14T08:05:00</time></trkpt><trkpt lat="55.8075530" lon="49.0963330"><time>2021-08-14T08:05:01</time></trkpt><trkpt lat="55.8075620" lon="49.0963600"><time>2021-08-14T08:05:02</time></trkpt><trkpt lat="55.8075700" lon="49.0963870"><time>2021-08-14T08:05:03</time></trkpt><trkpt lat="55.8075750" lon="49.0964150"><time>2021-08-14T08:05:04</time></trkpt><trkpt lat="55.8075800" lon="49.0964420"><time>2021-08-14T08:05:05</time></trkpt><trkpt lat="55.8075860" lon="49.0964660"><time>2021-08-14T08:05:06</time></trkpt><trkpt lat="55.8075950" lon="49.0964950"><time>2021-08-14T08:05:07</time></trkpt><trkpt lat="55.8075970" lon="49.0965320"><time>2021-08-14T08:05:08</time></trkpt><trkpt lat="55.8076090" lon="49.0965520"><time>2021-08-14T08:05:09</time></trkpt><trkpt lat="55.8076170" lon="49.0965810"><time>2021-08-14T08:05:10</time></trkpt><trkpt lat="55.8076260" lon="49.0966040"><time>2021-08-14T08:05:11</time></trkpt><trkpt lat="55.8076300" lon="49.0966310"><time>2021-08-14T08:05:12</time></trkpt><trkpt lat="55.8076330" lon="49.0966530"><time>2021-08-14T08:05:13</time></trkpt><trkpt lat="55.8076390" lon="49.0966790"><time>2021-08-14T08:05:14</time></trkpt><trkpt lat="55.8076470" lon="49.0967060"><time>2021-08-14T08:05:15</time></trkpt><trkpt lat="55.8076560" lon="49.0967280"><time>2021-08-14T08:05:16</time></trkpt><trkpt lat="55.8076640" lon="49.0967600"><time>2021-08-14T08:05:17</time></trkpt><trkpt lat="55.8076660" lon="49.0967910"><time>2021-08-14T08:05:18</time></trkpt><trkpt lat="55.8076750" lon="49.0968160"><time>2021-08-14T08:05:19</time></trkpt><trkpt lat="55.8076810" lon="49.0968420"><time>2021-08-14T08:05:20</time></trkpt><trkpt lat="55.8076890" lon="49.0968650"><time>2021-08-14T08:05:21</time></trkpt><trkpt lat="55.8076960" lon="49.0968920"><time>2021-08-14T08:05:22</time></trkpt><trkpt lat="55.8077000" lon="49.0969170"><time>2021-08-14T08:05:23</time></trkpt><trkpt lat="55.8077080" lon="49.0969420"><time>2021-08-14T08:05:24</time></trkpt><trkpt lat="55.8077150" lon="49.0969670"><time>2021-08-14T08:05:25</time></trkpt><trkpt lat="55.8077180" lon="49.0969950"><time>2021-08-14T08:05:26</time></trkpt><trkpt lat="55.8077220" lon="49.0970210"><time>2021-08-14T08:05:27</time></trkpt><trkpt lat="55.8077290" lon="49.0970500"><time>2021-08-14T08:05:28</time></trkpt><trkpt lat="55.8077320" lon="49.0970800"><time>2021-08-14T08:05:29</time></trkpt><trkpt lat="55.8077460" lon="49.0971210"><time>2021-08-14T08:05:30</time></trkpt><trkpt lat="55.8077530" lon="49.0971340"><time>2021-08-14T08:05:31</time></trkpt><trkpt lat="55.8077630" lon="49.0971520"><time>2021-08-14T08:05:32</time></trkpt><trkpt lat="55.8077700" lon="49.0971870"><time>2021-08-14T08:05:33</time></trkpt><trkpt lat="55.8077780" lon="49.0972140"><time>2021-08-14T08:05:34</time></trkpt><trkpt lat="55.8077830" lon="49.0972410"><time>2021-08-14T08:05:35</time></trkpt><trkpt lat="55.8077960" lon="49.0972860"><time>2021-08-14T08:05:36</time></trkpt><trkpt lat="55.8078000" lon="49.0973040"><time>2021-08-14T08:05:37</time></trkpt><trkpt lat="55.8078070" lon="49.0973270"><time>2021-08-14T08:05:38</time></trkpt><trkpt lat="55.8078130" lon="49.0973550"><time>2021-08-14T08:05:39</time></trkpt><trkpt lat="55.8078220" lon="49.0973790"><time>2021-08-14T08:05:40</time></trkpt><trkpt lat="55.8078290" lon="49.0974060"><time>2021-08-14T08:05:41</time></trkpt><trkpt lat="55.8078350" lon="49.0974310"><time>2021-08-14T08:05:42</time></trkpt><trkpt lat="55.8078420" lon="49.0974560"><time>2021-08-14T08:05:43</time></trkpt><trkpt lat="55.8078510" lon="49.0974820"><time>2021-08-14T08:05:44</time></trkpt><trkpt lat="55.8078550" lon="49.0975110"><time>2021-08-14T08:05:45</time></trkpt><trkpt lat="55.8078630" lon="49.0975390"><time>2021-08-14T08:05:46</time></trkpt><trkpt lat="55.8078730" lon="49.0975630"><time>2021-08-14T08:05:47</time></trkpt><trkpt lat="55.8078760" lon="49.0975810"><time>2021-08-14T08:05:48</time></trkpt><trkpt lat="55.8078810" lon="49.0976130"><time>2021-08-14T08:05:49</time></trkpt><trkpt lat="55.8078840" lon="49.0976430"><time>2021-08-14T08:05:50</time></trkpt><trkpt lat="55.8078920" lon="49.0976700"><time>2021-08-14T08:05:51</time></trkpt><trkpt lat="55.8078980" lon="49.0976970"><time>2021-08-14T08:05:52</time></trkpt><trkpt lat="55.8079010" lon="49.0977230"><time>2021-08-14T08:05:53</time></trkpt><trkpt lat="55.8079130" lon="49.0977440"><time>2021-08-14T08:05:54</time></trkpt><trkpt lat="55.8079210" lon="49.0977650"><time>2021-08-14T08:05:55</time></trkpt><trkpt lat="55.8079300" lon="49.0977980"><time>2021-08-14T08:05:56</time></trkpt><trkpt lat="55.8079330" lon="49.0978250"><time>2021-08-14T08:05:57</time></trkpt><trkpt lat="55.8079410" lon="49.0978480"><time>2021-08-14T08:05:58</time></trkpt><trkpt lat="55.8079470" lon="49.0978790"><time>2021-08-14T08:05:59</time></trkpt><trkpt lat="55.8079510" lon="49.0979020"><time>2021-08-14T08:06:00</time></trkpt><trkpt lat="55.8079630" lon="49.0979250"><time>2021-08-14T08:06:01</time></trkpt><trkpt lat="55.8079700" lon="49.0979550"><time>2021-08-14T08:06:02</time></trkpt><trkpt lat="55.8079770" lon="49.0979790"><time>2021-08-14T08:06:03</time></trkpt><trkpt lat="55.8079880" lon="49.0980000"><time>2021-08-14T08:06:04</time></trkpt><trkpt lat="55.8079950" lon="49.0980300"><time>2021-08-14T08:06:05</time></trkpt><trkpt lat="55.8080010" lon="49.0980590"><time>2021-08-14T08:06:06</time></trkpt><trkpt lat="55.8080080" lon="49.0980800"><time>2021-08-14T08:06:07</time></trkpt><trkpt lat="55.8080180" lon="49.0981010"><time>2021-08-14T08:06:08</time></trkpt><trkpt lat="55.8080270" lon="49.0981200"><time>2021-08-14T08:06:09</time></trkpt><trkpt lat="55.8080330" lon="49.0981480"><time>2021-08-14T08:06:10</time></trkpt><trkpt lat="55.8080390" lon="49.0981750"><time>2021-08-14T08:06:11</time></trkpt><trkpt lat="55.8080450" lon="49.0981960"><time>2021-08-14T08:06:12</time></trkpt><trkpt lat="55.8080470" lon="49.0982240"><time>2021-08-14T08:06:13</time></trkpt><trkpt lat="55.8080510" lon="49.0982480"><time>2021-08-14T08:06:14</time></trkpt><trkpt lat="55.8080560" lon="49.0982730"><time>2021-08-14T08:06:15</time></trkpt><trkpt lat="55.8080600" lon="49.0983020"><time>2021-08-14T08:06:16</time></trkpt><trkpt lat="55.8080670" lon="49.0983270"><time>2021-08-14T08:06:17</time></trkpt><trkpt lat="55.8080750" lon="49.0983510"><time>2021-08-14T08:06:18</time></trkpt><trkpt lat="55.8080830" lon="49.0983690"><time>2021-08-14T08:06:19</time></trkpt><trkpt lat="55.8080860" lon="49.0983930"><time>2021-08-14T08:06:20</time></trkpt><trkpt lat="55.8080920" lon="49.0984210"><time>2021-08-14T08:06:21</time></trkpt><trkpt lat="55.8080990" lon="49.0984530"><time>2021-08-14T08:06:22</time></trkpt><trkpt lat="55.8081020" lon="49.0984820"><time>2021-08-14T08:06:23</time></trkpt><trkpt lat="55.8081060" lon="49.0985080"><time>2021-08-14T08:06:24</time></trkpt><trkpt lat="55.8081160" lon="49.0985310"><time>2021-08-14T08:06:25</time></trkpt><trkpt lat="55.8081210" lon="49.0985620"><time>2021-08-14T08:06:26</time></trkpt><trkpt lat="55.8081260" lon="49.0985910"><time>2021-08-14T08:06:27</time></trkpt><trkpt lat="55.8081350" lon="49.0986320"><time>2021-08-14T08:06:28</time></trkpt><trkpt lat="55.8081390" lon="49.0986450"><time>2021-08-14T08:06:29</time></trkpt><trkpt lat="55.8081420" lon="49.0986590"><time>2021-08-14T08:06:30</time></trkpt><trkpt lat="55.8081510" lon="49.0987040"><time>2021-08-14T08:06:31</time></trkpt><trkpt lat="55.8081540" lon="49.0987210"><time>2021-08-14T08:06:32</time></trkpt><trkpt lat="55.8081600" lon="49.0987430"><time>2021-08-14T08:06:33</time></trkpt><trkpt lat="55.8081640" lon="49.0987670"><time>2021-08-14T08:06:34</time></trkpt><trkpt lat="55.8081720" lon="49.0988140"><time>2021-08-14T08:06:35</time></trkpt><trkpt lat="55.8081770" lon="49.0988310"><time>2021-08-14T08:06:36</time></trkpt><trkpt lat="55.8081840" lon="49.0988510"><time>2021-08-14T08:06:37</time></trkpt><trkpt lat="55.8081910" lon="49.0988770"><time>2021-08-14T08:06:38</time></trkpt><trkpt lat="55.8081990" lon="49.0989050"><time>2021-08-14T08:06:39</time></trkpt><trkpt lat="55.8082020" lon="49.0989340"><time>2021-08-14T08:06:40</time></trkpt><trkpt lat="55.8082070" lon="49.0989670"><time>2021-08-14T08:06:41</time></trkpt><trkpt lat="55.8082110" lon="49.0989920"><time>2021-08-14T08:06:42</time></trkpt><trkpt lat="55.8082190" lon="49.0990160"><time>2021-08-14T08:06:43</time></trkpt><trkpt lat="55.8082250" lon="49.0990410"><time>2021-08-14T08:06:44</time></trkpt><trkpt lat="55.8082310" lon="49.0990700"><time>2021-08-14T08:06:45</time></trkpt><trkpt lat="55.8082380" lon="49.0990960"><time>2021-08-14T08:06:46</time></trkpt><trkpt lat="55.8082450" lon="49.0991250"><time>2021-08-14T08:06:47</time></trkpt><trkpt lat="55.8082480" lon="49.0991520"><time>2021-08-14T08:06:48</time></trkpt><trkpt lat="55.8082600" lon="49.0991950"><time>2021-08-14T08:06:49</time></trkpt><trkpt lat="55.8082650" lon="49.0992120"><time>2021-08-14T08:06:50</time></trkpt><trkpt lat="55.8082640" lon="49.0992390"><time>2021-08-14T08:06:51</time></trkpt><trkpt lat="55.8082670" lon="49.0992680"><time>2021-08-14T08:06:52</time></trkpt><trkpt lat="55.8082760" lon="49.0992870"><time>2021-08-14T08:06:53</time></trkpt><trkpt lat="55.8082900" lon="49.0993120"><time>2021-08-14T08:06:54</time></trkpt><trkpt lat="55.8083050" lon="49.0993540"><time>2021-08-14T08:06:55</time></trkpt><trkpt lat="55.8083140" lon="49.0993650"><time>2021-08-14T08:06:56</time></trkpt><trkpt lat="55.8083210" lon="49.0993870"><time>2021-08-14T08:06:57</time></trkpt><trkpt lat="55.8083310" lon="49.0994090"><time>2021-08-14T08:06:58</time></trkpt><trkpt lat="55.8083410" lon="49.0994370"><time>2021-08-14T08:06:59</time></trkpt><trkpt lat="55.8083490" lon="49.0994550"><time>2021-08-14T08:07:00</time></trkpt><trkpt lat="55.8083560" lon="49.0995010"><time>2021-08-14T08:07:01</time></trkpt><trkpt lat="55.8083580" lon="49.0995200"><time>2021-08-14T08:07:02</time></trkpt><trkpt lat="55.8083630" lon="49.0995460"><time>2021-08-14T08:07:03</time></trkpt><trkpt lat="55.8083710" lon="49.0995780"><time>2021-08-14T08:07:04</time></trkpt><trkpt lat="55.8083820" lon="49.0996050"><time>2021-08-14T08:07:05</time></trkpt><trkpt lat="55.8083890" lon="49.0996290"><time>2021-08-14T08:07:06</time></trkpt><trkpt lat="55.8083960" lon="49.0996600"><time>2021-08-14T08:07:07</time></trkpt><trkpt lat="55.8084060" lon="49.0996740"><time>2021-08-14T08:07:08</time></trkpt><trkpt lat="55.8084150" lon="49.0996980"><time>2021-08-14T08:07:09</time></trkpt><trkpt lat="55.8084220" lon="49.0997270"><time>2021-08-14T08:07:10</time></trkpt><trkpt lat="55.8084290" lon="49.0997590"><time>2021-08-14T08:07:11</time></trkpt><trkpt lat="55.8084350" lon="49.0997830"><time>2021-08-14T08:07:12</time></trkpt><trkpt lat="55.8084370" lon="49.0998120"><time>2021-08-14T08:07:13</time></trkpt><trkpt lat="55.8084400" lon="49.0998390"><time>2021-08-14T08:07:14</time></trkpt><trkpt lat="55.8084440" lon="49.0998690"><time>2021-08-14T08:07:15</time></trkpt><trkpt lat="55.8084490" lon="49.0998890"><time>2021-08-14T08:07:16</time></trkpt><trkpt lat="55.8084550" lon="49.0999130"><time>2021-08-14T08:07:17</time></trkpt><trkpt lat="55.8084630" lon="49.0999340"><time>2021-08-14T08:07:18</time></trkpt><trkpt lat="55.8084660" lon="49.0999570"><time>2021-08-14T08:07:19</time></trkpt><trkpt lat="55.8084710" lon="49.0999880"><time>2021-08-14T08:07:20</time></trkpt><trkpt lat="55.8084770" lon="49.1000080"><time>2021-08-14T08:07:21</time></trkpt><trkpt lat="55.8084860" lon="49.1000340"><time>2021-08-14T08:07:22</time></trkpt><trkpt lat="55.8084990" lon="49.1000760"><time>2021-08-14T08:07:23</time></trkpt><trkpt lat="55.8085020" lon="49.1000910"><time>2021-08-14T08:07:24</time></trkpt><trkpt lat="55.8085080" lon="49.1001220"><time>2021-08-14T08:07:25</time></trkpt><trkpt lat="55.8085130" lon="49.1001500"><time>2021-08-14T08:07:26</time></trkpt><trkpt lat="55.8085170" lon="49.1001760"><time>2021-08-14T08:07:27</time></trkpt><trkpt lat="55.8085250" lon="49.1002000"><time>2021-08-14T08:07:28</time></trkpt><trkpt lat="55.8085340" lon="49.1002180"><time>2021-08-14T08:07:29</time></trkpt><trkpt lat="55.8085400" lon="49.1002470"><time>2021-08-14T08:07:30</time></trkpt><trkpt lat="55.8085500" lon="49.1002710"><time>2021-08-14T08:07:31</time></trkpt><trkpt lat="55.8085560" lon="49.1002870"><time>2021-08-14T08:07:32</time></trkpt><trkpt lat="55.8085610" lon="49.1003040"><time>2021-08-14T08:07:33</time></trkpt><trkpt lat="55.8085670" lon="49.1003310"><time>2021-08-14T08:07:34</time></trkpt><trkpt lat="55.8085720" lon="49.1003570"><time>2021-08-14T08:07:35</time></trkpt><trkpt lat="55.8085810" lon="49.1003840"><time>2021-08-14T08:07:36</time></trkpt><trkpt lat="55.8085860" lon="49.1004010"><time>2021-08-14T08:07:37</time></trkpt><trkpt lat="55.8085950" lon="49.1004530"><time>2021-08-14T08:07:38</time></trkpt><trkpt lat="55.8085950" lon="49.1004670"><time>2021-08-14T08:07:39</time></trkpt><trkpt lat="55.8086010" lon="49.1004930"><time>2021-08-14T08:07:40</time></trkpt><trkpt lat="55.8086140" lon="49.1005120"><time>2021-08-14T08:07:41</time></trkpt><trkpt lat="55.8086240" lon="49.1005430"><time>2021-08-14T08:07:42</time></trkpt><trkpt lat="55.8086320" lon="49.1005680"><time>2021-08-14T08:07:43</time></trkpt><trkpt lat="55.8086310" lon="49.1006170"><time>2021-08-14T08:07:44</time></trkpt><trkpt lat="55.8086320" lon="49.1006320"><time>2021-08-14T08:07:45</time></trkpt><trkpt lat="55.8086380" lon="49.1006540"><time>2021-08-14T08:07:46</time></trkpt><trkpt lat="55.8086470" lon="49.1006850"><time>2021-08-14T08:07:47</time></trkpt><trkpt lat="55.8086530" lon="49.1007120"><time>2021-08-14T08:07:48</time></trkpt><trkpt lat="55.8086590" lon="49.1007390"><time>2021-08-14T08:07:49</time></trkpt><trkpt lat="55.8086690" lon="49.1007630"><time>2021-08-14T08:07:50</time></trkpt><trkpt lat="55.8086760" lon="49.1007910"><time>2021-08-14T08:07:51</time></trkpt><trkpt lat="55.8086900" lon="49.1008090"><time>2021-08-14T08:07:52</time></trkpt><trkpt lat="55.8087050" lon="49.1008180"><time>2021-08-14T08:07:53</time></trkpt><trkpt lat="55.8087080" lon="49.1008690"><time>2021-08-14T08:07:54</time></trkpt><trkpt lat="55.8087070" lon="49.1008890"><time>2021-08-14T08:07:55</time></trkpt><trkpt lat="55.8087090" lon="49.1009110"><time>2021-08-14T08:07:56</time></trkpt><trkpt lat="55.8087120" lon="49.1009400"><time>2021-08-14T08:07:57</time></trkpt><trkpt lat="55.8087260" lon="49.1009840"><time>2021-08-14T08:07:58</time></trkpt><trkpt lat="55.8087310" lon="49.1009960"><time>2021-08-14T08:07:59</time></trkpt><trkpt lat="55.8087450" lon="49.1010350"><time>2021-08-14T08:08:00</time></trkpt><trkpt lat="55.8087480" lon="49.1010500"><time>2021-08-14T08:08:01</time></trkpt><trkpt lat="55.8087520" lon="49.1010650"><time>2021-08-14T08:08:02</time></trkpt><trkpt lat="55.8087560" lon="49.1010960"><time>2021-08-14T08:08:03</time></trkpt><trkpt lat="55.8087650" lon="49.1011140"><time>2021-08-14T08:08:04</time></trkpt><trkpt lat="55.8087720" lon="49.1011370"><time>2021-08-14T08:08:05</time></trkpt><trkpt lat="55.8087830" lon="49.1011620"><time>2021-08-14T08:08:06</time></trkpt><trkpt lat="55.8087860" lon="49.1011890"><time>2021-08-14T08:08:07</time></trkpt><trkpt lat="55.8087960" lon="49.1012120"><time>2021-08-14T08:08:08</time></trkpt><trkpt lat="55.8088020" lon="49.1012360"><time>2021-08-14T08:08:09</time></trkpt><trkpt lat="55.8088090" lon="49.1012660"><time>2021-08-14T08:08:10</time></trkpt><trkpt lat="55.8088130" lon="49.1012960"><time>2021-08-14T08:08:11</time></trkpt><trkpt lat="55.8088190" lon="49.1013230"><time>2021-08-14T08:08:12</time></trkpt><trkpt lat="55.8088220" lon="49.1013560"><time>2021-08-14T08:08:13</time></trkpt><trkpt lat="55.8088330" lon="49.1013770"><time>2021-08-14T08:08:14</time></trkpt><trkpt lat="55.8088420" lon="49.1013950"><time>2021-08-14T08:08:15</time></trkpt><trkpt lat="55.8088470" lon="49.1014200"><time>2021-08-14T08:08:16</time></trkpt><trkpt lat="55.8088530" lon="49.1014450"><time>2021-08-14T08:08:17</time></trkpt><trkpt lat="55.8088580" lon="49.1014730"><time>2021-08-14T08:08:18</time></trkpt><trkpt lat="55.8088690" lon="49.1015040"><time>2021-08-14T08:08:19</time></trkpt><trkpt lat="55.8088720" lon="49.1015220"><time>2021-08-14T08:08:20</time></trkpt><trkpt lat="55.8088760" lon="49.1015390"><time>2021-08-14T08:08:21</time></trkpt><trkpt lat="55.8088900" lon="49.1015540"><time>2021-08-14T08:08:22</time></trkpt><trkpt lat="55.8089060" lon="49.1015580"><time>2021-08-14T08:08:23</time></trkpt><trkpt lat="55.8089220" lon="49.1015710"><time>2021-08-14T08:08:24</time></trkpt><trkpt lat="55.8089330" lon="49.1015780"><time>2021-08-14T08:08:25</time></trkpt><trkpt lat="55.8089330" lon="49.1016390"><time>2021-08-14T08:08:26</time></trkpt><trkpt lat="55.8089290" lon="49.1016640"><time>2021-08-14T08:08:27</time></trkpt><trkpt lat="55.8089150" lon="49.1017240"><time>2021-08-14T08:08:28</time></trkpt><trkpt lat="55.8089110" lon="49.1017430"><time>2021-08-14T08:08:29</time></trkpt><trkpt lat="55.8089050" lon="49.1017800"><time>2021-08-14T08:08:30</time></trkpt><trkpt lat="55.8089020" lon="49.1017980"><time>2021-08-14T08:08:31</time></trkpt><trkpt lat="55.8088980" lon="49.1018160"><time>2021-08-14T08:08:32</time></trkpt><trkpt lat="55.8088840" lon="49.1018220"><time>2021-08-14T08:08:33</time></trkpt><trkpt lat="55.8088700" lon="49.1018280"><time>2021-08-14T08:08:34</time></trkpt><trkpt lat="55.8088600" lon="49.1018610"><time>2021-08-14T08:08:35</time></trkpt><trkpt lat="55.8088510" lon="49.1018760"><time>2021-08-14T08:08:36</time></trkpt><trkpt lat="55.8088390" lon="49.1019090"><time>2021-08-14T08:08:37</time></trkpt><trkpt lat="55.8088340" lon="49.1019250"><time>2021-08-14T08:08:38</time></trkpt><trkpt lat="55.8088300" lon="49.1019400"><time>2021-08-14T08:08:39</time></trkpt><trkpt lat="55.8088130" lon="49.1019540"><time>2021-08-14T08:08:40</time></trkpt><trkpt lat="55.8088000" lon="49.1019710"><time>2021-08-14T08:08:41</time></trkpt><trkpt lat="55.8087890" lon="49.1019910"><time>2021-08-14T08:08:42</time></trkpt><trkpt lat="55.8087740" lon="49.1020010"><time>2021-08-14T08:08:43</time></trkpt><trkpt lat="55.8087630" lon="49.1020160"><time>2021-08-14T08:08:44</time></trkpt><trkpt lat="55.8087490" lon="49.1020330"><time>2021-08-14T08:08:45</time></trkpt><trkpt lat="55.8087380" lon="49.1020400"><time>2021-08-14T08:08:46</time></trkpt><trkpt lat="55.8087230" lon="49.1020520"><time>2021-08-14T08:08:47</time></trkpt><trkpt lat="55.8087080" lon="49.1020760"><time>2021-08-14T08:08:48</time></trkpt><trkpt lat="55.8086990" lon="49.1020800"><time>2021-08-14T08:08:49</time></trkpt><trkpt lat="55.8086910" lon="49.1020850"><time>2021-08-14T08:08:50</time></trkpt><trkpt lat="55.8086780" lon="49.1020980"><time>2021-08-14T08:08:51</time></trkpt><trkpt lat="55.8086740" lon="49.1021060"><time>2021-08-14T08:08:52</time></trkpt><trkpt lat="55.8086830" lon="49.1020850"><time>2021-08-14T08:08:53</time></trkpt><trkpt lat="55.8086810" lon="49.1020720"><time>2021-08-14T08:08:54</time></trkpt><trkpt lat="55.8086770" lon="49.1020650"><time>2021-08-14T08:08:55</time></trkpt><trkpt lat="55.8086580" lon="49.1020710"><time>2021-08-14T08:08:56</time></trkpt><trkpt lat="55.8086440" lon="49.1020740"><time>2021-08-14T08:08:57</time></trkpt><trkpt lat="55.8086270" lon="49.1020650"><time>2021-08-14T08:08:58</time></trkpt><trkpt lat="55.8086090" lon="49.1020640"><time>2021-08-14T08:08:59</time></trkpt><trkpt lat="55.8085950" lon="49.1020680"><time>2021-08-14T08:09:00</time></trkpt><trkpt lat="55.8085790" lon="49.1020720"><time>2021-08-14T08:09:01</time></trkpt><trkpt lat="55.8085650" lon="49.1020700"><time>2021-08-14T08:09:02</time></trkpt><trkpt lat="55.8085510" lon="49.1020740"><time>2021-08-14T08:09:03</time></trkpt><trkpt lat="55.8085330" lon="49.1020640"><time>2021-08-14T08:09:04</time></trkpt><trkpt lat="55.8085180" lon="49.1020650"><time>2021-08-14T08:09:05</time></trkpt><trkpt lat="55.8085000" lon="49.1020560"><time>2021-08-14T08:09:06</time></trkpt><trkpt lat="55.8084860" lon="49.1020630"><time>2021-08-14T08:09:07</time></trkpt><trkpt lat="55.8084720" lon="49.1020590"><time>2021-08-14T08:09:08</time></trkpt><trkpt lat="55.8084530" lon="49.1020620"><time>2021-08-14T08:09:09</time></trkpt><trkpt lat="55.8084370" lon="49.1020620"><time>2021-08-14T08:09:10</time></trkpt><trkpt lat="55.8084220" lon="49.1020600"><time>2021-08-14T08:09:11</time></trkpt><trkpt lat="55.8084020" lon="49.1020610"><time>2021-08-14T08:09:12</time></trkpt><trkpt lat="55.8083890" lon="49.1020650"><time>2021-08-14T08:09:13</time></trkpt><trkpt lat="55.8083730" lon="49.1020650"><time>2021-08-14T08:09:14</time></trkpt><trkpt lat="55.8083580" lon="49.1020690"><time>2021-08-14T08:09:15</time></trkpt><trkpt lat="55.8083430" lon="49.1020700"><time>2021-08-14T08:09:16</time></trkpt><trkpt lat="55.8083270" lon="49.1020680"><time>2021-08-14T08:09:17</time></trkpt><trkpt lat="55.8083130" lon="49.1020680"><time>2021-08-14T08:09:18</time></trkpt><trkpt lat="55.8082960" lon="49.1020660"><time>2021-08-14T08:09:19</time></trkpt><trkpt lat="55.8082780" lon="49.1020610"><time>2021-08-14T08:09:20</time></trkpt><trkpt lat="55.8082630" lon="49.1020670"><time>2021-08-14T08:09:21</time></trkpt><trkpt lat="55.8082520" lon="49.1020800"><time>2021-08-14T08:09:22</time></trkpt><trkpt lat="55.8082360" lon="49.1020840"><time>2021-08-14T08:09:23</time></trkpt><trkpt lat="55.8082190" lon="49.1020810"><time>2021-08-14T08:09:24</time></trkpt><trkpt lat="55.8082050" lon="49.1020800"><time>2021-08-14T08:09:25</time></trkpt><trkpt lat="55.8081870" lon="49.1020730"><time>2021-08-14T08:09:26</time></trkpt><trkpt lat="55.8081710" lon="49.1020710"><time>2021-08-14T08:09:27</time></trkpt><trkpt lat="55.8081560" lon="49.1020730"><time>2021-08-14T08:09:28</time></trkpt><trkpt lat="55.8081400" lon="49.1020710"><time>2021-08-14T08:09:29</time></trkpt><trkpt lat="55.8081260" lon="49.1020730"><time>2021-08-14T08:09:30</time></trkpt><trkpt lat="55.8081110" lon="49.1020720"><time>2021-08-14T08:09:31</time></trkpt><trkpt lat="55.8080950" lon="49.1020680"><time>2021-08-14T08:09:32</time></trkpt><trkpt lat="55.8080750" lon="49.1020590"><time>2021-08-14T08:09:33</time></trkpt><trkpt lat="55.8080620" lon="49.1020620"><time>2021-08-14T08:09:34</time></trkpt><trkpt lat="55.8080440" lon="49.1020520"><time>2021-08-14T08:09:35</time></trkpt><trkpt lat="55.8080280" lon="49.1020440"><time>2021-08-14T08:09:36</time></trkpt><trkpt lat="55.8080120" lon="49.1020500"><time>2021-08-14T08:09:37</time></trkpt><trkpt lat="55.8079960" lon="49.1020590"><time>2021-08-14T08:09:38</time></trkpt><trkpt lat="55.8079690" lon="49.1020490"><time>2021-08-14T08:09:39</time></trkpt><trkpt lat="55.8079600" lon="49.1020450"><time>2021-08-14T08:09:40</time></trkpt><trkpt lat="55.8079440" lon="49.1020450"><time>2021-08-14T08:09:41</time></trkpt><trkpt lat="55.8079270" lon="49.1020420"><time>2021-08-14T08:09:42</time></trkpt><trkpt lat="55.8079140" lon="49.1020400"><time>2021-08-14T08:09:43</time></trkpt><trkpt lat="55.8078990" lon="49.1020440"><time>2021-08-14T08:09:44</time></trkpt><trkpt lat="55.8078860" lon="49.1020400"><time>2021-08-14T08:09:45</time></trkpt><trkpt lat="55.8078690" lon="49.1020370"><time>2021-08-14T08:09:46</time></trkpt><trkpt lat="55.8078520" lon="49.1020260"><time>2021-08-14T08:09:47</time></trkpt><trkpt lat="55.8078360" lon="49.1020190"><time>2021-08-14T08:09:48</time></trkpt><trkpt lat="55.8078180" lon="49.1020220"><time>2021-08-14T08:09:49</time></trkpt><trkpt lat="55.8078030" lon="49.1020260"><time>2021-08-14T08:09:50</time></trkpt><trkpt lat="55.8077880" lon="49.1020250"><time>2021-08-14T08:09:51</time></trkpt><trkpt lat="55.8077710" lon="49.1020190"><time>2021-08-14T08:09:52</time></trkpt><trkpt lat="55.8077540" lon="49.1020260"><time>2021-08-14T08:09:53</time></trkpt><trkpt lat="55.8077400" lon="49.1020190"><time>2021-08-14T08:09:54</time></trkpt><trkpt lat="55.8077240" lon="49.1020070"><time>2021-08-14T08:09:55</time></trkpt><trkpt lat="55.8077060" lon="49.1020060"><time>2021-08-14T08:09:56</time></trkpt><trkpt lat="55.8076910" lon="49.1020110"><time>2021-08-14T08:09:57</time></trkpt><trkpt lat="55.8076740" lon="49.1020070"><time>2021-08-14T08:09:58</time></trkpt><trkpt lat="55.8076590" lon="49.1020080"><time>2021-08-14T08:09:59</time></trkpt><trkpt lat="55.8076440" lon="49.1020020"><time>2021-08-14T08:10:00</time></trkpt><trkpt lat="55.8076290" lon="49.1020040"><time>2021-08-14T08:10:01</time></trkpt><trkpt lat="55.8076140" lon="49.1020020"><time>2021-08-14T08:10:02</time></trkpt><trkpt lat="55.8075950" lon="49.1019980"><time>2021-08-14T08:10:03</time></trkpt><trkpt lat="55.8075830" lon="49.1019920"><time>2021-08-14T08:10:04</time></trkpt><trkpt lat="55.8075540" lon="49.1019970"><time>2021-08-14T08:10:05</time></trkpt><trkpt lat="55.8075450" lon="49.1019950"><time>2021-08-14T08:10:06</time></trkpt><trkpt lat="55.8075150" lon="49.1019930"><time>2021-08-14T08:10:07</time></trkpt><trkpt lat="55.8075060" lon="49.1019940"><time>2021-08-14T08:10:08</time></trkpt><trkpt lat="55.8074920" lon="49.1019900"><time>2021-08-14T08:10:09</time></trkpt><trkpt lat="55.8074750" lon="49.1019880"><time>2021-08-14T08:10:10</time></trkpt><trkpt lat="55.8074600" lon="49.1019840"><time>2021-08-14T08:10:11</time></trkpt><trkpt lat="55.8074440" lon="49.1019800"><time>2021-08-14T08:10:12</time></trkpt><trkpt lat="55.8074260" lon="49.1019790"><time>2021-08-14T08:10:13</time></trkpt><trkpt lat="55.8074100" lon="49.1019770"><time>2021-08-14T08:10:14</time></trkpt><trkpt lat="55.8073950" lon="49.1019730"><time>2021-08-14T08:10:15</time></trkpt><trkpt lat="55.8073800" lon="49.1019750"><time>2021-08-14T08:10:16</time></trkpt><trkpt lat="55.8073640" lon="49.1019680"><time>2021-08-14T08:10:17</time></trkpt><trkpt lat="55.8073480" lon="49.1019700"><time>2021-08-14T08:10:18</time></trkpt><trkpt lat="55.8073330" lon="49.1019700"><time>2021-08-14T08:10:19</time></trkpt><trkpt lat="55.8073150" lon="49.1019610"><time>2021-08-14T08:10:20</time></trkpt><trkpt lat="55.8072970" lon="49.1019660"><time>2021-08-14T08:10:21</time></trkpt><trkpt lat="55.8072810" lon="49.1019590"><time>2021-08-14T08:10:22</time></trkpt><trkpt lat="55.8072640" lon="49.1019610"><time>2021-08-14T08:10:23</time></trkpt><trkpt lat="55.8072500" lon="49.1019540"><time>2021-08-14T08:10:24</time></trkpt><trkpt lat="55.8072300" lon="49.1019570"><time>2021-08-14T08:10:25</time></trkpt><trkpt lat="55.8072160" lon="49.1019540"><time>2021-08-14T08:10:26</time></trkpt><trkpt lat="55.8071980" lon="49.1019600"><time>2021-08-14T08:10:27</time></trkpt><trkpt lat="55.8071850" lon="49.1019610"><time>2021-08-14T08:10:28</time></trkpt><trkpt lat="55.8071680" lon="49.1019580"><time>2021-08-14T08:10:29</time></trkpt><trkpt lat="55.8071540" lon="49.1019530"><time>2021-08-14T08:10:30</time></trkpt><trkpt lat="55.8071360" lon="49.1019540"><time>2021-08-14T08:10:31</time></trkpt><trkpt lat="55.8071210" lon="49.1019520"><time>2021-08-14T08:10:32</time></trkpt><trkpt lat="55.8070920" lon="49.1019580"><time>2021-08-14T08:10:33</time></trkpt><trkpt lat="55.8070830" lon="49.1019600"><time>2021-08-14T08:10:34</time></trkpt><trkpt lat="55.8070660" lon="49.1019600"><time>2021-08-14T08:10:35</time></trkpt><trkpt lat="55.8070470" lon="49.1019560"><time>2021-08-14T08:10:36</time></trkpt><trkpt lat="55.8070270" lon="49.1019570"><time>2021-08-14T08:10:37</time></trkpt><trkpt lat="55.8070110" lon="49.1019530"><time>2021-08-14T08:10:38</time></trkpt><trkpt lat="55.8069950" lon="49.1019540"><time>2021-08-14T08:10:39</time></trkpt><trkpt lat="55.8069790" lon="49.1019510"><time>2021-08-14T08:10:40</time></trkpt><trkpt lat="55.8069620" lon="49.1019450"><time>2021-08-14T08:10:41</time></trkpt><trkpt lat="55.8069460" lon="49.1019270"><time>2021-08-14T08:10:42</time></trkpt><trkpt lat="55.8069270" lon="49.1019240"><time>2021-08-14T08:10:43</time></trkpt><trkpt lat="55.8069110" lon="49.1019210"><time>2021-08-14T08:10:44</time></trkpt><trkpt lat="55.8068770" lon="49.1019300"><time>2021-08-14T08:10:45</time></trkpt><trkpt lat="55.8068480" lon="49.1019210"><time>2021-08-14T08:10:46</time></trkpt><trkpt lat="55.8068390" lon="49.1019200"><time>2021-08-14T08:10:47</time></trkpt><trkpt lat="55.8068060" lon="49.1019050"><time>2021-08-14T08:10:49</time></trkpt><trkpt lat="55.8067900" lon="49.1019060"><time>2021-08-14T08:10:50</time></trkpt><trkpt lat="55.8067730" lon="49.1019070"><time>2021-08-14T08:10:51</time></trkpt><trkpt lat="55.8067560" lon="49.1018990"><time>2021-08-14T08:10:52</time></trkpt><trkpt lat="55.8067390" lon="49.1018990"><time>2021-08-14T08:10:53</time></trkpt><trkpt lat="55.8067250" lon="49.1018950"><time>2021-08-14T08:10:54</time></trkpt><trkpt lat="55.8067040" lon="49.1019000"><time>2021-08-14T08:10:55</time></trkpt><trkpt lat="55.8066890" lon="49.1018980"><time>2021-08-14T08:10:56</time></trkpt><trkpt lat="55.8066720" lon="49.1019070"><time>2021-08-14T08:10:57</time></trkpt><trkpt lat="55.8066520" lon="49.1018960"><time>2021-08-14T08:10:58</time></trkpt><trkpt lat="55.8066370" lon="49.1018860"><time>2021-08-14T08:10:59</time></trkpt><trkpt lat="55.8066230" lon="49.1018820"><time>2021-08-14T08:11:00</time></trkpt><trkpt lat="55.8066080" lon="49.1018850"><time>2021-08-14T08:11:01</time></trkpt><trkpt lat="55.8065900" lon="49.1018870"><time>2021-08-14T08:11:02</time></trkpt><trkpt lat="55.8065740" lon="49.1018860"><time>2021-08-14T08:11:03</time></trkpt><trkpt lat="55.8065550" lon="49.1018810"><time>2021-08-14T08:11:04</time></trkpt><trkpt lat="55.8065380" lon="49.1018780"><time>2021-08-14T08:11:05</time></trkpt><trkpt lat="55.8065220" lon="49.1018720"><time>2021-08-14T08:11:06</time></trkpt><trkpt lat="55.8065060" lon="49.1018750"><time>2021-08-14T08:11:07</time></trkpt><trkpt lat="55.8064940" lon="49.1018700"><time>2021-08-14T08:11:08</time></trkpt><trkpt lat="55.8064740" lon="49.1018620"><time>2021-08-14T08:11:09</time></trkpt><trkpt lat="55.8064560" lon="49.1018620"><time>2021-08-14T08:11:10</time></trkpt><trkpt lat="55.8064390" lon="49.1018610"><time>2021-08-14T08:11:11</time></trkpt><trkpt lat="55.8064210" lon="49.1018620"><time>2021-08-14T08:11:12</time></trkpt><trkpt lat="55.8064050" lon="49.1018620"><time>2021-08-14T08:11:13</time></trkpt><trkpt lat="55.8063870" lon="49.1018600"><time>2021-08-14T08:11:14</time></trkpt><trkpt lat="55.8063720" lon="49.1018570"><time>2021-08-14T08:11:15</time></trkpt><trkpt lat="55.8063450" lon="49.1018520"><time>2021-08-14T08:11:16</time></trkpt><trkpt lat="55.8063330" lon="49.1018490"><time>2021-08-14T08:11:17</time></trkpt><trkpt lat="55.8063140" lon="49.1018490"><time>2021-08-14T08:11:18</time></trkpt><trkpt lat="55.8063020" lon="49.1018410"><time>2021-08-14T08:11:19</time></trkpt><trkpt lat="55.8062830" lon="49.1018400"><time>2021-08-14T08:11:20</time></trkpt><trkpt lat="55.8062670" lon="49.1018440"><time>2021-08-14T08:11:21</time></trkpt><trkpt lat="55.8062470" lon="49.1018400"><time>2021-08-14T08:11:23</time></trkpt><trkpt lat="55.8062320" lon="49.1018300"><time>2021-08-14T08:11:24</time></trkpt><trkpt lat="55.8062140" lon="49.1018460"><time>2021-08-14T08:11:25</time></trkpt><trkpt lat="55.8062000" lon="49.1018420"><time>2021-08-14T08:11:26</time></trkpt><trkpt lat="55.8061800" lon="49.1018350"><time>2021-08-14T08:11:27</time></trkpt><trkpt lat="55.8061670" lon="49.1018400"><time>2021-08-14T08:11:28</time></trkpt><trkpt lat="55.8061530" lon="49.1018450"><time>2021-08-14T08:11:29</time></trkpt><trkpt lat="55.8061340" lon="49.1018450"><time>2021-08-14T08:11:30</time></trkpt><trkpt lat="55.8061200" lon="49.1018380"><time>2021-08-14T08:11:31</time></trkpt><trkpt lat="55.8061010" lon="49.1018310"><time>2021-08-14T08:11:32</time></trkpt><trkpt lat="55.8060870" lon="49.1018330"><time>2021-08-14T08:11:33</time></trkpt><trkpt lat="55.8060710" lon="49.1018310"><time>2021-08-14T08:11:34</time></trkpt><trkpt lat="55.8060530" lon="49.1018280"><time>2021-08-14T08:11:35</time></trkpt><trkpt lat="55.8060360" lon="49.1018250"><time>2021-08-14T08:11:36</time></trkpt><trkpt lat="55.8060180" lon="49.1018290"><time>2021-08-14T08:11:37</time></trkpt><trkpt lat="55.8060020" lon="49.1018290"><time>2021-08-14T08:11:38</time></trkpt><trkpt lat="55.8059840" lon="49.1018290"><time>2021-08-14T08:11:39</time></trkpt><trkpt lat="55.8059660" lon="49.1018200"><time>2021-08-14T08:11:40</time></trkpt><trkpt lat="55.8059500" lon="49.1018150"><time>2021-08-14T08:11:41</time></trkpt><trkpt lat="55.8059320" lon="49.1018050"><time>2021-08-14T08:11:42</time></trkpt><trkpt lat="55.8059140" lon="49.1018120"><time>2021-08-14T08:11:43</time></trkpt><trkpt lat="55.8058990" lon="49.1018140"><time>2021-08-14T08:11:44</time></trkpt><trkpt lat="55.8058720" lon="49.1018050"><time>2021-08-14T08:11:45</time></trkpt><trkpt lat="55.8058630" lon="49.1018000"><time>2021-08-14T08:11:46</time></trkpt><trkpt lat="55.8058480" lon="49.1018000"><time>2021-08-14T08:11:47</time></trkpt><trkpt lat="55.8058320" lon="49.1018040"><time>2021-08-14T08:11:48</time></trkpt><trkpt lat="55.8058200" lon="49.1018080"><time>2021-08-14T08:11:49</time></trkpt><trkpt lat="55.8057980" lon="49.1017970"><time>2021-08-14T08:11:50</time></trkpt><trkpt lat="55.8057820" lon="49.1018010"><time>2021-08-14T08:11:51</time></trkpt><trkpt lat="55.8057640" lon="49.1017930"><time>2021-08-14T08:11:52</time></trkpt><trkpt lat="55.8057370" lon="49.1017870"><time>2021-08-14T08:11:53</time></trkpt><trkpt lat="55.8057280" lon="49.1017830"><time>2021-08-14T08:11:54</time></trkpt><trkpt lat="55.8057120" lon="49.1017860"><time>2021-08-14T08:11:55</time></trkpt><trkpt lat="55.8056980" lon="49.1017820"><time>2021-08-14T08:11:56</time></trkpt><trkpt lat="55.8056790" lon="49.1017870"><time>2021-08-14T08:11:57</time></trkpt><trkpt lat="55.8056610" lon="49.1017790"><time>2021-08-14T08:11:58</time></trkpt><trkpt lat="55.8056450" lon="49.1017800"><time>2021-08-14T08:11:59</time></trkpt><trkpt lat="55.8056260" lon="49.1017730"><time>2021-08-14T08:12:00</time></trkpt><trkpt lat="55.8056020" lon="49.1017750"><time>2021-08-14T08:12:01</time></trkpt><trkpt lat="55.8055910" lon="49.1017720"><time>2021-08-14T08:12:02</time></trkpt><trkpt lat="55.8055810" lon="49.1017700"><time>2021-08-14T08:12:03</time></trkpt><trkpt lat="55.8055630" lon="49.1017680"><time>2021-08-14T08:12:04</time></trkpt><trkpt lat="55.8055460" lon="49.1017640"><time>2021-08-14T08:12:05</time></trkpt><trkpt lat="55.8055320" lon="49.1017660"><time>2021-08-14T08:12:06</time></trkpt><trkpt lat="55.8055110" lon="49.1017590"><time>2021-08-14T08:12:07</time></trkpt><trkpt lat="55.8054940" lon="49.1017570"><time>2021-08-14T08:12:08</time></trkpt><trkpt lat="55.8054800" lon="49.1017540"><time>2021-08-14T08:12:09</time></trkpt><trkpt lat="55.8054630" lon="49.1017540"><time>2021-08-14T08:12:10</time></trkpt><trkpt lat="55.8054460" lon="49.1017460"><time>2021-08-14T08:12:11</time></trkpt><trkpt lat="55.8054300" lon="49.1017540"><time>2021-08-14T08:12:12</time></trkpt><trkpt lat="55.8054120" lon="49.1017490"><time>2021-08-14T08:12:13</time></trkpt><trkpt lat="55.8053980" lon="49.1017530"><time>2021-08-14T08:12:14</time></trkpt><trkpt lat="55.8053810" lon="49.1017450"><time>2021-08-14T08:12:15</time></trkpt><trkpt lat="55.8053610" lon="49.1017510"><time>2021-08-14T08:12:16</time></trkpt><trkpt lat="55.8053470" lon="49.1017540"><time>2021-08-14T08:12:17</time></trkpt><trkpt lat="55.8053330" lon="49.1017540"><time>2021-08-14T08:12:18</time></trkpt><trkpt lat="55.8053160" lon="49.1017480"><time>2021-08-14T08:12:19</time></trkpt><trkpt lat="55.8053010" lon="49.1017410"><time>2021-08-14T08:12:20</time></trkpt><trkpt lat="55.8052830" lon="49.1017380"><time>2021-08-14T08:12:21</time></trkpt><trkpt lat="55.8052690" lon="49.1017310"><time>2021-08-14T08:12:22</time></trkpt><trkpt lat="55.8052560" lon="49.1017360"><time>2021-08-14T08:12:23</time></trkpt><trkpt lat="55.8052400" lon="49.1017260"><time>2021-08-14T08:12:24</time></trkpt><trkpt lat="55.8052220" lon="49.1017310"><time>2021-08-14T08:12:25</time></trkpt><trkpt lat="55.8052060" lon="49.1017170"><time>2021-08-14T08:12:26</time></trkpt><trkpt lat="55.8051880" lon="49.1017220"><time>2021-08-14T08:12:27</time></trkpt><trkpt lat="55.8051740" lon="49.1017200"><time>2021-08-14T08:12:28</time></trkpt><trkpt lat="55.8051530" lon="49.1017190"><time>2021-08-14T08:12:29</time></trkpt><trkpt lat="55.8051270" lon="49.1017150"><time>2021-08-14T08:12:30</time></trkpt><trkpt lat="55.8051160" lon="49.1017160"><time>2021-08-14T08:12:31</time></trkpt><trkpt lat="55.8051000" lon="49.1017100"><time>2021-08-14T08:12:32</time></trkpt><trkpt lat="55.8050830" lon="49.1017060"><time>2021-08-14T08:12:33</time></trkpt><trkpt lat="55.8050710" lon="49.1017090"><time>2021-08-14T08:12:34</time></trkpt><trkpt lat="55.8050550" lon="49.1017060"><time>2021-08-14T08:12:35</time></trkpt><trkpt lat="55.8050390" lon="49.1017010"><time>2021-08-14T08:12:36</time></trkpt><trkpt lat="55.8050240" lon="49.1016990"><time>2021-08-14T08:12:37</time></trkpt><trkpt lat="55.8050100" lon="49.1016980"><time>2021-08-14T08:12:38</time></trkpt><trkpt lat="55.8049960" lon="49.1017010"><time>2021-08-14T08:12:39</time></trkpt><trkpt lat="55.8049780" lon="49.1016930"><time>2021-08-14T08:12:40</time></trkpt><trkpt lat="55.8049650" lon="49.1016950"><time>2021-08-14T08:12:41</time></trkpt><trkpt lat="55.8049510" lon="49.1016890"><time>2021-08-14T08:12:42</time></trkpt><trkpt lat="55.8049340" lon="49.1016810"><time>2021-08-14T08:12:43</time></trkpt><trkpt lat="55.8049060" lon="49.1016810"><time>2021-08-14T08:12:44</time></trkpt><trkpt lat="55.8048980" lon="49.1016830"><time>2021-08-14T08:12:45</time></trkpt><trkpt lat="55.8048800" lon="49.1016790"><time>2021-08-14T08:12:46</time></trkpt><trkpt lat="55.8048620" lon="49.1016750"><time>2021-08-14T08:12:47</time></trkpt><trkpt lat="55.8048460" lon="49.1016670"><time>2021-08-14T08:12:48</time></trkpt><trkpt lat="55.8048260" lon="49.1016620"><time>2021-08-14T08:12:49</time></trkpt><trkpt lat="55.8048080" lon="49.1016590"><time>2021-08-14T08:12:50</time></trkpt><trkpt lat="55.8047910" lon="49.1016570"><time>2021-08-14T08:12:51</time></trkpt><trkpt lat="55.8047750" lon="49.1016540"><time>2021-08-14T08:12:52</time></trkpt><trkpt lat="55.8047560" lon="49.1016480"><time>2021-08-14T08:12:53</time></trkpt><trkpt lat="55.8047400" lon="49.1016430"><time>2021-08-14T08:12:54</time></trkpt><trkpt lat="55.8047240" lon="49.1016460"><time>2021-08-14T08:12:55</time></trkpt><trkpt lat="55.8047100" lon="49.1016450"><time>2021-08-14T08:12:56</time></trkpt><trkpt lat="55.8046950" lon="49.1016430"><time>2021-08-14T08:12:57</time></trkpt><trkpt lat="55.8046780" lon="49.1016330"><time>2021-08-14T08:12:58</time></trkpt><trkpt lat="55.8046620" lon="49.1016280"><time>2021-08-14T08:12:59</time></trkpt><trkpt lat="55.8046470" lon="49.1016260"><time>2021-08-14T08:13:00</time></trkpt><trkpt lat="55.8046300" lon="49.1016220"><time>2021-08-14T08:13:01</time></trkpt><trkpt lat="55.8046160" lon="49.1016210"><time>2021-08-14T08:13:02</time></trkpt><trkpt lat="55.8046000" lon="49.1016210"><time>2021-08-14T08:13:03</time></trkpt><trkpt lat="55.8045860" lon="49.1016170"><time>2021-08-14T08:13:04</time></trkpt><trkpt lat="55.8045720" lon="49.1016060"><time>2021-08-14T08:13:05</time></trkpt><trkpt lat="55.8045440" lon="49.1015990"><time>2021-08-14T08:13:06</time></trkpt><trkpt lat="55.8045360" lon="49.1015950"><time>2021-08-14T08:13:07</time></trkpt><trkpt lat="55.8045190" lon="49.1015870"><time>2021-08-14T08:13:08</time></trkpt><trkpt lat="55.8045040" lon="49.1015840"><time>2021-08-14T08:13:09</time></trkpt><trkpt lat="55.8044870" lon="49.1015830"><time>2021-08-14T08:13:10</time></trkpt><trkpt lat="55.8044690" lon="49.1015800"><time>2021-08-14T08:13:11</time></trkpt><trkpt lat="55.8044550" lon="49.1015760"><time>2021-08-14T08:13:12</time></trkpt><trkpt lat="55.8044390" lon="49.1015780"><time>2021-08-14T08:13:13</time></trkpt><trkpt lat="55.8044220" lon="49.1015780"><time>2021-08-14T08:13:14</time></trkpt><trkpt lat="55.8044060" lon="49.1015670"><time>2021-08-14T08:13:15</time></trkpt><trkpt lat="55.8043920" lon="49.1015610"><time>2021-08-14T08:13:16</time></trkpt><trkpt lat="55.8043770" lon="49.1015490"><time>2021-08-14T08:13:17</time></trkpt><trkpt lat="55.8043630" lon="49.1015410"><time>2021-08-14T08:13:18</time></trkpt><trkpt lat="55.8043490" lon="49.1015400"><time>2021-08-14T08:13:19</time></trkpt><trkpt lat="55.8043350" lon="49.1015280"><time>2021-08-14T08:13:20</time></trkpt><trkpt lat="55.8043220" lon="49.1015280"><time>2021-08-14T08:13:21</time></trkpt><trkpt lat="55.8043100" lon="49.1015060"><time>2021-08-14T08:13:22</time></trkpt><trkpt lat="55.8043040" lon="49.1014750"><time>2021-08-14T08:13:23</time></trkpt><trkpt lat="55.8042880" lon="49.1014430"><time>2021-08-14T08:13:24</time></trkpt><trkpt lat="55.8042820" lon="49.1014340"><time>2021-08-14T08:13:25</time></trkpt><trkpt lat="55.8042770" lon="49.1014250"><time>2021-08-14T08:13:26</time></trkpt><trkpt lat="55.8042820" lon="49.1014140"><time>2021-08-14T08:13:27</time></trkpt><trkpt lat="55.8042840" lon="49.1014120"><time>2021-08-14T08:13:28</time></trkpt><trkpt lat="55.8042910" lon="49.1014220"><time>2021-08-14T08:13:29</time></trkpt><trkpt lat="55.8042940" lon="49.1014210"><time>2021-08-14T08:13:30</time></trkpt><trkpt lat="55.8042930" lon="49.1014190"><time>2021-08-14T08:13:31</time></trkpt><trkpt lat="55.8042940" lon="49.1014120"><time>2021-08-14T08:13:32</time></trkpt><trkpt lat="55.8042980" lon="49.1013810"><time>2021-08-14T08:13:33</time></trkpt><trkpt lat="55.8042910" lon="49.1013410"><time>2021-08-14T08:13:34</time></trkpt><trkpt lat="55.8042860" lon="49.1013350"><time>2021-08-14T08:13:35</time></trkpt><trkpt lat="55.8042810" lon="49.1013300"><time>2021-08-14T08:13:36</time></trkpt><trkpt lat="55.8042870" lon="49.1013510"><time>2021-08-14T08:13:37</time></trkpt><trkpt lat="55.8042890" lon="49.1013590"><time>2021-08-14T08:13:38</time></trkpt><trkpt lat="55.8042890" lon="49.1013630"><time>2021-08-14T08:13:39</time></trkpt><trkpt lat="55.8042890" lon="49.1013570"><time>2021-08-14T08:13:40</time></trkpt><trkpt lat="55.8042900" lon="49.1013550"><time>2021-08-14T08:13:41</time></trkpt><trkpt lat="55.8042900" lon="49.1013520"><time>2021-08-14T08:13:42</time></trkpt><trkpt lat="55.8042710" lon="49.1013360"><time>2021-08-14T08:13:43</time></trkpt><trkpt lat="55.8042590" lon="49.1013390"><time>2021-08-14T08:13:44</time></trkpt><trkpt lat="55.8042360" lon="49.1013380"><time>2021-08-14T08:13:45</time></trkpt><trkpt lat="55.8042270" lon="49.1013390"><time>2021-08-14T08:13:46</time></trkpt><trkpt lat="55.8042170" lon="49.1013400"><time>2021-08-14T08:13:47</time></trkpt><trkpt lat="55.8042080" lon="49.1013410"><time>2021-08-14T08:13:48</time></trkpt><trkpt lat="55.8041930" lon="49.1013350"><time>2021-08-14T08:13:49</time></trkpt><trkpt lat="55.8041810" lon="49.1013340"><time>2021-08-14T08:13:50</time></trkpt><trkpt lat="55.8041630" lon="49.1013310"><time>2021-08-14T08:13:51</time></trkpt><trkpt lat="55.8041540" lon="49.1013240"><time>2021-08-14T08:13:52</time></trkpt><trkpt lat="55.8041380" lon="49.1013190"><time>2021-08-14T08:13:53</time></trkpt><trkpt lat="55.8041200" lon="49.1013120"><time>2021-08-14T08:13:54</time></trkpt><trkpt lat="55.8041110" lon="49.1013160"><time>2021-08-14T08:13:55</time></trkpt><trkpt lat="55.8040930" lon="49.1013150"><time>2021-08-14T08:13:56</time></trkpt><trkpt lat="55.8040660" lon="49.1013050"><time>2021-08-14T08:13:57</time></trkpt><trkpt lat="55.8040570" lon="49.1013000"><time>2021-08-14T08:13:58</time></trkpt><trkpt lat="55.8040410" lon="49.1012880"><time>2021-08-14T08:13:59</time></trkpt><trkpt lat="55.8040260" lon="49.1012880"><time>2021-08-14T08:14:00</time></trkpt><trkpt lat="55.8040110" lon="49.1012840"><time>2021-08-14T08:14:01</time></trkpt><trkpt lat="55.8039960" lon="49.1012820"><time>2021-08-14T08:14:02</time></trkpt><trkpt lat="55.8039800" lon="49.1012770"><time>2021-08-14T08:14:03</time></trkpt><trkpt lat="55.8039650" lon="49.1012680"><time>2021-08-14T08:14:04</time></trkpt><trkpt lat="55.8039510" lon="49.1012550"><time>2021-08-14T08:14:05</time></trkpt><trkpt lat="55.8039400" lon="49.1012390"><time>2021-08-14T08:14:06</time></trkpt><trkpt lat="55.8039160" lon="49.1012060"><time>2021-08-14T08:14:07</time></trkpt><trkpt lat="55.8039010" lon="49.1012000"><time>2021-08-14T08:14:08</time></trkpt><trkpt lat="55.8038860" lon="49.1011930"><time>2021-08-14T08:14:09</time></trkpt><trkpt lat="55.8038710" lon="49.1011930"><time>2021-08-14T08:14:10</time></trkpt><trkpt lat="55.8038570" lon="49.1012020"><time>2021-08-14T08:14:11</time></trkpt><trkpt lat="55.8038410" lon="49.1011930"><time>2021-08-14T08:14:12</time></trkpt><trkpt lat="55.8038260" lon="49.1011990"><time>2021-08-14T08:14:13</time></trkpt><trkpt lat="55.8038100" lon="49.1011940"><time>2021-08-14T08:14:14</time></trkpt><trkpt lat="55.8037960" lon="49.1011920"><time>2021-08-14T08:14:15</time></trkpt><trkpt lat="55.8037810" lon="49.1011880"><time>2021-08-14T08:14:16</time></trkpt><trkpt lat="55.8037670" lon="49.1011880"><time>2021-08-14T08:14:17</time></trkpt><trkpt lat="55.8037460" lon="49.1011820"><time>2021-08-14T08:14:18</time></trkpt><trkpt lat="55.8037350" lon="49.1011780"><time>2021-08-14T08:14:19</time></trkpt><trkpt lat="55.8037250" lon="49.1011730"><time>2021-08-14T08:14:20</time></trkpt><trkpt lat="55.8037070" lon="49.1011660"><time>2021-08-14T08:14:21</time></trkpt><trkpt lat="55.8036920" lon="49.1011590"><time>2021-08-14T08:14:22</time></trkpt><trkpt lat="55.8036780" lon="49.1011590"><time>2021-08-14T08:14:23</time></trkpt><trkpt lat="55.8036650" lon="49.1011550"><time>2021-08-14T08:14:24</time></trkpt><trkpt lat="55.8036510" lon="49.1011480"><time>2021-08-14T08:14:25</time></trkpt><trkpt lat="55.8036370" lon="49.1011430"><time>2021-08-14T08:14:26</time></trkpt><trkpt lat="55.8036220" lon="49.1011390"><time>2021-08-14T08:14:27</time></trkpt><trkpt lat="55.8036090" lon="49.1011350"><time>2021-08-14T08:14:28</time></trkpt><trkpt lat="55.8035930" lon="49.1011330"><time>2021-08-14T08:14:29</time></trkpt><trkpt lat="55.8035780" lon="49.1011330"><time>2021-08-14T08:14:30</time></trkpt><trkpt lat="55.8035630" lon="49.1011240"><time>2021-08-14T08:14:31</time></trkpt><trkpt lat="55.8035490" lon="49.1011190"><time>2021-08-14T08:14:32</time></trkpt><trkpt lat="55.8035350" lon="49.1011110"><time>2021-08-14T08:14:33</time></trkpt><trkpt lat="55.8035200" lon="49.1011050"><time>2021-08-14T08:14:34</time></trkpt><trkpt lat="55.8035050" lon="49.1011030"><time>2021-08-14T08:14:35</time></trkpt><trkpt lat="55.8034910" lon="49.1010990"><time>2021-08-14T08:14:36</time></trkpt><trkpt lat="55.8034760" lon="49.1010950"><time>2021-08-14T08:14:37</time></trkpt><trkpt lat="55.8034610" lon="49.1010900"><time>2021-08-14T08:14:38</time></trkpt><trkpt lat="55.8034470" lon="49.1010800"><time>2021-08-14T08:14:39</time></trkpt><trkpt lat="55.8034340" lon="49.1010700"><time>2021-08-14T08:14:40</time></trkpt><trkpt lat="55.8034200" lon="49.1010610"><time>2021-08-14T08:14:41</time></trkpt><trkpt lat="55.8034060" lon="49.1010530"><time>2021-08-14T08:14:42</time></trkpt><trkpt lat="55.8033920" lon="49.1010510"><time>2021-08-14T08:14:43</time></trkpt><trkpt lat="55.8033770" lon="49.1010520"><time>2021-08-14T08:14:44</time></trkpt><trkpt lat="55.8033610" lon="49.1010460"><time>2021-08-14T08:14:45</time></trkpt><trkpt lat="55.8033470" lon="49.1010330"><time>2021-08-14T08:14:46</time></trkpt><trkpt lat="55.8033320" lon="49.1010220"><time>2021-08-14T08:14:47</time></trkpt><trkpt lat="55.8033170" lon="49.1010140"><time>2021-08-14T08:14:48</time></trkpt><trkpt lat="55.8033010" lon="49.1010090"><time>2021-08-14T08:14:49</time></trkpt><trkpt lat="55.8032870" lon="49.1010010"><time>2021-08-14T08:14:50</time></trkpt><trkpt lat="55.8032710" lon="49.1009940"><time>2021-08-14T08:14:51</time></trkpt><trkpt lat="55.8032560" lon="49.1009870"><time>2021-08-14T08:14:52</time></trkpt><trkpt lat="55.8032410" lon="49.1009800"><time>2021-08-14T08:14:53</time></trkpt><trkpt lat="55.8032260" lon="49.1009750"><time>2021-08-14T08:14:54</time></trkpt><trkpt lat="55.8032100" lon="49.1009680"><time>2021-08-14T08:14:55</time></trkpt><trkpt lat="55.8031970" lon="49.1009590"><time>2021-08-14T08:14:56</time></trkpt><trkpt lat="55.8031810" lon="49.1009530"><time>2021-08-14T08:14:57</time></trkpt><trkpt lat="55.8031650" lon="49.1009470"><time>2021-08-14T08:14:58</time></trkpt><trkpt lat="55.8031490" lon="49.1009400"><time>2021-08-14T08:14:59</time></trkpt><trkpt lat="55.8031350" lon="49.1009250"><time>2021-08-14T08:15:00</time></trkpt><trkpt lat="55.8031180" lon="49.1009170"><time>2021-08-14T08:15:01</time></trkpt><trkpt lat="55.8031030" lon="49.1009050"><time>2021-08-14T08:15:02</time></trkpt><trkpt lat="55.8030880" lon="49.1008990"><time>2021-08-14T08:15:03</time></trkpt><trkpt lat="55.8030730" lon="49.1008930"><time>2021-08-14T08:15:04</time></trkpt><trkpt lat="55.8030570" lon="49.1008850"><time>2021-08-14T08:15:05</time></trkpt><trkpt lat="55.8030440" lon="49.1008690"><time>2021-08-14T08:15:06</time></trkpt><trkpt lat="55.8030280" lon="49.1008570"><time>2021-08-14T08:15:07</time></trkpt><trkpt lat="55.8030130" lon="49.1008450"><time>2021-08-14T08:15:08</time></trkpt><trkpt lat="55.8029980" lon="49.1008370"><time>2021-08-14T08:15:09</time></trkpt><trkpt lat="55.8029840" lon="49.1008270"><time>2021-08-14T08:15:10</time></trkpt><trkpt lat="55.8029690" lon="49.1008160"><time>2021-08-14T08:15:11</time></trkpt><trkpt lat="55.8029550" lon="49.1008070"><time>2021-08-14T08:15:12</time></trkpt><trkpt lat="55.8029420" lon="49.1007950"><time>2021-08-14T08:15:13</time></trkpt><trkpt lat="55.8029260" lon="49.1007900"><time>2021-08-14T08:15:14</time></trkpt><trkpt lat="55.8029120" lon="49.1007780"><time>2021-08-14T08:15:15</time></trkpt><trkpt lat="55.8028990" lon="49.1007590"><time>2021-08-14T08:15:16</time></trkpt><trkpt lat="55.8028850" lon="49.1007490"><time>2021-08-14T08:15:17</time></trkpt><trkpt lat="55.8028710" lon="49.1007390"><time>2021-08-14T08:15:18</time></trkpt><trkpt lat="55.8028590" lon="49.1007230"><time>2021-08-14T08:15:19</time></trkpt><trkpt lat="55.8028450" lon="49.1007060"><time>2021-08-14T08:15:20</time></trkpt><trkpt lat="55.8028290" lon="49.1007000"><time>2021-08-14T08:15:21</time></trkpt><trkpt lat="55.8028150" lon="49.1006850"><time>2021-08-14T08:15:22</time></trkpt><trkpt lat="55.8028020" lon="49.1006680"><time>2021-08-14T08:15:23</time></trkpt><trkpt lat="55.8027910" lon="49.1006530"><time>2021-08-14T08:15:24</time></trkpt><trkpt lat="55.8027730" lon="49.1006460"><time>2021-08-14T08:15:25</time></trkpt><trkpt lat="55.8027580" lon="49.1006330"><time>2021-08-14T08:15:26</time></trkpt><trkpt lat="55.8027440" lon="49.1006200"><time>2021-08-14T08:15:27</time></trkpt><trkpt lat="55.8027290" lon="49.1006130"><time>2021-08-14T08:15:28</time></trkpt><trkpt lat="55.8027150" lon="49.1006000"><time>2021-08-14T08:15:29</time></trkpt><trkpt lat="55.8027010" lon="49.1005850"><time>2021-08-14T08:15:30</time></trkpt><trkpt lat="55.8026850" lon="49.1005800"><time>2021-08-14T08:15:31</time></trkpt><trkpt lat="55.8026690" lon="49.1005740"><time>2021-08-14T08:15:32</time></trkpt><trkpt lat="55.8026530" lon="49.1005680"><time>2021-08-14T08:15:33</time></trkpt><trkpt lat="55.8026360" lon="49.1005650"><time>2021-08-14T08:15:34</time></trkpt><trkpt lat="55.8026230" lon="49.1005490"><time>2021-08-14T08:15:36</time></trkpt><trkpt lat="55.8026060" lon="49.1005480"><time>2021-08-14T08:15:37</time></trkpt><trkpt lat="55.8025890" lon="49.1005480"><time>2021-08-14T08:15:38</time></trkpt><trkpt lat="55.8025740" lon="49.1005520"><time>2021-08-14T08:15:39</time></trkpt><trkpt lat="55.8025590" lon="49.1005510"><time>2021-08-14T08:15:40</time></trkpt><trkpt lat="55.8025420" lon="49.1005650"><time>2021-08-14T08:15:41</time></trkpt><trkpt lat="55.8025260" lon="49.1005640"><time>2021-08-14T08:15:42</time></trkpt><trkpt lat="55.8025100" lon="49.1005750"><time>2021-08-14T08:15:43</time></trkpt><trkpt lat="55.8024950" lon="49.1005820"><time>2021-08-14T08:15:44</time></trkpt><trkpt lat="55.8024800" lon="49.1005920"><time>2021-08-14T08:15:45</time></trkpt><trkpt lat="55.8024660" lon="49.1006010"><time>2021-08-14T08:15:46</time></trkpt><trkpt lat="55.8024510" lon="49.1006090"><time>2021-08-14T08:15:47</time></trkpt><trkpt lat="55.8024360" lon="49.1006230"><time>2021-08-14T08:15:48</time></trkpt><trkpt lat="55.8024210" lon="49.1006330"><time>2021-08-14T08:15:49</time></trkpt><trkpt lat="55.8024080" lon="49.1006490"><time>2021-08-14T08:15:50</time></trkpt><trkpt lat="55.8023920" lon="49.1006630"><time>2021-08-14T08:15:51</time></trkpt><trkpt lat="55.8023780" lon="49.1006720"><time>2021-08-14T08:15:52</time></trkpt><trkpt lat="55.8023620" lon="49.1006760"><time>2021-08-14T08:15:53</time></trkpt><trkpt lat="55.8023470" lon="49.1006870"><time>2021-08-14T08:15:54</time></trkpt><trkpt lat="55.8023330" lon="49.1006980"><time>2021-08-14T08:15:55</time></trkpt><trkpt lat="55.8023180" lon="49.1007060"><time>2021-08-14T08:15:56</time></trkpt><trkpt lat="55.8023030" lon="49.1007080"><time>2021-08-14T08:15:57</time></trkpt><trkpt lat="55.8022880" lon="49.1007120"><time>2021-08-14T08:15:58</time></trkpt><trkpt lat="55.8022760" lon="49.1007180"><time>2021-08-14T08:15:59</time></trkpt><trkpt lat="55.8022610" lon="49.1007190"><time>2021-08-14T08:16:00</time></trkpt><trkpt lat="55.8022470" lon="49.1007250"><time>2021-08-14T08:16:01</time></trkpt><trkpt lat="55.8022330" lon="49.1007280"><time>2021-08-14T08:16:02</time></trkpt><trkpt lat="55.8022190" lon="49.1007300"><time>2021-08-14T08:16:03</time></trkpt><trkpt lat="55.8022040" lon="49.1007360"><time>2021-08-14T08:16:04</time></trkpt><trkpt lat="55.8021910" lon="49.1007460"><time>2021-08-14T08:16:05</time></trkpt><trkpt lat="55.8021800" lon="49.1007500"><time>2021-08-14T08:16:06</time></trkpt><trkpt lat="55.8021670" lon="49.1007420"><time>2021-08-14T08:16:07</time></trkpt><trkpt lat="55.8021560" lon="49.1007420"><time>2021-08-14T08:16:08</time></trkpt><trkpt lat="55.8021440" lon="49.1007310"><time>2021-08-14T08:16:09</time></trkpt><trkpt lat="55.8021340" lon="49.1007230"><time>2021-08-14T08:16:10</time></trkpt><trkpt lat="55.8021250" lon="49.1007140"><time>2021-08-14T08:16:11</time></trkpt><trkpt lat="55.8021130" lon="49.1006940"><time>2021-08-14T08:16:12</time></trkpt><trkpt lat="55.8021060" lon="49.1006790"><time>2021-08-14T08:16:13</time></trkpt><trkpt lat="55.8020950" lon="49.1006670"><time>2021-08-14T08:16:14</time></trkpt><trkpt lat="55.8020830" lon="49.1006600"><time>2021-08-14T08:16:15</time></trkpt><trkpt lat="55.8020750" lon="49.1006510"><time>2021-08-14T08:16:16</time></trkpt><trkpt lat="55.8020670" lon="49.1006440"><time>2021-08-14T08:16:17</time></trkpt><trkpt lat="55.8020620" lon="49.1006330"><time>2021-08-14T08:16:18</time></trkpt><trkpt lat="55.8020590" lon="49.1006010"><time>2021-08-14T08:16:19</time></trkpt><trkpt lat="55.8020550" lon="49.1005630"><time>2021-08-14T08:16:20</time></trkpt><trkpt lat="55.8020520" lon="49.1005480"><time>2021-08-14T08:16:21</time></trkpt><trkpt lat="55.8020500" lon="49.1005330"><time>2021-08-14T08:16:22</time></trkpt><trkpt lat="55.8020490" lon="49.1005070"><time>2021-08-14T08:16:23</time></trkpt><trkpt lat="55.8020470" lon="49.1004850"><time>2021-08-14T08:16:24</time></trkpt><trkpt lat="55.8020450" lon="49.1004560"><time>2021-08-14T08:16:25</time></trkpt><trkpt lat="55.8020370" lon="49.1004340"><time>2021-08-14T08:16:26</time></trkpt><trkpt lat="55.8020280" lon="49.1003990"><time>2021-08-14T08:16:27</time></trkpt><trkpt lat="55.8020250" lon="49.1003840"><time>2021-08-14T08:16:28</time></trkpt><trkpt lat="55.8020210" lon="49.1003700"><time>2021-08-14T08:16:29</time></trkpt><trkpt lat="55.8020160" lon="49.1003310"><time>2021-08-14T08:16:30</time></trkpt><trkpt lat="55.8020160" lon="49.1003170"><time>2021-08-14T08:16:31</time></trkpt><trkpt lat="55.8020160" lon="49.1003020"><time>2021-08-14T08:16:32</time></trkpt><trkpt lat="55.8020050" lon="49.1002810"><time>2021-08-14T08:16:33</time></trkpt><trkpt lat="55.8019990" lon="49.1002570"><time>2021-08-14T08:16:34</time></trkpt><trkpt lat="55.8019930" lon="49.1002350"><time>2021-08-14T08:16:35</time></trkpt><trkpt lat="55.8019840" lon="49.1002130"><time>2021-08-14T08:16:36</time></trkpt><trkpt lat="55.8019720" lon="49.1001780"><time>2021-08-14T08:16:37</time></trkpt><trkpt lat="55.8019680" lon="49.1001630"><time>2021-08-14T08:16:38</time></trkpt><trkpt lat="55.8019650" lon="49.1001470"><time>2021-08-14T08:16:39</time></trkpt><trkpt lat="55.8019660" lon="49.1001250"><time>2021-08-14T08:16:40</time></trkpt><trkpt lat="55.8019680" lon="49.1001010"><time>2021-08-14T08:16:41</time></trkpt><trkpt lat="55.8019670" lon="49.1000900"><time>2021-08-14T08:16:42</time></trkpt><trkpt lat="55.8019690" lon="49.1000760"><time>2021-08-14T08:16:43</time></trkpt><trkpt lat="55.8019660" lon="49.1000580"><time>2021-08-14T08:16:44</time></trkpt><trkpt lat="55.8019670" lon="49.1000380"><time>2021-08-14T08:16:45</time></trkpt><trkpt lat="55.8019700" lon="49.0999960"><time>2021-08-14T08:16:46</time></trkpt><trkpt lat="55.8019690" lon="49.0999790"><time>2021-08-14T08:16:47</time></trkpt><trkpt lat="55.8019690" lon="49.0999630"><time>2021-08-14T08:16:48</time></trkpt><trkpt lat="55.8019620" lon="49.0999160"><time>2021-08-14T08:16:49</time></trkpt><trkpt lat="55.8019610" lon="49.0999060"><time>2021-08-14T08:16:50</time></trkpt><trkpt lat="55.8019610" lon="49.0998950"><time>2021-08-14T08:16:51</time></trkpt><trkpt lat="55.8019650" lon="49.0998760"><time>2021-08-14T08:16:52</time></trkpt><trkpt lat="55.8019690" lon="49.0998470"><time>2021-08-14T08:16:53</time></trkpt><trkpt lat="55.8019650" lon="49.0998240"><time>2021-08-14T08:16:54</time></trkpt><trkpt lat="55.8019530" lon="49.0997960"><time>2021-08-14T08:16:55</time></trkpt><trkpt lat="55.8019420" lon="49.0997820"><time>2021-08-14T08:16:56</time></trkpt><trkpt lat="55.8019340" lon="49.0997600"><time>2021-08-14T08:16:57</time></trkpt><trkpt lat="55.8019280" lon="49.0997350"><time>2021-08-14T08:16:58</time></trkpt><trkpt lat="55.8019260" lon="49.0997260"><time>2021-08-14T08:16:59</time></trkpt><trkpt lat="55.8019250" lon="49.0997090"><time>2021-08-14T08:17:00</time></trkpt><trkpt lat="55.8019140" lon="49.0997000"><time>2021-08-14T08:17:01</time></trkpt><trkpt lat="55.8019010" lon="49.0996850"><time>2021-08-14T08:17:02</time></trkpt><trkpt lat="55.8018860" lon="49.0996620"><time>2021-08-14T08:17:03</time></trkpt><trkpt lat="55.8018760" lon="49.0996560"><time>2021-08-14T08:17:04</time></trkpt><trkpt lat="55.8018620" lon="49.0996300"><time>2021-08-14T08:17:05</time></trkpt><trkpt lat="55.8018620" lon="49.0996200"><time>2021-08-14T08:17:06</time></trkpt><trkpt lat="55.8018590" lon="49.0996010"><time>2021-08-14T08:17:07</time></trkpt><trkpt lat="55.8018540" lon="49.0995750"><time>2021-08-14T08:17:08</time></trkpt><trkpt lat="55.8018480" lon="49.0995570"><time>2021-08-14T08:17:09</time></trkpt><trkpt lat="55.8018420" lon="49.0995310"><time>2021-08-14T08:17:10</time></trkpt><trkpt lat="55.8018350" lon="49.0995130"><time>2021-08-14T08:17:11</time></trkpt><trkpt lat="55.8018280" lon="49.0994940"><time>2021-08-14T08:17:12</time></trkpt><trkpt lat="55.8018210" lon="49.0994650"><time>2021-08-14T08:17:13</time></trkpt><trkpt lat="55.8018160" lon="49.0994550"><time>2021-08-14T08:17:14</time></trkpt><trkpt lat="55.8018030" lon="49.0994310"><time>2021-08-14T08:17:15</time></trkpt><trkpt lat="55.8017970" lon="49.0994190"><time>2021-08-14T08:17:16</time></trkpt><trkpt lat="55.8017880" lon="49.0993880"><time>2021-08-14T08:17:17</time></trkpt><trkpt lat="55.8017810" lon="49.0993700"><time>2021-08-14T08:17:18</time></trkpt><trkpt lat="55.8017690" lon="49.0993440"><time>2021-08-14T08:17:19</time></trkpt><trkpt lat="55.8017650" lon="49.0993280"><time>2021-08-14T08:17:20</time></trkpt><trkpt lat="55.8017580" lon="49.0993000"><time>2021-08-14T08:17:21</time></trkpt><trkpt lat="55.8017530" lon="49.0992820"><time>2021-08-14T08:17:22</time></trkpt><trkpt lat="55.8017450" lon="49.0992610"><time>2021-08-14T08:17:23</time></trkpt><trkpt lat="55.8017390" lon="49.0992310"><time>2021-08-14T08:17:24</time></trkpt><trkpt lat="55.8017330" lon="49.0992200"><time>2021-08-14T08:17:25</time></trkpt><trkpt lat="55.8017250" lon="49.0991890"><time>2021-08-14T08:17:26</time></trkpt><trkpt lat="55.8017110" lon="49.0991610"><time>2021-08-14T08:17:27</time></trkpt><trkpt lat="55.8017040" lon="49.0991470"><time>2021-08-14T08:17:28</time></trkpt><trkpt lat="55.8016980" lon="49.0991340"><time>2021-08-14T08:17:29</time></trkpt><trkpt lat="55.8016860" lon="49.0990970"><time>2021-08-14T08:17:30</time></trkpt><trkpt lat="55.8016800" lon="49.0990820"><time>2021-08-14T08:17:31</time></trkpt><trkpt lat="55.8016750" lon="49.0990670"><time>2021-08-14T08:17:32</time></trkpt><trkpt lat="55.8016690" lon="49.0990480"><time>2021-08-14T08:17:33</time></trkpt><trkpt lat="55.8016620" lon="49.0990190"><time>2021-08-14T08:17:34</time></trkpt><trkpt lat="55.8016570" lon="49.0990020"><time>2021-08-14T08:17:35</time></trkpt><trkpt lat="55.8016510" lon="49.0989830"><time>2021-08-14T08:17:36</time></trkpt><trkpt lat="55.8016470" lon="49.0989610"><time>2021-08-14T08:17:37</time></trkpt><trkpt lat="55.8016430" lon="49.0989320"><time>2021-08-14T08:17:38</time></trkpt><trkpt lat="55.8016370" lon="49.0989140"><time>2021-08-14T08:17:39</time></trkpt><trkpt lat="55.8016320" lon="49.0988860"><time>2021-08-14T08:17:40</time></trkpt><trkpt lat="55.8016300" lon="49.0988680"><time>2021-08-14T08:17:41</time></trkpt><trkpt lat="55.8016280" lon="49.0988520"><time>2021-08-14T08:17:42</time></trkpt><trkpt lat="55.8016200" lon="49.0988110"><time>2021-08-14T08:17:43</time></trkpt><trkpt lat="55.8016160" lon="49.0988010"><time>2021-08-14T08:17:44</time></trkpt><trkpt lat="55.8016120" lon="49.0987900"><time>2021-08-14T08:17:45</time></trkpt><trkpt lat="55.8016010" lon="49.0987590"><time>2021-08-14T08:17:46</time></trkpt><trkpt lat="55.8015960" lon="49.0987470"><time>2021-08-14T08:17:47</time></trkpt><trkpt lat="55.8015900" lon="49.0987360"><time>2021-08-14T08:17:48</time></trkpt><trkpt lat="55.8015720" lon="49.0987010"><time>2021-08-14T08:17:49</time></trkpt><trkpt lat="55.8015700" lon="49.0986890"><time>2021-08-14T08:17:50</time></trkpt><trkpt lat="55.8015670" lon="49.0986780"><time>2021-08-14T08:17:51</time></trkpt><trkpt lat="55.8015580" lon="49.0986560"><time>2021-08-14T08:17:52</time></trkpt><trkpt lat="55.8015480" lon="49.0986320"><time>2021-08-14T08:17:53</time></trkpt><trkpt lat="55.8015380" lon="49.0986070"><time>2021-08-14T08:17:54</time></trkpt><trkpt lat="55.8015310" lon="49.0985950"><time>2021-08-14T08:17:55</time></trkpt><trkpt lat="55.8015250" lon="49.0985820"><time>2021-08-14T08:17:56</time></trkpt><trkpt lat="55.8015260" lon="49.0985430"><time>2021-08-14T08:17:57</time></trkpt><trkpt lat="55.8015230" lon="49.0985270"><time>2021-08-14T08:17:58</time></trkpt><trkpt lat="55.8015200" lon="49.0985100"><time>2021-08-14T08:17:59</time></trkpt><trkpt lat="55.8015100" lon="49.0984710"><time>2021-08-14T08:18:00</time></trkpt><trkpt lat="55.8015070" lon="49.0984580"><time>2021-08-14T08:18:01</time></trkpt><trkpt lat="55.8015030" lon="49.0984440"><time>2021-08-14T08:18:02</time></trkpt><trkpt lat="55.8014970" lon="49.0984260"><time>2021-08-14T08:18:03</time></trkpt><trkpt lat="55.8014850" lon="49.0984040"><time>2021-08-14T08:18:04</time></trkpt><trkpt lat="55.8014800" lon="49.0983830"><time>2021-08-14T08:18:05</time></trkpt><trkpt lat="55.8014770" lon="49.0983570"><time>2021-08-14T08:18:06</time></trkpt><trkpt lat="55.8014690" lon="49.0983240"><time>2021-08-14T08:18:07</time></trkpt><trkpt lat="55.8014630" lon="49.0983120"><time>2021-08-14T08:18:08</time></trkpt><trkpt lat="55.8014580" lon="49.0983000"><time>2021-08-14T08:18:09</time></trkpt><trkpt lat="55.8014460" lon="49.0982700"><time>2021-08-14T08:18:10</time></trkpt><trkpt lat="55.8014360" lon="49.0982390"><time>2021-08-14T08:18:11</time></trkpt><trkpt lat="55.8014290" lon="49.0982250"><time>2021-08-14T08:18:12</time></trkpt><trkpt lat="55.8014240" lon="49.0982020"><time>2021-08-14T08:18:13</time></trkpt><trkpt lat="55.8014120" lon="49.0981750"><time>2021-08-14T08:18:14</time></trkpt><trkpt lat="55.8014040" lon="49.0981600"><time>2021-08-14T08:18:15</time></trkpt><trkpt lat="55.8013950" lon="49.0981460"><time>2021-08-14T08:18:16</time></trkpt><trkpt lat="55.8013940" lon="49.0981310"><time>2021-08-14T08:18:17</time></trkpt><trkpt lat="55.8013900" lon="49.0981130"><time>2021-08-14T08:18:18</time></trkpt><trkpt lat="55.8013810" lon="49.0981030"><time>2021-08-14T08:18:19</time></trkpt><trkpt lat="55.8013730" lon="49.0980920"><time>2021-08-14T08:18:20</time></trkpt><trkpt lat="55.8013640" lon="49.0980720"><time>2021-08-14T08:18:21</time></trkpt><trkpt lat="55.8013580" lon="49.0980560"><time>2021-08-14T08:18:22</time></trkpt><trkpt lat="55.8013510" lon="49.0980380"><time>2021-08-14T08:18:23</time></trkpt><trkpt lat="55.8013470" lon="49.0980050"><time>2021-08-14T08:18:24</time></trkpt><trkpt lat="55.8013460" lon="49.0979720"><time>2021-08-14T08:18:25</time></trkpt><trkpt lat="55.8013440" lon="49.0979550"><time>2021-08-14T08:18:26</time></trkpt><trkpt lat="55.8013430" lon="49.0979390"><time>2021-08-14T08:18:27</time></trkpt><trkpt lat="55.8013370" lon="49.0979130"><time>2021-08-14T08:18:28</time></trkpt><trkpt lat="55.8013330" lon="49.0978920"><time>2021-08-14T08:18:29</time></trkpt><trkpt lat="55.8013290" lon="49.0978580"><time>2021-08-14T08:18:30</time></trkpt><trkpt lat="55.8013300" lon="49.0978390"><time>2021-08-14T08:18:31</time></trkpt><trkpt lat="55.8013220" lon="49.0978150"><time>2021-08-14T08:18:32</time></trkpt><trkpt lat="55.8013250" lon="49.0977910"><time>2021-08-14T08:18:33</time></trkpt><trkpt lat="55.8013190" lon="49.0977490"><time>2021-08-14T08:18:34</time></trkpt><trkpt lat="55.8013190" lon="49.0977330"><time>2021-08-14T08:18:35</time></trkpt><trkpt lat="55.8013190" lon="49.0977160"><time>2021-08-14T08:18:36</time></trkpt><trkpt lat="55.8013190" lon="49.0976960"><time>2021-08-14T08:18:37</time></trkpt><trkpt lat="55.8013140" lon="49.0976730"><time>2021-08-14T08:18:38</time></trkpt><trkpt lat="55.8013150" lon="49.0976550"><time>2021-08-14T08:18:39</time></trkpt><trkpt lat="55.8013070" lon="49.0976310"><time>2021-08-14T08:18:40</time></trkpt><trkpt lat="55.8013030" lon="49.0976080"><time>2021-08-14T08:18:41</time></trkpt><trkpt lat="55.8012990" lon="49.0975770"><time>2021-08-14T08:18:42</time></trkpt><trkpt lat="55.8012860" lon="49.0975680"><time>2021-08-14T08:18:43</time></trkpt><trkpt lat="55.8012770" lon="49.0975380"><time>2021-08-14T08:18:44</time></trkpt><trkpt lat="55.8012720" lon="49.0975230"><time>2021-08-14T08:18:45</time></trkpt><trkpt lat="55.8012630" lon="49.0975000"><time>2021-08-14T08:18:46</time></trkpt><trkpt lat="55.8012530" lon="49.0974840"><time>2021-08-14T08:18:47</time></trkpt><trkpt lat="55.8012540" lon="49.0974650"><time>2021-08-14T08:18:48</time></trkpt><trkpt lat="55.8012540" lon="49.0974560"><time>2021-08-14T08:18:49</time></trkpt><trkpt lat="55.8012470" lon="49.0974210"><time>2021-08-14T08:18:50</time></trkpt><trkpt lat="55.8012350" lon="49.0974080"><time>2021-08-14T08:18:51</time></trkpt><trkpt lat="55.8012200" lon="49.0973970"><time>2021-08-14T08:18:52</time></trkpt><trkpt lat="55.8012070" lon="49.0973960"><time>2021-08-14T08:18:53</time></trkpt><trkpt lat="55.8011990" lon="49.0973950"><time>2021-08-14T08:18:54</time></trkpt><trkpt lat="55.8012090" lon="49.0973980"><time>2021-08-14T08:18:55</time></trkpt><trkpt lat="55.8012090" lon="49.0974000"><time>2021-08-14T08:18:56</time></trkpt><trkpt lat="55.8012110" lon="49.0974320"><time>2021-08-14T08:18:57</time></trkpt><trkpt lat="55.8012100" lon="49.0974120"><time>2021-08-14T08:18:58</time></trkpt><trkpt lat="55.8012100" lon="49.0974080"><time>2021-08-14T08:18:59</time></trkpt><trkpt lat="55.8012110" lon="49.0974140"><time>2021-08-14T08:19:00</time></trkpt><trkpt lat="55.8012100" lon="49.0974130"><time>2021-08-14T08:19:01</time></trkpt><trkpt lat="55.8012120" lon="49.0974080"><time>2021-08-14T08:19:02</time></trkpt><trkpt lat="55.8012070" lon="49.0973990"><time>2021-08-14T08:19:03</time></trkpt><trkpt lat="55.8012080" lon="49.0974000"><time>2021-08-14T08:19:04</time></trkpt><trkpt lat="55.8012100" lon="49.0974000"><time>2021-08-14T08:19:05</time></trkpt><trkpt lat="55.8012110" lon="49.0974040"><time>2021-08-14T08:19:06</time></trkpt><trkpt lat="55.8012150" lon="49.0974030"><time>2021-08-14T08:19:07</time></trkpt><trkpt lat="55.8012200" lon="49.0974090"><time>2021-08-14T08:19:08</time></trkpt><trkpt lat="55.8012230" lon="49.0973980"><time>2021-08-14T08:19:09</time></trkpt><trkpt lat="55.8012300" lon="49.0974010"><time>2021-08-14T08:19:10</time></trkpt><trkpt lat="55.8012390" lon="49.0974080"><time>2021-08-14T08:19:11</time></trkpt><trkpt lat="55.8012340" lon="49.0974210"><time>2021-08-14T08:19:12</time></trkpt><trkpt lat="55.8012320" lon="49.0974440"><time>2021-08-14T08:19:13</time></trkpt><trkpt lat="55.8012430" lon="49.0974680"><time>2021-08-14T08:19:14</time></trkpt><trkpt lat="55.8012500" lon="49.0974980"><time>2021-08-14T08:19:15</time></trkpt><trkpt lat="55.8012570" lon="49.0975360"><time>2021-08-14T08:19:16</time></trkpt><trkpt lat="55.8012620" lon="49.0975480"><time>2021-08-14T08:19:17</time></trkpt><trkpt lat="55.8012660" lon="49.0975610"><time>2021-08-14T08:19:18</time></trkpt><trkpt lat="55.8012730" lon="49.0975810"><time>2021-08-14T08:19:19</time></trkpt><trkpt lat="55.8012820" lon="49.0976050"><time>2021-08-14T08:19:20</time></trkpt><trkpt lat="55.8012820" lon="49.0976250"><time>2021-08-14T08:19:21</time></trkpt><trkpt lat="55.8012870" lon="49.0976520"><time>2021-08-14T08:19:22</time></trkpt><trkpt lat="55.8012910" lon="49.0976740"><time>2021-08-14T08:19:23</time></trkpt><trkpt lat="55.8012960" lon="49.0977020"><time>2021-08-14T08:19:24</time></trkpt><trkpt lat="55.8013000" lon="49.0977290"><time>2021-08-14T08:19:25</time></trkpt><trkpt lat="55.8013010" lon="49.0977580"><time>2021-08-14T08:19:26</time></trkpt><trkpt lat="55.8013050" lon="49.0977930"><time>2021-08-14T08:19:27</time></trkpt><trkpt lat="55.8013060" lon="49.0978090"><time>2021-08-14T08:19:28</time></trkpt><trkpt lat="55.8013060" lon="49.0978240"><time>2021-08-14T08:19:29</time></trkpt><trkpt lat="55.8013040" lon="49.0978570"><time>2021-08-14T08:19:30</time></trkpt><trkpt lat="55.8013110" lon="49.0978740"><time>2021-08-14T08:19:31</time></trkpt><trkpt lat="55.8013110" lon="49.0978930"><time>2021-08-14T08:19:32</time></trkpt><trkpt lat="55.8013100" lon="49.0979270"><time>2021-08-14T08:19:33</time></trkpt><trkpt lat="55.8013220" lon="49.0979420"><time>2021-08-14T08:19:34</time></trkpt><trkpt lat="55.8013280" lon="49.0979780"><time>2021-08-14T08:19:35</time></trkpt><trkpt lat="55.8013320" lon="49.0980110"><time>2021-08-14T08:19:36</time></trkpt><trkpt lat="55.8013340" lon="49.0980320"><time>2021-08-14T08:19:37</time></trkpt><trkpt lat="55.8013320" lon="49.0980610"><time>2021-08-14T08:19:38</time></trkpt><trkpt lat="55.8013350" lon="49.0980830"><time>2021-08-14T08:19:39</time></trkpt><trkpt lat="55.8013400" lon="49.0981060"><time>2021-08-14T08:19:40</time></trkpt><trkpt lat="55.8013400" lon="49.0981310"><time>2021-08-14T08:19:41</time></trkpt><trkpt lat="55.8013450" lon="49.0981570"><time>2021-08-14T08:19:42</time></trkpt><trkpt lat="55.8013590" lon="49.0981810"><time>2021-08-14T08:19:43</time></trkpt><trkpt lat="55.8013720" lon="49.0981990"><time>2021-08-14T08:19:44</time></trkpt><trkpt lat="55.8013830" lon="49.0982180"><time>2021-08-14T08:19:45</time></trkpt><trkpt lat="55.8013940" lon="49.0982480"><time>2021-08-14T08:19:46</time></trkpt><trkpt lat="55.8013980" lon="49.0982620"><time>2021-08-14T08:19:47</time></trkpt><trkpt lat="55.8014010" lon="49.0982750"><time>2021-08-14T08:19:48</time></trkpt><trkpt lat="55.8014130" lon="49.0983060"><time>2021-08-14T08:19:49</time></trkpt><trkpt lat="55.8014170" lon="49.0983200"><time>2021-08-14T08:19:50</time></trkpt><trkpt lat="55.8014220" lon="49.0983330"><time>2021-08-14T08:19:51</time></trkpt><trkpt lat="55.8014270" lon="49.0983560"><time>2021-08-14T08:19:53</time></trkpt><trkpt lat="55.8014360" lon="49.0983800"><time>2021-08-14T08:19:54</time></trkpt><trkpt lat="55.8014460" lon="49.0983990"><time>2021-08-14T08:19:55</time></trkpt><trkpt lat="55.8014580" lon="49.0984150"><time>2021-08-14T08:19:56</time></trkpt><trkpt lat="55.8014590" lon="49.0984410"><time>2021-08-14T08:19:57</time></trkpt><trkpt lat="55.8014650" lon="49.0984620"><time>2021-08-14T08:19:58</time></trkpt><trkpt lat="55.8014770" lon="49.0984920"><time>2021-08-14T08:19:59</time></trkpt><trkpt lat="55.8014820" lon="49.0985070"><time>2021-08-14T08:20:00</time></trkpt><trkpt lat="55.8014860" lon="49.0985210"><time>2021-08-14T08:20:01</time></trkpt><trkpt lat="55.8014960" lon="49.0985390"><time>2021-08-14T08:20:02</time></trkpt><trkpt lat="55.8015070" lon="49.0985560"><time>2021-08-14T08:20:03</time></trkpt><trkpt lat="55.8015210" lon="49.0985850"><time>2021-08-14T08:20:04</time></trkpt><trkpt lat="55.8015250" lon="49.0985990"><time>2021-08-14T08:20:05</time></trkpt><trkpt lat="55.8015290" lon="49.0986140"><time>2021-08-14T08:20:06</time></trkpt><trkpt lat="55.8015330" lon="49.0986330"><time>2021-08-14T08:20:07</time></trkpt><trkpt lat="55.8015390" lon="49.0986600"><time>2021-08-14T08:20:08</time></trkpt><trkpt lat="55.8015490" lon="49.0986910"><time>2021-08-14T08:20:09</time></trkpt><trkpt lat="55.8015540" lon="49.0987030"><time>2021-08-14T08:20:10</time></trkpt><trkpt lat="55.8015600" lon="49.0987150"><time>2021-08-14T08:20:11</time></trkpt><trkpt lat="55.8015740" lon="49.0987460"><time>2021-08-14T08:20:12</time></trkpt><trkpt lat="55.8015800" lon="49.0987570"><time>2021-08-14T08:20:13</time></trkpt><trkpt lat="55.8015870" lon="49.0987690"><time>2021-08-14T08:20:14</time></trkpt><trkpt lat="55.8015970" lon="49.0987840"><time>2021-08-14T08:20:15</time></trkpt><trkpt lat="55.8016060" lon="49.0988060"><time>2021-08-14T08:20:16</time></trkpt><trkpt lat="55.8016070" lon="49.0988600"><time>2021-08-14T08:20:17</time></trkpt><trkpt lat="55.8016050" lon="49.0988860"><time>2021-08-14T08:20:18</time></trkpt><trkpt lat="55.8016110" lon="49.0989090"><time>2021-08-14T08:20:19</time></trkpt><trkpt lat="55.8016170" lon="49.0989290"><time>2021-08-14T08:20:20</time></trkpt><trkpt lat="55.8016200" lon="49.0989480"><time>2021-08-14T08:20:21</time></trkpt><trkpt lat="55.8016240" lon="49.0989680"><time>2021-08-14T08:20:22</time></trkpt><trkpt lat="55.8016400" lon="49.0989970"><time>2021-08-14T08:20:23</time></trkpt><trkpt lat="55.8016470" lon="49.0990090"><time>2021-08-14T08:20:24</time></trkpt><trkpt lat="55.8016530" lon="49.0990220"><time>2021-08-14T08:20:25</time></trkpt><trkpt lat="55.8016620" lon="49.0990410"><time>2021-08-14T08:20:26</time></trkpt><trkpt lat="55.8016720" lon="49.0990590"><time>2021-08-14T08:20:27</time></trkpt><trkpt lat="55.8016760" lon="49.0990800"><time>2021-08-14T08:20:28</time></trkpt><trkpt lat="55.8016790" lon="49.0991020"><time>2021-08-14T08:20:29</time></trkpt><trkpt lat="55.8016870" lon="49.0991160"><time>2021-08-14T08:20:30</time></trkpt><trkpt lat="55.8016920" lon="49.0991340"><time>2021-08-14T08:20:31</time></trkpt><trkpt lat="55.8016980" lon="49.0991520"><time>2021-08-14T08:20:32</time></trkpt><trkpt lat="55.8017010" lon="49.0991730"><time>2021-08-14T08:20:33</time></trkpt><trkpt lat="55.8017080" lon="49.0991920"><time>2021-08-14T08:20:34</time></trkpt><trkpt lat="55.8017140" lon="49.0992160"><time>2021-08-14T08:20:35</time></trkpt><trkpt lat="55.8017280" lon="49.0992320"><time>2021-08-14T08:20:36</time></trkpt><trkpt lat="55.8017320" lon="49.0992600"><time>2021-08-14T08:20:37</time></trkpt><trkpt lat="55.8017370" lon="49.0992860"><time>2021-08-14T08:20:38</time></trkpt><trkpt lat="55.8017460" lon="49.0993030"><time>2021-08-14T08:20:39</time></trkpt><trkpt lat="55.8017570" lon="49.0993210"><time>2021-08-14T08:20:40</time></trkpt><trkpt lat="55.8017710" lon="49.0993320"><time>2021-08-14T08:20:41</time></trkpt><trkpt lat="55.8017790" lon="49.0993550"><time>2021-08-14T08:20:42</time></trkpt><trkpt lat="55.8017840" lon="49.0993790"><time>2021-08-14T08:20:43</time></trkpt><trkpt lat="55.8017900" lon="49.0994180"><time>2021-08-14T08:20:44</time></trkpt><trkpt lat="55.8017920" lon="49.0994320"><time>2021-08-14T08:20:45</time></trkpt><trkpt lat="55.8017950" lon="49.0994470"><time>2021-08-14T08:20:46</time></trkpt><trkpt lat="55.8017930" lon="49.0994680"><time>2021-08-14T08:20:47</time></trkpt><trkpt lat="55.8017940" lon="49.0994870"><time>2021-08-14T08:20:48</time></trkpt><trkpt lat="55.8018020" lon="49.0995040"><time>2021-08-14T08:20:49</time></trkpt><trkpt lat="55.8018150" lon="49.0995230"><time>2021-08-14T08:20:50</time></trkpt><trkpt lat="55.8018270" lon="49.0995330"><time>2021-08-14T08:20:51</time></trkpt><trkpt lat="55.8018300" lon="49.0995610"><time>2021-08-14T08:20:52</time></trkpt><trkpt lat="55.8018420" lon="49.0995780"><time>2021-08-14T08:20:53</time></trkpt><trkpt lat="55.8018550" lon="49.0996090"><time>2021-08-14T08:20:54</time></trkpt><trkpt lat="55.8018590" lon="49.0996240"><time>2021-08-14T08:20:55</time></trkpt><trkpt lat="55.8018640" lon="49.0996380"><time>2021-08-14T08:20:56</time></trkpt><trkpt lat="55.8018720" lon="49.0996620"><time>2021-08-14T08:20:57</time></trkpt><trkpt lat="55.8018770" lon="49.0996900"><time>2021-08-14T08:20:58</time></trkpt><trkpt lat="55.8018820" lon="49.0997150"><time>2021-08-14T08:20:59</time></trkpt><trkpt lat="55.8018930" lon="49.0997380"><time>2021-08-14T08:21:00</time></trkpt><trkpt lat="55.8018870" lon="49.0997700"><time>2021-08-14T08:21:01</time></trkpt><trkpt lat="55.8018900" lon="49.0997950"><time>2021-08-14T08:21:02</time></trkpt><trkpt lat="55.8018960" lon="49.0998180"><time>2021-08-14T08:21:03</time></trkpt><trkpt lat="55.8019060" lon="49.0998400"><time>2021-08-14T08:21:04</time></trkpt><trkpt lat="55.8019130" lon="49.0998600"><time>2021-08-14T08:21:05</time></trkpt><trkpt lat="55.8019150" lon="49.0998870"><time>2021-08-14T08:21:06</time></trkpt><trkpt lat="55.8019170" lon="49.0999120"><time>2021-08-14T08:21:07</time></trkpt><trkpt lat="55.8019220" lon="49.0999380"><time>2021-08-14T08:21:08</time></trkpt><trkpt lat="55.8019230" lon="49.0999620"><time>2021-08-14T08:21:09</time></trkpt><trkpt lat="55.8019250" lon="49.0999860"><time>2021-08-14T08:21:10</time></trkpt><trkpt lat="55.8019270" lon="49.1000250"><time>2021-08-14T08:21:11</time></trkpt><trkpt lat="55.8019250" lon="49.1000410"><time>2021-08-14T08:21:12</time></trkpt><trkpt lat="55.8019240" lon="49.1000570"><time>2021-08-14T08:21:13</time></trkpt><trkpt lat="55.8019180" lon="49.1000750"><time>2021-08-14T08:21:14</time></trkpt><trkpt lat="55.8019140" lon="49.1000950"><time>2021-08-14T08:21:15</time></trkpt><trkpt lat="55.8019100" lon="49.1001050"><time>2021-08-14T08:21:16</time></trkpt><trkpt lat="55.8019120" lon="49.1001210"><time>2021-08-14T08:21:17</time></trkpt><trkpt lat="55.8019170" lon="49.1001380"><time>2021-08-14T08:21:18</time></trkpt><trkpt lat="55.8019180" lon="49.1001550"><time>2021-08-14T08:21:19</time></trkpt><trkpt lat="55.8019200" lon="49.1001850"><time>2021-08-14T08:21:20</time></trkpt><trkpt lat="55.8019230" lon="49.1002010"><time>2021-08-14T08:21:21</time></trkpt><trkpt lat="55.8019260" lon="49.1002180"><time>2021-08-14T08:21:22</time></trkpt><trkpt lat="55.8019330" lon="49.1002320"><time>2021-08-14T08:21:23</time></trkpt><trkpt lat="55.8019350" lon="49.1002430"><time>2021-08-14T08:21:24</time></trkpt><trkpt lat="55.8019380" lon="49.1002550"><time>2021-08-14T08:21:25</time></trkpt><trkpt lat="55.8019400" lon="49.1002660"><time>2021-08-14T08:21:26</time></trkpt><trkpt lat="55.8019420" lon="49.1002770"><time>2021-08-14T08:21:27</time></trkpt><trkpt lat="55.8019510" lon="49.1002770"><time>2021-08-14T08:21:28</time></trkpt><trkpt lat="55.8019520" lon="49.1002940"><time>2021-08-14T08:21:29</time></trkpt><trkpt lat="55.8019590" lon="49.1003200"><time>2021-08-14T08:21:30</time></trkpt><trkpt lat="55.8019660" lon="49.1003400"><time>2021-08-14T08:21:31</time></trkpt><trkpt lat="55.8019770" lon="49.1003410"><time>2021-08-14T08:21:32</time></trkpt><trkpt lat="55.8019810" lon="49.1003660"><time>2021-08-14T08:21:33</time></trkpt><trkpt lat="55.8019900" lon="49.1003910"><time>2021-08-14T08:21:34</time></trkpt><trkpt lat="55.8019950" lon="49.1004150"><time>2021-08-14T08:21:35</time></trkpt><trkpt lat="55.8020000" lon="49.1004170"><time>2021-08-14T08:21:36</time></trkpt><trkpt lat="55.8020110" lon="49.1004260"><time>2021-08-14T08:21:37</time></trkpt><trkpt lat="55.8020220" lon="49.1004450"><time>2021-08-14T08:21:38</time></trkpt><trkpt lat="55.8020290" lon="49.1004530"><time>2021-08-14T08:21:39</time></trkpt><trkpt lat="55.8020380" lon="49.1004870"><time>2021-08-14T08:21:40</time></trkpt><trkpt lat="55.8020480" lon="49.1004960"><time>2021-08-14T08:21:41</time></trkpt><trkpt lat="55.8020580" lon="49.1005100"><time>2021-08-14T08:21:42</time></trkpt><trkpt lat="55.8020630" lon="49.1005340"><time>2021-08-14T08:21:43</time></trkpt><trkpt lat="55.8020740" lon="49.1005440"><time>2021-08-14T08:21:44</time></trkpt><trkpt lat="55.8020780" lon="49.1005470"><time>2021-08-14T08:21:45</time></trkpt><trkpt lat="55.8020810" lon="49.1005610"><time>2021-08-14T08:21:46</time></trkpt><trkpt lat="55.8020840" lon="49.1005730"><time>2021-08-14T08:21:47</time></trkpt><trkpt lat="55.8020940" lon="49.1005890"><time>2021-08-14T08:21:48</time></trkpt><trkpt lat="55.8020990" lon="49.1006150"><time>2021-08-14T08:21:49</time></trkpt><trkpt lat="55.8021000" lon="49.1006460"><time>2021-08-14T08:21:50</time></trkpt><trkpt lat="55.8021040" lon="49.1006780"><time>2021-08-14T08:21:51</time></trkpt><trkpt lat="55.8021110" lon="49.1006890"><time>2021-08-14T08:21:52</time></trkpt><trkpt lat="55.8021170" lon="49.1007080"><time>2021-08-14T08:21:53</time></trkpt><trkpt lat="55.8021230" lon="49.1007220"><time>2021-08-14T08:21:54</time></trkpt><trkpt lat="55.8021300" lon="49.1007420"><time>2021-08-14T08:21:55</time></trkpt><trkpt lat="55.8021390" lon="49.1007620"><time>2021-08-14T08:21:56</time></trkpt><trkpt lat="55.8021460" lon="49.1007720"><time>2021-08-14T08:21:57</time></trkpt><trkpt lat="55.8021580" lon="49.1007890"><time>2021-08-14T08:21:58</time></trkpt><trkpt lat="55.8021670" lon="49.1008090"><time>2021-08-14T08:22:00</time></trkpt><trkpt lat="55.8021860" lon="49.1008160"><time>2021-08-14T08:22:01</time></trkpt><trkpt lat="55.8021910" lon="49.1008050"><time>2021-08-14T08:22:02</time></trkpt><trkpt lat="55.8021960" lon="49.1007940"><time>2021-08-14T08:22:04</time></trkpt><trkpt lat="55.8022010" lon="49.1007830"><time>2021-08-14T08:22:05</time></trkpt><trkpt lat="55.8022180" lon="49.1007690"><time>2021-08-14T08:22:06</time></trkpt><trkpt lat="55.8022270" lon="49.1007580"><time>2021-08-14T08:22:07</time></trkpt><trkpt lat="55.8022400" lon="49.1007380"><time>2021-08-14T08:22:08</time></trkpt><trkpt lat="55.8022550" lon="49.1007360"><time>2021-08-14T08:22:09</time></trkpt><trkpt lat="55.8022690" lon="49.1007380"><time>2021-08-14T08:22:10</time></trkpt><trkpt lat="55.8022860" lon="49.1007480"><time>2021-08-14T08:22:11</time></trkpt><trkpt lat="55.8022970" lon="49.1007640"><time>2021-08-14T08:22:12</time></trkpt><trkpt lat="55.8023080" lon="49.1007850"><time>2021-08-14T08:22:13</time></trkpt><trkpt lat="55.8023190" lon="49.1008340"><time>2021-08-14T08:22:14</time></trkpt><trkpt lat="55.8023210" lon="49.1008500"><time>2021-08-14T08:22:15</time></trkpt><trkpt lat="55.8023210" lon="49.1008890"><time>2021-08-14T08:22:16</time></trkpt><trkpt lat="55.8023210" lon="49.1009100"><time>2021-08-14T08:22:17</time></trkpt><trkpt lat="55.8023210" lon="49.1009310"><time>2021-08-14T08:22:18</time></trkpt><trkpt lat="55.8023250" lon="49.1009380"><time>2021-08-14T08:22:19</time></trkpt><trkpt lat="55.8023250" lon="49.1009620"><time>2021-08-14T08:22:20</time></trkpt><trkpt lat="55.8023260" lon="49.1009900"><time>2021-08-14T08:22:21</time></trkpt><trkpt lat="55.8023170" lon="49.1010140"><time>2021-08-14T08:22:22</time></trkpt><trkpt lat="55.8023110" lon="49.1010370"><time>2021-08-14T08:22:23</time></trkpt><trkpt lat="55.8023050" lon="49.1010590"><time>2021-08-14T08:22:24</time></trkpt><trkpt lat="55.8023030" lon="49.1010930"><time>2021-08-14T08:22:25</time></trkpt><trkpt lat="55.8023040" lon="49.1011220"><time>2021-08-14T08:22:26</time></trkpt><trkpt lat="55.8023070" lon="49.1011540"><time>2021-08-14T08:22:27</time></trkpt><trkpt lat="55.8023090" lon="49.1011840"><time>2021-08-14T08:22:28</time></trkpt><trkpt lat="55.8023100" lon="49.1012130"><time>2021-08-14T08:22:29</time></trkpt><trkpt lat="55.8023110" lon="49.1012410"><time>2021-08-14T08:22:30</time></trkpt><trkpt lat="55.8023160" lon="49.1012690"><time>2021-08-14T08:22:31</time></trkpt><trkpt lat="55.8023200" lon="49.1013000"><time>2021-08-14T08:22:32</time></trkpt><trkpt lat="55.8023230" lon="49.1013250"><time>2021-08-14T08:22:33</time></trkpt><trkpt lat="55.8023340" lon="49.1013480"><time>2021-08-14T08:22:34</time></trkpt><trkpt lat="55.8023510" lon="49.1013640"><time>2021-08-14T08:22:35</time></trkpt><trkpt lat="55.8023590" lon="49.1013880"><time>2021-08-14T08:22:36</time></trkpt><trkpt lat="55.8023670" lon="49.1014110"><time>2021-08-14T08:22:37</time></trkpt><trkpt lat="55.8023760" lon="49.1014360"><time>2021-08-14T08:22:38</time></trkpt><trkpt lat="55.8023810" lon="49.1014630"><time>2021-08-14T08:22:39</time></trkpt><trkpt lat="55.8023880" lon="49.1014860"><time>2021-08-14T08:22:40</time></trkpt><trkpt lat="55.8024070" lon="49.1015000"><time>2021-08-14T08:22:41</time></trkpt><trkpt lat="55.8024150" lon="49.1015170"><time>2021-08-14T08:22:42</time></trkpt><trkpt lat="55.8024300" lon="49.1015260"><time>2021-08-14T08:22:43</time></trkpt><trkpt lat="55.8024210" lon="49.1015310"><time>2021-08-14T08:22:44</time></trkpt><trkpt lat="55.8024160" lon="49.1015320"><time>2021-08-14T08:22:45</time></trkpt><trkpt lat="55.8024280" lon="49.1015420"><time>2021-08-14T08:22:46</time></trkpt><trkpt lat="55.8024270" lon="49.1015920"><time>2021-08-14T08:22:47</time></trkpt><trkpt lat="55.8024340" lon="49.1016160"><time>2021-08-14T08:22:48</time></trkpt><trkpt lat="55.8024350" lon="49.1016470"><time>2021-08-14T08:22:49</time></trkpt><trkpt lat="55.8024390" lon="49.1016790"><time>2021-08-14T08:22:50</time></trkpt><trkpt lat="55.8024480" lon="49.1016990"><time>2021-08-14T08:22:51</time></trkpt><trkpt lat="55.8024480" lon="49.1017120"><time>2021-08-14T08:22:52</time></trkpt><trkpt lat="55.8024370" lon="49.1017320"><time>2021-08-14T08:22:53</time></trkpt><trkpt lat="55.8024550" lon="49.1017460"><time>2021-08-14T08:22:54</time></trkpt><trkpt lat="55.8024590" lon="49.1017850"><time>2021-08-14T08:22:55</time></trkpt><trkpt lat="55.8024650" lon="49.1018080"><time>2021-08-14T08:22:56</time></trkpt><trkpt lat="55.8024770" lon="49.1018190"><time>2021-08-14T08:22:57</time></trkpt><trkpt lat="55.8024820" lon="49.1018370"><time>2021-08-14T08:22:58</time></trkpt><trkpt lat="55.8024880" lon="49.1018550"><time>2021-08-14T08:22:59</time></trkpt><trkpt lat="55.8024930" lon="49.1018730"><time>2021-08-14T08:23:00</time></trkpt><trkpt lat="55.8024980" lon="49.1019390"><time>2021-08-14T08:23:01</time></trkpt><trkpt lat="55.8024990" lon="49.1019820"><time>2021-08-14T08:23:02</time></trkpt><trkpt lat="55.8024970" lon="49.1020030"><time>2021-08-14T08:23:03</time></trkpt><trkpt lat="55.8024860" lon="49.1020280"><time>2021-08-14T08:23:04</time></trkpt><trkpt lat="55.8024830" lon="49.1020490"><time>2021-08-14T08:23:05</time></trkpt><trkpt lat="55.8024930" lon="49.1020810"><time>2021-08-14T08:23:06</time></trkpt><trkpt lat="55.8024980" lon="49.1021070"><time>2021-08-14T08:23:07</time></trkpt><trkpt lat="55.8025160" lon="49.1021430"><time>2021-08-14T08:23:08</time></trkpt><trkpt lat="55.8025320" lon="49.1021480"><time>2021-08-14T08:23:09</time></trkpt><trkpt lat="55.8025660" lon="49.1021580"><time>2021-08-14T08:23:10</time></trkpt><trkpt lat="55.8025740" lon="49.1021830"><time>2021-08-14T08:23:11</time></trkpt><trkpt lat="55.8025820" lon="49.1022060"><time>2021-08-14T08:23:12</time></trkpt><trkpt lat="55.8025840" lon="49.1022400"><time>2021-08-14T08:23:13</time></trkpt><trkpt lat="55.8025990" lon="49.1022570"><time>2021-08-14T08:23:14</time></trkpt><trkpt lat="55.8026110" lon="49.1022730"><time>2021-08-14T08:23:15</time></trkpt><trkpt lat="55.8026220" lon="49.1022920"><time>2021-08-14T08:23:16</time></trkpt><trkpt lat="55.8026290" lon="49.1023150"><time>2021-08-14T08:23:17</time></trkpt><trkpt lat="55.8026400" lon="49.1023180"><time>2021-08-14T08:23:18</time></trkpt><trkpt lat="55.8026490" lon="49.1023300"><time>2021-08-14T08:23:19</time></trkpt><trkpt lat="55.8026560" lon="49.1023510"><time>2021-08-14T08:23:20</time></trkpt><trkpt lat="55.8026640" lon="49.1023790"><time>2021-08-14T08:23:21</time></trkpt><trkpt lat="55.8026740" lon="49.1023810"><time>2021-08-14T08:23:22</time></trkpt><trkpt lat="55.8026820" lon="49.1023990"><time>2021-08-14T08:23:23</time></trkpt><trkpt lat="55.8026870" lon="49.1024170"><time>2021-08-14T08:23:24</time></trkpt><trkpt lat="55.8026960" lon="49.1024510"><time>2021-08-14T08:23:25</time></trkpt><trkpt lat="55.8027030" lon="49.1024600"><time>2021-08-14T08:23:26</time></trkpt><trkpt lat="55.8027090" lon="49.1024690"><time>2021-08-14T08:23:27</time></trkpt><trkpt lat="55.8027240" lon="49.1024690"><time>2021-08-14T08:23:28</time></trkpt><trkpt lat="55.8027400" lon="49.1024710"><time>2021-08-14T08:23:29</time></trkpt><trkpt lat="55.8027540" lon="49.1024670"><time>2021-08-14T08:23:30</time></trkpt><trkpt lat="55.8027680" lon="49.1024620"><time>2021-08-14T08:23:31</time></trkpt><trkpt lat="55.8027840" lon="49.1024610"><time>2021-08-14T08:23:32</time></trkpt><trkpt lat="55.8027970" lon="49.1024580"><time>2021-08-14T08:23:33</time></trkpt><trkpt lat="55.8028120" lon="49.1024530"><time>2021-08-14T08:23:34</time></trkpt><trkpt lat="55.8028280" lon="49.1024500"><time>2021-08-14T08:23:35</time></trkpt><trkpt lat="55.8028430" lon="49.1024400"><time>2021-08-14T08:23:36</time></trkpt><trkpt lat="55.8028570" lon="49.1024300"><time>2021-08-14T08:23:37</time></trkpt><trkpt lat="55.8028690" lon="49.1024140"><time>2021-08-14T08:23:38</time></trkpt><trkpt lat="55.8028800" lon="49.1024000"><time>2021-08-14T08:23:39</time></trkpt><trkpt lat="55.8028880" lon="49.1023750"><time>2021-08-14T08:23:40</time></trkpt><trkpt lat="55.8028920" lon="49.1023430"><time>2021-08-14T08:23:41</time></trkpt><trkpt lat="55.8028940" lon="49.1023140"><time>2021-08-14T08:23:42</time></trkpt><trkpt lat="55.8028900" lon="49.1022840"><time>2021-08-14T08:23:43</time></trkpt><trkpt lat="55.8028720" lon="49.1022440"><time>2021-08-14T08:23:44</time></trkpt><trkpt lat="55.8028650" lon="49.1022330"><time>2021-08-14T08:23:45</time></trkpt><trkpt lat="55.8028540" lon="49.1022110"><time>2021-08-14T08:23:46</time></trkpt><trkpt lat="55.8028450" lon="49.1021930"><time>2021-08-14T08:23:47</time></trkpt><trkpt lat="55.8028400" lon="49.1021720"><time>2021-08-14T08:23:48</time></trkpt><trkpt lat="55.8028350" lon="49.1021510"><time>2021-08-14T08:23:49</time></trkpt><trkpt lat="55.8028270" lon="49.1021440"><time>2021-08-14T08:23:50</time></trkpt><trkpt lat="55.8028230" lon="49.1021400"><time>2021-08-14T08:23:51</time></trkpt><trkpt lat="55.8028230" lon="49.1021410"><time>2021-08-14T08:23:52</time></trkpt><trkpt lat="55.8028290" lon="49.1021550"><time>2021-08-14T08:23:53</time></trkpt><trkpt lat="55.8028290" lon="49.1021440"><time>2021-08-14T08:23:54</time></trkpt><trkpt lat="55.8028300" lon="49.1021310"><time>2021-08-14T08:23:55</time></trkpt><trkpt lat="55.8028180" lon="49.1021200"><time>2021-08-14T08:23:56</time></trkpt><trkpt lat="55.8028120" lon="49.1021190"><time>2021-08-14T08:23:57</time></trkpt><trkpt lat="55.8028110" lon="49.1021200"><time>2021-08-14T08:23:58</time></trkpt><trkpt lat="55.8028070" lon="49.1021200"><time>2021-08-14T08:23:59</time></trkpt><trkpt lat="55.8027990" lon="49.1021200"><time>2021-08-14T08:24:00</time></trkpt><trkpt lat="55.8027900" lon="49.1021210"><time>2021-08-14T08:24:01</time></trkpt><trkpt lat="55.8027820" lon="49.1021230"><time>2021-08-14T08:24:02</time></trkpt><trkpt lat="55.8027750" lon="49.1021240"><time>2021-08-14T08:24:03</time></trkpt><trkpt lat="55.8027670" lon="49.1021260"><time>2021-08-14T08:24:04</time></trkpt><trkpt lat="55.8027590" lon="49.1021280"><time>2021-08-14T08:24:05</time></trkpt><trkpt lat="55.8027440" lon="49.1021400"><time>2021-08-14T08:24:06</time></trkpt><trkpt lat="55.8027310" lon="49.1021440"><time>2021-08-14T08:24:07</time></trkpt><trkpt lat="55.8027170" lon="49.1021500"><time>2021-08-14T08:24:08</time></trkpt><trkpt lat="55.8027040" lon="49.1021570"><time>2021-08-14T08:24:09</time></trkpt><trkpt lat="55.8026880" lon="49.1021580"><time>2021-08-14T08:24:10</time></trkpt><trkpt lat="55.8026740" lon="49.1021590"><time>2021-08-14T08:24:11</time></trkpt><trkpt lat="55.8026610" lon="49.1021660"><time>2021-08-14T08:24:12</time></trkpt><trkpt lat="55.8026450" lon="49.1021680"><time>2021-08-14T08:24:13</time></trkpt><trkpt lat="55.8026290" lon="49.1021710"><time>2021-08-14T08:24:14</time></trkpt><trkpt lat="55.8026170" lon="49.1021810"><time>2021-08-14T08:24:15</time></trkpt><trkpt lat="55.8026020" lon="49.1021900"><time>2021-08-14T08:24:16</time></trkpt><trkpt lat="55.8025880" lon="49.1021830"><time>2021-08-14T08:24:17</time></trkpt><trkpt lat="55.8025730" lon="49.1021890"><time>2021-08-14T08:24:18</time></trkpt><trkpt lat="55.8025590" lon="49.1022050"><time>2021-08-14T08:24:19</time></trkpt><trkpt lat="55.8025450" lon="49.1022130"><time>2021-08-14T08:24:20</time></trkpt><trkpt lat="55.8025300" lon="49.1022140"><time>2021-08-14T08:24:21</time></trkpt><trkpt lat="55.8025160" lon="49.1022220"><time>2021-08-14T08:24:22</time></trkpt><trkpt lat="55.8025000" lon="49.1022290"><time>2021-08-14T08:24:23</time></trkpt><trkpt lat="55.8024840" lon="49.1022290"><time>2021-08-14T08:24:24</time></trkpt><trkpt lat="55.8024700" lon="49.1022340"><time>2021-08-14T08:24:25</time></trkpt><trkpt lat="55.8024540" lon="49.1022390"><time>2021-08-14T08:24:26</time></trkpt><trkpt lat="55.8024410" lon="49.1022480"><time>2021-08-14T08:24:27</time></trkpt><trkpt lat="55.8024270" lon="49.1022590"><time>2021-08-14T08:24:28</time></trkpt><trkpt lat="55.8024110" lon="49.1022620"><time>2021-08-14T08:24:29</time></trkpt><trkpt lat="55.8023950" lon="49.1022660"><time>2021-08-14T08:24:30</time></trkpt><trkpt lat="55.8023780" lon="49.1022740"><time>2021-08-14T08:24:31</time></trkpt><trkpt lat="55.8023600" lon="49.1022750"><time>2021-08-14T08:24:32</time></trkpt><trkpt lat="55.8023490" lon="49.1022750"><time>2021-08-14T08:24:33</time></trkpt><trkpt lat="55.8023350" lon="49.1022810"><time>2021-08-14T08:24:34</time></trkpt><trkpt lat="55.8023210" lon="49.1022930"><time>2021-08-14T08:24:35</time></trkpt><trkpt lat="55.8023050" lon="49.1023030"><time>2021-08-14T08:24:36</time></trkpt><trkpt lat="55.8022890" lon="49.1022990"><time>2021-08-14T08:24:37</time></trkpt><trkpt lat="55.8022710" lon="49.1022910"><time>2021-08-14T08:24:38</time></trkpt><trkpt lat="55.8022540" lon="49.1023090"><time>2021-08-14T08:24:39</time></trkpt><trkpt lat="55.8022360" lon="49.1023180"><time>2021-08-14T08:24:40</time></trkpt><trkpt lat="55.8022200" lon="49.1023270"><time>2021-08-14T08:24:41</time></trkpt><trkpt lat="55.8022030" lon="49.1023290"><time>2021-08-14T08:24:42</time></trkpt><trkpt lat="55.8021860" lon="49.1023380"><time>2021-08-14T08:24:43</time></trkpt><trkpt lat="55.8021720" lon="49.1023360"><time>2021-08-14T08:24:44</time></trkpt><trkpt lat="55.8021560" lon="49.1023470"><time>2021-08-14T08:24:45</time></trkpt><trkpt lat="55.8021410" lon="49.1023550"><time>2021-08-14T08:24:46</time></trkpt><trkpt lat="55.8021290" lon="49.1023580"><time>2021-08-14T08:24:47</time></trkpt><trkpt lat="55.8021140" lon="49.1023690"><time>2021-08-14T08:24:48</time></trkpt><trkpt lat="55.8021010" lon="49.1023740"><time>2021-08-14T08:24:49</time></trkpt><trkpt lat="55.8020870" lon="49.1023780"><time>2021-08-14T08:24:50</time></trkpt><trkpt lat="55.8020710" lon="49.1023810"><time>2021-08-14T08:24:51</time></trkpt><trkpt lat="55.8020550" lon="49.1023890"><time>2021-08-14T08:24:52</time></trkpt><trkpt lat="55.8020390" lon="49.1023950"><time>2021-08-14T08:24:53</time></trkpt><trkpt lat="55.8020240" lon="49.1024050"><time>2021-08-14T08:24:54</time></trkpt><trkpt lat="55.8020090" lon="49.1024150"><time>2021-08-14T08:24:55</time></trkpt><trkpt lat="55.8019930" lon="49.1024250"><time>2021-08-14T08:24:56</time></trkpt><trkpt lat="55.8019780" lon="49.1024340"><time>2021-08-14T08:24:57</time></trkpt><trkpt lat="55.8019640" lon="49.1024420"><time>2021-08-14T08:24:58</time></trkpt><trkpt lat="55.8019500" lon="49.1024510"><time>2021-08-14T08:24:59</time></trkpt><trkpt lat="55.8019370" lon="49.1024600"><time>2021-08-14T08:25:00</time></trkpt><trkpt lat="55.8019240" lon="49.1024680"><time>2021-08-14T08:25:01</time></trkpt><trkpt lat="55.8019120" lon="49.1024820"><time>2021-08-14T08:25:02</time></trkpt><trkpt lat="55.8019000" lon="49.1024960"><time>2021-08-14T08:25:03</time></trkpt><trkpt lat="55.8018860" lon="49.1025120"><time>2021-08-14T08:25:04</time></trkpt><trkpt lat="55.8018700" lon="49.1025280"><time>2021-08-14T08:25:05</time></trkpt><trkpt lat="55.8018580" lon="49.1025430"><time>2021-08-14T08:25:06</time></trkpt><trkpt lat="55.8018460" lon="49.1025590"><time>2021-08-14T08:25:07</time></trkpt><trkpt lat="55.8018350" lon="49.1025810"><time>2021-08-14T08:25:08</time></trkpt><trkpt lat="55.8018240" lon="49.1026030"><time>2021-08-14T08:25:09</time></trkpt><trkpt lat="55.8018130" lon="49.1026200"><time>2021-08-14T08:25:10</time></trkpt><trkpt lat="55.8018060" lon="49.1026450"><time>2021-08-14T08:25:11</time></trkpt><trkpt lat="55.8017950" lon="49.1026700"><time>2021-08-14T08:25:12</time></trkpt><trkpt lat="55.8017860" lon="49.1026920"><time>2021-08-14T08:25:13</time></trkpt><trkpt lat="55.8017790" lon="49.1027130"><time>2021-08-14T08:25:14</time></trkpt><trkpt lat="55.8017720" lon="49.1027360"><time>2021-08-14T08:25:15</time></trkpt><trkpt lat="55.8017670" lon="49.1027640"><time>2021-08-14T08:25:16</time></trkpt><trkpt lat="55.8017600" lon="49.1027910"><time>2021-08-14T08:25:17</time></trkpt><trkpt lat="55.8017540" lon="49.1028160"><time>2021-08-14T08:25:18</time></trkpt><trkpt lat="55.8017470" lon="49.1028410"><time>2021-08-14T08:25:19</time></trkpt><trkpt lat="55.8017420" lon="49.1028670"><time>2021-08-14T08:25:20</time></trkpt><trkpt lat="55.8017380" lon="49.1028880"><time>2021-08-14T08:25:21</time></trkpt><trkpt lat="55.8017350" lon="49.1029170"><time>2021-08-14T08:25:22</time></trkpt><trkpt lat="55.8017370" lon="49.1029480"><time>2021-08-14T08:25:23</time></trkpt><trkpt lat="55.8017360" lon="49.1029770"><time>2021-08-14T08:25:24</time></trkpt><trkpt lat="55.8017370" lon="49.1030080"><time>2021-08-14T08:25:25</time></trkpt><trkpt lat="55.8017360" lon="49.1030350"><time>2021-08-14T08:25:26</time></trkpt><trkpt lat="55.8017360" lon="49.1030640"><time>2021-08-14T08:25:27</time></trkpt><trkpt lat="55.8017310" lon="49.1030890"><time>2021-08-14T08:25:28</time></trkpt><trkpt lat="55.8017340" lon="49.1031200"><time>2021-08-14T08:25:29</time></trkpt><trkpt lat="55.8017380" lon="49.1031450"><time>2021-08-14T08:25:30</time></trkpt><trkpt lat="55.8017400" lon="49.1031730"><time>2021-08-14T08:25:31</time></trkpt><trkpt lat="55.8017450" lon="49.1032030"><time>2021-08-14T08:25:32</time></trkpt><trkpt lat="55.8017400" lon="49.1032340"><time>2021-08-14T08:25:33</time></trkpt><trkpt lat="55.8017470" lon="49.1032590"><time>2021-08-14T08:25:34</time></trkpt><trkpt lat="55.8017530" lon="49.1032870"><time>2021-08-14T08:25:35</time></trkpt><trkpt lat="55.8017590" lon="49.1033140"><time>2021-08-14T08:25:36</time></trkpt><trkpt lat="55.8017670" lon="49.1033400"><time>2021-08-14T08:25:37</time></trkpt><trkpt lat="55.8017750" lon="49.1033710"><time>2021-08-14T08:25:38</time></trkpt><trkpt lat="55.8017840" lon="49.1033970"><time>2021-08-14T08:25:39</time></trkpt><trkpt lat="55.8017840" lon="49.1034280"><time>2021-08-14T08:25:40</time></trkpt><trkpt lat="55.8017940" lon="49.1034510"><time>2021-08-14T08:25:41</time></trkpt><trkpt lat="55.8017980" lon="49.1034770"><time>2021-08-14T08:25:42</time></trkpt><trkpt lat="55.8017970" lon="49.1035080"><time>2021-08-14T08:25:43</time></trkpt><trkpt lat="55.8018050" lon="49.1035320"><time>2021-08-14T08:25:44</time></trkpt><trkpt lat="55.8018080" lon="49.1035660"><time>2021-08-14T08:25:45</time></trkpt><trkpt lat="55.8018240" lon="49.1036070"><time>2021-08-14T08:25:46</time></trkpt><trkpt lat="55.8018270" lon="49.1036250"><time>2021-08-14T08:25:47</time></trkpt><trkpt lat="55.8018360" lon="49.1036500"><time>2021-08-14T08:25:48</time></trkpt><trkpt lat="55.8018460" lon="49.1036760"><time>2021-08-14T08:25:49</time></trkpt><trkpt lat="55.8018580" lon="49.1037240"><time>2021-08-14T08:25:50</time></trkpt><trkpt lat="55.8018610" lon="49.1037430"><time>2021-08-14T08:25:51</time></trkpt><trkpt lat="55.8018680" lon="49.1037750"><time>2021-08-14T08:25:52</time></trkpt><trkpt lat="55.8018730" lon="49.1038000"><time>2021-08-14T08:25:53</time></trkpt><trkpt lat="55.8018890" lon="49.1038450"><time>2021-08-14T08:25:54</time></trkpt><trkpt lat="55.8018950" lon="49.1038600"><time>2021-08-14T08:25:55</time></trkpt><trkpt lat="55.8019040" lon="49.1038820"><time>2021-08-14T08:25:56</time></trkpt><trkpt lat="55.8019050" lon="49.1039160"><time>2021-08-14T08:25:57</time></trkpt><trkpt lat="55.8019130" lon="49.1039430"><time>2021-08-14T08:25:58</time></trkpt><trkpt lat="55.8019240" lon="49.1039610"><time>2021-08-14T08:25:59</time></trkpt><trkpt lat="55.8019360" lon="49.1039790"><time>2021-08-14T08:26:00</time></trkpt><trkpt lat="55.8019370" lon="49.1040140"><time>2021-08-14T08:26:01</time></trkpt><trkpt lat="55.8019410" lon="49.1040420"><time>2021-08-14T08:26:02</time></trkpt><trkpt lat="55.8019450" lon="49.1040740"><time>2021-08-14T08:26:03</time></trkpt><trkpt lat="55.8019540" lon="49.1040900"><time>2021-08-14T08:26:04</time></trkpt><trkpt lat="55.8019650" lon="49.1041100"><time>2021-08-14T08:26:05</time></trkpt><trkpt lat="55.8019700" lon="49.1041350"><time>2021-08-14T08:26:06</time></trkpt><trkpt lat="55.8019770" lon="49.1041560"><time>2021-08-14T08:26:07</time></trkpt><trkpt lat="55.8019900" lon="49.1042030"><time>2021-08-14T08:26:08</time></trkpt><trkpt lat="55.8019920" lon="49.1042180"><time>2021-08-14T08:26:09</time></trkpt><trkpt lat="55.8019950" lon="49.1042450"><time>2021-08-14T08:26:10</time></trkpt><trkpt lat="55.8020020" lon="49.1042710"><time>2021-08-14T08:26:11</time></trkpt><trkpt lat="55.8020070" lon="49.1043030"><time>2021-08-14T08:26:12</time></trkpt><trkpt lat="55.8020210" lon="49.1043210"><time>2021-08-14T08:26:13</time></trkpt><trkpt lat="55.8020310" lon="49.1043530"><time>2021-08-14T08:26:14</time></trkpt><trkpt lat="55.8020350" lon="49.1043700"><time>2021-08-14T08:26:15</time></trkpt><trkpt lat="55.8020380" lon="49.1043860"><time>2021-08-14T08:26:16</time></trkpt><trkpt lat="55.8020390" lon="49.1044130"><time>2021-08-14T08:26:17</time></trkpt><trkpt lat="55.8020440" lon="49.1044430"><time>2021-08-14T08:26:18</time></trkpt><trkpt lat="55.8020520" lon="49.1044670"><time>2021-08-14T08:26:19</time></trkpt><trkpt lat="55.8020580" lon="49.1044920"><time>2021-08-14T08:26:20</time></trkpt><trkpt lat="55.8020750" lon="49.1045160"><time>2021-08-14T08:26:21</time></trkpt><trkpt lat="55.8020770" lon="49.1045420"><time>2021-08-14T08:26:22</time></trkpt><trkpt lat="55.8020860" lon="49.1045630"><time>2021-08-14T08:26:23</time></trkpt><trkpt lat="55.8020940" lon="49.1045930"><time>2021-08-14T08:26:24</time></trkpt><trkpt lat="55.8021010" lon="49.1046190"><time>2021-08-14T08:26:25</time></trkpt><trkpt lat="55.8021080" lon="49.1046400"><time>2021-08-14T08:26:26</time></trkpt><trkpt lat="55.8021160" lon="49.1046710"><time>2021-08-14T08:26:27</time></trkpt><trkpt lat="55.8021280" lon="49.1046880"><time>2021-08-14T08:26:28</time></trkpt><trkpt lat="55.8021410" lon="49.1047090"><time>2021-08-14T08:26:29</time></trkpt><trkpt lat="55.8021480" lon="49.1047390"><time>2021-08-14T08:26:30</time></trkpt><trkpt lat="55.8021530" lon="49.1047740"><time>2021-08-14T08:26:31</time></trkpt><trkpt lat="55.8021610" lon="49.1047960"><time>2021-08-14T08:26:32</time></trkpt><trkpt lat="55.8021670" lon="49.1048300"><time>2021-08-14T08:26:33</time></trkpt><trkpt lat="55.8021690" lon="49.1048570"><time>2021-08-14T08:26:34</time></trkpt><trkpt lat="55.8021780" lon="49.1048760"><time>2021-08-14T08:26:35</time></trkpt><trkpt lat="55.8021840" lon="49.1049000"><time>2021-08-14T08:26:36</time></trkpt><trkpt lat="55.8021970" lon="49.1049470"><time>2021-08-14T08:26:37</time></trkpt><trkpt lat="55.8021980" lon="49.1049600"><time>2021-08-14T08:26:38</time></trkpt><trkpt lat="55.8022040" lon="49.1049830"><time>2021-08-14T08:26:39</time></trkpt><trkpt lat="55.8022090" lon="49.1050160"><time>2021-08-14T08:26:40</time></trkpt><trkpt lat="55.8022150" lon="49.1050410"><time>2021-08-14T08:26:41</time></trkpt><trkpt lat="55.8022170" lon="49.1050700"><time>2021-08-14T08:26:42</time></trkpt><trkpt lat="55.8022240" lon="49.1050970"><time>2021-08-14T08:26:43</time></trkpt><trkpt lat="55.8022290" lon="49.1051170"><time>2021-08-14T08:26:44</time></trkpt><trkpt lat="55.8022290" lon="49.1051380"><time>2021-08-14T08:26:45</time></trkpt><trkpt lat="55.8022400" lon="49.1051700"><time>2021-08-14T08:26:46</time></trkpt><trkpt lat="55.8022470" lon="49.1051880"><time>2021-08-14T08:26:47</time></trkpt><trkpt lat="55.8022530" lon="49.1052200"><time>2021-08-14T08:26:48</time></trkpt><trkpt lat="55.8022660" lon="49.1052630"><time>2021-08-14T08:26:49</time></trkpt><trkpt lat="55.8022710" lon="49.1052790"><time>2021-08-14T08:26:50</time></trkpt><trkpt lat="55.8022770" lon="49.1053020"><time>2021-08-14T08:26:51</time></trkpt><trkpt lat="55.8022840" lon="49.1053360"><time>2021-08-14T08:26:52</time></trkpt><trkpt lat="55.8022920" lon="49.1053590"><time>2021-08-14T08:26:53</time></trkpt><trkpt lat="55.8022970" lon="49.1053820"><time>2021-08-14T08:26:54</time></trkpt><trkpt lat="55.8023070" lon="49.1054280"><time>2021-08-14T08:26:55</time></trkpt><trkpt lat="55.8023100" lon="49.1054430"><time>2021-08-14T08:26:56</time></trkpt><trkpt lat="55.8023130" lon="49.1054710"><time>2021-08-14T08:26:57</time></trkpt><trkpt lat="55.8023130" lon="49.1055000"><time>2021-08-14T08:26:58</time></trkpt><trkpt lat="55.8023120" lon="49.1055410"><time>2021-08-14T08:26:59</time></trkpt><trkpt lat="55.8023140" lon="49.1055560"><time>2021-08-14T08:27:00</time></trkpt><trkpt lat="55.8023160" lon="49.1055710"><time>2021-08-14T08:27:01</time></trkpt><trkpt lat="55.8023270" lon="49.1055940"><time>2021-08-14T08:27:02</time></trkpt><trkpt lat="55.8023350" lon="49.1056190"><time>2021-08-14T08:27:03</time></trkpt><trkpt lat="55.8023380" lon="49.1056500"><time>2021-08-14T08:27:04</time></trkpt><trkpt lat="55.8023410" lon="49.1056760"><time>2021-08-14T08:27:05</time></trkpt><trkpt lat="55.8023470" lon="49.1057060"><time>2021-08-14T08:27:06</time></trkpt><trkpt lat="55.8023590" lon="49.1057260"><time>2021-08-14T08:27:07</time></trkpt><trkpt lat="55.8023630" lon="49.1057530"><time>2021-08-14T08:27:08</time></trkpt><trkpt lat="55.8023640" lon="49.1057800"><time>2021-08-14T08:27:09</time></trkpt><trkpt lat="55.8023700" lon="49.1058030"><time>2021-08-14T08:27:10</time></trkpt><trkpt lat="55.8023820" lon="49.1058300"><time>2021-08-14T08:27:11</time></trkpt><trkpt lat="55.8023830" lon="49.1058560"><time>2021-08-14T08:27:12</time></trkpt><trkpt lat="55.8023880" lon="49.1058850"><time>2021-08-14T08:27:13</time></trkpt><trkpt lat="55.8023910" lon="49.1059110"><time>2021-08-14T08:27:14</time></trkpt><trkpt lat="55.8023930" lon="49.1059390"><time>2021-08-14T08:27:15</time></trkpt><trkpt lat="55.8023940" lon="49.1059720"><time>2021-08-14T08:27:16</time></trkpt><trkpt lat="55.8024000" lon="49.1059980"><time>2021-08-14T08:27:17</time></trkpt><trkpt lat="55.8024070" lon="49.1060380"><time>2021-08-14T08:27:18</time></trkpt><trkpt lat="55.8024130" lon="49.1060540"><time>2021-08-14T08:27:19</time></trkpt><trkpt lat="55.8024180" lon="49.1060710"><time>2021-08-14T08:27:20</time></trkpt><trkpt lat="55.8024220" lon="49.1061000"><time>2021-08-14T08:27:21</time></trkpt><trkpt lat="55.8024280" lon="49.1061290"><time>2021-08-14T08:27:22</time></trkpt><trkpt lat="55.8024350" lon="49.1061530"><time>2021-08-14T08:27:23</time></trkpt><trkpt lat="55.8024380" lon="49.1061780"><time>2021-08-14T08:27:24</time></trkpt><trkpt lat="55.8024430" lon="49.1062050"><time>2021-08-14T08:27:25</time></trkpt><trkpt lat="55.8024490" lon="49.1062320"><time>2021-08-14T08:27:26</time></trkpt><trkpt lat="55.8024580" lon="49.1062800"><time>2021-08-14T08:27:27</time></trkpt><trkpt lat="55.8024630" lon="49.1062960"><time>2021-08-14T08:27:28</time></trkpt><trkpt lat="55.8024680" lon="49.1063230"><time>2021-08-14T08:27:29</time></trkpt><trkpt lat="55.8024750" lon="49.1063440"><time>2021-08-14T08:27:30</time></trkpt><trkpt lat="55.8024750" lon="49.1064050"><time>2021-08-14T08:27:31</time></trkpt><trkpt lat="55.8024730" lon="49.1064180"><time>2021-08-14T08:27:32</time></trkpt><trkpt lat="55.8024690" lon="49.1064470"><time>2021-08-14T08:27:33</time></trkpt><trkpt lat="55.8024740" lon="49.1064710"><time>2021-08-14T08:27:34</time></trkpt><trkpt lat="55.8024720" lon="49.1064960"><time>2021-08-14T08:27:35</time></trkpt><trkpt lat="55.8024740" lon="49.1065300"><time>2021-08-14T08:27:36</time></trkpt><trkpt lat="55.8024770" lon="49.1065540"><time>2021-08-14T08:27:37</time></trkpt><trkpt lat="55.8024820" lon="49.1065720"><time>2021-08-14T08:27:38</time></trkpt><trkpt lat="55.8024850" lon="49.1065910"><time>2021-08-14T08:27:39</time></trkpt><trkpt lat="55.8024850" lon="49.1066200"><time>2021-08-14T08:27:40</time></trkpt><trkpt lat="55.8024890" lon="49.1066490"><time>2021-08-14T08:27:41</time></trkpt><trkpt lat="55.8024960" lon="49.1066780"><time>2021-08-14T08:27:42</time></trkpt><trkpt lat="55.8024950" lon="49.1067080"><time>2021-08-14T08:27:43</time></trkpt><trkpt lat="55.8024940" lon="49.1067350"><time>2021-08-14T08:27:44</time></trkpt><trkpt lat="55.8024990" lon="49.1067550"><time>2021-08-14T08:27:45</time></trkpt><trkpt lat="55.8025030" lon="49.1067770"><time>2021-08-14T08:27:46</time></trkpt><trkpt lat="55.8025020" lon="49.1068050"><time>2021-08-14T08:27:47</time></trkpt><trkpt lat="55.8025010" lon="49.1068430"><time>2021-08-14T08:27:48</time></trkpt><trkpt lat="55.8025030" lon="49.1068640"><time>2021-08-14T08:27:49</time></trkpt><trkpt lat="55.8025110" lon="49.1069120"><time>2021-08-14T08:27:50</time></trkpt><trkpt lat="55.8025120" lon="49.1069270"><time>2021-08-14T08:27:51</time></trkpt><trkpt lat="55.8025190" lon="49.1069530"><time>2021-08-14T08:27:52</time></trkpt><trkpt lat="55.8025140" lon="49.1069760"><time>2021-08-14T08:27:53</time></trkpt><trkpt lat="55.8025140" lon="49.1070170"><time>2021-08-14T08:27:54</time></trkpt><trkpt lat="55.8025140" lon="49.1070350"><time>2021-08-14T08:27:55</time></trkpt><trkpt lat="55.8025130" lon="49.1070530"><time>2021-08-14T08:27:56</time></trkpt><trkpt lat="55.8025120" lon="49.1070820"><time>2021-08-14T08:27:57</time></trkpt><trkpt lat="55.8025140" lon="49.1071130"><time>2021-08-14T08:27:58</time></trkpt><trkpt lat="55.8025170" lon="49.1071520"><time>2021-08-14T08:27:59</time></trkpt><trkpt lat="55.8025170" lon="49.1071680"><time>2021-08-14T08:28:00</time></trkpt><trkpt lat="55.8025160" lon="49.1071850"><time>2021-08-14T08:28:01</time></trkpt><trkpt lat="55.8025100" lon="49.1072170"><time>2021-08-14T08:28:02</time></trkpt><trkpt lat="55.8025140" lon="49.1072340"><time>2021-08-14T08:28:03</time></trkpt><trkpt lat="55.8025140" lon="49.1072630"><time>2021-08-14T08:28:04</time></trkpt><trkpt lat="55.8025170" lon="49.1072890"><time>2021-08-14T08:28:05</time></trkpt><trkpt lat="55.8025170" lon="49.1073250"><time>2021-08-14T08:28:06</time></trkpt><trkpt lat="55.8025090" lon="49.1073480"><time>2021-08-14T08:28:07</time></trkpt><trkpt lat="55.8025090" lon="49.1073760"><time>2021-08-14T08:28:08</time></trkpt><trkpt lat="55.8025090" lon="49.1074010"><time>2021-08-14T08:28:09</time></trkpt><trkpt lat="55.8025120" lon="49.1074300"><time>2021-08-14T08:28:10</time></trkpt><trkpt lat="55.8025130" lon="49.1074570"><time>2021-08-14T08:28:11</time></trkpt><trkpt lat="55.8025150" lon="49.1074840"><time>2021-08-14T08:28:12</time></trkpt><trkpt lat="55.8025210" lon="49.1075070"><time>2021-08-14T08:28:13</time></trkpt><trkpt lat="55.8025210" lon="49.1075500"><time>2021-08-14T08:28:14</time></trkpt><trkpt lat="55.8025210" lon="49.1075650"><time>2021-08-14T08:28:15</time></trkpt><trkpt lat="55.8025220" lon="49.1075790"><time>2021-08-14T08:28:16</time></trkpt><trkpt lat="55.8025160" lon="49.1076090"><time>2021-08-14T08:28:17</time></trkpt><trkpt lat="55.8025170" lon="49.1076380"><time>2021-08-14T08:28:18</time></trkpt><trkpt lat="55.8025210" lon="49.1076690"><time>2021-08-14T08:28:19</time></trkpt><trkpt lat="55.8025160" lon="49.1077010"><time>2021-08-14T08:28:20</time></trkpt><trkpt lat="55.8025170" lon="49.1077300"><time>2021-08-14T08:28:21</time></trkpt><trkpt lat="55.8025160" lon="49.1077580"><time>2021-08-14T08:28:22</time></trkpt><trkpt lat="55.8025160" lon="49.1077830"><time>2021-08-14T08:28:23</time></trkpt><trkpt lat="55.8025140" lon="49.1078130"><time>2021-08-14T08:28:24</time></trkpt><trkpt lat="55.8025140" lon="49.1078420"><time>2021-08-14T08:28:25</time></trkpt><trkpt lat="55.8025170" lon="49.1078740"><time>2021-08-14T08:28:26</time></trkpt><trkpt lat="55.8025180" lon="49.1078990"><time>2021-08-14T08:28:27</time></trkpt><trkpt lat="55.8025220" lon="49.1079340"><time>2021-08-14T08:28:28</time></trkpt><trkpt lat="55.8025320" lon="49.1079560"><time>2021-08-14T08:28:29</time></trkpt><trkpt lat="55.8025430" lon="49.1079730"><time>2021-08-14T08:28:30</time></trkpt><trkpt lat="55.8025580" lon="49.1079920"><time>2021-08-14T08:28:31</time></trkpt><trkpt lat="55.8025720" lon="49.1080040"><time>2021-08-14T08:28:32</time></trkpt><trkpt lat="55.8025830" lon="49.1080260"><time>2021-08-14T08:28:33</time></trkpt><trkpt lat="55.8025950" lon="49.1080440"><time>2021-08-14T08:28:34</time></trkpt><trkpt lat="55.8026040" lon="49.1080670"><time>2021-08-14T08:28:35</time></trkpt><trkpt lat="55.8026070" lon="49.1080990"><time>2021-08-14T08:28:36</time></trkpt><trkpt lat="55.8026080" lon="49.1081280"><time>2021-08-14T08:28:37</time></trkpt><trkpt lat="55.8026040" lon="49.1081550"><time>2021-08-14T08:28:38</time></trkpt><trkpt lat="55.8025980" lon="49.1081770"><time>2021-08-14T08:28:39</time></trkpt><trkpt lat="55.8025970" lon="49.1082020"><time>2021-08-14T08:28:40</time></trkpt><trkpt lat="55.8025960" lon="49.1082260"><time>2021-08-14T08:28:41</time></trkpt><trkpt lat="55.8025930" lon="49.1082550"><time>2021-08-14T08:28:42</time></trkpt><trkpt lat="55.8025880" lon="49.1082830"><time>2021-08-14T08:28:43</time></trkpt><trkpt lat="55.8025860" lon="49.1083130"><time>2021-08-14T08:28:44</time></trkpt><trkpt lat="55.8025830" lon="49.1083500"><time>2021-08-14T08:28:45</time></trkpt><trkpt lat="55.8025800" lon="49.1083640"><time>2021-08-14T08:28:46</time></trkpt><trkpt lat="55.8025770" lon="49.1083790"><time>2021-08-14T08:28:47</time></trkpt><trkpt lat="55.8025750" lon="49.1084060"><time>2021-08-14T08:28:48</time></trkpt><trkpt lat="55.8025770" lon="49.1084330"><time>2021-08-14T08:28:49</time></trkpt><trkpt lat="55.8025740" lon="49.1084650"><time>2021-08-14T08:28:50</time></trkpt><trkpt lat="55.8025710" lon="49.1084870"><time>2021-08-14T08:28:51</time></trkpt><trkpt lat="55.8025700" lon="49.1085150"><time>2021-08-14T08:28:52</time></trkpt><trkpt lat="55.8025690" lon="49.1085430"><time>2021-08-14T08:28:53</time></trkpt><trkpt lat="55.8025650" lon="49.1085690"><time>2021-08-14T08:28:54</time></trkpt><trkpt lat="55.8025650" lon="49.1085970"><time>2021-08-14T08:28:55</time></trkpt><trkpt lat="55.8025650" lon="49.1086210"><time>2021-08-14T08:28:56</time></trkpt><trkpt lat="55.8025600" lon="49.1086530"><time>2021-08-14T08:28:57</time></trkpt><trkpt lat="55.8025610" lon="49.1086790"><time>2021-08-14T08:28:58</time></trkpt><trkpt lat="55.8025580" lon="49.1087090"><time>2021-08-14T08:28:59</time></trkpt><trkpt lat="55.8025610" lon="49.1087420"><time>2021-08-14T08:29:00</time></trkpt><trkpt lat="55.8025570" lon="49.1087720"><time>2021-08-14T08:29:01</time></trkpt><trkpt lat="55.8025570" lon="49.1087970"><time>2021-08-14T08:29:02</time></trkpt><trkpt lat="55.8025540" lon="49.1088230"><time>2021-08-14T08:29:03</time></trkpt><trkpt lat="55.8025520" lon="49.1088490"><time>2021-08-14T08:29:04</time></trkpt><trkpt lat="55.8025510" lon="49.1088720"><time>2021-08-14T08:29:05</time></trkpt><trkpt lat="55.8025500" lon="49.1088990"><time>2021-08-14T08:29:06</time></trkpt><trkpt lat="55.8025500" lon="49.1089280"><time>2021-08-14T08:29:07</time></trkpt><trkpt lat="55.8025510" lon="49.1089540"><time>2021-08-14T08:29:08</time></trkpt><trkpt lat="55.8025470" lon="49.1089810"><time>2021-08-14T08:29:09</time></trkpt><trkpt lat="55.8025460" lon="49.1090090"><time>2021-08-14T08:29:10</time></trkpt><trkpt lat="55.8025440" lon="49.1090420"><time>2021-08-14T08:29:11</time></trkpt><trkpt lat="55.8025450" lon="49.1090670"><time>2021-08-14T08:29:12</time></trkpt><trkpt lat="55.8025430" lon="49.1090960"><time>2021-08-14T08:29:13</time></trkpt><trkpt lat="55.8025420" lon="49.1091220"><time>2021-08-14T08:29:14</time></trkpt><trkpt lat="55.8025400" lon="49.1091530"><time>2021-08-14T08:29:15</time></trkpt><trkpt lat="55.8025380" lon="49.1091770"><time>2021-08-14T08:29:16</time></trkpt><trkpt lat="55.8025340" lon="49.1092070"><time>2021-08-14T08:29:17</time></trkpt><trkpt lat="55.8025330" lon="49.1092370"><time>2021-08-14T08:29:18</time></trkpt><trkpt lat="55.8025340" lon="49.1092640"><time>2021-08-14T08:29:19</time></trkpt><trkpt lat="55.8025370" lon="49.1092880"><time>2021-08-14T08:29:20</time></trkpt><trkpt lat="55.8025350" lon="49.1093150"><time>2021-08-14T08:29:21</time></trkpt><trkpt lat="55.8025320" lon="49.1093450"><time>2021-08-14T08:29:22</time></trkpt><trkpt lat="55.8025300" lon="49.1093740"><time>2021-08-14T08:29:23</time></trkpt><trkpt lat="55.8025310" lon="49.1094040"><time>2021-08-14T08:29:24</time></trkpt><trkpt lat="55.8025300" lon="49.1094300"><time>2021-08-14T08:29:25</time></trkpt><trkpt lat="55.8025260" lon="49.1094600"><time>2021-08-14T08:29:26</time></trkpt><trkpt lat="55.8025280" lon="49.1094910"><time>2021-08-14T08:29:27</time></trkpt><trkpt lat="55.8025250" lon="49.1095190"><time>2021-08-14T08:29:28</time></trkpt><trkpt lat="55.8025230" lon="49.1095490"><time>2021-08-14T08:29:29</time></trkpt><trkpt lat="55.8025190" lon="49.1095820"><time>2021-08-14T08:29:30</time></trkpt><trkpt lat="55.8025150" lon="49.1096090"><time>2021-08-14T08:29:31</time></trkpt><trkpt lat="55.8025140" lon="49.1096350"><time>2021-08-14T08:29:32</time></trkpt><trkpt lat="55.8025100" lon="49.1096640"><time>2021-08-14T08:29:33</time></trkpt><trkpt lat="55.8025110" lon="49.1096950"><time>2021-08-14T08:29:34</time></trkpt><trkpt lat="55.8025120" lon="49.1097230"><time>2021-08-14T08:29:35</time></trkpt><trkpt lat="55.8025150" lon="49.1097490"><time>2021-08-14T08:29:36</time></trkpt><trkpt lat="55.8025170" lon="49.1098090"><time>2021-08-14T08:29:37</time></trkpt><trkpt lat="55.8025160" lon="49.1098370"><time>2021-08-14T08:29:38</time></trkpt><trkpt lat="55.8025110" lon="49.1098870"><time>2021-08-14T08:29:40</time></trkpt><trkpt lat="55.8025100" lon="49.1099190"><time>2021-08-14T08:29:41</time></trkpt><trkpt lat="55.8025050" lon="49.1099480"><time>2021-08-14T08:29:42</time></trkpt><trkpt lat="55.8024980" lon="49.1099770"><time>2021-08-14T08:29:43</time></trkpt><trkpt lat="55.8024930" lon="49.1100020"><time>2021-08-14T08:29:44</time></trkpt><trkpt lat="55.8024890" lon="49.1100280"><time>2021-08-14T08:29:45</time></trkpt><trkpt lat="55.8024870" lon="49.1100520"><time>2021-08-14T08:29:46</time></trkpt><trkpt lat="55.8024850" lon="49.1100790"><time>2021-08-14T08:29:47</time></trkpt><trkpt lat="55.8024860" lon="49.1101110"><time>2021-08-14T08:29:48</time></trkpt><trkpt lat="55.8024830" lon="49.1101390"><time>2021-08-14T08:29:49</time></trkpt><trkpt lat="55.8024810" lon="49.1101680"><time>2021-08-14T08:29:50</time></trkpt><trkpt lat="55.8024820" lon="49.1101960"><time>2021-08-14T08:29:51</time></trkpt><trkpt lat="55.8024870" lon="49.1102240"><time>2021-08-14T08:29:52</time></trkpt><trkpt lat="55.8024870" lon="49.1102550"><time>2021-08-14T08:29:53</time></trkpt><trkpt lat="55.8024820" lon="49.1103100"><time>2021-08-14T08:29:55</time></trkpt><trkpt lat="55.8024800" lon="49.1103370"><time>2021-08-14T08:29:56</time></trkpt><trkpt lat="55.8024800" lon="49.1103640"><time>2021-08-14T08:29:57</time></trkpt><trkpt lat="55.8024820" lon="49.1103920"><time>2021-08-14T08:29:58</time></trkpt><trkpt lat="55.8024790" lon="49.1104200"><time>2021-08-14T08:29:59</time></trkpt><trkpt lat="55.8024770" lon="49.1104460"><time>2021-08-14T08:30:00</time></trkpt><trkpt lat="55.8024760" lon="49.1104800"><time>2021-08-14T08:30:01</time></trkpt><trkpt lat="55.8024780" lon="49.1105050"><time>2021-08-14T08:30:02</time></trkpt><trkpt lat="55.8024780" lon="49.1105360"><time>2021-08-14T08:30:03</time></trkpt><trkpt lat="55.8024710" lon="49.1105650"><time>2021-08-14T08:30:04</time></trkpt><trkpt lat="55.8024680" lon="49.1105920"><time>2021-08-14T08:30:05</time></trkpt><trkpt lat="55.8024650" lon="49.1106210"><time>2021-08-14T08:30:06</time></trkpt><trkpt lat="55.8024690" lon="49.1106490"><time>2021-08-14T08:30:07</time></trkpt><trkpt lat="55.8024720" lon="49.1106720"><time>2021-08-14T08:30:08</time></trkpt><trkpt lat="55.8024710" lon="49.1107000"><time>2021-08-14T08:30:09</time></trkpt><trkpt lat="55.8024670" lon="49.1107320"><time>2021-08-14T08:30:10</time></trkpt><trkpt lat="55.8024650" lon="49.1107600"><time>2021-08-14T08:30:11</time></trkpt><trkpt lat="55.8024640" lon="49.1107850"><time>2021-08-14T08:30:12</time></trkpt><trkpt lat="55.8024630" lon="49.1108120"><time>2021-08-14T08:30:13</time></trkpt><trkpt lat="55.8024650" lon="49.1108470"><time>2021-08-14T08:30:14</time></trkpt><trkpt lat="55.8024650" lon="49.1108720"><time>2021-08-14T08:30:15</time></trkpt><trkpt lat="55.8024660" lon="49.1108950"><time>2021-08-14T08:30:17</time></trkpt><trkpt lat="55.8024660" lon="49.1109260"><time>2021-08-14T08:30:18</time></trkpt><trkpt lat="55.8024640" lon="49.1109560"><time>2021-08-14T08:30:19</time></trkpt><trkpt lat="55.8024610" lon="49.1109860"><time>2021-08-14T08:30:20</time></trkpt><trkpt lat="55.8024560" lon="49.1110110"><time>2021-08-14T08:30:21</time></trkpt><trkpt lat="55.8024500" lon="49.1110390"><time>2021-08-14T08:30:22</time></trkpt><trkpt lat="55.8024530" lon="49.1110670"><time>2021-08-14T08:30:23</time></trkpt><trkpt lat="55.8024530" lon="49.1110940"><time>2021-08-14T08:30:24</time></trkpt><trkpt lat="55.8024520" lon="49.1111200"><time>2021-08-14T08:30:25</time></trkpt><trkpt lat="55.8024480" lon="49.1111530"><time>2021-08-14T08:30:26</time></trkpt><trkpt lat="55.8024450" lon="49.1111790"><time>2021-08-14T08:30:27</time></trkpt><trkpt lat="55.8024440" lon="49.1112010"><time>2021-08-14T08:30:28</time></trkpt><trkpt lat="55.8024450" lon="49.1112340"><time>2021-08-14T08:30:29</time></trkpt><trkpt lat="55.8024450" lon="49.1112720"><time>2021-08-14T08:30:30</time></trkpt><trkpt lat="55.8024450" lon="49.1112900"><time>2021-08-14T08:30:31</time></trkpt><trkpt lat="55.8024440" lon="49.1113090"><time>2021-08-14T08:30:32</time></trkpt><trkpt lat="55.8024390" lon="49.1113400"><time>2021-08-14T08:30:33</time></trkpt><trkpt lat="55.8024400" lon="49.1113680"><time>2021-08-14T08:30:34</time></trkpt><trkpt lat="55.8024470" lon="49.1114000"><time>2021-08-14T08:30:35</time></trkpt><trkpt lat="55.8024460" lon="49.1114270"><time>2021-08-14T08:30:36</time></trkpt><trkpt lat="55.8024550" lon="49.1114760"><time>2021-08-14T08:30:37</time></trkpt><trkpt lat="55.8024520" lon="49.1114930"><time>2021-08-14T08:30:38</time></trkpt><trkpt lat="55.8024480" lon="49.1115200"><time>2021-08-14T08:30:39</time></trkpt><trkpt lat="55.8024410" lon="49.1115530"><time>2021-08-14T08:30:40</time></trkpt><trkpt lat="55.8024430" lon="49.1116030"><time>2021-08-14T08:30:41</time></trkpt><trkpt lat="55.8024430" lon="49.1116210"><time>2021-08-14T08:30:42</time></trkpt><trkpt lat="55.8024460" lon="49.1116480"><time>2021-08-14T08:30:43</time></trkpt><trkpt lat="55.8024420" lon="49.1116700"><time>2021-08-14T08:30:44</time></trkpt><trkpt lat="55.8024400" lon="49.1116960"><time>2021-08-14T08:30:45</time></trkpt><trkpt lat="55.8024450" lon="49.1117230"><time>2021-08-14T08:30:46</time></trkpt><trkpt lat="55.8024490" lon="49.1117450"><time>2021-08-14T08:30:47</time></trkpt><trkpt lat="55.8024480" lon="49.1117770"><time>2021-08-14T08:30:48</time></trkpt><trkpt lat="55.8024510" lon="49.1118120"><time>2021-08-14T08:30:49</time></trkpt><trkpt lat="55.8024530" lon="49.1118280"><time>2021-08-14T08:30:50</time></trkpt><trkpt lat="55.8024560" lon="49.1118430"><time>2021-08-14T08:30:51</time></trkpt><trkpt lat="55.8024550" lon="49.1118720"><time>2021-08-14T08:30:52</time></trkpt><trkpt lat="55.8024620" lon="49.1118970"><time>2021-08-14T08:30:53</time></trkpt><trkpt lat="55.8024690" lon="49.1119220"><time>2021-08-14T08:30:54</time></trkpt><trkpt lat="55.8024740" lon="49.1119550"><time>2021-08-14T08:30:55</time></trkpt><trkpt lat="55.8024770" lon="49.1119820"><time>2021-08-14T08:30:56</time></trkpt><trkpt lat="55.8024800" lon="49.1120060"><time>2021-08-14T08:30:57</time></trkpt><trkpt lat="55.8024870" lon="49.1120310"><time>2021-08-14T08:30:58</time></trkpt><trkpt lat="55.8024860" lon="49.1120610"><time>2021-08-14T08:30:59</time></trkpt><trkpt lat="55.8024870" lon="49.1120830"><time>2021-08-14T08:31:00</time></trkpt><trkpt lat="55.8024910" lon="49.1121110"><time>2021-08-14T08:31:01</time></trkpt><trkpt lat="55.8025010" lon="49.1121430"><time>2021-08-14T08:31:02</time></trkpt><trkpt lat="55.8025060" lon="49.1121570"><time>2021-08-14T08:31:03</time></trkpt><trkpt lat="55.8025110" lon="49.1121700"><time>2021-08-14T08:31:04</time></trkpt><trkpt lat="55.8025180" lon="49.1121930"><time>2021-08-14T08:31:05</time></trkpt><trkpt lat="55.8025230" lon="49.1122250"><time>2021-08-14T08:31:06</time></trkpt><trkpt lat="55.8025280" lon="49.1122490"><time>2021-08-14T08:31:07</time></trkpt><trkpt lat="55.8025340" lon="49.1122810"><time>2021-08-14T08:31:08</time></trkpt><trkpt lat="55.8025390" lon="49.1123050"><time>2021-08-14T08:31:09</time></trkpt><trkpt lat="55.8025430" lon="49.1123310"><time>2021-08-14T08:31:10</time></trkpt><trkpt lat="55.8025470" lon="49.1123640"><time>2021-08-14T08:31:11</time></trkpt><trkpt lat="55.8025540" lon="49.1123920"><time>2021-08-14T08:31:12</time></trkpt><trkpt lat="55.8025600" lon="49.1124140"><time>2021-08-14T08:31:13</time></trkpt><trkpt lat="55.8025650" lon="49.1124380"><time>2021-08-14T08:31:14</time></trkpt><trkpt lat="55.8025710" lon="49.1124760"><time>2021-08-14T08:31:15</time></trkpt><trkpt lat="55.8025740" lon="49.1124900"><time>2021-08-14T08:31:16</time></trkpt><trkpt lat="55.8025780" lon="49.1125050"><time>2021-08-14T08:31:17</time></trkpt><trkpt lat="55.8025860" lon="49.1125300"><time>2021-08-14T08:31:18</time></trkpt><trkpt lat="55.8025950" lon="49.1125430"><time>2021-08-14T08:31:19</time></trkpt><trkpt lat="55.8026050" lon="49.1125670"><time>2021-08-14T08:31:20</time></trkpt><trkpt lat="55.8026110" lon="49.1125960"><time>2021-08-14T08:31:21</time></trkpt><trkpt lat="55.8026160" lon="49.1126490"><time>2021-08-14T08:31:22</time></trkpt><trkpt lat="55.8026170" lon="49.1126660"><time>2021-08-14T08:31:23</time></trkpt><trkpt lat="55.8026190" lon="49.1126970"><time>2021-08-14T08:31:24</time></trkpt><trkpt lat="55.8026220" lon="49.1127240"><time>2021-08-14T08:31:25</time></trkpt><trkpt lat="55.8026290" lon="49.1127510"><time>2021-08-14T08:31:26</time></trkpt><trkpt lat="55.8026350" lon="49.1127680"><time>2021-08-14T08:31:27</time></trkpt><trkpt lat="55.8026370" lon="49.1127950"><time>2021-08-14T08:31:28</time></trkpt><trkpt lat="55.8026440" lon="49.1128200"><time>2021-08-14T08:31:29</time></trkpt><trkpt lat="55.8026470" lon="49.1128430"><time>2021-08-14T08:31:30</time></trkpt><trkpt lat="55.8026570" lon="49.1128680"><time>2021-08-14T08:31:31</time></trkpt><trkpt lat="55.8026640" lon="49.1128900"><time>2021-08-14T08:31:32</time></trkpt><trkpt lat="55.8026700" lon="49.1129090"><time>2021-08-14T08:31:33</time></trkpt><trkpt lat="55.8026790" lon="49.1129440"><time>2021-08-14T08:31:34</time></trkpt><trkpt lat="55.8026840" lon="49.1129600"><time>2021-08-14T08:31:35</time></trkpt><trkpt lat="55.8026880" lon="49.1129760"><time>2021-08-14T08:31:36</time></trkpt><trkpt lat="55.8026940" lon="49.1130130"><time>2021-08-14T08:31:37</time></trkpt><trkpt lat="55.8026950" lon="49.1130270"><time>2021-08-14T08:31:38</time></trkpt><trkpt lat="55.8026970" lon="49.1130420"><time>2021-08-14T08:31:39</time></trkpt><trkpt lat="55.8027110" lon="49.1130610"><time>2021-08-14T08:31:40</time></trkpt><trkpt lat="55.8027170" lon="49.1130830"><time>2021-08-14T08:31:41</time></trkpt><trkpt lat="55.8027260" lon="49.1131070"><time>2021-08-14T08:31:42</time></trkpt><trkpt lat="55.8027300" lon="49.1131290"><time>2021-08-14T08:31:43</time></trkpt><trkpt lat="55.8027410" lon="49.1131660"><time>2021-08-14T08:31:44</time></trkpt><trkpt lat="55.8027450" lon="49.1131800"><time>2021-08-14T08:31:45</time></trkpt><trkpt lat="55.8027490" lon="49.1131950"><time>2021-08-14T08:31:46</time></trkpt><trkpt lat="55.8027510" lon="49.1132080"><time>2021-08-14T08:31:47</time></trkpt><trkpt lat="55.8027540" lon="49.1132280"><time>2021-08-14T08:31:48</time></trkpt><trkpt lat="55.8027630" lon="49.1132540"><time>2021-08-14T08:31:49</time></trkpt><trkpt lat="55.8027690" lon="49.1132670"><time>2021-08-14T08:31:50</time></trkpt><trkpt lat="55.8027770" lon="49.1132950"><time>2021-08-14T08:31:51</time></trkpt><trkpt lat="55.8027790" lon="49.1133090"><time>2021-08-14T08:31:52</time></trkpt><trkpt lat="55.8027900" lon="49.1133430"><time>2021-08-14T08:31:53</time></trkpt><trkpt lat="55.8027950" lon="49.1133600"><time>2021-08-14T08:31:54</time></trkpt><trkpt lat="55.8028000" lon="49.1133890"><time>2021-08-14T08:31:55</time></trkpt><trkpt lat="55.8028040" lon="49.1134000"><time>2021-08-14T08:31:56</time></trkpt><trkpt lat="55.8028130" lon="49.1134110"><time>2021-08-14T08:31:57</time></trkpt><trkpt lat="55.8028190" lon="49.1134410"><time>2021-08-14T08:31:58</time></trkpt><trkpt lat="55.8028280" lon="49.1134770"><time>2021-08-14T08:31:59</time></trkpt><trkpt lat="55.8028300" lon="49.1134900"><time>2021-08-14T08:32:00</time></trkpt><trkpt lat="55.8028330" lon="49.1135020"><time>2021-08-14T08:32:01</time></trkpt><trkpt lat="55.8028410" lon="49.1135240"><time>2021-08-14T08:32:02</time></trkpt><trkpt lat="55.8028460" lon="49.1135590"><time>2021-08-14T08:32:03</time></trkpt><trkpt lat="55.8028520" lon="49.1135810"><time>2021-08-14T08:32:04</time></trkpt><trkpt lat="55.8028580" lon="49.1136150"><time>2021-08-14T08:32:05</time></trkpt><trkpt lat="55.8028660" lon="49.1136420"><time>2021-08-14T08:32:06</time></trkpt><trkpt lat="55.8028700" lon="49.1136710"><time>2021-08-14T08:32:07</time></trkpt><trkpt lat="55.8028770" lon="49.1136980"><time>2021-08-14T08:32:08</time></trkpt><trkpt lat="55.8028830" lon="49.1137250"><time>2021-08-14T08:32:09</time></trkpt><trkpt lat="55.8028920" lon="49.1137470"><time>2021-08-14T08:32:10</time></trkpt><trkpt lat="55.8028980" lon="49.1137720"><time>2021-08-14T08:32:11</time></trkpt><trkpt lat="55.8029020" lon="49.1137980"><time>2021-08-14T08:32:12</time></trkpt><trkpt lat="55.8029060" lon="49.1138230"><time>2021-08-14T08:32:13</time></trkpt><trkpt lat="55.8029120" lon="49.1138510"><time>2021-08-14T08:32:14</time></trkpt><trkpt lat="55.8029200" lon="49.1138730"><time>2021-08-14T08:32:15</time></trkpt><trkpt lat="55.8029260" lon="49.1138990"><time>2021-08-14T08:32:16</time></trkpt><trkpt lat="55.8029350" lon="49.1139200"><time>2021-08-14T08:32:17</time></trkpt><trkpt lat="55.8029410" lon="49.1139410"><time>2021-08-14T08:32:18</time></trkpt><trkpt lat="55.8029420" lon="49.1139680"><time>2021-08-14T08:32:19</time></trkpt><trkpt lat="55.8029520" lon="49.1139890"><time>2021-08-14T08:32:20</time></trkpt><trkpt lat="55.8029610" lon="49.1140140"><time>2021-08-14T08:32:21</time></trkpt><trkpt lat="55.8029700" lon="49.1140380"><time>2021-08-14T08:32:22</time></trkpt><trkpt lat="55.8029810" lon="49.1140570"><time>2021-08-14T08:32:23</time></trkpt><trkpt lat="55.8029840" lon="49.1140910"><time>2021-08-14T08:32:24</time></trkpt><trkpt lat="55.8029940" lon="49.1141140"><time>2021-08-14T08:32:25</time></trkpt><trkpt lat="55.8030010" lon="49.1141440"><time>2021-08-14T08:32:26</time></trkpt><trkpt lat="55.8030050" lon="49.1141760"><time>2021-08-14T08:32:27</time></trkpt><trkpt lat="55.8030070" lon="49.1142000"><time>2021-08-14T08:32:28</time></trkpt><trkpt lat="55.8030120" lon="49.1142240"><time>2021-08-14T08:32:29</time></trkpt><trkpt lat="55.8030220" lon="49.1142530"><time>2021-08-14T08:32:30</time></trkpt><trkpt lat="55.8030260" lon="49.1142730"><time>2021-08-14T08:32:31</time></trkpt><trkpt lat="55.8030320" lon="49.1142980"><time>2021-08-14T08:32:32</time></trkpt><trkpt lat="55.8030370" lon="49.1143220"><time>2021-08-14T08:32:33</time></trkpt><trkpt lat="55.8030430" lon="49.1143580"><time>2021-08-14T08:32:34</time></trkpt><trkpt lat="55.8030480" lon="49.1143720"><time>2021-08-14T08:32:35</time></trkpt><trkpt lat="55.8030520" lon="49.1143870"><time>2021-08-14T08:32:36</time></trkpt><trkpt lat="55.8030600" lon="49.1144080"><time>2021-08-14T08:32:37</time></trkpt><trkpt lat="55.8030660" lon="49.1144330"><time>2021-08-14T08:32:38</time></trkpt><trkpt lat="55.8030710" lon="49.1144600"><time>2021-08-14T08:32:39</time></trkpt><trkpt lat="55.8030780" lon="49.1144810"><time>2021-08-14T08:32:40</time></trkpt><trkpt lat="55.8030860" lon="49.1145090"><time>2021-08-14T08:32:41</time></trkpt><trkpt lat="55.8030960" lon="49.1145370"><time>2021-08-14T08:32:42</time></trkpt><trkpt lat="55.8031120" lon="49.1145640"><time>2021-08-14T08:32:43</time></trkpt><trkpt lat="55.8031160" lon="49.1145780"><time>2021-08-14T08:32:44</time></trkpt><trkpt lat="55.8031210" lon="49.1145910"><time>2021-08-14T08:32:45</time></trkpt><trkpt lat="55.8031240" lon="49.1146150"><time>2021-08-14T08:32:46</time></trkpt><trkpt lat="55.8031290" lon="49.1146400"><time>2021-08-14T08:32:47</time></trkpt><trkpt lat="55.8031380" lon="49.1146650"><time>2021-08-14T08:32:48</time></trkpt><trkpt lat="55.8031420" lon="49.1146870"><time>2021-08-14T08:32:49</time></trkpt><trkpt lat="55.8031480" lon="49.1147060"><time>2021-08-14T08:32:50</time></trkpt><trkpt lat="55.8031540" lon="49.1147350"><time>2021-08-14T08:32:51</time></trkpt><trkpt lat="55.8031600" lon="49.1147630"><time>2021-08-14T08:32:52</time></trkpt><trkpt lat="55.8031650" lon="49.1147860"><time>2021-08-14T08:32:53</time></trkpt><trkpt lat="55.8031750" lon="49.1148080"><time>2021-08-14T08:32:54</time></trkpt><trkpt lat="55.8031820" lon="49.1148280"><time>2021-08-14T08:32:55</time></trkpt><trkpt lat="55.8031920" lon="49.1148620"><time>2021-08-14T08:32:56</time></trkpt><trkpt lat="55.8031950" lon="49.1148780"><time>2021-08-14T08:32:57</time></trkpt><trkpt lat="55.8031980" lon="49.1148930"><time>2021-08-14T08:32:58</time></trkpt><trkpt lat="55.8032020" lon="49.1149160"><time>2021-08-14T08:32:59</time></trkpt><trkpt lat="55.8032100" lon="49.1149400"><time>2021-08-14T08:33:00</time></trkpt><trkpt lat="55.8032150" lon="49.1149630"><time>2021-08-14T08:33:01</time></trkpt><trkpt lat="55.8032200" lon="49.1149880"><time>2021-08-14T08:33:02</time></trkpt><trkpt lat="55.8032260" lon="49.1150080"><time>2021-08-14T08:33:03</time></trkpt><trkpt lat="55.8032320" lon="49.1150340"><time>2021-08-14T08:33:04</time></trkpt><trkpt lat="55.8032390" lon="49.1150580"><time>2021-08-14T08:33:05</time></trkpt><trkpt lat="55.8032460" lon="49.1150800"><time>2021-08-14T08:33:06</time></trkpt><trkpt lat="55.8032530" lon="49.1151170"><time>2021-08-14T08:33:07</time></trkpt><trkpt lat="55.8032570" lon="49.1151310"><time>2021-08-14T08:33:08</time></trkpt><trkpt lat="55.8032610" lon="49.1151460"><time>2021-08-14T08:33:09</time></trkpt><trkpt lat="55.8032600" lon="49.1151730"><time>2021-08-14T08:33:10</time></trkpt><trkpt lat="55.8032690" lon="49.1151950"><time>2021-08-14T08:33:11</time></trkpt><trkpt lat="55.8032730" lon="49.1152100"><time>2021-08-14T08:33:12</time></trkpt><trkpt lat="55.8032780" lon="49.1152430"><time>2021-08-14T08:33:13</time></trkpt><trkpt lat="55.8032920" lon="49.1152860"><time>2021-08-14T08:33:14</time></trkpt><trkpt lat="55.8032960" lon="49.1153010"><time>2021-08-14T08:33:15</time></trkpt><trkpt lat="55.8033060" lon="49.1153210"><time>2021-08-14T08:33:16</time></trkpt><trkpt lat="55.8033100" lon="49.1153470"><time>2021-08-14T08:33:17</time></trkpt><trkpt lat="55.8033130" lon="49.1153680"><time>2021-08-14T08:33:18</time></trkpt><trkpt lat="55.8033180" lon="49.1153940"><time>2021-08-14T08:33:19</time></trkpt><trkpt lat="55.8033230" lon="49.1154220"><time>2021-08-14T08:33:20</time></trkpt><trkpt lat="55.8033290" lon="49.1154470"><time>2021-08-14T08:33:21</time></trkpt><trkpt lat="55.8033350" lon="49.1154730"><time>2021-08-14T08:33:22</time></trkpt><trkpt lat="55.8033400" lon="49.1154960"><time>2021-08-14T08:33:23</time></trkpt><trkpt lat="55.8033490" lon="49.1155320"><time>2021-08-14T08:33:24</time></trkpt><trkpt lat="55.8033530" lon="49.1155460"><time>2021-08-14T08:33:25</time></trkpt><trkpt lat="55.8033570" lon="49.1155610"><time>2021-08-14T08:33:26</time></trkpt><trkpt lat="55.8033720" lon="49.1155870"><time>2021-08-14T08:33:27</time></trkpt><trkpt lat="55.8033780" lon="49.1156000"><time>2021-08-14T08:33:28</time></trkpt><trkpt lat="55.8033830" lon="49.1156120"><time>2021-08-14T08:33:29</time></trkpt><trkpt lat="55.8033940" lon="49.1156610"><time>2021-08-14T08:33:30</time></trkpt><trkpt lat="55.8033950" lon="49.1156740"><time>2021-08-14T08:33:31</time></trkpt><trkpt lat="55.8034100" lon="49.1157200"><time>2021-08-14T08:33:32</time></trkpt><trkpt lat="55.8034150" lon="49.1157350"><time>2021-08-14T08:33:33</time></trkpt><trkpt lat="55.8034230" lon="49.1157640"><time>2021-08-14T08:33:34</time></trkpt><trkpt lat="55.8034270" lon="49.1157920"><time>2021-08-14T08:33:35</time></trkpt><trkpt lat="55.8034330" lon="49.1158240"><time>2021-08-14T08:33:36</time></trkpt><trkpt lat="55.8034410" lon="49.1158420"><time>2021-08-14T08:33:37</time></trkpt><trkpt lat="55.8034500" lon="49.1158630"><time>2021-08-14T08:33:38</time></trkpt><trkpt lat="55.8034580" lon="49.1158830"><time>2021-08-14T08:33:39</time></trkpt><trkpt lat="55.8034640" lon="49.1159070"><time>2021-08-14T08:33:40</time></trkpt><trkpt lat="55.8034710" lon="49.1159290"><time>2021-08-14T08:33:41</time></trkpt><trkpt lat="55.8034780" lon="49.1159500"><time>2021-08-14T08:33:42</time></trkpt><trkpt lat="55.8034880" lon="49.1159710"><time>2021-08-14T08:33:43</time></trkpt><trkpt lat="55.8034930" lon="49.1159950"><time>2021-08-14T08:33:44</time></trkpt><trkpt lat="55.8034980" lon="49.1160190"><time>2021-08-14T08:33:45</time></trkpt><trkpt lat="55.8035060" lon="49.1160400"><time>2021-08-14T08:33:46</time></trkpt><trkpt lat="55.8035130" lon="49.1160640"><time>2021-08-14T08:33:47</time></trkpt><trkpt lat="55.8035220" lon="49.1160860"><time>2021-08-14T08:33:48</time></trkpt><trkpt lat="55.8035250" lon="49.1161080"><time>2021-08-14T08:33:49</time></trkpt><trkpt lat="55.8035300" lon="49.1161310"><time>2021-08-14T08:33:50</time></trkpt><trkpt lat="55.8035340" lon="49.1161540"><time>2021-08-14T08:33:51</time></trkpt><trkpt lat="55.8035420" lon="49.1161770"><time>2021-08-14T08:33:52</time></trkpt><trkpt lat="55.8035540" lon="49.1161980"><time>2021-08-14T08:33:53</time></trkpt><trkpt lat="55.8035600" lon="49.1162260"><time>2021-08-14T08:33:54</time></trkpt><trkpt lat="55.8035640" lon="49.1162510"><time>2021-08-14T08:33:55</time></trkpt><trkpt lat="55.8035650" lon="49.1162750"><time>2021-08-14T08:33:56</time></trkpt><trkpt lat="55.8035750" lon="49.1163000"><time>2021-08-14T08:33:57</time></trkpt><trkpt lat="55.8035830" lon="49.1163220"><time>2021-08-14T08:33:58</time></trkpt><trkpt lat="55.8035880" lon="49.1163480"><time>2021-08-14T08:33:59</time></trkpt><trkpt lat="55.8035950" lon="49.1163720"><time>2021-08-14T08:34:00</time></trkpt><trkpt lat="55.8036020" lon="49.1163970"><time>2021-08-14T08:34:01</time></trkpt><trkpt lat="55.8036080" lon="49.1164230"><time>2021-08-14T08:34:02</time></trkpt><trkpt lat="55.8036120" lon="49.1164470"><time>2021-08-14T08:34:03</time></trkpt><trkpt lat="55.8036170" lon="49.1164690"><time>2021-08-14T08:34:04</time></trkpt><trkpt lat="55.8036200" lon="49.1164950"><time>2021-08-14T08:34:05</time></trkpt><trkpt lat="55.8036310" lon="49.1165150"><time>2021-08-14T08:34:06</time></trkpt><trkpt lat="55.8036380" lon="49.1165330"><time>2021-08-14T08:34:07</time></trkpt><trkpt lat="55.8036580" lon="49.1165550"><time>2021-08-14T08:34:08</time></trkpt><trkpt lat="55.8036670" lon="49.1165580"><time>2021-08-14T08:34:09</time></trkpt><trkpt lat="55.8036770" lon="49.1165610"><time>2021-08-14T08:34:10</time></trkpt><trkpt lat="55.8036930" lon="49.1165510"><time>2021-08-14T08:34:11</time></trkpt><trkpt lat="55.8037040" lon="49.1165450"><time>2021-08-14T08:34:12</time></trkpt><trkpt lat="55.8037160" lon="49.1165500"><time>2021-08-14T08:34:13</time></trkpt><trkpt lat="55.8037120" lon="49.1165550"><time>2021-08-14T08:34:14</time></trkpt><trkpt lat="55.8037110" lon="49.1165600"><time>2021-08-14T08:34:15</time></trkpt><trkpt lat="55.8037070" lon="49.1165630"><time>2021-08-14T08:34:16</time></trkpt><trkpt lat="55.8037000" lon="49.1165700"><time>2021-08-14T08:34:17</time></trkpt><trkpt lat="55.8036980" lon="49.1165870"><time>2021-08-14T08:34:18</time></trkpt><trkpt lat="55.8036930" lon="49.1165950"><time>2021-08-14T08:34:19</time></trkpt><trkpt lat="55.8036820" lon="49.1166460"><time>2021-08-14T08:34:20</time></trkpt><trkpt lat="55.8036810" lon="49.1166770"><time>2021-08-14T08:34:21</time></trkpt><trkpt lat="55.8036800" lon="49.1167070"><time>2021-08-14T08:34:22</time></trkpt><trkpt lat="55.8036820" lon="49.1167260"><time>2021-08-14T08:34:23</time></trkpt><trkpt lat="55.8036830" lon="49.1167330"><time>2021-08-14T08:34:24</time></trkpt><trkpt lat="55.8036840" lon="49.1167390"><time>2021-08-14T08:34:25</time></trkpt><trkpt lat="55.8036850" lon="49.1167460"><time>2021-08-14T08:34:26</time></trkpt><trkpt lat="55.8036860" lon="49.1167520"><time>2021-08-14T08:34:27</time></trkpt><trkpt lat="55.8036870" lon="49.1167590"><time>2021-08-14T08:34:28</time></trkpt><trkpt lat="55.8036880" lon="49.1167650"><time>2021-08-14T08:34:29</time></trkpt><trkpt lat="55.8036890" lon="49.1167720"><time>2021-08-14T08:34:30</time></trkpt><trkpt lat="55.8036800" lon="49.1168090"><time>2021-08-14T08:34:31</time></trkpt><trkpt lat="55.8036840" lon="49.1168290"><time>2021-08-14T08:34:32</time></trkpt><trkpt lat="55.8036900" lon="49.1168560"><time>2021-08-14T08:34:33</time></trkpt><trkpt lat="55.8036920" lon="49.1168700"><time>2021-08-14T08:34:34</time></trkpt><trkpt lat="55.8036950" lon="49.1168830"><time>2021-08-14T08:34:35</time></trkpt><trkpt lat="55.8036970" lon="49.1168970"><time>2021-08-14T08:34:36</time></trkpt><trkpt lat="55.8037010" lon="49.1169150"><time>2021-08-14T08:34:37</time></trkpt><trkpt lat="55.8037030" lon="49.1169460"><time>2021-08-14T08:34:38</time></trkpt><trkpt lat="55.8037120" lon="49.1169720"><time>2021-08-14T08:34:39</time></trkpt><trkpt lat="55.8037160" lon="49.1169850"><time>2021-08-14T08:34:40</time></trkpt><trkpt lat="55.8037190" lon="49.1169990"><time>2021-08-14T08:34:41</time></trkpt><trkpt lat="55.8037280" lon="49.1170140"><time>2021-08-14T08:34:42</time></trkpt><trkpt lat="55.8037320" lon="49.1170340"><time>2021-08-14T08:34:43</time></trkpt><trkpt lat="55.8037340" lon="49.1170450"><time>2021-08-14T08:34:44</time></trkpt><trkpt lat="55.8037260" lon="49.1170430"><time>2021-08-14T08:34:45</time></trkpt><trkpt lat="55.8037240" lon="49.1170410"><time>2021-08-14T08:34:46</time></trkpt><trkpt lat="55.8037250" lon="49.1170440"><time>2021-08-14T08:34:47</time></trkpt><trkpt lat="55.8037300" lon="49.1170550"><time>2021-08-14T08:34:48</time></trkpt><trkpt lat="55.8037350" lon="49.1170710"><time>2021-08-14T08:34:49</time></trkpt><trkpt lat="55.8037400" lon="49.1170870"><time>2021-08-14T08:34:50</time></trkpt><trkpt lat="55.8037440" lon="49.1171020"><time>2021-08-14T08:34:51</time></trkpt><trkpt lat="55.8037490" lon="49.1171320"><time>2021-08-14T08:34:52</time></trkpt><trkpt lat="55.8037510" lon="49.1171320"><time>2021-08-14T08:34:53</time></trkpt><trkpt lat="55.8037480" lon="49.1171120"><time>2021-08-14T08:34:54</time></trkpt><trkpt lat="55.8037530" lon="49.1171160"><time>2021-08-14T08:34:55</time></trkpt><trkpt lat="55.8037650" lon="49.1171500"><time>2021-08-14T08:34:56</time></trkpt><trkpt lat="55.8037750" lon="49.1171740"><time>2021-08-14T08:34:57</time></trkpt><trkpt lat="55.8037790" lon="49.1172070"><time>2021-08-14T08:34:58</time></trkpt><trkpt lat="55.8037840" lon="49.1172270"><time>2021-08-14T08:34:59</time></trkpt><trkpt lat="55.8037880" lon="49.1172530"><time>2021-08-14T08:35:00</time></trkpt><trkpt lat="55.8037910" lon="49.1172710"><time>2021-08-14T08:35:01</time></trkpt><trkpt lat="55.8037920" lon="49.1172900"><time>2021-08-14T08:35:02</time></trkpt><trkpt lat="55.8037980" lon="49.1173080"><time>2021-08-14T08:35:03</time></trkpt><trkpt lat="55.8038000" lon="49.1173350"><time>2021-08-14T08:35:04</time></trkpt><trkpt lat="55.8038050" lon="49.1173550"><time>2021-08-14T08:35:05</time></trkpt><trkpt lat="55.8038160" lon="49.1173820"><time>2021-08-14T08:35:06</time></trkpt><trkpt lat="55.8038200" lon="49.1174030"><time>2021-08-14T08:35:07</time></trkpt><trkpt lat="55.8038240" lon="49.1174240"><time>2021-08-14T08:35:08</time></trkpt><trkpt lat="55.8038290" lon="49.1174490"><time>2021-08-14T08:35:09</time></trkpt><trkpt lat="55.8038360" lon="49.1174700"><time>2021-08-14T08:35:10</time></trkpt><trkpt lat="55.8038360" lon="49.1174750"><time>2021-08-14T08:35:11</time></trkpt><trkpt lat="55.8038450" lon="49.1175070"><time>2021-08-14T08:35:12</time></trkpt><trkpt lat="55.8038510" lon="49.1175170"><time>2021-08-14T08:35:13</time></trkpt><trkpt lat="55.8038550" lon="49.1175180"><time>2021-08-14T08:35:14</time></trkpt><trkpt lat="55.8038600" lon="49.1175200"><time>2021-08-14T08:35:15</time></trkpt><trkpt lat="55.8038590" lon="49.1175330"><time>2021-08-14T08:35:16</time></trkpt><trkpt lat="55.8038580" lon="49.1175490"><time>2021-08-14T08:35:17</time></trkpt><trkpt lat="55.8038620" lon="49.1175670"><time>2021-08-14T08:35:18</time></trkpt><trkpt lat="55.8038750" lon="49.1176310"><time>2021-08-14T08:35:19</time></trkpt><trkpt lat="55.8038820" lon="49.1176830"><time>2021-08-14T08:35:20</time></trkpt><trkpt lat="55.8038810" lon="49.1177040"><time>2021-08-14T08:35:21</time></trkpt><trkpt lat="55.8038930" lon="49.1177690"><time>2021-08-14T08:35:22</time></trkpt><trkpt lat="55.8039030" lon="49.1177890"><time>2021-08-14T08:35:23</time></trkpt><trkpt lat="55.8039210" lon="49.1178410"><time>2021-08-14T08:35:24</time></trkpt><trkpt lat="55.8039230" lon="49.1178550"><time>2021-08-14T08:35:25</time></trkpt><trkpt lat="55.8039280" lon="49.1178810"><time>2021-08-14T08:35:26</time></trkpt><trkpt lat="55.8039310" lon="49.1179070"><time>2021-08-14T08:35:27</time></trkpt><trkpt lat="55.8039340" lon="49.1179430"><time>2021-08-14T08:35:28</time></trkpt><trkpt lat="55.8039370" lon="49.1179600"><time>2021-08-14T08:35:29</time></trkpt><trkpt lat="55.8039390" lon="49.1179770"><time>2021-08-14T08:35:30</time></trkpt><trkpt lat="55.8039430" lon="49.1180000"><time>2021-08-14T08:35:31</time></trkpt><trkpt lat="55.8039460" lon="49.1180240"><time>2021-08-14T08:35:32</time></trkpt><trkpt lat="55.8039520" lon="49.1180490"><time>2021-08-14T08:35:33</time></trkpt><trkpt lat="55.8039550" lon="49.1180760"><time>2021-08-14T08:35:34</time></trkpt><trkpt lat="55.8039600" lon="49.1180990"><time>2021-08-14T08:35:35</time></trkpt><trkpt lat="55.8039630" lon="49.1181230"><time>2021-08-14T08:35:36</time></trkpt><trkpt lat="55.8039740" lon="49.1181420"><time>2021-08-14T08:35:37</time></trkpt><trkpt lat="55.8039790" lon="49.1181630"><time>2021-08-14T08:35:38</time></trkpt><trkpt lat="55.8039830" lon="49.1181890"><time>2021-08-14T08:35:39</time></trkpt><trkpt lat="55.8039910" lon="49.1182100"><time>2021-08-14T08:35:40</time></trkpt><trkpt lat="55.8039960" lon="49.1182390"><time>2021-08-14T08:35:41</time></trkpt><trkpt lat="55.8039890" lon="49.1182750"><time>2021-08-14T08:35:42</time></trkpt><trkpt lat="55.8040010" lon="49.1183020"><time>2021-08-14T08:35:43</time></trkpt><trkpt lat="55.8040020" lon="49.1183280"><time>2021-08-14T08:35:44</time></trkpt><trkpt lat="55.8040050" lon="49.1183560"><time>2021-08-14T08:35:45</time></trkpt><trkpt lat="55.8040120" lon="49.1183840"><time>2021-08-14T08:35:46</time></trkpt><trkpt lat="55.8040170" lon="49.1184120"><time>2021-08-14T08:35:47</time></trkpt><trkpt lat="55.8040170" lon="49.1184420"><time>2021-08-14T08:35:48</time></trkpt><trkpt lat="55.8040170" lon="49.1184700"><time>2021-08-14T08:35:49</time></trkpt><trkpt lat="55.8040240" lon="49.1184900"><time>2021-08-14T08:35:50</time></trkpt><trkpt lat="55.8040360" lon="49.1185090"><time>2021-08-14T08:35:51</time></trkpt><trkpt lat="55.8040440" lon="49.1185340"><time>2021-08-14T08:35:52</time></trkpt><trkpt lat="55.8040450" lon="49.1185630"><time>2021-08-14T08:35:53</time></trkpt><trkpt lat="55.8040480" lon="49.1185930"><time>2021-08-14T08:35:54</time></trkpt><trkpt lat="55.8040500" lon="49.1186190"><time>2021-08-14T08:35:55</time></trkpt><trkpt lat="55.8040580" lon="49.1186450"><time>2021-08-14T08:35:56</time></trkpt><trkpt lat="55.8040630" lon="49.1186740"><time>2021-08-14T08:35:57</time></trkpt><trkpt lat="55.8040660" lon="49.1186970"><time>2021-08-14T08:35:58</time></trkpt><trkpt lat="55.8040670" lon="49.1187290"><time>2021-08-14T08:35:59</time></trkpt><trkpt lat="55.8040720" lon="49.1187510"><time>2021-08-14T08:36:00</time></trkpt><trkpt lat="55.8040730" lon="49.1187780"><time>2021-08-14T08:36:01</time></trkpt><trkpt lat="55.8040770" lon="49.1188090"><time>2021-08-14T08:36:02</time></trkpt><trkpt lat="55.8040810" lon="49.1188380"><time>2021-08-14T08:36:03</time></trkpt><trkpt lat="55.8040820" lon="49.1188710"><time>2021-08-14T08:36:04</time></trkpt><trkpt lat="55.8040900" lon="49.1188950"><time>2021-08-14T08:36:05</time></trkpt><trkpt lat="55.8040940" lon="49.1189260"><time>2021-08-14T08:36:06</time></trkpt><trkpt lat="55.8041000" lon="49.1189530"><time>2021-08-14T08:36:07</time></trkpt><trkpt lat="55.8041080" lon="49.1189750"><time>2021-08-14T08:36:08</time></trkpt><trkpt lat="55.8041160" lon="49.1190090"><time>2021-08-14T08:36:09</time></trkpt><trkpt lat="55.8041160" lon="49.1190280"><time>2021-08-14T08:36:10</time></trkpt><trkpt lat="55.8041150" lon="49.1190470"><time>2021-08-14T08:36:11</time></trkpt><trkpt lat="55.8041140" lon="49.1190760"><time>2021-08-14T08:36:12</time></trkpt><trkpt lat="55.8041130" lon="49.1191070"><time>2021-08-14T08:36:13</time></trkpt><trkpt lat="55.8041100" lon="49.1191390"><time>2021-08-14T08:36:14</time></trkpt><trkpt lat="55.8041090" lon="49.1191700"><time>2021-08-14T08:36:15</time></trkpt><trkpt lat="55.8041080" lon="49.1192000"><time>2021-08-14T08:36:16</time></trkpt><trkpt lat="55.8041080" lon="49.1192250"><time>2021-08-14T08:36:17</time></trkpt><trkpt lat="55.8041080" lon="49.1192650"><time>2021-08-14T08:36:18</time></trkpt><trkpt lat="55.8041080" lon="49.1192820"><time>2021-08-14T08:36:19</time></trkpt><trkpt lat="55.8041090" lon="49.1192980"><time>2021-08-14T08:36:20</time></trkpt><trkpt lat="55.8041130" lon="49.1193240"><time>2021-08-14T08:36:21</time></trkpt><trkpt lat="55.8041260" lon="49.1193490"><time>2021-08-14T08:36:22</time></trkpt><trkpt lat="55.8041340" lon="49.1193680"><time>2021-08-14T08:36:23</time></trkpt><trkpt lat="55.8041360" lon="49.1193990"><time>2021-08-14T08:36:24</time></trkpt><trkpt lat="55.8041390" lon="49.1194270"><time>2021-08-14T08:36:25</time></trkpt><trkpt lat="55.8041270" lon="49.1194570"><time>2021-08-14T08:36:26</time></trkpt><trkpt lat="55.8041250" lon="49.1195040"><time>2021-08-14T08:36:27</time></trkpt><trkpt lat="55.8041250" lon="49.1195220"><time>2021-08-14T08:36:28</time></trkpt><trkpt lat="55.8041150" lon="49.1195700"><time>2021-08-14T08:36:29</time></trkpt><trkpt lat="55.8041160" lon="49.1195860"><time>2021-08-14T08:36:30</time></trkpt><trkpt lat="55.8041030" lon="49.1196070"><time>2021-08-14T08:36:31</time></trkpt><trkpt lat="55.8041010" lon="49.1196390"><time>2021-08-14T08:36:32</time></trkpt><trkpt lat="55.8040970" lon="49.1196610"><time>2021-08-14T08:36:33</time></trkpt><trkpt lat="55.8040970" lon="49.1196930"><time>2021-08-14T08:36:34</time></trkpt><trkpt lat="55.8041020" lon="49.1197190"><time>2021-08-14T08:36:35</time></trkpt><trkpt lat="55.8041030" lon="49.1197450"><time>2021-08-14T08:36:36</time></trkpt><trkpt lat="55.8041040" lon="49.1197700"><time>2021-08-14T08:36:37</time></trkpt><trkpt lat="55.8041040" lon="49.1197980"><time>2021-08-14T08:36:38</time></trkpt><trkpt lat="55.8041010" lon="49.1198250"><time>2021-08-14T08:36:39</time></trkpt><trkpt lat="55.8041000" lon="49.1198490"><time>2021-08-14T08:36:40</time></trkpt><trkpt lat="55.8040970" lon="49.1198760"><time>2021-08-14T08:36:41</time></trkpt><trkpt lat="55.8040920" lon="49.1199010"><time>2021-08-14T08:36:42</time></trkpt><trkpt lat="55.8040910" lon="49.1199400"><time>2021-08-14T08:36:43</time></trkpt><trkpt lat="55.8040910" lon="49.1199540"><time>2021-08-14T08:36:44</time></trkpt><trkpt lat="55.8040910" lon="49.1199690"><time>2021-08-14T08:36:45</time></trkpt><trkpt lat="55.8040870" lon="49.1199940"><time>2021-08-14T08:36:46</time></trkpt><trkpt lat="55.8040850" lon="49.1200170"><time>2021-08-14T08:36:47</time></trkpt><trkpt lat="55.8040840" lon="49.1200410"><time>2021-08-14T08:36:48</time></trkpt><trkpt lat="55.8040780" lon="49.1200650"><time>2021-08-14T08:36:49</time></trkpt><trkpt lat="55.8040800" lon="49.1201170"><time>2021-08-14T08:36:50</time></trkpt><trkpt lat="55.8040790" lon="49.1201330"><time>2021-08-14T08:36:51</time></trkpt><trkpt lat="55.8040760" lon="49.1201550"><time>2021-08-14T08:36:52</time></trkpt><trkpt lat="55.8040730" lon="49.1201820"><time>2021-08-14T08:36:53</time></trkpt><trkpt lat="55.8040630" lon="49.1202070"><time>2021-08-14T08:36:54</time></trkpt><trkpt lat="55.8040630" lon="49.1202380"><time>2021-08-14T08:36:55</time></trkpt><trkpt lat="55.8040630" lon="49.1202650"><time>2021-08-14T08:36:56</time></trkpt><trkpt lat="55.8040690" lon="49.1202890"><time>2021-08-14T08:36:57</time></trkpt><trkpt lat="55.8040730" lon="49.1203110"><time>2021-08-14T08:36:58</time></trkpt><trkpt lat="55.8040710" lon="49.1203410"><time>2021-08-14T08:36:59</time></trkpt><trkpt lat="55.8040660" lon="49.1203710"><time>2021-08-14T08:37:00</time></trkpt><trkpt lat="55.8040640" lon="49.1203990"><time>2021-08-14T08:37:01</time></trkpt><trkpt lat="55.8040570" lon="49.1204220"><time>2021-08-14T08:37:02</time></trkpt><trkpt lat="55.8040570" lon="49.1204500"><time>2021-08-14T08:37:03</time></trkpt><trkpt lat="55.8040630" lon="49.1204790"><time>2021-08-14T08:37:04</time></trkpt><trkpt lat="55.8040670" lon="49.1205060"><time>2021-08-14T08:37:05</time></trkpt><trkpt lat="55.8040650" lon="49.1205260"><time>2021-08-14T08:37:06</time></trkpt><trkpt lat="55.8040650" lon="49.1205480"><time>2021-08-14T08:37:07</time></trkpt><trkpt lat="55.8040660" lon="49.1205670"><time>2021-08-14T08:37:08</time></trkpt><trkpt lat="55.8040650" lon="49.1205930"><time>2021-08-14T08:37:09</time></trkpt><trkpt lat="55.8040630" lon="49.1206200"><time>2021-08-14T08:37:10</time></trkpt><trkpt lat="55.8040710" lon="49.1206500"><time>2021-08-14T08:37:11</time></trkpt><trkpt lat="55.8040640" lon="49.1206790"><time>2021-08-14T08:37:12</time></trkpt><trkpt lat="55.8040640" lon="49.1207060"><time>2021-08-14T08:37:13</time></trkpt><trkpt lat="55.8040620" lon="49.1207380"><time>2021-08-14T08:37:14</time></trkpt><trkpt lat="55.8040600" lon="49.1207660"><time>2021-08-14T08:37:15</time></trkpt><trkpt lat="55.8040510" lon="49.1207910"><time>2021-08-14T08:37:16</time></trkpt><trkpt lat="55.8040440" lon="49.1208180"><time>2021-08-14T08:37:17</time></trkpt><trkpt lat="55.8040430" lon="49.1208450"><time>2021-08-14T08:37:18</time></trkpt><trkpt lat="55.8040500" lon="49.1208790"><time>2021-08-14T08:37:19</time></trkpt><trkpt lat="55.8040470" lon="49.1209060"><time>2021-08-14T08:37:20</time></trkpt><trkpt lat="55.8040410" lon="49.1209350"><time>2021-08-14T08:37:21</time></trkpt><trkpt lat="55.8040380" lon="49.1209620"><time>2021-08-14T08:37:22</time></trkpt><trkpt lat="55.8040290" lon="49.1209980"><time>2021-08-14T08:37:23</time></trkpt><trkpt lat="55.8040270" lon="49.1210210"><time>2021-08-14T08:37:24</time></trkpt><trkpt lat="55.8040230" lon="49.1210500"><time>2021-08-14T08:37:25</time></trkpt><trkpt lat="55.8040270" lon="49.1210720"><time>2021-08-14T08:37:26</time></trkpt><trkpt lat="55.8040280" lon="49.1210980"><time>2021-08-14T08:37:27</time></trkpt><trkpt lat="55.8040320" lon="49.1211230"><time>2021-08-14T08:37:28</time></trkpt><trkpt lat="55.8040370" lon="49.1211490"><time>2021-08-14T08:37:29</time></trkpt><trkpt lat="55.8040440" lon="49.1211710"><time>2021-08-14T08:37:30</time></trkpt><trkpt lat="55.8040520" lon="49.1211920"><time>2021-08-14T08:37:31</time></trkpt><trkpt lat="55.8040700" lon="49.1212090"><time>2021-08-14T08:37:32</time></trkpt><trkpt lat="55.8040820" lon="49.1212280"><time>2021-08-14T08:37:33</time></trkpt><trkpt lat="55.8040810" lon="49.1212560"><time>2021-08-14T08:37:34</time></trkpt><trkpt lat="55.8040800" lon="49.1212870"><time>2021-08-14T08:37:35</time></trkpt><trkpt lat="55.8040730" lon="49.1213080"><time>2021-08-14T08:37:36</time></trkpt><trkpt lat="55.8040660" lon="49.1213280"><time>2021-08-14T08:37:37</time></trkpt><trkpt lat="55.8040620" lon="49.1213750"><time>2021-08-14T08:37:38</time></trkpt><trkpt lat="55.8040390" lon="49.1214210"><time>2021-08-14T08:37:39</time></trkpt><trkpt lat="55.8040360" lon="49.1214420"><time>2021-08-14T08:37:40</time></trkpt><trkpt lat="55.8040370" lon="49.1214740"><time>2021-08-14T08:37:41</time></trkpt><trkpt lat="55.8040340" lon="49.1214980"><time>2021-08-14T08:37:42</time></trkpt><trkpt lat="55.8040350" lon="49.1215220"><time>2021-08-14T08:37:43</time></trkpt><trkpt lat="55.8040290" lon="49.1215480"><time>2021-08-14T08:37:44</time></trkpt><trkpt lat="55.8040210" lon="49.1215740"><time>2021-08-14T08:37:45</time></trkpt><trkpt lat="55.8040120" lon="49.1215990"><time>2021-08-14T08:37:46</time></trkpt><trkpt lat="55.8040100" lon="49.1216240"><time>2021-08-14T08:37:47</time></trkpt><trkpt lat="55.8040110" lon="49.1216560"><time>2021-08-14T08:37:48</time></trkpt><trkpt lat="55.8040120" lon="49.1216840"><time>2021-08-14T08:37:49</time></trkpt><trkpt lat="55.8040120" lon="49.1217090"><time>2021-08-14T08:37:50</time></trkpt><trkpt lat="55.8040190" lon="49.1217300"><time>2021-08-14T08:37:51</time></trkpt><trkpt lat="55.8040160" lon="49.1217590"><time>2021-08-14T08:37:52</time></trkpt><trkpt lat="55.8040070" lon="49.1217850"><time>2021-08-14T08:37:53</time></trkpt><trkpt lat="55.8040020" lon="49.1218060"><time>2021-08-14T08:37:54</time></trkpt><trkpt lat="55.8039960" lon="49.1218310"><time>2021-08-14T08:37:55</time></trkpt><trkpt lat="55.8039940" lon="49.1218610"><time>2021-08-14T08:37:56</time></trkpt><trkpt lat="55.8039910" lon="49.1218890"><time>2021-08-14T08:37:57</time></trkpt><trkpt lat="55.8039870" lon="49.1219080"><time>2021-08-14T08:37:58</time></trkpt><trkpt lat="55.8039860" lon="49.1219350"><time>2021-08-14T08:37:59</time></trkpt><trkpt lat="55.8039870" lon="49.1219700"><time>2021-08-14T08:38:00</time></trkpt><trkpt lat="55.8039910" lon="49.1219990"><time>2021-08-14T08:38:01</time></trkpt><trkpt lat="55.8039890" lon="49.1220240"><time>2021-08-14T08:38:02</time></trkpt><trkpt lat="55.8039880" lon="49.1220530"><time>2021-08-14T08:38:03</time></trkpt><trkpt lat="55.8039890" lon="49.1220810"><time>2021-08-14T08:38:04</time></trkpt><trkpt lat="55.8039880" lon="49.1221110"><time>2021-08-14T08:38:05</time></trkpt><trkpt lat="55.8039900" lon="49.1221410"><time>2021-08-14T08:38:06</time></trkpt><trkpt lat="55.8039960" lon="49.1221720"><time>2021-08-14T08:38:07</time></trkpt><trkpt lat="55.8039890" lon="49.1222030"><time>2021-08-14T08:38:08</time></trkpt><trkpt lat="55.8039880" lon="49.1222290"><time>2021-08-14T08:38:09</time></trkpt><trkpt lat="55.8039850" lon="49.1222590"><time>2021-08-14T08:38:10</time></trkpt><trkpt lat="55.8039800" lon="49.1222950"><time>2021-08-14T08:38:11</time></trkpt><trkpt lat="55.8039790" lon="49.1223120"><time>2021-08-14T08:38:12</time></trkpt><trkpt lat="55.8039780" lon="49.1223280"><time>2021-08-14T08:38:13</time></trkpt><trkpt lat="55.8039790" lon="49.1223540"><time>2021-08-14T08:38:14</time></trkpt><trkpt lat="55.8039770" lon="49.1223810"><time>2021-08-14T08:38:15</time></trkpt><trkpt lat="55.8039770" lon="49.1224180"><time>2021-08-14T08:38:16</time></trkpt><trkpt lat="55.8039760" lon="49.1224340"><time>2021-08-14T08:38:17</time></trkpt><trkpt lat="55.8039750" lon="49.1224490"><time>2021-08-14T08:38:18</time></trkpt><trkpt lat="55.8039710" lon="49.1224910"><time>2021-08-14T08:38:19</time></trkpt><trkpt lat="55.8039690" lon="49.1225090"><time>2021-08-14T08:38:20</time></trkpt><trkpt lat="55.8039680" lon="49.1225270"><time>2021-08-14T08:38:21</time></trkpt><trkpt lat="55.8039650" lon="49.1225540"><time>2021-08-14T08:38:22</time></trkpt><trkpt lat="55.8039660" lon="49.1225820"><time>2021-08-14T08:38:23</time></trkpt><trkpt lat="55.8039650" lon="49.1226120"><time>2021-08-14T08:38:24</time></trkpt><trkpt lat="55.8039680" lon="49.1226380"><time>2021-08-14T08:38:25</time></trkpt><trkpt lat="55.8039570" lon="49.1226710"><time>2021-08-14T08:38:26</time></trkpt><trkpt lat="55.8039590" lon="49.1226970"><time>2021-08-14T08:38:27</time></trkpt><trkpt lat="55.8039590" lon="49.1227280"><time>2021-08-14T08:38:28</time></trkpt><trkpt lat="55.8039540" lon="49.1227590"><time>2021-08-14T08:38:29</time></trkpt><trkpt lat="55.8039520" lon="49.1227850"><time>2021-08-14T08:38:30</time></trkpt><trkpt lat="55.8039500" lon="49.1228130"><time>2021-08-14T08:38:31</time></trkpt><trkpt lat="55.8039480" lon="49.1228410"><time>2021-08-14T08:38:32</time></trkpt><trkpt lat="55.8039480" lon="49.1228670"><time>2021-08-14T08:38:33</time></trkpt><trkpt lat="55.8039470" lon="49.1228920"><time>2021-08-14T08:38:34</time></trkpt><trkpt lat="55.8039500" lon="49.1229200"><time>2021-08-14T08:38:35</time></trkpt><trkpt lat="55.8039480" lon="49.1229400"><time>2021-08-14T08:38:36</time></trkpt><trkpt lat="55.8039450" lon="49.1229690"><time>2021-08-14T08:38:37</time></trkpt><trkpt lat="55.8039390" lon="49.1229950"><time>2021-08-14T08:38:38</time></trkpt><trkpt lat="55.8039370" lon="49.1230270"><time>2021-08-14T08:38:39</time></trkpt><trkpt lat="55.8039330" lon="49.1230650"><time>2021-08-14T08:38:40</time></trkpt><trkpt lat="55.8039330" lon="49.1230810"><time>2021-08-14T08:38:41</time></trkpt><trkpt lat="55.8039320" lon="49.1230980"><time>2021-08-14T08:38:42</time></trkpt><trkpt lat="55.8039420" lon="49.1231420"><time>2021-08-14T08:38:43</time></trkpt><trkpt lat="55.8039460" lon="49.1231570"><time>2021-08-14T08:38:44</time></trkpt><trkpt lat="55.8039510" lon="49.1231720"><time>2021-08-14T08:38:45</time></trkpt><trkpt lat="55.8039600" lon="49.1232010"><time>2021-08-14T08:38:46</time></trkpt><trkpt lat="55.8039540" lon="49.1232280"><time>2021-08-14T08:38:47</time></trkpt><trkpt lat="55.8039490" lon="49.1232760"><time>2021-08-14T08:38:48</time></trkpt><trkpt lat="55.8039440" lon="49.1232950"><time>2021-08-14T08:38:49</time></trkpt><trkpt lat="55.8039410" lon="49.1233460"><time>2021-08-14T08:38:50</time></trkpt><trkpt lat="55.8039400" lon="49.1233620"><time>2021-08-14T08:38:51</time></trkpt><trkpt lat="55.8039280" lon="49.1234090"><time>2021-08-14T08:38:52</time></trkpt><trkpt lat="55.8039230" lon="49.1234220"><time>2021-08-14T08:38:53</time></trkpt><trkpt lat="55.8039230" lon="49.1234460"><time>2021-08-14T08:38:54</time></trkpt><trkpt lat="55.8039240" lon="49.1234740"><time>2021-08-14T08:38:55</time></trkpt><trkpt lat="55.8039250" lon="49.1235110"><time>2021-08-14T08:38:56</time></trkpt><trkpt lat="55.8039220" lon="49.1235270"><time>2021-08-14T08:38:57</time></trkpt><trkpt lat="55.8039180" lon="49.1235430"><time>2021-08-14T08:38:58</time></trkpt><trkpt lat="55.8039170" lon="49.1235820"><time>2021-08-14T08:38:59</time></trkpt><trkpt lat="55.8039150" lon="49.1235980"><time>2021-08-14T08:39:00</time></trkpt><trkpt lat="55.8039140" lon="49.1236130"><time>2021-08-14T08:39:01</time></trkpt><trkpt lat="55.8039130" lon="49.1236500"><time>2021-08-14T08:39:02</time></trkpt><trkpt lat="55.8039120" lon="49.1236650"><time>2021-08-14T08:39:03</time></trkpt><trkpt lat="55.8039110" lon="49.1236800"><time>2021-08-14T08:39:04</time></trkpt><trkpt lat="55.8038980" lon="49.1237050"><time>2021-08-14T08:39:05</time></trkpt><trkpt lat="55.8038990" lon="49.1237290"><time>2021-08-14T08:39:06</time></trkpt><trkpt lat="55.8038990" lon="49.1237700"><time>2021-08-14T08:39:07</time></trkpt><trkpt lat="55.8039000" lon="49.1237870"><time>2021-08-14T08:39:08</time></trkpt><trkpt lat="55.8039000" lon="49.1238050"><time>2021-08-14T08:39:09</time></trkpt><trkpt lat="55.8038980" lon="49.1238390"><time>2021-08-14T08:39:10</time></trkpt><trkpt lat="55.8038980" lon="49.1238680"><time>2021-08-14T08:39:11</time></trkpt><trkpt lat="55.8038990" lon="49.1238940"><time>2021-08-14T08:39:12</time></trkpt><trkpt lat="55.8038990" lon="49.1239190"><time>2021-08-14T08:39:13</time></trkpt><trkpt lat="55.8038940" lon="49.1239500"><time>2021-08-14T08:39:14</time></trkpt><trkpt lat="55.8038920" lon="49.1239780"><time>2021-08-14T08:39:15</time></trkpt><trkpt lat="55.8038880" lon="49.1240060"><time>2021-08-14T08:39:16</time></trkpt><trkpt lat="55.8038880" lon="49.1240350"><time>2021-08-14T08:39:17</time></trkpt><trkpt lat="55.8038900" lon="49.1240640"><time>2021-08-14T08:39:18</time></trkpt><trkpt lat="55.8038890" lon="49.1240920"><time>2021-08-14T08:39:19</time></trkpt><trkpt lat="55.8038910" lon="49.1241210"><time>2021-08-14T08:39:20</time></trkpt><trkpt lat="55.8038910" lon="49.1241500"><time>2021-08-14T08:39:21</time></trkpt><trkpt lat="55.8038840" lon="49.1241750"><time>2021-08-14T08:39:22</time></trkpt><trkpt lat="55.8038810" lon="49.1242020"><time>2021-08-14T08:39:23</time></trkpt><trkpt lat="55.8038850" lon="49.1242250"><time>2021-08-14T08:39:24</time></trkpt><trkpt lat="55.8038830" lon="49.1242500"><time>2021-08-14T08:39:25</time></trkpt><trkpt lat="55.8038820" lon="49.1242770"><time>2021-08-14T08:39:26</time></trkpt><trkpt lat="55.8038740" lon="49.1243100"><time>2021-08-14T08:39:27</time></trkpt><trkpt lat="55.8038750" lon="49.1243480"><time>2021-08-14T08:39:28</time></trkpt><trkpt lat="55.8038730" lon="49.1243620"><time>2021-08-14T08:39:29</time></trkpt><trkpt lat="55.8038710" lon="49.1243770"><time>2021-08-14T08:39:30</time></trkpt><trkpt lat="55.8038670" lon="49.1244010"><time>2021-08-14T08:39:31</time></trkpt><trkpt lat="55.8038510" lon="49.1244120"><time>2021-08-14T08:39:32</time></trkpt><trkpt lat="55.8038480" lon="49.1244270"><time>2021-08-14T08:39:33</time></trkpt><trkpt lat="55.8038410" lon="49.1244430"><time>2021-08-14T08:39:34</time></trkpt><trkpt lat="55.8038280" lon="49.1244550"><time>2021-08-14T08:39:35</time></trkpt><trkpt lat="55.8037970" lon="49.1244330"><time>2021-08-14T08:39:36</time></trkpt><trkpt lat="55.8037880" lon="49.1244300"><time>2021-08-14T08:39:37</time></trkpt><trkpt lat="55.8037630" lon="49.1244500"><time>2021-08-14T08:39:38</time></trkpt><trkpt lat="55.8037550" lon="49.1244630"><time>2021-08-14T08:39:39</time></trkpt><trkpt lat="55.8037460" lon="49.1244830"><time>2021-08-14T08:39:40</time></trkpt><trkpt lat="55.8037390" lon="49.1245120"><time>2021-08-14T08:39:41</time></trkpt><trkpt lat="55.8037350" lon="49.1245440"><time>2021-08-14T08:39:42</time></trkpt><trkpt lat="55.8037400" lon="49.1245710"><time>2021-08-14T08:39:43</time></trkpt><trkpt lat="55.8037370" lon="49.1245980"><time>2021-08-14T08:39:44</time></trkpt><trkpt lat="55.8037310" lon="49.1246220"><time>2021-08-14T08:39:45</time></trkpt><trkpt lat="55.8037320" lon="49.1246470"><time>2021-08-14T08:39:46</time></trkpt><trkpt lat="55.8037280" lon="49.1246750"><time>2021-08-14T08:39:47</time></trkpt><trkpt lat="55.8037280" lon="49.1247000"><time>2021-08-14T08:39:48</time></trkpt><trkpt lat="55.8037270" lon="49.1247230"><time>2021-08-14T08:39:49</time></trkpt><trkpt lat="55.8037250" lon="49.1247500"><time>2021-08-14T08:39:50</time></trkpt><trkpt lat="55.8037160" lon="49.1247770"><time>2021-08-14T08:39:51</time></trkpt><trkpt lat="55.8037090" lon="49.1248060"><time>2021-08-14T08:39:52</time></trkpt><trkpt lat="55.8037080" lon="49.1248280"><time>2021-08-14T08:39:53</time></trkpt><trkpt lat="55.8036970" lon="49.1248600"><time>2021-08-14T08:39:54</time></trkpt><trkpt lat="55.8036940" lon="49.1248730"><time>2021-08-14T08:39:55</time></trkpt><trkpt lat="55.8036900" lon="49.1248870"><time>2021-08-14T08:39:56</time></trkpt><trkpt lat="55.8036890" lon="49.1249240"><time>2021-08-14T08:39:57</time></trkpt><trkpt lat="55.8036850" lon="49.1249380"><time>2021-08-14T08:39:58</time></trkpt><trkpt lat="55.8036820" lon="49.1249520"><time>2021-08-14T08:39:59</time></trkpt><trkpt lat="55.8036780" lon="49.1249780"><time>2021-08-14T08:40:00</time></trkpt><trkpt lat="55.8036770" lon="49.1250060"><time>2021-08-14T08:40:01</time></trkpt><trkpt lat="55.8036730" lon="49.1250270"><time>2021-08-14T08:40:02</time></trkpt><trkpt lat="55.8036660" lon="49.1250520"><time>2021-08-14T08:40:03</time></trkpt><trkpt lat="55.8036610" lon="49.1250810"><time>2021-08-14T08:40:04</time></trkpt><trkpt lat="55.8036530" lon="49.1251010"><time>2021-08-14T08:40:05</time></trkpt><trkpt lat="55.8036450" lon="49.1251230"><time>2021-08-14T08:40:06</time></trkpt><trkpt lat="55.8036410" lon="49.1251450"><time>2021-08-14T08:40:07</time></trkpt><trkpt lat="55.8036390" lon="49.1251710"><time>2021-08-14T08:40:08</time></trkpt><trkpt lat="55.8036310" lon="49.1252000"><time>2021-08-14T08:40:09</time></trkpt><trkpt lat="55.8036200" lon="49.1252310"><time>2021-08-14T08:40:10</time></trkpt><trkpt lat="55.8036130" lon="49.1252440"><time>2021-08-14T08:40:11</time></trkpt><trkpt lat="55.8036070" lon="49.1252570"><time>2021-08-14T08:40:12</time></trkpt><trkpt lat="55.8035970" lon="49.1252780"><time>2021-08-14T08:40:13</time></trkpt><trkpt lat="55.8035900" lon="49.1253010"><time>2021-08-14T08:40:14</time></trkpt><trkpt lat="55.8035800" lon="49.1253280"><time>2021-08-14T08:40:15</time></trkpt><trkpt lat="55.8035680" lon="49.1253450"><time>2021-08-14T08:40:16</time></trkpt><trkpt lat="55.8035600" lon="49.1253660"><time>2021-08-14T08:40:17</time></trkpt><trkpt lat="55.8035480" lon="49.1253910"><time>2021-08-14T08:40:18</time></trkpt><trkpt lat="55.8035370" lon="49.1254170"><time>2021-08-14T08:40:19</time></trkpt><trkpt lat="55.8035230" lon="49.1254310"><time>2021-08-14T08:40:20</time></trkpt><trkpt lat="55.8035120" lon="49.1254490"><time>2021-08-14T08:40:21</time></trkpt><trkpt lat="55.8035050" lon="49.1254710"><time>2021-08-14T08:40:22</time></trkpt><trkpt lat="55.8034950" lon="49.1254970"><time>2021-08-14T08:40:23</time></trkpt><trkpt lat="55.8034830" lon="49.1255150"><time>2021-08-14T08:40:24</time></trkpt><trkpt lat="55.8034680" lon="49.1255320"><time>2021-08-14T08:40:25</time></trkpt><trkpt lat="55.8034540" lon="49.1255510"><time>2021-08-14T08:40:26</time></trkpt><trkpt lat="55.8034430" lon="49.1255680"><time>2021-08-14T08:40:27</time></trkpt><trkpt lat="55.8034290" lon="49.1255870"><time>2021-08-14T08:40:28</time></trkpt><trkpt lat="55.8034190" lon="49.1256070"><time>2021-08-14T08:40:29</time></trkpt><trkpt lat="55.8034040" lon="49.1256260"><time>2021-08-14T08:40:30</time></trkpt><trkpt lat="55.8033890" lon="49.1256410"><time>2021-08-14T08:40:31</time></trkpt><trkpt lat="55.8033810" lon="49.1256580"><time>2021-08-14T08:40:32</time></trkpt><trkpt lat="55.8033690" lon="49.1256770"><time>2021-08-14T08:40:33</time></trkpt><trkpt lat="55.8033570" lon="49.1256880"><time>2021-08-14T08:40:34</time></trkpt><trkpt lat="55.8033460" lon="49.1257030"><time>2021-08-14T08:40:35</time></trkpt><trkpt lat="55.8033300" lon="49.1257190"><time>2021-08-14T08:40:36</time></trkpt><trkpt lat="55.8033210" lon="49.1257400"><time>2021-08-14T08:40:37</time></trkpt><trkpt lat="55.8033110" lon="49.1257590"><time>2021-08-14T08:40:38</time></trkpt><trkpt lat="55.8032970" lon="49.1257710"><time>2021-08-14T08:40:39</time></trkpt><trkpt lat="55.8032850" lon="49.1257880"><time>2021-08-14T08:40:40</time></trkpt><trkpt lat="55.8032690" lon="49.1257980"><time>2021-08-14T08:40:41</time></trkpt><trkpt lat="55.8032560" lon="49.1258090"><time>2021-08-14T08:40:42</time></trkpt><trkpt lat="55.8032450" lon="49.1258250"><time>2021-08-14T08:40:43</time></trkpt><trkpt lat="55.8032350" lon="49.1258450"><time>2021-08-14T08:40:44</time></trkpt><trkpt lat="55.8032210" lon="49.1258600"><time>2021-08-14T08:40:45</time></trkpt><trkpt lat="55.8032080" lon="49.1258700"><time>2021-08-14T08:40:46</time></trkpt><trkpt lat="55.8031900" lon="49.1258730"><time>2021-08-14T08:40:47</time></trkpt><trkpt lat="55.8031770" lon="49.1258750"><time>2021-08-14T08:40:48</time></trkpt><trkpt lat="55.8031580" lon="49.1258600"><time>2021-08-14T08:40:49</time></trkpt><trkpt lat="55.8031450" lon="49.1258640"><time>2021-08-14T08:40:50</time></trkpt><trkpt lat="55.8031310" lon="49.1258670"><time>2021-08-14T08:40:51</time></trkpt><trkpt lat="55.8031170" lon="49.1258750"><time>2021-08-14T08:40:52</time></trkpt><trkpt lat="55.8031010" lon="49.1258710"><time>2021-08-14T08:40:53</time></trkpt><trkpt lat="55.8030850" lon="49.1258640"><time>2021-08-14T08:40:54</time></trkpt><trkpt lat="55.8030700" lon="49.1258640"><time>2021-08-14T08:40:55</time></trkpt><trkpt lat="55.8030550" lon="49.1258620"><time>2021-08-14T08:40:56</time></trkpt><trkpt lat="55.8030420" lon="49.1258600"><time>2021-08-14T08:40:57</time></trkpt><trkpt lat="55.8030280" lon="49.1258530"><time>2021-08-14T08:40:58</time></trkpt><trkpt lat="55.8030080" lon="49.1258490"><time>2021-08-14T08:40:59</time></trkpt><trkpt lat="55.8029990" lon="49.1258440"><time>2021-08-14T08:41:00</time></trkpt><trkpt lat="55.8029910" lon="49.1258380"><time>2021-08-14T08:41:01</time></trkpt><trkpt lat="55.8029720" lon="49.1258190"><time>2021-08-14T08:41:02</time></trkpt><trkpt lat="55.8029650" lon="49.1258100"><time>2021-08-14T08:41:03</time></trkpt><trkpt lat="55.8029580" lon="49.1258010"><time>2021-08-14T08:41:04</time></trkpt><trkpt lat="55.8029540" lon="49.1257720"><time>2021-08-14T08:41:05</time></trkpt><trkpt lat="55.8029430" lon="49.1257690"><time>2021-08-14T08:41:06</time></trkpt><trkpt lat="55.8029330" lon="49.1257860"><time>2021-08-14T08:41:07</time></trkpt><trkpt lat="55.8029250" lon="49.1258100"><time>2021-08-14T08:41:08</time></trkpt><trkpt lat="55.8029170" lon="49.1258120"><time>2021-08-14T08:41:09</time></trkpt><trkpt lat="55.8029110" lon="49.1257910"><time>2021-08-14T08:41:10</time></trkpt><trkpt lat="55.8029040" lon="49.1257860"><time>2021-08-14T08:41:11</time></trkpt><trkpt lat="55.8028990" lon="49.1257830"><time>2021-08-14T08:41:12</time></trkpt><trkpt lat="55.8028990" lon="49.1257760"><time>2021-08-14T08:41:13</time></trkpt><trkpt lat="55.8028880" lon="49.1257860"><time>2021-08-14T08:41:14</time></trkpt><trkpt lat="55.8028790" lon="49.1257940"><time>2021-08-14T08:41:15</time></trkpt><trkpt lat="55.8028720" lon="49.1257970"><time>2021-08-14T08:41:16</time></trkpt><trkpt lat="55.8028620" lon="49.1257980"><time>2021-08-14T08:41:17</time></trkpt><trkpt lat="55.8028530" lon="49.1258030"><time>2021-08-14T08:41:18</time></trkpt><trkpt lat="55.8028410" lon="49.1258050"><time>2021-08-14T08:41:19</time></trkpt><trkpt lat="55.8028240" lon="49.1258020"><time>2021-08-14T08:41:20</time></trkpt><trkpt lat="55.8028220" lon="49.1257990"><time>2021-08-14T08:41:21</time></trkpt><trkpt lat="55.8028060" lon="49.1257970"><time>2021-08-14T08:41:22</time></trkpt><trkpt lat="55.8027990" lon="49.1258000"><time>2021-08-14T08:41:23</time></trkpt><trkpt lat="55.8027860" lon="49.1257960"><time>2021-08-14T08:41:24</time></trkpt><trkpt lat="55.8027960" lon="49.1258070"><time>2021-08-14T08:41:25</time></trkpt><trkpt lat="55.8027870" lon="49.1258150"><time>2021-08-14T08:41:26</time></trkpt><trkpt lat="55.8027810" lon="49.1258130"><time>2021-08-14T08:41:27</time></trkpt><trkpt lat="55.8027740" lon="49.1258110"><time>2021-08-14T08:41:28</time></trkpt><trkpt lat="55.8027640" lon="49.1258100"><time>2021-08-14T08:41:29</time></trkpt><trkpt lat="55.8027560" lon="49.1258100"><time>2021-08-14T08:41:30</time></trkpt><trkpt lat="55.8027490" lon="49.1258090"><time>2021-08-14T08:41:31</time></trkpt><trkpt lat="55.8027410" lon="49.1258090"><time>2021-08-14T08:41:32</time></trkpt><trkpt lat="55.8027330" lon="49.1258080"><time>2021-08-14T08:41:33</time></trkpt><trkpt lat="55.8027160" lon="49.1257980"><time>2021-08-14T08:41:34</time></trkpt><trkpt lat="55.8027070" lon="49.1257970"><time>2021-08-14T08:41:35</time></trkpt><trkpt lat="55.8027010" lon="49.1257880"><time>2021-08-14T08:41:36</time></trkpt><trkpt lat="55.8026960" lon="49.1257840"><time>2021-08-14T08:41:37</time></trkpt><trkpt lat="55.8026970" lon="49.1257810"><time>2021-08-14T08:41:38</time></trkpt><trkpt lat="55.8026930" lon="49.1257790"><time>2021-08-14T08:41:39</time></trkpt><trkpt lat="55.8026820" lon="49.1257760"><time>2021-08-14T08:41:40</time></trkpt><trkpt lat="55.8026750" lon="49.1257830"><time>2021-08-14T08:41:41</time></trkpt><trkpt lat="55.8026700" lon="49.1257900"><time>2021-08-14T08:41:42</time></trkpt><trkpt lat="55.8026660" lon="49.1257830"><time>2021-08-14T08:41:43</time></trkpt><trkpt lat="55.8026620" lon="49.1257840"><time>2021-08-14T08:41:44</time></trkpt><trkpt lat="55.8026610" lon="49.1257860"><time>2021-08-14T08:41:45</time></trkpt><trkpt lat="55.8026590" lon="49.1257860"><time>2021-08-14T08:41:46</time></trkpt><trkpt lat="55.8026570" lon="49.1257890"><time>2021-08-14T08:41:47</time></trkpt><trkpt lat="55.8026490" lon="49.1257870"><time>2021-08-14T08:41:48</time></trkpt><trkpt lat="55.8026460" lon="49.1257930"><time>2021-08-14T08:41:49</time></trkpt><trkpt lat="55.8026380" lon="49.1257880"><time>2021-08-14T08:41:50</time></trkpt><trkpt lat="55.8026250" lon="49.1257800"><time>2021-08-14T08:41:51</time></trkpt><trkpt lat="55.8026190" lon="49.1257750"><time>2021-08-14T08:41:52</time></trkpt><trkpt lat="55.8026120" lon="49.1257690"><time>2021-08-14T08:41:53</time></trkpt><trkpt lat="55.8026060" lon="49.1257640"><time>2021-08-14T08:41:54</time></trkpt><trkpt lat="55.8025990" lon="49.1257590"><time>2021-08-14T08:41:55</time></trkpt><trkpt lat="55.8025870" lon="49.1257710"><time>2021-08-14T08:41:56</time></trkpt><trkpt lat="55.8025810" lon="49.1257950"><time>2021-08-14T08:41:57</time></trkpt><trkpt lat="55.8025870" lon="49.1258210"><time>2021-08-14T08:41:58</time></trkpt><trkpt lat="55.8025870" lon="49.1258490"><time>2021-08-14T08:41:59</time></trkpt><trkpt lat="55.8025850" lon="49.1258710"><time>2021-08-14T08:42:00</time></trkpt><trkpt lat="55.8025850" lon="49.1259040"><time>2021-08-14T08:42:01</time></trkpt><trkpt lat="55.8025860" lon="49.1259380"><time>2021-08-14T08:42:02</time></trkpt><trkpt lat="55.8025870" lon="49.1259580"><time>2021-08-14T08:42:03</time></trkpt><trkpt lat="55.8025870" lon="49.1259780"><time>2021-08-14T08:42:04</time></trkpt><trkpt lat="55.8025840" lon="49.1260150"><time>2021-08-14T08:42:05</time></trkpt><trkpt lat="55.8025830" lon="49.1260350"><time>2021-08-14T08:42:06</time></trkpt><trkpt lat="55.8025830" lon="49.1260560"><time>2021-08-14T08:42:07</time></trkpt><trkpt lat="55.8025800" lon="49.1260860"><time>2021-08-14T08:42:08</time></trkpt><trkpt lat="55.8025750" lon="49.1261160"><time>2021-08-14T08:42:09</time></trkpt><trkpt lat="55.8025720" lon="49.1261430"><time>2021-08-14T08:42:10</time></trkpt><trkpt lat="55.8025690" lon="49.1261680"><time>2021-08-14T08:42:11</time></trkpt><trkpt lat="55.8025640" lon="49.1261920"><time>2021-08-14T08:42:12</time></trkpt><trkpt lat="55.8025620" lon="49.1262190"><time>2021-08-14T08:42:13</time></trkpt><trkpt lat="55.8025620" lon="49.1262480"><time>2021-08-14T08:42:14</time></trkpt><trkpt lat="55.8025590" lon="49.1262760"><time>2021-08-14T08:42:15</time></trkpt><trkpt lat="55.8025590" lon="49.1263000"><time>2021-08-14T08:42:16</time></trkpt><trkpt lat="55.8025590" lon="49.1263260"><time>2021-08-14T08:42:17</time></trkpt><trkpt lat="55.8025500" lon="49.1263530"><time>2021-08-14T08:42:18</time></trkpt><trkpt lat="55.8025490" lon="49.1263830"><time>2021-08-14T08:42:19</time></trkpt><trkpt lat="55.8025450" lon="49.1264080"><time>2021-08-14T08:42:20</time></trkpt><trkpt lat="55.8025390" lon="49.1264320"><time>2021-08-14T08:42:21</time></trkpt><trkpt lat="55.8025350" lon="49.1264590"><time>2021-08-14T08:42:22</time></trkpt><trkpt lat="55.8025300" lon="49.1264800"><time>2021-08-14T08:42:23</time></trkpt><trkpt lat="55.8025260" lon="49.1265040"><time>2021-08-14T08:42:24</time></trkpt><trkpt lat="55.8025240" lon="49.1265310"><time>2021-08-14T08:42:25</time></trkpt><trkpt lat="55.8025240" lon="49.1265570"><time>2021-08-14T08:42:26</time></trkpt><trkpt lat="55.8025220" lon="49.1265820"><time>2021-08-14T08:42:27</time></trkpt><trkpt lat="55.8025160" lon="49.1266200"><time>2021-08-14T08:42:28</time></trkpt><trkpt lat="55.8025140" lon="49.1266360"><time>2021-08-14T08:42:29</time></trkpt><trkpt lat="55.8025120" lon="49.1266510"><time>2021-08-14T08:42:30</time></trkpt><trkpt lat="55.8025110" lon="49.1266770"><time>2021-08-14T08:42:31</time></trkpt><trkpt lat="55.8025100" lon="49.1267020"><time>2021-08-14T08:42:32</time></trkpt><trkpt lat="55.8025020" lon="49.1267220"><time>2021-08-14T08:42:33</time></trkpt><trkpt lat="55.8024980" lon="49.1267460"><time>2021-08-14T08:42:34</time></trkpt><trkpt lat="55.8024930" lon="49.1267680"><time>2021-08-14T08:42:35</time></trkpt><trkpt lat="55.8024820" lon="49.1267870"><time>2021-08-14T08:42:36</time></trkpt><trkpt lat="55.8024760" lon="49.1268070"><time>2021-08-14T08:42:37</time></trkpt><trkpt lat="55.8024710" lon="49.1268330"><time>2021-08-14T08:42:38</time></trkpt><trkpt lat="55.8024570" lon="49.1268470"><time>2021-08-14T08:42:39</time></trkpt><trkpt lat="55.8024430" lon="49.1268560"><time>2021-08-14T08:42:40</time></trkpt><trkpt lat="55.8024320" lon="49.1268730"><time>2021-08-14T08:42:41</time></trkpt><trkpt lat="55.8024200" lon="49.1268860"><time>2021-08-14T08:42:42</time></trkpt><trkpt lat="55.8024070" lon="49.1268930"><time>2021-08-14T08:42:43</time></trkpt><trkpt lat="55.8023950" lon="49.1269080"><time>2021-08-14T08:42:44</time></trkpt><trkpt lat="55.8023830" lon="49.1269190"><time>2021-08-14T08:42:45</time></trkpt><trkpt lat="55.8023690" lon="49.1269290"><time>2021-08-14T08:42:46</time></trkpt><trkpt lat="55.8023570" lon="49.1269490"><time>2021-08-14T08:42:47</time></trkpt><trkpt lat="55.8023450" lon="49.1269570"><time>2021-08-14T08:42:48</time></trkpt><trkpt lat="55.8023330" lon="49.1269730"><time>2021-08-14T08:42:49</time></trkpt><trkpt lat="55.8023190" lon="49.1269830"><time>2021-08-14T08:42:50</time></trkpt><trkpt lat="55.8023060" lon="49.1269920"><time>2021-08-14T08:42:51</time></trkpt><trkpt lat="55.8022890" lon="49.1269960"><time>2021-08-14T08:42:52</time></trkpt><trkpt lat="55.8022760" lon="49.1270120"><time>2021-08-14T08:42:53</time></trkpt><trkpt lat="55.8022600" lon="49.1270230"><time>2021-08-14T08:42:54</time></trkpt><trkpt lat="55.8022460" lon="49.1270310"><time>2021-08-14T08:42:55</time></trkpt><trkpt lat="55.8022310" lon="49.1270350"><time>2021-08-14T08:42:56</time></trkpt><trkpt lat="55.8022190" lon="49.1270510"><time>2021-08-14T08:42:57</time></trkpt><trkpt lat="55.8022060" lon="49.1270600"><time>2021-08-14T08:42:58</time></trkpt><trkpt lat="55.8021910" lon="49.1270690"><time>2021-08-14T08:42:59</time></trkpt><trkpt lat="55.8021770" lon="49.1270760"><time>2021-08-14T08:43:00</time></trkpt><trkpt lat="55.8021640" lon="49.1270930"><time>2021-08-14T08:43:01</time></trkpt><trkpt lat="55.8021500" lon="49.1271040"><time>2021-08-14T08:43:02</time></trkpt><trkpt lat="55.8021380" lon="49.1271130"><time>2021-08-14T08:43:03</time></trkpt><trkpt lat="55.8021260" lon="49.1271280"><time>2021-08-14T08:43:04</time></trkpt><trkpt lat="55.8021130" lon="49.1271390"><time>2021-08-14T08:43:05</time></trkpt><trkpt lat="55.8021010" lon="49.1271500"><time>2021-08-14T08:43:06</time></trkpt><trkpt lat="55.8020860" lon="49.1271560"><time>2021-08-14T08:43:07</time></trkpt><trkpt lat="55.8020720" lon="49.1271710"><time>2021-08-14T08:43:08</time></trkpt><trkpt lat="55.8020600" lon="49.1271860"><time>2021-08-14T08:43:09</time></trkpt><trkpt lat="55.8020480" lon="49.1272010"><time>2021-08-14T08:43:10</time></trkpt><trkpt lat="55.8020340" lon="49.1272130"><time>2021-08-14T08:43:11</time></trkpt><trkpt lat="55.8020200" lon="49.1272280"><time>2021-08-14T08:43:12</time></trkpt><trkpt lat="55.8020080" lon="49.1272390"><time>2021-08-14T08:43:13</time></trkpt><trkpt lat="55.8019940" lon="49.1272470"><time>2021-08-14T08:43:14</time></trkpt><trkpt lat="55.8019810" lon="49.1272600"><time>2021-08-14T08:43:15</time></trkpt><trkpt lat="55.8019660" lon="49.1272750"><time>2021-08-14T08:43:16</time></trkpt><trkpt lat="55.8019490" lon="49.1272930"><time>2021-08-14T08:43:17</time></trkpt><trkpt lat="55.8019340" lon="49.1273040"><time>2021-08-14T08:43:18</time></trkpt><trkpt lat="55.8019210" lon="49.1273160"><time>2021-08-14T08:43:19</time></trkpt><trkpt lat="55.8019100" lon="49.1273310"><time>2021-08-14T08:43:20</time></trkpt><trkpt lat="55.8018940" lon="49.1273430"><time>2021-08-14T08:43:21</time></trkpt><trkpt lat="55.8018780" lon="49.1273500"><time>2021-08-14T08:43:22</time></trkpt><trkpt lat="55.8018640" lon="49.1273540"><time>2021-08-14T08:43:23</time></trkpt><trkpt lat="55.8018510" lon="49.1273660"><time>2021-08-14T08:43:24</time></trkpt><trkpt lat="55.8018390" lon="49.1273790"><time>2021-08-14T08:43:25</time></trkpt><trkpt lat="55.8018260" lon="49.1273920"><time>2021-08-14T08:43:26</time></trkpt><trkpt lat="55.8018120" lon="49.1274050"><time>2021-08-14T08:43:27</time></trkpt><trkpt lat="55.8017980" lon="49.1274140"><time>2021-08-14T08:43:28</time></trkpt><trkpt lat="55.8017850" lon="49.1274260"><time>2021-08-14T08:43:29</time></trkpt><trkpt lat="55.8017720" lon="49.1274400"><time>2021-08-14T08:43:30</time></trkpt><trkpt lat="55.8017570" lon="49.1274470"><time>2021-08-14T08:43:31</time></trkpt><trkpt lat="55.8017450" lon="49.1274570"><time>2021-08-14T08:43:32</time></trkpt><trkpt lat="55.8017300" lon="49.1274550"><time>2021-08-14T08:43:33</time></trkpt><trkpt lat="55.8017160" lon="49.1274700"><time>2021-08-14T08:43:34</time></trkpt><trkpt lat="55.8016930" lon="49.1275130"><time>2021-08-14T08:43:35</time></trkpt><trkpt lat="55.8016850" lon="49.1275180"><time>2021-08-14T08:43:36</time></trkpt><trkpt lat="55.8016720" lon="49.1275270"><time>2021-08-14T08:43:37</time></trkpt><trkpt lat="55.8016580" lon="49.1275370"><time>2021-08-14T08:43:38</time></trkpt><trkpt lat="55.8016340" lon="49.1275660"><time>2021-08-14T08:43:39</time></trkpt><trkpt lat="55.8016270" lon="49.1275700"><time>2021-08-14T08:43:40</time></trkpt><trkpt lat="55.8016040" lon="49.1275820"><time>2021-08-14T08:43:41</time></trkpt><trkpt lat="55.8015950" lon="49.1275910"><time>2021-08-14T08:43:42</time></trkpt><trkpt lat="55.8015860" lon="49.1275990"><time>2021-08-14T08:43:43</time></trkpt><trkpt lat="55.8015730" lon="49.1276050"><time>2021-08-14T08:43:44</time></trkpt><trkpt lat="55.8015580" lon="49.1276160"><time>2021-08-14T08:43:45</time></trkpt><trkpt lat="55.8015450" lon="49.1276270"><time>2021-08-14T08:43:46</time></trkpt><trkpt lat="55.8015300" lon="49.1276460"><time>2021-08-14T08:43:47</time></trkpt><trkpt lat="55.8015180" lon="49.1276620"><time>2021-08-14T08:43:48</time></trkpt><trkpt lat="55.8015050" lon="49.1276780"><time>2021-08-14T08:43:49</time></trkpt><trkpt lat="55.8014910" lon="49.1276880"><time>2021-08-14T08:43:50</time></trkpt><trkpt lat="55.8014780" lon="49.1276950"><time>2021-08-14T08:43:51</time></trkpt><trkpt lat="55.8014650" lon="49.1277020"><time>2021-08-14T08:43:52</time></trkpt><trkpt lat="55.8014510" lon="49.1277090"><time>2021-08-14T08:43:53</time></trkpt><trkpt lat="55.8014400" lon="49.1277170"><time>2021-08-14T08:43:54</time></trkpt><trkpt lat="55.8014270" lon="49.1277360"><time>2021-08-14T08:43:55</time></trkpt><trkpt lat="55.8014120" lon="49.1277460"><time>2021-08-14T08:43:56</time></trkpt><trkpt lat="55.8013980" lon="49.1277570"><time>2021-08-14T08:43:57</time></trkpt><trkpt lat="55.8013870" lon="49.1277670"><time>2021-08-14T08:43:58</time></trkpt><trkpt lat="55.8013740" lon="49.1277810"><time>2021-08-14T08:43:59</time></trkpt><trkpt lat="55.8013610" lon="49.1277880"><time>2021-08-14T08:44:00</time></trkpt><trkpt lat="55.8013460" lon="49.1278060"><time>2021-08-14T08:44:01</time></trkpt><trkpt lat="55.8013340" lon="49.1278260"><time>2021-08-14T08:44:02</time></trkpt><trkpt lat="55.8013230" lon="49.1278450"><time>2021-08-14T08:44:03</time></trkpt><trkpt lat="55.8013110" lon="49.1278680"><time>2021-08-14T08:44:04</time></trkpt><trkpt lat="55.8013040" lon="49.1278920"><time>2021-08-14T08:44:05</time></trkpt><trkpt lat="55.8012980" lon="49.1279200"><time>2021-08-14T08:44:06</time></trkpt><trkpt lat="55.8012940" lon="49.1279490"><time>2021-08-14T08:44:07</time></trkpt><trkpt lat="55.8012880" lon="49.1279800"><time>2021-08-14T08:44:08</time></trkpt><trkpt lat="55.8012850" lon="49.1280080"><time>2021-08-14T08:44:09</time></trkpt><trkpt lat="55.8012830" lon="49.1280360"><time>2021-08-14T08:44:10</time></trkpt><trkpt lat="55.8012830" lon="49.1280630"><time>2021-08-14T08:44:11</time></trkpt><trkpt lat="55.8012820" lon="49.1280920"><time>2021-08-14T08:44:12</time></trkpt><trkpt lat="55.8012800" lon="49.1281190"><time>2021-08-14T08:44:13</time></trkpt><trkpt lat="55.8012840" lon="49.1281470"><time>2021-08-14T08:44:14</time></trkpt><trkpt lat="55.8012800" lon="49.1281720"><time>2021-08-14T08:44:15</time></trkpt><trkpt lat="55.8012810" lon="49.1282000"><time>2021-08-14T08:44:16</time></trkpt><trkpt lat="55.8012740" lon="49.1282260"><time>2021-08-14T08:44:17</time></trkpt><trkpt lat="55.8012680" lon="49.1282480"><time>2021-08-14T08:44:18</time></trkpt><trkpt lat="55.8012630" lon="49.1282730"><time>2021-08-14T08:44:19</time></trkpt><trkpt lat="55.8012620" lon="49.1283010"><time>2021-08-14T08:44:20</time></trkpt><trkpt lat="55.8012610" lon="49.1283280"><time>2021-08-14T08:44:21</time></trkpt><trkpt lat="55.8012560" lon="49.1283550"><time>2021-08-14T08:44:22</time></trkpt><trkpt lat="55.8012520" lon="49.1283810"><time>2021-08-14T08:44:23</time></trkpt><trkpt lat="55.8012500" lon="49.1284060"><time>2021-08-14T08:44:24</time></trkpt><trkpt lat="55.8012530" lon="49.1284350"><time>2021-08-14T08:44:25</time></trkpt><trkpt lat="55.8012480" lon="49.1284600"><time>2021-08-14T08:44:26</time></trkpt><trkpt lat="55.8012490" lon="49.1284840"><time>2021-08-14T08:44:27</time></trkpt><trkpt lat="55.8012450" lon="49.1285110"><time>2021-08-14T08:44:28</time></trkpt><trkpt lat="55.8012470" lon="49.1285380"><time>2021-08-14T08:44:29</time></trkpt><trkpt lat="55.8012450" lon="49.1285700"><time>2021-08-14T08:44:30</time></trkpt><trkpt lat="55.8012420" lon="49.1285990"><time>2021-08-14T08:44:31</time></trkpt><trkpt lat="55.8012410" lon="49.1286220"><time>2021-08-14T08:44:32</time></trkpt><trkpt lat="55.8012360" lon="49.1286480"><time>2021-08-14T08:44:33</time></trkpt><trkpt lat="55.8012320" lon="49.1286710"><time>2021-08-14T08:44:34</time></trkpt><trkpt lat="55.8012320" lon="49.1286950"><time>2021-08-14T08:44:35</time></trkpt><trkpt lat="55.8012320" lon="49.1287210"><time>2021-08-14T08:44:36</time></trkpt><trkpt lat="55.8012300" lon="49.1287470"><time>2021-08-14T08:44:37</time></trkpt><trkpt lat="55.8012270" lon="49.1287710"><time>2021-08-14T08:44:38</time></trkpt><trkpt lat="55.8012230" lon="49.1288020"><time>2021-08-14T08:44:39</time></trkpt><trkpt lat="55.8012150" lon="49.1288250"><time>2021-08-14T08:44:40</time></trkpt><trkpt lat="55.8012110" lon="49.1288470"><time>2021-08-14T08:44:41</time></trkpt><trkpt lat="55.8012070" lon="49.1288750"><time>2021-08-14T08:44:42</time></trkpt><trkpt lat="55.8011980" lon="49.1289000"><time>2021-08-14T08:44:43</time></trkpt><trkpt lat="55.8011900" lon="49.1289190"><time>2021-08-14T08:44:44</time></trkpt><trkpt lat="55.8011840" lon="49.1289420"><time>2021-08-14T08:44:45</time></trkpt><trkpt lat="55.8011790" lon="49.1289630"><time>2021-08-14T08:44:46</time></trkpt><trkpt lat="55.8011690" lon="49.1289820"><time>2021-08-14T08:44:47</time></trkpt><trkpt lat="55.8011550" lon="49.1290090"><time>2021-08-14T08:44:48</time></trkpt><trkpt lat="55.8011480" lon="49.1290200"><time>2021-08-14T08:44:49</time></trkpt><trkpt lat="55.8011410" lon="49.1290310"><time>2021-08-14T08:44:50</time></trkpt><trkpt lat="55.8011260" lon="49.1290400"><time>2021-08-14T08:44:51</time></trkpt><trkpt lat="55.8011120" lon="49.1290560"><time>2021-08-14T08:44:52</time></trkpt><trkpt lat="55.8010980" lon="49.1290660"><time>2021-08-14T08:44:53</time></trkpt><trkpt lat="55.8010850" lon="49.1290730"><time>2021-08-14T08:44:54</time></trkpt><trkpt lat="55.8010710" lon="49.1290790"><time>2021-08-14T08:44:55</time></trkpt><trkpt lat="55.8010560" lon="49.1290860"><time>2021-08-14T08:44:56</time></trkpt><trkpt lat="55.8010430" lon="49.1290850"><time>2021-08-14T08:44:57</time></trkpt><trkpt lat="55.8010260" lon="49.1290970"><time>2021-08-14T08:44:58</time></trkpt><trkpt lat="55.8010090" lon="49.1290980"><time>2021-08-14T08:44:59</time></trkpt><trkpt lat="55.8009940" lon="49.1291060"><time>2021-08-14T08:45:00</time></trkpt><trkpt lat="55.8009730" lon="49.1291220"><time>2021-08-14T08:45:01</time></trkpt><trkpt lat="55.8009640" lon="49.1291280"><time>2021-08-14T08:45:02</time></trkpt><trkpt lat="55.8009540" lon="49.1291350"><time>2021-08-14T08:45:03</time></trkpt><trkpt lat="55.8009390" lon="49.1291310"><time>2021-08-14T08:45:04</time></trkpt><trkpt lat="55.8009250" lon="49.1291300"><time>2021-08-14T08:45:05</time></trkpt><trkpt lat="55.8009110" lon="49.1291340"><time>2021-08-14T08:45:06</time></trkpt><trkpt lat="55.8008960" lon="49.1291370"><time>2021-08-14T08:45:07</time></trkpt><trkpt lat="55.8008800" lon="49.1291370"><time>2021-08-14T08:45:08</time></trkpt><trkpt lat="55.8008630" lon="49.1291520"><time>2021-08-14T08:45:09</time></trkpt><trkpt lat="55.8008500" lon="49.1291540"><time>2021-08-14T08:45:10</time></trkpt><trkpt lat="55.8008340" lon="49.1291740"><time>2021-08-14T08:45:11</time></trkpt><trkpt lat="55.8008200" lon="49.1291770"><time>2021-08-14T08:45:12</time></trkpt><trkpt lat="55.8008050" lon="49.1291790"><time>2021-08-14T08:45:13</time></trkpt><trkpt lat="55.8007890" lon="49.1291820"><time>2021-08-14T08:45:14</time></trkpt><trkpt lat="55.8007740" lon="49.1291850"><time>2021-08-14T08:45:15</time></trkpt><trkpt lat="55.8007600" lon="49.1291880"><time>2021-08-14T08:45:16</time></trkpt><trkpt lat="55.8007460" lon="49.1291920"><time>2021-08-14T08:45:17</time></trkpt><trkpt lat="55.8007320" lon="49.1291950"><time>2021-08-14T08:45:18</time></trkpt><trkpt lat="55.8007170" lon="49.1291900"><time>2021-08-14T08:45:19</time></trkpt><trkpt lat="55.8007030" lon="49.1291950"><time>2021-08-14T08:45:20</time></trkpt><trkpt lat="55.8006880" lon="49.1291930"><time>2021-08-14T08:45:21</time></trkpt><trkpt lat="55.8006710" lon="49.1291920"><time>2021-08-14T08:45:22</time></trkpt><trkpt lat="55.8006570" lon="49.1292010"><time>2021-08-14T08:45:23</time></trkpt><trkpt lat="55.8006410" lon="49.1292100"><time>2021-08-14T08:45:24</time></trkpt><trkpt lat="55.8006260" lon="49.1292120"><time>2021-08-14T08:45:25</time></trkpt><trkpt lat="55.8006090" lon="49.1292160"><time>2021-08-14T08:45:26</time></trkpt><trkpt lat="55.8005940" lon="49.1292220"><time>2021-08-14T08:45:27</time></trkpt><trkpt lat="55.8005800" lon="49.1292310"><time>2021-08-14T08:45:28</time></trkpt><trkpt lat="55.8005670" lon="49.1292360"><time>2021-08-14T08:45:29</time></trkpt><trkpt lat="55.8005530" lon="49.1292280"><time>2021-08-14T08:45:30</time></trkpt><trkpt lat="55.8005370" lon="49.1292280"><time>2021-08-14T08:45:31</time></trkpt><trkpt lat="55.8005240" lon="49.1292400"><time>2021-08-14T08:45:32</time></trkpt><trkpt lat="55.8005080" lon="49.1292430"><time>2021-08-14T08:45:33</time></trkpt><trkpt lat="55.8004900" lon="49.1292540"><time>2021-08-14T08:45:34</time></trkpt><trkpt lat="55.8004770" lon="49.1292640"><time>2021-08-14T08:45:35</time></trkpt><trkpt lat="55.8004630" lon="49.1292780"><time>2021-08-14T08:45:36</time></trkpt><trkpt lat="55.8004500" lon="49.1292970"><time>2021-08-14T08:45:37</time></trkpt><trkpt lat="55.8004360" lon="49.1293160"><time>2021-08-14T08:45:38</time></trkpt><trkpt lat="55.8004220" lon="49.1293350"><time>2021-08-14T08:45:39</time></trkpt><trkpt lat="55.8004050" lon="49.1293530"><time>2021-08-14T08:45:40</time></trkpt><trkpt lat="55.8003940" lon="49.1293690"><time>2021-08-14T08:45:41</time></trkpt><trkpt lat="55.8003900" lon="49.1294050"><time>2021-08-14T08:45:42</time></trkpt><trkpt lat="55.8003820" lon="49.1294260"><time>2021-08-14T08:45:43</time></trkpt><trkpt lat="55.8003720" lon="49.1294510"><time>2021-08-14T08:45:44</time></trkpt><trkpt lat="55.8003630" lon="49.1294720"><time>2021-08-14T08:45:45</time></trkpt><trkpt lat="55.8003550" lon="49.1294950"><time>2021-08-14T08:45:46</time></trkpt><trkpt lat="55.8003430" lon="49.1295170"><time>2021-08-14T08:45:47</time></trkpt><trkpt lat="55.8003300" lon="49.1295330"><time>2021-08-14T08:45:48</time></trkpt><trkpt lat="55.8003200" lon="49.1295490"><time>2021-08-14T08:45:49</time></trkpt><trkpt lat="55.8003150" lon="49.1295780"><time>2021-08-14T08:45:50</time></trkpt><trkpt lat="55.8003070" lon="49.1295990"><time>2021-08-14T08:45:51</time></trkpt><trkpt lat="55.8002970" lon="49.1296190"><time>2021-08-14T08:45:52</time></trkpt><trkpt lat="55.8002890" lon="49.1296450"><time>2021-08-14T08:45:53</time></trkpt><trkpt lat="55.8002800" lon="49.1296610"><time>2021-08-14T08:45:54</time></trkpt><trkpt lat="55.8002730" lon="49.1296860"><time>2021-08-14T08:45:55</time></trkpt><trkpt lat="55.8002630" lon="49.1297060"><time>2021-08-14T08:45:56</time></trkpt><trkpt lat="55.8002570" lon="49.1297310"><time>2021-08-14T08:45:57</time></trkpt><trkpt lat="55.8002510" lon="49.1297540"><time>2021-08-14T08:45:58</time></trkpt><trkpt lat="55.8002460" lon="49.1297800"><time>2021-08-14T08:45:59</time></trkpt><trkpt lat="55.8002340" lon="49.1298110"><time>2021-08-14T08:46:00</time></trkpt><trkpt lat="55.8002300" lon="49.1298260"><time>2021-08-14T08:46:01</time></trkpt><trkpt lat="55.8002270" lon="49.1298400"><time>2021-08-14T08:46:02</time></trkpt><trkpt lat="55.8002190" lon="49.1298540"><time>2021-08-14T08:46:03</time></trkpt><trkpt lat="55.8002110" lon="49.1298680"><time>2021-08-14T08:46:04</time></trkpt><trkpt lat="55.8002170" lon="49.1298770"><time>2021-08-14T08:46:05</time></trkpt><trkpt lat="55.8002220" lon="49.1298740"><time>2021-08-14T08:46:06</time></trkpt><trkpt lat="55.8002270" lon="49.1298600"><time>2021-08-14T08:46:07</time></trkpt><trkpt lat="55.8002320" lon="49.1298500"><time>2021-08-14T08:46:08</time></trkpt><trkpt lat="55.8002320" lon="49.1298450"><time>2021-08-14T08:46:09</time></trkpt><trkpt lat="55.8002280" lon="49.1298450"><time>2021-08-14T08:46:10</time></trkpt><trkpt lat="55.8002190" lon="49.1298410"><time>2021-08-14T08:46:11</time></trkpt><trkpt lat="55.8002080" lon="49.1298340"><time>2021-08-14T08:46:12</time></trkpt><trkpt lat="55.8001990" lon="49.1298280"><time>2021-08-14T08:46:13</time></trkpt><trkpt lat="55.8001900" lon="49.1298220"><time>2021-08-14T08:46:14</time></trkpt><trkpt lat="55.8001800" lon="49.1298170"><time>2021-08-14T08:46:15</time></trkpt><trkpt lat="55.8001710" lon="49.1298110"><time>2021-08-14T08:46:16</time></trkpt><trkpt lat="55.8001630" lon="49.1298060"><time>2021-08-14T08:46:17</time></trkpt><trkpt lat="55.8001560" lon="49.1298010"><time>2021-08-14T08:46:18</time></trkpt><trkpt lat="55.8001470" lon="49.1297960"><time>2021-08-14T08:46:19</time></trkpt><trkpt lat="55.8001390" lon="49.1297930"><time>2021-08-14T08:46:20</time></trkpt><trkpt lat="55.8001330" lon="49.1297880"><time>2021-08-14T08:46:21</time></trkpt><trkpt lat="55.8001250" lon="49.1297840"><time>2021-08-14T08:46:22</time></trkpt><trkpt lat="55.8001180" lon="49.1297800"><time>2021-08-14T08:46:23</time></trkpt><trkpt lat="55.8001110" lon="49.1297780"><time>2021-08-14T08:46:24</time></trkpt><trkpt lat="55.8001040" lon="49.1297780"><time>2021-08-14T08:46:25</time></trkpt><trkpt lat="55.8001010" lon="49.1297790"><time>2021-08-14T08:46:26</time></trkpt><trkpt lat="55.8000960" lon="49.1297790"><time>2021-08-14T08:46:27</time></trkpt><trkpt lat="55.8000940" lon="49.1297800"><time>2021-08-14T08:46:28</time></trkpt><trkpt lat="55.8000940" lon="49.1297800"><time>2021-08-14T08:46:29</time></trkpt><trkpt lat="55.8000890" lon="49.1297820"><time>2021-08-14T08:46:30</time></trkpt><trkpt lat="55.8000860" lon="49.1297840"><time>2021-08-14T08:46:31</time></trkpt><trkpt lat="55.8000830" lon="49.1297850"><time>2021-08-14T08:46:32</time></trkpt><trkpt lat="55.8000770" lon="49.1297790"><time>2021-08-14T08:46:33</time></trkpt><trkpt lat="55.8000680" lon="49.1297740"><time>2021-08-14T08:46:34</time></trkpt><trkpt lat="55.8000540" lon="49.1297710"><time>2021-08-14T08:46:35</time></trkpt><trkpt lat="55.8000410" lon="49.1297660"><time>2021-08-14T08:46:36</time></trkpt><trkpt lat="55.8000310" lon="49.1297620"><time>2021-08-14T08:46:37</time></trkpt><trkpt lat="55.8000230" lon="49.1297570"><time>2021-08-14T08:46:38</time></trkpt><trkpt lat="55.8000180" lon="49.1297530"><time>2021-08-14T08:46:39</time></trkpt><trkpt lat="55.8000120" lon="49.1297490"><time>2021-08-14T08:46:40</time></trkpt><trkpt lat="55.8000040" lon="49.1297450"><time>2021-08-14T08:46:41</time></trkpt><trkpt lat="55.7999990" lon="49.1297420"><time>2021-08-14T08:46:42</time></trkpt><trkpt lat="55.7999920" lon="49.1297390"><time>2021-08-14T08:46:43</time></trkpt><trkpt lat="55.7999870" lon="49.1297360"><time>2021-08-14T08:46:44</time></trkpt><trkpt lat="55.7999810" lon="49.1297350"><time>2021-08-14T08:46:45</time></trkpt><trkpt lat="55.7999740" lon="49.1297320"><time>2021-08-14T08:46:46</time></trkpt><trkpt lat="55.7999690" lon="49.1297310"><time>2021-08-14T08:46:47</time></trkpt><trkpt lat="55.7999620" lon="49.1297290"><time>2021-08-14T08:46:48</time></trkpt><trkpt lat="55.7999560" lon="49.1297300"><time>2021-08-14T08:46:49</time></trkpt><trkpt lat="55.7999530" lon="49.1297330"><time>2021-08-14T08:46:50</time></trkpt><trkpt lat="55.7999500" lon="49.1297300"><time>2021-08-14T08:46:51</time></trkpt><trkpt lat="55.7999400" lon="49.1297290"><time>2021-08-14T08:46:52</time></trkpt><trkpt lat="55.7999340" lon="49.1297280"><time>2021-08-14T08:46:53</time></trkpt><trkpt lat="55.7999290" lon="49.1297300"><time>2021-08-14T08:46:54</time></trkpt><trkpt lat="55.7999260" lon="49.1297260"><time>2021-08-14T08:46:55</time></trkpt><trkpt lat="55.7999220" lon="49.1297240"><time>2021-08-14T08:46:56</time></trkpt><trkpt lat="55.7999150" lon="49.1297220"><time>2021-08-14T08:46:57</time></trkpt><trkpt lat="55.7999120" lon="49.1297250"><time>2021-08-14T08:46:58</time></trkpt><trkpt lat="55.7999080" lon="49.1297240"><time>2021-08-14T08:46:59</time></trkpt><trkpt lat="55.7999020" lon="49.1297200"><time>2021-08-14T08:47:00</time></trkpt><trkpt lat="55.7998960" lon="49.1297200"><time>2021-08-14T08:47:01</time></trkpt><trkpt lat="55.7998890" lon="49.1297180"><time>2021-08-14T08:47:02</time></trkpt><trkpt lat="55.7998800" lon="49.1297140"><time>2021-08-14T08:47:03</time></trkpt><trkpt lat="55.7998730" lon="49.1297200"><time>2021-08-14T08:47:04</time></trkpt><trkpt lat="55.7998460" lon="49.1297240"><time>2021-08-14T08:47:05</time></trkpt><trkpt lat="55.7998280" lon="49.1297500"><time>2021-08-14T08:47:06</time></trkpt><trkpt lat="55.7998230" lon="49.1297610"><time>2021-08-14T08:47:07</time></trkpt><trkpt lat="55.7998190" lon="49.1297710"><time>2021-08-14T08:47:08</time></trkpt><trkpt lat="55.7998120" lon="49.1297860"><time>2021-08-14T08:47:09</time></trkpt><trkpt lat="55.7998050" lon="49.1298000"><time>2021-08-14T08:47:10</time></trkpt><trkpt lat="55.7997980" lon="49.1298160"><time>2021-08-14T08:47:11</time></trkpt><trkpt lat="55.7997970" lon="49.1298330"><time>2021-08-14T08:47:12</time></trkpt><trkpt lat="55.7997900" lon="49.1298490"><time>2021-08-14T08:47:13</time></trkpt><trkpt lat="55.7997840" lon="49.1298590"><time>2021-08-14T08:47:14</time></trkpt><trkpt lat="55.7997790" lon="49.1298720"><time>2021-08-14T08:47:15</time></trkpt><trkpt lat="55.7997810" lon="49.1298690"><time>2021-08-14T08:47:16</time></trkpt><trkpt lat="55.7997840" lon="49.1298660"><time>2021-08-14T08:47:17</time></trkpt><trkpt lat="55.7997860" lon="49.1298630"><time>2021-08-14T08:47:18</time></trkpt><trkpt lat="55.7997890" lon="49.1298600"><time>2021-08-14T08:47:19</time></trkpt><trkpt lat="55.7997910" lon="49.1298570"><time>2021-08-14T08:47:20</time></trkpt><trkpt lat="55.7997940" lon="49.1298540"><time>2021-08-14T08:47:21</time></trkpt><trkpt lat="55.7997960" lon="49.1298510"><time>2021-08-14T08:47:22</time></trkpt><trkpt lat="55.7997990" lon="49.1298470"><time>2021-08-14T08:47:23</time></trkpt><trkpt lat="55.7998010" lon="49.1298440"><time>2021-08-14T08:47:24</time></trkpt><trkpt lat="55.7998040" lon="49.1298410"><time>2021-08-14T08:47:25</time></trkpt><trkpt lat="55.7998060" lon="49.1298380"><time>2021-08-14T08:47:26</time></trkpt><trkpt lat="55.7998090" lon="49.1298350"><time>2021-08-14T08:47:27</time></trkpt><trkpt lat="55.7998110" lon="49.1298320"><time>2021-08-14T08:47:28</time></trkpt><trkpt lat="55.7998140" lon="49.1298290"><time>2021-08-14T08:47:29</time></trkpt><trkpt lat="55.7998160" lon="49.1298260"><time>2021-08-14T08:47:30</time></trkpt><trkpt lat="55.7998190" lon="49.1298230"><time>2021-08-14T08:47:31</time></trkpt><trkpt lat="55.7998230" lon="49.1298040"><time>2021-08-14T08:47:32</time></trkpt><trkpt lat="55.7998270" lon="49.1297910"><time>2021-08-14T08:47:33</time></trkpt><trkpt lat="55.7998320" lon="49.1297710"><time>2021-08-14T08:47:34</time></trkpt><trkpt lat="55.7998370" lon="49.1297530"><time>2021-08-14T08:47:35</time></trkpt><trkpt lat="55.7998470" lon="49.1297380"><time>2021-08-14T08:47:36</time></trkpt><trkpt lat="55.7998550" lon="49.1297220"><time>2021-08-14T08:47:37</time></trkpt><trkpt lat="55.7998560" lon="49.1297200"><time>2021-08-14T08:47:38</time></trkpt><trkpt lat="55.7998570" lon="49.1297190"><time>2021-08-14T08:47:39</time></trkpt><trkpt lat="55.7998550" lon="49.1297120"><time>2021-08-14T08:47:40</time></trkpt><trkpt lat="55.7998530" lon="49.1297090"><time>2021-08-14T08:47:41</time></trkpt><trkpt lat="55.7998520" lon="49.1297320"><time>2021-08-14T08:47:42</time></trkpt><trkpt lat="55.7998530" lon="49.1297750"><time>2021-08-14T08:47:43</time></trkpt><trkpt lat="55.7998450" lon="49.1298090"><time>2021-08-14T08:47:44</time></trkpt><trkpt lat="55.7998450" lon="49.1298260"><time>2021-08-14T08:47:45</time></trkpt><trkpt lat="55.7998450" lon="49.1298430"><time>2021-08-14T08:47:46</time></trkpt><trkpt lat="55.7998400" lon="49.1298660"><time>2021-08-14T08:47:47</time></trkpt><trkpt lat="55.7998380" lon="49.1298830"><time>2021-08-14T08:47:48</time></trkpt><trkpt lat="55.7998390" lon="49.1299080"><time>2021-08-14T08:47:50</time></trkpt><trkpt lat="55.7998370" lon="49.1299400"><time>2021-08-14T08:47:51</time></trkpt><trkpt lat="55.7998330" lon="49.1299620"><time>2021-08-14T08:47:52</time></trkpt><trkpt lat="55.7998340" lon="49.1299980"><time>2021-08-14T08:47:53</time></trkpt><trkpt lat="55.7998320" lon="49.1300240"><time>2021-08-14T08:47:54</time></trkpt><trkpt lat="55.7998360" lon="49.1300400"><time>2021-08-14T08:47:55</time></trkpt><trkpt lat="55.7998410" lon="49.1300700"><time>2021-08-14T08:47:56</time></trkpt><trkpt lat="55.7998450" lon="49.1300990"><time>2021-08-14T08:47:57</time></trkpt><trkpt lat="55.7998510" lon="49.1301300"><time>2021-08-14T08:47:58</time></trkpt><trkpt lat="55.7998510" lon="49.1301600"><time>2021-08-14T08:47:59</time></trkpt><trkpt lat="55.7998530" lon="49.1301840"><time>2021-08-14T08:48:00</time></trkpt><trkpt lat="55.7998520" lon="49.1302080"><time>2021-08-14T08:48:01</time></trkpt><trkpt lat="55.7998530" lon="49.1302170"><time>2021-08-14T08:48:02</time></trkpt><trkpt lat="55.7998520" lon="49.1302420"><time>2021-08-14T08:48:03</time></trkpt><trkpt lat="55.7998490" lon="49.1302690"><time>2021-08-14T08:48:04</time></trkpt><trkpt lat="55.7998510" lon="49.1302960"><time>2021-08-14T08:48:05</time></trkpt><trkpt lat="55.7998510" lon="49.1303380"><time>2021-08-14T08:48:06</time></trkpt><trkpt lat="55.7998490" lon="49.1303540"><time>2021-08-14T08:48:07</time></trkpt><trkpt lat="55.7998480" lon="49.1303700"><time>2021-08-14T08:48:08</time></trkpt><trkpt lat="55.7998450" lon="49.1304080"><time>2021-08-14T08:48:09</time></trkpt><trkpt lat="55.7998420" lon="49.1304260"><time>2021-08-14T08:48:10</time></trkpt><trkpt lat="55.7998400" lon="49.1304450"><time>2021-08-14T08:48:11</time></trkpt><trkpt lat="55.7998380" lon="49.1304840"><time>2021-08-14T08:48:12</time></trkpt><trkpt lat="55.7998380" lon="49.1304970"><time>2021-08-14T08:48:13</time></trkpt><trkpt lat="55.7998390" lon="49.1305110"><time>2021-08-14T08:48:14</time></trkpt><trkpt lat="55.7998390" lon="49.1305360"><time>2021-08-14T08:48:15</time></trkpt><trkpt lat="55.7998370" lon="49.1305620"><time>2021-08-14T08:48:16</time></trkpt><trkpt lat="55.7998350" lon="49.1306140"><time>2021-08-14T08:48:17</time></trkpt><trkpt lat="55.7998350" lon="49.1306290"><time>2021-08-14T08:48:18</time></trkpt><trkpt lat="55.7998310" lon="49.1306560"><time>2021-08-14T08:48:19</time></trkpt><trkpt lat="55.7998270" lon="49.1306840"><time>2021-08-14T08:48:20</time></trkpt><trkpt lat="55.7998230" lon="49.1307080"><time>2021-08-14T08:48:21</time></trkpt><trkpt lat="55.7998220" lon="49.1307320"><time>2021-08-14T08:48:22</time></trkpt><trkpt lat="55.7998210" lon="49.1307610"><time>2021-08-14T08:48:23</time></trkpt><trkpt lat="55.7998200" lon="49.1307850"><time>2021-08-14T08:48:24</time></trkpt><trkpt lat="55.7998220" lon="49.1308130"><time>2021-08-14T08:48:25</time></trkpt><trkpt lat="55.7998240" lon="49.1308400"><time>2021-08-14T08:48:26</time></trkpt><trkpt lat="55.7998180" lon="49.1308630"><time>2021-08-14T08:48:27</time></trkpt><trkpt lat="55.7998120" lon="49.1308870"><time>2021-08-14T08:48:28</time></trkpt><trkpt lat="55.7998110" lon="49.1309170"><time>2021-08-14T08:48:29</time></trkpt><trkpt lat="55.7998180" lon="49.1309490"><time>2021-08-14T08:48:30</time></trkpt><trkpt lat="55.7998230" lon="49.1309820"><time>2021-08-14T08:48:31</time></trkpt><trkpt lat="55.7998250" lon="49.1309970"><time>2021-08-14T08:48:32</time></trkpt><trkpt lat="55.7998280" lon="49.1310110"><time>2021-08-14T08:48:33</time></trkpt><trkpt lat="55.7998310" lon="49.1310480"><time>2021-08-14T08:48:34</time></trkpt><trkpt lat="55.7998330" lon="49.1310660"><time>2021-08-14T08:48:35</time></trkpt><trkpt lat="55.7998350" lon="49.1310830"><time>2021-08-14T08:48:36</time></trkpt><trkpt lat="55.7998420" lon="49.1311060"><time>2021-08-14T08:48:37</time></trkpt><trkpt lat="55.7998500" lon="49.1311260"><time>2021-08-14T08:48:38</time></trkpt><trkpt lat="55.7998530" lon="49.1311430"><time>2021-08-14T08:48:39</time></trkpt><trkpt lat="55.7998590" lon="49.1311620"><time>2021-08-14T08:48:40</time></trkpt><trkpt lat="55.7998620" lon="49.1311830"><time>2021-08-14T08:48:41</time></trkpt><trkpt lat="55.7998660" lon="49.1312100"><time>2021-08-14T08:48:42</time></trkpt><trkpt lat="55.7998700" lon="49.1312350"><time>2021-08-14T08:48:43</time></trkpt><trkpt lat="55.7998710" lon="49.1312610"><time>2021-08-14T08:48:44</time></trkpt><trkpt lat="55.7998770" lon="49.1312860"><time>2021-08-14T08:48:45</time></trkpt><trkpt lat="55.7998820" lon="49.1313240"><time>2021-08-14T08:48:46</time></trkpt><trkpt lat="55.7998830" lon="49.1313390"><time>2021-08-14T08:48:47</time></trkpt><trkpt lat="55.7998840" lon="49.1313540"><time>2021-08-14T08:48:48</time></trkpt><trkpt lat="55.7998890" lon="49.1313790"><time>2021-08-14T08:48:49</time></trkpt><trkpt lat="55.7998930" lon="49.1314020"><time>2021-08-14T08:48:50</time></trkpt><trkpt lat="55.7998940" lon="49.1314280"><time>2021-08-14T08:48:51</time></trkpt><trkpt lat="55.7998930" lon="49.1314550"><time>2021-08-14T08:48:52</time></trkpt><trkpt lat="55.7998990" lon="49.1314790"><time>2021-08-14T08:48:53</time></trkpt><trkpt lat="55.7999030" lon="49.1315050"><time>2021-08-14T08:48:54</time></trkpt><trkpt lat="55.7999060" lon="49.1315410"><time>2021-08-14T08:48:55</time></trkpt><trkpt lat="55.7999070" lon="49.1315550"><time>2021-08-14T08:48:56</time></trkpt><trkpt lat="55.7999080" lon="49.1315700"><time>2021-08-14T08:48:57</time></trkpt><trkpt lat="55.7999080" lon="49.1315950"><time>2021-08-14T08:48:58</time></trkpt><trkpt lat="55.7999090" lon="49.1316210"><time>2021-08-14T08:48:59</time></trkpt><trkpt lat="55.7999160" lon="49.1316450"><time>2021-08-14T08:49:00</time></trkpt><trkpt lat="55.7999240" lon="49.1316650"><time>2021-08-14T08:49:01</time></trkpt><trkpt lat="55.7999270" lon="49.1316880"><time>2021-08-14T08:49:02</time></trkpt><trkpt lat="55.7999290" lon="49.1317140"><time>2021-08-14T08:49:03</time></trkpt><trkpt lat="55.7999310" lon="49.1317400"><time>2021-08-14T08:49:04</time></trkpt><trkpt lat="55.7999320" lon="49.1317640"><time>2021-08-14T08:49:05</time></trkpt><trkpt lat="55.7999340" lon="49.1317890"><time>2021-08-14T08:49:06</time></trkpt><trkpt lat="55.7999370" lon="49.1318130"><time>2021-08-14T08:49:07</time></trkpt><trkpt lat="55.7999390" lon="49.1318370"><time>2021-08-14T08:49:08</time></trkpt><trkpt lat="55.7999410" lon="49.1318630"><time>2021-08-14T08:49:09</time></trkpt><trkpt lat="55.7999470" lon="49.1319000"><time>2021-08-14T08:49:10</time></trkpt><trkpt lat="55.7999500" lon="49.1319140"><time>2021-08-14T08:49:11</time></trkpt><trkpt lat="55.7999520" lon="49.1319290"><time>2021-08-14T08:49:12</time></trkpt><trkpt lat="55.7999570" lon="49.1319670"><time>2021-08-14T08:49:13</time></trkpt><trkpt lat="55.7999580" lon="49.1319830"><time>2021-08-14T08:49:14</time></trkpt><trkpt lat="55.7999600" lon="49.1319980"><time>2021-08-14T08:49:15</time></trkpt><trkpt lat="55.7999630" lon="49.1320210"><time>2021-08-14T08:49:16</time></trkpt><trkpt lat="55.7999690" lon="49.1320450"><time>2021-08-14T08:49:17</time></trkpt><trkpt lat="55.7999730" lon="49.1320680"><time>2021-08-14T08:49:18</time></trkpt><trkpt lat="55.7999730" lon="49.1320920"><time>2021-08-14T08:49:19</time></trkpt><trkpt lat="55.7999760" lon="49.1321160"><time>2021-08-14T08:49:20</time></trkpt><trkpt lat="55.7999770" lon="49.1321410"><time>2021-08-14T08:49:21</time></trkpt><trkpt lat="55.7999800" lon="49.1321660"><time>2021-08-14T08:49:22</time></trkpt><trkpt lat="55.7999860" lon="49.1321910"><time>2021-08-14T08:49:23</time></trkpt><trkpt lat="55.7999900" lon="49.1322150"><time>2021-08-14T08:49:24</time></trkpt><trkpt lat="55.7999940" lon="49.1322390"><time>2021-08-14T08:49:25</time></trkpt><trkpt lat="55.7999990" lon="49.1322640"><time>2021-08-14T08:49:26</time></trkpt><trkpt lat="55.8000030" lon="49.1322890"><time>2021-08-14T08:49:27</time></trkpt><trkpt lat="55.8000060" lon="49.1323140"><time>2021-08-14T08:49:28</time></trkpt><trkpt lat="55.8000110" lon="49.1323410"><time>2021-08-14T08:49:29</time></trkpt><trkpt lat="55.8000150" lon="49.1323670"><time>2021-08-14T08:49:30</time></trkpt><trkpt lat="55.8000180" lon="49.1323950"><time>2021-08-14T08:49:31</time></trkpt><trkpt lat="55.8000200" lon="49.1324210"><time>2021-08-14T08:49:32</time></trkpt><trkpt lat="55.8000250" lon="49.1324440"><time>2021-08-14T08:49:33</time></trkpt><trkpt lat="55.8000350" lon="49.1324600"><time>2021-08-14T08:49:34</time></trkpt><trkpt lat="55.8000440" lon="49.1324830"><time>2021-08-14T08:49:35</time></trkpt><trkpt lat="55.8000380" lon="49.1325170"><time>2021-08-14T08:49:36</time></trkpt><trkpt lat="55.8000460" lon="49.1325400"><time>2021-08-14T08:49:37</time></trkpt><trkpt lat="55.8000590" lon="49.1325600"><time>2021-08-14T08:49:38</time></trkpt><trkpt lat="55.8000670" lon="49.1325810"><time>2021-08-14T08:49:39</time></trkpt><trkpt lat="55.8000820" lon="49.1325880"><time>2021-08-14T08:49:40</time></trkpt><trkpt lat="55.8000950" lon="49.1326040"><time>2021-08-14T08:49:41</time></trkpt><trkpt lat="55.8001060" lon="49.1326190"><time>2021-08-14T08:49:42</time></trkpt><trkpt lat="55.8001140" lon="49.1326510"><time>2021-08-14T08:49:43</time></trkpt><trkpt lat="55.8001280" lon="49.1326660"><time>2021-08-14T08:49:44</time></trkpt><trkpt lat="55.8001390" lon="49.1326910"><time>2021-08-14T08:49:45</time></trkpt><trkpt lat="55.8001520" lon="49.1327400"><time>2021-08-14T08:49:46</time></trkpt><trkpt lat="55.8001580" lon="49.1327500"><time>2021-08-14T08:49:47</time></trkpt><trkpt lat="55.8001760" lon="49.1327660"><time>2021-08-14T08:49:48</time></trkpt><trkpt lat="55.8001860" lon="49.1327850"><time>2021-08-14T08:49:49</time></trkpt><trkpt lat="55.8002010" lon="49.1328040"><time>2021-08-14T08:49:50</time></trkpt><trkpt lat="55.8002050" lon="49.1328150"><time>2021-08-14T08:49:51</time></trkpt><trkpt lat="55.8002080" lon="49.1328270"><time>2021-08-14T08:49:52</time></trkpt><trkpt lat="55.8002120" lon="49.1328380"><time>2021-08-14T08:49:53</time></trkpt><trkpt lat="55.8002250" lon="49.1328580"><time>2021-08-14T08:49:54</time></trkpt><trkpt lat="55.8002370" lon="49.1328830"><time>2021-08-14T08:49:55</time></trkpt><trkpt lat="55.8002610" lon="49.1329190"><time>2021-08-14T08:49:56</time></trkpt><trkpt lat="55.8002660" lon="49.1329280"><time>2021-08-14T08:49:57</time></trkpt><trkpt lat="55.8002710" lon="49.1329490"><time>2021-08-14T08:49:58</time></trkpt><trkpt lat="55.8002800" lon="49.1329700"><time>2021-08-14T08:49:59</time></trkpt><trkpt lat="55.8002900" lon="49.1329960"><time>2021-08-14T08:50:00</time></trkpt><trkpt lat="55.8003040" lon="49.1330180"><time>2021-08-14T08:50:01</time></trkpt><trkpt lat="55.8003130" lon="49.1330370"><time>2021-08-14T08:50:02</time></trkpt><trkpt lat="55.8003230" lon="49.1330540"><time>2021-08-14T08:50:03</time></trkpt><trkpt lat="55.8003410" lon="49.1330750"><time>2021-08-14T08:50:04</time></trkpt><trkpt lat="55.8003490" lon="49.1330840"><time>2021-08-14T08:50:05</time></trkpt><trkpt lat="55.8003580" lon="49.1330920"><time>2021-08-14T08:50:06</time></trkpt><trkpt lat="55.8003740" lon="49.1330970"><time>2021-08-14T08:50:07</time></trkpt><trkpt lat="55.8003910" lon="49.1331110"><time>2021-08-14T08:50:08</time></trkpt><trkpt lat="55.8004020" lon="49.1331260"><time>2021-08-14T08:50:09</time></trkpt><trkpt lat="55.8004080" lon="49.1331510"><time>2021-08-14T08:50:10</time></trkpt><trkpt lat="55.8004150" lon="49.1331680"><time>2021-08-14T08:50:11</time></trkpt><trkpt lat="55.8004270" lon="49.1331900"><time>2021-08-14T08:50:12</time></trkpt><trkpt lat="55.8004370" lon="49.1332080"><time>2021-08-14T08:50:13</time></trkpt><trkpt lat="55.8004420" lon="49.1332310"><time>2021-08-14T08:50:14</time></trkpt><trkpt lat="55.8004520" lon="49.1332450"><time>2021-08-14T08:50:15</time></trkpt><trkpt lat="55.8004600" lon="49.1332720"><time>2021-08-14T08:50:16</time></trkpt><trkpt lat="55.8004710" lon="49.1332900"><time>2021-08-14T08:50:17</time></trkpt><trkpt lat="55.8004770" lon="49.1333150"><time>2021-08-14T08:50:18</time></trkpt><trkpt lat="55.8004880" lon="49.1333420"><time>2021-08-14T08:50:19</time></trkpt><trkpt lat="55.8004890" lon="49.1333670"><time>2021-08-14T08:50:20</time></trkpt><trkpt lat="55.8005020" lon="49.1333920"><time>2021-08-14T08:50:21</time></trkpt><trkpt lat="55.8005150" lon="49.1333990"><time>2021-08-14T08:50:22</time></trkpt><trkpt lat="55.8005330" lon="49.1334080"><time>2021-08-14T08:50:23</time></trkpt><trkpt lat="55.8005460" lon="49.1334180"><time>2021-08-14T08:50:24</time></trkpt><trkpt lat="55.8005510" lon="49.1334510"><time>2021-08-14T08:50:25</time></trkpt><trkpt lat="55.8005620" lon="49.1334660"><time>2021-08-14T08:50:26</time></trkpt><trkpt lat="55.8005650" lon="49.1334880"><time>2021-08-14T08:50:27</time></trkpt><trkpt lat="55.8005710" lon="49.1335160"><time>2021-08-14T08:50:28</time></trkpt><trkpt lat="55.8005840" lon="49.1335290"><time>2021-08-14T08:50:29</time></trkpt><trkpt lat="55.8005930" lon="49.1335550"><time>2021-08-14T08:50:30</time></trkpt><trkpt lat="55.8005970" lon="49.1335800"><time>2021-08-14T08:50:31</time></trkpt><trkpt lat="55.8006030" lon="49.1336070"><time>2021-08-14T08:50:32</time></trkpt><trkpt lat="55.8006110" lon="49.1336310"><time>2021-08-14T08:50:33</time></trkpt><trkpt lat="55.8006200" lon="49.1336450"><time>2021-08-14T08:50:34</time></trkpt><trkpt lat="55.8006350" lon="49.1336580"><time>2021-08-14T08:50:35</time></trkpt><trkpt lat="55.8006450" lon="49.1336700"><time>2021-08-14T08:50:36</time></trkpt><trkpt lat="55.8006650" lon="49.1336530"><time>2021-08-14T08:50:37</time></trkpt><trkpt lat="55.8006710" lon="49.1336460"><time>2021-08-14T08:50:38</time></trkpt><trkpt lat="55.8006780" lon="49.1336400"><time>2021-08-14T08:50:39</time></trkpt><trkpt lat="55.8006870" lon="49.1336290"><time>2021-08-14T08:50:40</time></trkpt><trkpt lat="55.8006950" lon="49.1336220"><time>2021-08-14T08:50:41</time></trkpt><trkpt lat="55.8007010" lon="49.1336020"><time>2021-08-14T08:50:42</time></trkpt><trkpt lat="55.8007100" lon="49.1335840"><time>2021-08-14T08:50:43</time></trkpt><trkpt lat="55.8007210" lon="49.1335710"><time>2021-08-14T08:50:44</time></trkpt><trkpt lat="55.8007420" lon="49.1335700"><time>2021-08-14T08:50:45</time></trkpt><trkpt lat="55.8007500" lon="49.1335740"><time>2021-08-14T08:50:46</time></trkpt><trkpt lat="55.8007580" lon="49.1335780"><time>2021-08-14T08:50:47</time></trkpt><trkpt lat="55.8007630" lon="49.1335900"><time>2021-08-14T08:50:48</time></trkpt><trkpt lat="55.8007770" lon="49.1335940"><time>2021-08-14T08:50:49</time></trkpt><trkpt lat="55.8007870" lon="49.1336100"><time>2021-08-14T08:50:50</time></trkpt><trkpt lat="55.8007980" lon="49.1336150"><time>2021-08-14T08:50:51</time></trkpt><trkpt lat="55.8008140" lon="49.1336220"><time>2021-08-14T08:50:52</time></trkpt><trkpt lat="55.8008320" lon="49.1336410"><time>2021-08-14T08:50:53</time></trkpt><trkpt lat="55.8008390" lon="49.1336470"><time>2021-08-14T08:50:54</time></trkpt><trkpt lat="55.8008470" lon="49.1336530"><time>2021-08-14T08:50:55</time></trkpt><trkpt lat="55.8008510" lon="49.1337030"><time>2021-08-14T08:50:56</time></trkpt><trkpt lat="55.8008490" lon="49.1337220"><time>2021-08-14T08:50:57</time></trkpt><trkpt lat="55.8008350" lon="49.1337480"><time>2021-08-14T08:50:58</time></trkpt><trkpt lat="55.8008270" lon="49.1337670"><time>2021-08-14T08:50:59</time></trkpt><trkpt lat="55.8008180" lon="49.1337900"><time>2021-08-14T08:51:00</time></trkpt><trkpt lat="55.8008110" lon="49.1338130"><time>2021-08-14T08:51:01</time></trkpt><trkpt lat="55.8008020" lon="49.1338360"><time>2021-08-14T08:51:02</time></trkpt><trkpt lat="55.8007980" lon="49.1338590"><time>2021-08-14T08:51:03</time></trkpt><trkpt lat="55.8007920" lon="49.1338810"><time>2021-08-14T08:51:04</time></trkpt><trkpt lat="55.8007850" lon="49.1339040"><time>2021-08-14T08:51:05</time></trkpt><trkpt lat="55.8007760" lon="49.1339230"><time>2021-08-14T08:51:06</time></trkpt><trkpt lat="55.8007660" lon="49.1339390"><time>2021-08-14T08:51:07</time></trkpt><trkpt lat="55.8007520" lon="49.1339570"><time>2021-08-14T08:51:08</time></trkpt><trkpt lat="55.8007430" lon="49.1339780"><time>2021-08-14T08:51:09</time></trkpt><trkpt lat="55.8007350" lon="49.1340030"><time>2021-08-14T08:51:10</time></trkpt><trkpt lat="55.8007290" lon="49.1340230"><time>2021-08-14T08:51:11</time></trkpt><trkpt lat="55.8007160" lon="49.1340420"><time>2021-08-14T08:51:12</time></trkpt><trkpt lat="55.8007040" lon="49.1340640"><time>2021-08-14T08:51:13</time></trkpt><trkpt lat="55.8006930" lon="49.1340850"><time>2021-08-14T08:51:14</time></trkpt><trkpt lat="55.8006840" lon="49.1341040"><time>2021-08-14T08:51:15</time></trkpt><trkpt lat="55.8006770" lon="49.1341260"><time>2021-08-14T08:51:16</time></trkpt><trkpt lat="55.8006710" lon="49.1341480"><time>2021-08-14T08:51:17</time></trkpt><trkpt lat="55.8006580" lon="49.1341650"><time>2021-08-14T08:51:18</time></trkpt><trkpt lat="55.8006530" lon="49.1341880"><time>2021-08-14T08:51:19</time></trkpt><trkpt lat="55.8006470" lon="49.1342130"><time>2021-08-14T08:51:20</time></trkpt><trkpt lat="55.8006410" lon="49.1342360"><time>2021-08-14T08:51:21</time></trkpt><trkpt lat="55.8006290" lon="49.1342670"><time>2021-08-14T08:51:22</time></trkpt><trkpt lat="55.8006250" lon="49.1342810"><time>2021-08-14T08:51:23</time></trkpt><trkpt lat="55.8006210" lon="49.1342950"><time>2021-08-14T08:51:24</time></trkpt><trkpt lat="55.8006120" lon="49.1343180"><time>2021-08-14T08:51:25</time></trkpt><trkpt lat="55.8006020" lon="49.1343330"><time>2021-08-14T08:51:26</time></trkpt><trkpt lat="55.8005940" lon="49.1343570"><time>2021-08-14T08:51:27</time></trkpt><trkpt lat="55.8005870" lon="49.1343830"><time>2021-08-14T08:51:28</time></trkpt><trkpt lat="55.8005800" lon="49.1344040"><time>2021-08-14T08:51:29</time></trkpt><trkpt lat="55.8005790" lon="49.1344310"><time>2021-08-14T08:51:30</time></trkpt><trkpt lat="55.8005860" lon="49.1344580"><time>2021-08-14T08:51:31</time></trkpt><trkpt lat="55.8005860" lon="49.1344860"><time>2021-08-14T08:51:32</time></trkpt><trkpt lat="55.8005760" lon="49.1345130"><time>2021-08-14T08:51:33</time></trkpt><trkpt lat="55.8005760" lon="49.1345380"><time>2021-08-14T08:51:34</time></trkpt><trkpt lat="55.8005620" lon="49.1345660"><time>2021-08-14T08:51:35</time></trkpt><trkpt lat="55.8005570" lon="49.1345760"><time>2021-08-14T08:51:36</time></trkpt><trkpt lat="55.8005510" lon="49.1345860"><time>2021-08-14T08:51:37</time></trkpt><trkpt lat="55.8005440" lon="49.1346070"><time>2021-08-14T08:51:38</time></trkpt><trkpt lat="55.8005420" lon="49.1346370"><time>2021-08-14T08:51:39</time></trkpt><trkpt lat="55.8005430" lon="49.1346680"><time>2021-08-14T08:51:40</time></trkpt><trkpt lat="55.8005420" lon="49.1346980"><time>2021-08-14T08:51:41</time></trkpt><trkpt lat="55.8005390" lon="49.1347270"><time>2021-08-14T08:51:42</time></trkpt><trkpt lat="55.8005300" lon="49.1347520"><time>2021-08-14T08:51:43</time></trkpt><trkpt lat="55.8005240" lon="49.1347800"><time>2021-08-14T08:51:44</time></trkpt><trkpt lat="55.8005220" lon="49.1348070"><time>2021-08-14T08:51:45</time></trkpt><trkpt lat="55.8005240" lon="49.1348300"><time>2021-08-14T08:51:46</time></trkpt><trkpt lat="55.8005260" lon="49.1348560"><time>2021-08-14T08:51:47</time></trkpt><trkpt lat="55.8005260" lon="49.1348840"><time>2021-08-14T08:51:48</time></trkpt><trkpt lat="55.8005210" lon="49.1349050"><time>2021-08-14T08:51:49</time></trkpt><trkpt lat="55.8005160" lon="49.1349300"><time>2021-08-14T08:51:50</time></trkpt><trkpt lat="55.8005170" lon="49.1349590"><time>2021-08-14T08:51:51</time></trkpt><trkpt lat="55.8005040" lon="49.1349810"><time>2021-08-14T08:51:52</time></trkpt><trkpt lat="55.8004950" lon="49.1350080"><time>2021-08-14T08:51:53</time></trkpt><trkpt lat="55.8004890" lon="49.1350340"><time>2021-08-14T08:51:54</time></trkpt><trkpt lat="55.8004950" lon="49.1350660"><time>2021-08-14T08:51:55</time></trkpt><trkpt lat="55.8004940" lon="49.1350880"><time>2021-08-14T08:51:56</time></trkpt><trkpt lat="55.8004950" lon="49.1351180"><time>2021-08-14T08:51:57</time></trkpt><trkpt lat="55.8004960" lon="49.1351480"><time>2021-08-14T08:51:58</time></trkpt><trkpt lat="55.8004960" lon="49.1351750"><time>2021-08-14T08:51:59</time></trkpt><trkpt lat="55.8004910" lon="49.1352030"><time>2021-08-14T08:52:00</time></trkpt><trkpt lat="55.8004870" lon="49.1352290"><time>2021-08-14T08:52:01</time></trkpt><trkpt lat="55.8004870" lon="49.1352540"><time>2021-08-14T08:52:02</time></trkpt><trkpt lat="55.8004880" lon="49.1352860"><time>2021-08-14T08:52:03</time></trkpt><trkpt lat="55.8004840" lon="49.1353270"><time>2021-08-14T08:52:04</time></trkpt><trkpt lat="55.8004820" lon="49.1353410"><time>2021-08-14T08:52:05</time></trkpt><trkpt lat="55.8004800" lon="49.1353550"><time>2021-08-14T08:52:06</time></trkpt><trkpt lat="55.8004780" lon="49.1353810"><time>2021-08-14T08:52:07</time></trkpt><trkpt lat="55.8004760" lon="49.1354100"><time>2021-08-14T08:52:08</time></trkpt><trkpt lat="55.8004680" lon="49.1354310"><time>2021-08-14T08:52:09</time></trkpt><trkpt lat="55.8004650" lon="49.1354610"><time>2021-08-14T08:52:10</time></trkpt><trkpt lat="55.8004600" lon="49.1354900"><time>2021-08-14T08:52:11</time></trkpt><trkpt lat="55.8004590" lon="49.1355150"><time>2021-08-14T08:52:12</time></trkpt><trkpt lat="55.8004580" lon="49.1355410"><time>2021-08-14T08:52:13</time></trkpt><trkpt lat="55.8004530" lon="49.1355660"><time>2021-08-14T08:52:14</time></trkpt><trkpt lat="55.8004480" lon="49.1355910"><time>2021-08-14T08:52:15</time></trkpt><trkpt lat="55.8004500" lon="49.1356160"><time>2021-08-14T08:52:16</time></trkpt><trkpt lat="55.8004500" lon="49.1356470"><time>2021-08-14T08:52:17</time></trkpt><trkpt lat="55.8004440" lon="49.1356730"><time>2021-08-14T08:52:18</time></trkpt><trkpt lat="55.8004400" lon="49.1357020"><time>2021-08-14T08:52:19</time></trkpt><trkpt lat="55.8004380" lon="49.1357240"><time>2021-08-14T08:52:20</time></trkpt><trkpt lat="55.8004340" lon="49.1357460"><time>2021-08-14T08:52:21</time></trkpt><trkpt lat="55.8004360" lon="49.1357760"><time>2021-08-14T08:52:22</time></trkpt><trkpt lat="55.8004330" lon="49.1358060"><time>2021-08-14T08:52:23</time></trkpt><trkpt lat="55.8004310" lon="49.1358350"><time>2021-08-14T08:52:24</time></trkpt><trkpt lat="55.8004260" lon="49.1358630"><time>2021-08-14T08:52:25</time></trkpt><trkpt lat="55.8004230" lon="49.1358930"><time>2021-08-14T08:52:26</time></trkpt><trkpt lat="55.8004190" lon="49.1359180"><time>2021-08-14T08:52:27</time></trkpt><trkpt lat="55.8004160" lon="49.1359460"><time>2021-08-14T08:52:28</time></trkpt><trkpt lat="55.8004170" lon="49.1359720"><time>2021-08-14T08:52:29</time></trkpt><trkpt lat="55.8004120" lon="49.1359980"><time>2021-08-14T08:52:30</time></trkpt><trkpt lat="55.8004070" lon="49.1360280"><time>2021-08-14T08:52:31</time></trkpt><trkpt lat="55.8004070" lon="49.1360610"><time>2021-08-14T08:52:32</time></trkpt><trkpt lat="55.8004040" lon="49.1360890"><time>2021-08-14T08:52:33</time></trkpt><trkpt lat="55.8003960" lon="49.1361150"><time>2021-08-14T08:52:34</time></trkpt><trkpt lat="55.8003960" lon="49.1361460"><time>2021-08-14T08:52:35</time></trkpt><trkpt lat="55.8003950" lon="49.1361750"><time>2021-08-14T08:52:36</time></trkpt><trkpt lat="55.8003870" lon="49.1361960"><time>2021-08-14T08:52:37</time></trkpt><trkpt lat="55.8003820" lon="49.1362230"><time>2021-08-14T08:52:38</time></trkpt><trkpt lat="55.8003830" lon="49.1362640"><time>2021-08-14T08:52:39</time></trkpt><trkpt lat="55.8003810" lon="49.1362820"><time>2021-08-14T08:52:40</time></trkpt><trkpt lat="55.8003790" lon="49.1362990"><time>2021-08-14T08:52:41</time></trkpt><trkpt lat="55.8003720" lon="49.1363290"><time>2021-08-14T08:52:42</time></trkpt><trkpt lat="55.8003660" lon="49.1363540"><time>2021-08-14T08:52:43</time></trkpt><trkpt lat="55.8003670" lon="49.1363820"><time>2021-08-14T08:52:44</time></trkpt><trkpt lat="55.8003660" lon="49.1364090"><time>2021-08-14T08:52:45</time></trkpt><trkpt lat="55.8003620" lon="49.1364390"><time>2021-08-14T08:52:46</time></trkpt><trkpt lat="55.8003590" lon="49.1364660"><time>2021-08-14T08:52:47</time></trkpt><trkpt lat="55.8003560" lon="49.1364870"><time>2021-08-14T08:52:48</time></trkpt><trkpt lat="55.8003510" lon="49.1365140"><time>2021-08-14T08:52:49</time></trkpt><trkpt lat="55.8003510" lon="49.1365410"><time>2021-08-14T08:52:50</time></trkpt><trkpt lat="55.8003510" lon="49.1365730"><time>2021-08-14T08:52:51</time></trkpt><trkpt lat="55.8003510" lon="49.1365980"><time>2021-08-14T08:52:52</time></trkpt><trkpt lat="55.8003470" lon="49.1366230"><time>2021-08-14T08:52:53</time></trkpt><trkpt lat="55.8003410" lon="49.1366460"><time>2021-08-14T08:52:54</time></trkpt><trkpt lat="55.8003360" lon="49.1366780"><time>2021-08-14T08:52:55</time></trkpt><trkpt lat="55.8003300" lon="49.1367040"><time>2021-08-14T08:52:56</time></trkpt><trkpt lat="55.8003290" lon="49.1367340"><time>2021-08-14T08:52:57</time></trkpt><trkpt lat="55.8003260" lon="49.1367650"><time>2021-08-14T08:52:58</time></trkpt><trkpt lat="55.8003230" lon="49.1367890"><time>2021-08-14T08:52:59</time></trkpt><trkpt lat="55.8003170" lon="49.1368170"><time>2021-08-14T08:53:00</time></trkpt><trkpt lat="55.8003120" lon="49.1368460"><time>2021-08-14T08:53:01</time></trkpt><trkpt lat="55.8003130" lon="49.1368750"><time>2021-08-14T08:53:02</time></trkpt><trkpt lat="55.8003100" lon="49.1369020"><time>2021-08-14T08:53:03</time></trkpt><trkpt lat="55.8003010" lon="49.1369290"><time>2021-08-14T08:53:04</time></trkpt><trkpt lat="55.8003030" lon="49.1369560"><time>2021-08-14T08:53:05</time></trkpt><trkpt lat="55.8003020" lon="49.1369870"><time>2021-08-14T08:53:06</time></trkpt><trkpt lat="55.8002960" lon="49.1370120"><time>2021-08-14T08:53:07</time></trkpt><trkpt lat="55.8002930" lon="49.1370370"><time>2021-08-14T08:53:08</time></trkpt><trkpt lat="55.8002930" lon="49.1370600"><time>2021-08-14T08:53:09</time></trkpt><trkpt lat="55.8002940" lon="49.1370950"><time>2021-08-14T08:53:10</time></trkpt><trkpt lat="55.8002900" lon="49.1371230"><time>2021-08-14T08:53:11</time></trkpt><trkpt lat="55.8002880" lon="49.1371530"><time>2021-08-14T08:53:12</time></trkpt><trkpt lat="55.8002890" lon="49.1371780"><time>2021-08-14T08:53:13</time></trkpt><trkpt lat="55.8002960" lon="49.1372010"><time>2021-08-14T08:53:14</time></trkpt><trkpt lat="55.8002970" lon="49.1372320"><time>2021-08-14T08:53:15</time></trkpt><trkpt lat="55.8002930" lon="49.1372620"><time>2021-08-14T08:53:16</time></trkpt><trkpt lat="55.8002900" lon="49.1372900"><time>2021-08-14T08:53:17</time></trkpt><trkpt lat="55.8002910" lon="49.1373150"><time>2021-08-14T08:53:18</time></trkpt><trkpt lat="55.8002940" lon="49.1373400"><time>2021-08-14T08:53:19</time></trkpt><trkpt lat="55.8003020" lon="49.1373560"><time>2021-08-14T08:53:20</time></trkpt><trkpt lat="55.8003110" lon="49.1373840"><time>2021-08-14T08:53:21</time></trkpt><trkpt lat="55.8003190" lon="49.1374230"><time>2021-08-14T08:53:22</time></trkpt><trkpt lat="55.8003230" lon="49.1374390"><time>2021-08-14T08:53:23</time></trkpt><trkpt lat="55.8003260" lon="49.1374550"><time>2021-08-14T08:53:24</time></trkpt><trkpt lat="55.8003280" lon="49.1374820"><time>2021-08-14T08:53:25</time></trkpt><trkpt lat="55.8003300" lon="49.1375040"><time>2021-08-14T08:53:26</time></trkpt><trkpt lat="55.8003420" lon="49.1375190"><time>2021-08-14T08:53:27</time></trkpt><trkpt lat="55.8003440" lon="49.1375210"><time>2021-08-14T08:53:28</time></trkpt><trkpt lat="55.8003470" lon="49.1375450"><time>2021-08-14T08:53:29</time></trkpt><trkpt lat="55.8003540" lon="49.1375950"><time>2021-08-14T08:53:30</time></trkpt><trkpt lat="55.8003560" lon="49.1376090"><time>2021-08-14T08:53:31</time></trkpt><trkpt lat="55.8003700" lon="49.1376500"><time>2021-08-14T08:53:32</time></trkpt><trkpt lat="55.8003740" lon="49.1376660"><time>2021-08-14T08:53:33</time></trkpt><trkpt lat="55.8003790" lon="49.1376890"><time>2021-08-14T08:53:34</time></trkpt><trkpt lat="55.8003850" lon="49.1377190"><time>2021-08-14T08:53:35</time></trkpt><trkpt lat="55.8003920" lon="49.1377420"><time>2021-08-14T08:53:36</time></trkpt><trkpt lat="55.8004110" lon="49.1377490"><time>2021-08-14T08:53:37</time></trkpt><trkpt lat="55.8004290" lon="49.1377560"><time>2021-08-14T08:53:38</time></trkpt><trkpt lat="55.8004320" lon="49.1377720"><time>2021-08-14T08:53:39</time></trkpt><trkpt lat="55.8004400" lon="49.1377840"><time>2021-08-14T08:53:40</time></trkpt><trkpt lat="55.8004500" lon="49.1378130"><time>2021-08-14T08:53:41</time></trkpt><trkpt lat="55.8004600" lon="49.1378370"><time>2021-08-14T08:53:42</time></trkpt><trkpt lat="55.8004690" lon="49.1378950"><time>2021-08-14T08:53:43</time></trkpt><trkpt lat="55.8004710" lon="49.1379160"><time>2021-08-14T08:53:44</time></trkpt><trkpt lat="55.8004780" lon="49.1379680"><time>2021-08-14T08:53:45</time></trkpt><trkpt lat="55.8004810" lon="49.1379830"><time>2021-08-14T08:53:46</time></trkpt><trkpt lat="55.8004940" lon="49.1380080"><time>2021-08-14T08:53:47</time></trkpt><trkpt lat="55.8005020" lon="49.1380270"><time>2021-08-14T08:53:48</time></trkpt><trkpt lat="55.8005130" lon="49.1380460"><time>2021-08-14T08:53:49</time></trkpt><trkpt lat="55.8005260" lon="49.1380670"><time>2021-08-14T08:53:50</time></trkpt><trkpt lat="55.8005370" lon="49.1380970"><time>2021-08-14T08:53:51</time></trkpt><trkpt lat="55.8005370" lon="49.1381160"><time>2021-08-14T08:53:52</time></trkpt><trkpt lat="55.8005380" lon="49.1381350"><time>2021-08-14T08:53:53</time></trkpt><trkpt lat="55.8005330" lon="49.1381690"><time>2021-08-14T08:53:54</time></trkpt><trkpt lat="55.8005340" lon="49.1381950"><time>2021-08-14T08:53:55</time></trkpt><trkpt lat="55.8005350" lon="49.1382440"><time>2021-08-14T08:53:56</time></trkpt><trkpt lat="55.8005350" lon="49.1382600"><time>2021-08-14T08:53:57</time></trkpt><trkpt lat="55.8005460" lon="49.1383100"><time>2021-08-14T08:53:58</time></trkpt><trkpt lat="55.8005500" lon="49.1383280"><time>2021-08-14T08:53:59</time></trkpt><trkpt lat="55.8005730" lon="49.1383680"><time>2021-08-14T08:54:00</time></trkpt><trkpt lat="55.8005810" lon="49.1383800"><time>2021-08-14T08:54:01</time></trkpt><trkpt lat="55.8005920" lon="49.1383990"><time>2021-08-14T08:54:02</time></trkpt><trkpt lat="55.8006030" lon="49.1384160"><time>2021-08-14T08:54:03</time></trkpt><trkpt lat="55.8006280" lon="49.1384630"><time>2021-08-14T08:54:04</time></trkpt><trkpt lat="55.8006280" lon="49.1384750"><time>2021-08-14T08:54:05</time></trkpt><trkpt lat="55.8006290" lon="49.1384870"><time>2021-08-14T08:54:06</time></trkpt><trkpt lat="55.8006390" lon="49.1384790"><time>2021-08-14T08:54:07</time></trkpt><trkpt lat="55.8006460" lon="49.1385030"><time>2021-08-14T08:54:08</time></trkpt><trkpt lat="55.8006550" lon="49.1385410"><time>2021-08-14T08:54:09</time></trkpt><trkpt lat="55.8006590" lon="49.1385550"><time>2021-08-14T08:54:10</time></trkpt><trkpt lat="55.8006640" lon="49.1385700"><time>2021-08-14T08:54:11</time></trkpt><trkpt lat="55.8006670" lon="49.1386040"><time>2021-08-14T08:54:12</time></trkpt><trkpt lat="55.8006700" lon="49.1386240"><time>2021-08-14T08:54:13</time></trkpt><trkpt lat="55.8006830" lon="49.1386740"><time>2021-08-14T08:54:14</time></trkpt><trkpt lat="55.8006860" lon="49.1386910"><time>2021-08-14T08:54:15</time></trkpt><trkpt lat="55.8006800" lon="49.1387430"><time>2021-08-14T08:54:16</time></trkpt><trkpt lat="55.8006840" lon="49.1387570"><time>2021-08-14T08:54:17</time></trkpt><trkpt lat="55.8006840" lon="49.1387880"><time>2021-08-14T08:54:18</time></trkpt><trkpt lat="55.8006950" lon="49.1388110"><time>2021-08-14T08:54:19</time></trkpt><trkpt lat="55.8007100" lon="49.1388380"><time>2021-08-14T08:54:20</time></trkpt><trkpt lat="55.8007160" lon="49.1388640"><time>2021-08-14T08:54:21</time></trkpt><trkpt lat="55.8007270" lon="49.1388840"><time>2021-08-14T08:54:22</time></trkpt><trkpt lat="55.8007370" lon="49.1388970"><time>2021-08-14T08:54:23</time></trkpt><trkpt lat="55.8007510" lon="49.1389260"><time>2021-08-14T08:54:24</time></trkpt><trkpt lat="55.8007590" lon="49.1389360"><time>2021-08-14T08:54:25</time></trkpt><trkpt lat="55.8007670" lon="49.1389470"><time>2021-08-14T08:54:26</time></trkpt><trkpt lat="55.8007790" lon="49.1389740"><time>2021-08-14T08:54:27</time></trkpt><trkpt lat="55.8007870" lon="49.1389870"><time>2021-08-14T08:54:28</time></trkpt><trkpt lat="55.8007940" lon="49.1389990"><time>2021-08-14T08:54:29</time></trkpt><trkpt lat="55.8008000" lon="49.1390280"><time>2021-08-14T08:54:30</time></trkpt><trkpt lat="55.8008090" lon="49.1390490"><time>2021-08-14T08:54:31</time></trkpt><trkpt lat="55.8008160" lon="49.1390720"><time>2021-08-14T08:54:32</time></trkpt><trkpt lat="55.8008250" lon="49.1390960"><time>2021-08-14T08:54:33</time></trkpt><trkpt lat="55.8008310" lon="49.1391150"><time>2021-08-14T08:54:34</time></trkpt><trkpt lat="55.8008400" lon="49.1391390"><time>2021-08-14T08:54:35</time></trkpt><trkpt lat="55.8008450" lon="49.1391550"><time>2021-08-14T08:54:36</time></trkpt><trkpt lat="55.8008500" lon="49.1391720"><time>2021-08-14T08:54:37</time></trkpt><trkpt lat="55.8008600" lon="49.1391760"><time>2021-08-14T08:54:38</time></trkpt><trkpt lat="55.8008700" lon="49.1392070"><time>2021-08-14T08:54:39</time></trkpt><trkpt lat="55.8008730" lon="49.1392300"><time>2021-08-14T08:54:40</time></trkpt><trkpt lat="55.8008840" lon="49.1392660"><time>2021-08-14T08:54:41</time></trkpt><trkpt lat="55.8008900" lon="49.1392800"><time>2021-08-14T08:54:42</time></trkpt><trkpt lat="55.8008960" lon="49.1392940"><time>2021-08-14T08:54:43</time></trkpt><trkpt lat="55.8009050" lon="49.1393110"><time>2021-08-14T08:54:44</time></trkpt><trkpt lat="55.8009110" lon="49.1393290"><time>2021-08-14T08:54:45</time></trkpt><trkpt lat="55.8009150" lon="49.1393310"><time>2021-08-14T08:54:46</time></trkpt><trkpt lat="55.8009290" lon="49.1393740"><time>2021-08-14T08:54:47</time></trkpt><trkpt lat="55.8009360" lon="49.1393950"><time>2021-08-14T08:54:48</time></trkpt><trkpt lat="55.8009440" lon="49.1394150"><time>2021-08-14T08:54:49</time></trkpt><trkpt lat="55.8009490" lon="49.1394660"><time>2021-08-14T08:54:50</time></trkpt><trkpt lat="55.8009480" lon="49.1394870"><time>2021-08-14T08:54:51</time></trkpt><trkpt lat="55.8009540" lon="49.1395120"><time>2021-08-14T08:54:52</time></trkpt><trkpt lat="55.8009660" lon="49.1395340"><time>2021-08-14T08:54:53</time></trkpt><trkpt lat="55.8009760" lon="49.1395570"><time>2021-08-14T08:54:54</time></trkpt><trkpt lat="55.8009860" lon="49.1395800"><time>2021-08-14T08:54:55</time></trkpt><trkpt lat="55.8009940" lon="49.1396050"><time>2021-08-14T08:54:56</time></trkpt><trkpt lat="55.8010000" lon="49.1396310"><time>2021-08-14T08:54:57</time></trkpt><trkpt lat="55.8010110" lon="49.1396450"><time>2021-08-14T08:54:58</time></trkpt><trkpt lat="55.8010190" lon="49.1396700"><time>2021-08-14T08:54:59</time></trkpt><trkpt lat="55.8010310" lon="49.1396890"><time>2021-08-14T08:55:00</time></trkpt><trkpt lat="55.8010390" lon="49.1397170"><time>2021-08-14T08:55:01</time></trkpt><trkpt lat="55.8010480" lon="49.1397410"><time>2021-08-14T08:55:02</time></trkpt><trkpt lat="55.8010570" lon="49.1397670"><time>2021-08-14T08:55:03</time></trkpt><trkpt lat="55.8010640" lon="49.1397910"><time>2021-08-14T08:55:04</time></trkpt><trkpt lat="55.8010720" lon="49.1398110"><time>2021-08-14T08:55:05</time></trkpt><trkpt lat="55.8010760" lon="49.1398450"><time>2021-08-14T08:55:06</time></trkpt><trkpt lat="55.8010860" lon="49.1398660"><time>2021-08-14T08:55:07</time></trkpt><trkpt lat="55.8010940" lon="49.1398920"><time>2021-08-14T08:55:08</time></trkpt><trkpt lat="55.8011030" lon="49.1399100"><time>2021-08-14T08:55:09</time></trkpt><trkpt lat="55.8011170" lon="49.1399150"><time>2021-08-14T08:55:10</time></trkpt><trkpt lat="55.8011350" lon="49.1399090"><time>2021-08-14T08:55:11</time></trkpt><trkpt lat="55.8011480" lon="49.1398970"><time>2021-08-14T08:55:12</time></trkpt><trkpt lat="55.8011620" lon="49.1398890"><time>2021-08-14T08:55:13</time></trkpt><trkpt lat="55.8011750" lon="49.1398850"><time>2021-08-14T08:55:14</time></trkpt><trkpt lat="55.8011880" lon="49.1398790"><time>2021-08-14T08:55:15</time></trkpt><trkpt lat="55.8012020" lon="49.1398690"><time>2021-08-14T08:55:16</time></trkpt><trkpt lat="55.8012150" lon="49.1398640"><time>2021-08-14T08:55:17</time></trkpt><trkpt lat="55.8012280" lon="49.1398570"><time>2021-08-14T08:55:18</time></trkpt><trkpt lat="55.8012420" lon="49.1398480"><time>2021-08-14T08:55:19</time></trkpt><trkpt lat="55.8012550" lon="49.1398400"><time>2021-08-14T08:55:20</time></trkpt><trkpt lat="55.8012680" lon="49.1398300"><time>2021-08-14T08:55:21</time></trkpt><trkpt lat="55.8012840" lon="49.1398220"><time>2021-08-14T08:55:22</time></trkpt><trkpt lat="55.8012970" lon="49.1398080"><time>2021-08-14T08:55:23</time></trkpt><trkpt lat="55.8013100" lon="49.1397920"><time>2021-08-14T08:55:24</time></trkpt><trkpt lat="55.8013250" lon="49.1397810"><time>2021-08-14T08:55:25</time></trkpt><trkpt lat="55.8013390" lon="49.1397740"><time>2021-08-14T08:55:26</time></trkpt><trkpt lat="55.8013520" lon="49.1397540"><time>2021-08-14T08:55:27</time></trkpt><trkpt lat="55.8013670" lon="49.1397470"><time>2021-08-14T08:55:28</time></trkpt><trkpt lat="55.8013810" lon="49.1397370"><time>2021-08-14T08:55:29</time></trkpt><trkpt lat="55.8013940" lon="49.1397300"><time>2021-08-14T08:55:31</time></trkpt><trkpt lat="55.8014070" lon="49.1397200"><time>2021-08-14T08:55:32</time></trkpt><trkpt lat="55.8014210" lon="49.1397110"><time>2021-08-14T08:55:33</time></trkpt><trkpt lat="55.8014350" lon="49.1397000"><time>2021-08-14T08:55:34</time></trkpt><trkpt lat="55.8014470" lon="49.1396920"><time>2021-08-14T08:55:35</time></trkpt><trkpt lat="55.8014610" lon="49.1396880"><time>2021-08-14T08:55:36</time></trkpt><trkpt lat="55.8014750" lon="49.1396800"><time>2021-08-14T08:55:37</time></trkpt><trkpt lat="55.8014900" lon="49.1396730"><time>2021-08-14T08:55:38</time></trkpt><trkpt lat="55.8015010" lon="49.1396600"><time>2021-08-14T08:55:39</time></trkpt><trkpt lat="55.8015150" lon="49.1396550"><time>2021-08-14T08:55:40</time></trkpt><trkpt lat="55.8015280" lon="49.1396440"><time>2021-08-14T08:55:41</time></trkpt><trkpt lat="55.8015400" lon="49.1396360"><time>2021-08-14T08:55:42</time></trkpt><trkpt lat="55.8015540" lon="49.1396270"><time>2021-08-14T08:55:43</time></trkpt><trkpt lat="55.8015670" lon="49.1396220"><time>2021-08-14T08:55:44</time></trkpt><trkpt lat="55.8015800" lon="49.1396130"><time>2021-08-14T08:55:45</time></trkpt><trkpt lat="55.8015940" lon="49.1396080"><time>2021-08-14T08:55:46</time></trkpt><trkpt lat="55.8016110" lon="49.1396020"><time>2021-08-14T08:55:47</time></trkpt><trkpt lat="55.8016240" lon="49.1395850"><time>2021-08-14T08:55:48</time></trkpt><trkpt lat="55.8016400" lon="49.1395820"><time>2021-08-14T08:55:49</time></trkpt><trkpt lat="55.8016550" lon="49.1395780"><time>2021-08-14T08:55:50</time></trkpt><trkpt lat="55.8016690" lon="49.1395700"><time>2021-08-14T08:55:51</time></trkpt><trkpt lat="55.8016870" lon="49.1395630"><time>2021-08-14T08:55:52</time></trkpt><trkpt lat="55.8017000" lon="49.1395550"><time>2021-08-14T08:55:53</time></trkpt><trkpt lat="55.8017130" lon="49.1395490"><time>2021-08-14T08:55:54</time></trkpt><trkpt lat="55.8017270" lon="49.1395400"><time>2021-08-14T08:55:55</time></trkpt><trkpt lat="55.8017420" lon="49.1395340"><time>2021-08-14T08:55:56</time></trkpt><trkpt lat="55.8017730" lon="49.1395220"><time>2021-08-14T08:55:57</time></trkpt><trkpt lat="55.8017770" lon="49.1395160"><time>2021-08-14T08:55:58</time></trkpt><trkpt lat="55.8017930" lon="49.1395120"><time>2021-08-14T08:55:59</time></trkpt><trkpt lat="55.8018070" lon="49.1394980"><time>2021-08-14T08:56:00</time></trkpt><trkpt lat="55.8018230" lon="49.1394900"><time>2021-08-14T08:56:01</time></trkpt><trkpt lat="55.8018360" lon="49.1394740"><time>2021-08-14T08:56:02</time></trkpt><trkpt lat="55.8018520" lon="49.1394550"><time>2021-08-14T08:56:03</time></trkpt><trkpt lat="55.8018690" lon="49.1394460"><time>2021-08-14T08:56:04</time></trkpt><trkpt lat="55.8018990" lon="49.1394400"><time>2021-08-14T08:56:05</time></trkpt><trkpt lat="55.8019070" lon="49.1394400"><time>2021-08-14T08:56:06</time></trkpt><trkpt lat="55.8019250" lon="49.1394320"><time>2021-08-14T08:56:07</time></trkpt><trkpt lat="55.8019420" lon="49.1394230"><time>2021-08-14T08:56:08</time></trkpt><trkpt lat="55.8019700" lon="49.1394240"><time>2021-08-14T08:56:09</time></trkpt><trkpt lat="55.8019780" lon="49.1394280"><time>2021-08-14T08:56:10</time></trkpt><trkpt lat="55.8019950" lon="49.1394310"><time>2021-08-14T08:56:11</time></trkpt><trkpt lat="55.8020090" lon="49.1394390"><time>2021-08-14T08:56:12</time></trkpt><trkpt lat="55.8020200" lon="49.1394650"><time>2021-08-14T08:56:13</time></trkpt><trkpt lat="55.8020310" lon="49.1394900"><time>2021-08-14T08:56:14</time></trkpt><trkpt lat="55.8020470" lon="49.1394930"><time>2021-08-14T08:56:15</time></trkpt><trkpt lat="55.8020650" lon="49.1394880"><time>2021-08-14T08:56:16</time></trkpt><trkpt lat="55.8020800" lon="49.1394870"><time>2021-08-14T08:56:17</time></trkpt><trkpt lat="55.8020960" lon="49.1394790"><time>2021-08-14T08:56:18</time></trkpt><trkpt lat="55.8021120" lon="49.1394630"><time>2021-08-14T08:56:19</time></trkpt><trkpt lat="55.8021280" lon="49.1394530"><time>2021-08-14T08:56:20</time></trkpt><trkpt lat="55.8021430" lon="49.1394330"><time>2021-08-14T08:56:21</time></trkpt><trkpt lat="55.8021540" lon="49.1394080"><time>2021-08-14T08:56:22</time></trkpt><trkpt lat="55.8021660" lon="49.1393860"><time>2021-08-14T08:56:23</time></trkpt><trkpt lat="55.8021800" lon="49.1393700"><time>2021-08-14T08:56:24</time></trkpt><trkpt lat="55.8021930" lon="49.1393530"><time>2021-08-14T08:56:25</time></trkpt><trkpt lat="55.8022060" lon="49.1393380"><time>2021-08-14T08:56:26</time></trkpt><trkpt lat="55.8022080" lon="49.1393060"><time>2021-08-14T08:56:27</time></trkpt><trkpt lat="55.8022220" lon="49.1392960"><time>2021-08-14T08:56:28</time></trkpt><trkpt lat="55.8022340" lon="49.1392830"><time>2021-08-14T08:56:29</time></trkpt><trkpt lat="55.8022510" lon="49.1392870"><time>2021-08-14T08:56:30</time></trkpt><trkpt lat="55.8022700" lon="49.1393300"><time>2021-08-14T08:56:31</time></trkpt><trkpt lat="55.8022720" lon="49.1393450"><time>2021-08-14T08:56:32</time></trkpt><trkpt lat="55.8022870" lon="49.1393770"><time>2021-08-14T08:56:33</time></trkpt><trkpt lat="55.8022910" lon="49.1393930"><time>2021-08-14T08:56:34</time></trkpt><trkpt lat="55.8022940" lon="49.1394100"><time>2021-08-14T08:56:35</time></trkpt><trkpt lat="55.8022990" lon="49.1394410"><time>2021-08-14T08:56:36</time></trkpt><trkpt lat="55.8023050" lon="49.1394660"><time>2021-08-14T08:56:37</time></trkpt><trkpt lat="55.8023070" lon="49.1394970"><time>2021-08-14T08:56:38</time></trkpt><trkpt lat="55.8023150" lon="49.1395210"><time>2021-08-14T08:56:39</time></trkpt><trkpt lat="55.8023190" lon="49.1395490"><time>2021-08-14T08:56:40</time></trkpt><trkpt lat="55.8023220" lon="49.1395830"><time>2021-08-14T08:56:41</time></trkpt><trkpt lat="55.8023280" lon="49.1396060"><time>2021-08-14T08:56:42</time></trkpt><trkpt lat="55.8023360" lon="49.1396290"><time>2021-08-14T08:56:43</time></trkpt><trkpt lat="55.8023400" lon="49.1396570"><time>2021-08-14T08:56:44</time></trkpt><trkpt lat="55.8023450" lon="49.1396840"><time>2021-08-14T08:56:45</time></trkpt><trkpt lat="55.8023470" lon="49.1397100"><time>2021-08-14T08:56:46</time></trkpt><trkpt lat="55.8023500" lon="49.1397400"><time>2021-08-14T08:56:47</time></trkpt><trkpt lat="55.8023550" lon="49.1397660"><time>2021-08-14T08:56:48</time></trkpt><trkpt lat="55.8023560" lon="49.1397940"><time>2021-08-14T08:56:49</time></trkpt><trkpt lat="55.8023610" lon="49.1398190"><time>2021-08-14T08:56:50</time></trkpt><trkpt lat="55.8023630" lon="49.1398480"><time>2021-08-14T08:56:51</time></trkpt><trkpt lat="55.8023700" lon="49.1398860"><time>2021-08-14T08:56:52</time></trkpt><trkpt lat="55.8023720" lon="49.1399020"><time>2021-08-14T08:56:53</time></trkpt><trkpt lat="55.8023750" lon="49.1399190"><time>2021-08-14T08:56:54</time></trkpt><trkpt lat="55.8023850" lon="49.1399470"><time>2021-08-14T08:56:55</time></trkpt><trkpt lat="55.8023900" lon="49.1399720"><time>2021-08-14T08:56:56</time></trkpt><trkpt lat="55.8023950" lon="49.1400040"><time>2021-08-14T08:56:57</time></trkpt><trkpt lat="55.8023990" lon="49.1400290"><time>2021-08-14T08:56:58</time></trkpt><trkpt lat="55.8024000" lon="49.1400540"><time>2021-08-14T08:56:59</time></trkpt><trkpt lat="55.8024060" lon="49.1400750"><time>2021-08-14T08:57:00</time></trkpt><trkpt lat="55.8024120" lon="49.1401040"><time>2021-08-14T08:57:01</time></trkpt><trkpt lat="55.8024180" lon="49.1401270"><time>2021-08-14T08:57:02</time></trkpt><trkpt lat="55.8024200" lon="49.1401540"><time>2021-08-14T08:57:03</time></trkpt><trkpt lat="55.8024250" lon="49.1401780"><time>2021-08-14T08:57:04</time></trkpt><trkpt lat="55.8024310" lon="49.1402030"><time>2021-08-14T08:57:05</time></trkpt><trkpt lat="55.8024430" lon="49.1402240"><time>2021-08-14T08:57:06</time></trkpt><trkpt lat="55.8024450" lon="49.1402500"><time>2021-08-14T08:57:07</time></trkpt><trkpt lat="55.8024500" lon="49.1402770"><time>2021-08-14T08:57:08</time></trkpt><trkpt lat="55.8024570" lon="49.1402970"><time>2021-08-14T08:57:09</time></trkpt><trkpt lat="55.8024620" lon="49.1403270"><time>2021-08-14T08:57:10</time></trkpt><trkpt lat="55.8024670" lon="49.1403550"><time>2021-08-14T08:57:11</time></trkpt><trkpt lat="55.8024740" lon="49.1403830"><time>2021-08-14T08:57:12</time></trkpt><trkpt lat="55.8024760" lon="49.1404100"><time>2021-08-14T08:57:13</time></trkpt><trkpt lat="55.8024830" lon="49.1404340"><time>2021-08-14T08:57:14</time></trkpt><trkpt lat="55.8024920" lon="49.1404550"><time>2021-08-14T08:57:15</time></trkpt><trkpt lat="55.8024950" lon="49.1404810"><time>2021-08-14T08:57:16</time></trkpt><trkpt lat="55.8024930" lon="49.1405080"><time>2021-08-14T08:57:17</time></trkpt><trkpt lat="55.8024990" lon="49.1405330"><time>2021-08-14T08:57:18</time></trkpt><trkpt lat="55.8025040" lon="49.1405550"><time>2021-08-14T08:57:19</time></trkpt><trkpt lat="55.8025090" lon="49.1405790"><time>2021-08-14T08:57:20</time></trkpt><trkpt lat="55.8025200" lon="49.1405990"><time>2021-08-14T08:57:21</time></trkpt><trkpt lat="55.8025260" lon="49.1406250"><time>2021-08-14T08:57:22</time></trkpt><trkpt lat="55.8025300" lon="49.1406480"><time>2021-08-14T08:57:23</time></trkpt><trkpt lat="55.8025370" lon="49.1406710"><time>2021-08-14T08:57:24</time></trkpt><trkpt lat="55.8025420" lon="49.1406970"><time>2021-08-14T08:57:25</time></trkpt><trkpt lat="55.8025450" lon="49.1407260"><time>2021-08-14T08:57:26</time></trkpt><trkpt lat="55.8025540" lon="49.1407550"><time>2021-08-14T08:57:27</time></trkpt><trkpt lat="55.8025600" lon="49.1407790"><time>2021-08-14T08:57:28</time></trkpt><trkpt lat="55.8025680" lon="49.1407990"><time>2021-08-14T08:57:29</time></trkpt><trkpt lat="55.8025740" lon="49.1408240"><time>2021-08-14T08:57:30</time></trkpt><trkpt lat="55.8025780" lon="49.1408530"><time>2021-08-14T08:57:31</time></trkpt><trkpt lat="55.8025830" lon="49.1408790"><time>2021-08-14T08:57:32</time></trkpt><trkpt lat="55.8025900" lon="49.1409050"><time>2021-08-14T08:57:33</time></trkpt><trkpt lat="55.8025970" lon="49.1409280"><time>2021-08-14T08:57:34</time></trkpt><trkpt lat="55.8026080" lon="49.1409500"><time>2021-08-14T08:57:35</time></trkpt><trkpt lat="55.8026170" lon="49.1409690"><time>2021-08-14T08:57:36</time></trkpt><trkpt lat="55.8026230" lon="49.1409940"><time>2021-08-14T08:57:37</time></trkpt><trkpt lat="55.8026330" lon="49.1410200"><time>2021-08-14T08:57:38</time></trkpt><trkpt lat="55.8026370" lon="49.1410470"><time>2021-08-14T08:57:39</time></trkpt><trkpt lat="55.8026350" lon="49.1410810"><time>2021-08-14T08:57:40</time></trkpt><trkpt lat="55.8026440" lon="49.1411070"><time>2021-08-14T08:57:41</time></trkpt><trkpt lat="55.8026500" lon="49.1411360"><time>2021-08-14T08:57:42</time></trkpt><trkpt lat="55.8026580" lon="49.1411610"><time>2021-08-14T08:57:43</time></trkpt><trkpt lat="55.8026670" lon="49.1411850"><time>2021-08-14T08:57:44</time></trkpt><trkpt lat="55.8026720" lon="49.1412090"><time>2021-08-14T08:57:45</time></trkpt><trkpt lat="55.8026800" lon="49.1412340"><time>2021-08-14T08:57:46</time></trkpt><trkpt lat="55.8026920" lon="49.1412550"><time>2021-08-14T08:57:47</time></trkpt><trkpt lat="55.8027010" lon="49.1412760"><time>2021-08-14T08:57:48</time></trkpt><trkpt lat="55.8027100" lon="49.1412920"><time>2021-08-14T08:57:49</time></trkpt><trkpt lat="55.8027190" lon="49.1413140"><time>2021-08-14T08:57:50</time></trkpt><trkpt lat="55.8027290" lon="49.1413310"><time>2021-08-14T08:57:51</time></trkpt><trkpt lat="55.8027370" lon="49.1413560"><time>2021-08-14T08:57:52</time></trkpt><trkpt lat="55.8027440" lon="49.1413860"><time>2021-08-14T08:57:53</time></trkpt><trkpt lat="55.8027510" lon="49.1414110"><time>2021-08-14T08:57:54</time></trkpt><trkpt lat="55.8027620" lon="49.1414280"><time>2021-08-14T08:57:55</time></trkpt><trkpt lat="55.8027710" lon="49.1414500"><time>2021-08-14T08:57:56</time></trkpt><trkpt lat="55.8027810" lon="49.1414660"><time>2021-08-14T08:57:57</time></trkpt><trkpt lat="55.8027910" lon="49.1414870"><time>2021-08-14T08:57:58</time></trkpt><trkpt lat="55.8027990" lon="49.1415080"><time>2021-08-14T08:57:59</time></trkpt><trkpt lat="55.8028070" lon="49.1415380"><time>2021-08-14T08:58:00</time></trkpt><trkpt lat="55.8028180" lon="49.1415580"><time>2021-08-14T08:58:01</time></trkpt><trkpt lat="55.8028290" lon="49.1415840"><time>2021-08-14T08:58:02</time></trkpt><trkpt lat="55.8028390" lon="49.1416010"><time>2021-08-14T08:58:03</time></trkpt><trkpt lat="55.8028510" lon="49.1416240"><time>2021-08-14T08:58:04</time></trkpt><trkpt lat="55.8028650" lon="49.1416690"><time>2021-08-14T08:58:05</time></trkpt><trkpt lat="55.8028700" lon="49.1416830"><time>2021-08-14T08:58:06</time></trkpt><trkpt lat="55.8028790" lon="49.1417060"><time>2021-08-14T08:58:07</time></trkpt><trkpt lat="55.8028940" lon="49.1417220"><time>2021-08-14T08:58:08</time></trkpt><trkpt lat="55.8029060" lon="49.1417380"><time>2021-08-14T08:58:09</time></trkpt><trkpt lat="55.8029130" lon="49.1417700"><time>2021-08-14T08:58:10</time></trkpt><trkpt lat="55.8029210" lon="49.1417900"><time>2021-08-14T08:58:11</time></trkpt><trkpt lat="55.8029300" lon="49.1418090"><time>2021-08-14T08:58:12</time></trkpt><trkpt lat="55.8029410" lon="49.1418300"><time>2021-08-14T08:58:13</time></trkpt><trkpt lat="55.8029490" lon="49.1418570"><time>2021-08-14T08:58:14</time></trkpt><trkpt lat="55.8029580" lon="49.1418760"><time>2021-08-14T08:58:15</time></trkpt><trkpt lat="55.8029670" lon="49.1418970"><time>2021-08-14T08:58:16</time></trkpt><trkpt lat="55.8029770" lon="49.1419180"><time>2021-08-14T08:58:17</time></trkpt><trkpt lat="55.8029870" lon="49.1419460"><time>2021-08-14T08:58:18</time></trkpt><trkpt lat="55.8030010" lon="49.1419630"><time>2021-08-14T08:58:19</time></trkpt><trkpt lat="55.8030090" lon="49.1419840"><time>2021-08-14T08:58:20</time></trkpt><trkpt lat="55.8030200" lon="49.1420000"><time>2021-08-14T08:58:21</time></trkpt><trkpt lat="55.8030340" lon="49.1420210"><time>2021-08-14T08:58:22</time></trkpt><trkpt lat="55.8030420" lon="49.1420430"><time>2021-08-14T08:58:23</time></trkpt><trkpt lat="55.8030540" lon="49.1420570"><time>2021-08-14T08:58:24</time></trkpt><trkpt lat="55.8030650" lon="49.1420700"><time>2021-08-14T08:58:25</time></trkpt><trkpt lat="55.8030760" lon="49.1420930"><time>2021-08-14T08:58:26</time></trkpt><trkpt lat="55.8030830" lon="49.1421190"><time>2021-08-14T08:58:27</time></trkpt><trkpt lat="55.8030930" lon="49.1421410"><time>2021-08-14T08:58:28</time></trkpt><trkpt lat="55.8031050" lon="49.1421590"><time>2021-08-14T08:58:29</time></trkpt><trkpt lat="55.8031140" lon="49.1421810"><time>2021-08-14T08:58:30</time></trkpt><trkpt lat="55.8031260" lon="49.1421940"><time>2021-08-14T08:58:31</time></trkpt><trkpt lat="55.8031340" lon="49.1422150"><time>2021-08-14T08:58:32</time></trkpt><trkpt lat="55.8031460" lon="49.1422330"><time>2021-08-14T08:58:33</time></trkpt><trkpt lat="55.8031570" lon="49.1422490"><time>2021-08-14T08:58:34</time></trkpt><trkpt lat="55.8031710" lon="49.1422620"><time>2021-08-14T08:58:35</time></trkpt><trkpt lat="55.8031780" lon="49.1422830"><time>2021-08-14T08:58:36</time></trkpt><trkpt lat="55.8031890" lon="49.1423060"><time>2021-08-14T08:58:37</time></trkpt><trkpt lat="55.8032020" lon="49.1423220"><time>2021-08-14T08:58:38</time></trkpt><trkpt lat="55.8032130" lon="49.1423350"><time>2021-08-14T08:58:39</time></trkpt><trkpt lat="55.8032230" lon="49.1423560"><time>2021-08-14T08:58:40</time></trkpt><trkpt lat="55.8032320" lon="49.1423800"><time>2021-08-14T08:58:41</time></trkpt><trkpt lat="55.8032440" lon="49.1424030"><time>2021-08-14T08:58:42</time></trkpt><trkpt lat="55.8032560" lon="49.1424270"><time>2021-08-14T08:58:43</time></trkpt><trkpt lat="55.8032690" lon="49.1424440"><time>2021-08-14T08:58:44</time></trkpt><trkpt lat="55.8032830" lon="49.1424530"><time>2021-08-14T08:58:45</time></trkpt><trkpt lat="55.8032960" lon="49.1424660"><time>2021-08-14T08:58:46</time></trkpt><trkpt lat="55.8033090" lon="49.1424730"><time>2021-08-14T08:58:47</time></trkpt><trkpt lat="55.8033190" lon="49.1424930"><time>2021-08-14T08:58:48</time></trkpt><trkpt lat="55.8033280" lon="49.1425140"><time>2021-08-14T08:58:49</time></trkpt><trkpt lat="55.8033410" lon="49.1425230"><time>2021-08-14T08:58:50</time></trkpt><trkpt lat="55.8033540" lon="49.1425370"><time>2021-08-14T08:58:51</time></trkpt><trkpt lat="55.8033650" lon="49.1425570"><time>2021-08-14T08:58:52</time></trkpt><trkpt lat="55.8033750" lon="49.1425800"><time>2021-08-14T08:58:53</time></trkpt><trkpt lat="55.8033850" lon="49.1425970"><time>2021-08-14T08:58:54</time></trkpt><trkpt lat="55.8034000" lon="49.1426110"><time>2021-08-14T08:58:55</time></trkpt><trkpt lat="55.8034140" lon="49.1426160"><time>2021-08-14T08:58:56</time></trkpt><trkpt lat="55.8034300" lon="49.1426220"><time>2021-08-14T08:58:57</time></trkpt><trkpt lat="55.8034380" lon="49.1426460"><time>2021-08-14T08:58:58</time></trkpt><trkpt lat="55.8034560" lon="49.1426690"><time>2021-08-14T08:58:59</time></trkpt><trkpt lat="55.8034670" lon="49.1426730"><time>2021-08-14T08:59:00</time></trkpt><trkpt lat="55.8034790" lon="49.1426780"><time>2021-08-14T08:59:01</time></trkpt><trkpt lat="55.8034920" lon="49.1426990"><time>2021-08-14T08:59:02</time></trkpt><trkpt lat="55.8035000" lon="49.1427220"><time>2021-08-14T08:59:03</time></trkpt><trkpt lat="55.8035160" lon="49.1427370"><time>2021-08-14T08:59:04</time></trkpt><trkpt lat="55.8035240" lon="49.1427580"><time>2021-08-14T08:59:05</time></trkpt><trkpt lat="55.8035360" lon="49.1427780"><time>2021-08-14T08:59:06</time></trkpt><trkpt lat="55.8035490" lon="49.1427870"><time>2021-08-14T08:59:07</time></trkpt><trkpt lat="55.8035620" lon="49.1428010"><time>2021-08-14T08:59:08</time></trkpt><trkpt lat="55.8035750" lon="49.1428160"><time>2021-08-14T08:59:09</time></trkpt><trkpt lat="55.8035860" lon="49.1428330"><time>2021-08-14T08:59:10</time></trkpt><trkpt lat="55.8036020" lon="49.1428410"><time>2021-08-14T08:59:11</time></trkpt><trkpt lat="55.8036190" lon="49.1428480"><time>2021-08-14T08:59:12</time></trkpt><trkpt lat="55.8036280" lon="49.1428790"><time>2021-08-14T08:59:13</time></trkpt><trkpt lat="55.8036380" lon="49.1428960"><time>2021-08-14T08:59:14</time></trkpt><trkpt lat="55.8036510" lon="49.1429120"><time>2021-08-14T08:59:15</time></trkpt><trkpt lat="55.8036660" lon="49.1429220"><time>2021-08-14T08:59:16</time></trkpt><trkpt lat="55.8036830" lon="49.1429320"><time>2021-08-14T08:59:17</time></trkpt><trkpt lat="55.8036920" lon="49.1429520"><time>2021-08-14T08:59:18</time></trkpt><trkpt lat="55.8037010" lon="49.1429760"><time>2021-08-14T08:59:19</time></trkpt><trkpt lat="55.8037120" lon="49.1429940"><time>2021-08-14T08:59:20</time></trkpt><trkpt lat="55.8037270" lon="49.1430040"><time>2021-08-14T08:59:21</time></trkpt><trkpt lat="55.8037400" lon="49.1430160"><time>2021-08-14T08:59:22</time></trkpt><trkpt lat="55.8037500" lon="49.1430310"><time>2021-08-14T08:59:23</time></trkpt><trkpt lat="55.8037600" lon="49.1430440"><time>2021-08-14T08:59:24</time></trkpt><trkpt lat="55.8037710" lon="49.1430640"><time>2021-08-14T08:59:25</time></trkpt><trkpt lat="55.8037840" lon="49.1430710"><time>2021-08-14T08:59:26</time></trkpt><trkpt lat="55.8037950" lon="49.1430910"><time>2021-08-14T08:59:27</time></trkpt><trkpt lat="55.8038090" lon="49.1430940"><time>2021-08-14T08:59:28</time></trkpt><trkpt lat="55.8038220" lon="49.1431130"><time>2021-08-14T08:59:29</time></trkpt><trkpt lat="55.8038360" lon="49.1431200"><time>2021-08-14T08:59:30</time></trkpt><trkpt lat="55.8038470" lon="49.1431410"><time>2021-08-14T08:59:31</time></trkpt><trkpt lat="55.8038610" lon="49.1431510"><time>2021-08-14T08:59:32</time></trkpt><trkpt lat="55.8038760" lon="49.1431590"><time>2021-08-14T08:59:33</time></trkpt><trkpt lat="55.8038880" lon="49.1431670"><time>2021-08-14T08:59:34</time></trkpt><trkpt lat="55.8039010" lon="49.1431830"><time>2021-08-14T08:59:35</time></trkpt><trkpt lat="55.8039130" lon="49.1432030"><time>2021-08-14T08:59:36</time></trkpt><trkpt lat="55.8039290" lon="49.1432160"><time>2021-08-14T08:59:37</time></trkpt><trkpt lat="55.8039400" lon="49.1432300"><time>2021-08-14T08:59:38</time></trkpt><trkpt lat="55.8039540" lon="49.1432460"><time>2021-08-14T08:59:39</time></trkpt><trkpt lat="55.8039750" lon="49.1432650"><time>2021-08-14T08:59:40</time></trkpt><trkpt lat="55.8039830" lon="49.1432730"><time>2021-08-14T08:59:41</time></trkpt><trkpt lat="55.8039920" lon="49.1432800"><time>2021-08-14T08:59:42</time></trkpt><trkpt lat="55.8040060" lon="49.1432940"><time>2021-08-14T08:59:43</time></trkpt><trkpt lat="55.8040180" lon="49.1433040"><time>2021-08-14T08:59:44</time></trkpt><trkpt lat="55.8040340" lon="49.1433090"><time>2021-08-14T08:59:45</time></trkpt><trkpt lat="55.8040500" lon="49.1433090"><time>2021-08-14T08:59:46</time></trkpt><trkpt lat="55.8040650" lon="49.1433170"><time>2021-08-14T08:59:47</time></trkpt><trkpt lat="55.8040800" lon="49.1433260"><time>2021-08-14T08:59:48</time></trkpt><trkpt lat="55.8040920" lon="49.1433410"><time>2021-08-14T08:59:49</time></trkpt><trkpt lat="55.8041050" lon="49.1433580"><time>2021-08-14T08:59:50</time></trkpt><trkpt lat="55.8041220" lon="49.1433670"><time>2021-08-14T08:59:51</time></trkpt><trkpt lat="55.8041350" lon="49.1433790"><time>2021-08-14T08:59:52</time></trkpt><trkpt lat="55.8041480" lon="49.1433940"><time>2021-08-14T08:59:53</time></trkpt><trkpt lat="55.8041620" lon="49.1434110"><time>2021-08-14T08:59:54</time></trkpt><trkpt lat="55.8041740" lon="49.1434300"><time>2021-08-14T08:59:55</time></trkpt><trkpt lat="55.8041840" lon="49.1434490"><time>2021-08-14T08:59:56</time></trkpt><trkpt lat="55.8041990" lon="49.1434590"><time>2021-08-14T08:59:57</time></trkpt><trkpt lat="55.8042150" lon="49.1434680"><time>2021-08-14T08:59:58</time></trkpt><trkpt lat="55.8042320" lon="49.1434680"><time>2021-08-14T08:59:59</time></trkpt><trkpt lat="55.8042460" lon="49.1434790"><time>2021-08-14T09:00:00</time></trkpt><trkpt lat="55.8042580" lon="49.1434950"><time>2021-08-14T09:00:01</time></trkpt><trkpt lat="55.8042720" lon="49.1435140"><time>2021-08-14T09:00:02</time></trkpt><trkpt lat="55.8042840" lon="49.1435270"><time>2021-08-14T09:00:03</time></trkpt><trkpt lat="55.8043000" lon="49.1435390"><time>2021-08-14T09:00:04</time></trkpt><trkpt lat="55.8043140" lon="49.1435460"><time>2021-08-14T09:00:05</time></trkpt><trkpt lat="55.8043310" lon="49.1435600"><time>2021-08-14T09:00:06</time></trkpt><trkpt lat="55.8043440" lon="49.1435750"><time>2021-08-14T09:00:07</time></trkpt><trkpt lat="55.8043580" lon="49.1435870"><time>2021-08-14T09:00:08</time></trkpt><trkpt lat="55.8043730" lon="49.1435920"><time>2021-08-14T09:00:09</time></trkpt><trkpt lat="55.8043890" lon="49.1436070"><time>2021-08-14T09:00:10</time></trkpt><trkpt lat="55.8044040" lon="49.1436130"><time>2021-08-14T09:00:11</time></trkpt><trkpt lat="55.8044190" lon="49.1436160"><time>2021-08-14T09:00:12</time></trkpt><trkpt lat="55.8044400" lon="49.1436290"><time>2021-08-14T09:00:13</time></trkpt><trkpt lat="55.8044490" lon="49.1436310"><time>2021-08-14T09:00:14</time></trkpt><trkpt lat="55.8044580" lon="49.1436340"><time>2021-08-14T09:00:15</time></trkpt><trkpt lat="55.8044720" lon="49.1436400"><time>2021-08-14T09:00:16</time></trkpt><trkpt lat="55.8044860" lon="49.1436500"><time>2021-08-14T09:00:17</time></trkpt><trkpt lat="55.8045010" lon="49.1436550"><time>2021-08-14T09:00:18</time></trkpt><trkpt lat="55.8045140" lon="49.1436550"><time>2021-08-14T09:00:19</time></trkpt><trkpt lat="55.8045290" lon="49.1436620"><time>2021-08-14T09:00:20</time></trkpt><trkpt lat="55.8045450" lon="49.1436760"><time>2021-08-14T09:00:21</time></trkpt><trkpt lat="55.8045550" lon="49.1436910"><time>2021-08-14T09:00:22</time></trkpt><trkpt lat="55.8045680" lon="49.1437070"><time>2021-08-14T09:00:23</time></trkpt><trkpt lat="55.8045810" lon="49.1437250"><time>2021-08-14T09:00:24</time></trkpt><trkpt lat="55.8045930" lon="49.1437450"><time>2021-08-14T09:00:25</time></trkpt><trkpt lat="55.8046050" lon="49.1437580"><time>2021-08-14T09:00:26</time></trkpt><trkpt lat="55.8046220" lon="49.1437740"><time>2021-08-14T09:00:27</time></trkpt><trkpt lat="55.8046380" lon="49.1437860"><time>2021-08-14T09:00:28</time></trkpt><trkpt lat="55.8046520" lon="49.1437930"><time>2021-08-14T09:00:29</time></trkpt><trkpt lat="55.8046640" lon="49.1438070"><time>2021-08-14T09:00:30</time></trkpt><trkpt lat="55.8046770" lon="49.1438200"><time>2021-08-14T09:00:31</time></trkpt><trkpt lat="55.8046920" lon="49.1438410"><time>2021-08-14T09:00:32</time></trkpt><trkpt lat="55.8047060" lon="49.1438460"><time>2021-08-14T09:00:33</time></trkpt><trkpt lat="55.8047200" lon="49.1438490"><time>2021-08-14T09:00:34</time></trkpt><trkpt lat="55.8047340" lon="49.1438610"><time>2021-08-14T09:00:35</time></trkpt><trkpt lat="55.8047490" lon="49.1438640"><time>2021-08-14T09:00:36</time></trkpt><trkpt lat="55.8047660" lon="49.1438630"><time>2021-08-14T09:00:37</time></trkpt><trkpt lat="55.8047790" lon="49.1438760"><time>2021-08-14T09:00:38</time></trkpt><trkpt lat="55.8047930" lon="49.1438770"><time>2021-08-14T09:00:39</time></trkpt><trkpt lat="55.8048070" lon="49.1438870"><time>2021-08-14T09:00:40</time></trkpt><trkpt lat="55.8048240" lon="49.1439050"><time>2021-08-14T09:00:41</time></trkpt><trkpt lat="55.8048390" lon="49.1439140"><time>2021-08-14T09:00:42</time></trkpt><trkpt lat="55.8048530" lon="49.1439290"><time>2021-08-14T09:00:43</time></trkpt><trkpt lat="55.8048660" lon="49.1439440"><time>2021-08-14T09:00:44</time></trkpt><trkpt lat="55.8048830" lon="49.1439490"><time>2021-08-14T09:00:45</time></trkpt><trkpt lat="55.8048970" lon="49.1439520"><time>2021-08-14T09:00:46</time></trkpt><trkpt lat="55.8049110" lon="49.1439580"><time>2021-08-14T09:00:47</time></trkpt><trkpt lat="55.8049220" lon="49.1439730"><time>2021-08-14T09:00:48</time></trkpt><trkpt lat="55.8049370" lon="49.1439830"><time>2021-08-14T09:00:49</time></trkpt><trkpt lat="55.8049580" lon="49.1440050"><time>2021-08-14T09:00:50</time></trkpt><trkpt lat="55.8049690" lon="49.1440100"><time>2021-08-14T09:00:51</time></trkpt><trkpt lat="55.8049790" lon="49.1440150"><time>2021-08-14T09:00:52</time></trkpt><trkpt lat="55.8049930" lon="49.1440280"><time>2021-08-14T09:00:53</time></trkpt><trkpt lat="55.8050090" lon="49.1440360"><time>2021-08-14T09:00:54</time></trkpt><trkpt lat="55.8050260" lon="49.1440430"><time>2021-08-14T09:00:55</time></trkpt><trkpt lat="55.8050400" lon="49.1440540"><time>2021-08-14T09:00:56</time></trkpt><trkpt lat="55.8050590" lon="49.1440670"><time>2021-08-14T09:00:57</time></trkpt><trkpt lat="55.8050730" lon="49.1440770"><time>2021-08-14T09:00:58</time></trkpt><trkpt lat="55.8050910" lon="49.1440770"><time>2021-08-14T09:00:59</time></trkpt><trkpt lat="55.8051070" lon="49.1440840"><time>2021-08-14T09:01:00</time></trkpt><trkpt lat="55.8051190" lon="49.1440980"><time>2021-08-14T09:01:01</time></trkpt><trkpt lat="55.8051330" lon="49.1441120"><time>2021-08-14T09:01:02</time></trkpt><trkpt lat="55.8051490" lon="49.1441120"><time>2021-08-14T09:01:03</time></trkpt><trkpt lat="55.8051630" lon="49.1441180"><time>2021-08-14T09:01:04</time></trkpt><trkpt lat="55.8051790" lon="49.1441220"><time>2021-08-14T09:01:05</time></trkpt><trkpt lat="55.8051920" lon="49.1441200"><time>2021-08-14T09:01:06</time></trkpt><trkpt lat="55.8052050" lon="49.1441310"><time>2021-08-14T09:01:07</time></trkpt><trkpt lat="55.8052160" lon="49.1441440"><time>2021-08-14T09:01:08</time></trkpt><trkpt lat="55.8052290" lon="49.1441570"><time>2021-08-14T09:01:09</time></trkpt><trkpt lat="55.8052420" lon="49.1441610"><time>2021-08-14T09:01:10</time></trkpt><trkpt lat="55.8052520" lon="49.1441660"><time>2021-08-14T09:01:11</time></trkpt><trkpt lat="55.8052670" lon="49.1441780"><time>2021-08-14T09:01:12</time></trkpt><trkpt lat="55.8052820" lon="49.1441880"><time>2021-08-14T09:01:13</time></trkpt><trkpt lat="55.8052950" lon="49.1441960"><time>2021-08-14T09:01:14</time></trkpt><trkpt lat="55.8053080" lon="49.1442080"><time>2021-08-14T09:01:15</time></trkpt><trkpt lat="55.8053220" lon="49.1442210"><time>2021-08-14T09:01:16</time></trkpt><trkpt lat="55.8053350" lon="49.1442280"><time>2021-08-14T09:01:17</time></trkpt><trkpt lat="55.8053500" lon="49.1442340"><time>2021-08-14T09:01:18</time></trkpt><trkpt lat="55.8053710" lon="49.1442460"><time>2021-08-14T09:01:19</time></trkpt><trkpt lat="55.8053780" lon="49.1442500"><time>2021-08-14T09:01:20</time></trkpt><trkpt lat="55.8053860" lon="49.1442540"><time>2021-08-14T09:01:21</time></trkpt><trkpt lat="55.8054060" lon="49.1442750"><time>2021-08-14T09:01:22</time></trkpt><trkpt lat="55.8054140" lon="49.1442830"><time>2021-08-14T09:01:23</time></trkpt><trkpt lat="55.8054210" lon="49.1442920"><time>2021-08-14T09:01:24</time></trkpt><trkpt lat="55.8054350" lon="49.1443030"><time>2021-08-14T09:01:25</time></trkpt><trkpt lat="55.8054480" lon="49.1443210"><time>2021-08-14T09:01:26</time></trkpt><trkpt lat="55.8054590" lon="49.1443290"><time>2021-08-14T09:01:27</time></trkpt><trkpt lat="55.8054760" lon="49.1443210"><time>2021-08-14T09:01:28</time></trkpt><trkpt lat="55.8054930" lon="49.1443250"><time>2021-08-14T09:01:29</time></trkpt><trkpt lat="55.8055020" lon="49.1443370"><time>2021-08-14T09:01:30</time></trkpt><trkpt lat="55.8055160" lon="49.1443490"><time>2021-08-14T09:01:31</time></trkpt><trkpt lat="55.8055300" lon="49.1443650"><time>2021-08-14T09:01:32</time></trkpt><trkpt lat="55.8055490" lon="49.1443800"><time>2021-08-14T09:01:33</time></trkpt><trkpt lat="55.8055580" lon="49.1443840"><time>2021-08-14T09:01:34</time></trkpt><trkpt lat="55.8055670" lon="49.1443880"><time>2021-08-14T09:01:35</time></trkpt><trkpt lat="55.8055850" lon="49.1443970"><time>2021-08-14T09:01:36</time></trkpt><trkpt lat="55.8055990" lon="49.1444070"><time>2021-08-14T09:01:37</time></trkpt><trkpt lat="55.8056120" lon="49.1444230"><time>2021-08-14T09:01:38</time></trkpt><trkpt lat="55.8056240" lon="49.1444360"><time>2021-08-14T09:01:39</time></trkpt><trkpt lat="55.8056380" lon="49.1444480"><time>2021-08-14T09:01:40</time></trkpt><trkpt lat="55.8056500" lon="49.1444680"><time>2021-08-14T09:01:41</time></trkpt><trkpt lat="55.8056610" lon="49.1444850"><time>2021-08-14T09:01:42</time></trkpt><trkpt lat="55.8056750" lon="49.1444980"><time>2021-08-14T09:01:43</time></trkpt><trkpt lat="55.8056890" lon="49.1445060"><time>2021-08-14T09:01:44</time></trkpt><trkpt lat="55.8057040" lon="49.1445160"><time>2021-08-14T09:01:45</time></trkpt><trkpt lat="55.8057190" lon="49.1445240"><time>2021-08-14T09:01:46</time></trkpt><trkpt lat="55.8057310" lon="49.1445400"><time>2021-08-14T09:01:47</time></trkpt><trkpt lat="55.8057450" lon="49.1445450"><time>2021-08-14T09:01:48</time></trkpt><trkpt lat="55.8057550" lon="49.1445610"><time>2021-08-14T09:01:49</time></trkpt><trkpt lat="55.8057660" lon="49.1445720"><time>2021-08-14T09:01:50</time></trkpt><trkpt lat="55.8057800" lon="49.1445810"><time>2021-08-14T09:01:51</time></trkpt><trkpt lat="55.8057910" lon="49.1445950"><time>2021-08-14T09:01:52</time></trkpt><trkpt lat="55.8058070" lon="49.1445990"><time>2021-08-14T09:01:53</time></trkpt><trkpt lat="55.8058200" lon="49.1446100"><time>2021-08-14T09:01:54</time></trkpt><trkpt lat="55.8058340" lon="49.1446170"><time>2021-08-14T09:01:55</time></trkpt><trkpt lat="55.8058520" lon="49.1446240"><time>2021-08-14T09:01:56</time></trkpt><trkpt lat="55.8058650" lon="49.1446390"><time>2021-08-14T09:01:57</time></trkpt><trkpt lat="55.8058820" lon="49.1446460"><time>2021-08-14T09:01:58</time></trkpt><trkpt lat="55.8058950" lon="49.1446590"><time>2021-08-14T09:01:59</time></trkpt><trkpt lat="55.8059110" lon="49.1446670"><time>2021-08-14T09:02:00</time></trkpt><trkpt lat="55.8059230" lon="49.1446900"><time>2021-08-14T09:02:01</time></trkpt><trkpt lat="55.8059370" lon="49.1447050"><time>2021-08-14T09:02:02</time></trkpt><trkpt lat="55.8059530" lon="49.1447190"><time>2021-08-14T09:02:03</time></trkpt><trkpt lat="55.8059690" lon="49.1447310"><time>2021-08-14T09:02:04</time></trkpt><trkpt lat="55.8059830" lon="49.1447390"><time>2021-08-14T09:02:05</time></trkpt><trkpt lat="55.8059980" lon="49.1447470"><time>2021-08-14T09:02:06</time></trkpt><trkpt lat="55.8060130" lon="49.1447490"><time>2021-08-14T09:02:07</time></trkpt><trkpt lat="55.8060240" lon="49.1447830"><time>2021-08-14T09:02:08</time></trkpt><trkpt lat="55.8060280" lon="49.1447980"><time>2021-08-14T09:02:09</time></trkpt><trkpt lat="55.8060330" lon="49.1448140"><time>2021-08-14T09:02:10</time></trkpt><trkpt lat="55.8060340" lon="49.1448400"><time>2021-08-14T09:02:11</time></trkpt><trkpt lat="55.8060300" lon="49.1448680"><time>2021-08-14T09:02:12</time></trkpt><trkpt lat="55.8060200" lon="49.1449040"><time>2021-08-14T09:02:13</time></trkpt><trkpt lat="55.8060140" lon="49.1449170"><time>2021-08-14T09:02:14</time></trkpt><trkpt lat="55.8060080" lon="49.1449300"><time>2021-08-14T09:02:15</time></trkpt><trkpt lat="55.8060000" lon="49.1449520"><time>2021-08-14T09:02:16</time></trkpt><trkpt lat="55.8059960" lon="49.1449760"><time>2021-08-14T09:02:17</time></trkpt><trkpt lat="55.8059890" lon="49.1449970"><time>2021-08-14T09:02:18</time></trkpt><trkpt lat="55.8059790" lon="49.1450170"><time>2021-08-14T09:02:19</time></trkpt><trkpt lat="55.8059770" lon="49.1450430"><time>2021-08-14T09:02:20</time></trkpt><trkpt lat="55.8059700" lon="49.1450640"><time>2021-08-14T09:02:21</time></trkpt><trkpt lat="55.8059630" lon="49.1450790"><time>2021-08-14T09:02:22</time></trkpt><trkpt lat="55.8059510" lon="49.1451020"><time>2021-08-14T09:02:23</time></trkpt><trkpt lat="55.8059460" lon="49.1451270"><time>2021-08-14T09:02:24</time></trkpt><trkpt lat="55.8059370" lon="49.1451490"><time>2021-08-14T09:02:25</time></trkpt><trkpt lat="55.8059290" lon="49.1451690"><time>2021-08-14T09:02:26</time></trkpt><trkpt lat="55.8059190" lon="49.1451950"><time>2021-08-14T09:02:27</time></trkpt><trkpt lat="55.8059110" lon="49.1452220"><time>2021-08-14T09:02:28</time></trkpt><trkpt lat="55.8059050" lon="49.1452510"><time>2021-08-14T09:02:29</time></trkpt><trkpt lat="55.8059000" lon="49.1452800"><time>2021-08-14T09:02:30</time></trkpt><trkpt lat="55.8058940" lon="49.1453070"><time>2021-08-14T09:02:31</time></trkpt><trkpt lat="55.8058890" lon="49.1453320"><time>2021-08-14T09:02:32</time></trkpt><trkpt lat="55.8058800" lon="49.1453560"><time>2021-08-14T09:02:33</time></trkpt><trkpt lat="55.8058730" lon="49.1453790"><time>2021-08-14T09:02:34</time></trkpt><trkpt lat="55.8058640" lon="49.1454020"><time>2021-08-14T09:02:35</time></trkpt><trkpt lat="55.8058580" lon="49.1454300"><time>2021-08-14T09:02:36</time></trkpt><trkpt lat="55.8058480" lon="49.1454530"><time>2021-08-14T09:02:37</time></trkpt><trkpt lat="55.8058400" lon="49.1454760"><time>2021-08-14T09:02:38</time></trkpt><trkpt lat="55.8058340" lon="49.1455010"><time>2021-08-14T09:02:39</time></trkpt><trkpt lat="55.8058280" lon="49.1455290"><time>2021-08-14T09:02:40</time></trkpt><trkpt lat="55.8058230" lon="49.1455560"><time>2021-08-14T09:02:41</time></trkpt><trkpt lat="55.8058170" lon="49.1455820"><time>2021-08-14T09:02:42</time></trkpt><trkpt lat="55.8058120" lon="49.1456090"><time>2021-08-14T09:02:43</time></trkpt><trkpt lat="55.8058030" lon="49.1456280"><time>2021-08-14T09:02:44</time></trkpt><trkpt lat="55.8057960" lon="49.1456520"><time>2021-08-14T09:02:45</time></trkpt><trkpt lat="55.8057850" lon="49.1456730"><time>2021-08-14T09:02:46</time></trkpt><trkpt lat="55.8057780" lon="49.1456950"><time>2021-08-14T09:02:47</time></trkpt><trkpt lat="55.8057710" lon="49.1457160"><time>2021-08-14T09:02:48</time></trkpt><trkpt lat="55.8057660" lon="49.1457410"><time>2021-08-14T09:02:49</time></trkpt><trkpt lat="55.8057560" lon="49.1457600"><time>2021-08-14T09:02:50</time></trkpt><trkpt lat="55.8057480" lon="49.1457820"><time>2021-08-14T09:02:51</time></trkpt><trkpt lat="55.8057450" lon="49.1458120"><time>2021-08-14T09:02:52</time></trkpt><trkpt lat="55.8057410" lon="49.1458360"><time>2021-08-14T09:02:53</time></trkpt><trkpt lat="55.8057340" lon="49.1458570"><time>2021-08-14T09:02:54</time></trkpt><trkpt lat="55.8057300" lon="49.1458800"><time>2021-08-14T09:02:55</time></trkpt><trkpt lat="55.8057240" lon="49.1459050"><time>2021-08-14T09:02:56</time></trkpt><trkpt lat="55.8057180" lon="49.1459310"><time>2021-08-14T09:02:57</time></trkpt><trkpt lat="55.8057060" lon="49.1459490"><time>2021-08-14T09:02:58</time></trkpt><trkpt lat="55.8056970" lon="49.1459680"><time>2021-08-14T09:02:59</time></trkpt><trkpt lat="55.8056890" lon="49.1459950"><time>2021-08-14T09:03:00</time></trkpt><trkpt lat="55.8056840" lon="49.1460200"><time>2021-08-14T09:03:01</time></trkpt><trkpt lat="55.8056770" lon="49.1460420"><time>2021-08-14T09:03:02</time></trkpt><trkpt lat="55.8056650" lon="49.1460600"><time>2021-08-14T09:03:03</time></trkpt><trkpt lat="55.8056600" lon="49.1460870"><time>2021-08-14T09:03:04</time></trkpt><trkpt lat="55.8056540" lon="49.1461120"><time>2021-08-14T09:03:05</time></trkpt><trkpt lat="55.8056510" lon="49.1461420"><time>2021-08-14T09:03:06</time></trkpt><trkpt lat="55.8056450" lon="49.1461680"><time>2021-08-14T09:03:07</time></trkpt><trkpt lat="55.8056380" lon="49.1461940"><time>2021-08-14T09:03:08</time></trkpt><trkpt lat="55.8056290" lon="49.1462180"><time>2021-08-14T09:03:09</time></trkpt><trkpt lat="55.8056220" lon="49.1462420"><time>2021-08-14T09:03:10</time></trkpt><trkpt lat="55.8056140" lon="49.1462670"><time>2021-08-14T09:03:11</time></trkpt><trkpt lat="55.8056070" lon="49.1462850"><time>2021-08-14T09:03:12</time></trkpt><trkpt lat="55.8055980" lon="49.1463080"><time>2021-08-14T09:03:13</time></trkpt><trkpt lat="55.8055890" lon="49.1463280"><time>2021-08-14T09:03:14</time></trkpt><trkpt lat="55.8055810" lon="49.1463470"><time>2021-08-14T09:03:15</time></trkpt><trkpt lat="55.8055780" lon="49.1463750"><time>2021-08-14T09:03:16</time></trkpt><trkpt lat="55.8055750" lon="49.1464000"><time>2021-08-14T09:03:17</time></trkpt><trkpt lat="55.8055690" lon="49.1464270"><time>2021-08-14T09:03:18</time></trkpt><trkpt lat="55.8055580" lon="49.1464470"><time>2021-08-14T09:03:19</time></trkpt><trkpt lat="55.8055530" lon="49.1464690"><time>2021-08-14T09:03:20</time></trkpt><trkpt lat="55.8055380" lon="49.1464840"><time>2021-08-14T09:03:21</time></trkpt><trkpt lat="55.8055320" lon="49.1465100"><time>2021-08-14T09:03:22</time></trkpt><trkpt lat="55.8055240" lon="49.1465290"><time>2021-08-14T09:03:23</time></trkpt><trkpt lat="55.8055140" lon="49.1465470"><time>2021-08-14T09:03:24</time></trkpt><trkpt lat="55.8055120" lon="49.1465730"><time>2021-08-14T09:03:25</time></trkpt><trkpt lat="55.8055020" lon="49.1465920"><time>2021-08-14T09:03:26</time></trkpt><trkpt lat="55.8054940" lon="49.1466200"><time>2021-08-14T09:03:27</time></trkpt><trkpt lat="55.8054800" lon="49.1466510"><time>2021-08-14T09:03:28</time></trkpt><trkpt lat="55.8054760" lon="49.1466670"><time>2021-08-14T09:03:29</time></trkpt><trkpt lat="55.8054720" lon="49.1466820"><time>2021-08-14T09:03:30</time></trkpt><trkpt lat="55.8054680" lon="49.1467080"><time>2021-08-14T09:03:31</time></trkpt><trkpt lat="55.8054600" lon="49.1467290"><time>2021-08-14T09:03:32</time></trkpt><trkpt lat="55.8054520" lon="49.1467480"><time>2021-08-14T09:03:33</time></trkpt><trkpt lat="55.8054430" lon="49.1467700"><time>2021-08-14T09:03:34</time></trkpt><trkpt lat="55.8054280" lon="49.1467950"><time>2021-08-14T09:03:35</time></trkpt><trkpt lat="55.8054210" lon="49.1468080"><time>2021-08-14T09:03:36</time></trkpt><trkpt lat="55.8054150" lon="49.1468200"><time>2021-08-14T09:03:37</time></trkpt><trkpt lat="55.8054080" lon="49.1468400"><time>2021-08-14T09:03:38</time></trkpt><trkpt lat="55.8053970" lon="49.1468600"><time>2021-08-14T09:03:39</time></trkpt><trkpt lat="55.8053820" lon="49.1468880"><time>2021-08-14T09:03:40</time></trkpt><trkpt lat="55.8053760" lon="49.1469010"><time>2021-08-14T09:03:41</time></trkpt><trkpt lat="55.8053700" lon="49.1469140"><time>2021-08-14T09:03:42</time></trkpt><trkpt lat="55.8053550" lon="49.1469190"><time>2021-08-14T09:03:43</time></trkpt><trkpt lat="55.8053500" lon="49.1469090"><time>2021-08-14T09:03:44</time></trkpt><trkpt lat="55.8053630" lon="49.1468960"><time>2021-08-14T09:03:45</time></trkpt><trkpt lat="55.8053650" lon="49.1468900"><time>2021-08-14T09:03:46</time></trkpt><trkpt lat="55.8053640" lon="49.1468970"><time>2021-08-14T09:03:47</time></trkpt><trkpt lat="55.8053600" lon="49.1468990"><time>2021-08-14T09:03:48</time></trkpt><trkpt lat="55.8053550" lon="49.1468990"><time>2021-08-14T09:03:49</time></trkpt><trkpt lat="55.8053530" lon="49.1469480"><time>2021-08-14T09:03:50</time></trkpt><trkpt lat="55.8053470" lon="49.1469600"><time>2021-08-14T09:03:51</time></trkpt><trkpt lat="55.8053410" lon="49.1469810"><time>2021-08-14T09:03:52</time></trkpt><trkpt lat="55.8053330" lon="49.1469950"><time>2021-08-14T09:03:53</time></trkpt><trkpt lat="55.8053290" lon="49.1470070"><time>2021-08-14T09:03:54</time></trkpt><trkpt lat="55.8053240" lon="49.1470210"><time>2021-08-14T09:03:55</time></trkpt><trkpt lat="55.8053130" lon="49.1470380"><time>2021-08-14T09:03:56</time></trkpt><trkpt lat="55.8053110" lon="49.1470560"><time>2021-08-14T09:03:57</time></trkpt><trkpt lat="55.8053030" lon="49.1470720"><time>2021-08-14T09:03:58</time></trkpt><trkpt lat="55.8052920" lon="49.1470930"><time>2021-08-14T09:03:59</time></trkpt><trkpt lat="55.8052840" lon="49.1471160"><time>2021-08-14T09:04:00</time></trkpt><trkpt lat="55.8052720" lon="49.1471310"><time>2021-08-14T09:04:01</time></trkpt><trkpt lat="55.8052640" lon="49.1471500"><time>2021-08-14T09:04:02</time></trkpt><trkpt lat="55.8052610" lon="49.1471640"><time>2021-08-14T09:04:03</time></trkpt><trkpt lat="55.8052590" lon="49.1471770"><time>2021-08-14T09:04:04</time></trkpt><trkpt lat="55.8052560" lon="49.1471900"><time>2021-08-14T09:04:05</time></trkpt><trkpt lat="55.8052450" lon="49.1472190"><time>2021-08-14T09:04:06</time></trkpt><trkpt lat="55.8052370" lon="49.1472340"><time>2021-08-14T09:04:07</time></trkpt><trkpt lat="55.8052290" lon="49.1472490"><time>2021-08-14T09:04:08</time></trkpt><trkpt lat="55.8052120" lon="49.1472780"><time>2021-08-14T09:04:09</time></trkpt><trkpt lat="55.8052070" lon="49.1472940"><time>2021-08-14T09:04:10</time></trkpt><trkpt lat="55.8052010" lon="49.1473100"><time>2021-08-14T09:04:11</time></trkpt><trkpt lat="55.8051880" lon="49.1473250"><time>2021-08-14T09:04:12</time></trkpt><trkpt lat="55.8051770" lon="49.1473380"><time>2021-08-14T09:04:13</time></trkpt><trkpt lat="55.8051640" lon="49.1473560"><time>2021-08-14T09:04:14</time></trkpt><trkpt lat="55.8051530" lon="49.1473840"><time>2021-08-14T09:04:15</time></trkpt><trkpt lat="55.8051420" lon="49.1474100"><time>2021-08-14T09:04:16</time></trkpt><trkpt lat="55.8051320" lon="49.1474310"><time>2021-08-14T09:04:17</time></trkpt><trkpt lat="55.8051150" lon="49.1474720"><time>2021-08-14T09:04:18</time></trkpt><trkpt lat="55.8051100" lon="49.1474850"><time>2021-08-14T09:04:19</time></trkpt><trkpt lat="55.8051000" lon="49.1475140"><time>2021-08-14T09:04:20</time></trkpt><trkpt lat="55.8050900" lon="49.1475370"><time>2021-08-14T09:04:21</time></trkpt><trkpt lat="55.8050600" lon="49.1475700"><time>2021-08-14T09:04:22</time></trkpt><trkpt lat="55.8050480" lon="49.1475870"><time>2021-08-14T09:04:23</time></trkpt><trkpt lat="55.8050380" lon="49.1476080"><time>2021-08-14T09:04:24</time></trkpt><trkpt lat="55.8050280" lon="49.1476350"><time>2021-08-14T09:04:25</time></trkpt><trkpt lat="55.8050180" lon="49.1476600"><time>2021-08-14T09:04:26</time></trkpt><trkpt lat="55.8050050" lon="49.1476820"><time>2021-08-14T09:04:27</time></trkpt><trkpt lat="55.8049940" lon="49.1477060"><time>2021-08-14T09:04:28</time></trkpt><trkpt lat="55.8049860" lon="49.1477310"><time>2021-08-14T09:04:29</time></trkpt><trkpt lat="55.8049760" lon="49.1477540"><time>2021-08-14T09:04:30</time></trkpt><trkpt lat="55.8049590" lon="49.1477700"><time>2021-08-14T09:04:31</time></trkpt><trkpt lat="55.8049460" lon="49.1477870"><time>2021-08-14T09:04:32</time></trkpt><trkpt lat="55.8049330" lon="49.1478070"><time>2021-08-14T09:04:33</time></trkpt><trkpt lat="55.8049260" lon="49.1478370"><time>2021-08-14T09:04:34</time></trkpt><trkpt lat="55.8049160" lon="49.1478550"><time>2021-08-14T09:04:35</time></trkpt><trkpt lat="55.8049030" lon="49.1478700"><time>2021-08-14T09:04:36</time></trkpt><trkpt lat="55.8048840" lon="49.1478910"><time>2021-08-14T09:04:37</time></trkpt><trkpt lat="55.8048780" lon="49.1479030"><time>2021-08-14T09:04:38</time></trkpt><trkpt lat="55.8048710" lon="49.1479140"><time>2021-08-14T09:04:39</time></trkpt><trkpt lat="55.8048690" lon="49.1479490"><time>2021-08-14T09:04:40</time></trkpt><trkpt lat="55.8048560" lon="49.1479720"><time>2021-08-14T09:04:41</time></trkpt><trkpt lat="55.8048500" lon="49.1479930"><time>2021-08-14T09:04:42</time></trkpt><trkpt lat="55.8048320" lon="49.1480150"><time>2021-08-14T09:04:43</time></trkpt><trkpt lat="55.8048230" lon="49.1480390"><time>2021-08-14T09:04:44</time></trkpt><trkpt lat="55.8048120" lon="49.1480550"><time>2021-08-14T09:04:45</time></trkpt><trkpt lat="55.8048010" lon="49.1480770"><time>2021-08-14T09:04:46</time></trkpt><trkpt lat="55.8047880" lon="49.1480860"><time>2021-08-14T09:04:47</time></trkpt><trkpt lat="55.8047720" lon="49.1480800"><time>2021-08-14T09:04:48</time></trkpt><trkpt lat="55.8047700" lon="49.1481040"><time>2021-08-14T09:04:49</time></trkpt><trkpt lat="55.8047540" lon="49.1480970"><time>2021-08-14T09:04:50</time></trkpt><trkpt lat="55.8047450" lon="49.1481010"><time>2021-08-14T09:04:51</time></trkpt><trkpt lat="55.8047310" lon="49.1481080"><time>2021-08-14T09:04:52</time></trkpt><trkpt lat="55.8047230" lon="49.1481290"><time>2021-08-14T09:04:53</time></trkpt><trkpt lat="55.8047140" lon="49.1481520"><time>2021-08-14T09:04:54</time></trkpt><trkpt lat="55.8046990" lon="49.1481620"><time>2021-08-14T09:04:55</time></trkpt><trkpt lat="55.8046890" lon="49.1481770"><time>2021-08-14T09:04:56</time></trkpt><trkpt lat="55.8046880" lon="49.1482140"><time>2021-08-14T09:04:57</time></trkpt><trkpt lat="55.8046750" lon="49.1482350"><time>2021-08-14T09:04:58</time></trkpt><trkpt lat="55.8046560" lon="49.1482400"><time>2021-08-14T09:04:59</time></trkpt><trkpt lat="55.8046450" lon="49.1482430"><time>2021-08-14T09:05:00</time></trkpt><trkpt lat="55.8046360" lon="49.1482580"><time>2021-08-14T09:05:01</time></trkpt><trkpt lat="55.8046250" lon="49.1482690"><time>2021-08-14T09:05:02</time></trkpt><trkpt lat="55.8046070" lon="49.1482920"><time>2021-08-14T09:05:03</time></trkpt><trkpt lat="55.8046010" lon="49.1483000"><time>2021-08-14T09:05:04</time></trkpt><trkpt lat="55.8045940" lon="49.1483090"><time>2021-08-14T09:05:05</time></trkpt><trkpt lat="55.8045840" lon="49.1483250"><time>2021-08-14T09:05:06</time></trkpt><trkpt lat="55.8045720" lon="49.1483400"><time>2021-08-14T09:05:07</time></trkpt><trkpt lat="55.8045590" lon="49.1483740"><time>2021-08-14T09:05:08</time></trkpt><trkpt lat="55.8045520" lon="49.1483820"><time>2021-08-14T09:05:09</time></trkpt><trkpt lat="55.8045450" lon="49.1483910"><time>2021-08-14T09:05:10</time></trkpt><trkpt lat="55.8045340" lon="49.1484040"><time>2021-08-14T09:05:11</time></trkpt><trkpt lat="55.8045230" lon="49.1484240"><time>2021-08-14T09:05:12</time></trkpt><trkpt lat="55.8045050" lon="49.1484490"><time>2021-08-14T09:05:13</time></trkpt><trkpt lat="55.8044990" lon="49.1484570"><time>2021-08-14T09:05:14</time></trkpt><trkpt lat="55.8044920" lon="49.1484660"><time>2021-08-14T09:05:15</time></trkpt><trkpt lat="55.8044850" lon="49.1484810"><time>2021-08-14T09:05:16</time></trkpt><trkpt lat="55.8044850" lon="49.1484990"><time>2021-08-14T09:05:17</time></trkpt><trkpt lat="55.8044790" lon="49.1485160"><time>2021-08-14T09:05:18</time></trkpt><trkpt lat="55.8044720" lon="49.1485340"><time>2021-08-14T09:05:19</time></trkpt><trkpt lat="55.8044640" lon="49.1485500"><time>2021-08-14T09:05:20</time></trkpt><trkpt lat="55.8044630" lon="49.1485720"><time>2021-08-14T09:05:21</time></trkpt><trkpt lat="55.8044550" lon="49.1485830"><time>2021-08-14T09:05:22</time></trkpt><trkpt lat="55.8044500" lon="49.1486020"><time>2021-08-14T09:05:23</time></trkpt><trkpt lat="55.8044420" lon="49.1486110"><time>2021-08-14T09:05:24</time></trkpt><trkpt lat="55.8044370" lon="49.1486070"><time>2021-08-14T09:05:25</time></trkpt><trkpt lat="55.8044340" lon="49.1486000"><time>2021-08-14T09:05:26</time></trkpt><trkpt lat="55.8044320" lon="49.1486000"><time>2021-08-14T09:05:27</time></trkpt><trkpt lat="55.8044330" lon="49.1485900"><time>2021-08-14T09:05:28</time></trkpt><trkpt lat="55.8044280" lon="49.1485880"><time>2021-08-14T09:05:29</time></trkpt><trkpt lat="55.8044270" lon="49.1485940"><time>2021-08-14T09:05:30</time></trkpt><trkpt lat="55.8044260" lon="49.1486010"><time>2021-08-14T09:05:31</time></trkpt><trkpt lat="55.8044240" lon="49.1486130"><time>2021-08-14T09:05:32</time></trkpt><trkpt lat="55.8044240" lon="49.1486170"><time>2021-08-14T09:05:33</time></trkpt><trkpt lat="55.8044240" lon="49.1486140"><time>2021-08-14T09:05:34</time></trkpt><trkpt lat="55.8044230" lon="49.1486210"><time>2021-08-14T09:05:35</time></trkpt><trkpt lat="55.8044220" lon="49.1486200"><time>2021-08-14T09:05:36</time></trkpt><trkpt lat="55.8044290" lon="49.1486220"><time>2021-08-14T09:05:37</time></trkpt><trkpt lat="55.8044180" lon="49.1486360"><time>2021-08-14T09:05:38</time></trkpt><trkpt lat="55.8044040" lon="49.1486470"><time>2021-08-14T09:05:39</time></trkpt><trkpt lat="55.8043990" lon="49.1486510"><time>2021-08-14T09:05:40</time></trkpt><trkpt lat="55.8043910" lon="49.1486710"><time>2021-08-14T09:05:41</time></trkpt><trkpt lat="55.8043820" lon="49.1486770"><time>2021-08-14T09:05:42</time></trkpt><trkpt lat="55.8043730" lon="49.1486920"><time>2021-08-14T09:05:43</time></trkpt><trkpt lat="55.8043630" lon="49.1487120"><time>2021-08-14T09:05:44</time></trkpt><trkpt lat="55.8043420" lon="49.1487340"><time>2021-08-14T09:05:45</time></trkpt><trkpt lat="55.8043320" lon="49.1487480"><time>2021-08-14T09:05:46</time></trkpt><trkpt lat="55.8043130" lon="49.1487450"><time>2021-08-14T09:05:47</time></trkpt><trkpt lat="55.8043020" lon="49.1487540"><time>2021-08-14T09:05:48</time></trkpt><trkpt lat="55.8042910" lon="49.1487570"><time>2021-08-14T09:05:49</time></trkpt><trkpt lat="55.8042850" lon="49.1487810"><time>2021-08-14T09:05:50</time></trkpt><trkpt lat="55.8042740" lon="49.1487860"><time>2021-08-14T09:05:51</time></trkpt><trkpt lat="55.8042530" lon="49.1488010"><time>2021-08-14T09:05:52</time></trkpt><trkpt lat="55.8042450" lon="49.1488210"><time>2021-08-14T09:05:53</time></trkpt><trkpt lat="55.8042310" lon="49.1488340"><time>2021-08-14T09:05:54</time></trkpt><trkpt lat="55.8042210" lon="49.1488480"><time>2021-08-14T09:05:55</time></trkpt><trkpt lat="55.8042120" lon="49.1488750"><time>2021-08-14T09:05:56</time></trkpt><trkpt lat="55.8042010" lon="49.1488920"><time>2021-08-14T09:05:57</time></trkpt><trkpt lat="55.8041880" lon="49.1489220"><time>2021-08-14T09:05:58</time></trkpt><trkpt lat="55.8041790" lon="49.1489290"><time>2021-08-14T09:05:59</time></trkpt><trkpt lat="55.8041700" lon="49.1489360"><time>2021-08-14T09:06:00</time></trkpt><trkpt lat="55.8041520" lon="49.1489510"><time>2021-08-14T09:06:01</time></trkpt><trkpt lat="55.8041430" lon="49.1489620"><time>2021-08-14T09:06:02</time></trkpt><trkpt lat="55.8041330" lon="49.1489740"><time>2021-08-14T09:06:03</time></trkpt><trkpt lat="55.8041250" lon="49.1490030"><time>2021-08-14T09:06:04</time></trkpt><trkpt lat="55.8041090" lon="49.1490050"><time>2021-08-14T09:06:05</time></trkpt><trkpt lat="55.8040840" lon="49.1490040"><time>2021-08-14T09:06:06</time></trkpt><trkpt lat="55.8040760" lon="49.1490140"><time>2021-08-14T09:06:07</time></trkpt><trkpt lat="55.8040690" lon="49.1490250"><time>2021-08-14T09:06:08</time></trkpt><trkpt lat="55.8040540" lon="49.1490490"><time>2021-08-14T09:06:09</time></trkpt><trkpt lat="55.8040480" lon="49.1490600"><time>2021-08-14T09:06:10</time></trkpt><trkpt lat="55.8040420" lon="49.1490700"><time>2021-08-14T09:06:11</time></trkpt><trkpt lat="55.8040360" lon="49.1490930"><time>2021-08-14T09:06:12</time></trkpt><trkpt lat="55.8040260" lon="49.1491170"><time>2021-08-14T09:06:13</time></trkpt><trkpt lat="55.8040160" lon="49.1491460"><time>2021-08-14T09:06:14</time></trkpt><trkpt lat="55.8040130" lon="49.1491740"><time>2021-08-14T09:06:16</time></trkpt><trkpt lat="55.8040030" lon="49.1491890"><time>2021-08-14T09:06:17</time></trkpt><trkpt lat="55.8039970" lon="49.1492170"><time>2021-08-14T09:06:18</time></trkpt><trkpt lat="55.8040030" lon="49.1492730"><time>2021-08-14T09:06:19</time></trkpt><trkpt lat="55.8040070" lon="49.1492900"><time>2021-08-14T09:06:20</time></trkpt><trkpt lat="55.8040310" lon="49.1493320"><time>2021-08-14T09:06:21</time></trkpt><trkpt lat="55.8040370" lon="49.1493460"><time>2021-08-14T09:06:22</time></trkpt><trkpt lat="55.8040510" lon="49.1493670"><time>2021-08-14T09:06:23</time></trkpt><trkpt lat="55.8040590" lon="49.1493930"><time>2021-08-14T09:06:24</time></trkpt><trkpt lat="55.8040650" lon="49.1494190"><time>2021-08-14T09:06:25</time></trkpt><trkpt lat="55.8040770" lon="49.1494340"><time>2021-08-14T09:06:26</time></trkpt><trkpt lat="55.8040880" lon="49.1494540"><time>2021-08-14T09:06:27</time></trkpt><trkpt lat="55.8041030" lon="49.1494620"><time>2021-08-14T09:06:28</time></trkpt><trkpt lat="55.8041220" lon="49.1494630"><time>2021-08-14T09:06:29</time></trkpt><trkpt lat="55.8041370" lon="49.1494750"><time>2021-08-14T09:06:30</time></trkpt><trkpt lat="55.8041570" lon="49.1495180"><time>2021-08-14T09:06:31</time></trkpt><trkpt lat="55.8041610" lon="49.1495300"><time>2021-08-14T09:06:32</time></trkpt><trkpt lat="55.8041630" lon="49.1495600"><time>2021-08-14T09:06:33</time></trkpt><trkpt lat="55.8041630" lon="49.1495890"><time>2021-08-14T09:06:34</time></trkpt><trkpt lat="55.8041610" lon="49.1496140"><time>2021-08-14T09:06:35</time></trkpt><trkpt lat="55.8041670" lon="49.1496380"><time>2021-08-14T09:06:36</time></trkpt><trkpt lat="55.8041710" lon="49.1496610"><time>2021-08-14T09:06:37</time></trkpt><trkpt lat="55.8041730" lon="49.1497000"><time>2021-08-14T09:06:38</time></trkpt><trkpt lat="55.8041800" lon="49.1497280"><time>2021-08-14T09:06:39</time></trkpt><trkpt lat="55.8041850" lon="49.1497540"><time>2021-08-14T09:06:40</time></trkpt><trkpt lat="55.8041900" lon="49.1497810"><time>2021-08-14T09:06:41</time></trkpt><trkpt lat="55.8041990" lon="49.1497990"><time>2021-08-14T09:06:42</time></trkpt><trkpt lat="55.8042060" lon="49.1498210"><time>2021-08-14T09:06:43</time></trkpt><trkpt lat="55.8042100" lon="49.1498510"><time>2021-08-14T09:06:44</time></trkpt><trkpt lat="55.8042130" lon="49.1498760"><time>2021-08-14T09:06:45</time></trkpt><trkpt lat="55.8042080" lon="49.1499010"><time>2021-08-14T09:06:46</time></trkpt><trkpt lat="55.8042100" lon="49.1499300"><time>2021-08-14T09:06:47</time></trkpt><trkpt lat="55.8042040" lon="49.1499560"><time>2021-08-14T09:06:48</time></trkpt><trkpt lat="55.8041940" lon="49.1499750"><time>2021-08-14T09:06:49</time></trkpt><trkpt lat="55.8041800" lon="49.1499960"><time>2021-08-14T09:06:50</time></trkpt><trkpt lat="55.8041680" lon="49.1500200"><time>2021-08-14T09:06:51</time></trkpt><trkpt lat="55.8041590" lon="49.1500470"><time>2021-08-14T09:06:52</time></trkpt><trkpt lat="55.8041410" lon="49.1500590"><time>2021-08-14T09:06:53</time></trkpt><trkpt lat="55.8041300" lon="49.1500740"><time>2021-08-14T09:06:54</time></trkpt><trkpt lat="55.8041140" lon="49.1500860"><time>2021-08-14T09:06:55</time></trkpt><trkpt lat="55.8041010" lon="49.1500870"><time>2021-08-14T09:06:56</time></trkpt><trkpt lat="55.8040780" lon="49.1500560"><time>2021-08-14T09:06:57</time></trkpt><trkpt lat="55.8040630" lon="49.1500460"><time>2021-08-14T09:06:58</time></trkpt><trkpt lat="55.8040480" lon="49.1500370"><time>2021-08-14T09:06:59</time></trkpt><trkpt lat="55.8040330" lon="49.1500470"><time>2021-08-14T09:07:00</time></trkpt><trkpt lat="55.8040200" lon="49.1500620"><time>2021-08-14T09:07:01</time></trkpt><trkpt lat="55.8040060" lon="49.1500810"><time>2021-08-14T09:07:02</time></trkpt><trkpt lat="55.8039870" lon="49.1500750"><time>2021-08-14T09:07:03</time></trkpt><trkpt lat="55.8039610" lon="49.1500370"><time>2021-08-14T09:07:04</time></trkpt><trkpt lat="55.8039530" lon="49.1500200"><time>2021-08-14T09:07:05</time></trkpt><trkpt lat="55.8039330" lon="49.1499810"><time>2021-08-14T09:07:06</time></trkpt><trkpt lat="55.8039260" lon="49.1499730"><time>2021-08-14T09:07:07</time></trkpt><trkpt lat="55.8039060" lon="49.1499370"><time>2021-08-14T09:07:08</time></trkpt><trkpt lat="55.8038980" lon="49.1499250"><time>2021-08-14T09:07:09</time></trkpt><trkpt lat="55.8038660" lon="49.1499310"><time>2021-08-14T09:07:10</time></trkpt><trkpt lat="55.8038550" lon="49.1499350"><time>2021-08-14T09:07:11</time></trkpt><trkpt lat="55.8038280" lon="49.1499520"><time>2021-08-14T09:07:12</time></trkpt><trkpt lat="55.8038190" lon="49.1499580"><time>2021-08-14T09:07:13</time></trkpt><trkpt lat="55.8038050" lon="49.1499780"><time>2021-08-14T09:07:14</time></trkpt><trkpt lat="55.8037920" lon="49.1499870"><time>2021-08-14T09:07:15</time></trkpt><trkpt lat="55.8037800" lon="49.1499930"><time>2021-08-14T09:07:16</time></trkpt><trkpt lat="55.8037670" lon="49.1500100"><time>2021-08-14T09:07:17</time></trkpt><trkpt lat="55.8037560" lon="49.1500290"><time>2021-08-14T09:07:18</time></trkpt><trkpt lat="55.8037500" lon="49.1500570"><time>2021-08-14T09:07:19</time></trkpt><trkpt lat="55.8037430" lon="49.1500790"><time>2021-08-14T09:07:20</time></trkpt><trkpt lat="55.8037280" lon="49.1500840"><time>2021-08-14T09:07:21</time></trkpt><trkpt lat="55.8037110" lon="49.1500910"><time>2021-08-14T09:07:22</time></trkpt><trkpt lat="55.8037050" lon="49.1501140"><time>2021-08-14T09:07:23</time></trkpt><trkpt lat="55.8036930" lon="49.1501250"><time>2021-08-14T09:07:24</time></trkpt><trkpt lat="55.8036770" lon="49.1501340"><time>2021-08-14T09:07:25</time></trkpt><trkpt lat="55.8036680" lon="49.1501570"><time>2021-08-14T09:07:26</time></trkpt><trkpt lat="55.8036540" lon="49.1501720"><time>2021-08-14T09:07:27</time></trkpt><trkpt lat="55.8036430" lon="49.1501900"><time>2021-08-14T09:07:28</time></trkpt><trkpt lat="55.8036310" lon="49.1502030"><time>2021-08-14T09:07:29</time></trkpt><trkpt lat="55.8036160" lon="49.1502060"><time>2021-08-14T09:07:30</time></trkpt><trkpt lat="55.8036040" lon="49.1502240"><time>2021-08-14T09:07:31</time></trkpt><trkpt lat="55.8035850" lon="49.1502130"><time>2021-08-14T09:07:32</time></trkpt><trkpt lat="55.8035720" lon="49.1502230"><time>2021-08-14T09:07:33</time></trkpt><trkpt lat="55.8035560" lon="49.1502250"><time>2021-08-14T09:07:34</time></trkpt><trkpt lat="55.8035420" lon="49.1502270"><time>2021-08-14T09:07:35</time></trkpt><trkpt lat="55.8035300" lon="49.1502280"><time>2021-08-14T09:07:36</time></trkpt><trkpt lat="55.8035200" lon="49.1502130"><time>2021-08-14T09:07:37</time></trkpt><trkpt lat="55.8035190" lon="49.1501980"><time>2021-08-14T09:07:38</time></trkpt><trkpt lat="55.8035030" lon="49.1501920"><time>2021-08-14T09:07:39</time></trkpt><trkpt lat="55.8035070" lon="49.1501860"><time>2021-08-14T09:07:40</time></trkpt><trkpt lat="55.8035070" lon="49.1501860"><time>2021-08-14T09:07:41</time></trkpt><trkpt lat="55.8035190" lon="49.1501850"><time>2021-08-14T09:07:42</time></trkpt><trkpt lat="55.8035200" lon="49.1501800"><time>2021-08-14T09:07:43</time></trkpt><trkpt lat="55.8035300" lon="49.1501960"><time>2021-08-14T09:07:44</time></trkpt><trkpt lat="55.8035350" lon="49.1502170"><time>2021-08-14T09:07:45</time></trkpt><trkpt lat="55.8035320" lon="49.1502320"><time>2021-08-14T09:07:46</time></trkpt><trkpt lat="55.8035160" lon="49.1502340"><time>2021-08-14T09:07:47</time></trkpt><trkpt lat="55.8035050" lon="49.1502530"><time>2021-08-14T09:07:48</time></trkpt><trkpt lat="55.8034940" lon="49.1502440"><time>2021-08-14T09:07:49</time></trkpt><trkpt lat="55.8034860" lon="49.1502530"><time>2021-08-14T09:07:50</time></trkpt><trkpt lat="55.8034780" lon="49.1502610"><time>2021-08-14T09:07:51</time></trkpt><trkpt lat="55.8034700" lon="49.1502690"><time>2021-08-14T09:07:52</time></trkpt><trkpt lat="55.8034490" lon="49.1502650"><time>2021-08-14T09:07:53</time></trkpt><trkpt lat="55.8034360" lon="49.1502760"><time>2021-08-14T09:07:54</time></trkpt><trkpt lat="55.8034130" lon="49.1503170"><time>2021-08-14T09:07:55</time></trkpt><trkpt lat="55.8034060" lon="49.1503230"><time>2021-08-14T09:07:56</time></trkpt><trkpt lat="55.8033820" lon="49.1503450"><time>2021-08-14T09:07:57</time></trkpt><trkpt lat="55.8033720" lon="49.1503510"><time>2021-08-14T09:07:58</time></trkpt><trkpt lat="55.8033600" lon="49.1503670"><time>2021-08-14T09:07:59</time></trkpt><trkpt lat="55.8033520" lon="49.1503690"><time>2021-08-14T09:08:00</time></trkpt><trkpt lat="55.8033420" lon="49.1503700"><time>2021-08-14T09:08:01</time></trkpt><trkpt lat="55.8033270" lon="49.1503980"><time>2021-08-14T09:08:02</time></trkpt><trkpt lat="55.8033230" lon="49.1504080"><time>2021-08-14T09:08:03</time></trkpt><trkpt lat="55.8033180" lon="49.1504180"><time>2021-08-14T09:08:04</time></trkpt><trkpt lat="55.8032880" lon="49.1504430"><time>2021-08-14T09:08:05</time></trkpt><trkpt lat="55.8032760" lon="49.1504520"><time>2021-08-14T09:08:06</time></trkpt><trkpt lat="55.8032610" lon="49.1504570"><time>2021-08-14T09:08:07</time></trkpt><trkpt lat="55.8032420" lon="49.1504490"><time>2021-08-14T09:08:08</time></trkpt><trkpt lat="55.8032190" lon="49.1504120"><time>2021-08-14T09:08:09</time></trkpt><trkpt lat="55.8032130" lon="49.1504040"><time>2021-08-14T09:08:10</time></trkpt><trkpt lat="55.8031890" lon="49.1504250"><time>2021-08-14T09:08:11</time></trkpt><trkpt lat="55.8031800" lon="49.1504450"><time>2021-08-14T09:08:12</time></trkpt><trkpt lat="55.8031690" lon="49.1504460"><time>2021-08-14T09:08:13</time></trkpt><trkpt lat="55.8031610" lon="49.1504570"><time>2021-08-14T09:08:14</time></trkpt><trkpt lat="55.8031490" lon="49.1504580"><time>2021-08-14T09:08:15</time></trkpt><trkpt lat="55.8031220" lon="49.1504680"><time>2021-08-14T09:08:16</time></trkpt><trkpt lat="55.8031130" lon="49.1504740"><time>2021-08-14T09:08:17</time></trkpt><trkpt lat="55.8030910" lon="49.1504990"><time>2021-08-14T09:08:18</time></trkpt><trkpt lat="55.8030820" lon="49.1505120"><time>2021-08-14T09:08:19</time></trkpt><trkpt lat="55.8030620" lon="49.1505290"><time>2021-08-14T09:08:20</time></trkpt><trkpt lat="55.8030530" lon="49.1505350"><time>2021-08-14T09:08:21</time></trkpt><trkpt lat="55.8030440" lon="49.1505410"><time>2021-08-14T09:08:22</time></trkpt><trkpt lat="55.8030300" lon="49.1505500"><time>2021-08-14T09:08:23</time></trkpt><trkpt lat="55.8030150" lon="49.1505640"><time>2021-08-14T09:08:24</time></trkpt><trkpt lat="55.8030000" lon="49.1505870"><time>2021-08-14T09:08:25</time></trkpt><trkpt lat="55.8029820" lon="49.1505760"><time>2021-08-14T09:08:26</time></trkpt><trkpt lat="55.8029670" lon="49.1505880"><time>2021-08-14T09:08:27</time></trkpt><trkpt lat="55.8029530" lon="49.1506110"><time>2021-08-14T09:08:28</time></trkpt><trkpt lat="55.8029310" lon="49.1506390"><time>2021-08-14T09:08:29</time></trkpt><trkpt lat="55.8029230" lon="49.1506500"><time>2021-08-14T09:08:30</time></trkpt><trkpt lat="55.8029060" lon="49.1506500"><time>2021-08-14T09:08:31</time></trkpt><trkpt lat="55.8028900" lon="49.1506740"><time>2021-08-14T09:08:32</time></trkpt><trkpt lat="55.8028730" lon="49.1506660"><time>2021-08-14T09:08:33</time></trkpt><trkpt lat="55.8028630" lon="49.1507100"><time>2021-08-14T09:08:34</time></trkpt><trkpt lat="55.8028460" lon="49.1507560"><time>2021-08-14T09:08:35</time></trkpt><trkpt lat="55.8028390" lon="49.1507670"><time>2021-08-14T09:08:36</time></trkpt><trkpt lat="55.8028230" lon="49.1508080"><time>2021-08-14T09:08:37</time></trkpt><trkpt lat="55.8028200" lon="49.1508220"><time>2021-08-14T09:08:38</time></trkpt><trkpt lat="55.8028010" lon="49.1508550"><time>2021-08-14T09:08:39</time></trkpt><trkpt lat="55.8027960" lon="49.1508730"><time>2021-08-14T09:08:40</time></trkpt><trkpt lat="55.8027820" lon="49.1509180"><time>2021-08-14T09:08:41</time></trkpt><trkpt lat="55.8027760" lon="49.1509300"><time>2021-08-14T09:08:42</time></trkpt><trkpt lat="55.8027640" lon="49.1509540"><time>2021-08-14T09:08:43</time></trkpt><trkpt lat="55.8027540" lon="49.1509690"><time>2021-08-14T09:08:44</time></trkpt><trkpt lat="55.8027430" lon="49.1509830"><time>2021-08-14T09:08:45</time></trkpt><trkpt lat="55.8027250" lon="49.1509730"><time>2021-08-14T09:08:46</time></trkpt><trkpt lat="55.8027190" lon="49.1509830"><time>2021-08-14T09:08:47</time></trkpt><trkpt lat="55.8027060" lon="49.1509770"><time>2021-08-14T09:08:48</time></trkpt><trkpt lat="55.8027040" lon="49.1509830"><time>2021-08-14T09:08:49</time></trkpt><trkpt lat="55.8027010" lon="49.1510050"><time>2021-08-14T09:08:50</time></trkpt><trkpt lat="55.8026950" lon="49.1510180"><time>2021-08-14T09:08:51</time></trkpt><trkpt lat="55.8026890" lon="49.1510170"><time>2021-08-14T09:08:52</time></trkpt><trkpt lat="55.8026840" lon="49.1510150"><time>2021-08-14T09:08:53</time></trkpt><trkpt lat="55.8026790" lon="49.1510140"><time>2021-08-14T09:08:54</time></trkpt><trkpt lat="55.8026740" lon="49.1510120"><time>2021-08-14T09:08:55</time></trkpt><trkpt lat="55.8026680" lon="49.1510110"><time>2021-08-14T09:08:56</time></trkpt><trkpt lat="55.8026630" lon="49.1510090"><time>2021-08-14T09:08:57</time></trkpt><trkpt lat="55.8026600" lon="49.1509930"><time>2021-08-14T09:08:58</time></trkpt><trkpt lat="55.8026430" lon="49.1509650"><time>2021-08-14T09:08:59</time></trkpt><trkpt lat="55.8026290" lon="49.1509750"><time>2021-08-14T09:09:00</time></trkpt><trkpt lat="55.8026230" lon="49.1509870"><time>2021-08-14T09:09:01</time></trkpt><trkpt lat="55.8026170" lon="49.1509980"><time>2021-08-14T09:09:02</time></trkpt><trkpt lat="55.8026110" lon="49.1510090"><time>2021-08-14T09:09:03</time></trkpt><trkpt lat="55.8026060" lon="49.1510310"><time>2021-08-14T09:09:04</time></trkpt><trkpt lat="55.8026050" lon="49.1510340"><time>2021-08-14T09:09:05</time></trkpt><trkpt lat="55.8026030" lon="49.1510380"><time>2021-08-14T09:09:06</time></trkpt><trkpt lat="55.8026020" lon="49.1510410"><time>2021-08-14T09:09:07</time></trkpt><trkpt lat="55.8026000" lon="49.1510450"><time>2021-08-14T09:09:08</time></trkpt><trkpt lat="55.8025990" lon="49.1510490"><time>2021-08-14T09:09:09</time></trkpt><trkpt lat="55.8025970" lon="49.1510520"><time>2021-08-14T09:09:10</time></trkpt><trkpt lat="55.8025950" lon="49.1510560"><time>2021-08-14T09:09:11</time></trkpt><trkpt lat="55.8025940" lon="49.1510590"><time>2021-08-14T09:09:12</time></trkpt><trkpt lat="55.8025920" lon="49.1510630"><time>2021-08-14T09:09:13</time></trkpt><trkpt lat="55.8025910" lon="49.1510660"><time>2021-08-14T09:09:14</time></trkpt><trkpt lat="55.8025890" lon="49.1510700"><time>2021-08-14T09:09:15</time></trkpt><trkpt lat="55.8025730" lon="49.1510970"><time>2021-08-14T09:09:16</time></trkpt><trkpt lat="55.8025600" lon="49.1511060"><time>2021-08-14T09:09:17</time></trkpt><trkpt lat="55.8025520" lon="49.1511130"><time>2021-08-14T09:09:18</time></trkpt><trkpt lat="55.8025480" lon="49.1511100"><time>2021-08-14T09:09:19</time></trkpt><trkpt lat="55.8025490" lon="49.1511150"><time>2021-08-14T09:09:20</time></trkpt><trkpt lat="55.8025450" lon="49.1511170"><time>2021-08-14T09:09:21</time></trkpt><trkpt lat="55.8025450" lon="49.1511260"><time>2021-08-14T09:09:22</time></trkpt><trkpt lat="55.8025280" lon="49.1511100"><time>2021-08-14T09:09:23</time></trkpt><trkpt lat="55.8025270" lon="49.1511200"><time>2021-08-14T09:09:24</time></trkpt><trkpt lat="55.8025270" lon="49.1511280"><time>2021-08-14T09:09:25</time></trkpt><trkpt lat="55.8025070" lon="49.1511390"><time>2021-08-14T09:09:26</time></trkpt><trkpt lat="55.8025030" lon="49.1511340"><time>2021-08-14T09:09:27</time></trkpt><trkpt lat="55.8025020" lon="49.1511440"><time>2021-08-14T09:09:28</time></trkpt><trkpt lat="55.8024970" lon="49.1511500"><time>2021-08-14T09:09:29</time></trkpt><trkpt lat="55.8024930" lon="49.1511560"><time>2021-08-14T09:09:30</time></trkpt><trkpt lat="55.8024890" lon="49.1511620"><time>2021-08-14T09:09:31</time></trkpt><trkpt lat="55.8024850" lon="49.1511680"><time>2021-08-14T09:09:32</time></trkpt><trkpt lat="55.8024800" lon="49.1511740"><time>2021-08-14T09:09:33</time></trkpt><trkpt lat="55.8024760" lon="49.1511800"><time>2021-08-14T09:09:34</time></trkpt><trkpt lat="55.8024760" lon="49.1511840"><time>2021-08-14T09:09:35</time></trkpt><trkpt lat="55.8024650" lon="49.1511800"><time>2021-08-14T09:09:36</time></trkpt><trkpt lat="55.8024630" lon="49.1511710"><time>2021-08-14T09:09:37</time></trkpt><trkpt lat="55.8024670" lon="49.1511730"><time>2021-08-14T09:09:38</time></trkpt><trkpt lat="55.8024630" lon="49.1511610"><time>2021-08-14T09:09:39</time></trkpt><trkpt lat="55.8024440" lon="49.1511500"><time>2021-08-14T09:09:40</time></trkpt><trkpt lat="55.8024140" lon="49.1511230"><time>2021-08-14T09:09:41</time></trkpt><trkpt lat="55.8024010" lon="49.1511140"><time>2021-08-14T09:09:42</time></trkpt><trkpt lat="55.8023800" lon="49.1511200"><time>2021-08-14T09:09:43</time></trkpt><trkpt lat="55.8023730" lon="49.1511080"><time>2021-08-14T09:09:44</time></trkpt><trkpt lat="55.8023710" lon="49.1510940"><time>2021-08-14T09:09:45</time></trkpt><trkpt lat="55.8023630" lon="49.1510920"><time>2021-08-14T09:09:46</time></trkpt><trkpt lat="55.8023490" lon="49.1510910"><time>2021-08-14T09:09:47</time></trkpt><trkpt lat="55.8023410" lon="49.1511100"><time>2021-08-14T09:09:48</time></trkpt><trkpt lat="55.8023310" lon="49.1511290"><time>2021-08-14T09:09:49</time></trkpt><trkpt lat="55.8023180" lon="49.1511470"><time>2021-08-14T09:09:50</time></trkpt><trkpt lat="55.8023070" lon="49.1511620"><time>2021-08-14T09:09:51</time></trkpt><trkpt lat="55.8022900" lon="49.1511660"><time>2021-08-14T09:09:52</time></trkpt><trkpt lat="55.8022830" lon="49.1511700"><time>2021-08-14T09:09:53</time></trkpt><trkpt lat="55.8022740" lon="49.1511830"><time>2021-08-14T09:09:54</time></trkpt><trkpt lat="55.8022610" lon="49.1511950"><time>2021-08-14T09:09:55</time></trkpt><trkpt lat="55.8022570" lon="49.1511920"><time>2021-08-14T09:09:56</time></trkpt><trkpt lat="55.8022570" lon="49.1511860"><time>2021-08-14T09:09:57</time></trkpt><trkpt lat="55.8022610" lon="49.1511850"><time>2021-08-14T09:09:58</time></trkpt><trkpt lat="55.8022590" lon="49.1511900"><time>2021-08-14T09:09:59</time></trkpt><trkpt lat="55.8022600" lon="49.1511970"><time>2021-08-14T09:10:00</time></trkpt><trkpt lat="55.8022610" lon="49.1511980"><time>2021-08-14T09:10:01</time></trkpt><trkpt lat="55.8022600" lon="49.1511970"><time>2021-08-14T09:10:02</time></trkpt><trkpt lat="55.8022640" lon="49.1511860"><time>2021-08-14T09:10:03</time></trkpt><trkpt lat="55.8022680" lon="49.1511910"><time>2021-08-14T09:10:04</time></trkpt><trkpt lat="55.8022700" lon="49.1511930"><time>2021-08-14T09:10:05</time></trkpt><trkpt lat="55.8022690" lon="49.1511910"><time>2021-08-14T09:10:06</time></trkpt><trkpt lat="55.8022660" lon="49.1511890"><time>2021-08-14T09:10:07</time></trkpt><trkpt lat="55.8022660" lon="49.1511980"><time>2021-08-14T09:10:08</time></trkpt><trkpt lat="55.8022660" lon="49.1511960"><time>2021-08-14T09:10:09</time></trkpt><trkpt lat="55.8022650" lon="49.1511910"><time>2021-08-14T09:10:11</time></trkpt><trkpt lat="55.8022590" lon="49.1511830"><time>2021-08-14T09:10:12</time></trkpt><trkpt lat="55.8022610" lon="49.1511890"><time>2021-08-14T09:10:13</time></trkpt><trkpt lat="55.8022630" lon="49.1511800"><time>2021-08-14T09:10:14</time></trkpt><trkpt lat="55.8022740" lon="49.1511670"><time>2021-08-14T09:10:15</time></trkpt><trkpt lat="55.8022770" lon="49.1511650"><time>2021-08-14T09:10:16</time></trkpt><trkpt lat="55.8022860" lon="49.1511510"><time>2021-08-14T09:10:17</time></trkpt><trkpt lat="55.8022960" lon="49.1511370"><time>2021-08-14T09:10:18</time></trkpt><trkpt lat="55.8022980" lon="49.1511350"><time>2021-08-14T09:10:19</time></trkpt><trkpt lat="55.8023180" lon="49.1511290"><time>2021-08-14T09:10:20</time></trkpt><trkpt lat="55.8023500" lon="49.1511080"><time>2021-08-14T09:10:21</time></trkpt><trkpt lat="55.8023630" lon="49.1511020"><time>2021-08-14T09:10:22</time></trkpt><trkpt lat="55.8023800" lon="49.1510810"><time>2021-08-14T09:10:23</time></trkpt><trkpt lat="55.8023950" lon="49.1510740"><time>2021-08-14T09:10:24</time></trkpt><trkpt lat="55.8024130" lon="49.1510680"><time>2021-08-14T09:10:25</time></trkpt><trkpt lat="55.8024260" lon="49.1510590"><time>2021-08-14T09:10:26</time></trkpt><trkpt lat="55.8024400" lon="49.1510530"><time>2021-08-14T09:10:27</time></trkpt><trkpt lat="55.8024510" lon="49.1510370"><time>2021-08-14T09:10:28</time></trkpt><trkpt lat="55.8024700" lon="49.1510140"><time>2021-08-14T09:10:29</time></trkpt><trkpt lat="55.8024830" lon="49.1510090"><time>2021-08-14T09:10:30</time></trkpt><trkpt lat="55.8024840" lon="49.1510080"><time>2021-08-14T09:10:31</time></trkpt><trkpt lat="55.8024950" lon="49.1510070"><time>2021-08-14T09:10:32</time></trkpt><trkpt lat="55.8025140" lon="49.1509930"><time>2021-08-14T09:10:33</time></trkpt><trkpt lat="55.8025420" lon="49.1509670"><time>2021-08-14T09:10:34</time></trkpt><trkpt lat="55.8025550" lon="49.1509530"><time>2021-08-14T09:10:35</time></trkpt><trkpt lat="55.8025690" lon="49.1509390"><time>2021-08-14T09:10:36</time></trkpt><trkpt lat="55.8026030" lon="49.1509280"><time>2021-08-14T09:10:37</time></trkpt><trkpt lat="55.8026130" lon="49.1509270"><time>2021-08-14T09:10:38</time></trkpt><trkpt lat="55.8026420" lon="49.1509050"><time>2021-08-14T09:10:39</time></trkpt><trkpt lat="55.8026490" lon="49.1508920"><time>2021-08-14T09:10:40</time></trkpt><trkpt lat="55.8026620" lon="49.1508660"><time>2021-08-14T09:10:41</time></trkpt><trkpt lat="55.8026780" lon="49.1508730"><time>2021-08-14T09:10:42</time></trkpt><trkpt lat="55.8027070" lon="49.1508670"><time>2021-08-14T09:10:43</time></trkpt><trkpt lat="55.8027160" lon="49.1508690"><time>2021-08-14T09:10:44</time></trkpt><trkpt lat="55.8027450" lon="49.1508360"><time>2021-08-14T09:10:45</time></trkpt><trkpt lat="55.8027510" lon="49.1508280"><time>2021-08-14T09:10:46</time></trkpt><trkpt lat="55.8027570" lon="49.1508160"><time>2021-08-14T09:10:47</time></trkpt><trkpt lat="55.8027780" lon="49.1507900"><time>2021-08-14T09:10:48</time></trkpt><trkpt lat="55.8027960" lon="49.1507820"><time>2021-08-14T09:10:49</time></trkpt><trkpt lat="55.8028090" lon="49.1507710"><time>2021-08-14T09:10:50</time></trkpt><trkpt lat="55.8028240" lon="49.1507680"><time>2021-08-14T09:10:51</time></trkpt><trkpt lat="55.8028360" lon="49.1507530"><time>2021-08-14T09:10:52</time></trkpt><trkpt lat="55.8028560" lon="49.1507220"><time>2021-08-14T09:10:53</time></trkpt><trkpt lat="55.8028650" lon="49.1507130"><time>2021-08-14T09:10:54</time></trkpt><trkpt lat="55.8028820" lon="49.1507200"><time>2021-08-14T09:10:55</time></trkpt><trkpt lat="55.8028990" lon="49.1507110"><time>2021-08-14T09:10:56</time></trkpt><trkpt lat="55.8029230" lon="49.1506860"><time>2021-08-14T09:10:57</time></trkpt><trkpt lat="55.8029310" lon="49.1506790"><time>2021-08-14T09:10:58</time></trkpt><trkpt lat="55.8029460" lon="49.1506670"><time>2021-08-14T09:10:59</time></trkpt><trkpt lat="55.8029600" lon="49.1506570"><time>2021-08-14T09:11:00</time></trkpt><trkpt lat="55.8029780" lon="49.1506450"><time>2021-08-14T09:11:01</time></trkpt><trkpt lat="55.8029900" lon="49.1506390"><time>2021-08-14T09:11:02</time></trkpt><trkpt lat="55.8030010" lon="49.1506330"><time>2021-08-14T09:11:03</time></trkpt><trkpt lat="55.8030180" lon="49.1506230"><time>2021-08-14T09:11:04</time></trkpt><trkpt lat="55.8030350" lon="49.1506080"><time>2021-08-14T09:11:05</time></trkpt><trkpt lat="55.8030510" lon="49.1505980"><time>2021-08-14T09:11:06</time></trkpt><trkpt lat="55.8030670" lon="49.1505910"><time>2021-08-14T09:11:07</time></trkpt><trkpt lat="55.8030800" lon="49.1505810"><time>2021-08-14T09:11:08</time></trkpt><trkpt lat="55.8031000" lon="49.1505680"><time>2021-08-14T09:11:09</time></trkpt><trkpt lat="55.8031120" lon="49.1505650"><time>2021-08-14T09:11:10</time></trkpt><trkpt lat="55.8031230" lon="49.1505620"><time>2021-08-14T09:11:11</time></trkpt><trkpt lat="55.8031400" lon="49.1505470"><time>2021-08-14T09:11:12</time></trkpt><trkpt lat="55.8031480" lon="49.1505370"><time>2021-08-14T09:11:13</time></trkpt><trkpt lat="55.8031560" lon="49.1505260"><time>2021-08-14T09:11:14</time></trkpt><trkpt lat="55.8031790" lon="49.1505060"><time>2021-08-14T09:11:15</time></trkpt><trkpt lat="55.8031890" lon="49.1504960"><time>2021-08-14T09:11:16</time></trkpt><trkpt lat="55.8032050" lon="49.1504870"><time>2021-08-14T09:11:17</time></trkpt><trkpt lat="55.8032120" lon="49.1504630"><time>2021-08-14T09:11:18</time></trkpt><trkpt lat="55.8032350" lon="49.1504540"><time>2021-08-14T09:11:19</time></trkpt><trkpt lat="55.8032420" lon="49.1504480"><time>2021-08-14T09:11:20</time></trkpt><trkpt lat="55.8032490" lon="49.1504420"><time>2021-08-14T09:11:21</time></trkpt><trkpt lat="55.8032770" lon="49.1504370"><time>2021-08-14T09:11:22</time></trkpt><trkpt lat="55.8032890" lon="49.1504350"><time>2021-08-14T09:11:23</time></trkpt><trkpt lat="55.8033020" lon="49.1504200"><time>2021-08-14T09:11:24</time></trkpt><trkpt lat="55.8033180" lon="49.1503960"><time>2021-08-14T09:11:25</time></trkpt><trkpt lat="55.8033340" lon="49.1503880"><time>2021-08-14T09:11:26</time></trkpt><trkpt lat="55.8033470" lon="49.1503810"><time>2021-08-14T09:11:27</time></trkpt><trkpt lat="55.8033650" lon="49.1503590"><time>2021-08-14T09:11:28</time></trkpt><trkpt lat="55.8033720" lon="49.1503500"><time>2021-08-14T09:11:29</time></trkpt><trkpt lat="55.8033800" lon="49.1503420"><time>2021-08-14T09:11:30</time></trkpt><trkpt lat="55.8034060" lon="49.1503160"><time>2021-08-14T09:11:31</time></trkpt><trkpt lat="55.8034150" lon="49.1503090"><time>2021-08-14T09:11:32</time></trkpt><trkpt lat="55.8034280" lon="49.1503040"><time>2021-08-14T09:11:33</time></trkpt><trkpt lat="55.8034410" lon="49.1502860"><time>2021-08-14T09:11:34</time></trkpt><trkpt lat="55.8034590" lon="49.1502800"><time>2021-08-14T09:11:35</time></trkpt><trkpt lat="55.8034750" lon="49.1502720"><time>2021-08-14T09:11:36</time></trkpt><trkpt lat="55.8034820" lon="49.1502580"><time>2021-08-14T09:11:37</time></trkpt><trkpt lat="55.8035010" lon="49.1502530"><time>2021-08-14T09:11:38</time></trkpt><trkpt lat="55.8035310" lon="49.1502330"><time>2021-08-14T09:11:39</time></trkpt><trkpt lat="55.8035400" lon="49.1502250"><time>2021-08-14T09:11:40</time></trkpt><trkpt lat="55.8035620" lon="49.1502150"><time>2021-08-14T09:11:41</time></trkpt><trkpt lat="55.8035710" lon="49.1502080"><time>2021-08-14T09:11:42</time></trkpt><trkpt lat="55.8035810" lon="49.1502000"><time>2021-08-14T09:11:43</time></trkpt><trkpt lat="55.8036030" lon="49.1501780"><time>2021-08-14T09:11:44</time></trkpt><trkpt lat="55.8036140" lon="49.1501720"><time>2021-08-14T09:11:45</time></trkpt><trkpt lat="55.8036250" lon="49.1501590"><time>2021-08-14T09:11:46</time></trkpt><trkpt lat="55.8036410" lon="49.1501570"><time>2021-08-14T09:11:47</time></trkpt><trkpt lat="55.8036700" lon="49.1501440"><time>2021-08-14T09:11:48</time></trkpt><trkpt lat="55.8036830" lon="49.1501390"><time>2021-08-14T09:11:49</time></trkpt><trkpt lat="55.8037000" lon="49.1501130"><time>2021-08-14T09:11:50</time></trkpt><trkpt lat="55.8037060" lon="49.1501050"><time>2021-08-14T09:11:51</time></trkpt><trkpt lat="55.8037120" lon="49.1500970"><time>2021-08-14T09:11:52</time></trkpt><trkpt lat="55.8037270" lon="49.1500750"><time>2021-08-14T09:11:53</time></trkpt><trkpt lat="55.8037370" lon="49.1500700"><time>2021-08-14T09:11:54</time></trkpt><trkpt lat="55.8037460" lon="49.1500640"><time>2021-08-14T09:11:55</time></trkpt><trkpt lat="55.8037620" lon="49.1500540"><time>2021-08-14T09:11:56</time></trkpt><trkpt lat="55.8037750" lon="49.1500470"><time>2021-08-14T09:11:57</time></trkpt><trkpt lat="55.8037910" lon="49.1500390"><time>2021-08-14T09:11:58</time></trkpt><trkpt lat="55.8038030" lon="49.1500300"><time>2021-08-14T09:11:59</time></trkpt><trkpt lat="55.8038280" lon="49.1499950"><time>2021-08-14T09:12:00</time></trkpt><trkpt lat="55.8038390" lon="49.1499870"><time>2021-08-14T09:12:01</time></trkpt><trkpt lat="55.8038700" lon="49.1499640"><time>2021-08-14T09:12:02</time></trkpt><trkpt lat="55.8038790" lon="49.1499530"><time>2021-08-14T09:12:03</time></trkpt><trkpt lat="55.8039010" lon="49.1499420"><time>2021-08-14T09:12:04</time></trkpt><trkpt lat="55.8039100" lon="49.1499330"><time>2021-08-14T09:12:05</time></trkpt><trkpt lat="55.8039190" lon="49.1499240"><time>2021-08-14T09:12:06</time></trkpt><trkpt lat="55.8039390" lon="49.1499100"><time>2021-08-14T09:12:07</time></trkpt><trkpt lat="55.8039530" lon="49.1499050"><time>2021-08-14T09:12:08</time></trkpt><trkpt lat="55.8039690" lon="49.1498940"><time>2021-08-14T09:12:09</time></trkpt><trkpt lat="55.8039810" lon="49.1498870"><time>2021-08-14T09:12:10</time></trkpt><trkpt lat="55.8040000" lon="49.1498700"><time>2021-08-14T09:12:11</time></trkpt><trkpt lat="55.8039940" lon="49.1498520"><time>2021-08-14T09:12:12</time></trkpt><trkpt lat="55.8040030" lon="49.1498370"><time>2021-08-14T09:12:13</time></trkpt><trkpt lat="55.8040290" lon="49.1498080"><time>2021-08-14T09:12:14</time></trkpt><trkpt lat="55.8040400" lon="49.1498000"><time>2021-08-14T09:12:15</time></trkpt><trkpt lat="55.8040500" lon="49.1497910"><time>2021-08-14T09:12:16</time></trkpt><trkpt lat="55.8040720" lon="49.1497750"><time>2021-08-14T09:12:17</time></trkpt><trkpt lat="55.8040990" lon="49.1497540"><time>2021-08-14T09:12:18</time></trkpt><trkpt lat="55.8041050" lon="49.1497470"><time>2021-08-14T09:12:19</time></trkpt><trkpt lat="55.8041180" lon="49.1497310"><time>2021-08-14T09:12:20</time></trkpt><trkpt lat="55.8041340" lon="49.1497190"><time>2021-08-14T09:12:21</time></trkpt><trkpt lat="55.8041530" lon="49.1496960"><time>2021-08-14T09:12:22</time></trkpt><trkpt lat="55.8041630" lon="49.1496840"><time>2021-08-14T09:12:23</time></trkpt><trkpt lat="55.8041720" lon="49.1496730"><time>2021-08-14T09:12:24</time></trkpt><trkpt lat="55.8042000" lon="49.1496570"><time>2021-08-14T09:12:25</time></trkpt><trkpt lat="55.8042070" lon="49.1496480"><time>2021-08-14T09:12:26</time></trkpt><trkpt lat="55.8042250" lon="49.1496330"><time>2021-08-14T09:12:27</time></trkpt><trkpt lat="55.8042340" lon="49.1496220"><time>2021-08-14T09:12:28</time></trkpt><trkpt lat="55.8042510" lon="49.1496000"><time>2021-08-14T09:12:29</time></trkpt><trkpt lat="55.8042620" lon="49.1495810"><time>2021-08-14T09:12:30</time></trkpt><trkpt lat="55.8042820" lon="49.1495710"><time>2021-08-14T09:12:31</time></trkpt><trkpt lat="55.8042890" lon="49.1495520"><time>2021-08-14T09:12:32</time></trkpt><trkpt lat="55.8043140" lon="49.1495300"><time>2021-08-14T09:12:33</time></trkpt><trkpt lat="55.8043220" lon="49.1495230"><time>2021-08-14T09:12:34</time></trkpt><trkpt lat="55.8043360" lon="49.1495130"><time>2021-08-14T09:12:35</time></trkpt><trkpt lat="55.8043530" lon="49.1495030"><time>2021-08-14T09:12:36</time></trkpt><trkpt lat="55.8043700" lon="49.1494950"><time>2021-08-14T09:12:37</time></trkpt><trkpt lat="55.8043810" lon="49.1494810"><time>2021-08-14T09:12:38</time></trkpt><trkpt lat="55.8043980" lon="49.1494640"><time>2021-08-14T09:12:39</time></trkpt><trkpt lat="55.8044090" lon="49.1494530"><time>2021-08-14T09:12:40</time></trkpt><trkpt lat="55.8044210" lon="49.1494260"><time>2021-08-14T09:12:41</time></trkpt><trkpt lat="55.8044360" lon="49.1494140"><time>2021-08-14T09:12:42</time></trkpt><trkpt lat="55.8044500" lon="49.1494060"><time>2021-08-14T09:12:43</time></trkpt><trkpt lat="55.8044620" lon="49.1493890"><time>2021-08-14T09:12:44</time></trkpt><trkpt lat="55.8044710" lon="49.1493780"><time>2021-08-14T09:12:45</time></trkpt><trkpt lat="55.8044850" lon="49.1493620"><time>2021-08-14T09:12:46</time></trkpt><trkpt lat="55.8045130" lon="49.1493440"><time>2021-08-14T09:12:47</time></trkpt><trkpt lat="55.8045210" lon="49.1493450"><time>2021-08-14T09:12:48</time></trkpt><trkpt lat="55.8045310" lon="49.1493310"><time>2021-08-14T09:12:49</time></trkpt><trkpt lat="55.8045420" lon="49.1493070"><time>2021-08-14T09:12:50</time></trkpt><trkpt lat="55.8045620" lon="49.1492700"><time>2021-08-14T09:12:51</time></trkpt><trkpt lat="55.8045650" lon="49.1492560"><time>2021-08-14T09:12:52</time></trkpt><trkpt lat="55.8045760" lon="49.1492390"><time>2021-08-14T09:12:53</time></trkpt><trkpt lat="55.8045820" lon="49.1492160"><time>2021-08-14T09:12:54</time></trkpt><trkpt lat="55.8046180" lon="49.1491980"><time>2021-08-14T09:12:55</time></trkpt><trkpt lat="55.8046280" lon="49.1491900"><time>2021-08-14T09:12:56</time></trkpt><trkpt lat="55.8046300" lon="49.1491630"><time>2021-08-14T09:12:57</time></trkpt><trkpt lat="55.8046430" lon="49.1491480"><time>2021-08-14T09:12:58</time></trkpt><trkpt lat="55.8046600" lon="49.1491080"><time>2021-08-14T09:12:59</time></trkpt><trkpt lat="55.8046700" lon="49.1490980"><time>2021-08-14T09:13:00</time></trkpt><trkpt lat="55.8046830" lon="49.1490840"><time>2021-08-14T09:13:01</time></trkpt><trkpt lat="55.8046970" lon="49.1490700"><time>2021-08-14T09:13:02</time></trkpt><trkpt lat="55.8047210" lon="49.1490420"><time>2021-08-14T09:13:03</time></trkpt><trkpt lat="55.8047320" lon="49.1490280"><time>2021-08-14T09:13:04</time></trkpt><trkpt lat="55.8047460" lon="49.1490070"><time>2021-08-14T09:13:05</time></trkpt><trkpt lat="55.8047610" lon="49.1490000"><time>2021-08-14T09:13:06</time></trkpt><trkpt lat="55.8047800" lon="49.1489880"><time>2021-08-14T09:13:07</time></trkpt><trkpt lat="55.8047950" lon="49.1489790"><time>2021-08-14T09:13:08</time></trkpt><trkpt lat="55.8048010" lon="49.1489460"><time>2021-08-14T09:13:09</time></trkpt><trkpt lat="55.8048130" lon="49.1489260"><time>2021-08-14T09:13:10</time></trkpt><trkpt lat="55.8048260" lon="49.1489140"><time>2021-08-14T09:13:11</time></trkpt><trkpt lat="55.8048390" lon="49.1489070"><time>2021-08-14T09:13:12</time></trkpt><trkpt lat="55.8048660" lon="49.1488730"><time>2021-08-14T09:13:13</time></trkpt><trkpt lat="55.8048720" lon="49.1488640"><time>2021-08-14T09:13:14</time></trkpt><trkpt lat="55.8048820" lon="49.1488810"><time>2021-08-14T09:13:15</time></trkpt><trkpt lat="55.8048890" lon="49.1488590"><time>2021-08-14T09:13:16</time></trkpt><trkpt lat="55.8048920" lon="49.1488270"><time>2021-08-14T09:13:17</time></trkpt><trkpt lat="55.8049040" lon="49.1487990"><time>2021-08-14T09:13:18</time></trkpt><trkpt lat="55.8049160" lon="49.1487790"><time>2021-08-14T09:13:19</time></trkpt><trkpt lat="55.8049290" lon="49.1487710"><time>2021-08-14T09:13:20</time></trkpt><trkpt lat="55.8049410" lon="49.1487530"><time>2021-08-14T09:13:21</time></trkpt><trkpt lat="55.8049490" lon="49.1487250"><time>2021-08-14T09:13:22</time></trkpt><trkpt lat="55.8049580" lon="49.1486990"><time>2021-08-14T09:13:23</time></trkpt><trkpt lat="55.8049730" lon="49.1486710"><time>2021-08-14T09:13:24</time></trkpt><trkpt lat="55.8049830" lon="49.1486550"><time>2021-08-14T09:13:25</time></trkpt><trkpt lat="55.8049940" lon="49.1486380"><time>2021-08-14T09:13:26</time></trkpt><trkpt lat="55.8050130" lon="49.1486090"><time>2021-08-14T09:13:27</time></trkpt><trkpt lat="55.8050190" lon="49.1485980"><time>2021-08-14T09:13:28</time></trkpt><trkpt lat="55.8050260" lon="49.1485870"><time>2021-08-14T09:13:29</time></trkpt><trkpt lat="55.8050420" lon="49.1485750"><time>2021-08-14T09:13:30</time></trkpt><trkpt lat="55.8050550" lon="49.1485710"><time>2021-08-14T09:13:31</time></trkpt><trkpt lat="55.8050640" lon="49.1485390"><time>2021-08-14T09:13:32</time></trkpt><trkpt lat="55.8050700" lon="49.1485230"><time>2021-08-14T09:13:33</time></trkpt><trkpt lat="55.8050750" lon="49.1485080"><time>2021-08-14T09:13:34</time></trkpt><trkpt lat="55.8050890" lon="49.1484900"><time>2021-08-14T09:13:35</time></trkpt><trkpt lat="55.8050970" lon="49.1484760"><time>2021-08-14T09:13:36</time></trkpt><trkpt lat="55.8051050" lon="49.1484630"><time>2021-08-14T09:13:37</time></trkpt><trkpt lat="55.8051310" lon="49.1484170"><time>2021-08-14T09:13:38</time></trkpt><trkpt lat="55.8051390" lon="49.1484050"><time>2021-08-14T09:13:39</time></trkpt><trkpt lat="55.8051490" lon="49.1483840"><time>2021-08-14T09:13:40</time></trkpt><trkpt lat="55.8051610" lon="49.1483580"><time>2021-08-14T09:13:41</time></trkpt><trkpt lat="55.8051720" lon="49.1483390"><time>2021-08-14T09:13:42</time></trkpt><trkpt lat="55.8051840" lon="49.1483250"><time>2021-08-14T09:13:43</time></trkpt><trkpt lat="55.8051950" lon="49.1483030"><time>2021-08-14T09:13:44</time></trkpt><trkpt lat="55.8052030" lon="49.1482840"><time>2021-08-14T09:13:45</time></trkpt><trkpt lat="55.8052130" lon="49.1482320"><time>2021-08-14T09:13:46</time></trkpt><trkpt lat="55.8052160" lon="49.1482200"><time>2021-08-14T09:13:47</time></trkpt><trkpt lat="55.8052240" lon="49.1482040"><time>2021-08-14T09:13:48</time></trkpt><trkpt lat="55.8052400" lon="49.1481880"><time>2021-08-14T09:13:49</time></trkpt><trkpt lat="55.8052560" lon="49.1481810"><time>2021-08-14T09:13:50</time></trkpt><trkpt lat="55.8052670" lon="49.1481650"><time>2021-08-14T09:13:51</time></trkpt><trkpt lat="55.8052810" lon="49.1481580"><time>2021-08-14T09:13:52</time></trkpt><trkpt lat="55.8052950" lon="49.1481330"><time>2021-08-14T09:13:53</time></trkpt><trkpt lat="55.8053010" lon="49.1481170"><time>2021-08-14T09:13:54</time></trkpt><trkpt lat="55.8053070" lon="49.1480790"><time>2021-08-14T09:13:55</time></trkpt><trkpt lat="55.8053150" lon="49.1480510"><time>2021-08-14T09:13:56</time></trkpt><trkpt lat="55.8053290" lon="49.1480360"><time>2021-08-14T09:13:57</time></trkpt><trkpt lat="55.8053410" lon="49.1480230"><time>2021-08-14T09:13:58</time></trkpt><trkpt lat="55.8053510" lon="49.1479970"><time>2021-08-14T09:13:59</time></trkpt><trkpt lat="55.8053740" lon="49.1479700"><time>2021-08-14T09:14:00</time></trkpt><trkpt lat="55.8053810" lon="49.1479580"><time>2021-08-14T09:14:01</time></trkpt><trkpt lat="55.8053890" lon="49.1479290"><time>2021-08-14T09:14:02</time></trkpt><trkpt lat="55.8053970" lon="49.1479050"><time>2021-08-14T09:14:03</time></trkpt><trkpt lat="55.8054050" lon="49.1478720"><time>2021-08-14T09:14:04</time></trkpt><trkpt lat="55.8054140" lon="49.1478650"><time>2021-08-14T09:14:05</time></trkpt><trkpt lat="55.8054230" lon="49.1478590"><time>2021-08-14T09:14:06</time></trkpt><trkpt lat="55.8054360" lon="49.1478470"><time>2021-08-14T09:14:07</time></trkpt><trkpt lat="55.8054450" lon="49.1478180"><time>2021-08-14T09:14:08</time></trkpt><trkpt lat="55.8054500" lon="49.1477900"><time>2021-08-14T09:14:09</time></trkpt><trkpt lat="55.8054610" lon="49.1477660"><time>2021-08-14T09:14:10</time></trkpt><trkpt lat="55.8054710" lon="49.1477510"><time>2021-08-14T09:14:11</time></trkpt><trkpt lat="55.8054800" lon="49.1477260"><time>2021-08-14T09:14:12</time></trkpt><trkpt lat="55.8054900" lon="49.1477030"><time>2021-08-14T09:14:13</time></trkpt><trkpt lat="55.8055020" lon="49.1476830"><time>2021-08-14T09:14:14</time></trkpt><trkpt lat="55.8055140" lon="49.1476630"><time>2021-08-14T09:14:15</time></trkpt><trkpt lat="55.8055190" lon="49.1476380"><time>2021-08-14T09:14:16</time></trkpt><trkpt lat="55.8055250" lon="49.1476180"><time>2021-08-14T09:14:17</time></trkpt><trkpt lat="55.8055370" lon="49.1475850"><time>2021-08-14T09:14:18</time></trkpt><trkpt lat="55.8055440" lon="49.1475590"><time>2021-08-14T09:14:19</time></trkpt><trkpt lat="55.8055560" lon="49.1475400"><time>2021-08-14T09:14:20</time></trkpt><trkpt lat="55.8055660" lon="49.1475200"><time>2021-08-14T09:14:21</time></trkpt><trkpt lat="55.8055720" lon="49.1474920"><time>2021-08-14T09:14:22</time></trkpt><trkpt lat="55.8055790" lon="49.1474740"><time>2021-08-14T09:14:23</time></trkpt><trkpt lat="55.8055860" lon="49.1474490"><time>2021-08-14T09:14:24</time></trkpt><trkpt lat="55.8055960" lon="49.1474280"><time>2021-08-14T09:14:25</time></trkpt><trkpt lat="55.8056050" lon="49.1474060"><time>2021-08-14T09:14:26</time></trkpt><trkpt lat="55.8056140" lon="49.1473860"><time>2021-08-14T09:14:27</time></trkpt><trkpt lat="55.8056230" lon="49.1473590"><time>2021-08-14T09:14:28</time></trkpt><trkpt lat="55.8056330" lon="49.1473340"><time>2021-08-14T09:14:29</time></trkpt><trkpt lat="55.8056430" lon="49.1473080"><time>2021-08-14T09:14:30</time></trkpt><trkpt lat="55.8056470" lon="49.1472850"><time>2021-08-14T09:14:31</time></trkpt><trkpt lat="55.8056550" lon="49.1472650"><time>2021-08-14T09:14:32</time></trkpt><trkpt lat="55.8056650" lon="49.1472380"><time>2021-08-14T09:14:33</time></trkpt><trkpt lat="55.8056730" lon="49.1472280"><time>2021-08-14T09:14:34</time></trkpt><trkpt lat="55.8056780" lon="49.1472090"><time>2021-08-14T09:14:35</time></trkpt><trkpt lat="55.8056820" lon="49.1471930"><time>2021-08-14T09:14:36</time></trkpt><trkpt lat="55.8056860" lon="49.1471860"><time>2021-08-14T09:14:37</time></trkpt><trkpt lat="55.8057040" lon="49.1471460"><time>2021-08-14T09:14:38</time></trkpt><trkpt lat="55.8057110" lon="49.1471340"><time>2021-08-14T09:14:39</time></trkpt><trkpt lat="55.8057340" lon="49.1470920"><time>2021-08-14T09:14:40</time></trkpt><trkpt lat="55.8057450" lon="49.1470690"><time>2021-08-14T09:14:41</time></trkpt><trkpt lat="55.8057510" lon="49.1470470"><time>2021-08-14T09:14:42</time></trkpt><trkpt lat="55.8057530" lon="49.1470100"><time>2021-08-14T09:14:43</time></trkpt><trkpt lat="55.8057640" lon="49.1469880"><time>2021-08-14T09:14:44</time></trkpt><trkpt lat="55.8057730" lon="49.1469640"><time>2021-08-14T09:14:45</time></trkpt><trkpt lat="55.8057810" lon="49.1469400"><time>2021-08-14T09:14:46</time></trkpt><trkpt lat="55.8057950" lon="49.1469320"><time>2021-08-14T09:14:47</time></trkpt><trkpt lat="55.8058000" lon="49.1469000"><time>2021-08-14T09:14:48</time></trkpt><trkpt lat="55.8058040" lon="49.1468720"><time>2021-08-14T09:14:49</time></trkpt><trkpt lat="55.8058130" lon="49.1468480"><time>2021-08-14T09:14:50</time></trkpt><trkpt lat="55.8058200" lon="49.1468440"><time>2021-08-14T09:14:51</time></trkpt><trkpt lat="55.8058270" lon="49.1468390"><time>2021-08-14T09:14:52</time></trkpt><trkpt lat="55.8058350" lon="49.1468020"><time>2021-08-14T09:14:53</time></trkpt><trkpt lat="55.8058480" lon="49.1467640"><time>2021-08-14T09:14:54</time></trkpt><trkpt lat="55.8058530" lon="49.1467390"><time>2021-08-14T09:14:55</time></trkpt><trkpt lat="55.8058700" lon="49.1467010"><time>2021-08-14T09:14:56</time></trkpt><trkpt lat="55.8058760" lon="49.1466880"><time>2021-08-14T09:14:57</time></trkpt><trkpt lat="55.8058920" lon="49.1466520"><time>2021-08-14T09:14:58</time></trkpt><trkpt lat="55.8058970" lon="49.1466340"><time>2021-08-14T09:14:59</time></trkpt><trkpt lat="55.8059050" lon="49.1466070"><time>2021-08-14T09:15:00</time></trkpt><trkpt lat="55.8059040" lon="49.1465710"><time>2021-08-14T09:15:01</time></trkpt><trkpt lat="55.8059140" lon="49.1465490"><time>2021-08-14T09:15:02</time></trkpt><trkpt lat="55.8059200" lon="49.1465180"><time>2021-08-14T09:15:03</time></trkpt><trkpt lat="55.8059340" lon="49.1464980"><time>2021-08-14T09:15:04</time></trkpt><trkpt lat="55.8059380" lon="49.1464900"><time>2021-08-14T09:15:05</time></trkpt><trkpt lat="55.8059420" lon="49.1464810"><time>2021-08-14T09:15:06</time></trkpt><trkpt lat="55.8059460" lon="49.1464720"><time>2021-08-14T09:15:07</time></trkpt><trkpt lat="55.8059500" lon="49.1464310"><time>2021-08-14T09:15:08</time></trkpt><trkpt lat="55.8059630" lon="49.1464160"><time>2021-08-14T09:15:09</time></trkpt><trkpt lat="55.8059850" lon="49.1463880"><time>2021-08-14T09:15:10</time></trkpt><trkpt lat="55.8059910" lon="49.1463700"><time>2021-08-14T09:15:11</time></trkpt><trkpt lat="55.8060030" lon="49.1463210"><time>2021-08-14T09:15:12</time></trkpt><trkpt lat="55.8060040" lon="49.1463060"><time>2021-08-14T09:15:13</time></trkpt><trkpt lat="55.8060080" lon="49.1462720"><time>2021-08-14T09:15:14</time></trkpt><trkpt lat="55.8060190" lon="49.1462480"><time>2021-08-14T09:15:15</time></trkpt><trkpt lat="55.8060250" lon="49.1462250"><time>2021-08-14T09:15:16</time></trkpt><trkpt lat="55.8060350" lon="49.1462030"><time>2021-08-14T09:15:17</time></trkpt><trkpt lat="55.8060480" lon="49.1461600"><time>2021-08-14T09:15:18</time></trkpt><trkpt lat="55.8060550" lon="49.1461460"><time>2021-08-14T09:15:19</time></trkpt><trkpt lat="55.8060610" lon="49.1461230"><time>2021-08-14T09:15:20</time></trkpt><trkpt lat="55.8060650" lon="49.1460980"><time>2021-08-14T09:15:21</time></trkpt><trkpt lat="55.8060540" lon="49.1460520"><time>2021-08-14T09:15:22</time></trkpt><trkpt lat="55.8060580" lon="49.1460200"><time>2021-08-14T09:15:23</time></trkpt><trkpt lat="55.8060700" lon="49.1460020"><time>2021-08-14T09:15:24</time></trkpt><trkpt lat="55.8060770" lon="49.1459780"><time>2021-08-14T09:15:25</time></trkpt><trkpt lat="55.8060880" lon="49.1459550"><time>2021-08-14T09:15:26</time></trkpt><trkpt lat="55.8060980" lon="49.1459400"><time>2021-08-14T09:15:27</time></trkpt><trkpt lat="55.8061070" lon="49.1459190"><time>2021-08-14T09:15:28</time></trkpt><trkpt lat="55.8061180" lon="49.1459000"><time>2021-08-14T09:15:29</time></trkpt><trkpt lat="55.8061290" lon="49.1458890"><time>2021-08-14T09:15:30</time></trkpt><trkpt lat="55.8061240" lon="49.1458430"><time>2021-08-14T09:15:31</time></trkpt><trkpt lat="55.8061170" lon="49.1458220"><time>2021-08-14T09:15:32</time></trkpt><trkpt lat="55.8061180" lon="49.1457950"><time>2021-08-14T09:15:33</time></trkpt><trkpt lat="55.8061310" lon="49.1457710"><time>2021-08-14T09:15:34</time></trkpt><trkpt lat="55.8061540" lon="49.1457390"><time>2021-08-14T09:15:35</time></trkpt><trkpt lat="55.8061580" lon="49.1457200"><time>2021-08-14T09:15:36</time></trkpt><trkpt lat="55.8061630" lon="49.1456880"><time>2021-08-14T09:15:37</time></trkpt><trkpt lat="55.8061700" lon="49.1456670"><time>2021-08-14T09:15:38</time></trkpt><trkpt lat="55.8061710" lon="49.1456340"><time>2021-08-14T09:15:39</time></trkpt><trkpt lat="55.8061840" lon="49.1456140"><time>2021-08-14T09:15:40</time></trkpt><trkpt lat="55.8061880" lon="49.1455870"><time>2021-08-14T09:15:41</time></trkpt><trkpt lat="55.8061900" lon="49.1455590"><time>2021-08-14T09:15:42</time></trkpt><trkpt lat="55.8061970" lon="49.1455300"><time>2021-08-14T09:15:43</time></trkpt><trkpt lat="55.8062070" lon="49.1455090"><time>2021-08-14T09:15:44</time></trkpt><trkpt lat="55.8062160" lon="49.1454810"><time>2021-08-14T09:15:45</time></trkpt><trkpt lat="55.8062180" lon="49.1454500"><time>2021-08-14T09:15:46</time></trkpt><trkpt lat="55.8062210" lon="49.1454210"><time>2021-08-14T09:15:47</time></trkpt><trkpt lat="55.8062350" lon="49.1453970"><time>2021-08-14T09:15:48</time></trkpt><trkpt lat="55.8062470" lon="49.1453790"><time>2021-08-14T09:15:49</time></trkpt><trkpt lat="55.8062590" lon="49.1453520"><time>2021-08-14T09:15:50</time></trkpt><trkpt lat="55.8062620" lon="49.1453250"><time>2021-08-14T09:15:51</time></trkpt><trkpt lat="55.8062710" lon="49.1453080"><time>2021-08-14T09:15:52</time></trkpt><trkpt lat="55.8062820" lon="49.1452800"><time>2021-08-14T09:15:53</time></trkpt><trkpt lat="55.8062900" lon="49.1452570"><time>2021-08-14T09:15:54</time></trkpt><trkpt lat="55.8062910" lon="49.1452350"><time>2021-08-14T09:15:55</time></trkpt><trkpt lat="55.8062960" lon="49.1452200"><time>2021-08-14T09:15:56</time></trkpt><trkpt lat="55.8063030" lon="49.1451960"><time>2021-08-14T09:15:57</time></trkpt><trkpt lat="55.8063140" lon="49.1451880"><time>2021-08-14T09:15:58</time></trkpt><trkpt lat="55.8063140" lon="49.1451810"><time>2021-08-14T09:15:59</time></trkpt><trkpt lat="55.8063200" lon="49.1451560"><time>2021-08-14T09:16:00</time></trkpt><trkpt lat="55.8063280" lon="49.1451350"><time>2021-08-14T09:16:01</time></trkpt><trkpt lat="55.8063400" lon="49.1451090"><time>2021-08-14T09:16:02</time></trkpt><trkpt lat="55.8063440" lon="49.1450520"><time>2021-08-14T09:16:03</time></trkpt><trkpt lat="55.8063470" lon="49.1450330"><time>2021-08-14T09:16:04</time></trkpt><trkpt lat="55.8063560" lon="49.1449900"><time>2021-08-14T09:16:05</time></trkpt><trkpt lat="55.8063590" lon="49.1449750"><time>2021-08-14T09:16:06</time></trkpt><trkpt lat="55.8063630" lon="49.1449610"><time>2021-08-14T09:16:07</time></trkpt><trkpt lat="55.8063730" lon="49.1449370"><time>2021-08-14T09:16:08</time></trkpt><trkpt lat="55.8063760" lon="49.1449050"><time>2021-08-14T09:16:09</time></trkpt><trkpt lat="55.8063820" lon="49.1448810"><time>2021-08-14T09:16:10</time></trkpt><trkpt lat="55.8063890" lon="49.1448690"><time>2021-08-14T09:16:11</time></trkpt><trkpt lat="55.8063980" lon="49.1448650"><time>2021-08-14T09:16:12</time></trkpt><trkpt lat="55.8064020" lon="49.1448080"><time>2021-08-14T09:16:13</time></trkpt><trkpt lat="55.8064080" lon="49.1447860"><time>2021-08-14T09:16:14</time></trkpt><trkpt lat="55.8064130" lon="49.1447630"><time>2021-08-14T09:16:15</time></trkpt><trkpt lat="55.8064200" lon="49.1447380"><time>2021-08-14T09:16:16</time></trkpt><trkpt lat="55.8064260" lon="49.1447120"><time>2021-08-14T09:16:17</time></trkpt><trkpt lat="55.8064380" lon="49.1446590"><time>2021-08-14T09:16:18</time></trkpt><trkpt lat="55.8064410" lon="49.1446420"><time>2021-08-14T09:16:19</time></trkpt><trkpt lat="55.8064450" lon="49.1446200"><time>2021-08-14T09:16:20</time></trkpt><trkpt lat="55.8064560" lon="49.1445940"><time>2021-08-14T09:16:21</time></trkpt><trkpt lat="55.8064680" lon="49.1445740"><time>2021-08-14T09:16:22</time></trkpt><trkpt lat="55.8064720" lon="49.1445420"><time>2021-08-14T09:16:23</time></trkpt><trkpt lat="55.8064790" lon="49.1445210"><time>2021-08-14T09:16:24</time></trkpt><trkpt lat="55.8064810" lon="49.1444860"><time>2021-08-14T09:16:25</time></trkpt><trkpt lat="55.8064930" lon="49.1444510"><time>2021-08-14T09:16:26</time></trkpt><trkpt lat="55.8064970" lon="49.1444360"><time>2021-08-14T09:16:27</time></trkpt><trkpt lat="55.8065020" lon="49.1444220"><time>2021-08-14T09:16:28</time></trkpt><trkpt lat="55.8065130" lon="49.1443950"><time>2021-08-14T09:16:29</time></trkpt><trkpt lat="55.8065180" lon="49.1443640"><time>2021-08-14T09:16:30</time></trkpt><trkpt lat="55.8065240" lon="49.1443370"><time>2021-08-14T09:16:31</time></trkpt><trkpt lat="55.8065290" lon="49.1443120"><time>2021-08-14T09:16:32</time></trkpt><trkpt lat="55.8065360" lon="49.1442880"><time>2021-08-14T09:16:33</time></trkpt><trkpt lat="55.8065370" lon="49.1442820"><time>2021-08-14T09:16:34</time></trkpt><trkpt lat="55.8065430" lon="49.1442660"><time>2021-08-14T09:16:35</time></trkpt><trkpt lat="55.8065440" lon="49.1442410"><time>2021-08-14T09:16:36</time></trkpt><trkpt lat="55.8065520" lon="49.1442190"><time>2021-08-14T09:16:37</time></trkpt><trkpt lat="55.8065580" lon="49.1441920"><time>2021-08-14T09:16:38</time></trkpt><trkpt lat="55.8065580" lon="49.1441970"><time>2021-08-14T09:16:39</time></trkpt><trkpt lat="55.8065690" lon="49.1441630"><time>2021-08-14T09:16:40</time></trkpt><trkpt lat="55.8065850" lon="49.1441140"><time>2021-08-14T09:16:41</time></trkpt><trkpt lat="55.8065880" lon="49.1441020"><time>2021-08-14T09:16:42</time></trkpt><trkpt lat="55.8065960" lon="49.1440750"><time>2021-08-14T09:16:43</time></trkpt><trkpt lat="55.8066000" lon="49.1440460"><time>2021-08-14T09:16:44</time></trkpt><trkpt lat="55.8066090" lon="49.1440290"><time>2021-08-14T09:16:45</time></trkpt><trkpt lat="55.8066150" lon="49.1440180"><time>2021-08-14T09:16:46</time></trkpt><trkpt lat="55.8066260" lon="49.1440030"><time>2021-08-14T09:16:47</time></trkpt><trkpt lat="55.8066400" lon="49.1439590"><time>2021-08-14T09:16:48</time></trkpt><trkpt lat="55.8066420" lon="49.1439400"><time>2021-08-14T09:16:49</time></trkpt><trkpt lat="55.8066360" lon="49.1439000"><time>2021-08-14T09:16:50</time></trkpt><trkpt lat="55.8066330" lon="49.1438800"><time>2021-08-14T09:16:51</time></trkpt><trkpt lat="55.8066400" lon="49.1438550"><time>2021-08-14T09:16:52</time></trkpt><trkpt lat="55.8066510" lon="49.1438290"><time>2021-08-14T09:16:53</time></trkpt><trkpt lat="55.8066670" lon="49.1437800"><time>2021-08-14T09:16:54</time></trkpt><trkpt lat="55.8066710" lon="49.1437610"><time>2021-08-14T09:16:55</time></trkpt><trkpt lat="55.8066820" lon="49.1437470"><time>2021-08-14T09:16:56</time></trkpt><trkpt lat="55.8066890" lon="49.1437180"><time>2021-08-14T09:16:57</time></trkpt><trkpt lat="55.8066920" lon="49.1436890"><time>2021-08-14T09:16:58</time></trkpt><trkpt lat="55.8067030" lon="49.1436650"><time>2021-08-14T09:16:59</time></trkpt><trkpt lat="55.8067100" lon="49.1436600"><time>2021-08-14T09:17:00</time></trkpt><trkpt lat="55.8067190" lon="49.1436440"><time>2021-08-14T09:17:01</time></trkpt><trkpt lat="55.8067280" lon="49.1436290"><time>2021-08-14T09:17:02</time></trkpt><trkpt lat="55.8067380" lon="49.1436200"><time>2021-08-14T09:17:03</time></trkpt><trkpt lat="55.8067490" lon="49.1436060"><time>2021-08-14T09:17:04</time></trkpt><trkpt lat="55.8067560" lon="49.1435920"><time>2021-08-14T09:17:05</time></trkpt><trkpt lat="55.8067590" lon="49.1435420"><time>2021-08-14T09:17:06</time></trkpt><trkpt lat="55.8067590" lon="49.1435260"><time>2021-08-14T09:17:07</time></trkpt><trkpt lat="55.8067700" lon="49.1434760"><time>2021-08-14T09:17:08</time></trkpt><trkpt lat="55.8067700" lon="49.1434590"><time>2021-08-14T09:17:09</time></trkpt><trkpt lat="55.8067860" lon="49.1434120"><time>2021-08-14T09:17:10</time></trkpt><trkpt lat="55.8067890" lon="49.1433960"><time>2021-08-14T09:17:11</time></trkpt><trkpt lat="55.8068010" lon="49.1433490"><time>2021-08-14T09:17:12</time></trkpt><trkpt lat="55.8068040" lon="49.1433310"><time>2021-08-14T09:17:13</time></trkpt><trkpt lat="55.8068130" lon="49.1433050"><time>2021-08-14T09:17:14</time></trkpt><trkpt lat="55.8068220" lon="49.1432880"><time>2021-08-14T09:17:15</time></trkpt><trkpt lat="55.8068300" lon="49.1432670"><time>2021-08-14T09:17:16</time></trkpt><trkpt lat="55.8068320" lon="49.1432350"><time>2021-08-14T09:17:17</time></trkpt><trkpt lat="55.8068360" lon="49.1432090"><time>2021-08-14T09:17:18</time></trkpt><trkpt lat="55.8068440" lon="49.1431880"><time>2021-08-14T09:17:19</time></trkpt><trkpt lat="55.8068510" lon="49.1431640"><time>2021-08-14T09:17:20</time></trkpt><trkpt lat="55.8068550" lon="49.1431350"><time>2021-08-14T09:17:21</time></trkpt><trkpt lat="55.8068620" lon="49.1431130"><time>2021-08-14T09:17:22</time></trkpt><trkpt lat="55.8068690" lon="49.1430900"><time>2021-08-14T09:17:23</time></trkpt><trkpt lat="55.8068760" lon="49.1430540"><time>2021-08-14T09:17:24</time></trkpt><trkpt lat="55.8068780" lon="49.1430390"><time>2021-08-14T09:17:25</time></trkpt><trkpt lat="55.8068810" lon="49.1430230"><time>2021-08-14T09:17:26</time></trkpt><trkpt lat="55.8068910" lon="49.1429930"><time>2021-08-14T09:17:27</time></trkpt><trkpt lat="55.8068950" lon="49.1429800"><time>2021-08-14T09:17:28</time></trkpt><trkpt lat="55.8069000" lon="49.1429670"><time>2021-08-14T09:17:29</time></trkpt><trkpt lat="55.8069100" lon="49.1429400"><time>2021-08-14T09:17:30</time></trkpt><trkpt lat="55.8069160" lon="49.1429220"><time>2021-08-14T09:17:31</time></trkpt><trkpt lat="55.8069170" lon="49.1428910"><time>2021-08-14T09:17:32</time></trkpt><trkpt lat="55.8069260" lon="49.1428670"><time>2021-08-14T09:17:33</time></trkpt><trkpt lat="55.8069340" lon="49.1428440"><time>2021-08-14T09:17:34</time></trkpt><trkpt lat="55.8069390" lon="49.1428200"><time>2021-08-14T09:17:35</time></trkpt><trkpt lat="55.8069510" lon="49.1427970"><time>2021-08-14T09:17:36</time></trkpt><trkpt lat="55.8069560" lon="49.1427650"><time>2021-08-14T09:17:37</time></trkpt><trkpt lat="55.8069610" lon="49.1427400"><time>2021-08-14T09:17:38</time></trkpt><trkpt lat="55.8069750" lon="49.1426860"><time>2021-08-14T09:17:39</time></trkpt><trkpt lat="55.8069910" lon="49.1426730"><time>2021-08-14T09:17:41</time></trkpt><trkpt lat="55.8070000" lon="49.1426090"><time>2021-08-14T09:17:42</time></trkpt><trkpt lat="55.8070040" lon="49.1425720"><time>2021-08-14T09:17:43</time></trkpt><trkpt lat="55.8070090" lon="49.1425550"><time>2021-08-14T09:17:44</time></trkpt><trkpt lat="55.8070130" lon="49.1425390"><time>2021-08-14T09:17:45</time></trkpt><trkpt lat="55.8070210" lon="49.1425070"><time>2021-08-14T09:17:46</time></trkpt><trkpt lat="55.8070210" lon="49.1424780"><time>2021-08-14T09:17:47</time></trkpt><trkpt lat="55.8070290" lon="49.1424530"><time>2021-08-14T09:17:48</time></trkpt><trkpt lat="55.8070390" lon="49.1424250"><time>2021-08-14T09:17:49</time></trkpt><trkpt lat="55.8070390" lon="49.1423950"><time>2021-08-14T09:17:50</time></trkpt><trkpt lat="55.8070390" lon="49.1423640"><time>2021-08-14T09:17:51</time></trkpt><trkpt lat="55.8070500" lon="49.1423430"><time>2021-08-14T09:17:52</time></trkpt><trkpt lat="55.8070630" lon="49.1423180"><time>2021-08-14T09:17:53</time></trkpt><trkpt lat="55.8070650" lon="49.1422920"><time>2021-08-14T09:17:54</time></trkpt><trkpt lat="55.8070700" lon="49.1422690"><time>2021-08-14T09:17:55</time></trkpt><trkpt lat="55.8070740" lon="49.1422440"><time>2021-08-14T09:17:56</time></trkpt><trkpt lat="55.8070870" lon="49.1422260"><time>2021-08-14T09:17:57</time></trkpt><trkpt lat="55.8070930" lon="49.1422020"><time>2021-08-14T09:17:58</time></trkpt><trkpt lat="55.8071030" lon="49.1421760"><time>2021-08-14T09:17:59</time></trkpt><trkpt lat="55.8071180" lon="49.1421710"><time>2021-08-14T09:18:00</time></trkpt><trkpt lat="55.8071180" lon="49.1421450"><time>2021-08-14T09:18:01</time></trkpt><trkpt lat="55.8071280" lon="49.1421340"><time>2021-08-14T09:18:02</time></trkpt><trkpt lat="55.8071440" lon="49.1421110"><time>2021-08-14T09:18:03</time></trkpt><trkpt lat="55.8071480" lon="49.1420980"><time>2021-08-14T09:18:04</time></trkpt><trkpt lat="55.8071530" lon="49.1420860"><time>2021-08-14T09:18:05</time></trkpt><trkpt lat="55.8071590" lon="49.1420530"><time>2021-08-14T09:18:06</time></trkpt><trkpt lat="55.8071660" lon="49.1420260"><time>2021-08-14T09:18:07</time></trkpt><trkpt lat="55.8071710" lon="49.1419940"><time>2021-08-14T09:18:08</time></trkpt><trkpt lat="55.8071800" lon="49.1419760"><time>2021-08-14T09:18:09</time></trkpt><trkpt lat="55.8071880" lon="49.1419670"><time>2021-08-14T09:18:10</time></trkpt><trkpt lat="55.8071940" lon="49.1419510"><time>2021-08-14T09:18:11</time></trkpt><trkpt lat="55.8071980" lon="49.1419210"><time>2021-08-14T09:18:12</time></trkpt><trkpt lat="55.8071980" lon="49.1418900"><time>2021-08-14T09:18:13</time></trkpt><trkpt lat="55.8072020" lon="49.1418580"><time>2021-08-14T09:18:14</time></trkpt><trkpt lat="55.8072040" lon="49.1418320"><time>2021-08-14T09:18:15</time></trkpt><trkpt lat="55.8072110" lon="49.1418030"><time>2021-08-14T09:18:16</time></trkpt><trkpt lat="55.8072270" lon="49.1417870"><time>2021-08-14T09:18:17</time></trkpt><trkpt lat="55.8072330" lon="49.1417630"><time>2021-08-14T09:18:18</time></trkpt><trkpt lat="55.8072350" lon="49.1417340"><time>2021-08-14T09:18:19</time></trkpt><trkpt lat="55.8072370" lon="49.1417060"><time>2021-08-14T09:18:20</time></trkpt><trkpt lat="55.8072390" lon="49.1416800"><time>2021-08-14T09:18:21</time></trkpt><trkpt lat="55.8072370" lon="49.1416480"><time>2021-08-14T09:18:22</time></trkpt><trkpt lat="55.8072480" lon="49.1416240"><time>2021-08-14T09:18:23</time></trkpt><trkpt lat="55.8072600" lon="49.1416020"><time>2021-08-14T09:18:24</time></trkpt><trkpt lat="55.8072720" lon="49.1415870"><time>2021-08-14T09:18:25</time></trkpt><trkpt lat="55.8072850" lon="49.1415840"><time>2021-08-14T09:18:26</time></trkpt><trkpt lat="55.8072930" lon="49.1415590"><time>2021-08-14T09:18:27</time></trkpt><trkpt lat="55.8073020" lon="49.1415330"><time>2021-08-14T09:18:28</time></trkpt><trkpt lat="55.8073070" lon="49.1415090"><time>2021-08-14T09:18:29</time></trkpt><trkpt lat="55.8073110" lon="49.1414850"><time>2021-08-14T09:18:30</time></trkpt><trkpt lat="55.8073140" lon="49.1414550"><time>2021-08-14T09:18:31</time></trkpt><trkpt lat="55.8073170" lon="49.1414250"><time>2021-08-14T09:18:32</time></trkpt><trkpt lat="55.8073250" lon="49.1413990"><time>2021-08-14T09:18:33</time></trkpt><trkpt lat="55.8073270" lon="49.1413760"><time>2021-08-14T09:18:35</time></trkpt><trkpt lat="55.8073320" lon="49.1413530"><time>2021-08-14T09:18:36</time></trkpt><trkpt lat="55.8073380" lon="49.1413280"><time>2021-08-14T09:18:37</time></trkpt><trkpt lat="55.8073440" lon="49.1413040"><time>2021-08-14T09:18:38</time></trkpt><trkpt lat="55.8073520" lon="49.1412790"><time>2021-08-14T09:18:39</time></trkpt><trkpt lat="55.8073540" lon="49.1412540"><time>2021-08-14T09:18:40</time></trkpt><trkpt lat="55.8073620" lon="49.1412340"><time>2021-08-14T09:18:41</time></trkpt><trkpt lat="55.8073730" lon="49.1411990"><time>2021-08-14T09:18:42</time></trkpt><trkpt lat="55.8073770" lon="49.1411850"><time>2021-08-14T09:18:43</time></trkpt><trkpt lat="55.8073820" lon="49.1411710"><time>2021-08-14T09:18:44</time></trkpt><trkpt lat="55.8073830" lon="49.1411420"><time>2021-08-14T09:18:45</time></trkpt><trkpt lat="55.8073910" lon="49.1411230"><time>2021-08-14T09:18:46</time></trkpt><trkpt lat="55.8073970" lon="49.1411200"><time>2021-08-14T09:18:47</time></trkpt><trkpt lat="55.8073970" lon="49.1411390"><time>2021-08-14T09:18:48</time></trkpt><trkpt lat="55.8074090" lon="49.1411730"><time>2021-08-14T09:18:49</time></trkpt><trkpt lat="55.8074270" lon="49.1411820"><time>2021-08-14T09:18:50</time></trkpt><trkpt lat="55.8074220" lon="49.1411790"><time>2021-08-14T09:18:51</time></trkpt><trkpt lat="55.8074230" lon="49.1411800"><time>2021-08-14T09:18:52</time></trkpt><trkpt lat="55.8074240" lon="49.1411830"><time>2021-08-14T09:18:53</time></trkpt><trkpt lat="55.8074240" lon="49.1411900"><time>2021-08-14T09:18:54</time></trkpt><trkpt lat="55.8074220" lon="49.1411910"><time>2021-08-14T09:18:55</time></trkpt><trkpt lat="55.8074170" lon="49.1411930"><time>2021-08-14T09:18:56</time></trkpt><trkpt lat="55.8074200" lon="49.1411910"><time>2021-08-14T09:18:57</time></trkpt><trkpt lat="55.8074260" lon="49.1411950"><time>2021-08-14T09:18:58</time></trkpt><trkpt lat="55.8074290" lon="49.1411950"><time>2021-08-14T09:18:59</time></trkpt><trkpt lat="55.8074260" lon="49.1412060"><time>2021-08-14T09:19:00</time></trkpt><trkpt lat="55.8074300" lon="49.1412120"><time>2021-08-14T09:19:01</time></trkpt><trkpt lat="55.8074320" lon="49.1412120"><time>2021-08-14T09:19:02</time></trkpt><trkpt lat="55.8074360" lon="49.1412130"><time>2021-08-14T09:19:03</time></trkpt><trkpt lat="55.8074400" lon="49.1412150"><time>2021-08-14T09:19:04</time></trkpt><trkpt lat="55.8074430" lon="49.1412160"><time>2021-08-14T09:19:05</time></trkpt><trkpt lat="55.8074470" lon="49.1412180"><time>2021-08-14T09:19:06</time></trkpt><trkpt lat="55.8074510" lon="49.1412190"><time>2021-08-14T09:19:07</time></trkpt><trkpt lat="55.8074550" lon="49.1412210"><time>2021-08-14T09:19:08</time></trkpt><trkpt lat="55.8074590" lon="49.1412230"><time>2021-08-14T09:19:09</time></trkpt><trkpt lat="55.8074630" lon="49.1412240"><time>2021-08-14T09:19:10</time></trkpt><trkpt lat="55.8074670" lon="49.1412260"><time>2021-08-14T09:19:11</time></trkpt><trkpt lat="55.8074700" lon="49.1412270"><time>2021-08-14T09:19:12</time></trkpt><trkpt lat="55.8074740" lon="49.1412290"><time>2021-08-14T09:19:13</time></trkpt><trkpt lat="55.8074780" lon="49.1412300"><time>2021-08-14T09:19:14</time></trkpt><trkpt lat="55.8074820" lon="49.1412320"><time>2021-08-14T09:19:15</time></trkpt><trkpt lat="55.8075000" lon="49.1412690"><time>2021-08-14T09:19:16</time></trkpt><trkpt lat="55.8074940" lon="49.1412650"><time>2021-08-14T09:19:17</time></trkpt><trkpt lat="55.8074740" lon="49.1412530"><time>2021-08-14T09:19:18</time></trkpt><trkpt lat="55.8074560" lon="49.1412290"><time>2021-08-14T09:19:19</time></trkpt><trkpt lat="55.8074480" lon="49.1412370"><time>2021-08-14T09:19:20</time></trkpt><trkpt lat="55.8074520" lon="49.1412170"><time>2021-08-14T09:19:21</time></trkpt><trkpt lat="55.8074570" lon="49.1412190"><time>2021-08-14T09:19:22</time></trkpt><trkpt lat="55.8074630" lon="49.1412210"><time>2021-08-14T09:19:23</time></trkpt><trkpt lat="55.8074690" lon="49.1412230"><time>2021-08-14T09:19:24</time></trkpt><trkpt lat="55.8074750" lon="49.1412250"><time>2021-08-14T09:19:25</time></trkpt><trkpt lat="55.8074800" lon="49.1412270"><time>2021-08-14T09:19:26</time></trkpt><trkpt lat="55.8074860" lon="49.1412290"><time>2021-08-14T09:19:27</time></trkpt><trkpt lat="55.8075170" lon="49.1412420"><time>2021-08-14T09:19:28</time></trkpt><trkpt lat="55.8075260" lon="49.1412490"><time>2021-08-14T09:19:29</time></trkpt><trkpt lat="55.8075440" lon="49.1412570"><time>2021-08-14T09:19:30</time></trkpt><trkpt lat="55.8075590" lon="49.1412580"><time>2021-08-14T09:19:31</time></trkpt><trkpt lat="55.8075710" lon="49.1412640"><time>2021-08-14T09:19:32</time></trkpt><trkpt lat="55.8075870" lon="49.1412730"><time>2021-08-14T09:19:33</time></trkpt><trkpt lat="55.8076050" lon="49.1412690"><time>2021-08-14T09:19:34</time></trkpt><trkpt lat="55.8076220" lon="49.1412720"><time>2021-08-14T09:19:35</time></trkpt><trkpt lat="55.8076390" lon="49.1412710"><time>2021-08-14T09:19:36</time></trkpt><trkpt lat="55.8076520" lon="49.1412680"><time>2021-08-14T09:19:37</time></trkpt><trkpt lat="55.8076660" lon="49.1412740"><time>2021-08-14T09:19:38</time></trkpt><trkpt lat="55.8076810" lon="49.1412760"><time>2021-08-14T09:19:39</time></trkpt><trkpt lat="55.8076920" lon="49.1412860"><time>2021-08-14T09:19:40</time></trkpt><trkpt lat="55.8077090" lon="49.1413030"><time>2021-08-14T09:19:41</time></trkpt><trkpt lat="55.8077200" lon="49.1413100"><time>2021-08-14T09:19:42</time></trkpt><trkpt lat="55.8077290" lon="49.1413220"><time>2021-08-14T09:19:43</time></trkpt><trkpt lat="55.8077370" lon="49.1413190"><time>2021-08-14T09:19:44</time></trkpt><trkpt lat="55.8077170" lon="49.1413170"><time>2021-08-14T09:19:45</time></trkpt><trkpt lat="55.8077080" lon="49.1413240"><time>2021-08-14T09:19:46</time></trkpt><trkpt lat="55.8076990" lon="49.1413310"><time>2021-08-14T09:19:47</time></trkpt><trkpt lat="55.8076910" lon="49.1413760"><time>2021-08-14T09:19:48</time></trkpt><trkpt lat="55.8076890" lon="49.1413910"><time>2021-08-14T09:19:49</time></trkpt><trkpt lat="55.8076880" lon="49.1414060"><time>2021-08-14T09:19:50</time></trkpt><trkpt lat="55.8076870" lon="49.1414130"><time>2021-08-14T09:19:51</time></trkpt><trkpt lat="55.8076800" lon="49.1414160"><time>2021-08-14T09:19:52</time></trkpt><trkpt lat="55.8076730" lon="49.1413640"><time>2021-08-14T09:19:53</time></trkpt><trkpt lat="55.8076670" lon="49.1413780"><time>2021-08-14T09:19:54</time></trkpt><trkpt lat="55.8076700" lon="49.1413960"><time>2021-08-14T09:19:55</time></trkpt><trkpt lat="55.8076740" lon="49.1414130"><time>2021-08-14T09:19:56</time></trkpt><trkpt lat="55.8076770" lon="49.1414310"><time>2021-08-14T09:19:57</time></trkpt><trkpt lat="55.8076850" lon="49.1414450"><time>2021-08-14T09:19:58</time></trkpt><trkpt lat="55.8076900" lon="49.1414420"><time>2021-08-14T09:19:59</time></trkpt><trkpt lat="55.8076930" lon="49.1414510"><time>2021-08-14T09:20:00</time></trkpt><trkpt lat="55.8076930" lon="49.1414510"><time>2021-08-14T09:20:01</time></trkpt><trkpt lat="55.8076940" lon="49.1414510"><time>2021-08-14T09:20:02</time></trkpt><trkpt lat="55.8076920" lon="49.1414490"><time>2021-08-14T09:20:03</time></trkpt><trkpt lat="55.8076970" lon="49.1414520"><time>2021-08-14T09:20:04</time></trkpt><trkpt lat="55.8076990" lon="49.1414530"><time>2021-08-14T09:20:05</time></trkpt><trkpt lat="55.8077090" lon="49.1414550"><time>2021-08-14T09:20:06</time></trkpt><trkpt lat="55.8077360" lon="49.1414960"><time>2021-08-14T09:20:07</time></trkpt><trkpt lat="55.8077420" lon="49.1415090"><time>2021-08-14T09:20:08</time></trkpt><trkpt lat="55.8077440" lon="49.1415060"><time>2021-08-14T09:20:09</time></trkpt><trkpt lat="55.8077460" lon="49.1414910"><time>2021-08-14T09:20:10</time></trkpt><trkpt lat="55.8077450" lon="49.1414860"><time>2021-08-14T09:20:11</time></trkpt><trkpt lat="55.8077410" lon="49.1414860"><time>2021-08-14T09:20:12</time></trkpt><trkpt lat="55.8077410" lon="49.1414860"><time>2021-08-14T09:20:13</time></trkpt><trkpt lat="55.8077460" lon="49.1414840"><time>2021-08-14T09:20:14</time></trkpt><trkpt lat="55.8077500" lon="49.1414890"><time>2021-08-14T09:20:15</time></trkpt><trkpt lat="55.8077580" lon="49.1414720"><time>2021-08-14T09:20:16</time></trkpt><trkpt lat="55.8077650" lon="49.1414620"><time>2021-08-14T09:20:17</time></trkpt><trkpt lat="55.8077710" lon="49.1414620"><time>2021-08-14T09:20:18</time></trkpt><trkpt lat="55.8077760" lon="49.1414620"><time>2021-08-14T09:20:19</time></trkpt><trkpt lat="55.8077720" lon="49.1414690"><time>2021-08-14T09:20:20</time></trkpt><trkpt lat="55.8077730" lon="49.1414640"><time>2021-08-14T09:20:21</time></trkpt><trkpt lat="55.8077750" lon="49.1414670"><time>2021-08-14T09:20:22</time></trkpt><trkpt lat="55.8077760" lon="49.1414670"><time>2021-08-14T09:20:23</time></trkpt><trkpt lat="55.8077780" lon="49.1414630"><time>2021-08-14T09:20:24</time></trkpt><trkpt lat="55.8077770" lon="49.1414660"><time>2021-08-14T09:20:25</time></trkpt><trkpt lat="55.8077740" lon="49.1414680"><time>2021-08-14T09:20:26</time></trkpt><trkpt lat="55.8077760" lon="49.1414680"><time>2021-08-14T09:20:27</time></trkpt><trkpt lat="55.8077770" lon="49.1414700"><time>2021-08-14T09:20:28</time></trkpt><trkpt lat="55.8077830" lon="49.1414600"><time>2021-08-14T09:20:29</time></trkpt><trkpt lat="55.8077830" lon="49.1414680"><time>2021-08-14T09:20:30</time></trkpt><trkpt lat="55.8077830" lon="49.1414690"><time>2021-08-14T09:20:31</time></trkpt><trkpt lat="55.8077810" lon="49.1414680"><time>2021-08-14T09:20:32</time></trkpt><trkpt lat="55.8077850" lon="49.1414670"><time>2021-08-14T09:20:33</time></trkpt><trkpt lat="55.8077850" lon="49.1414670"><time>2021-08-14T09:20:34</time></trkpt><trkpt lat="55.8077850" lon="49.1414720"><time>2021-08-14T09:20:35</time></trkpt><trkpt lat="55.8077870" lon="49.1414750"><time>2021-08-14T09:20:36</time></trkpt><trkpt lat="55.8077910" lon="49.1414750"><time>2021-08-14T09:20:37</time></trkpt><trkpt lat="55.8077930" lon="49.1414810"><time>2021-08-14T09:20:38</time></trkpt><trkpt lat="55.8077970" lon="49.1414850"><time>2021-08-14T09:20:39</time></trkpt><trkpt lat="55.8078010" lon="49.1414890"><time>2021-08-14T09:20:40</time></trkpt><trkpt lat="55.8078050" lon="49.1414930"><time>2021-08-14T09:20:41</time></trkpt><trkpt lat="55.8078090" lon="49.1414970"><time>2021-08-14T09:20:42</time></trkpt><trkpt lat="55.8078130" lon="49.1415000"><time>2021-08-14T09:20:43</time></trkpt><trkpt lat="55.8078170" lon="49.1415040"><time>2021-08-14T09:20:44</time></trkpt><trkpt lat="55.8078210" lon="49.1415080"><time>2021-08-14T09:20:45</time></trkpt><trkpt lat="55.8078250" lon="49.1415120"><time>2021-08-14T09:20:46</time></trkpt><trkpt lat="55.8078300" lon="49.1415160"><time>2021-08-14T09:20:47</time></trkpt><trkpt lat="55.8078340" lon="49.1415200"><time>2021-08-14T09:20:48</time></trkpt><trkpt lat="55.8078380" lon="49.1415240"><time>2021-08-14T09:20:49</time></trkpt><trkpt lat="55.8078420" lon="49.1415280"><time>2021-08-14T09:20:50</time></trkpt><trkpt lat="55.8078460" lon="49.1415310"><time>2021-08-14T09:20:52</time></trkpt><trkpt lat="55.8078500" lon="49.1415350"><time>2021-08-14T09:20:53</time></trkpt><trkpt lat="55.8078540" lon="49.1415390"><time>2021-08-14T09:20:54</time></trkpt><trkpt lat="55.8078580" lon="49.1415430"><time>2021-08-14T09:20:55</time></trkpt><trkpt lat="55.8078620" lon="49.1415470"><time>2021-08-14T09:20:56</time></trkpt><trkpt lat="55.8078840" lon="49.1415580"><time>2021-08-14T09:20:57</time></trkpt><trkpt lat="55.8078920" lon="49.1415460"><time>2021-08-14T09:20:58</time></trkpt><trkpt lat="55.8079000" lon="49.1415340"><time>2021-08-14T09:20:59</time></trkpt><trkpt lat="55.8079370" lon="49.1415280"><time>2021-08-14T09:21:00</time></trkpt><trkpt lat="55.8079510" lon="49.1415270"><time>2021-08-14T09:21:01</time></trkpt><trkpt lat="55.8079630" lon="49.1415270"><time>2021-08-14T09:21:02</time></trkpt><trkpt lat="55.8079540" lon="49.1415290"><time>2021-08-14T09:21:03</time></trkpt><trkpt lat="55.8079590" lon="49.1415330"><time>2021-08-14T09:21:04</time></trkpt><trkpt lat="55.8079680" lon="49.1415410"><time>2021-08-14T09:21:05</time></trkpt><trkpt lat="55.8079750" lon="49.1415610"><time>2021-08-14T09:21:06</time></trkpt><trkpt lat="55.8080030" lon="49.1415920"><time>2021-08-14T09:21:07</time></trkpt><trkpt lat="55.8080120" lon="49.1415960"><time>2021-08-14T09:21:08</time></trkpt><trkpt lat="55.8080350" lon="49.1416260"><time>2021-08-14T09:21:09</time></trkpt><trkpt lat="55.8080520" lon="49.1416490"><time>2021-08-14T09:21:10</time></trkpt><trkpt lat="55.8080600" lon="49.1416600"><time>2021-08-14T09:21:11</time></trkpt><trkpt lat="55.8080690" lon="49.1416700"><time>2021-08-14T09:21:12</time></trkpt><trkpt lat="55.8080880" lon="49.1416960"><time>2021-08-14T09:21:13</time></trkpt><trkpt lat="55.8080930" lon="49.1417040"><time>2021-08-14T09:21:14</time></trkpt><trkpt lat="55.8080990" lon="49.1417120"><time>2021-08-14T09:21:15</time></trkpt><trkpt lat="55.8081100" lon="49.1417280"><time>2021-08-14T09:21:16</time></trkpt><trkpt lat="55.8081200" lon="49.1417340"><time>2021-08-14T09:21:17</time></trkpt><trkpt lat="55.8081220" lon="49.1417470"><time>2021-08-14T09:21:18</time></trkpt><trkpt lat="55.8081240" lon="49.1417490"><time>2021-08-14T09:21:19</time></trkpt><trkpt lat="55.8081300" lon="49.1417570"><time>2021-08-14T09:21:20</time></trkpt><trkpt lat="55.8081420" lon="49.1417710"><time>2021-08-14T09:21:21</time></trkpt><trkpt lat="55.8081530" lon="49.1417740"><time>2021-08-14T09:21:22</time></trkpt><trkpt lat="55.8081770" lon="49.1417630"><time>2021-08-14T09:21:23</time></trkpt><trkpt lat="55.8081880" lon="49.1417580"><time>2021-08-14T09:21:24</time></trkpt><trkpt lat="55.8081950" lon="49.1417550"><time>2021-08-14T09:21:25</time></trkpt><trkpt lat="55.8082120" lon="49.1417350"><time>2021-08-14T09:21:26</time></trkpt><trkpt lat="55.8082170" lon="49.1417210"><time>2021-08-14T09:21:27</time></trkpt><trkpt lat="55.8082310" lon="49.1416950"><time>2021-08-14T09:21:28</time></trkpt><trkpt lat="55.8082410" lon="49.1416830"><time>2021-08-14T09:21:29</time></trkpt><trkpt lat="55.8082680" lon="49.1416640"><time>2021-08-14T09:21:30</time></trkpt><trkpt lat="55.8082760" lon="49.1416590"><time>2021-08-14T09:21:31</time></trkpt><trkpt lat="55.8082910" lon="49.1416460"><time>2021-08-14T09:21:32</time></trkpt><trkpt lat="55.8083030" lon="49.1416300"><time>2021-08-14T09:21:33</time></trkpt><trkpt lat="55.8083130" lon="49.1416140"><time>2021-08-14T09:21:34</time></trkpt><trkpt lat="55.8083260" lon="49.1416020"><time>2021-08-14T09:21:35</time></trkpt><trkpt lat="55.8083420" lon="49.1415940"><time>2021-08-14T09:21:36</time></trkpt><trkpt lat="55.8083570" lon="49.1415850"><time>2021-08-14T09:21:37</time></trkpt><trkpt lat="55.8083710" lon="49.1415750"><time>2021-08-14T09:21:38</time></trkpt><trkpt lat="55.8083820" lon="49.1415640"><time>2021-08-14T09:21:39</time></trkpt><trkpt lat="55.8083940" lon="49.1415490"><time>2021-08-14T09:21:40</time></trkpt><trkpt lat="55.8084070" lon="49.1415420"><time>2021-08-14T09:21:41</time></trkpt><trkpt lat="55.8084200" lon="49.1415330"><time>2021-08-14T09:21:42</time></trkpt><trkpt lat="55.8084330" lon="49.1415210"><time>2021-08-14T09:21:43</time></trkpt><trkpt lat="55.8084450" lon="49.1415070"><time>2021-08-14T09:21:44</time></trkpt><trkpt lat="55.8084580" lon="49.1414930"><time>2021-08-14T09:21:45</time></trkpt><trkpt lat="55.8084690" lon="49.1414810"><time>2021-08-14T09:21:46</time></trkpt><trkpt lat="55.8084830" lon="49.1414750"><time>2021-08-14T09:21:47</time></trkpt><trkpt lat="55.8084980" lon="49.1414690"><time>2021-08-14T09:21:48</time></trkpt><trkpt lat="55.8085100" lon="49.1414570"><time>2021-08-14T09:21:49</time></trkpt><trkpt lat="55.8085250" lon="49.1414450"><time>2021-08-14T09:21:50</time></trkpt><trkpt lat="55.8085400" lon="49.1414380"><time>2021-08-14T09:21:51</time></trkpt><trkpt lat="55.8085530" lon="49.1414320"><time>2021-08-14T09:21:52</time></trkpt><trkpt lat="55.8085680" lon="49.1414220"><time>2021-08-14T09:21:53</time></trkpt><trkpt lat="55.8085820" lon="49.1414050"><time>2021-08-14T09:21:54</time></trkpt><trkpt lat="55.8085960" lon="49.1413940"><time>2021-08-14T09:21:55</time></trkpt><trkpt lat="55.8086080" lon="49.1413830"><time>2021-08-14T09:21:56</time></trkpt><trkpt lat="55.8086210" lon="49.1413710"><time>2021-08-14T09:21:57</time></trkpt><trkpt lat="55.8086370" lon="49.1413630"><time>2021-08-14T09:21:58</time></trkpt><trkpt lat="55.8086510" lon="49.1413550"><time>2021-08-14T09:21:59</time></trkpt><trkpt lat="55.8086670" lon="49.1413480"><time>2021-08-14T09:22:00</time></trkpt><trkpt lat="55.8086810" lon="49.1413420"><time>2021-08-14T09:22:01</time></trkpt><trkpt lat="55.8086950" lon="49.1413370"><time>2021-08-14T09:22:02</time></trkpt><trkpt lat="55.8087100" lon="49.1413330"><time>2021-08-14T09:22:03</time></trkpt><trkpt lat="55.8087240" lon="49.1413270"><time>2021-08-14T09:22:04</time></trkpt><trkpt lat="55.8087370" lon="49.1413300"><time>2021-08-14T09:22:05</time></trkpt><trkpt lat="55.8087510" lon="49.1413220"><time>2021-08-14T09:22:06</time></trkpt><trkpt lat="55.8087600" lon="49.1413160"><time>2021-08-14T09:22:07</time></trkpt><trkpt lat="55.8087690" lon="49.1413210"><time>2021-08-14T09:22:08</time></trkpt><trkpt lat="55.8087630" lon="49.1413210"><time>2021-08-14T09:22:09</time></trkpt><trkpt lat="55.8087630" lon="49.1413210"><time>2021-08-14T09:22:10</time></trkpt><trkpt lat="55.8087630" lon="49.1413210"><time>2021-08-14T09:22:11</time></trkpt><trkpt lat="55.8087630" lon="49.1413210"><time>2021-08-14T09:22:12</time></trkpt><trkpt lat="55.8087630" lon="49.1413210"><time>2021-08-14T09:22:13</time></trkpt><trkpt lat="55.8087630" lon="49.1413210"><time>2021-08-14T09:22:14</time></trkpt><trkpt lat="55.8087630" lon="49.1413210"><time>2021-08-14T09:22:15</time></trkpt><trkpt lat="55.8087630" lon="49.1413210"><time>2021-08-14T09:22:16</time></trkpt><trkpt lat="55.8087630" lon="49.1413210"><time>2021-08-14T09:22:17</time></trkpt><trkpt lat="55.8087400" lon="49.1413170"><time>2021-08-14T09:22:18</time></trkpt><trkpt lat="55.8087420" lon="49.1413160"><time>2021-08-14T09:22:19</time></trkpt><trkpt lat="55.8087520" lon="49.1413130"><time>2021-08-14T09:22:20</time></trkpt><trkpt lat="55.8087660" lon="49.1413010"><time>2021-08-14T09:22:21</time></trkpt><trkpt lat="55.8087850" lon="49.1412870"><time>2021-08-14T09:22:22</time></trkpt><trkpt lat="55.8087940" lon="49.1412830"><time>2021-08-14T09:22:23</time></trkpt><trkpt lat="55.8088020" lon="49.1412790"><time>2021-08-14T09:22:24</time></trkpt><trkpt lat="55.8088110" lon="49.1412760"><time>2021-08-14T09:22:25</time></trkpt><trkpt lat="55.8088250" lon="49.1412720"><time>2021-08-14T09:22:26</time></trkpt><trkpt lat="55.8088370" lon="49.1412790"><time>2021-08-14T09:22:27</time></trkpt><trkpt lat="55.8088630" lon="49.1412660"><time>2021-08-14T09:22:28</time></trkpt><trkpt lat="55.8088720" lon="49.1412600"><time>2021-08-14T09:22:29</time></trkpt><trkpt lat="55.8088940" lon="49.1412410"><time>2021-08-14T09:22:30</time></trkpt><trkpt lat="55.8089030" lon="49.1412370"><time>2021-08-14T09:22:31</time></trkpt><trkpt lat="55.8089130" lon="49.1412320"><time>2021-08-14T09:22:32</time></trkpt><trkpt lat="55.8089410" lon="49.1412280"><time>2021-08-14T09:22:33</time></trkpt><trkpt lat="55.8089510" lon="49.1412300"><time>2021-08-14T09:22:34</time></trkpt><trkpt lat="55.8089620" lon="49.1412210"><time>2021-08-14T09:22:35</time></trkpt><trkpt lat="55.8089650" lon="49.1412100"><time>2021-08-14T09:22:36</time></trkpt><trkpt lat="55.8089810" lon="49.1411940"><time>2021-08-14T09:22:37</time></trkpt><trkpt lat="55.8090010" lon="49.1411780"><time>2021-08-14T09:22:38</time></trkpt><trkpt lat="55.8090100" lon="49.1411740"><time>2021-08-14T09:22:39</time></trkpt><trkpt lat="55.8090200" lon="49.1411700"><time>2021-08-14T09:22:40</time></trkpt><trkpt lat="55.8090350" lon="49.1411690"><time>2021-08-14T09:22:41</time></trkpt><trkpt lat="55.8090490" lon="49.1411640"><time>2021-08-14T09:22:42</time></trkpt><trkpt lat="55.8090720" lon="49.1411540"><time>2021-08-14T09:22:43</time></trkpt><trkpt lat="55.8090800" lon="49.1411490"><time>2021-08-14T09:22:44</time></trkpt><trkpt lat="55.8090890" lon="49.1411440"><time>2021-08-14T09:22:45</time></trkpt><trkpt lat="55.8091040" lon="49.1411380"><time>2021-08-14T09:22:46</time></trkpt><trkpt lat="55.8091200" lon="49.1411370"><time>2021-08-14T09:22:47</time></trkpt><trkpt lat="55.8091350" lon="49.1411340"><time>2021-08-14T09:22:48</time></trkpt><trkpt lat="55.8091500" lon="49.1411360"><time>2021-08-14T09:22:49</time></trkpt><trkpt lat="55.8091670" lon="49.1411340"><time>2021-08-14T09:22:50</time></trkpt><trkpt lat="55.8091830" lon="49.1411280"><time>2021-08-14T09:22:51</time></trkpt><trkpt lat="55.8091990" lon="49.1411420"><time>2021-08-14T09:22:52</time></trkpt><trkpt lat="55.8092120" lon="49.1411350"><time>2021-08-14T09:22:53</time></trkpt><trkpt lat="55.8092290" lon="49.1411350"><time>2021-08-14T09:22:54</time></trkpt><trkpt lat="55.8092450" lon="49.1411300"><time>2021-08-14T09:22:55</time></trkpt><trkpt lat="55.8092620" lon="49.1411330"><time>2021-08-14T09:22:56</time></trkpt><trkpt lat="55.8092770" lon="49.1411430"><time>2021-08-14T09:22:57</time></trkpt><trkpt lat="55.8092970" lon="49.1411450"><time>2021-08-14T09:22:58</time></trkpt><trkpt lat="55.8093110" lon="49.1411500"><time>2021-08-14T09:22:59</time></trkpt><trkpt lat="55.8093270" lon="49.1411560"><time>2021-08-14T09:23:00</time></trkpt><trkpt lat="55.8093420" lon="49.1411700"><time>2021-08-14T09:23:01</time></trkpt><trkpt lat="55.8093580" lon="49.1411770"><time>2021-08-14T09:23:02</time></trkpt><trkpt lat="55.8093710" lon="49.1411830"><time>2021-08-14T09:23:03</time></trkpt><trkpt lat="55.8093860" lon="49.1411860"><time>2021-08-14T09:23:04</time></trkpt><trkpt lat="55.8093990" lon="49.1411940"><time>2021-08-14T09:23:05</time></trkpt><trkpt lat="55.8094140" lon="49.1411980"><time>2021-08-14T09:23:06</time></trkpt><trkpt lat="55.8094290" lon="49.1412050"><time>2021-08-14T09:23:07</time></trkpt><trkpt lat="55.8094420" lon="49.1412190"><time>2021-08-14T09:23:08</time></trkpt><trkpt lat="55.8094570" lon="49.1412310"><time>2021-08-14T09:23:09</time></trkpt><trkpt lat="55.8094730" lon="49.1412380"><time>2021-08-14T09:23:10</time></trkpt><trkpt lat="55.8094870" lon="49.1412430"><time>2021-08-14T09:23:11</time></trkpt><trkpt lat="55.8094990" lon="49.1412600"><time>2021-08-14T09:23:12</time></trkpt><trkpt lat="55.8095140" lon="49.1412720"><time>2021-08-14T09:23:13</time></trkpt><trkpt lat="55.8095290" lon="49.1412840"><time>2021-08-14T09:23:14</time></trkpt><trkpt lat="55.8095410" lon="49.1412910"><time>2021-08-14T09:23:15</time></trkpt><trkpt lat="55.8095560" lon="49.1412980"><time>2021-08-14T09:23:16</time></trkpt><trkpt lat="55.8095710" lon="49.1413090"><time>2021-08-14T09:23:17</time></trkpt><trkpt lat="55.8095840" lon="49.1413240"><time>2021-08-14T09:23:18</time></trkpt><trkpt lat="55.8095990" lon="49.1413420"><time>2021-08-14T09:23:19</time></trkpt><trkpt lat="55.8096090" lon="49.1413570"><time>2021-08-14T09:23:20</time></trkpt><trkpt lat="55.8096220" lon="49.1413670"><time>2021-08-14T09:23:21</time></trkpt><trkpt lat="55.8096420" lon="49.1413850"><time>2021-08-14T09:23:22</time></trkpt><trkpt lat="55.8096500" lon="49.1413940"><time>2021-08-14T09:23:23</time></trkpt><trkpt lat="55.8096590" lon="49.1414040"><time>2021-08-14T09:23:24</time></trkpt><trkpt lat="55.8096720" lon="49.1414160"><time>2021-08-14T09:23:25</time></trkpt><trkpt lat="55.8096830" lon="49.1414270"><time>2021-08-14T09:23:26</time></trkpt><trkpt lat="55.8096970" lon="49.1414370"><time>2021-08-14T09:23:27</time></trkpt><trkpt lat="55.8097120" lon="49.1414440"><time>2021-08-14T09:23:28</time></trkpt><trkpt lat="55.8097250" lon="49.1414600"><time>2021-08-14T09:23:29</time></trkpt><trkpt lat="55.8097390" lon="49.1414670"><time>2021-08-14T09:23:30</time></trkpt><trkpt lat="55.8097510" lon="49.1414890"><time>2021-08-14T09:23:31</time></trkpt><trkpt lat="55.8097610" lon="49.1415080"><time>2021-08-14T09:23:32</time></trkpt><trkpt lat="55.8097780" lon="49.1415400"><time>2021-08-14T09:23:33</time></trkpt><trkpt lat="55.8097830" lon="49.1415540"><time>2021-08-14T09:23:34</time></trkpt><trkpt lat="55.8097880" lon="49.1415690"><time>2021-08-14T09:23:35</time></trkpt><trkpt lat="55.8097950" lon="49.1415910"><time>2021-08-14T09:23:36</time></trkpt><trkpt lat="55.8097980" lon="49.1416070"><time>2021-08-14T09:23:37</time></trkpt><trkpt lat="55.8098070" lon="49.1416010"><time>2021-08-14T09:23:38</time></trkpt><trkpt lat="55.8098140" lon="49.1415950"><time>2021-08-14T09:23:39</time></trkpt><trkpt lat="55.8098150" lon="49.1416020"><time>2021-08-14T09:23:40</time></trkpt><trkpt lat="55.8098200" lon="49.1416070"><time>2021-08-14T09:23:41</time></trkpt><trkpt lat="55.8098250" lon="49.1416130"><time>2021-08-14T09:23:42</time></trkpt><trkpt lat="55.8098290" lon="49.1416180"><time>2021-08-14T09:23:43</time></trkpt><trkpt lat="55.8098340" lon="49.1416240"><time>2021-08-14T09:23:44</time></trkpt><trkpt lat="55.8098390" lon="49.1416290"><time>2021-08-14T09:23:45</time></trkpt><trkpt lat="55.8098440" lon="49.1416350"><time>2021-08-14T09:23:46</time></trkpt><trkpt lat="55.8098530" lon="49.1416280"><time>2021-08-14T09:23:47</time></trkpt><trkpt lat="55.8098660" lon="49.1416390"><time>2021-08-14T09:23:48</time></trkpt><trkpt lat="55.8098780" lon="49.1416560"><time>2021-08-14T09:23:49</time></trkpt><trkpt lat="55.8098970" lon="49.1416750"><time>2021-08-14T09:23:50</time></trkpt><trkpt lat="55.8099050" lon="49.1416820"><time>2021-08-14T09:23:51</time></trkpt><trkpt lat="55.8099140" lon="49.1416880"><time>2021-08-14T09:23:52</time></trkpt><trkpt lat="55.8099280" lon="49.1416990"><time>2021-08-14T09:23:53</time></trkpt><trkpt lat="55.8099370" lon="49.1417150"><time>2021-08-14T09:23:54</time></trkpt><trkpt lat="55.8099460" lon="49.1417310"><time>2021-08-14T09:23:55</time></trkpt><trkpt lat="55.8099560" lon="49.1417500"><time>2021-08-14T09:23:56</time></trkpt><trkpt lat="55.8099720" lon="49.1417760"><time>2021-08-14T09:23:57</time></trkpt><trkpt lat="55.8099800" lon="49.1417890"><time>2021-08-14T09:23:58</time></trkpt><trkpt lat="55.8099870" lon="49.1418010"><time>2021-08-14T09:23:59</time></trkpt><trkpt lat="55.8100050" lon="49.1418230"><time>2021-08-14T09:24:00</time></trkpt><trkpt lat="55.8100120" lon="49.1418320"><time>2021-08-14T09:24:01</time></trkpt><trkpt lat="55.8100200" lon="49.1418410"><time>2021-08-14T09:24:02</time></trkpt><trkpt lat="55.8100300" lon="49.1418630"><time>2021-08-14T09:24:03</time></trkpt><trkpt lat="55.8100410" lon="49.1418790"><time>2021-08-14T09:24:04</time></trkpt><trkpt lat="55.8100550" lon="49.1418940"><time>2021-08-14T09:24:05</time></trkpt><trkpt lat="55.8100570" lon="49.1419230"><time>2021-08-14T09:24:06</time></trkpt><trkpt lat="55.8100680" lon="49.1419360"><time>2021-08-14T09:24:07</time></trkpt><trkpt lat="55.8100810" lon="49.1419510"><time>2021-08-14T09:24:08</time></trkpt><trkpt lat="55.8100940" lon="49.1419670"><time>2021-08-14T09:24:09</time></trkpt><trkpt lat="55.8101060" lon="49.1419810"><time>2021-08-14T09:24:10</time></trkpt><trkpt lat="55.8101210" lon="49.1419930"><time>2021-08-14T09:24:11</time></trkpt><trkpt lat="55.8101310" lon="49.1420110"><time>2021-08-14T09:24:12</time></trkpt><trkpt lat="55.8101380" lon="49.1420360"><time>2021-08-14T09:24:13</time></trkpt><trkpt lat="55.8101510" lon="49.1420480"><time>2021-08-14T09:24:14</time></trkpt><trkpt lat="55.8101630" lon="49.1420650"><time>2021-08-14T09:24:15</time></trkpt><trkpt lat="55.8101770" lon="49.1420780"><time>2021-08-14T09:24:16</time></trkpt><trkpt lat="55.8101870" lon="49.1421000"><time>2021-08-14T09:24:17</time></trkpt><trkpt lat="55.8101970" lon="49.1421200"><time>2021-08-14T09:24:18</time></trkpt><trkpt lat="55.8102140" lon="49.1421460"><time>2021-08-14T09:24:19</time></trkpt><trkpt lat="55.8102200" lon="49.1421570"><time>2021-08-14T09:24:20</time></trkpt><trkpt lat="55.8102270" lon="49.1421680"><time>2021-08-14T09:24:21</time></trkpt><trkpt lat="55.8102380" lon="49.1421840"><time>2021-08-14T09:24:22</time></trkpt><trkpt lat="55.8102490" lon="49.1422010"><time>2021-08-14T09:24:23</time></trkpt><trkpt lat="55.8102620" lon="49.1422210"><time>2021-08-14T09:24:24</time></trkpt><trkpt lat="55.8102730" lon="49.1422300"><time>2021-08-14T09:24:25</time></trkpt><trkpt lat="55.8102860" lon="49.1422440"><time>2021-08-14T09:24:26</time></trkpt><trkpt lat="55.8102960" lon="49.1422640"><time>2021-08-14T09:24:27</time></trkpt><trkpt lat="55.8103070" lon="49.1422880"><time>2021-08-14T09:24:28</time></trkpt><trkpt lat="55.8103170" lon="49.1423030"><time>2021-08-14T09:24:29</time></trkpt><trkpt lat="55.8103270" lon="49.1423240"><time>2021-08-14T09:24:30</time></trkpt><trkpt lat="55.8103390" lon="49.1423430"><time>2021-08-14T09:24:31</time></trkpt><trkpt lat="55.8103510" lon="49.1423590"><time>2021-08-14T09:24:32</time></trkpt><trkpt lat="55.8103660" lon="49.1423620"><time>2021-08-14T09:24:33</time></trkpt><trkpt lat="55.8103780" lon="49.1423770"><time>2021-08-14T09:24:34</time></trkpt><trkpt lat="55.8103860" lon="49.1424030"><time>2021-08-14T09:24:35</time></trkpt><trkpt lat="55.8103980" lon="49.1424200"><time>2021-08-14T09:24:36</time></trkpt><trkpt lat="55.8104070" lon="49.1424410"><time>2021-08-14T09:24:37</time></trkpt><trkpt lat="55.8104180" lon="49.1424590"><time>2021-08-14T09:24:38</time></trkpt><trkpt lat="55.8104260" lon="49.1424790"><time>2021-08-14T09:24:39</time></trkpt><trkpt lat="55.8104350" lon="49.1425030"><time>2021-08-14T09:24:40</time></trkpt><trkpt lat="55.8104410" lon="49.1425250"><time>2021-08-14T09:24:41</time></trkpt><trkpt lat="55.8104570" lon="49.1425530"><time>2021-08-14T09:24:42</time></trkpt><trkpt lat="55.8104630" lon="49.1425650"><time>2021-08-14T09:24:43</time></trkpt><trkpt lat="55.8104680" lon="49.1425780"><time>2021-08-14T09:24:44</time></trkpt><trkpt lat="55.8104810" lon="49.1425990"><time>2021-08-14T09:24:45</time></trkpt><trkpt lat="55.8104930" lon="49.1426160"><time>2021-08-14T09:24:46</time></trkpt><trkpt lat="55.8105040" lon="49.1426390"><time>2021-08-14T09:24:47</time></trkpt><trkpt lat="55.8105100" lon="49.1426650"><time>2021-08-14T09:24:48</time></trkpt><trkpt lat="55.8105220" lon="49.1426830"><time>2021-08-14T09:24:49</time></trkpt><trkpt lat="55.8105310" lon="49.1427080"><time>2021-08-14T09:24:50</time></trkpt><trkpt lat="55.8105440" lon="49.1427250"><time>2021-08-14T09:24:51</time></trkpt><trkpt lat="55.8105540" lon="49.1427440"><time>2021-08-14T09:24:52</time></trkpt><trkpt lat="55.8105600" lon="49.1427690"><time>2021-08-14T09:24:53</time></trkpt><trkpt lat="55.8105710" lon="49.1427870"><time>2021-08-14T09:24:54</time></trkpt><trkpt lat="55.8105830" lon="49.1428080"><time>2021-08-14T09:24:55</time></trkpt><trkpt lat="55.8105910" lon="49.1428310"><time>2021-08-14T09:24:56</time></trkpt><trkpt lat="55.8106000" lon="49.1428540"><time>2021-08-14T09:24:57</time></trkpt><trkpt lat="55.8106150" lon="49.1428670"><time>2021-08-14T09:24:58</time></trkpt><trkpt lat="55.8106250" lon="49.1428850"><time>2021-08-14T09:24:59</time></trkpt><trkpt lat="55.8106350" lon="49.1429090"><time>2021-08-14T09:25:00</time></trkpt><trkpt lat="55.8106450" lon="49.1429270"><time>2021-08-14T09:25:01</time></trkpt><trkpt lat="55.8106610" lon="49.1429390"><time>2021-08-14T09:25:02</time></trkpt><trkpt lat="55.8106720" lon="49.1429600"><time>2021-08-14T09:25:03</time></trkpt><trkpt lat="55.8106830" lon="49.1429810"><time>2021-08-14T09:25:04</time></trkpt><trkpt lat="55.8106920" lon="49.1430020"><time>2021-08-14T09:25:05</time></trkpt><trkpt lat="55.8107050" lon="49.1430170"><time>2021-08-14T09:25:06</time></trkpt><trkpt lat="55.8107190" lon="49.1430270"><time>2021-08-14T09:25:07</time></trkpt><trkpt lat="55.8107300" lon="49.1430470"><time>2021-08-14T09:25:08</time></trkpt><trkpt lat="55.8107450" lon="49.1430630"><time>2021-08-14T09:25:09</time></trkpt><trkpt lat="55.8107600" lon="49.1430740"><time>2021-08-14T09:25:10</time></trkpt><trkpt lat="55.8107710" lon="49.1430910"><time>2021-08-14T09:25:11</time></trkpt><trkpt lat="55.8107830" lon="49.1431110"><time>2021-08-14T09:25:12</time></trkpt><trkpt lat="55.8107920" lon="49.1431280"><time>2021-08-14T09:25:13</time></trkpt><trkpt lat="55.8108010" lon="49.1431480"><time>2021-08-14T09:25:14</time></trkpt><trkpt lat="55.8108110" lon="49.1431660"><time>2021-08-14T09:25:15</time></trkpt><trkpt lat="55.8108250" lon="49.1431800"><time>2021-08-14T09:25:16</time></trkpt><trkpt lat="55.8108350" lon="49.1431970"><time>2021-08-14T09:25:17</time></trkpt><trkpt lat="55.8108440" lon="49.1432160"><time>2021-08-14T09:25:18</time></trkpt><trkpt lat="55.8108570" lon="49.1432310"><time>2021-08-14T09:25:19</time></trkpt><trkpt lat="55.8108720" lon="49.1432480"><time>2021-08-14T09:25:20</time></trkpt><trkpt lat="55.8108830" lon="49.1432690"><time>2021-08-14T09:25:21</time></trkpt><trkpt lat="55.8108960" lon="49.1432890"><time>2021-08-14T09:25:22</time></trkpt><trkpt lat="55.8109060" lon="49.1433090"><time>2021-08-14T09:25:23</time></trkpt><trkpt lat="55.8109170" lon="49.1433260"><time>2021-08-14T09:25:24</time></trkpt><trkpt lat="55.8109290" lon="49.1433350"><time>2021-08-14T09:25:25</time></trkpt><trkpt lat="55.8109480" lon="49.1433400"><time>2021-08-14T09:25:26</time></trkpt><trkpt lat="55.8109650" lon="49.1433650"><time>2021-08-14T09:25:27</time></trkpt><trkpt lat="55.8109720" lon="49.1433790"><time>2021-08-14T09:25:28</time></trkpt><trkpt lat="55.8109790" lon="49.1433920"><time>2021-08-14T09:25:29</time></trkpt><trkpt lat="55.8109900" lon="49.1434090"><time>2021-08-14T09:25:30</time></trkpt><trkpt lat="55.8110080" lon="49.1434150"><time>2021-08-14T09:25:31</time></trkpt><trkpt lat="55.8110220" lon="49.1434180"><time>2021-08-14T09:25:32</time></trkpt><trkpt lat="55.8110350" lon="49.1434350"><time>2021-08-14T09:25:33</time></trkpt><trkpt lat="55.8110460" lon="49.1434580"><time>2021-08-14T09:25:34</time></trkpt><trkpt lat="55.8110580" lon="49.1434690"><time>2021-08-14T09:25:35</time></trkpt><trkpt lat="55.8110720" lon="49.1434830"><time>2021-08-14T09:25:36</time></trkpt><trkpt lat="55.8110850" lon="49.1434990"><time>2021-08-14T09:25:37</time></trkpt><trkpt lat="55.8111050" lon="49.1435140"><time>2021-08-14T09:25:38</time></trkpt><trkpt lat="55.8111130" lon="49.1435260"><time>2021-08-14T09:25:39</time></trkpt><trkpt lat="55.8111210" lon="49.1435370"><time>2021-08-14T09:25:40</time></trkpt><trkpt lat="55.8111340" lon="49.1435650"><time>2021-08-14T09:25:41</time></trkpt><trkpt lat="55.8111470" lon="49.1435780"><time>2021-08-14T09:25:42</time></trkpt><trkpt lat="55.8111600" lon="49.1435880"><time>2021-08-14T09:25:43</time></trkpt><trkpt lat="55.8111740" lon="49.1435980"><time>2021-08-14T09:25:44</time></trkpt><trkpt lat="55.8111900" lon="49.1436110"><time>2021-08-14T09:25:45</time></trkpt><trkpt lat="55.8112060" lon="49.1436220"><time>2021-08-14T09:25:46</time></trkpt><trkpt lat="55.8112200" lon="49.1436390"><time>2021-08-14T09:25:47</time></trkpt><trkpt lat="55.8112340" lon="49.1436500"><time>2021-08-14T09:25:48</time></trkpt><trkpt lat="55.8112500" lon="49.1436570"><time>2021-08-14T09:25:49</time></trkpt><trkpt lat="55.8112610" lon="49.1436710"><time>2021-08-14T09:25:50</time></trkpt><trkpt lat="55.8112720" lon="49.1436870"><time>2021-08-14T09:25:51</time></trkpt><trkpt lat="55.8112860" lon="49.1436960"><time>2021-08-14T09:25:52</time></trkpt><trkpt lat="55.8113030" lon="49.1436950"><time>2021-08-14T09:25:53</time></trkpt><trkpt lat="55.8113170" lon="49.1436990"><time>2021-08-14T09:25:54</time></trkpt><trkpt lat="55.8113330" lon="49.1437110"><time>2021-08-14T09:25:55</time></trkpt><trkpt lat="55.8113430" lon="49.1437330"><time>2021-08-14T09:25:56</time></trkpt><trkpt lat="55.8113690" lon="49.1437570"><time>2021-08-14T09:25:57</time></trkpt><trkpt lat="55.8113760" lon="49.1437630"><time>2021-08-14T09:25:58</time></trkpt><trkpt lat="55.8113860" lon="49.1437850"><time>2021-08-14T09:25:59</time></trkpt><trkpt lat="55.8113980" lon="49.1437980"><time>2021-08-14T09:26:00</time></trkpt><trkpt lat="55.8114140" lon="49.1437990"><time>2021-08-14T09:26:01</time></trkpt><trkpt lat="55.8114280" lon="49.1438060"><time>2021-08-14T09:26:02</time></trkpt><trkpt lat="55.8114410" lon="49.1438150"><time>2021-08-14T09:26:03</time></trkpt><trkpt lat="55.8114540" lon="49.1438240"><time>2021-08-14T09:26:04</time></trkpt><trkpt lat="55.8114690" lon="49.1438310"><time>2021-08-14T09:26:05</time></trkpt><trkpt lat="55.8114820" lon="49.1438400"><time>2021-08-14T09:26:06</time></trkpt><trkpt lat="55.8114960" lon="49.1438530"><time>2021-08-14T09:26:07</time></trkpt><trkpt lat="55.8115090" lon="49.1438610"><time>2021-08-14T09:26:08</time></trkpt><trkpt lat="55.8115210" lon="49.1438760"><time>2021-08-14T09:26:09</time></trkpt><trkpt lat="55.8115320" lon="49.1438900"><time>2021-08-14T09:26:10</time></trkpt><trkpt lat="55.8115460" lon="49.1438920"><time>2021-08-14T09:26:11</time></trkpt><trkpt lat="55.8115590" lon="49.1438960"><time>2021-08-14T09:26:12</time></trkpt><trkpt lat="55.8115730" lon="49.1439090"><time>2021-08-14T09:26:13</time></trkpt><trkpt lat="55.8115860" lon="49.1439220"><time>2021-08-14T09:26:14</time></trkpt><trkpt lat="55.8115990" lon="49.1439280"><time>2021-08-14T09:26:15</time></trkpt><trkpt lat="55.8116130" lon="49.1439340"><time>2021-08-14T09:26:16</time></trkpt><trkpt lat="55.8116270" lon="49.1439360"><time>2021-08-14T09:26:17</time></trkpt><trkpt lat="55.8116430" lon="49.1439370"><time>2021-08-14T09:26:18</time></trkpt><trkpt lat="55.8116540" lon="49.1439510"><time>2021-08-14T09:26:19</time></trkpt><trkpt lat="55.8116630" lon="49.1439760"><time>2021-08-14T09:26:20</time></trkpt><trkpt lat="55.8116720" lon="49.1440000"><time>2021-08-14T09:26:21</time></trkpt><trkpt lat="55.8116850" lon="49.1440100"><time>2021-08-14T09:26:22</time></trkpt><trkpt lat="55.8116960" lon="49.1440250"><time>2021-08-14T09:26:23</time></trkpt><trkpt lat="55.8117120" lon="49.1440310"><time>2021-08-14T09:26:24</time></trkpt><trkpt lat="55.8117330" lon="49.1440430"><time>2021-08-14T09:26:25</time></trkpt><trkpt lat="55.8117420" lon="49.1440480"><time>2021-08-14T09:26:26</time></trkpt><trkpt lat="55.8117500" lon="49.1440520"><time>2021-08-14T09:26:27</time></trkpt><trkpt lat="55.8117700" lon="49.1440680"><time>2021-08-14T09:26:28</time></trkpt><trkpt lat="55.8117780" lon="49.1440720"><time>2021-08-14T09:26:29</time></trkpt><trkpt lat="55.8117860" lon="49.1440750"><time>2021-08-14T09:26:30</time></trkpt><trkpt lat="55.8117970" lon="49.1440900"><time>2021-08-14T09:26:31</time></trkpt><trkpt lat="55.8118120" lon="49.1440940"><time>2021-08-14T09:26:32</time></trkpt><trkpt lat="55.8118280" lon="49.1440940"><time>2021-08-14T09:26:33</time></trkpt><trkpt lat="55.8118420" lon="49.1441040"><time>2021-08-14T09:26:34</time></trkpt><trkpt lat="55.8118570" lon="49.1441070"><time>2021-08-14T09:26:35</time></trkpt><trkpt lat="55.8118710" lon="49.1441190"><time>2021-08-14T09:26:36</time></trkpt><trkpt lat="55.8118830" lon="49.1441370"><time>2021-08-14T09:26:37</time></trkpt><trkpt lat="55.8118960" lon="49.1441430"><time>2021-08-14T09:26:38</time></trkpt><trkpt lat="55.8119080" lon="49.1441450"><time>2021-08-14T09:26:39</time></trkpt><trkpt lat="55.8119240" lon="49.1441510"><time>2021-08-14T09:26:40</time></trkpt><trkpt lat="55.8119370" lon="49.1441670"><time>2021-08-14T09:26:41</time></trkpt><trkpt lat="55.8119480" lon="49.1441800"><time>2021-08-14T09:26:42</time></trkpt><trkpt lat="55.8119680" lon="49.1442020"><time>2021-08-14T09:26:43</time></trkpt><trkpt lat="55.8119750" lon="49.1442110"><time>2021-08-14T09:26:44</time></trkpt><trkpt lat="55.8119830" lon="49.1442210"><time>2021-08-14T09:26:45</time></trkpt><trkpt lat="55.8119950" lon="49.1442330"><time>2021-08-14T09:26:46</time></trkpt><trkpt lat="55.8120040" lon="49.1442550"><time>2021-08-14T09:26:47</time></trkpt><trkpt lat="55.8120150" lon="49.1442730"><time>2021-08-14T09:26:48</time></trkpt><trkpt lat="55.8120260" lon="49.1442930"><time>2021-08-14T09:26:49</time></trkpt><trkpt lat="55.8120380" lon="49.1443100"><time>2021-08-14T09:26:50</time></trkpt><trkpt lat="55.8120530" lon="49.1443200"><time>2021-08-14T09:26:51</time></trkpt><trkpt lat="55.8120630" lon="49.1443350"><time>2021-08-14T09:26:52</time></trkpt><trkpt lat="55.8120730" lon="49.1443550"><time>2021-08-14T09:26:53</time></trkpt><trkpt lat="55.8120820" lon="49.1443760"><time>2021-08-14T09:26:54</time></trkpt><trkpt lat="55.8120900" lon="49.1443980"><time>2021-08-14T09:26:55</time></trkpt><trkpt lat="55.8120930" lon="49.1444260"><time>2021-08-14T09:26:56</time></trkpt><trkpt lat="55.8121060" lon="49.1444430"><time>2021-08-14T09:26:57</time></trkpt><trkpt lat="55.8121210" lon="49.1444580"><time>2021-08-14T09:26:58</time></trkpt><trkpt lat="55.8121290" lon="49.1444810"><time>2021-08-14T09:26:59</time></trkpt><trkpt lat="55.8121430" lon="49.1444980"><time>2021-08-14T09:27:00</time></trkpt><trkpt lat="55.8121500" lon="49.1445200"><time>2021-08-14T09:27:01</time></trkpt><trkpt lat="55.8121610" lon="49.1445410"><time>2021-08-14T09:27:02</time></trkpt><trkpt lat="55.8121750" lon="49.1445540"><time>2021-08-14T09:27:03</time></trkpt><trkpt lat="55.8121840" lon="49.1445750"><time>2021-08-14T09:27:04</time></trkpt><trkpt lat="55.8121910" lon="49.1446000"><time>2021-08-14T09:27:05</time></trkpt><trkpt lat="55.8122040" lon="49.1446130"><time>2021-08-14T09:27:06</time></trkpt><trkpt lat="55.8122100" lon="49.1446370"><time>2021-08-14T09:27:07</time></trkpt><trkpt lat="55.8122150" lon="49.1446610"><time>2021-08-14T09:27:08</time></trkpt><trkpt lat="55.8122290" lon="49.1446770"><time>2021-08-14T09:27:09</time></trkpt><trkpt lat="55.8122390" lon="49.1446980"><time>2021-08-14T09:27:10</time></trkpt><trkpt lat="55.8122480" lon="49.1447150"><time>2021-08-14T09:27:11</time></trkpt><trkpt lat="55.8122640" lon="49.1447380"><time>2021-08-14T09:27:12</time></trkpt><trkpt lat="55.8122710" lon="49.1447490"><time>2021-08-14T09:27:13</time></trkpt><trkpt lat="55.8122780" lon="49.1447600"><time>2021-08-14T09:27:14</time></trkpt><trkpt lat="55.8122890" lon="49.1447750"><time>2021-08-14T09:27:15</time></trkpt><trkpt lat="55.8123000" lon="49.1447910"><time>2021-08-14T09:27:16</time></trkpt><trkpt lat="55.8123120" lon="49.1448220"><time>2021-08-14T09:27:17</time></trkpt><trkpt lat="55.8123170" lon="49.1448330"><time>2021-08-14T09:27:18</time></trkpt><trkpt lat="55.8123230" lon="49.1448450"><time>2021-08-14T09:27:19</time></trkpt><trkpt lat="55.8123380" lon="49.1448600"><time>2021-08-14T09:27:20</time></trkpt><trkpt lat="55.8123510" lon="49.1448720"><time>2021-08-14T09:27:21</time></trkpt><trkpt lat="55.8123670" lon="49.1448800"><time>2021-08-14T09:27:22</time></trkpt><trkpt lat="55.8123830" lon="49.1448730"><time>2021-08-14T09:27:23</time></trkpt><trkpt lat="55.8124080" lon="49.1448460"><time>2021-08-14T09:27:24</time></trkpt><trkpt lat="55.8124150" lon="49.1448370"><time>2021-08-14T09:27:25</time></trkpt><trkpt lat="55.8124190" lon="49.1448240"><time>2021-08-14T09:27:26</time></trkpt><trkpt lat="55.8124170" lon="49.1448250"><time>2021-08-14T09:27:27</time></trkpt><trkpt lat="55.8124150" lon="49.1448250"><time>2021-08-14T09:27:28</time></trkpt><trkpt lat="55.8124130" lon="49.1448260"><time>2021-08-14T09:27:29</time></trkpt><trkpt lat="55.8124110" lon="49.1448270"><time>2021-08-14T09:27:30</time></trkpt><trkpt lat="55.8124090" lon="49.1448280"><time>2021-08-14T09:27:31</time></trkpt><trkpt lat="55.8124070" lon="49.1448290"><time>2021-08-14T09:27:32</time></trkpt><trkpt lat="55.8124040" lon="49.1448300"><time>2021-08-14T09:27:33</time></trkpt><trkpt lat="55.8124020" lon="49.1448300"><time>2021-08-14T09:27:34</time></trkpt><trkpt lat="55.8124000" lon="49.1448310"><time>2021-08-14T09:27:35</time></trkpt><trkpt lat="55.8123980" lon="49.1448320"><time>2021-08-14T09:27:36</time></trkpt><trkpt lat="55.8123960" lon="49.1448330"><time>2021-08-14T09:27:37</time></trkpt><trkpt lat="55.8123940" lon="49.1448340"><time>2021-08-14T09:27:38</time></trkpt><trkpt lat="55.8123920" lon="49.1448350"><time>2021-08-14T09:27:39</time></trkpt><trkpt lat="55.8123900" lon="49.1448350"><time>2021-08-14T09:27:40</time></trkpt><trkpt lat="55.8123880" lon="49.1448360"><time>2021-08-14T09:27:41</time></trkpt><trkpt lat="55.8123860" lon="49.1448370"><time>2021-08-14T09:27:42</time></trkpt><trkpt lat="55.8123840" lon="49.1448380"><time>2021-08-14T09:27:43</time></trkpt><trkpt lat="55.8123820" lon="49.1448390"><time>2021-08-14T09:27:44</time></trkpt><trkpt lat="55.8123800" lon="49.1448390"><time>2021-08-14T09:27:45</time></trkpt><trkpt lat="55.8123780" lon="49.1448400"><time>2021-08-14T09:27:46</time></trkpt><trkpt lat="55.8123750" lon="49.1448410"><time>2021-08-14T09:27:47</time></trkpt><trkpt lat="55.8123730" lon="49.1448420"><time>2021-08-14T09:27:48</time></trkpt><trkpt lat="55.8123710" lon="49.1448430"><time>2021-08-14T09:27:49</time></trkpt><trkpt lat="55.8123690" lon="49.1448440"><time>2021-08-14T09:27:50</time></trkpt><trkpt lat="55.8123670" lon="49.1448440"><time>2021-08-14T09:27:51</time></trkpt><trkpt lat="55.8123650" lon="49.1448450"><time>2021-08-14T09:27:52</time></trkpt><trkpt lat="55.8123630" lon="49.1448460"><time>2021-08-14T09:27:53</time></trkpt><trkpt lat="55.8123610" lon="49.1448720"><time>2021-08-14T09:27:54</time></trkpt><trkpt lat="55.8123620" lon="49.1448990"><time>2021-08-14T09:27:55</time></trkpt><trkpt lat="55.8123680" lon="49.1449220"><time>2021-08-14T09:27:56</time></trkpt><trkpt lat="55.8123740" lon="49.1449430"><time>2021-08-14T09:27:57</time></trkpt><trkpt lat="55.8123870" lon="49.1449680"><time>2021-08-14T09:27:58</time></trkpt><trkpt lat="55.8124000" lon="49.1449840"><time>2021-08-14T09:27:59</time></trkpt><trkpt lat="55.8124210" lon="49.1450240"><time>2021-08-14T09:28:00</time></trkpt><trkpt lat="55.8124270" lon="49.1450320"><time>2021-08-14T09:28:01</time></trkpt><trkpt lat="55.8124380" lon="49.1450510"><time>2021-08-14T09:28:02</time></trkpt><trkpt lat="55.8124480" lon="49.1450550"><time>2021-08-14T09:28:03</time></trkpt><trkpt lat="55.8124570" lon="49.1450610"><time>2021-08-14T09:28:04</time></trkpt><trkpt lat="55.8124750" lon="49.1450880"><time>2021-08-14T09:28:05</time></trkpt><trkpt lat="55.8124830" lon="49.1451070"><time>2021-08-14T09:28:06</time></trkpt><trkpt lat="55.8124920" lon="49.1451270"><time>2021-08-14T09:28:07</time></trkpt><trkpt lat="55.8125080" lon="49.1451390"><time>2021-08-14T09:28:08</time></trkpt><trkpt lat="55.8125190" lon="49.1451560"><time>2021-08-14T09:28:09</time></trkpt><trkpt lat="55.8125280" lon="49.1451770"><time>2021-08-14T09:28:10</time></trkpt><trkpt lat="55.8125410" lon="49.1451880"><time>2021-08-14T09:28:11</time></trkpt><trkpt lat="55.8125560" lon="49.1451980"><time>2021-08-14T09:28:12</time></trkpt><trkpt lat="55.8125740" lon="49.1452190"><time>2021-08-14T09:28:13</time></trkpt><trkpt lat="55.8125820" lon="49.1452300"><time>2021-08-14T09:28:14</time></trkpt><trkpt lat="55.8125890" lon="49.1452410"><time>2021-08-14T09:28:15</time></trkpt><trkpt lat="55.8126040" lon="49.1452570"><time>2021-08-14T09:28:16</time></trkpt><trkpt lat="55.8126190" lon="49.1452670"><time>2021-08-14T09:28:17</time></trkpt><trkpt lat="55.8126300" lon="49.1452840"><time>2021-08-14T09:28:18</time></trkpt><trkpt lat="55.8126430" lon="49.1453010"><time>2021-08-14T09:28:19</time></trkpt><trkpt lat="55.8126550" lon="49.1453170"><time>2021-08-14T09:28:20</time></trkpt><trkpt lat="55.8126690" lon="49.1453320"><time>2021-08-14T09:28:21</time></trkpt><trkpt lat="55.8126810" lon="49.1453500"><time>2021-08-14T09:28:22</time></trkpt><trkpt lat="55.8126970" lon="49.1453650"><time>2021-08-14T09:28:23</time></trkpt><trkpt lat="55.8127090" lon="49.1453760"><time>2021-08-14T09:28:24</time></trkpt><trkpt lat="55.8127200" lon="49.1453950"><time>2021-08-14T09:28:25</time></trkpt><trkpt lat="55.8127320" lon="49.1454150"><time>2021-08-14T09:28:26</time></trkpt><trkpt lat="55.8127430" lon="49.1454330"><time>2021-08-14T09:28:27</time></trkpt><trkpt lat="55.8127570" lon="49.1454450"><time>2021-08-14T09:28:28</time></trkpt><trkpt lat="55.8127690" lon="49.1454620"><time>2021-08-14T09:28:29</time></trkpt><trkpt lat="55.8127790" lon="49.1454830"><time>2021-08-14T09:28:30</time></trkpt><trkpt lat="55.8127850" lon="49.1455100"><time>2021-08-14T09:28:31</time></trkpt><trkpt lat="55.8127970" lon="49.1455290"><time>2021-08-14T09:28:32</time></trkpt><trkpt lat="55.8128140" lon="49.1455370"><time>2021-08-14T09:28:33</time></trkpt><trkpt lat="55.8128260" lon="49.1455540"><time>2021-08-14T09:28:34</time></trkpt><trkpt lat="55.8128400" lon="49.1455660"><time>2021-08-14T09:28:35</time></trkpt><trkpt lat="55.8128490" lon="49.1455840"><time>2021-08-14T09:28:36</time></trkpt><trkpt lat="55.8128610" lon="49.1456030"><time>2021-08-14T09:28:37</time></trkpt><trkpt lat="55.8128710" lon="49.1456250"><time>2021-08-14T09:28:38</time></trkpt><trkpt lat="55.8128840" lon="49.1456340"><time>2021-08-14T09:28:39</time></trkpt><trkpt lat="55.8128990" lon="49.1456490"><time>2021-08-14T09:28:40</time></trkpt><trkpt lat="55.8129120" lon="49.1456680"><time>2021-08-14T09:28:41</time></trkpt><trkpt lat="55.8129210" lon="49.1456900"><time>2021-08-14T09:28:42</time></trkpt><trkpt lat="55.8129310" lon="49.1457100"><time>2021-08-14T09:28:43</time></trkpt><trkpt lat="55.8129420" lon="49.1457280"><time>2021-08-14T09:28:44</time></trkpt><trkpt lat="55.8129530" lon="49.1457480"><time>2021-08-14T09:28:45</time></trkpt><trkpt lat="55.8129650" lon="49.1457620"><time>2021-08-14T09:28:46</time></trkpt><trkpt lat="55.8129750" lon="49.1457790"><time>2021-08-14T09:28:47</time></trkpt><trkpt lat="55.8129870" lon="49.1457960"><time>2021-08-14T09:28:48</time></trkpt><trkpt lat="55.8129950" lon="49.1458150"><time>2021-08-14T09:28:49</time></trkpt><trkpt lat="55.8130020" lon="49.1458390"><time>2021-08-14T09:28:50</time></trkpt><trkpt lat="55.8130100" lon="49.1458570"><time>2021-08-14T09:28:51</time></trkpt><trkpt lat="55.8130220" lon="49.1458700"><time>2021-08-14T09:28:52</time></trkpt><trkpt lat="55.8130350" lon="49.1458850"><time>2021-08-14T09:28:53</time></trkpt><trkpt lat="55.8130470" lon="49.1458990"><time>2021-08-14T09:28:54</time></trkpt><trkpt lat="55.8130580" lon="49.1459160"><time>2021-08-14T09:28:55</time></trkpt><trkpt lat="55.8130680" lon="49.1459380"><time>2021-08-14T09:28:56</time></trkpt><trkpt lat="55.8130780" lon="49.1459530"><time>2021-08-14T09:28:57</time></trkpt><trkpt lat="55.8130880" lon="49.1459730"><time>2021-08-14T09:28:58</time></trkpt><trkpt lat="55.8130950" lon="49.1459980"><time>2021-08-14T09:28:59</time></trkpt><trkpt lat="55.8131010" lon="49.1460220"><time>2021-08-14T09:29:00</time></trkpt><trkpt lat="55.8131090" lon="49.1460400"><time>2021-08-14T09:29:01</time></trkpt><trkpt lat="55.8131190" lon="49.1460580"><time>2021-08-14T09:29:02</time></trkpt><trkpt lat="55.8131250" lon="49.1460820"><time>2021-08-14T09:29:03</time></trkpt><trkpt lat="55.8131350" lon="49.1461170"><time>2021-08-14T09:29:04</time></trkpt><trkpt lat="55.8131400" lon="49.1461310"><time>2021-08-14T09:29:05</time></trkpt><trkpt lat="55.8131450" lon="49.1461440"><time>2021-08-14T09:29:06</time></trkpt><trkpt lat="55.8131490" lon="49.1461680"><time>2021-08-14T09:29:07</time></trkpt><trkpt lat="55.8131590" lon="49.1461920"><time>2021-08-14T09:29:08</time></trkpt><trkpt lat="55.8131660" lon="49.1462130"><time>2021-08-14T09:29:09</time></trkpt><trkpt lat="55.8131670" lon="49.1462450"><time>2021-08-14T09:29:10</time></trkpt><trkpt lat="55.8131770" lon="49.1462660"><time>2021-08-14T09:29:11</time></trkpt><trkpt lat="55.8131870" lon="49.1462890"><time>2021-08-14T09:29:12</time></trkpt><trkpt lat="55.8131960" lon="49.1463070"><time>2021-08-14T09:29:13</time></trkpt><trkpt lat="55.8132050" lon="49.1463300"><time>2021-08-14T09:29:14</time></trkpt><trkpt lat="55.8132140" lon="49.1463520"><time>2021-08-14T09:29:15</time></trkpt><trkpt lat="55.8132140" lon="49.1463830"><time>2021-08-14T09:29:16</time></trkpt><trkpt lat="55.8132120" lon="49.1464140"><time>2021-08-14T09:29:17</time></trkpt><trkpt lat="55.8132220" lon="49.1464360"><time>2021-08-14T09:29:18</time></trkpt><trkpt lat="55.8132290" lon="49.1464600"><time>2021-08-14T09:29:19</time></trkpt><trkpt lat="55.8132340" lon="49.1464840"><time>2021-08-14T09:29:20</time></trkpt><trkpt lat="55.8132420" lon="49.1465040"><time>2021-08-14T09:29:21</time></trkpt><trkpt lat="55.8132470" lon="49.1465290"><time>2021-08-14T09:29:22</time></trkpt><trkpt lat="55.8132490" lon="49.1465580"><time>2021-08-14T09:29:23</time></trkpt><trkpt lat="55.8132520" lon="49.1465830"><time>2021-08-14T09:29:24</time></trkpt><trkpt lat="55.8132580" lon="49.1466060"><time>2021-08-14T09:29:25</time></trkpt><trkpt lat="55.8132670" lon="49.1466290"><time>2021-08-14T09:29:26</time></trkpt><trkpt lat="55.8132720" lon="49.1466550"><time>2021-08-14T09:29:27</time></trkpt><trkpt lat="55.8132680" lon="49.1466850"><time>2021-08-14T09:29:28</time></trkpt><trkpt lat="55.8132700" lon="49.1467120"><time>2021-08-14T09:29:29</time></trkpt><trkpt lat="55.8132730" lon="49.1467420"><time>2021-08-14T09:29:30</time></trkpt><trkpt lat="55.8132750" lon="49.1467710"><time>2021-08-14T09:29:31</time></trkpt><trkpt lat="55.8132770" lon="49.1468020"><time>2021-08-14T09:29:32</time></trkpt><trkpt lat="55.8132810" lon="49.1468320"><time>2021-08-14T09:29:33</time></trkpt><trkpt lat="55.8132860" lon="49.1468590"><time>2021-08-14T09:29:34</time></trkpt><trkpt lat="55.8132970" lon="49.1468900"><time>2021-08-14T09:29:35</time></trkpt><trkpt lat="55.8132980" lon="49.1469190"><time>2021-08-14T09:29:36</time></trkpt><trkpt lat="55.8133000" lon="49.1469470"><time>2021-08-14T09:29:37</time></trkpt><trkpt lat="55.8133010" lon="49.1469770"><time>2021-08-14T09:29:38</time></trkpt><trkpt lat="55.8133050" lon="49.1470050"><time>2021-08-14T09:29:39</time></trkpt><trkpt lat="55.8133080" lon="49.1470290"><time>2021-08-14T09:29:40</time></trkpt><trkpt lat="55.8133100" lon="49.1470520"><time>2021-08-14T09:29:41</time></trkpt><trkpt lat="55.8133130" lon="49.1470770"><time>2021-08-14T09:29:42</time></trkpt><trkpt lat="55.8133140" lon="49.1471110"><time>2021-08-14T09:29:43</time></trkpt><trkpt lat="55.8133170" lon="49.1471410"><time>2021-08-14T09:29:44</time></trkpt><trkpt lat="55.8133200" lon="49.1471680"><time>2021-08-14T09:29:45</time></trkpt><trkpt lat="55.8133230" lon="49.1471970"><time>2021-08-14T09:29:46</time></trkpt><trkpt lat="55.8133240" lon="49.1472250"><time>2021-08-14T09:29:47</time></trkpt><trkpt lat="55.8133300" lon="49.1472510"><time>2021-08-14T09:29:48</time></trkpt><trkpt lat="55.8133380" lon="49.1472760"><time>2021-08-14T09:29:49</time></trkpt><trkpt lat="55.8133360" lon="49.1473040"><time>2021-08-14T09:29:50</time></trkpt><trkpt lat="55.8133360" lon="49.1473300"><time>2021-08-14T09:29:51</time></trkpt><trkpt lat="55.8133400" lon="49.1473540"><time>2021-08-14T09:29:52</time></trkpt><trkpt lat="55.8133430" lon="49.1473800"><time>2021-08-14T09:29:53</time></trkpt><trkpt lat="55.8133480" lon="49.1474090"><time>2021-08-14T09:29:54</time></trkpt><trkpt lat="55.8133510" lon="49.1474360"><time>2021-08-14T09:29:55</time></trkpt><trkpt lat="55.8133560" lon="49.1474590"><time>2021-08-14T09:29:56</time></trkpt><trkpt lat="55.8133690" lon="49.1474780"><time>2021-08-14T09:29:57</time></trkpt><trkpt lat="55.8133740" lon="49.1475010"><time>2021-08-14T09:29:58</time></trkpt><trkpt lat="55.8133790" lon="49.1475230"><time>2021-08-14T09:29:59</time></trkpt><trkpt lat="55.8133830" lon="49.1475480"><time>2021-08-14T09:30:00</time></trkpt><trkpt lat="55.8133870" lon="49.1475720"><time>2021-08-14T09:30:01</time></trkpt><trkpt lat="55.8133910" lon="49.1475990"><time>2021-08-14T09:30:02</time></trkpt><trkpt lat="55.8133980" lon="49.1476200"><time>2021-08-14T09:30:03</time></trkpt><trkpt lat="55.8134000" lon="49.1476460"><time>2021-08-14T09:30:04</time></trkpt><trkpt lat="55.8134020" lon="49.1476720"><time>2021-08-14T09:30:05</time></trkpt><trkpt lat="55.8134040" lon="49.1477010"><time>2021-08-14T09:30:06</time></trkpt><trkpt lat="55.8134060" lon="49.1477270"><time>2021-08-14T09:30:07</time></trkpt><trkpt lat="55.8134120" lon="49.1477530"><time>2021-08-14T09:30:08</time></trkpt><trkpt lat="55.8134190" lon="49.1477750"><time>2021-08-14T09:30:09</time></trkpt><trkpt lat="55.8134260" lon="49.1478010"><time>2021-08-14T09:30:10</time></trkpt><trkpt lat="55.8134340" lon="49.1478220"><time>2021-08-14T09:30:11</time></trkpt><trkpt lat="55.8134320" lon="49.1478530"><time>2021-08-14T09:30:12</time></trkpt><trkpt lat="55.8134300" lon="49.1478810"><time>2021-08-14T09:30:13</time></trkpt><trkpt lat="55.8134310" lon="49.1479080"><time>2021-08-14T09:30:14</time></trkpt><trkpt lat="55.8134330" lon="49.1479370"><time>2021-08-14T09:30:15</time></trkpt><trkpt lat="55.8134440" lon="49.1479550"><time>2021-08-14T09:30:16</time></trkpt><trkpt lat="55.8134460" lon="49.1479790"><time>2021-08-14T09:30:17</time></trkpt><trkpt lat="55.8134510" lon="49.1480050"><time>2021-08-14T09:30:18</time></trkpt><trkpt lat="55.8134620" lon="49.1480330"><time>2021-08-14T09:30:19</time></trkpt><trkpt lat="55.8134690" lon="49.1480530"><time>2021-08-14T09:30:20</time></trkpt><trkpt lat="55.8134790" lon="49.1480730"><time>2021-08-14T09:30:21</time></trkpt><trkpt lat="55.8134820" lon="49.1480970"><time>2021-08-14T09:30:22</time></trkpt><trkpt lat="55.8134880" lon="49.1481210"><time>2021-08-14T09:30:23</time></trkpt><trkpt lat="55.8134990" lon="49.1481420"><time>2021-08-14T09:30:24</time></trkpt><trkpt lat="55.8135100" lon="49.1481620"><time>2021-08-14T09:30:25</time></trkpt><trkpt lat="55.8135240" lon="49.1481800"><time>2021-08-14T09:30:26</time></trkpt><trkpt lat="55.8135330" lon="49.1482010"><time>2021-08-14T09:30:27</time></trkpt><trkpt lat="55.8135450" lon="49.1482160"><time>2021-08-14T09:30:28</time></trkpt><trkpt lat="55.8135530" lon="49.1482360"><time>2021-08-14T09:30:29</time></trkpt><trkpt lat="55.8135640" lon="49.1482510"><time>2021-08-14T09:30:30</time></trkpt><trkpt lat="55.8135750" lon="49.1482690"><time>2021-08-14T09:30:31</time></trkpt><trkpt lat="55.8135860" lon="49.1482880"><time>2021-08-14T09:30:32</time></trkpt><trkpt lat="55.8136000" lon="49.1482980"><time>2021-08-14T09:30:33</time></trkpt><trkpt lat="55.8136110" lon="49.1483190"><time>2021-08-14T09:30:34</time></trkpt><trkpt lat="55.8136240" lon="49.1483350"><time>2021-08-14T09:30:35</time></trkpt><trkpt lat="55.8136360" lon="49.1483530"><time>2021-08-14T09:30:36</time></trkpt><trkpt lat="55.8136520" lon="49.1483600"><time>2021-08-14T09:30:37</time></trkpt><trkpt lat="55.8136640" lon="49.1483700"><time>2021-08-14T09:30:38</time></trkpt><trkpt lat="55.8136750" lon="49.1483870"><time>2021-08-14T09:30:39</time></trkpt><trkpt lat="55.8136760" lon="49.1484180"><time>2021-08-14T09:30:40</time></trkpt><trkpt lat="55.8137030" lon="49.1484330"><time>2021-08-14T09:30:41</time></trkpt><trkpt lat="55.8137110" lon="49.1484370"><time>2021-08-14T09:30:42</time></trkpt><trkpt lat="55.8137250" lon="49.1484460"><time>2021-08-14T09:30:43</time></trkpt><trkpt lat="55.8137390" lon="49.1484580"><time>2021-08-14T09:30:44</time></trkpt><trkpt lat="55.8137510" lon="49.1484640"><time>2021-08-14T09:30:45</time></trkpt><trkpt lat="55.8137650" lon="49.1484740"><time>2021-08-14T09:30:46</time></trkpt><trkpt lat="55.8137760" lon="49.1484820"><time>2021-08-14T09:30:47</time></trkpt><trkpt lat="55.8137910" lon="49.1484870"><time>2021-08-14T09:30:48</time></trkpt><trkpt lat="55.8138040" lon="49.1485000"><time>2021-08-14T09:30:49</time></trkpt><trkpt lat="55.8138190" lon="49.1485070"><time>2021-08-14T09:30:50</time></trkpt><trkpt lat="55.8138340" lon="49.1485090"><time>2021-08-14T09:30:51</time></trkpt><trkpt lat="55.8138490" lon="49.1485210"><time>2021-08-14T09:30:52</time></trkpt><trkpt lat="55.8138630" lon="49.1485340"><time>2021-08-14T09:30:53</time></trkpt><trkpt lat="55.8138770" lon="49.1485400"><time>2021-08-14T09:30:54</time></trkpt><trkpt lat="55.8138930" lon="49.1485470"><time>2021-08-14T09:30:55</time></trkpt><trkpt lat="55.8139060" lon="49.1485500"><time>2021-08-14T09:30:56</time></trkpt><trkpt lat="55.8139190" lon="49.1485590"><time>2021-08-14T09:30:57</time></trkpt><trkpt lat="55.8139340" lon="49.1485740"><time>2021-08-14T09:30:58</time></trkpt><trkpt lat="55.8139490" lon="49.1485710"><time>2021-08-14T09:30:59</time></trkpt><trkpt lat="55.8139660" lon="49.1485780"><time>2021-08-14T09:31:00</time></trkpt><trkpt lat="55.8139780" lon="49.1485860"><time>2021-08-14T09:31:01</time></trkpt><trkpt lat="55.8139930" lon="49.1485960"><time>2021-08-14T09:31:02</time></trkpt><trkpt lat="55.8140060" lon="49.1486060"><time>2021-08-14T09:31:03</time></trkpt><trkpt lat="55.8140200" lon="49.1486080"><time>2021-08-14T09:31:04</time></trkpt><trkpt lat="55.8140360" lon="49.1486020"><time>2021-08-14T09:31:05</time></trkpt><trkpt lat="55.8140520" lon="49.1486060"><time>2021-08-14T09:31:06</time></trkpt><trkpt lat="55.8140640" lon="49.1486100"><time>2021-08-14T09:31:07</time></trkpt><trkpt lat="55.8140770" lon="49.1486250"><time>2021-08-14T09:31:08</time></trkpt><trkpt lat="55.8140910" lon="49.1486410"><time>2021-08-14T09:31:09</time></trkpt><trkpt lat="55.8141010" lon="49.1486520"><time>2021-08-14T09:31:10</time></trkpt><trkpt lat="55.8141170" lon="49.1486600"><time>2021-08-14T09:31:11</time></trkpt><trkpt lat="55.8141300" lon="49.1486710"><time>2021-08-14T09:31:12</time></trkpt><trkpt lat="55.8141450" lon="49.1486830"><time>2021-08-14T09:31:13</time></trkpt><trkpt lat="55.8141560" lon="49.1486950"><time>2021-08-14T09:31:14</time></trkpt><trkpt lat="55.8141690" lon="49.1487050"><time>2021-08-14T09:31:15</time></trkpt><trkpt lat="55.8141850" lon="49.1487030"><time>2021-08-14T09:31:16</time></trkpt><trkpt lat="55.8142030" lon="49.1487170"><time>2021-08-14T09:31:17</time></trkpt><trkpt lat="55.8142170" lon="49.1487240"><time>2021-08-14T09:31:18</time></trkpt><trkpt lat="55.8142330" lon="49.1487260"><time>2021-08-14T09:31:19</time></trkpt><trkpt lat="55.8142450" lon="49.1487380"><time>2021-08-14T09:31:20</time></trkpt><trkpt lat="55.8142590" lon="49.1487420"><time>2021-08-14T09:31:21</time></trkpt><trkpt lat="55.8142760" lon="49.1487380"><time>2021-08-14T09:31:22</time></trkpt><trkpt lat="55.8142890" lon="49.1487350"><time>2021-08-14T09:31:23</time></trkpt><trkpt lat="55.8143010" lon="49.1487550"><time>2021-08-14T09:31:24</time></trkpt><trkpt lat="55.8143220" lon="49.1487690"><time>2021-08-14T09:31:25</time></trkpt><trkpt lat="55.8143310" lon="49.1487730"><time>2021-08-14T09:31:26</time></trkpt><trkpt lat="55.8143410" lon="49.1487770"><time>2021-08-14T09:31:27</time></trkpt><trkpt lat="55.8143550" lon="49.1487890"><time>2021-08-14T09:31:28</time></trkpt><trkpt lat="55.8143730" lon="49.1487840"><time>2021-08-14T09:31:29</time></trkpt><trkpt lat="55.8143950" lon="49.1487980"><time>2021-08-14T09:31:30</time></trkpt><trkpt lat="55.8144040" lon="49.1488050"><time>2021-08-14T09:31:31</time></trkpt><trkpt lat="55.8144120" lon="49.1488110"><time>2021-08-14T09:31:32</time></trkpt><trkpt lat="55.8144240" lon="49.1488190"><time>2021-08-14T09:31:33</time></trkpt><trkpt lat="55.8144400" lon="49.1488220"><time>2021-08-14T09:31:34</time></trkpt><trkpt lat="55.8144510" lon="49.1488360"><time>2021-08-14T09:31:35</time></trkpt><trkpt lat="55.8144640" lon="49.1488520"><time>2021-08-14T09:31:36</time></trkpt><trkpt lat="55.8144760" lon="49.1488670"><time>2021-08-14T09:31:37</time></trkpt><trkpt lat="55.8144940" lon="49.1488710"><time>2021-08-14T09:31:38</time></trkpt><trkpt lat="55.8145060" lon="49.1488870"><time>2021-08-14T09:31:39</time></trkpt><trkpt lat="55.8145190" lon="49.1489010"><time>2021-08-14T09:31:40</time></trkpt><trkpt lat="55.8145360" lon="49.1489070"><time>2021-08-14T09:31:41</time></trkpt><trkpt lat="55.8145490" lon="49.1489160"><time>2021-08-14T09:31:42</time></trkpt><trkpt lat="55.8145630" lon="49.1489180"><time>2021-08-14T09:31:43</time></trkpt><trkpt lat="55.8145750" lon="49.1489250"><time>2021-08-14T09:31:44</time></trkpt><trkpt lat="55.8145900" lon="49.1489360"><time>2021-08-14T09:31:45</time></trkpt><trkpt lat="55.8146090" lon="49.1489390"><time>2021-08-14T09:31:46</time></trkpt><trkpt lat="55.8146240" lon="49.1489500"><time>2021-08-14T09:31:47</time></trkpt><trkpt lat="55.8146370" lon="49.1489610"><time>2021-08-14T09:31:48</time></trkpt><trkpt lat="55.8146510" lon="49.1489720"><time>2021-08-14T09:31:49</time></trkpt><trkpt lat="55.8146630" lon="49.1489860"><time>2021-08-14T09:31:50</time></trkpt><trkpt lat="55.8146790" lon="49.1489880"><time>2021-08-14T09:31:51</time></trkpt><trkpt lat="55.8146940" lon="49.1489950"><time>2021-08-14T09:31:52</time></trkpt><trkpt lat="55.8147080" lon="49.1490070"><time>2021-08-14T09:31:53</time></trkpt><trkpt lat="55.8147230" lon="49.1490050"><time>2021-08-14T09:31:54</time></trkpt><trkpt lat="55.8147350" lon="49.1490140"><time>2021-08-14T09:31:55</time></trkpt><trkpt lat="55.8147450" lon="49.1490350"><time>2021-08-14T09:31:56</time></trkpt><trkpt lat="55.8147570" lon="49.1490560"><time>2021-08-14T09:31:57</time></trkpt><trkpt lat="55.8147710" lon="49.1490630"><time>2021-08-14T09:31:58</time></trkpt><trkpt lat="55.8147850" lon="49.1490700"><time>2021-08-14T09:31:59</time></trkpt><trkpt lat="55.8148000" lon="49.1490820"><time>2021-08-14T09:32:00</time></trkpt><trkpt lat="55.8148180" lon="49.1491060"><time>2021-08-14T09:32:01</time></trkpt><trkpt lat="55.8148260" lon="49.1491130"><time>2021-08-14T09:32:02</time></trkpt><trkpt lat="55.8148350" lon="49.1491200"><time>2021-08-14T09:32:03</time></trkpt><trkpt lat="55.8148530" lon="49.1491240"><time>2021-08-14T09:32:04</time></trkpt><trkpt lat="55.8148660" lon="49.1491340"><time>2021-08-14T09:32:05</time></trkpt><trkpt lat="55.8148820" lon="49.1491370"><time>2021-08-14T09:32:06</time></trkpt><trkpt lat="55.8148950" lon="49.1491580"><time>2021-08-14T09:32:07</time></trkpt><trkpt lat="55.8149030" lon="49.1491820"><time>2021-08-14T09:32:08</time></trkpt><trkpt lat="55.8149160" lon="49.1491970"><time>2021-08-14T09:32:09</time></trkpt><trkpt lat="55.8149300" lon="49.1492100"><time>2021-08-14T09:32:10</time></trkpt><trkpt lat="55.8149420" lon="49.1492310"><time>2021-08-14T09:32:11</time></trkpt><trkpt lat="55.8149560" lon="49.1492390"><time>2021-08-14T09:32:12</time></trkpt><trkpt lat="55.8149670" lon="49.1492500"><time>2021-08-14T09:32:13</time></trkpt><trkpt lat="55.8149810" lon="49.1492640"><time>2021-08-14T09:32:14</time></trkpt><trkpt lat="55.8149930" lon="49.1492720"><time>2021-08-14T09:32:15</time></trkpt><trkpt lat="55.8150130" lon="49.1492900"><time>2021-08-14T09:32:16</time></trkpt><trkpt lat="55.8150180" lon="49.1493030"><time>2021-08-14T09:32:17</time></trkpt><trkpt lat="55.8150240" lon="49.1493160"><time>2021-08-14T09:32:18</time></trkpt><trkpt lat="55.8150460" lon="49.1493320"><time>2021-08-14T09:32:19</time></trkpt><trkpt lat="55.8150540" lon="49.1493400"><time>2021-08-14T09:32:20</time></trkpt><trkpt lat="55.8150620" lon="49.1493480"><time>2021-08-14T09:32:21</time></trkpt><trkpt lat="55.8150760" lon="49.1493540"><time>2021-08-14T09:32:22</time></trkpt><trkpt lat="55.8150870" lon="49.1493710"><time>2021-08-14T09:32:23</time></trkpt><trkpt lat="55.8151010" lon="49.1493850"><time>2021-08-14T09:32:24</time></trkpt><trkpt lat="55.8151170" lon="49.1493880"><time>2021-08-14T09:32:25</time></trkpt><trkpt lat="55.8151260" lon="49.1494050"><time>2021-08-14T09:32:26</time></trkpt><trkpt lat="55.8151370" lon="49.1494270"><time>2021-08-14T09:32:27</time></trkpt><trkpt lat="55.8151480" lon="49.1494420"><time>2021-08-14T09:32:28</time></trkpt><trkpt lat="55.8151610" lon="49.1494550"><time>2021-08-14T09:32:29</time></trkpt><trkpt lat="55.8151760" lon="49.1494700"><time>2021-08-14T09:32:30</time></trkpt><trkpt lat="55.8151860" lon="49.1494850"><time>2021-08-14T09:32:31</time></trkpt><trkpt lat="55.8151990" lon="49.1495020"><time>2021-08-14T09:32:32</time></trkpt><trkpt lat="55.8152130" lon="49.1495120"><time>2021-08-14T09:32:33</time></trkpt><trkpt lat="55.8152240" lon="49.1495270"><time>2021-08-14T09:32:34</time></trkpt><trkpt lat="55.8152360" lon="49.1495400"><time>2021-08-14T09:32:35</time></trkpt><trkpt lat="55.8152510" lon="49.1495480"><time>2021-08-14T09:32:36</time></trkpt><trkpt lat="55.8152650" lon="49.1495560"><time>2021-08-14T09:32:37</time></trkpt><trkpt lat="55.8152810" lon="49.1495620"><time>2021-08-14T09:32:38</time></trkpt><trkpt lat="55.8152950" lon="49.1495720"><time>2021-08-14T09:32:39</time></trkpt><trkpt lat="55.8153040" lon="49.1495910"><time>2021-08-14T09:32:40</time></trkpt><trkpt lat="55.8153140" lon="49.1496060"><time>2021-08-14T09:32:41</time></trkpt><trkpt lat="55.8153260" lon="49.1496210"><time>2021-08-14T09:32:42</time></trkpt><trkpt lat="55.8153340" lon="49.1496430"><time>2021-08-14T09:32:43</time></trkpt><trkpt lat="55.8153420" lon="49.1496630"><time>2021-08-14T09:32:44</time></trkpt><trkpt lat="55.8153540" lon="49.1496750"><time>2021-08-14T09:32:45</time></trkpt><trkpt lat="55.8153660" lon="49.1496840"><time>2021-08-14T09:32:46</time></trkpt><trkpt lat="55.8153810" lon="49.1496960"><time>2021-08-14T09:32:47</time></trkpt><trkpt lat="55.8153920" lon="49.1497190"><time>2021-08-14T09:32:48</time></trkpt><trkpt lat="55.8154030" lon="49.1497390"><time>2021-08-14T09:32:49</time></trkpt><trkpt lat="55.8154190" lon="49.1497470"><time>2021-08-14T09:32:50</time></trkpt><trkpt lat="55.8154340" lon="49.1497640"><time>2021-08-14T09:32:51</time></trkpt><trkpt lat="55.8154460" lon="49.1497810"><time>2021-08-14T09:32:52</time></trkpt><trkpt lat="55.8154600" lon="49.1497950"><time>2021-08-14T09:32:53</time></trkpt><trkpt lat="55.8154750" lon="49.1498150"><time>2021-08-14T09:32:54</time></trkpt><trkpt lat="55.8154890" lon="49.1498250"><time>2021-08-14T09:32:55</time></trkpt><trkpt lat="55.8155020" lon="49.1498450"><time>2021-08-14T09:32:56</time></trkpt><trkpt lat="55.8155080" lon="49.1498680"><time>2021-08-14T09:32:57</time></trkpt><trkpt lat="55.8155200" lon="49.1498840"><time>2021-08-14T09:32:58</time></trkpt><trkpt lat="55.8155340" lon="49.1499020"><time>2021-08-14T09:32:59</time></trkpt><trkpt lat="55.8155460" lon="49.1499160"><time>2021-08-14T09:33:00</time></trkpt><trkpt lat="55.8155520" lon="49.1499500"><time>2021-08-14T09:33:01</time></trkpt><trkpt lat="55.8155620" lon="49.1499720"><time>2021-08-14T09:33:02</time></trkpt><trkpt lat="55.8155660" lon="49.1500000"><time>2021-08-14T09:33:03</time></trkpt><trkpt lat="55.8155790" lon="49.1500230"><time>2021-08-14T09:33:04</time></trkpt><trkpt lat="55.8155860" lon="49.1500460"><time>2021-08-14T09:33:05</time></trkpt><trkpt lat="55.8155980" lon="49.1500620"><time>2021-08-14T09:33:06</time></trkpt><trkpt lat="55.8156150" lon="49.1500720"><time>2021-08-14T09:33:07</time></trkpt><trkpt lat="55.8156290" lon="49.1500800"><time>2021-08-14T09:33:08</time></trkpt><trkpt lat="55.8156420" lon="49.1500940"><time>2021-08-14T09:33:09</time></trkpt><trkpt lat="55.8156520" lon="49.1501060"><time>2021-08-14T09:33:10</time></trkpt><trkpt lat="55.8156660" lon="49.1501200"><time>2021-08-14T09:33:11</time></trkpt><trkpt lat="55.8156780" lon="49.1501350"><time>2021-08-14T09:33:12</time></trkpt><trkpt lat="55.8156880" lon="49.1501550"><time>2021-08-14T09:33:13</time></trkpt><trkpt lat="55.8157050" lon="49.1501640"><time>2021-08-14T09:33:14</time></trkpt><trkpt lat="55.8157150" lon="49.1501850"><time>2021-08-14T09:33:15</time></trkpt><trkpt lat="55.8157290" lon="49.1501970"><time>2021-08-14T09:33:16</time></trkpt><trkpt lat="55.8157400" lon="49.1502110"><time>2021-08-14T09:33:17</time></trkpt><trkpt lat="55.8157600" lon="49.1502340"><time>2021-08-14T09:33:18</time></trkpt><trkpt lat="55.8157670" lon="49.1502440"><time>2021-08-14T09:33:19</time></trkpt><trkpt lat="55.8157740" lon="49.1502540"><time>2021-08-14T09:33:20</time></trkpt><trkpt lat="55.8157860" lon="49.1502690"><time>2021-08-14T09:33:21</time></trkpt><trkpt lat="55.8157990" lon="49.1502870"><time>2021-08-14T09:33:22</time></trkpt><trkpt lat="55.8158090" lon="49.1503020"><time>2021-08-14T09:33:23</time></trkpt><trkpt lat="55.8158210" lon="49.1503210"><time>2021-08-14T09:33:24</time></trkpt><trkpt lat="55.8158310" lon="49.1503330"><time>2021-08-14T09:33:25</time></trkpt><trkpt lat="55.8158310" lon="49.1503700"><time>2021-08-14T09:33:26</time></trkpt><trkpt lat="55.8158410" lon="49.1503890"><time>2021-08-14T09:33:27</time></trkpt><trkpt lat="55.8158500" lon="49.1504090"><time>2021-08-14T09:33:28</time></trkpt><trkpt lat="55.8158620" lon="49.1504260"><time>2021-08-14T09:33:29</time></trkpt><trkpt lat="55.8158750" lon="49.1504440"><time>2021-08-14T09:33:30</time></trkpt><trkpt lat="55.8158850" lon="49.1504620"><time>2021-08-14T09:33:31</time></trkpt><trkpt lat="55.8158960" lon="49.1504770"><time>2021-08-14T09:33:32</time></trkpt><trkpt lat="55.8159060" lon="49.1504990"><time>2021-08-14T09:33:33</time></trkpt><trkpt lat="55.8159140" lon="49.1505220"><time>2021-08-14T09:33:34</time></trkpt><trkpt lat="55.8159230" lon="49.1505430"><time>2021-08-14T09:33:35</time></trkpt><trkpt lat="55.8159310" lon="49.1505640"><time>2021-08-14T09:33:36</time></trkpt><trkpt lat="55.8159440" lon="49.1505760"><time>2021-08-14T09:33:37</time></trkpt><trkpt lat="55.8159610" lon="49.1505810"><time>2021-08-14T09:33:38</time></trkpt><trkpt lat="55.8159720" lon="49.1505900"><time>2021-08-14T09:33:39</time></trkpt><trkpt lat="55.8159860" lon="49.1506040"><time>2021-08-14T09:33:40</time></trkpt><trkpt lat="55.8159980" lon="49.1506180"><time>2021-08-14T09:33:41</time></trkpt><trkpt lat="55.8160110" lon="49.1506330"><time>2021-08-14T09:33:42</time></trkpt><trkpt lat="55.8160320" lon="49.1506490"><time>2021-08-14T09:33:43</time></trkpt><trkpt lat="55.8160400" lon="49.1506550"><time>2021-08-14T09:33:44</time></trkpt><trkpt lat="55.8160490" lon="49.1506610"><time>2021-08-14T09:33:45</time></trkpt><trkpt lat="55.8160550" lon="49.1506900"><time>2021-08-14T09:33:46</time></trkpt><trkpt lat="55.8160690" lon="49.1506990"><time>2021-08-14T09:33:47</time></trkpt><trkpt lat="55.8160820" lon="49.1507320"><time>2021-08-14T09:33:48</time></trkpt><trkpt lat="55.8160890" lon="49.1507470"><time>2021-08-14T09:33:49</time></trkpt><trkpt lat="55.8160950" lon="49.1507620"><time>2021-08-14T09:33:50</time></trkpt><trkpt lat="55.8161050" lon="49.1507790"><time>2021-08-14T09:33:51</time></trkpt><trkpt lat="55.8161150" lon="49.1507960"><time>2021-08-14T09:33:52</time></trkpt><trkpt lat="55.8161230" lon="49.1508190"><time>2021-08-14T09:33:53</time></trkpt><trkpt lat="55.8161300" lon="49.1508450"><time>2021-08-14T09:33:54</time></trkpt><trkpt lat="55.8161380" lon="49.1508680"><time>2021-08-14T09:33:55</time></trkpt><trkpt lat="55.8161460" lon="49.1508890"><time>2021-08-14T09:33:56</time></trkpt><trkpt lat="55.8161610" lon="49.1509050"><time>2021-08-14T09:33:57</time></trkpt><trkpt lat="55.8161710" lon="49.1509190"><time>2021-08-14T09:33:58</time></trkpt><trkpt lat="55.8161840" lon="49.1509390"><time>2021-08-14T09:33:59</time></trkpt><trkpt lat="55.8161950" lon="49.1509540"><time>2021-08-14T09:34:00</time></trkpt><trkpt lat="55.8162060" lon="49.1509700"><time>2021-08-14T09:34:01</time></trkpt><trkpt lat="55.8162190" lon="49.1509860"><time>2021-08-14T09:34:02</time></trkpt><trkpt lat="55.8162250" lon="49.1510110"><time>2021-08-14T09:34:03</time></trkpt><trkpt lat="55.8162320" lon="49.1510320"><time>2021-08-14T09:34:04</time></trkpt><trkpt lat="55.8162440" lon="49.1510460"><time>2021-08-14T09:34:05</time></trkpt><trkpt lat="55.8162500" lon="49.1510690"><time>2021-08-14T09:34:06</time></trkpt><trkpt lat="55.8162520" lon="49.1510880"><time>2021-08-14T09:34:07</time></trkpt><trkpt lat="55.8162520" lon="49.1510870"><time>2021-08-14T09:34:08</time></trkpt><trkpt lat="55.8162470" lon="49.1510690"><time>2021-08-14T09:34:09</time></trkpt><trkpt lat="55.8162490" lon="49.1510560"><time>2021-08-14T09:34:10</time></trkpt><trkpt lat="55.8162550" lon="49.1510490"><time>2021-08-14T09:34:11</time></trkpt><trkpt lat="55.8162610" lon="49.1510470"><time>2021-08-14T09:34:12</time></trkpt><trkpt lat="55.8162540" lon="49.1510480"><time>2021-08-14T09:34:13</time></trkpt><trkpt lat="55.8162540" lon="49.1510370"><time>2021-08-14T09:34:14</time></trkpt><trkpt lat="55.8162570" lon="49.1510320"><time>2021-08-14T09:34:15</time></trkpt><trkpt lat="55.8162570" lon="49.1510310"><time>2021-08-14T09:34:16</time></trkpt><trkpt lat="55.8162600" lon="49.1510250"><time>2021-08-14T09:34:17</time></trkpt><trkpt lat="55.8162630" lon="49.1510270"><time>2021-08-14T09:34:18</time></trkpt><trkpt lat="55.8162690" lon="49.1510290"><time>2021-08-14T09:34:19</time></trkpt><trkpt lat="55.8162680" lon="49.1510290"><time>2021-08-14T09:34:20</time></trkpt><trkpt lat="55.8162690" lon="49.1510260"><time>2021-08-14T09:34:21</time></trkpt><trkpt lat="55.8162690" lon="49.1510300"><time>2021-08-14T09:34:22</time></trkpt><trkpt lat="55.8162700" lon="49.1510350"><time>2021-08-14T09:34:23</time></trkpt><trkpt lat="55.8162710" lon="49.1510430"><time>2021-08-14T09:34:24</time></trkpt><trkpt lat="55.8162690" lon="49.1510450"><time>2021-08-14T09:34:25</time></trkpt><trkpt lat="55.8162790" lon="49.1510600"><time>2021-08-14T09:34:26</time></trkpt><trkpt lat="55.8162880" lon="49.1510780"><time>2021-08-14T09:34:27</time></trkpt><trkpt lat="55.8162980" lon="49.1511070"><time>2021-08-14T09:34:28</time></trkpt><trkpt lat="55.8163070" lon="49.1511290"><time>2021-08-14T09:34:29</time></trkpt><trkpt lat="55.8163180" lon="49.1511600"><time>2021-08-14T09:34:30</time></trkpt><trkpt lat="55.8163220" lon="49.1511750"><time>2021-08-14T09:34:31</time></trkpt><trkpt lat="55.8163270" lon="49.1511910"><time>2021-08-14T09:34:32</time></trkpt><trkpt lat="55.8163410" lon="49.1512230"><time>2021-08-14T09:34:33</time></trkpt><trkpt lat="55.8163470" lon="49.1512350"><time>2021-08-14T09:34:34</time></trkpt><trkpt lat="55.8163540" lon="49.1512480"><time>2021-08-14T09:34:35</time></trkpt><trkpt lat="55.8163670" lon="49.1512760"><time>2021-08-14T09:34:36</time></trkpt><trkpt lat="55.8163750" lon="49.1512880"><time>2021-08-14T09:34:37</time></trkpt><trkpt lat="55.8163820" lon="49.1513000"><time>2021-08-14T09:34:38</time></trkpt><trkpt lat="55.8163880" lon="49.1513220"><time>2021-08-14T09:34:39</time></trkpt><trkpt lat="55.8163960" lon="49.1513440"><time>2021-08-14T09:34:40</time></trkpt><trkpt lat="55.8164050" lon="49.1513640"><time>2021-08-14T09:34:41</time></trkpt><trkpt lat="55.8164120" lon="49.1513930"><time>2021-08-14T09:34:42</time></trkpt><trkpt lat="55.8164250" lon="49.1514160"><time>2021-08-14T09:34:43</time></trkpt><trkpt lat="55.8164360" lon="49.1514400"><time>2021-08-14T09:34:44</time></trkpt><trkpt lat="55.8164470" lon="49.1514550"><time>2021-08-14T09:34:45</time></trkpt><trkpt lat="55.8164550" lon="49.1514800"><time>2021-08-14T09:34:46</time></trkpt><trkpt lat="55.8164670" lon="49.1515120"><time>2021-08-14T09:34:47</time></trkpt><trkpt lat="55.8164720" lon="49.1515280"><time>2021-08-14T09:34:48</time></trkpt><trkpt lat="55.8164760" lon="49.1515440"><time>2021-08-14T09:34:49</time></trkpt><trkpt lat="55.8164810" lon="49.1515650"><time>2021-08-14T09:34:50</time></trkpt><trkpt lat="55.8164890" lon="49.1515890"><time>2021-08-14T09:34:51</time></trkpt><trkpt lat="55.8164980" lon="49.1516090"><time>2021-08-14T09:34:52</time></trkpt><trkpt lat="55.8165040" lon="49.1516300"><time>2021-08-14T09:34:53</time></trkpt><trkpt lat="55.8165070" lon="49.1516570"><time>2021-08-14T09:34:54</time></trkpt><trkpt lat="55.8165130" lon="49.1516820"><time>2021-08-14T09:34:55</time></trkpt><trkpt lat="55.8165260" lon="49.1517020"><time>2021-08-14T09:34:56</time></trkpt><trkpt lat="55.8165400" lon="49.1517140"><time>2021-08-14T09:34:57</time></trkpt><trkpt lat="55.8165470" lon="49.1517370"><time>2021-08-14T09:34:58</time></trkpt><trkpt lat="55.8165590" lon="49.1517580"><time>2021-08-14T09:34:59</time></trkpt><trkpt lat="55.8165700" lon="49.1517800"><time>2021-08-14T09:35:00</time></trkpt><trkpt lat="55.8165720" lon="49.1518070"><time>2021-08-14T09:35:01</time></trkpt><trkpt lat="55.8165810" lon="49.1518300"><time>2021-08-14T09:35:02</time></trkpt><trkpt lat="55.8165920" lon="49.1518510"><time>2021-08-14T09:35:03</time></trkpt><trkpt lat="55.8165990" lon="49.1518710"><time>2021-08-14T09:35:04</time></trkpt><trkpt lat="55.8166110" lon="49.1518890"><time>2021-08-14T09:35:05</time></trkpt><trkpt lat="55.8166180" lon="49.1519090"><time>2021-08-14T09:35:06</time></trkpt><trkpt lat="55.8166270" lon="49.1519310"><time>2021-08-14T09:35:07</time></trkpt><trkpt lat="55.8166400" lon="49.1519480"><time>2021-08-14T09:35:08</time></trkpt><trkpt lat="55.8166530" lon="49.1519580"><time>2021-08-14T09:35:09</time></trkpt><trkpt lat="55.8166650" lon="49.1519700"><time>2021-08-14T09:35:10</time></trkpt><trkpt lat="55.8166780" lon="49.1519890"><time>2021-08-14T09:35:11</time></trkpt><trkpt lat="55.8166870" lon="49.1520150"><time>2021-08-14T09:35:12</time></trkpt><trkpt lat="55.8166990" lon="49.1520300"><time>2021-08-14T09:35:13</time></trkpt><trkpt lat="55.8167120" lon="49.1520460"><time>2021-08-14T09:35:14</time></trkpt><trkpt lat="55.8167230" lon="49.1520600"><time>2021-08-14T09:35:15</time></trkpt><trkpt lat="55.8167400" lon="49.1520860"><time>2021-08-14T09:35:16</time></trkpt><trkpt lat="55.8167460" lon="49.1520980"><time>2021-08-14T09:35:17</time></trkpt><trkpt lat="55.8167520" lon="49.1521110"><time>2021-08-14T09:35:18</time></trkpt><trkpt lat="55.8167590" lon="49.1521370"><time>2021-08-14T09:35:19</time></trkpt><trkpt lat="55.8167660" lon="49.1521620"><time>2021-08-14T09:35:20</time></trkpt><trkpt lat="55.8167740" lon="49.1521830"><time>2021-08-14T09:35:21</time></trkpt><trkpt lat="55.8167840" lon="49.1522040"><time>2021-08-14T09:35:22</time></trkpt><trkpt lat="55.8167900" lon="49.1522300"><time>2021-08-14T09:35:23</time></trkpt><trkpt lat="55.8167950" lon="49.1522560"><time>2021-08-14T09:35:24</time></trkpt><trkpt lat="55.8168050" lon="49.1522790"><time>2021-08-14T09:35:25</time></trkpt><trkpt lat="55.8168170" lon="49.1522930"><time>2021-08-14T09:35:26</time></trkpt><trkpt lat="55.8168290" lon="49.1523100"><time>2021-08-14T09:35:27</time></trkpt><trkpt lat="55.8168410" lon="49.1523240"><time>2021-08-14T09:35:28</time></trkpt><trkpt lat="55.8168480" lon="49.1523440"><time>2021-08-14T09:35:29</time></trkpt><trkpt lat="55.8168570" lon="49.1523670"><time>2021-08-14T09:35:30</time></trkpt><trkpt lat="55.8168680" lon="49.1523840"><time>2021-08-14T09:35:31</time></trkpt><trkpt lat="55.8168790" lon="49.1524030"><time>2021-08-14T09:35:32</time></trkpt><trkpt lat="55.8168950" lon="49.1524280"><time>2021-08-14T09:35:33</time></trkpt><trkpt lat="55.8169010" lon="49.1524450"><time>2021-08-14T09:35:34</time></trkpt><trkpt lat="55.8169070" lon="49.1524610"><time>2021-08-14T09:35:35</time></trkpt><trkpt lat="55.8169200" lon="49.1524730"><time>2021-08-14T09:35:36</time></trkpt><trkpt lat="55.8169320" lon="49.1524920"><time>2021-08-14T09:35:37</time></trkpt><trkpt lat="55.8169410" lon="49.1525110"><time>2021-08-14T09:35:38</time></trkpt><trkpt lat="55.8169490" lon="49.1525320"><time>2021-08-14T09:35:39</time></trkpt><trkpt lat="55.8169600" lon="49.1525490"><time>2021-08-14T09:35:40</time></trkpt><trkpt lat="55.8169710" lon="49.1525650"><time>2021-08-14T09:35:41</time></trkpt><trkpt lat="55.8169850" lon="49.1525990"><time>2021-08-14T09:35:42</time></trkpt><trkpt lat="55.8169910" lon="49.1526120"><time>2021-08-14T09:35:43</time></trkpt><trkpt lat="55.8169960" lon="49.1526260"><time>2021-08-14T09:35:44</time></trkpt><trkpt lat="55.8170050" lon="49.1526460"><time>2021-08-14T09:35:45</time></trkpt><trkpt lat="55.8170130" lon="49.1526650"><time>2021-08-14T09:35:46</time></trkpt><trkpt lat="55.8170260" lon="49.1526840"><time>2021-08-14T09:35:47</time></trkpt><trkpt lat="55.8170390" lon="49.1526980"><time>2021-08-14T09:35:48</time></trkpt><trkpt lat="55.8170480" lon="49.1527130"><time>2021-08-14T09:35:49</time></trkpt><trkpt lat="55.8170580" lon="49.1527330"><time>2021-08-14T09:35:50</time></trkpt><trkpt lat="55.8170640" lon="49.1527610"><time>2021-08-14T09:35:51</time></trkpt><trkpt lat="55.8170750" lon="49.1527760"><time>2021-08-14T09:35:52</time></trkpt><trkpt lat="55.8170860" lon="49.1527890"><time>2021-08-14T09:35:53</time></trkpt><trkpt lat="55.8171000" lon="49.1528020"><time>2021-08-14T09:35:54</time></trkpt><trkpt lat="55.8171130" lon="49.1528160"><time>2021-08-14T09:35:55</time></trkpt><trkpt lat="55.8171260" lon="49.1528290"><time>2021-08-14T09:35:56</time></trkpt><trkpt lat="55.8171370" lon="49.1528480"><time>2021-08-14T09:35:57</time></trkpt><trkpt lat="55.8171500" lon="49.1528620"><time>2021-08-14T09:35:58</time></trkpt><trkpt lat="55.8171590" lon="49.1528840"><time>2021-08-14T09:35:59</time></trkpt><trkpt lat="55.8171730" lon="49.1528940"><time>2021-08-14T09:36:00</time></trkpt><trkpt lat="55.8171860" lon="49.1529040"><time>2021-08-14T09:36:01</time></trkpt><trkpt lat="55.8172000" lon="49.1529150"><time>2021-08-14T09:36:02</time></trkpt><trkpt lat="55.8172130" lon="49.1529230"><time>2021-08-14T09:36:03</time></trkpt><trkpt lat="55.8172240" lon="49.1529380"><time>2021-08-14T09:36:04</time></trkpt><trkpt lat="55.8172360" lon="49.1529500"><time>2021-08-14T09:36:05</time></trkpt><trkpt lat="55.8172490" lon="49.1529660"><time>2021-08-14T09:36:06</time></trkpt><trkpt lat="55.8172620" lon="49.1529800"><time>2021-08-14T09:36:07</time></trkpt><trkpt lat="55.8172760" lon="49.1529940"><time>2021-08-14T09:36:08</time></trkpt><trkpt lat="55.8172890" lon="49.1530080"><time>2021-08-14T09:36:09</time></trkpt><trkpt lat="55.8173020" lon="49.1530220"><time>2021-08-14T09:36:10</time></trkpt><trkpt lat="55.8173100" lon="49.1530450"><time>2021-08-14T09:36:11</time></trkpt><trkpt lat="55.8173210" lon="49.1530630"><time>2021-08-14T09:36:12</time></trkpt><trkpt lat="55.8173330" lon="49.1530770"><time>2021-08-14T09:36:13</time></trkpt><trkpt lat="55.8173460" lon="49.1530950"><time>2021-08-14T09:36:14</time></trkpt><trkpt lat="55.8173550" lon="49.1531110"><time>2021-08-14T09:36:15</time></trkpt><trkpt lat="55.8173630" lon="49.1531340"><time>2021-08-14T09:36:16</time></trkpt><trkpt lat="55.8173700" lon="49.1531590"><time>2021-08-14T09:36:17</time></trkpt><trkpt lat="55.8173820" lon="49.1531790"><time>2021-08-14T09:36:18</time></trkpt><trkpt lat="55.8173910" lon="49.1532010"><time>2021-08-14T09:36:19</time></trkpt><trkpt lat="55.8174020" lon="49.1532220"><time>2021-08-14T09:36:20</time></trkpt><trkpt lat="55.8174090" lon="49.1532420"><time>2021-08-14T09:36:21</time></trkpt><trkpt lat="55.8174190" lon="49.1532610"><time>2021-08-14T09:36:22</time></trkpt><trkpt lat="55.8174250" lon="49.1532850"><time>2021-08-14T09:36:23</time></trkpt><trkpt lat="55.8174340" lon="49.1533090"><time>2021-08-14T09:36:24</time></trkpt><trkpt lat="55.8174450" lon="49.1533280"><time>2021-08-14T09:36:25</time></trkpt><trkpt lat="55.8174590" lon="49.1533430"><time>2021-08-14T09:36:26</time></trkpt><trkpt lat="55.8174740" lon="49.1533520"><time>2021-08-14T09:36:27</time></trkpt><trkpt lat="55.8174880" lon="49.1533610"><time>2021-08-14T09:36:28</time></trkpt><trkpt lat="55.8175010" lon="49.1533700"><time>2021-08-14T09:36:29</time></trkpt><trkpt lat="55.8175130" lon="49.1533860"><time>2021-08-14T09:36:30</time></trkpt><trkpt lat="55.8175230" lon="49.1534040"><time>2021-08-14T09:36:31</time></trkpt><trkpt lat="55.8175320" lon="49.1534260"><time>2021-08-14T09:36:32</time></trkpt><trkpt lat="55.8175430" lon="49.1534440"><time>2021-08-14T09:36:33</time></trkpt><trkpt lat="55.8175550" lon="49.1534630"><time>2021-08-14T09:36:34</time></trkpt><trkpt lat="55.8175640" lon="49.1534810"><time>2021-08-14T09:36:35</time></trkpt><trkpt lat="55.8175740" lon="49.1535010"><time>2021-08-14T09:36:36</time></trkpt><trkpt lat="55.8175880" lon="49.1535110"><time>2021-08-14T09:36:37</time></trkpt><trkpt lat="55.8175990" lon="49.1535280"><time>2021-08-14T09:36:38</time></trkpt><trkpt lat="55.8176100" lon="49.1535420"><time>2021-08-14T09:36:39</time></trkpt><trkpt lat="55.8176220" lon="49.1535570"><time>2021-08-14T09:36:40</time></trkpt><trkpt lat="55.8176280" lon="49.1535810"><time>2021-08-14T09:36:41</time></trkpt><trkpt lat="55.8176390" lon="49.1536020"><time>2021-08-14T09:36:42</time></trkpt><trkpt lat="55.8176490" lon="49.1536180"><time>2021-08-14T09:36:43</time></trkpt><trkpt lat="55.8176610" lon="49.1536320"><time>2021-08-14T09:36:44</time></trkpt><trkpt lat="55.8176720" lon="49.1536470"><time>2021-08-14T09:36:45</time></trkpt><trkpt lat="55.8176830" lon="49.1536650"><time>2021-08-14T09:36:46</time></trkpt><trkpt lat="55.8176970" lon="49.1536770"><time>2021-08-14T09:36:47</time></trkpt><trkpt lat="55.8177080" lon="49.1536990"><time>2021-08-14T09:36:48</time></trkpt><trkpt lat="55.8177180" lon="49.1537140"><time>2021-08-14T09:36:49</time></trkpt><trkpt lat="55.8177260" lon="49.1537380"><time>2021-08-14T09:36:50</time></trkpt><trkpt lat="55.8177410" lon="49.1537520"><time>2021-08-14T09:36:51</time></trkpt><trkpt lat="55.8177530" lon="49.1537670"><time>2021-08-14T09:36:52</time></trkpt><trkpt lat="55.8177640" lon="49.1537840"><time>2021-08-14T09:36:53</time></trkpt><trkpt lat="55.8177740" lon="49.1538030"><time>2021-08-14T09:36:54</time></trkpt><trkpt lat="55.8177870" lon="49.1538190"><time>2021-08-14T09:36:55</time></trkpt><trkpt lat="55.8178000" lon="49.1538340"><time>2021-08-14T09:36:56</time></trkpt><trkpt lat="55.8178130" lon="49.1538480"><time>2021-08-14T09:36:57</time></trkpt><trkpt lat="55.8178250" lon="49.1538650"><time>2021-08-14T09:36:58</time></trkpt><trkpt lat="55.8178330" lon="49.1538900"><time>2021-08-14T09:36:59</time></trkpt><trkpt lat="55.8178400" lon="49.1539090"><time>2021-08-14T09:37:00</time></trkpt><trkpt lat="55.8178530" lon="49.1539240"><time>2021-08-14T09:37:01</time></trkpt><trkpt lat="55.8178620" lon="49.1539440"><time>2021-08-14T09:37:02</time></trkpt><trkpt lat="55.8178720" lon="49.1539630"><time>2021-08-14T09:37:03</time></trkpt><trkpt lat="55.8178830" lon="49.1539830"><time>2021-08-14T09:37:04</time></trkpt><trkpt lat="55.8178950" lon="49.1540050"><time>2021-08-14T09:37:05</time></trkpt><trkpt lat="55.8179020" lon="49.1540250"><time>2021-08-14T09:37:06</time></trkpt><trkpt lat="55.8179130" lon="49.1540430"><time>2021-08-14T09:37:07</time></trkpt><trkpt lat="55.8179200" lon="49.1540640"><time>2021-08-14T09:37:08</time></trkpt><trkpt lat="55.8179310" lon="49.1540820"><time>2021-08-14T09:37:09</time></trkpt><trkpt lat="55.8179380" lon="49.1541040"><time>2021-08-14T09:37:10</time></trkpt><trkpt lat="55.8179500" lon="49.1541250"><time>2021-08-14T09:37:11</time></trkpt><trkpt lat="55.8179610" lon="49.1541440"><time>2021-08-14T09:37:12</time></trkpt><trkpt lat="55.8179700" lon="49.1541690"><time>2021-08-14T09:37:13</time></trkpt><trkpt lat="55.8179690" lon="49.1542000"><time>2021-08-14T09:37:14</time></trkpt><trkpt lat="55.8179700" lon="49.1542270"><time>2021-08-14T09:37:15</time></trkpt><trkpt lat="55.8179700" lon="49.1542570"><time>2021-08-14T09:37:16</time></trkpt><trkpt lat="55.8179640" lon="49.1542830"><time>2021-08-14T09:37:17</time></trkpt><trkpt lat="55.8179640" lon="49.1543100"><time>2021-08-14T09:37:18</time></trkpt><trkpt lat="55.8179730" lon="49.1543310"><time>2021-08-14T09:37:19</time></trkpt><trkpt lat="55.8179850" lon="49.1543550"><time>2021-08-14T09:37:20</time></trkpt><trkpt lat="55.8179920" lon="49.1543760"><time>2021-08-14T09:37:21</time></trkpt><trkpt lat="55.8180010" lon="49.1543990"><time>2021-08-14T09:37:22</time></trkpt><trkpt lat="55.8180040" lon="49.1544250"><time>2021-08-14T09:37:23</time></trkpt><trkpt lat="55.8180040" lon="49.1544500"><time>2021-08-14T09:37:24</time></trkpt><trkpt lat="55.8180010" lon="49.1544700"><time>2021-08-14T09:37:25</time></trkpt><trkpt lat="55.8180090" lon="49.1544900"><time>2021-08-14T09:37:26</time></trkpt><trkpt lat="55.8180130" lon="49.1545090"><time>2021-08-14T09:37:27</time></trkpt><trkpt lat="55.8180240" lon="49.1545420"><time>2021-08-14T09:37:28</time></trkpt><trkpt lat="55.8180260" lon="49.1545580"><time>2021-08-14T09:37:29</time></trkpt><trkpt lat="55.8180290" lon="49.1545730"><time>2021-08-14T09:37:30</time></trkpt><trkpt lat="55.8180420" lon="49.1546050"><time>2021-08-14T09:37:31</time></trkpt><trkpt lat="55.8180460" lon="49.1546190"><time>2021-08-14T09:37:32</time></trkpt><trkpt lat="55.8180500" lon="49.1546320"><time>2021-08-14T09:37:33</time></trkpt><trkpt lat="55.8180560" lon="49.1546490"><time>2021-08-14T09:37:34</time></trkpt><trkpt lat="55.8180610" lon="49.1546690"><time>2021-08-14T09:37:35</time></trkpt><trkpt lat="55.8180670" lon="49.1546890"><time>2021-08-14T09:37:36</time></trkpt><trkpt lat="55.8180730" lon="49.1547100"><time>2021-08-14T09:37:37</time></trkpt><trkpt lat="55.8180800" lon="49.1547310"><time>2021-08-14T09:37:38</time></trkpt><trkpt lat="55.8180860" lon="49.1547660"><time>2021-08-14T09:37:39</time></trkpt><trkpt lat="55.8180850" lon="49.1547810"><time>2021-08-14T09:37:40</time></trkpt><trkpt lat="55.8180850" lon="49.1547970"><time>2021-08-14T09:37:41</time></trkpt><trkpt lat="55.8180760" lon="49.1548200"><time>2021-08-14T09:37:42</time></trkpt><trkpt lat="55.8180710" lon="49.1548420"><time>2021-08-14T09:37:43</time></trkpt><trkpt lat="55.8180690" lon="49.1548630"><time>2021-08-14T09:37:44</time></trkpt><trkpt lat="55.8180650" lon="49.1548820"><time>2021-08-14T09:37:45</time></trkpt><trkpt lat="55.8180580" lon="49.1549010"><time>2021-08-14T09:37:46</time></trkpt><trkpt lat="55.8180480" lon="49.1549230"><time>2021-08-14T09:37:47</time></trkpt><trkpt lat="55.8180450" lon="49.1549450"><time>2021-08-14T09:37:48</time></trkpt><trkpt lat="55.8180420" lon="49.1549690"><time>2021-08-14T09:37:49</time></trkpt><trkpt lat="55.8180380" lon="49.1549950"><time>2021-08-14T09:37:50</time></trkpt><trkpt lat="55.8180360" lon="49.1550190"><time>2021-08-14T09:37:51</time></trkpt><trkpt lat="55.8180320" lon="49.1550460"><time>2021-08-14T09:37:52</time></trkpt><trkpt lat="55.8180360" lon="49.1550710"><time>2021-08-14T09:37:53</time></trkpt><trkpt lat="55.8180420" lon="49.1550940"><time>2021-08-14T09:37:54</time></trkpt><trkpt lat="55.8180480" lon="49.1551200"><time>2021-08-14T09:37:55</time></trkpt><trkpt lat="55.8180510" lon="49.1551460"><time>2021-08-14T09:37:56</time></trkpt><trkpt lat="55.8180520" lon="49.1551710"><time>2021-08-14T09:37:57</time></trkpt><trkpt lat="55.8180540" lon="49.1551950"><time>2021-08-14T09:37:58</time></trkpt><trkpt lat="55.8180620" lon="49.1552230"><time>2021-08-14T09:37:59</time></trkpt><trkpt lat="55.8180700" lon="49.1552430"><time>2021-08-14T09:38:00</time></trkpt><trkpt lat="55.8180790" lon="49.1552650"><time>2021-08-14T09:38:01</time></trkpt><trkpt lat="55.8180830" lon="49.1552890"><time>2021-08-14T09:38:02</time></trkpt><trkpt lat="55.8180830" lon="49.1553170"><time>2021-08-14T09:38:03</time></trkpt><trkpt lat="55.8180920" lon="49.1553350"><time>2021-08-14T09:38:04</time></trkpt><trkpt lat="55.8180920" lon="49.1553620"><time>2021-08-14T09:38:05</time></trkpt><trkpt lat="55.8180990" lon="49.1553840"><time>2021-08-14T09:38:06</time></trkpt><trkpt lat="55.8181000" lon="49.1554110"><time>2021-08-14T09:38:07</time></trkpt><trkpt lat="55.8181080" lon="49.1554330"><time>2021-08-14T09:38:08</time></trkpt><trkpt lat="55.8181140" lon="49.1554560"><time>2021-08-14T09:38:09</time></trkpt><trkpt lat="55.8181230" lon="49.1554790"><time>2021-08-14T09:38:10</time></trkpt><trkpt lat="55.8181320" lon="49.1555030"><time>2021-08-14T09:38:11</time></trkpt><trkpt lat="55.8181350" lon="49.1555310"><time>2021-08-14T09:38:12</time></trkpt><trkpt lat="55.8181350" lon="49.1555560"><time>2021-08-14T09:38:13</time></trkpt><trkpt lat="55.8181350" lon="49.1555830"><time>2021-08-14T09:38:14</time></trkpt><trkpt lat="55.8181320" lon="49.1556070"><time>2021-08-14T09:38:15</time></trkpt><trkpt lat="55.8181330" lon="49.1556340"><time>2021-08-14T09:38:16</time></trkpt><trkpt lat="55.8181360" lon="49.1556590"><time>2021-08-14T09:38:17</time></trkpt><trkpt lat="55.8181400" lon="49.1556830"><time>2021-08-14T09:38:18</time></trkpt><trkpt lat="55.8181410" lon="49.1557130"><time>2021-08-14T09:38:19</time></trkpt><trkpt lat="55.8181460" lon="49.1557350"><time>2021-08-14T09:38:20</time></trkpt><trkpt lat="55.8181530" lon="49.1557590"><time>2021-08-14T09:38:21</time></trkpt><trkpt lat="55.8181550" lon="49.1558070"><time>2021-08-14T09:38:22</time></trkpt><trkpt lat="55.8181530" lon="49.1558300"><time>2021-08-14T09:38:24</time></trkpt><trkpt lat="55.8181370" lon="49.1558730"><time>2021-08-14T09:38:25</time></trkpt><trkpt lat="55.8181400" lon="49.1558950"><time>2021-08-14T09:38:26</time></trkpt><trkpt lat="55.8181460" lon="49.1559200"><time>2021-08-14T09:38:27</time></trkpt><trkpt lat="55.8181510" lon="49.1559470"><time>2021-08-14T09:38:28</time></trkpt><trkpt lat="55.8181550" lon="49.1559690"><time>2021-08-14T09:38:29</time></trkpt><trkpt lat="55.8181610" lon="49.1559940"><time>2021-08-14T09:38:30</time></trkpt><trkpt lat="55.8181660" lon="49.1560160"><time>2021-08-14T09:38:31</time></trkpt><trkpt lat="55.8181780" lon="49.1560360"><time>2021-08-14T09:38:32</time></trkpt><trkpt lat="55.8181930" lon="49.1560460"><time>2021-08-14T09:38:33</time></trkpt><trkpt lat="55.8182100" lon="49.1560520"><time>2021-08-14T09:38:34</time></trkpt><trkpt lat="55.8182200" lon="49.1560690"><time>2021-08-14T09:38:35</time></trkpt><trkpt lat="55.8182310" lon="49.1560830"><time>2021-08-14T09:38:36</time></trkpt><trkpt lat="55.8182470" lon="49.1560890"><time>2021-08-14T09:38:37</time></trkpt><trkpt lat="55.8182630" lon="49.1560930"><time>2021-08-14T09:38:38</time></trkpt><trkpt lat="55.8182750" lon="49.1561040"><time>2021-08-14T09:38:39</time></trkpt><trkpt lat="55.8182940" lon="49.1560920"><time>2021-08-14T09:38:40</time></trkpt><trkpt lat="55.8183080" lon="49.1560920"><time>2021-08-14T09:38:41</time></trkpt><trkpt lat="55.8183300" lon="49.1560540"><time>2021-08-14T09:38:42</time></trkpt><trkpt lat="55.8183360" lon="49.1560410"><time>2021-08-14T09:38:43</time></trkpt><trkpt lat="55.8183480" lon="49.1560210"><time>2021-08-14T09:38:44</time></trkpt><trkpt lat="55.8183590" lon="49.1560040"><time>2021-08-14T09:38:45</time></trkpt><trkpt lat="55.8183700" lon="49.1559750"><time>2021-08-14T09:38:46</time></trkpt><trkpt lat="55.8183770" lon="49.1559530"><time>2021-08-14T09:38:47</time></trkpt><trkpt lat="55.8183790" lon="49.1559220"><time>2021-08-14T09:38:48</time></trkpt><trkpt lat="55.8183840" lon="49.1558960"><time>2021-08-14T09:38:49</time></trkpt><trkpt lat="55.8183870" lon="49.1558720"><time>2021-08-14T09:38:50</time></trkpt><trkpt lat="55.8183850" lon="49.1558530"><time>2021-08-14T09:38:51</time></trkpt><trkpt lat="55.8183900" lon="49.1558430"><time>2021-08-14T09:38:52</time></trkpt><trkpt lat="55.8183890" lon="49.1558220"><time>2021-08-14T09:38:53</time></trkpt><trkpt lat="55.8183880" lon="49.1557990"><time>2021-08-14T09:38:54</time></trkpt><trkpt lat="55.8183850" lon="49.1557920"><time>2021-08-14T09:38:55</time></trkpt><trkpt lat="55.8183940" lon="49.1557830"><time>2021-08-14T09:38:56</time></trkpt><trkpt lat="55.8183960" lon="49.1557670"><time>2021-08-14T09:38:57</time></trkpt><trkpt lat="55.8184040" lon="49.1557550"><time>2021-08-14T09:38:58</time></trkpt><trkpt lat="55.8184150" lon="49.1557380"><time>2021-08-14T09:38:59</time></trkpt><trkpt lat="55.8184280" lon="49.1557250"><time>2021-08-14T09:39:00</time></trkpt><trkpt lat="55.8184480" lon="49.1557250"><time>2021-08-14T09:39:01</time></trkpt><trkpt lat="55.8184580" lon="49.1557260"><time>2021-08-14T09:39:02</time></trkpt><trkpt lat="55.8184690" lon="49.1557270"><time>2021-08-14T09:39:03</time></trkpt><trkpt lat="55.8184770" lon="49.1557310"><time>2021-08-14T09:39:04</time></trkpt><trkpt lat="55.8184930" lon="49.1557300"><time>2021-08-14T09:39:05</time></trkpt><trkpt lat="55.8185040" lon="49.1557240"><time>2021-08-14T09:39:06</time></trkpt><trkpt lat="55.8185290" lon="49.1557160"><time>2021-08-14T09:39:07</time></trkpt><trkpt lat="55.8185370" lon="49.1557140"><time>2021-08-14T09:39:08</time></trkpt><trkpt lat="55.8185460" lon="49.1557130"><time>2021-08-14T09:39:09</time></trkpt><trkpt lat="55.8185660" lon="49.1557270"><time>2021-08-14T09:39:10</time></trkpt><trkpt lat="55.8185760" lon="49.1557360"><time>2021-08-14T09:39:11</time></trkpt><trkpt lat="55.8185860" lon="49.1557450"><time>2021-08-14T09:39:12</time></trkpt><trkpt lat="55.8185950" lon="49.1557570"><time>2021-08-14T09:39:13</time></trkpt><trkpt lat="55.8186070" lon="49.1557690"><time>2021-08-14T09:39:14</time></trkpt><trkpt lat="55.8186110" lon="49.1557810"><time>2021-08-14T09:39:15</time></trkpt><trkpt lat="55.8186150" lon="49.1558160"><time>2021-08-14T09:39:16</time></trkpt><trkpt lat="55.8186160" lon="49.1558320"><time>2021-08-14T09:39:17</time></trkpt><trkpt lat="55.8186160" lon="49.1558490"><time>2021-08-14T09:39:18</time></trkpt><trkpt lat="55.8186140" lon="49.1558840"><time>2021-08-14T09:39:19</time></trkpt><trkpt lat="55.8186120" lon="49.1559010"><time>2021-08-14T09:39:20</time></trkpt><trkpt lat="55.8186110" lon="49.1559170"><time>2021-08-14T09:39:21</time></trkpt><trkpt lat="55.8186140" lon="49.1559430"><time>2021-08-14T09:39:22</time></trkpt><trkpt lat="55.8186110" lon="49.1559670"><time>2021-08-14T09:39:23</time></trkpt><trkpt lat="55.8186070" lon="49.1560050"><time>2021-08-14T09:39:24</time></trkpt><trkpt lat="55.8186060" lon="49.1560220"><time>2021-08-14T09:39:25</time></trkpt><trkpt lat="55.8186040" lon="49.1560400"><time>2021-08-14T09:39:26</time></trkpt><trkpt lat="55.8186050" lon="49.1560650"><time>2021-08-14T09:39:27</time></trkpt><trkpt lat="55.8185980" lon="49.1560890"><time>2021-08-14T09:39:28</time></trkpt><trkpt lat="55.8185960" lon="49.1561150"><time>2021-08-14T09:39:29</time></trkpt><trkpt lat="55.8185930" lon="49.1561370"><time>2021-08-14T09:39:30</time></trkpt><trkpt lat="55.8185950" lon="49.1561640"><time>2021-08-14T09:39:31</time></trkpt><trkpt lat="55.8185920" lon="49.1561910"><time>2021-08-14T09:39:32</time></trkpt><trkpt lat="55.8185880" lon="49.1562150"><time>2021-08-14T09:39:33</time></trkpt><trkpt lat="55.8185880" lon="49.1562400"><time>2021-08-14T09:39:34</time></trkpt><trkpt lat="55.8185890" lon="49.1562630"><time>2021-08-14T09:39:36</time></trkpt><trkpt lat="55.8185880" lon="49.1563150"><time>2021-08-14T09:39:37</time></trkpt><trkpt lat="55.8185880" lon="49.1563400"><time>2021-08-14T09:39:38</time></trkpt><trkpt lat="55.8185880" lon="49.1563770"><time>2021-08-14T09:39:39</time></trkpt><trkpt lat="55.8185860" lon="49.1563930"><time>2021-08-14T09:39:41</time></trkpt><trkpt lat="55.8185850" lon="49.1564090"><time>2021-08-14T09:39:42</time></trkpt><trkpt lat="55.8185840" lon="49.1564470"><time>2021-08-14T09:39:43</time></trkpt><trkpt lat="55.8185840" lon="49.1564630"><time>2021-08-14T09:39:44</time></trkpt><trkpt lat="55.8185840" lon="49.1564790"><time>2021-08-14T09:39:45</time></trkpt><trkpt lat="55.8185840" lon="49.1565310"><time>2021-08-14T09:39:46</time></trkpt><trkpt lat="55.8185790" lon="49.1565710"><time>2021-08-14T09:39:47</time></trkpt><trkpt lat="55.8185760" lon="49.1565870"><time>2021-08-14T09:39:48</time></trkpt><trkpt lat="55.8185730" lon="49.1566020"><time>2021-08-14T09:39:49</time></trkpt><trkpt lat="55.8185740" lon="49.1566720"><time>2021-08-14T09:39:51</time></trkpt><trkpt lat="55.8185740" lon="49.1566910"><time>2021-08-14T09:39:52</time></trkpt><trkpt lat="55.8185750" lon="49.1567100"><time>2021-08-14T09:39:54</time></trkpt><trkpt lat="55.8185750" lon="49.1567290"><time>2021-08-14T09:39:55</time></trkpt><trkpt lat="55.8185760" lon="49.1567480"><time>2021-08-14T09:39:56</time></trkpt><trkpt lat="55.8185760" lon="49.1567670"><time>2021-08-14T09:39:57</time></trkpt><trkpt lat="55.8185740" lon="49.1567900"><time>2021-08-14T09:39:58</time></trkpt><trkpt lat="55.8185700" lon="49.1568140"><time>2021-08-14T09:39:59</time></trkpt><trkpt lat="55.8185720" lon="49.1568400"><time>2021-08-14T09:40:00</time></trkpt><trkpt lat="55.8185730" lon="49.1568650"><time>2021-08-14T09:40:01</time></trkpt><trkpt lat="55.8185720" lon="49.1568920"><time>2021-08-14T09:40:02</time></trkpt><trkpt lat="55.8185740" lon="49.1569190"><time>2021-08-14T09:40:03</time></trkpt><trkpt lat="55.8185730" lon="49.1569440"><time>2021-08-14T09:40:04</time></trkpt><trkpt lat="55.8185690" lon="49.1569710"><time>2021-08-14T09:40:05</time></trkpt><trkpt lat="55.8185690" lon="49.1569890"><time>2021-08-14T09:40:06</time></trkpt><trkpt lat="55.8185690" lon="49.1569920"><time>2021-08-14T09:40:07</time></trkpt><trkpt lat="55.8185690" lon="49.1569940"><time>2021-08-14T09:40:08</time></trkpt><trkpt lat="55.8185700" lon="49.1569960"><time>2021-08-14T09:40:09</time></trkpt><trkpt lat="55.8185700" lon="49.1569990"><time>2021-08-14T09:40:10</time></trkpt><trkpt lat="55.8185700" lon="49.1570010"><time>2021-08-14T09:40:11</time></trkpt><trkpt lat="55.8185700" lon="49.1570030"><time>2021-08-14T09:40:12</time></trkpt><trkpt lat="55.8185700" lon="49.1570060"><time>2021-08-14T09:40:13</time></trkpt><trkpt lat="55.8185700" lon="49.1570080"><time>2021-08-14T09:40:14</time></trkpt><trkpt lat="55.8185700" lon="49.1570100"><time>2021-08-14T09:40:15</time></trkpt><trkpt lat="55.8185700" lon="49.1570130"><time>2021-08-14T09:40:16</time></trkpt><trkpt lat="55.8185710" lon="49.1570150"><time>2021-08-14T09:40:17</time></trkpt><trkpt lat="55.8185710" lon="49.1570180"><time>2021-08-14T09:40:18</time></trkpt><trkpt lat="55.8185710" lon="49.1570200"><time>2021-08-14T09:40:19</time></trkpt><trkpt lat="55.8185710" lon="49.1570220"><time>2021-08-14T09:40:20</time></trkpt><trkpt lat="55.8185710" lon="49.1570250"><time>2021-08-14T09:40:21</time></trkpt><trkpt lat="55.8185710" lon="49.1570270"><time>2021-08-14T09:40:22</time></trkpt><trkpt lat="55.8185710" lon="49.1570290"><time>2021-08-14T09:40:23</time></trkpt><trkpt lat="55.8185710" lon="49.1570320"><time>2021-08-14T09:40:24</time></trkpt><trkpt lat="55.8185720" lon="49.1570340"><time>2021-08-14T09:40:25</time></trkpt><trkpt lat="55.8185720" lon="49.1570360"><time>2021-08-14T09:40:26</time></trkpt><trkpt lat="55.8185720" lon="49.1570390"><time>2021-08-14T09:40:27</time></trkpt><trkpt lat="55.8185720" lon="49.1570410"><time>2021-08-14T09:40:28</time></trkpt><trkpt lat="55.8185720" lon="49.1570780"><time>2021-08-14T09:40:29</time></trkpt><trkpt lat="55.8185710" lon="49.1570920"><time>2021-08-14T09:40:30</time></trkpt><trkpt lat="55.8185710" lon="49.1571070"><time>2021-08-14T09:40:31</time></trkpt><trkpt lat="55.8185720" lon="49.1571490"><time>2021-08-14T09:40:32</time></trkpt><trkpt lat="55.8185720" lon="49.1571660"><time>2021-08-14T09:40:33</time></trkpt><trkpt lat="55.8185730" lon="49.1571840"><time>2021-08-14T09:40:34</time></trkpt><trkpt lat="55.8185720" lon="49.1572030"><time>2021-08-14T09:40:35</time></trkpt><trkpt lat="55.8185730" lon="49.1572090"><time>2021-08-14T09:40:36</time></trkpt><trkpt lat="55.8185720" lon="49.1572170"><time>2021-08-14T09:40:37</time></trkpt><trkpt lat="55.8185710" lon="49.1572360"><time>2021-08-14T09:40:38</time></trkpt><trkpt lat="55.8185750" lon="49.1572430"><time>2021-08-14T09:40:39</time></trkpt><trkpt lat="55.8185760" lon="49.1572400"><time>2021-08-14T09:40:40</time></trkpt><trkpt lat="55.8185760" lon="49.1572400"><time>2021-08-14T09:40:41</time></trkpt><trkpt lat="55.8185760" lon="49.1572400"><time>2021-08-14T09:40:42</time></trkpt><trkpt lat="55.8185760" lon="49.1572400"><time>2021-08-14T09:40:43</time></trkpt><trkpt lat="55.8185760" lon="49.1572400"><time>2021-08-14T09:40:44</time></trkpt><trkpt lat="55.8185760" lon="49.1572400"><time>2021-08-14T09:40:45</time></trkpt><trkpt lat="55.8185690" lon="49.1572460"><time>2021-08-14T09:40:46</time></trkpt><trkpt lat="55.8185650" lon="49.1572600"><time>2021-08-14T09:40:47</time></trkpt><trkpt lat="55.8185670" lon="49.1572680"><time>2021-08-14T09:40:48</time></trkpt><trkpt lat="55.8185640" lon="49.1572880"><time>2021-08-14T09:40:49</time></trkpt><trkpt lat="55.8185660" lon="49.1573040"><time>2021-08-14T09:40:50</time></trkpt><trkpt lat="55.8185670" lon="49.1573090"><time>2021-08-14T09:40:51</time></trkpt><trkpt lat="55.8185670" lon="49.1573150"><time>2021-08-14T09:40:52</time></trkpt><trkpt lat="55.8185670" lon="49.1573200"><time>2021-08-14T09:40:53</time></trkpt><trkpt lat="55.8185670" lon="49.1573260"><time>2021-08-14T09:40:54</time></trkpt><trkpt lat="55.8185680" lon="49.1573310"><time>2021-08-14T09:40:55</time></trkpt><trkpt lat="55.8185680" lon="49.1573370"><time>2021-08-14T09:40:56</time></trkpt><trkpt lat="55.8185680" lon="49.1573420"><time>2021-08-14T09:40:57</time></trkpt><trkpt lat="55.8185680" lon="49.1573480"><time>2021-08-14T09:40:58</time></trkpt><trkpt lat="55.8185690" lon="49.1573530"><time>2021-08-14T09:40:59</time></trkpt><trkpt lat="55.8185690" lon="49.1573590"><time>2021-08-14T09:41:00</time></trkpt><trkpt lat="55.8185710" lon="49.1573880"><time>2021-08-14T09:41:01</time></trkpt><trkpt lat="55.8185710" lon="49.1574110"><time>2021-08-14T09:41:02</time></trkpt><trkpt lat="55.8185750" lon="49.1574400"><time>2021-08-14T09:41:03</time></trkpt><trkpt lat="55.8185700" lon="49.1574620"><time>2021-08-14T09:41:04</time></trkpt><trkpt lat="55.8185680" lon="49.1574860"><time>2021-08-14T09:41:05</time></trkpt><trkpt lat="55.8185650" lon="49.1575090"><time>2021-08-14T09:41:06</time></trkpt><trkpt lat="55.8185640" lon="49.1575390"><time>2021-08-14T09:41:07</time></trkpt><trkpt lat="55.8185670" lon="49.1575600"><time>2021-08-14T09:41:08</time></trkpt><trkpt lat="55.8185670" lon="49.1575840"><time>2021-08-14T09:41:09</time></trkpt><trkpt lat="55.8185700" lon="49.1576120"><time>2021-08-14T09:41:10</time></trkpt><trkpt lat="55.8185730" lon="49.1576660"><time>2021-08-14T09:41:11</time></trkpt><trkpt lat="55.8185740" lon="49.1576780"><time>2021-08-14T09:41:12</time></trkpt><trkpt lat="55.8185700" lon="49.1577150"><time>2021-08-14T09:41:13</time></trkpt><trkpt lat="55.8185700" lon="49.1577320"><time>2021-08-14T09:41:14</time></trkpt><trkpt lat="55.8185690" lon="49.1577500"><time>2021-08-14T09:41:15</time></trkpt><trkpt lat="55.8185700" lon="49.1577790"><time>2021-08-14T09:41:16</time></trkpt><trkpt lat="55.8185710" lon="49.1578050"><time>2021-08-14T09:41:17</time></trkpt><trkpt lat="55.8185700" lon="49.1578320"><time>2021-08-14T09:41:18</time></trkpt><trkpt lat="55.8185680" lon="49.1578570"><time>2021-08-14T09:41:19</time></trkpt><trkpt lat="55.8185690" lon="49.1578970"><time>2021-08-14T09:41:20</time></trkpt><trkpt lat="55.8185690" lon="49.1579120"><time>2021-08-14T09:41:21</time></trkpt><trkpt lat="55.8185700" lon="49.1579270"><time>2021-08-14T09:41:22</time></trkpt><trkpt lat="55.8185680" lon="49.1579550"><time>2021-08-14T09:41:23</time></trkpt><trkpt lat="55.8185720" lon="49.1579810"><time>2021-08-14T09:41:24</time></trkpt><trkpt lat="55.8185720" lon="49.1580100"><time>2021-08-14T09:41:25</time></trkpt><trkpt lat="55.8185720" lon="49.1580350"><time>2021-08-14T09:41:26</time></trkpt><trkpt lat="55.8185750" lon="49.1580600"><time>2021-08-14T09:41:27</time></trkpt><trkpt lat="55.8185730" lon="49.1580890"><time>2021-08-14T09:41:28</time></trkpt><trkpt lat="55.8185720" lon="49.1581150"><time>2021-08-14T09:41:29</time></trkpt><trkpt lat="55.8185720" lon="49.1581370"><time>2021-08-14T09:41:30</time></trkpt><trkpt lat="55.8185700" lon="49.1581570"><time>2021-08-14T09:41:31</time></trkpt><trkpt lat="55.8185680" lon="49.1581900"><time>2021-08-14T09:41:32</time></trkpt><trkpt lat="55.8185680" lon="49.1582300"><time>2021-08-14T09:41:33</time></trkpt><trkpt lat="55.8185670" lon="49.1582460"><time>2021-08-14T09:41:34</time></trkpt><trkpt lat="55.8185670" lon="49.1582610"><time>2021-08-14T09:41:35</time></trkpt><trkpt lat="55.8185670" lon="49.1582990"><time>2021-08-14T09:41:36</time></trkpt><trkpt lat="55.8185670" lon="49.1583150"><time>2021-08-14T09:41:37</time></trkpt><trkpt lat="55.8185680" lon="49.1583300"><time>2021-08-14T09:41:38</time></trkpt><trkpt lat="55.8185670" lon="49.1583590"><time>2021-08-14T09:41:39</time></trkpt><trkpt lat="55.8185700" lon="49.1583850"><time>2021-08-14T09:41:40</time></trkpt><trkpt lat="55.8185710" lon="49.1584110"><time>2021-08-14T09:41:41</time></trkpt><trkpt lat="55.8185670" lon="49.1584350"><time>2021-08-14T09:41:42</time></trkpt><trkpt lat="55.8185630" lon="49.1584620"><time>2021-08-14T09:41:43</time></trkpt><trkpt lat="55.8185620" lon="49.1584880"><time>2021-08-14T09:41:44</time></trkpt><trkpt lat="55.8185640" lon="49.1585140"><time>2021-08-14T09:41:45</time></trkpt><trkpt lat="55.8185660" lon="49.1585400"><time>2021-08-14T09:41:46</time></trkpt><trkpt lat="55.8185670" lon="49.1585660"><time>2021-08-14T09:41:47</time></trkpt><trkpt lat="55.8185690" lon="49.1585920"><time>2021-08-14T09:41:48</time></trkpt><trkpt lat="55.8185680" lon="49.1586160"><time>2021-08-14T09:41:49</time></trkpt><trkpt lat="55.8185690" lon="49.1586420"><time>2021-08-14T09:41:50</time></trkpt><trkpt lat="55.8185690" lon="49.1586680"><time>2021-08-14T09:41:51</time></trkpt><trkpt lat="55.8185670" lon="49.1586950"><time>2021-08-14T09:41:52</time></trkpt><trkpt lat="55.8185660" lon="49.1587190"><time>2021-08-14T09:41:53</time></trkpt><trkpt lat="55.8185660" lon="49.1587460"><time>2021-08-14T09:41:54</time></trkpt><trkpt lat="55.8185660" lon="49.1587740"><time>2021-08-14T09:41:55</time></trkpt><trkpt lat="55.8185680" lon="49.1587980"><time>2021-08-14T09:41:56</time></trkpt><trkpt lat="55.8185680" lon="49.1588380"><time>2021-08-14T09:41:57</time></trkpt><trkpt lat="55.8185690" lon="49.1588530"><time>2021-08-14T09:41:58</time></trkpt><trkpt lat="55.8185700" lon="49.1588690"><time>2021-08-14T09:41:59</time></trkpt><trkpt lat="55.8185700" lon="49.1588960"><time>2021-08-14T09:42:00</time></trkpt><trkpt lat="55.8185680" lon="49.1589230"><time>2021-08-14T09:42:01</time></trkpt><trkpt lat="55.8185720" lon="49.1589480"><time>2021-08-14T09:42:02</time></trkpt><trkpt lat="55.8185740" lon="49.1589700"><time>2021-08-14T09:42:03</time></trkpt><trkpt lat="55.8185730" lon="49.1590000"><time>2021-08-14T09:42:04</time></trkpt><trkpt lat="55.8185690" lon="49.1590260"><time>2021-08-14T09:42:05</time></trkpt><trkpt lat="55.8185680" lon="49.1590500"><time>2021-08-14T09:42:06</time></trkpt><trkpt lat="55.8185660" lon="49.1590740"><time>2021-08-14T09:42:07</time></trkpt><trkpt lat="55.8185660" lon="49.1590990"><time>2021-08-14T09:42:08</time></trkpt><trkpt lat="55.8185620" lon="49.1591280"><time>2021-08-14T09:42:09</time></trkpt><trkpt lat="55.8185670" lon="49.1591520"><time>2021-08-14T09:42:10</time></trkpt><trkpt lat="55.8185710" lon="49.1591790"><time>2021-08-14T09:42:11</time></trkpt><trkpt lat="55.8185700" lon="49.1592080"><time>2021-08-14T09:42:12</time></trkpt><trkpt lat="55.8185690" lon="49.1592340"><time>2021-08-14T09:42:13</time></trkpt><trkpt lat="55.8185720" lon="49.1592600"><time>2021-08-14T09:42:14</time></trkpt><trkpt lat="55.8185710" lon="49.1592860"><time>2021-08-14T09:42:15</time></trkpt><trkpt lat="55.8185750" lon="49.1593100"><time>2021-08-14T09:42:16</time></trkpt><trkpt lat="55.8185770" lon="49.1593360"><time>2021-08-14T09:42:17</time></trkpt><trkpt lat="55.8185710" lon="49.1593660"><time>2021-08-14T09:42:18</time></trkpt><trkpt lat="55.8185700" lon="49.1593910"><time>2021-08-14T09:42:19</time></trkpt><trkpt lat="55.8185740" lon="49.1594180"><time>2021-08-14T09:42:20</time></trkpt><trkpt lat="55.8185730" lon="49.1594440"><time>2021-08-14T09:42:21</time></trkpt><trkpt lat="55.8185710" lon="49.1594820"><time>2021-08-14T09:42:22</time></trkpt><trkpt lat="55.8185690" lon="49.1594980"><time>2021-08-14T09:42:23</time></trkpt><trkpt lat="55.8185670" lon="49.1595140"><time>2021-08-14T09:42:24</time></trkpt><trkpt lat="55.8185670" lon="49.1595400"><time>2021-08-14T09:42:25</time></trkpt><trkpt lat="55.8185680" lon="49.1595650"><time>2021-08-14T09:42:26</time></trkpt><trkpt lat="55.8185690" lon="49.1595890"><time>2021-08-14T09:42:27</time></trkpt><trkpt lat="55.8185690" lon="49.1596160"><time>2021-08-14T09:42:28</time></trkpt><trkpt lat="55.8185710" lon="49.1596420"><time>2021-08-14T09:42:29</time></trkpt><trkpt lat="55.8185700" lon="49.1596680"><time>2021-08-14T09:42:30</time></trkpt><trkpt lat="55.8185700" lon="49.1596940"><time>2021-08-14T09:42:31</time></trkpt><trkpt lat="55.8185740" lon="49.1597180"><time>2021-08-14T09:42:32</time></trkpt><trkpt lat="55.8185700" lon="49.1597440"><time>2021-08-14T09:42:33</time></trkpt><trkpt lat="55.8185700" lon="49.1597690"><time>2021-08-14T09:42:34</time></trkpt><trkpt lat="55.8185720" lon="49.1597940"><time>2021-08-14T09:42:35</time></trkpt><trkpt lat="55.8185680" lon="49.1598200"><time>2021-08-14T09:42:36</time></trkpt><trkpt lat="55.8185680" lon="49.1598450"><time>2021-08-14T09:42:37</time></trkpt><trkpt lat="55.8185660" lon="49.1598700"><time>2021-08-14T09:42:38</time></trkpt><trkpt lat="55.8185650" lon="49.1598940"><time>2021-08-14T09:42:39</time></trkpt><trkpt lat="55.8185670" lon="49.1599180"><time>2021-08-14T09:42:40</time></trkpt><trkpt lat="55.8185700" lon="49.1599420"><time>2021-08-14T09:42:41</time></trkpt><trkpt lat="55.8185670" lon="49.1599670"><time>2021-08-14T09:42:42</time></trkpt><trkpt lat="55.8185680" lon="49.1600050"><time>2021-08-14T09:42:43</time></trkpt><trkpt lat="55.8185700" lon="49.1600200"><time>2021-08-14T09:42:44</time></trkpt><trkpt lat="55.8185710" lon="49.1600360"><time>2021-08-14T09:42:45</time></trkpt><trkpt lat="55.8185690" lon="49.1600600"><time>2021-08-14T09:42:46</time></trkpt><trkpt lat="55.8185690" lon="49.1600850"><time>2021-08-14T09:42:47</time></trkpt><trkpt lat="55.8185660" lon="49.1601130"><time>2021-08-14T09:42:48</time></trkpt><trkpt lat="55.8185660" lon="49.1601380"><time>2021-08-14T09:42:49</time></trkpt><trkpt lat="55.8185680" lon="49.1601640"><time>2021-08-14T09:42:50</time></trkpt><trkpt lat="55.8185690" lon="49.1601900"><time>2021-08-14T09:42:51</time></trkpt><trkpt lat="55.8185710" lon="49.1602130"><time>2021-08-14T09:42:52</time></trkpt><trkpt lat="55.8185690" lon="49.1602380"><time>2021-08-14T09:42:53</time></trkpt><trkpt lat="55.8185670" lon="49.1602760"><time>2021-08-14T09:42:54</time></trkpt><trkpt lat="55.8185670" lon="49.1602920"><time>2021-08-14T09:42:55</time></trkpt><trkpt lat="55.8185680" lon="49.1603070"><time>2021-08-14T09:42:56</time></trkpt><trkpt lat="55.8185690" lon="49.1603320"><time>2021-08-14T09:42:57</time></trkpt><trkpt lat="55.8185650" lon="49.1603570"><time>2021-08-14T09:42:58</time></trkpt><trkpt lat="55.8185660" lon="49.1603970"><time>2021-08-14T09:42:59</time></trkpt><trkpt lat="55.8185630" lon="49.1604120"><time>2021-08-14T09:43:00</time></trkpt><trkpt lat="55.8185610" lon="49.1604280"><time>2021-08-14T09:43:01</time></trkpt><trkpt lat="55.8185620" lon="49.1604510"><time>2021-08-14T09:43:02</time></trkpt><trkpt lat="55.8185630" lon="49.1604760"><time>2021-08-14T09:43:03</time></trkpt><trkpt lat="55.8185640" lon="49.1604990"><time>2021-08-14T09:43:04</time></trkpt><trkpt lat="55.8185640" lon="49.1605250"><time>2021-08-14T09:43:05</time></trkpt><trkpt lat="55.8185630" lon="49.1605500"><time>2021-08-14T09:43:06</time></trkpt><trkpt lat="55.8185650" lon="49.1605770"><time>2021-08-14T09:43:07</time></trkpt><trkpt lat="55.8185640" lon="49.1606160"><time>2021-08-14T09:43:08</time></trkpt><trkpt lat="55.8185630" lon="49.1606320"><time>2021-08-14T09:43:09</time></trkpt><trkpt lat="55.8185630" lon="49.1606470"><time>2021-08-14T09:43:10</time></trkpt><trkpt lat="55.8185650" lon="49.1606720"><time>2021-08-14T09:43:11</time></trkpt><trkpt lat="55.8185630" lon="49.1606970"><time>2021-08-14T09:43:12</time></trkpt><trkpt lat="55.8185620" lon="49.1607350"><time>2021-08-14T09:43:13</time></trkpt><trkpt lat="55.8185620" lon="49.1607520"><time>2021-08-14T09:43:14</time></trkpt><trkpt lat="55.8185620" lon="49.1607680"><time>2021-08-14T09:43:15</time></trkpt><trkpt lat="55.8185650" lon="49.1607930"><time>2021-08-14T09:43:16</time></trkpt><trkpt lat="55.8185640" lon="49.1608180"><time>2021-08-14T09:43:17</time></trkpt><trkpt lat="55.8185630" lon="49.1608440"><time>2021-08-14T09:43:18</time></trkpt><trkpt lat="55.8185660" lon="49.1608700"><time>2021-08-14T09:43:19</time></trkpt><trkpt lat="55.8185640" lon="49.1608980"><time>2021-08-14T09:43:20</time></trkpt><trkpt lat="55.8185640" lon="49.1609220"><time>2021-08-14T09:43:21</time></trkpt><trkpt lat="55.8185620" lon="49.1609490"><time>2021-08-14T09:43:22</time></trkpt><trkpt lat="55.8185630" lon="49.1609770"><time>2021-08-14T09:43:23</time></trkpt><trkpt lat="55.8185640" lon="49.1610000"><time>2021-08-14T09:43:24</time></trkpt><trkpt lat="55.8185670" lon="49.1610280"><time>2021-08-14T09:43:25</time></trkpt><trkpt lat="55.8185690" lon="49.1610530"><time>2021-08-14T09:43:26</time></trkpt><trkpt lat="55.8185690" lon="49.1610820"><time>2021-08-14T09:43:27</time></trkpt><trkpt lat="55.8185700" lon="49.1611070"><time>2021-08-14T09:43:28</time></trkpt><trkpt lat="55.8185700" lon="49.1611330"><time>2021-08-14T09:43:29</time></trkpt><trkpt lat="55.8185720" lon="49.1611730"><time>2021-08-14T09:43:30</time></trkpt><trkpt lat="55.8185710" lon="49.1611890"><time>2021-08-14T09:43:31</time></trkpt><trkpt lat="55.8185710" lon="49.1612060"><time>2021-08-14T09:43:32</time></trkpt><trkpt lat="55.8185700" lon="49.1612300"><time>2021-08-14T09:43:33</time></trkpt><trkpt lat="55.8185730" lon="49.1612540"><time>2021-08-14T09:43:34</time></trkpt><trkpt lat="55.8185730" lon="49.1612790"><time>2021-08-14T09:43:35</time></trkpt><trkpt lat="55.8185740" lon="49.1613030"><time>2021-08-14T09:43:36</time></trkpt><trkpt lat="55.8185760" lon="49.1613280"><time>2021-08-14T09:43:37</time></trkpt><trkpt lat="55.8185780" lon="49.1613520"><time>2021-08-14T09:43:38</time></trkpt><trkpt lat="55.8185810" lon="49.1613890"><time>2021-08-14T09:43:39</time></trkpt><trkpt lat="55.8185810" lon="49.1614050"><time>2021-08-14T09:43:40</time></trkpt><trkpt lat="55.8185820" lon="49.1614210"><time>2021-08-14T09:43:41</time></trkpt><trkpt lat="55.8185800" lon="49.1614480"><time>2021-08-14T09:43:42</time></trkpt><trkpt lat="55.8185830" lon="49.1614710"><time>2021-08-14T09:43:43</time></trkpt><trkpt lat="55.8185890" lon="49.1614940"><time>2021-08-14T09:43:44</time></trkpt><trkpt lat="55.8185880" lon="49.1615220"><time>2021-08-14T09:43:45</time></trkpt><trkpt lat="55.8185870" lon="49.1615470"><time>2021-08-14T09:43:46</time></trkpt><trkpt lat="55.8185890" lon="49.1615710"><time>2021-08-14T09:43:47</time></trkpt><trkpt lat="55.8185920" lon="49.1615970"><time>2021-08-14T09:43:48</time></trkpt><trkpt lat="55.8185940" lon="49.1616210"><time>2021-08-14T09:43:49</time></trkpt><trkpt lat="55.8185960" lon="49.1616460"><time>2021-08-14T09:43:50</time></trkpt><trkpt lat="55.8186010" lon="49.1616690"><time>2021-08-14T09:43:51</time></trkpt><trkpt lat="55.8186080" lon="49.1616910"><time>2021-08-14T09:43:52</time></trkpt><trkpt lat="55.8186130" lon="49.1617140"><time>2021-08-14T09:43:53</time></trkpt><trkpt lat="55.8186150" lon="49.1617520"><time>2021-08-14T09:43:54</time></trkpt><trkpt lat="55.8186160" lon="49.1617690"><time>2021-08-14T09:43:55</time></trkpt><trkpt lat="55.8186170" lon="49.1617850"><time>2021-08-14T09:43:56</time></trkpt><trkpt lat="55.8186200" lon="49.1618080"><time>2021-08-14T09:43:57</time></trkpt><trkpt lat="55.8186190" lon="49.1618270"><time>2021-08-14T09:43:58</time></trkpt><trkpt lat="55.8186130" lon="49.1618360"><time>2021-08-14T09:43:59</time></trkpt><trkpt lat="55.8186130" lon="49.1618260"><time>2021-08-14T09:44:00</time></trkpt><trkpt lat="55.8186130" lon="49.1618260"><time>2021-08-14T09:44:01</time></trkpt><trkpt lat="55.8186130" lon="49.1618260"><time>2021-08-14T09:44:02</time></trkpt><trkpt lat="55.8186100" lon="49.1618020"><time>2021-08-14T09:44:03</time></trkpt><trkpt lat="55.8186100" lon="49.1617970"><time>2021-08-14T09:44:04</time></trkpt><trkpt lat="55.8186130" lon="49.1617900"><time>2021-08-14T09:44:05</time></trkpt><trkpt lat="55.8186150" lon="49.1617900"><time>2021-08-14T09:44:06</time></trkpt><trkpt lat="55.8186240" lon="49.1618100"><time>2021-08-14T09:44:07</time></trkpt><trkpt lat="55.8186280" lon="49.1618370"><time>2021-08-14T09:44:08</time></trkpt><trkpt lat="55.8186320" lon="49.1618570"><time>2021-08-14T09:44:09</time></trkpt><trkpt lat="55.8186370" lon="49.1618760"><time>2021-08-14T09:44:10</time></trkpt><trkpt lat="55.8186390" lon="49.1619010"><time>2021-08-14T09:44:11</time></trkpt><trkpt lat="55.8186430" lon="49.1619290"><time>2021-08-14T09:44:12</time></trkpt><trkpt lat="55.8186490" lon="49.1619700"><time>2021-08-14T09:44:13</time></trkpt><trkpt lat="55.8186520" lon="49.1619830"><time>2021-08-14T09:44:14</time></trkpt><trkpt lat="55.8186550" lon="49.1619970"><time>2021-08-14T09:44:15</time></trkpt><trkpt lat="55.8186580" lon="49.1620330"><time>2021-08-14T09:44:16</time></trkpt><trkpt lat="55.8186600" lon="49.1620510"><time>2021-08-14T09:44:17</time></trkpt><trkpt lat="55.8186620" lon="49.1620680"><time>2021-08-14T09:44:18</time></trkpt><trkpt lat="55.8186680" lon="49.1620890"><time>2021-08-14T09:44:19</time></trkpt><trkpt lat="55.8186750" lon="49.1621120"><time>2021-08-14T09:44:20</time></trkpt><trkpt lat="55.8186800" lon="49.1621390"><time>2021-08-14T09:44:21</time></trkpt><trkpt lat="55.8186830" lon="49.1621630"><time>2021-08-14T09:44:22</time></trkpt><trkpt lat="55.8186850" lon="49.1621900"><time>2021-08-14T09:44:23</time></trkpt><trkpt lat="55.8186830" lon="49.1622140"><time>2021-08-14T09:44:24</time></trkpt><trkpt lat="55.8186890" lon="49.1622400"><time>2021-08-14T09:44:25</time></trkpt><trkpt lat="55.8186940" lon="49.1622640"><time>2021-08-14T09:44:26</time></trkpt><trkpt lat="55.8186950" lon="49.1622890"><time>2021-08-14T09:44:27</time></trkpt><trkpt lat="55.8187020" lon="49.1623130"><time>2021-08-14T09:44:28</time></trkpt><trkpt lat="55.8187080" lon="49.1623380"><time>2021-08-14T09:44:29</time></trkpt><trkpt lat="55.8187130" lon="49.1623610"><time>2021-08-14T09:44:30</time></trkpt><trkpt lat="55.8187200" lon="49.1623980"><time>2021-08-14T09:44:31</time></trkpt><trkpt lat="55.8187230" lon="49.1624140"><time>2021-08-14T09:44:32</time></trkpt><trkpt lat="55.8187270" lon="49.1624290"><time>2021-08-14T09:44:33</time></trkpt><trkpt lat="55.8187320" lon="49.1624510"><time>2021-08-14T09:44:34</time></trkpt><trkpt lat="55.8187370" lon="49.1624750"><time>2021-08-14T09:44:35</time></trkpt><trkpt lat="55.8187420" lon="49.1624970"><time>2021-08-14T09:44:36</time></trkpt><trkpt lat="55.8187480" lon="49.1625190"><time>2021-08-14T09:44:37</time></trkpt><trkpt lat="55.8187540" lon="49.1625420"><time>2021-08-14T09:44:38</time></trkpt><trkpt lat="55.8187600" lon="49.1625630"><time>2021-08-14T09:44:39</time></trkpt><trkpt lat="55.8187640" lon="49.1625890"><time>2021-08-14T09:44:40</time></trkpt><trkpt lat="55.8187730" lon="49.1626100"><time>2021-08-14T09:44:41</time></trkpt><trkpt lat="55.8187810" lon="49.1626320"><time>2021-08-14T09:44:42</time></trkpt><trkpt lat="55.8187880" lon="49.1626580"><time>2021-08-14T09:44:43</time></trkpt><trkpt lat="55.8187910" lon="49.1626810"><time>2021-08-14T09:44:44</time></trkpt><trkpt lat="55.8187990" lon="49.1627040"><time>2021-08-14T09:44:45</time></trkpt><trkpt lat="55.8188050" lon="49.1627250"><time>2021-08-14T09:44:46</time></trkpt><trkpt lat="55.8188070" lon="49.1627530"><time>2021-08-14T09:44:47</time></trkpt><trkpt lat="55.8188150" lon="49.1627750"><time>2021-08-14T09:44:48</time></trkpt><trkpt lat="55.8188210" lon="49.1628010"><time>2021-08-14T09:44:49</time></trkpt><trkpt lat="55.8188300" lon="49.1628190"><time>2021-08-14T09:44:50</time></trkpt><trkpt lat="55.8188360" lon="49.1628410"><time>2021-08-14T09:44:51</time></trkpt><trkpt lat="55.8188450" lon="49.1628630"><time>2021-08-14T09:44:52</time></trkpt><trkpt lat="55.8188520" lon="49.1628870"><time>2021-08-14T09:44:53</time></trkpt><trkpt lat="55.8188610" lon="49.1629060"><time>2021-08-14T09:44:54</time></trkpt><trkpt lat="55.8188650" lon="49.1629290"><time>2021-08-14T09:44:55</time></trkpt><trkpt lat="55.8188710" lon="49.1629540"><time>2021-08-14T09:44:56</time></trkpt><trkpt lat="55.8188800" lon="49.1629740"><time>2021-08-14T09:44:57</time></trkpt><trkpt lat="55.8188860" lon="49.1629960"><time>2021-08-14T09:44:58</time></trkpt><trkpt lat="55.8188920" lon="49.1630200"><time>2021-08-14T09:44:59</time></trkpt><trkpt lat="55.8188960" lon="49.1630410"><time>2021-08-14T09:45:00</time></trkpt><trkpt lat="55.8189030" lon="49.1630650"><time>2021-08-14T09:45:01</time></trkpt><trkpt lat="55.8189110" lon="49.1630860"><time>2021-08-14T09:45:02</time></trkpt><trkpt lat="55.8189160" lon="49.1631100"><time>2021-08-14T09:45:03</time></trkpt><trkpt lat="55.8189250" lon="49.1631300"><time>2021-08-14T09:45:04</time></trkpt><trkpt lat="55.8189350" lon="49.1631480"><time>2021-08-14T09:45:05</time></trkpt><trkpt lat="55.8189400" lon="49.1631700"><time>2021-08-14T09:45:06</time></trkpt><trkpt lat="55.8189490" lon="49.1631890"><time>2021-08-14T09:45:07</time></trkpt><trkpt lat="55.8189570" lon="49.1632120"><time>2021-08-14T09:45:08</time></trkpt><trkpt lat="55.8189650" lon="49.1632320"><time>2021-08-14T09:45:09</time></trkpt><trkpt lat="55.8189740" lon="49.1632540"><time>2021-08-14T09:45:10</time></trkpt><trkpt lat="55.8189820" lon="49.1632750"><time>2021-08-14T09:45:11</time></trkpt><trkpt lat="55.8189900" lon="49.1632930"><time>2021-08-14T09:45:12</time></trkpt><trkpt lat="55.8190000" lon="49.1633120"><time>2021-08-14T09:45:13</time></trkpt><trkpt lat="55.8190060" lon="49.1633320"><time>2021-08-14T09:45:14</time></trkpt><trkpt lat="55.8190140" lon="49.1633540"><time>2021-08-14T09:45:15</time></trkpt><trkpt lat="55.8190200" lon="49.1633780"><time>2021-08-14T09:45:16</time></trkpt><trkpt lat="55.8190290" lon="49.1633990"><time>2021-08-14T09:45:17</time></trkpt><trkpt lat="55.8190390" lon="49.1634350"><time>2021-08-14T09:45:18</time></trkpt><trkpt lat="55.8190420" lon="49.1634500"><time>2021-08-14T09:45:19</time></trkpt><trkpt lat="55.8190460" lon="49.1634650"><time>2021-08-14T09:45:20</time></trkpt><trkpt lat="55.8190550" lon="49.1634860"><time>2021-08-14T09:45:21</time></trkpt><trkpt lat="55.8190630" lon="49.1635060"><time>2021-08-14T09:45:22</time></trkpt><trkpt lat="55.8190720" lon="49.1635260"><time>2021-08-14T09:45:23</time></trkpt><trkpt lat="55.8190820" lon="49.1635460"><time>2021-08-14T09:45:24</time></trkpt><trkpt lat="55.8190950" lon="49.1635600"><time>2021-08-14T09:45:25</time></trkpt><trkpt lat="55.8191100" lon="49.1635720"><time>2021-08-14T09:45:26</time></trkpt><trkpt lat="55.8191170" lon="49.1635940"><time>2021-08-14T09:45:27</time></trkpt><trkpt lat="55.8191250" lon="49.1636180"><time>2021-08-14T09:45:28</time></trkpt><trkpt lat="55.8191320" lon="49.1636380"><time>2021-08-14T09:45:29</time></trkpt><trkpt lat="55.8191430" lon="49.1636580"><time>2021-08-14T09:45:30</time></trkpt><trkpt lat="55.8191520" lon="49.1636800"><time>2021-08-14T09:45:31</time></trkpt><trkpt lat="55.8191610" lon="49.1636980"><time>2021-08-14T09:45:32</time></trkpt><trkpt lat="55.8191710" lon="49.1637170"><time>2021-08-14T09:45:33</time></trkpt><trkpt lat="55.8191820" lon="49.1637370"><time>2021-08-14T09:45:34</time></trkpt><trkpt lat="55.8191910" lon="49.1637550"><time>2021-08-14T09:45:35</time></trkpt><trkpt lat="55.8191990" lon="49.1637750"><time>2021-08-14T09:45:36</time></trkpt><trkpt lat="55.8192060" lon="49.1637970"><time>2021-08-14T09:45:37</time></trkpt><trkpt lat="55.8192190" lon="49.1638150"><time>2021-08-14T09:45:38</time></trkpt><trkpt lat="55.8192300" lon="49.1638340"><time>2021-08-14T09:45:39</time></trkpt><trkpt lat="55.8192380" lon="49.1638540"><time>2021-08-14T09:45:40</time></trkpt><trkpt lat="55.8192550" lon="49.1638820"><time>2021-08-14T09:45:41</time></trkpt><trkpt lat="55.8192620" lon="49.1638920"><time>2021-08-14T09:45:42</time></trkpt><trkpt lat="55.8192680" lon="49.1639030"><time>2021-08-14T09:45:43</time></trkpt><trkpt lat="55.8192780" lon="49.1639190"><time>2021-08-14T09:45:44</time></trkpt><trkpt lat="55.8192900" lon="49.1639360"><time>2021-08-14T09:45:45</time></trkpt><trkpt lat="55.8193030" lon="49.1639510"><time>2021-08-14T09:45:46</time></trkpt><trkpt lat="55.8193130" lon="49.1639640"><time>2021-08-14T09:45:47</time></trkpt><trkpt lat="55.8193210" lon="49.1639840"><time>2021-08-14T09:45:48</time></trkpt><trkpt lat="55.8193280" lon="49.1640090"><time>2021-08-14T09:45:49</time></trkpt><trkpt lat="55.8193360" lon="49.1640240"><time>2021-08-14T09:45:50</time></trkpt><trkpt lat="55.8193410" lon="49.1640410"><time>2021-08-14T09:45:51</time></trkpt><trkpt lat="55.8193420" lon="49.1640570"><time>2021-08-14T09:45:52</time></trkpt><trkpt lat="55.8193360" lon="49.1640700"><time>2021-08-14T09:45:53</time></trkpt><trkpt lat="55.8193350" lon="49.1640610"><time>2021-08-14T09:45:54</time></trkpt><trkpt lat="55.8193320" lon="49.1640480"><time>2021-08-14T09:45:55</time></trkpt><trkpt lat="55.8193300" lon="49.1640390"><time>2021-08-14T09:45:56</time></trkpt><trkpt lat="55.8193310" lon="49.1640260"><time>2021-08-14T09:45:57</time></trkpt><trkpt lat="55.8193310" lon="49.1640140"><time>2021-08-14T09:45:58</time></trkpt><trkpt lat="55.8193300" lon="49.1640060"><time>2021-08-14T09:45:59</time></trkpt><trkpt lat="55.8193350" lon="49.1640060"><time>2021-08-14T09:46:00</time></trkpt><trkpt lat="55.8193400" lon="49.1640130"><time>2021-08-14T09:46:01</time></trkpt><trkpt lat="55.8193460" lon="49.1640200"><time>2021-08-14T09:46:02</time></trkpt><trkpt lat="55.8193520" lon="49.1640280"><time>2021-08-14T09:46:03</time></trkpt><trkpt lat="55.8193570" lon="49.1640350"><time>2021-08-14T09:46:04</time></trkpt><trkpt lat="55.8193630" lon="49.1640420"><time>2021-08-14T09:46:05</time></trkpt><trkpt lat="55.8193770" lon="49.1640680"><time>2021-08-14T09:46:06</time></trkpt><trkpt lat="55.8193880" lon="49.1640850"><time>2021-08-14T09:46:07</time></trkpt><trkpt lat="55.8194030" lon="49.1641060"><time>2021-08-14T09:46:08</time></trkpt><trkpt lat="55.8194100" lon="49.1641270"><time>2021-08-14T09:46:09</time></trkpt><trkpt lat="55.8194160" lon="49.1641470"><time>2021-08-14T09:46:10</time></trkpt><trkpt lat="55.8194230" lon="49.1641530"><time>2021-08-14T09:46:11</time></trkpt><trkpt lat="55.8194330" lon="49.1641740"><time>2021-08-14T09:46:12</time></trkpt><trkpt lat="55.8194510" lon="49.1641920"><time>2021-08-14T09:46:13</time></trkpt><trkpt lat="55.8194590" lon="49.1641990"><time>2021-08-14T09:46:14</time></trkpt><trkpt lat="55.8194660" lon="49.1642060"><time>2021-08-14T09:46:15</time></trkpt><trkpt lat="55.8194740" lon="49.1642220"><time>2021-08-14T09:46:16</time></trkpt><trkpt lat="55.8194870" lon="49.1642390"><time>2021-08-14T09:46:17</time></trkpt><trkpt lat="55.8194950" lon="49.1642460"><time>2021-08-14T09:46:18</time></trkpt><trkpt lat="55.8195070" lon="49.1642510"><time>2021-08-14T09:46:19</time></trkpt><trkpt lat="55.8195180" lon="49.1642690"><time>2021-08-14T09:46:20</time></trkpt><trkpt lat="55.8195320" lon="49.1642820"><time>2021-08-14T09:46:21</time></trkpt><trkpt lat="55.8195400" lon="49.1642970"><time>2021-08-14T09:46:22</time></trkpt><trkpt lat="55.8195540" lon="49.1643170"><time>2021-08-14T09:46:23</time></trkpt><trkpt lat="55.8195630" lon="49.1643290"><time>2021-08-14T09:46:24</time></trkpt><trkpt lat="55.8195820" lon="49.1643540"><time>2021-08-14T09:46:25</time></trkpt><trkpt lat="55.8195890" lon="49.1643620"><time>2021-08-14T09:46:26</time></trkpt><trkpt lat="55.8195960" lon="49.1643700"><time>2021-08-14T09:46:27</time></trkpt><trkpt lat="55.8196100" lon="49.1643870"><time>2021-08-14T09:46:28</time></trkpt><trkpt lat="55.8196180" lon="49.1644010"><time>2021-08-14T09:46:29</time></trkpt><trkpt lat="55.8196300" lon="49.1644130"><time>2021-08-14T09:46:30</time></trkpt><trkpt lat="55.8196410" lon="49.1644310"><time>2021-08-14T09:46:31</time></trkpt><trkpt lat="55.8196540" lon="49.1644440"><time>2021-08-14T09:46:32</time></trkpt><trkpt lat="55.8196670" lon="49.1644580"><time>2021-08-14T09:46:33</time></trkpt><trkpt lat="55.8196770" lon="49.1644760"><time>2021-08-14T09:46:34</time></trkpt><trkpt lat="55.8196870" lon="49.1644920"><time>2021-08-14T09:46:35</time></trkpt><trkpt lat="55.8197060" lon="49.1645180"><time>2021-08-14T09:46:36</time></trkpt><trkpt lat="55.8197130" lon="49.1645260"><time>2021-08-14T09:46:37</time></trkpt><trkpt lat="55.8197190" lon="49.1645340"><time>2021-08-14T09:46:38</time></trkpt><trkpt lat="55.8197320" lon="49.1645430"><time>2021-08-14T09:46:39</time></trkpt><trkpt lat="55.8197430" lon="49.1645600"><time>2021-08-14T09:46:40</time></trkpt><trkpt lat="55.8197610" lon="49.1645800"><time>2021-08-14T09:46:41</time></trkpt><trkpt lat="55.8197690" lon="49.1645890"><time>2021-08-14T09:46:42</time></trkpt><trkpt lat="55.8197760" lon="49.1645970"><time>2021-08-14T09:46:43</time></trkpt><trkpt lat="55.8197830" lon="49.1645990"><time>2021-08-14T09:46:44</time></trkpt><trkpt lat="55.8197940" lon="49.1646060"><time>2021-08-14T09:46:45</time></trkpt><trkpt lat="55.8198070" lon="49.1646200"><time>2021-08-14T09:46:46</time></trkpt><trkpt lat="55.8198260" lon="49.1646500"><time>2021-08-14T09:46:47</time></trkpt><trkpt lat="55.8198340" lon="49.1646620"><time>2021-08-14T09:46:48</time></trkpt><trkpt lat="55.8198430" lon="49.1646730"><time>2021-08-14T09:46:49</time></trkpt><trkpt lat="55.8198530" lon="49.1646780"><time>2021-08-14T09:46:50</time></trkpt><trkpt lat="55.8198650" lon="49.1646880"><time>2021-08-14T09:46:51</time></trkpt><trkpt lat="55.8198750" lon="49.1646890"><time>2021-08-14T09:46:52</time></trkpt><trkpt lat="55.8198920" lon="49.1647090"><time>2021-08-14T09:46:53</time></trkpt><trkpt lat="55.8198990" lon="49.1647150"><time>2021-08-14T09:46:54</time></trkpt><trkpt lat="55.8199070" lon="49.1647220"><time>2021-08-14T09:46:55</time></trkpt><trkpt lat="55.8199190" lon="49.1647310"><time>2021-08-14T09:46:56</time></trkpt><trkpt lat="55.8199320" lon="49.1647410"><time>2021-08-14T09:46:57</time></trkpt><trkpt lat="55.8199430" lon="49.1647550"><time>2021-08-14T09:46:58</time></trkpt><trkpt lat="55.8199570" lon="49.1647660"><time>2021-08-14T09:46:59</time></trkpt><trkpt lat="55.8199680" lon="49.1647780"><time>2021-08-14T09:47:00</time></trkpt><trkpt lat="55.8199830" lon="49.1647960"><time>2021-08-14T09:47:01</time></trkpt><trkpt lat="55.8200030" lon="49.1648050"><time>2021-08-14T09:47:02</time></trkpt><trkpt lat="55.8200110" lon="49.1648100"><time>2021-08-14T09:47:03</time></trkpt><trkpt lat="55.8200200" lon="49.1648140"><time>2021-08-14T09:47:04</time></trkpt><trkpt lat="55.8200320" lon="49.1648250"><time>2021-08-14T09:47:05</time></trkpt><trkpt lat="55.8200480" lon="49.1648430"><time>2021-08-14T09:47:06</time></trkpt><trkpt lat="55.8200530" lon="49.1648460"><time>2021-08-14T09:47:07</time></trkpt><trkpt lat="55.8200610" lon="49.1648510"><time>2021-08-14T09:47:08</time></trkpt><trkpt lat="55.8200720" lon="49.1648630"><time>2021-08-14T09:47:09</time></trkpt><trkpt lat="55.8200790" lon="49.1648740"><time>2021-08-14T09:47:10</time></trkpt><trkpt lat="55.8201050" lon="49.1648830"><time>2021-08-14T09:47:11</time></trkpt><trkpt lat="55.8201170" lon="49.1648890"><time>2021-08-14T09:47:12</time></trkpt><trkpt lat="55.8201260" lon="49.1648950"><time>2021-08-14T09:47:13</time></trkpt><trkpt lat="55.8201390" lon="49.1649040"><time>2021-08-14T09:47:14</time></trkpt><trkpt lat="55.8201490" lon="49.1649060"><time>2021-08-14T09:47:15</time></trkpt><trkpt lat="55.8201660" lon="49.1649060"><time>2021-08-14T09:47:16</time></trkpt><trkpt lat="55.8201780" lon="49.1649170"><time>2021-08-14T09:47:17</time></trkpt><trkpt lat="55.8201940" lon="49.1649280"><time>2021-08-14T09:47:18</time></trkpt><trkpt lat="55.8202010" lon="49.1649410"><time>2021-08-14T09:47:19</time></trkpt><trkpt lat="55.8202130" lon="49.1649530"><time>2021-08-14T09:47:20</time></trkpt><trkpt lat="55.8202190" lon="49.1649530"><time>2021-08-14T09:47:21</time></trkpt><trkpt lat="55.8202280" lon="49.1649570"><time>2021-08-14T09:47:22</time></trkpt><trkpt lat="55.8202540" lon="49.1649740"><time>2021-08-14T09:47:23</time></trkpt><trkpt lat="55.8202640" lon="49.1649790"><time>2021-08-14T09:47:24</time></trkpt><trkpt lat="55.8202790" lon="49.1649870"><time>2021-08-14T09:47:25</time></trkpt><trkpt lat="55.8202930" lon="49.1649970"><time>2021-08-14T09:47:26</time></trkpt><trkpt lat="55.8203080" lon="49.1650000"><time>2021-08-14T09:47:27</time></trkpt><trkpt lat="55.8203220" lon="49.1650020"><time>2021-08-14T09:47:28</time></trkpt><trkpt lat="55.8203430" lon="49.1650120"><time>2021-08-14T09:47:29</time></trkpt><trkpt lat="55.8203520" lon="49.1650180"><time>2021-08-14T09:47:30</time></trkpt><trkpt lat="55.8203600" lon="49.1650230"><time>2021-08-14T09:47:31</time></trkpt><trkpt lat="55.8203780" lon="49.1650290"><time>2021-08-14T09:47:32</time></trkpt><trkpt lat="55.8203880" lon="49.1650340"><time>2021-08-14T09:47:33</time></trkpt><trkpt lat="55.8204000" lon="49.1650410"><time>2021-08-14T09:47:34</time></trkpt><trkpt lat="55.8204150" lon="49.1650450"><time>2021-08-14T09:47:35</time></trkpt><trkpt lat="55.8204220" lon="49.1650440"><time>2021-08-14T09:47:36</time></trkpt><trkpt lat="55.8204380" lon="49.1650440"><time>2021-08-14T09:47:37</time></trkpt><trkpt lat="55.8204510" lon="49.1650510"><time>2021-08-14T09:47:38</time></trkpt><trkpt lat="55.8204630" lon="49.1650570"><time>2021-08-14T09:47:39</time></trkpt><trkpt lat="55.8204720" lon="49.1650640"><time>2021-08-14T09:47:40</time></trkpt><trkpt lat="55.8204830" lon="49.1650690"><time>2021-08-14T09:47:41</time></trkpt><trkpt lat="55.8204970" lon="49.1650670"><time>2021-08-14T09:47:42</time></trkpt><trkpt lat="55.8205170" lon="49.1650680"><time>2021-08-14T09:47:43</time></trkpt><trkpt lat="55.8205220" lon="49.1650690"><time>2021-08-14T09:47:44</time></trkpt><trkpt lat="55.8205340" lon="49.1650750"><time>2021-08-14T09:47:45</time></trkpt><trkpt lat="55.8205480" lon="49.1650780"><time>2021-08-14T09:47:46</time></trkpt><trkpt lat="55.8205620" lon="49.1650860"><time>2021-08-14T09:47:47</time></trkpt><trkpt lat="55.8205740" lon="49.1650900"><time>2021-08-14T09:47:48</time></trkpt><trkpt lat="55.8205950" lon="49.1651000"><time>2021-08-14T09:47:49</time></trkpt><trkpt lat="55.8206040" lon="49.1651060"><time>2021-08-14T09:47:50</time></trkpt><trkpt lat="55.8206120" lon="49.1651120"><time>2021-08-14T09:47:51</time></trkpt><trkpt lat="55.8206280" lon="49.1651200"><time>2021-08-14T09:47:52</time></trkpt><trkpt lat="55.8206420" lon="49.1651270"><time>2021-08-14T09:47:53</time></trkpt><trkpt lat="55.8206580" lon="49.1651310"><time>2021-08-14T09:47:54</time></trkpt><trkpt lat="55.8206740" lon="49.1651320"><time>2021-08-14T09:47:55</time></trkpt><trkpt lat="55.8206900" lon="49.1651290"><time>2021-08-14T09:47:56</time></trkpt><trkpt lat="55.8207040" lon="49.1651360"><time>2021-08-14T09:47:57</time></trkpt><trkpt lat="55.8207190" lon="49.1651380"><time>2021-08-14T09:47:58</time></trkpt><trkpt lat="55.8207350" lon="49.1651390"><time>2021-08-14T09:47:59</time></trkpt><trkpt lat="55.8207490" lon="49.1651380"><time>2021-08-14T09:48:00</time></trkpt><trkpt lat="55.8207630" lon="49.1651350"><time>2021-08-14T09:48:01</time></trkpt><trkpt lat="55.8207780" lon="49.1651280"><time>2021-08-14T09:48:02</time></trkpt><trkpt lat="55.8207910" lon="49.1651070"><time>2021-08-14T09:48:03</time></trkpt><trkpt lat="55.8208010" lon="49.1650880"><time>2021-08-14T09:48:04</time></trkpt><trkpt lat="55.8208100" lon="49.1650690"><time>2021-08-14T09:48:05</time></trkpt><trkpt lat="55.8208200" lon="49.1650530"><time>2021-08-14T09:48:06</time></trkpt><trkpt lat="55.8208360" lon="49.1650460"><time>2021-08-14T09:48:07</time></trkpt><trkpt lat="55.8208570" lon="49.1650340"><time>2021-08-14T09:48:08</time></trkpt><trkpt lat="55.8208670" lon="49.1650290"><time>2021-08-14T09:48:09</time></trkpt><trkpt lat="55.8208770" lon="49.1650250"><time>2021-08-14T09:48:10</time></trkpt><trkpt lat="55.8208920" lon="49.1650200"><time>2021-08-14T09:48:11</time></trkpt><trkpt lat="55.8209040" lon="49.1650090"><time>2021-08-14T09:48:12</time></trkpt><trkpt lat="55.8209180" lon="49.1650050"><time>2021-08-14T09:48:13</time></trkpt><trkpt lat="55.8209320" lon="49.1650020"><time>2021-08-14T09:48:14</time></trkpt><trkpt lat="55.8209460" lon="49.1649940"><time>2021-08-14T09:48:15</time></trkpt><trkpt lat="55.8209600" lon="49.1649910"><time>2021-08-14T09:48:16</time></trkpt><trkpt lat="55.8209830" lon="49.1649880"><time>2021-08-14T09:48:17</time></trkpt><trkpt lat="55.8209910" lon="49.1649870"><time>2021-08-14T09:48:18</time></trkpt><trkpt lat="55.8210000" lon="49.1649850"><time>2021-08-14T09:48:19</time></trkpt><trkpt lat="55.8210140" lon="49.1649860"><time>2021-08-14T09:48:20</time></trkpt><trkpt lat="55.8210280" lon="49.1649850"><time>2021-08-14T09:48:21</time></trkpt><trkpt lat="55.8210420" lon="49.1649840"><time>2021-08-14T09:48:22</time></trkpt><trkpt lat="55.8210550" lon="49.1649740"><time>2021-08-14T09:48:23</time></trkpt><trkpt lat="55.8210690" lon="49.1649690"><time>2021-08-14T09:48:24</time></trkpt><trkpt lat="55.8210830" lon="49.1649680"><time>2021-08-14T09:48:25</time></trkpt><trkpt lat="55.8211050" lon="49.1649690"><time>2021-08-14T09:48:26</time></trkpt><trkpt lat="55.8211130" lon="49.1649720"><time>2021-08-14T09:48:27</time></trkpt><trkpt lat="55.8211210" lon="49.1649740"><time>2021-08-14T09:48:28</time></trkpt><trkpt lat="55.8211340" lon="49.1649790"><time>2021-08-14T09:48:29</time></trkpt><trkpt lat="55.8211380" lon="49.1649730"><time>2021-08-14T09:48:30</time></trkpt><trkpt lat="55.8211420" lon="49.1649670"><time>2021-08-14T09:48:31</time></trkpt><trkpt lat="55.8211450" lon="49.1649600"><time>2021-08-14T09:48:32</time></trkpt><trkpt lat="55.8211490" lon="49.1649540"><time>2021-08-14T09:48:33</time></trkpt><trkpt lat="55.8211530" lon="49.1649480"><time>2021-08-14T09:48:34</time></trkpt><trkpt lat="55.8211570" lon="49.1649420"><time>2021-08-14T09:48:35</time></trkpt><trkpt lat="55.8211690" lon="49.1649170"><time>2021-08-14T09:48:36</time></trkpt><trkpt lat="55.8211780" lon="49.1649080"><time>2021-08-14T09:48:37</time></trkpt><trkpt lat="55.8211860" lon="49.1649000"><time>2021-08-14T09:48:38</time></trkpt><trkpt lat="55.8212050" lon="49.1648870"><time>2021-08-14T09:48:39</time></trkpt><trkpt lat="55.8212120" lon="49.1648800"><time>2021-08-14T09:48:40</time></trkpt><trkpt lat="55.8212200" lon="49.1648730"><time>2021-08-14T09:48:41</time></trkpt><trkpt lat="55.8212340" lon="49.1648540"><time>2021-08-14T09:48:42</time></trkpt><trkpt lat="55.8212440" lon="49.1648370"><time>2021-08-14T09:48:43</time></trkpt><trkpt lat="55.8212550" lon="49.1648250"><time>2021-08-14T09:48:44</time></trkpt><trkpt lat="55.8212520" lon="49.1648180"><time>2021-08-14T09:48:45</time></trkpt><trkpt lat="55.8212670" lon="49.1648100"><time>2021-08-14T09:48:46</time></trkpt><trkpt lat="55.8212850" lon="49.1648010"><time>2021-08-14T09:48:47</time></trkpt><trkpt lat="55.8213020" lon="49.1647940"><time>2021-08-14T09:48:48</time></trkpt><trkpt lat="55.8213210" lon="49.1648050"><time>2021-08-14T09:48:49</time></trkpt><trkpt lat="55.8213340" lon="49.1648130"><time>2021-08-14T09:48:50</time></trkpt><trkpt lat="55.8213460" lon="49.1648220"><time>2021-08-14T09:48:51</time></trkpt><trkpt lat="55.8213550" lon="49.1648140"><time>2021-08-14T09:48:52</time></trkpt><trkpt lat="55.8213720" lon="49.1648050"><time>2021-08-14T09:48:53</time></trkpt><trkpt lat="55.8213900" lon="49.1647980"><time>2021-08-14T09:48:54</time></trkpt><trkpt lat="55.8214000" lon="49.1647950"><time>2021-08-14T09:48:55</time></trkpt><trkpt lat="55.8214090" lon="49.1647920"><time>2021-08-14T09:48:56</time></trkpt><trkpt lat="55.8214300" lon="49.1647870"><time>2021-08-14T09:48:57</time></trkpt><trkpt lat="55.8214390" lon="49.1647850"><time>2021-08-14T09:48:58</time></trkpt><trkpt lat="55.8214480" lon="49.1647840"><time>2021-08-14T09:48:59</time></trkpt><trkpt lat="55.8214630" lon="49.1647780"><time>2021-08-14T09:49:00</time></trkpt><trkpt lat="55.8214770" lon="49.1647630"><time>2021-08-14T09:49:01</time></trkpt><trkpt lat="55.8214900" lon="49.1647490"><time>2021-08-14T09:49:02</time></trkpt><trkpt lat="55.8215010" lon="49.1647420"><time>2021-08-14T09:49:03</time></trkpt><trkpt lat="55.8215140" lon="49.1647360"><time>2021-08-14T09:49:04</time></trkpt><trkpt lat="55.8215320" lon="49.1647320"><time>2021-08-14T09:49:05</time></trkpt><trkpt lat="55.8215560" lon="49.1647270"><time>2021-08-14T09:49:06</time></trkpt><trkpt lat="55.8215670" lon="49.1647230"><time>2021-08-14T09:49:07</time></trkpt><trkpt lat="55.8215780" lon="49.1647200"><time>2021-08-14T09:49:08</time></trkpt><trkpt lat="55.8215950" lon="49.1647240"><time>2021-08-14T09:49:09</time></trkpt><trkpt lat="55.8216130" lon="49.1647200"><time>2021-08-14T09:49:10</time></trkpt><trkpt lat="55.8216250" lon="49.1647110"><time>2021-08-14T09:49:11</time></trkpt><trkpt lat="55.8216380" lon="49.1647000"><time>2021-08-14T09:49:12</time></trkpt><trkpt lat="55.8216570" lon="49.1646970"><time>2021-08-14T09:49:13</time></trkpt><trkpt lat="55.8216700" lon="49.1646800"><time>2021-08-14T09:49:14</time></trkpt><trkpt lat="55.8216840" lon="49.1646690"><time>2021-08-14T09:49:15</time></trkpt><trkpt lat="55.8216970" lon="49.1646570"><time>2021-08-14T09:49:16</time></trkpt><trkpt lat="55.8217110" lon="49.1646430"><time>2021-08-14T09:49:17</time></trkpt><trkpt lat="55.8217240" lon="49.1646290"><time>2021-08-14T09:49:18</time></trkpt><trkpt lat="55.8217380" lon="49.1646210"><time>2021-08-14T09:49:19</time></trkpt><trkpt lat="55.8217510" lon="49.1646110"><time>2021-08-14T09:49:20</time></trkpt><trkpt lat="55.8217650" lon="49.1646050"><time>2021-08-14T09:49:21</time></trkpt><trkpt lat="55.8217790" lon="49.1645950"><time>2021-08-14T09:49:22</time></trkpt><trkpt lat="55.8217930" lon="49.1645870"><time>2021-08-14T09:49:23</time></trkpt><trkpt lat="55.8218060" lon="49.1645780"><time>2021-08-14T09:49:24</time></trkpt><trkpt lat="55.8218190" lon="49.1645670"><time>2021-08-14T09:49:25</time></trkpt><trkpt lat="55.8218330" lon="49.1645580"><time>2021-08-14T09:49:26</time></trkpt><trkpt lat="55.8218450" lon="49.1645450"><time>2021-08-14T09:49:27</time></trkpt><trkpt lat="55.8218570" lon="49.1645340"><time>2021-08-14T09:49:28</time></trkpt><trkpt lat="55.8218700" lon="49.1645220"><time>2021-08-14T09:49:29</time></trkpt><trkpt lat="55.8218820" lon="49.1645100"><time>2021-08-14T09:49:30</time></trkpt><trkpt lat="55.8218940" lon="49.1644940"><time>2021-08-14T09:49:31</time></trkpt><trkpt lat="55.8219050" lon="49.1644790"><time>2021-08-14T09:49:32</time></trkpt><trkpt lat="55.8219160" lon="49.1644630"><time>2021-08-14T09:49:33</time></trkpt><trkpt lat="55.8219300" lon="49.1644530"><time>2021-08-14T09:49:34</time></trkpt><trkpt lat="55.8219440" lon="49.1644440"><time>2021-08-14T09:49:35</time></trkpt><trkpt lat="55.8219570" lon="49.1644400"><time>2021-08-14T09:49:36</time></trkpt><trkpt lat="55.8219710" lon="49.1644320"><time>2021-08-14T09:49:37</time></trkpt><trkpt lat="55.8219820" lon="49.1644150"><time>2021-08-14T09:49:38</time></trkpt><trkpt lat="55.8219930" lon="49.1644010"><time>2021-08-14T09:49:39</time></trkpt><trkpt lat="55.8220060" lon="49.1643860"><time>2021-08-14T09:49:40</time></trkpt><trkpt lat="55.8220210" lon="49.1643740"><time>2021-08-14T09:49:41</time></trkpt><trkpt lat="55.8220340" lon="49.1643630"><time>2021-08-14T09:49:42</time></trkpt><trkpt lat="55.8220490" lon="49.1643610"><time>2021-08-14T09:49:43</time></trkpt><trkpt lat="55.8220630" lon="49.1643450"><time>2021-08-14T09:49:44</time></trkpt><trkpt lat="55.8220770" lon="49.1643310"><time>2021-08-14T09:49:45</time></trkpt><trkpt lat="55.8220890" lon="49.1643160"><time>2021-08-14T09:49:46</time></trkpt><trkpt lat="55.8221040" lon="49.1643120"><time>2021-08-14T09:49:47</time></trkpt><trkpt lat="55.8221160" lon="49.1642940"><time>2021-08-14T09:49:48</time></trkpt><trkpt lat="55.8221290" lon="49.1642820"><time>2021-08-14T09:49:49</time></trkpt><trkpt lat="55.8221450" lon="49.1642710"><time>2021-08-14T09:49:50</time></trkpt><trkpt lat="55.8221600" lon="49.1642580"><time>2021-08-14T09:49:51</time></trkpt><trkpt lat="55.8221720" lon="49.1642420"><time>2021-08-14T09:49:52</time></trkpt><trkpt lat="55.8221840" lon="49.1642270"><time>2021-08-14T09:49:53</time></trkpt><trkpt lat="55.8221960" lon="49.1642110"><time>2021-08-14T09:49:54</time></trkpt><trkpt lat="55.8222080" lon="49.1641970"><time>2021-08-14T09:49:55</time></trkpt><trkpt lat="55.8222210" lon="49.1641880"><time>2021-08-14T09:49:56</time></trkpt><trkpt lat="55.8222310" lon="49.1641660"><time>2021-08-14T09:49:57</time></trkpt><trkpt lat="55.8222460" lon="49.1641520"><time>2021-08-14T09:49:58</time></trkpt><trkpt lat="55.8222580" lon="49.1641290"><time>2021-08-14T09:49:59</time></trkpt><trkpt lat="55.8222700" lon="49.1641130"><time>2021-08-14T09:50:00</time></trkpt><trkpt lat="55.8222850" lon="49.1641070"><time>2021-08-14T09:50:01</time></trkpt><trkpt lat="55.8222950" lon="49.1640820"><time>2021-08-14T09:50:02</time></trkpt><trkpt lat="55.8223050" lon="49.1640650"><time>2021-08-14T09:50:03</time></trkpt><trkpt lat="55.8223180" lon="49.1640470"><time>2021-08-14T09:50:04</time></trkpt><trkpt lat="55.8223320" lon="49.1640370"><time>2021-08-14T09:50:05</time></trkpt><trkpt lat="55.8223460" lon="49.1640240"><time>2021-08-14T09:50:06</time></trkpt><trkpt lat="55.8223590" lon="49.1640070"><time>2021-08-14T09:50:07</time></trkpt><trkpt lat="55.8223690" lon="49.1639890"><time>2021-08-14T09:50:08</time></trkpt><trkpt lat="55.8223800" lon="49.1639710"><time>2021-08-14T09:50:09</time></trkpt><trkpt lat="55.8223930" lon="49.1639560"><time>2021-08-14T09:50:10</time></trkpt><trkpt lat="55.8224060" lon="49.1639400"><time>2021-08-14T09:50:11</time></trkpt><trkpt lat="55.8224180" lon="49.1639280"><time>2021-08-14T09:50:12</time></trkpt><trkpt lat="55.8224320" lon="49.1639190"><time>2021-08-14T09:50:13</time></trkpt><trkpt lat="55.8224450" lon="49.1639040"><time>2021-08-14T09:50:14</time></trkpt><trkpt lat="55.8224580" lon="49.1638900"><time>2021-08-14T09:50:15</time></trkpt><trkpt lat="55.8224720" lon="49.1638930"><time>2021-08-14T09:50:16</time></trkpt><trkpt lat="55.8224850" lon="49.1638830"><time>2021-08-14T09:50:17</time></trkpt><trkpt lat="55.8224940" lon="49.1638630"><time>2021-08-14T09:50:18</time></trkpt><trkpt lat="55.8224980" lon="49.1638370"><time>2021-08-14T09:50:19</time></trkpt><trkpt lat="55.8225050" lon="49.1638140"><time>2021-08-14T09:50:20</time></trkpt><trkpt lat="55.8225130" lon="49.1637920"><time>2021-08-14T09:50:21</time></trkpt><trkpt lat="55.8225170" lon="49.1637690"><time>2021-08-14T09:50:22</time></trkpt><trkpt lat="55.8225240" lon="49.1637310"><time>2021-08-14T09:50:23</time></trkpt><trkpt lat="55.8225320" lon="49.1637210"><time>2021-08-14T09:50:24</time></trkpt><trkpt lat="55.8225400" lon="49.1637110"><time>2021-08-14T09:50:25</time></trkpt><trkpt lat="55.8225500" lon="49.1636960"><time>2021-08-14T09:50:26</time></trkpt><trkpt lat="55.8225500" lon="49.1636620"><time>2021-08-14T09:50:27</time></trkpt><trkpt lat="55.8225470" lon="49.1636300"><time>2021-08-14T09:50:28</time></trkpt><trkpt lat="55.8225550" lon="49.1636080"><time>2021-08-14T09:50:29</time></trkpt><trkpt lat="55.8225540" lon="49.1635780"><time>2021-08-14T09:50:30</time></trkpt><trkpt lat="55.8225580" lon="49.1635520"><time>2021-08-14T09:50:31</time></trkpt><trkpt lat="55.8225650" lon="49.1635270"><time>2021-08-14T09:50:32</time></trkpt><trkpt lat="55.8225640" lon="49.1635030"><time>2021-08-14T09:50:33</time></trkpt><trkpt lat="55.8225650" lon="49.1634790"><time>2021-08-14T09:50:34</time></trkpt><trkpt lat="55.8225720" lon="49.1634540"><time>2021-08-14T09:50:35</time></trkpt><trkpt lat="55.8225700" lon="49.1634290"><time>2021-08-14T09:50:36</time></trkpt><trkpt lat="55.8225740" lon="49.1634030"><time>2021-08-14T09:50:37</time></trkpt><trkpt lat="55.8225790" lon="49.1633760"><time>2021-08-14T09:50:38</time></trkpt><trkpt lat="55.8225860" lon="49.1633500"><time>2021-08-14T09:50:39</time></trkpt><trkpt lat="55.8225900" lon="49.1633260"><time>2021-08-14T09:50:40</time></trkpt><trkpt lat="55.8226010" lon="49.1633000"><time>2021-08-14T09:50:41</time></trkpt><trkpt lat="55.8226130" lon="49.1632740"><time>2021-08-14T09:50:42</time></trkpt><trkpt lat="55.8226170" lon="49.1632490"><time>2021-08-14T09:50:43</time></trkpt><trkpt lat="55.8226230" lon="49.1632230"><time>2021-08-14T09:50:44</time></trkpt><trkpt lat="55.8226270" lon="49.1631900"><time>2021-08-14T09:50:45</time></trkpt><trkpt lat="55.8226310" lon="49.1631640"><time>2021-08-14T09:50:46</time></trkpt><trkpt lat="55.8226360" lon="49.1631420"><time>2021-08-14T09:50:47</time></trkpt><trkpt lat="55.8226420" lon="49.1631190"><time>2021-08-14T09:50:48</time></trkpt><trkpt lat="55.8226520" lon="49.1630920"><time>2021-08-14T09:50:49</time></trkpt><trkpt lat="55.8226560" lon="49.1630660"><time>2021-08-14T09:50:50</time></trkpt><trkpt lat="55.8226620" lon="49.1630400"><time>2021-08-14T09:50:51</time></trkpt><trkpt lat="55.8226760" lon="49.1630240"><time>2021-08-14T09:50:52</time></trkpt><trkpt lat="55.8226850" lon="49.1630020"><time>2021-08-14T09:50:53</time></trkpt><trkpt lat="55.8226910" lon="49.1629740"><time>2021-08-14T09:50:54</time></trkpt><trkpt lat="55.8227040" lon="49.1629550"><time>2021-08-14T09:50:55</time></trkpt><trkpt lat="55.8227160" lon="49.1629320"><time>2021-08-14T09:50:56</time></trkpt><trkpt lat="55.8227250" lon="49.1629110"><time>2021-08-14T09:50:57</time></trkpt><trkpt lat="55.8227280" lon="49.1628840"><time>2021-08-14T09:50:58</time></trkpt><trkpt lat="55.8227370" lon="49.1628610"><time>2021-08-14T09:50:59</time></trkpt><trkpt lat="55.8227410" lon="49.1628400"><time>2021-08-14T09:51:00</time></trkpt><trkpt lat="55.8227570" lon="49.1627950"><time>2021-08-14T09:51:01</time></trkpt><trkpt lat="55.8227650" lon="49.1627710"><time>2021-08-14T09:51:02</time></trkpt><trkpt lat="55.8227700" lon="49.1627490"><time>2021-08-14T09:51:03</time></trkpt><trkpt lat="55.8227720" lon="49.1627230"><time>2021-08-14T09:51:04</time></trkpt><trkpt lat="55.8227760" lon="49.1626940"><time>2021-08-14T09:51:05</time></trkpt><trkpt lat="55.8227860" lon="49.1626740"><time>2021-08-14T09:51:06</time></trkpt><trkpt lat="55.8227910" lon="49.1626480"><time>2021-08-14T09:51:07</time></trkpt><trkpt lat="55.8227990" lon="49.1626280"><time>2021-08-14T09:51:08</time></trkpt><trkpt lat="55.8228020" lon="49.1626040"><time>2021-08-14T09:51:09</time></trkpt><trkpt lat="55.8228060" lon="49.1625760"><time>2021-08-14T09:51:10</time></trkpt><trkpt lat="55.8228150" lon="49.1625550"><time>2021-08-14T09:51:11</time></trkpt><trkpt lat="55.8228240" lon="49.1625340"><time>2021-08-14T09:51:12</time></trkpt><trkpt lat="55.8228260" lon="49.1625100"><time>2021-08-14T09:51:13</time></trkpt><trkpt lat="55.8228350" lon="49.1624870"><time>2021-08-14T09:51:14</time></trkpt><trkpt lat="55.8228440" lon="49.1624650"><time>2021-08-14T09:51:15</time></trkpt><trkpt lat="55.8228570" lon="49.1624470"><time>2021-08-14T09:51:16</time></trkpt><trkpt lat="55.8228650" lon="49.1624260"><time>2021-08-14T09:51:17</time></trkpt><trkpt lat="55.8228710" lon="49.1624030"><time>2021-08-14T09:51:18</time></trkpt><trkpt lat="55.8228800" lon="49.1623810"><time>2021-08-14T09:51:19</time></trkpt><trkpt lat="55.8228890" lon="49.1623610"><time>2021-08-14T09:51:20</time></trkpt><trkpt lat="55.8228960" lon="49.1623370"><time>2021-08-14T09:51:21</time></trkpt><trkpt lat="55.8229060" lon="49.1623140"><time>2021-08-14T09:51:22</time></trkpt><trkpt lat="55.8229140" lon="49.1622880"><time>2021-08-14T09:51:23</time></trkpt><trkpt lat="55.8229220" lon="49.1622630"><time>2021-08-14T09:51:24</time></trkpt><trkpt lat="55.8229280" lon="49.1622380"><time>2021-08-14T09:51:25</time></trkpt><trkpt lat="55.8229330" lon="49.1622110"><time>2021-08-14T09:51:26</time></trkpt><trkpt lat="55.8229400" lon="49.1621880"><time>2021-08-14T09:51:27</time></trkpt><trkpt lat="55.8229470" lon="49.1621660"><time>2021-08-14T09:51:28</time></trkpt><trkpt lat="55.8229540" lon="49.1621460"><time>2021-08-14T09:51:29</time></trkpt><trkpt lat="55.8229640" lon="49.1621240"><time>2021-08-14T09:51:30</time></trkpt><trkpt lat="55.8229710" lon="49.1621020"><time>2021-08-14T09:51:31</time></trkpt><trkpt lat="55.8229790" lon="49.1620800"><time>2021-08-14T09:51:32</time></trkpt><trkpt lat="55.8229840" lon="49.1620550"><time>2021-08-14T09:51:33</time></trkpt><trkpt lat="55.8229910" lon="49.1620330"><time>2021-08-14T09:51:34</time></trkpt><trkpt lat="55.8229980" lon="49.1620100"><time>2021-08-14T09:51:35</time></trkpt><trkpt lat="55.8230020" lon="49.1619840"><time>2021-08-14T09:51:36</time></trkpt><trkpt lat="55.8230090" lon="49.1619580"><time>2021-08-14T09:51:37</time></trkpt><trkpt lat="55.8230190" lon="49.1619380"><time>2021-08-14T09:51:38</time></trkpt><trkpt lat="55.8230240" lon="49.1619120"><time>2021-08-14T09:51:39</time></trkpt><trkpt lat="55.8230320" lon="49.1618880"><time>2021-08-14T09:51:40</time></trkpt><trkpt lat="55.8230390" lon="49.1618660"><time>2021-08-14T09:51:41</time></trkpt><trkpt lat="55.8230450" lon="49.1618420"><time>2021-08-14T09:51:42</time></trkpt><trkpt lat="55.8230500" lon="49.1618170"><time>2021-08-14T09:51:43</time></trkpt><trkpt lat="55.8230570" lon="49.1617920"><time>2021-08-14T09:51:44</time></trkpt><trkpt lat="55.8230640" lon="49.1617710"><time>2021-08-14T09:51:45</time></trkpt><trkpt lat="55.8230760" lon="49.1617520"><time>2021-08-14T09:51:46</time></trkpt><trkpt lat="55.8230830" lon="49.1617290"><time>2021-08-14T09:51:47</time></trkpt><trkpt lat="55.8230930" lon="49.1617070"><time>2021-08-14T09:51:48</time></trkpt><trkpt lat="55.8231040" lon="49.1616880"><time>2021-08-14T09:51:49</time></trkpt><trkpt lat="55.8231100" lon="49.1616630"><time>2021-08-14T09:51:50</time></trkpt><trkpt lat="55.8231180" lon="49.1616440"><time>2021-08-14T09:51:51</time></trkpt><trkpt lat="55.8231330" lon="49.1616290"><time>2021-08-14T09:51:52</time></trkpt><trkpt lat="55.8231460" lon="49.1616080"><time>2021-08-14T09:51:53</time></trkpt><trkpt lat="55.8231540" lon="49.1615830"><time>2021-08-14T09:51:54</time></trkpt><trkpt lat="55.8231640" lon="49.1615650"><time>2021-08-14T09:51:55</time></trkpt><trkpt lat="55.8231750" lon="49.1615450"><time>2021-08-14T09:51:56</time></trkpt><trkpt lat="55.8231840" lon="49.1615260"><time>2021-08-14T09:51:57</time></trkpt><trkpt lat="55.8231910" lon="49.1615030"><time>2021-08-14T09:51:58</time></trkpt><trkpt lat="55.8232010" lon="49.1614810"><time>2021-08-14T09:51:59</time></trkpt><trkpt lat="55.8232070" lon="49.1614560"><time>2021-08-14T09:52:00</time></trkpt><trkpt lat="55.8232110" lon="49.1614330"><time>2021-08-14T09:52:01</time></trkpt><trkpt lat="55.8232130" lon="49.1614060"><time>2021-08-14T09:52:02</time></trkpt><trkpt lat="55.8232140" lon="49.1613800"><time>2021-08-14T09:52:03</time></trkpt><trkpt lat="55.8232190" lon="49.1613500"><time>2021-08-14T09:52:04</time></trkpt><trkpt lat="55.8232170" lon="49.1613220"><time>2021-08-14T09:52:05</time></trkpt><trkpt lat="55.8232130" lon="49.1612960"><time>2021-08-14T09:52:06</time></trkpt><trkpt lat="55.8232090" lon="49.1612720"><time>2021-08-14T09:52:07</time></trkpt><trkpt lat="55.8232130" lon="49.1612440"><time>2021-08-14T09:52:08</time></trkpt><trkpt lat="55.8232170" lon="49.1612170"><time>2021-08-14T09:52:09</time></trkpt><trkpt lat="55.8232140" lon="49.1611680"><time>2021-08-14T09:52:11</time></trkpt><trkpt lat="55.8232140" lon="49.1611430"><time>2021-08-14T09:52:12</time></trkpt><trkpt lat="55.8232160" lon="49.1611160"><time>2021-08-14T09:52:13</time></trkpt><trkpt lat="55.8232170" lon="49.1610830"><time>2021-08-14T09:52:14</time></trkpt><trkpt lat="55.8232170" lon="49.1610510"><time>2021-08-14T09:52:16</time></trkpt><trkpt lat="55.8232170" lon="49.1610280"><time>2021-08-14T09:52:17</time></trkpt><trkpt lat="55.8231970" lon="49.1610190"><time>2021-08-14T09:52:18</time></trkpt><trkpt lat="55.8231890" lon="49.1610220"><time>2021-08-14T09:52:19</time></trkpt><trkpt lat="55.8231800" lon="49.1610260"><time>2021-08-14T09:52:20</time></trkpt><trkpt lat="55.8231830" lon="49.1610300"><time>2021-08-14T09:52:21</time></trkpt><trkpt lat="55.8231970" lon="49.1610330"><time>2021-08-14T09:52:22</time></trkpt><trkpt lat="55.8231970" lon="49.1610080"><time>2021-08-14T09:52:23</time></trkpt><trkpt lat="55.8231960" lon="49.1609850"><time>2021-08-14T09:52:24</time></trkpt><trkpt lat="55.8231960" lon="49.1609710"><time>2021-08-14T09:52:25</time></trkpt><trkpt lat="55.8231960" lon="49.1609610"><time>2021-08-14T09:52:26</time></trkpt><trkpt lat="55.8231940" lon="49.1609370"><time>2021-08-14T09:52:27</time></trkpt><trkpt lat="55.8231890" lon="49.1609440"><time>2021-08-14T09:52:28</time></trkpt><trkpt lat="55.8231830" lon="49.1609440"><time>2021-08-14T09:52:29</time></trkpt><trkpt lat="55.8231820" lon="49.1609400"><time>2021-08-14T09:52:30</time></trkpt><trkpt lat="55.8231820" lon="49.1609300"><time>2021-08-14T09:52:31</time></trkpt><trkpt lat="55.8231800" lon="49.1609270"><time>2021-08-14T09:52:32</time></trkpt><trkpt lat="55.8231770" lon="49.1609240"><time>2021-08-14T09:52:33</time></trkpt><trkpt lat="55.8231750" lon="49.1609210"><time>2021-08-14T09:52:34</time></trkpt><trkpt lat="55.8231740" lon="49.1609240"><time>2021-08-14T09:52:35</time></trkpt><trkpt lat="55.8231730" lon="49.1609330"><time>2021-08-14T09:52:36</time></trkpt><trkpt lat="55.8231740" lon="49.1609410"><time>2021-08-14T09:52:37</time></trkpt><trkpt lat="55.8231730" lon="49.1609420"><time>2021-08-14T09:52:38</time></trkpt><trkpt lat="55.8231700" lon="49.1609490"><time>2021-08-14T09:52:39</time></trkpt><trkpt lat="55.8231700" lon="49.1609530"><time>2021-08-14T09:52:40</time></trkpt><trkpt lat="55.8231680" lon="49.1609570"><time>2021-08-14T09:52:41</time></trkpt><trkpt lat="55.8231660" lon="49.1609580"><time>2021-08-14T09:52:42</time></trkpt><trkpt lat="55.8231650" lon="49.1609580"><time>2021-08-14T09:52:43</time></trkpt><trkpt lat="55.8231640" lon="49.1609610"><time>2021-08-14T09:52:44</time></trkpt><trkpt lat="55.8231640" lon="49.1609630"><time>2021-08-14T09:52:45</time></trkpt><trkpt lat="55.8231650" lon="49.1609600"><time>2021-08-14T09:52:46</time></trkpt><trkpt lat="55.8231650" lon="49.1609620"><time>2021-08-14T09:52:47</time></trkpt><trkpt lat="55.8231670" lon="49.1609670"><time>2021-08-14T09:52:48</time></trkpt><trkpt lat="55.8231670" lon="49.1609570"><time>2021-08-14T09:52:49</time></trkpt><trkpt lat="55.8231660" lon="49.1609660"><time>2021-08-14T09:52:50</time></trkpt><trkpt lat="55.8231640" lon="49.1609620"><time>2021-08-14T09:52:51</time></trkpt><trkpt lat="55.8231650" lon="49.1609690"><time>2021-08-14T09:52:52</time></trkpt><trkpt lat="55.8231640" lon="49.1609730"><time>2021-08-14T09:52:53</time></trkpt><trkpt lat="55.8231640" lon="49.1609730"><time>2021-08-14T09:52:54</time></trkpt><trkpt lat="55.8231660" lon="49.1609740"><time>2021-08-14T09:52:55</time></trkpt><trkpt lat="55.8231680" lon="49.1609750"><time>2021-08-14T09:52:56</time></trkpt><trkpt lat="55.8231670" lon="49.1609750"><time>2021-08-14T09:52:57</time></trkpt><trkpt lat="55.8231680" lon="49.1609730"><time>2021-08-14T09:52:58</time></trkpt></trkseg></trk></gpx>